<?xml version='1.0' encoding='UTF-8'?><gpx version="1.1" creator="JPX - https://github.com/jenetics/jpx" xmlns="http://www.topografix.com/GPX/1/1"><trk><trkseg><trkpt lat="40.28314594774318" lon="15.662306020255008"><ele>489.0</ele><time>2026-03-27T08:14:12.999Z</time></trkpt><trkpt lat="40.28321152677222" lon="15.66227849967405"><ele>489.0</ele><time>2026-03-27T08:14:13.999Z</time></trkpt><trkpt lat="40.28327894575339" lon="15.66224791786111"><ele>489.0</ele><time>2026-03-27T08:14:14.999Z</time></trkpt><trkpt lat="40.28335665564666" lon="15.662191635832402"><ele>489.0</ele><time>2026-03-27T08:14:15.999Z</time></trkpt><trkpt lat="40.28344460857263" lon="15.662155270214553"><ele>489.0</ele><time>2026-03-27T08:14:16.999Z</time></trkpt><trkpt lat="40.28353364157379" lon="15.662136429949173"><ele>489.0</ele><time>2026-03-27T08:14:17.999Z</time></trkpt><trkpt lat="40.28361685061125" lon="15.662101881932097"><ele>489.0</ele><time>2026-03-27T08:14:18.999Z</time></trkpt><trkpt lat="40.28369668514761" lon="15.662068734964464"><ele>489.0</ele><time>2026-03-27T08:14:19.999Z</time></trkpt><trkpt lat="40.283769355418855" lon="15.6620385625764"><ele>489.0</ele><time>2026-03-27T08:14:20.999Z</time></trkpt><trkpt lat="40.283837412329085" lon="15.66201131964844"><ele>489.0</ele><time>2026-03-27T08:14:21.999Z</time></trkpt><trkpt lat="40.28391045489092" lon="15.661969202893555"><ele>489.0</ele><time>2026-03-27T08:14:22.999Z</time></trkpt><trkpt lat="40.28399877992768" lon="15.661956061577047"><ele>489.0</ele><time>2026-03-27T08:14:23.999Z</time></trkpt><trkpt lat="40.284091931537745" lon="15.661952383962555"><ele>488.4</ele><time>2026-03-27T08:14:24.999Z</time></trkpt><trkpt lat="40.2841873060964" lon="15.661982546781996"><ele>487.79999999999995</ele><time>2026-03-27T08:14:25.999Z</time></trkpt><trkpt lat="40.284287899707756" lon="15.661985479116955"><ele>487.20000000000005</ele><time>2026-03-27T08:14:26.999Z</time></trkpt><trkpt lat="40.28439015488528" lon="15.662010969558375"><ele>486.6</ele><time>2026-03-27T08:14:27.999Z</time></trkpt><trkpt lat="40.28449284963674" lon="15.662064971428775"><ele>486.0</ele><time>2026-03-27T08:14:28.999Z</time></trkpt><trkpt lat="40.28460261006937" lon="15.66207475636875"><ele>486.0</ele><time>2026-03-27T08:14:29.999Z</time></trkpt><trkpt lat="40.28470068619593" lon="15.662106842433131"><ele>486.0</ele><time>2026-03-27T08:14:30.999Z</time></trkpt><trkpt lat="40.28478478080229" lon="15.66214290791833"><ele>486.0</ele><time>2026-03-27T08:14:31.999Z</time></trkpt><trkpt lat="40.28486074180686" lon="15.662188069614063"><ele>486.0</ele><time>2026-03-27T08:14:32.999Z</time></trkpt><trkpt lat="40.28492051848079" lon="15.662254060893424"><ele>486.0</ele><time>2026-03-27T08:14:33.999Z</time></trkpt><trkpt lat="40.284973449883225" lon="15.66233616604446"><ele>486.0</ele><time>2026-03-27T08:14:34.999Z</time></trkpt><trkpt lat="40.285008780009974" lon="15.662421609814045"><ele>486.0</ele><time>2026-03-27T08:14:35.999Z</time></trkpt><trkpt lat="40.2850322013985" lon="15.662511314995724"><ele>486.0</ele><time>2026-03-27T08:14:36.999Z</time></trkpt><trkpt lat="40.28505347807551" lon="15.662599113857302"><ele>486.0</ele><time>2026-03-27T08:14:37.999Z</time></trkpt><trkpt lat="40.285086304596504" lon="15.66268422837759"><ele>486.0</ele><time>2026-03-27T08:14:38.999Z</time></trkpt><trkpt lat="40.28512982493289" lon="15.6627656136278"><ele>486.0</ele><time>2026-03-27T08:14:39.999Z</time></trkpt><trkpt lat="40.28518443502606" lon="15.662850136455951"><ele>486.0</ele><time>2026-03-27T08:14:40.999Z</time></trkpt><trkpt lat="40.285243931094705" lon="15.6629246459592"><ele>486.0</ele><time>2026-03-27T08:14:41.999Z</time></trkpt><trkpt lat="40.28531233090999" lon="15.663007665020718"><ele>486.0</ele><time>2026-03-27T08:14:42.999Z</time></trkpt><trkpt lat="40.285387948490346" lon="15.66309831649492"><ele>486.0</ele><time>2026-03-27T08:14:43.998Z</time></trkpt><trkpt lat="40.285465872554596" lon="15.663193697268456"><ele>486.0</ele><time>2026-03-27T08:14:44.998Z</time></trkpt><trkpt lat="40.28554711640424" lon="15.663292481093002"><ele>486.0</ele><time>2026-03-27T08:14:46Z</time></trkpt><trkpt lat="40.28562832044263" lon="15.663386702215327"><ele>486.0</ele><time>2026-03-27T08:14:47Z</time></trkpt><trkpt lat="40.28570189891335" lon="15.663470672413478"><ele>486.0</ele><time>2026-03-27T08:14:48Z</time></trkpt><trkpt lat="40.285771036306635" lon="15.663545241149556"><ele>486.0</ele><time>2026-03-27T08:14:49Z</time></trkpt><trkpt lat="40.28583568751832" lon="15.663619382613588"><ele>486.0</ele><time>2026-03-27T08:14:50Z</time></trkpt><trkpt lat="40.285885535038645" lon="15.663676477153848"><ele>486.0</ele><time>2026-03-27T08:14:51Z</time></trkpt><trkpt lat="40.28595941562841" lon="15.663769331357665"><ele>486.0</ele><time>2026-03-27T08:14:53Z</time></trkpt><trkpt lat="40.286001754884914" lon="15.663836813214553"><ele>486.0</ele><time>2026-03-27T08:14:55Z</time></trkpt><trkpt lat="40.28604465864683" lon="15.663911078239135"><ele>486.0</ele><time>2026-03-27T08:14:58Z</time></trkpt><trkpt lat="40.28618947164649" lon="15.663931279561425"><ele>486.0</ele><time>2026-03-27T08:15:29.999Z</time></trkpt><trkpt lat="40.28625220404744" lon="15.663920791098336"><ele>486.0</ele><time>2026-03-27T08:15:30.999Z</time></trkpt><trkpt lat="40.286321331401645" lon="15.66390261797699"><ele>486.0</ele><time>2026-03-27T08:15:31.999Z</time></trkpt><trkpt lat="40.28638821982145" lon="15.663868022147094"><ele>486.0</ele><time>2026-03-27T08:15:32.999Z</time></trkpt><trkpt lat="40.286454731768664" lon="15.66382234246981"><ele>486.1666666666667</ele><time>2026-03-27T08:15:33.999Z</time></trkpt><trkpt lat="40.28652199785615" lon="15.663779278357667"><ele>486.33333333333337</ele><time>2026-03-27T08:15:34.999Z</time></trkpt><trkpt lat="40.28659421718789" lon="15.6637326432122"><ele>486.5</ele><time>2026-03-27T08:15:35.999Z</time></trkpt><trkpt lat="40.28667256285719" lon="15.663675778636456"><ele>486.6666666666667</ele><time>2026-03-27T08:15:36.999Z</time></trkpt><trkpt lat="40.286754627866664" lon="15.66361489586537"><ele>486.83333333333337</ele><time>2026-03-27T08:15:37.999Z</time></trkpt><trkpt lat="40.28683782350208" lon="15.663551455085504"><ele>487.0</ele><time>2026-03-27T08:15:38.999Z</time></trkpt><trkpt lat="40.28692602616673" lon="15.663497209265257"><ele>486.6</ele><time>2026-03-27T08:15:39.999Z</time></trkpt><trkpt lat="40.28702001086631" lon="15.663458490796112"><ele>486.20000000000005</ele><time>2026-03-27T08:15:40.999Z</time></trkpt><trkpt lat="40.287119575400965" lon="15.663423886907202"><ele>485.8</ele><time>2026-03-27T08:15:41.999Z</time></trkpt><trkpt lat="40.28722068981594" lon="15.663391009507402"><ele>485.4</ele><time>2026-03-27T08:15:42.999Z</time></trkpt><trkpt lat="40.28732156279671" lon="15.663361203716658"><ele>485.0</ele><time>2026-03-27T08:15:43.999Z</time></trkpt><trkpt lat="40.28741745739665" lon="15.663332236552982"><ele>485.0</ele><time>2026-03-27T08:15:44.999Z</time></trkpt><trkpt lat="40.28751267031803" lon="15.663303421320833"><ele>485.0</ele><time>2026-03-27T08:15:45.999Z</time></trkpt><trkpt lat="40.28761156041606" lon="15.66328027132771"><ele>485.0</ele><time>2026-03-27T08:15:46.999Z</time></trkpt><trkpt lat="40.287715748167756" lon="15.66326472813984"><ele>485.0</ele><time>2026-03-27T08:15:47.999Z</time></trkpt><trkpt lat="40.28782101254993" lon="15.66325243366244"><ele>485.0</ele><time>2026-03-27T08:15:48.999Z</time></trkpt><trkpt lat="40.28791880956648" lon="15.663241005917842"><ele>485.0</ele><time>2026-03-27T08:15:49.999Z</time></trkpt><trkpt lat="40.28801442567365" lon="15.663229900715205"><ele>485.0</ele><time>2026-03-27T08:15:50.999Z</time></trkpt><trkpt lat="40.28810982172467" lon="15.66321731113553"><ele>485.0</ele><time>2026-03-27T08:15:51.999Z</time></trkpt><trkpt lat="40.28820761206476" lon="15.663205005299464"><ele>485.0</ele><time>2026-03-27T08:15:52.999Z</time></trkpt><trkpt lat="40.28831091431534" lon="15.6631954221031"><ele>485.0</ele><time>2026-03-27T08:15:53.999Z</time></trkpt><trkpt lat="40.288418416192755" lon="15.663186101876292"><ele>484.8</ele><time>2026-03-27T08:15:54.999Z</time></trkpt><trkpt lat="40.28852637100981" lon="15.663177628843332"><ele>484.6</ele><time>2026-03-27T08:15:55.999Z</time></trkpt><trkpt lat="40.288630834605875" lon="15.663174543523262"><ele>484.4</ele><time>2026-03-27T08:15:56.999Z</time></trkpt><trkpt lat="40.288733419163215" lon="15.663180163368263"><ele>484.2</ele><time>2026-03-27T08:15:57.999Z</time></trkpt><trkpt lat="40.288834279919186" lon="15.663200118408186"><ele>484.0</ele><time>2026-03-27T08:15:58.999Z</time></trkpt><trkpt lat="40.28893762598037" lon="15.663234587343194"><ele>484.6</ele><time>2026-03-27T08:15:59.999Z</time></trkpt><trkpt lat="40.289041299940415" lon="15.663272518674516"><ele>485.2</ele><time>2026-03-27T08:16:00.999Z</time></trkpt><trkpt lat="40.28914603361901" lon="15.663307311647879"><ele>485.80000000000007</ele><time>2026-03-27T08:16:01.999Z</time></trkpt><trkpt lat="40.28925367492459" lon="15.66333386934973"><ele>486.40000000000003</ele><time>2026-03-27T08:16:02.999Z</time></trkpt><trkpt lat="40.289364813981" lon="15.6633491850203"><ele>487.0</ele><time>2026-03-27T08:16:03.999Z</time></trkpt><trkpt lat="40.289479749585766" lon="15.663353103376792"><ele>487.0</ele><time>2026-03-27T08:16:04.999Z</time></trkpt><trkpt lat="40.28959582259694" lon="15.663348788089"><ele>487.0</ele><time>2026-03-27T08:16:05.999Z</time></trkpt><trkpt lat="40.289710670028846" lon="15.663331675104489"><ele>487.0</ele><time>2026-03-27T08:16:06.999Z</time></trkpt><trkpt lat="40.28982055914355" lon="15.66329142729264"><ele>487.0</ele><time>2026-03-27T08:16:07.999Z</time></trkpt><trkpt lat="40.28992406659404" lon="15.66322752504755"><ele>487.75</ele><time>2026-03-27T08:16:08.999Z</time></trkpt><trkpt lat="40.29002728076657" lon="15.663158734105762"><ele>488.5</ele><time>2026-03-27T08:16:09.999Z</time></trkpt><trkpt lat="40.290133964911895" lon="15.663101181825994"><ele>489.25</ele><time>2026-03-27T08:16:10.999Z</time></trkpt><trkpt lat="40.29024548006125" lon="15.663070278998493"><ele>490.0</ele><time>2026-03-27T08:16:11.999Z</time></trkpt><trkpt lat="40.29036019102594" lon="15.663038886066385"><ele>490.0</ele><time>2026-03-27T08:16:12.999Z</time></trkpt><trkpt lat="40.29047848084645" lon="15.663005070390092"><ele>490.0</ele><time>2026-03-27T08:16:13.999Z</time></trkpt><trkpt lat="40.29058992591346" lon="15.662969870278499"><ele>490.0</ele><time>2026-03-27T08:16:14.999Z</time></trkpt><trkpt lat="40.29068997592229" lon="15.662936936376292"><ele>490.0</ele><time>2026-03-27T08:16:15.999Z</time></trkpt><trkpt lat="40.290771750846275" lon="15.662906725884492"><ele>490.0</ele><time>2026-03-27T08:16:16.999Z</time></trkpt><trkpt lat="40.29083538111068" lon="15.662882432964002"><ele>490.2</ele><time>2026-03-27T08:16:17.999Z</time></trkpt><trkpt lat="40.29091301264515" lon="15.662844743033492"><ele>490.4</ele><time>2026-03-27T08:16:19.999Z</time></trkpt><trkpt lat="40.290976200303035" lon="15.662832547557203"><ele>490.6</ele><time>2026-03-27T08:16:22.999Z</time></trkpt><trkpt lat="40.29100523172522" lon="15.662609165667094"><ele>490.8</ele><time>2026-03-27T08:16:26.999Z</time></trkpt><trkpt lat="40.29099005566203" lon="15.662502383445256"><ele>491.0</ele><time>2026-03-27T08:16:27.999Z</time></trkpt><trkpt lat="40.29096817040774" lon="15.662376262063532"><ele>491.0</ele><time>2026-03-27T08:16:28.999Z</time></trkpt><trkpt lat="40.29094921257152" lon="15.662237854565591"><ele>491.0</ele><time>2026-03-27T08:16:29.999Z</time></trkpt><trkpt lat="40.290931939805866" lon="15.662084504359555"><ele>491.0</ele><time>2026-03-27T08:16:30.999Z</time></trkpt><trkpt lat="40.29090847187257" lon="15.661921108015335"><ele>491.0</ele><time>2026-03-27T08:16:31.999Z</time></trkpt><trkpt lat="40.29088146563978" lon="15.661753183844747"><ele>490.25</ele><time>2026-03-27T08:16:32.999Z</time></trkpt><trkpt lat="40.29085705365403" lon="15.661593485629572"><ele>489.5</ele><time>2026-03-27T08:16:33.999Z</time></trkpt><trkpt lat="40.29083632604231" lon="15.661429247105456"><ele>488.75</ele><time>2026-03-27T08:16:34.999Z</time></trkpt><trkpt lat="40.29081970057216" lon="15.661258233559494"><ele>488.0</ele><time>2026-03-27T08:16:35.999Z</time></trkpt><trkpt lat="40.2908067756685" lon="15.661080984425325"><ele>488.0</ele><time>2026-03-27T08:16:36.999Z</time></trkpt><trkpt lat="40.290802503667436" lon="15.660898726147352"><ele>488.0</ele><time>2026-03-27T08:16:37.999Z</time></trkpt><trkpt lat="40.29080616627402" lon="15.660713137889568"><ele>488.0</ele><time>2026-03-27T08:16:38.999Z</time></trkpt><trkpt lat="40.290815669876814" lon="15.660523238776037"><ele>488.0</ele><time>2026-03-27T08:16:39.999Z</time></trkpt><trkpt lat="40.290826759456564" lon="15.660331453017076"><ele>488.25</ele><time>2026-03-27T08:16:40.999Z</time></trkpt><trkpt lat="40.29082962410575" lon="15.66013652469814"><ele>488.5</ele><time>2026-03-27T08:16:41.999Z</time></trkpt><trkpt lat="40.29082484247968" lon="15.659943022235591"><ele>488.75</ele><time>2026-03-27T08:16:42.999Z</time></trkpt><trkpt lat="40.29081562577291" lon="15.659747839221652"><ele>489.0</ele><time>2026-03-27T08:16:43.999Z</time></trkpt><trkpt lat="40.290798645603346" lon="15.659551860131872"><ele>488.0</ele><time>2026-03-27T08:16:44.999Z</time></trkpt><trkpt lat="40.290775465005794" lon="15.659360599823989"><ele>487.0</ele><time>2026-03-27T08:16:45.999Z</time></trkpt><trkpt lat="40.290737865663736" lon="15.659171439345194"><ele>486.0</ele><time>2026-03-27T08:16:46.999Z</time></trkpt><trkpt lat="40.29068546685403" lon="15.658986144045958"><ele>485.0</ele><time>2026-03-27T08:16:47.999Z</time></trkpt><trkpt lat="40.29062670698506" lon="15.658799855183592"><ele>484.25</ele><time>2026-03-27T08:16:48.999Z</time></trkpt><trkpt lat="40.290567682925406" lon="15.658611909246396"><ele>483.5</ele><time>2026-03-27T08:16:49.998Z</time></trkpt><trkpt lat="40.29051143002153" lon="15.658432059223399"><ele>482.75</ele><time>2026-03-27T08:16:50.998Z</time></trkpt><trkpt lat="40.2904535195771" lon="15.658265705833198"><ele>482.0</ele><time>2026-03-27T08:16:52Z</time></trkpt><trkpt lat="40.290382651590136" lon="15.658114723715123"><ele>482.0</ele><time>2026-03-27T08:16:53Z</time></trkpt><trkpt lat="40.29029842111844" lon="15.657979381330708"><ele>482.0</ele><time>2026-03-27T08:16:54Z</time></trkpt><trkpt lat="40.290207308867394" lon="15.657847282614716"><ele>482.0</ele><time>2026-03-27T08:16:55Z</time></trkpt><trkpt lat="40.290116942151144" lon="15.657713758587427"><ele>482.0</ele><time>2026-03-27T08:16:56Z</time></trkpt><trkpt lat="40.2900332453667" lon="15.657580735287855"><ele>481.5</ele><time>2026-03-27T08:16:57Z</time></trkpt><trkpt lat="40.2899676995096" lon="15.657449808152354"><ele>481.0</ele><time>2026-03-27T08:16:58Z</time></trkpt><trkpt lat="40.28991824546978" lon="15.657308645692538"><ele>480.5</ele><time>2026-03-27T08:16:59Z</time></trkpt><trkpt lat="40.28988421022083" lon="15.65715222330428"><ele>480.0</ele><time>2026-03-27T08:17:00Z</time></trkpt><trkpt lat="40.28985644864023" lon="15.656988508604915"><ele>480.0</ele><time>2026-03-27T08:17:01Z</time></trkpt><trkpt lat="40.28983291382284" lon="15.656815512984814"><ele>480.0</ele><time>2026-03-27T08:17:02Z</time></trkpt><trkpt lat="40.289821082882604" lon="15.656635519179503"><ele>480.0</ele><time>2026-03-27T08:17:03Z</time></trkpt><trkpt lat="40.28982552472589" lon="15.656449680426267"><ele>480.0</ele><time>2026-03-27T08:17:04Z</time></trkpt><trkpt lat="40.28984402350802" lon="15.656262575026602"><ele>480.25</ele><time>2026-03-27T08:17:05Z</time></trkpt><trkpt lat="40.28988019223354" lon="15.656078777987215"><ele>480.5</ele><time>2026-03-27T08:17:06Z</time></trkpt><trkpt lat="40.28992269193249" lon="15.655894922237513"><ele>480.75</ele><time>2026-03-27T08:17:07Z</time></trkpt><trkpt lat="40.28996582615601" lon="15.655711055977362"><ele>481.0</ele><time>2026-03-27T08:17:08Z</time></trkpt><trkpt lat="40.29000581887937" lon="15.655543906351065"><ele>481.0</ele><time>2026-03-27T08:17:09Z</time></trkpt><trkpt lat="40.29003478479734" lon="15.655380172413983"><ele>481.0</ele><time>2026-03-27T08:17:10Z</time></trkpt><trkpt lat="40.29004884315788" lon="15.655219638340537"><ele>481.0</ele><time>2026-03-27T08:17:11Z</time></trkpt><trkpt lat="40.29003933318454" lon="15.65505684744424"><ele>481.0</ele><time>2026-03-27T08:17:12Z</time></trkpt><trkpt lat="40.29000126598196" lon="15.654899789759327"><ele>481.25</ele><time>2026-03-27T08:17:13Z</time></trkpt><trkpt lat="40.28994123265913" lon="15.654749010328123"><ele>481.5</ele><time>2026-03-27T08:17:14Z</time></trkpt><trkpt lat="40.289863492899734" lon="15.654601892266955"><ele>481.75</ele><time>2026-03-27T08:17:15Z</time></trkpt><trkpt lat="40.289778807760094" lon="15.654454790119011"><ele>482.0</ele><time>2026-03-27T08:17:16Z</time></trkpt><trkpt lat="40.28969253144197" lon="15.6543022844532"><ele>482.25</ele><time>2026-03-27T08:17:17Z</time></trkpt><trkpt lat="40.289604958442546" lon="15.654147927866262"><ele>482.5</ele><time>2026-03-27T08:17:18Z</time></trkpt><trkpt lat="40.289521896701785" lon="15.65399840634614"><ele>482.75</ele><time>2026-03-27T08:17:19Z</time></trkpt><trkpt lat="40.289442185546214" lon="15.65386040115794"><ele>483.0</ele><time>2026-03-27T08:17:20Z</time></trkpt><trkpt lat="40.28936419406048" lon="15.65373086983345"><ele>482.5</ele><time>2026-03-27T08:17:21Z</time></trkpt><trkpt lat="40.289283831679825" lon="15.653600257869757"><ele>482.0</ele><time>2026-03-27T08:17:22Z</time></trkpt><trkpt lat="40.289206177946525" lon="15.653466688142291"><ele>481.5</ele><time>2026-03-27T08:17:23Z</time></trkpt><trkpt lat="40.289132716827986" lon="15.653338325422048"><ele>481.0</ele><time>2026-03-27T08:17:24Z</time></trkpt><trkpt lat="40.289065885339596" lon="15.653216744705244"><ele>481.00000000000006</ele><time>2026-03-27T08:17:25Z</time></trkpt><trkpt lat="40.28901456957013" lon="15.653106618181234"><ele>481.0</ele><time>2026-03-27T08:17:26Z</time></trkpt><trkpt lat="40.288976323612864" lon="15.653010829512073"><ele>481.0</ele><time>2026-03-27T08:17:27Z</time></trkpt><trkpt lat="40.28894749281957" lon="15.65292073412621"><ele>481.0</ele><time>2026-03-27T08:17:28Z</time></trkpt><trkpt lat="40.28892519443681" lon="15.652836587459717"><ele>481.00000000000006</ele><time>2026-03-27T08:17:29Z</time></trkpt><trkpt lat="40.28889366471898" lon="15.652699951685541"><ele>481.0</ele><time>2026-03-27T08:17:31Z</time></trkpt><trkpt lat="40.28885393079836" lon="15.652570981339581"><ele>481.00000000000006</ele><time>2026-03-27T08:17:33Z</time></trkpt><trkpt lat="40.288831974795144" lon="15.652473850459408"><ele>481.0</ele><time>2026-03-27T08:17:35.999Z</time></trkpt><trkpt lat="40.28878324396254" lon="15.652380274467353"><ele>481.0</ele><time>2026-03-27T08:17:52.999Z</time></trkpt><trkpt lat="40.288751725159415" lon="15.652276088041468"><ele>481.0</ele><time>2026-03-27T08:17:56.999Z</time></trkpt><trkpt lat="40.28883837646798" lon="15.652162912189937"><ele>481.00000000000006</ele><time>2026-03-27T08:17:58.999Z</time></trkpt><trkpt lat="40.288899783912285" lon="15.652136244784993"><ele>481.0</ele><time>2026-03-27T08:17:59.999Z</time></trkpt><trkpt lat="40.28896449083423" lon="15.652102828335618"><ele>481.0</ele><time>2026-03-27T08:18:00.999Z</time></trkpt><trkpt lat="40.289039215848675" lon="15.652058573845393"><ele>481.0</ele><time>2026-03-27T08:18:01.999Z</time></trkpt><trkpt lat="40.289103474706984" lon="15.652020836560425"><ele>481.0</ele><time>2026-03-27T08:18:02.999Z</time></trkpt><trkpt lat="40.289167478115544" lon="15.651984480328228"><ele>481.0</ele><time>2026-03-27T08:18:03.999Z</time></trkpt><trkpt lat="40.28927163379717" lon="15.651925008469355"><ele>481.0</ele><time>2026-03-27T08:18:05.999Z</time></trkpt><trkpt lat="40.289385007172974" lon="15.651850766549048"><ele>481.1666666666667</ele><time>2026-03-27T08:18:07.999Z</time></trkpt><trkpt lat="40.289459575319455" lon="15.651806255561471"><ele>481.33333333333337</ele><time>2026-03-27T08:18:08.999Z</time></trkpt><trkpt lat="40.28953577623981" lon="15.65176354648897"><ele>481.5</ele><time>2026-03-27T08:18:09.999Z</time></trkpt><trkpt lat="40.28960150185207" lon="15.651726871423033"><ele>481.66666666666663</ele><time>2026-03-27T08:18:10.999Z</time></trkpt><trkpt lat="40.28968569238852" lon="15.651673690978427"><ele>481.8333333333333</ele><time>2026-03-27T08:18:12.999Z</time></trkpt><trkpt lat="40.28963359858983" lon="15.651721391379448"><ele>482.0</ele><time>2026-03-27T08:24:18.999Z</time></trkpt><trkpt lat="40.28957240947429" lon="15.651756174410004"><ele>481.99999999999994</ele><time>2026-03-27T08:24:29.999Z</time></trkpt><trkpt lat="40.2895041823235" lon="15.651794958141007"><ele>482.0</ele><time>2026-03-27T08:26:41.999Z</time></trkpt><trkpt lat="40.28944337844824" lon="15.651829522216227"><ele>482.0</ele><time>2026-03-27T08:26:46.999Z</time></trkpt><trkpt lat="40.28938512661662" lon="15.65186263553043"><ele>482.0</ele><time>2026-03-27T08:26:52.999Z</time></trkpt><trkpt lat="40.28948967027185" lon="15.651805842773923"><ele>481.99999999999994</ele><time>2026-03-27T08:30:41.999Z</time></trkpt><trkpt lat="40.289572583460476" lon="15.65176847405575"><ele>482.0</ele><time>2026-03-27T08:30:42.999Z</time></trkpt><trkpt lat="40.28966896895076" lon="15.651713803091665"><ele>482.0</ele><time>2026-03-27T08:30:43.999Z</time></trkpt><trkpt lat="40.28978159312974" lon="15.651646521266814"><ele>482.0</ele><time>2026-03-27T08:30:44.999Z</time></trkpt><trkpt lat="40.289904689207276" lon="15.651576385436"><ele>482.0</ele><time>2026-03-27T08:30:45.999Z</time></trkpt><trkpt lat="40.290038492977274" lon="15.651500732936952"><ele>482.0</ele><time>2026-03-27T08:30:46.999Z</time></trkpt><trkpt lat="40.29018264284013" lon="15.651419485505029"><ele>482.0</ele><time>2026-03-27T08:30:47.999Z</time></trkpt><trkpt lat="40.290334279970125" lon="15.651332074559857"><ele>482.0</ele><time>2026-03-27T08:30:48.999Z</time></trkpt><trkpt lat="40.29049338231929" lon="15.651241448602788"><ele>482.0</ele><time>2026-03-27T08:30:49.999Z</time></trkpt><trkpt lat="40.290659004248255" lon="15.651150250977762"><ele>481.66666666666663</ele><time>2026-03-27T08:30:50.999Z</time></trkpt><trkpt lat="40.29083155954145" lon="15.651055655433943"><ele>481.33333333333337</ele><time>2026-03-27T08:30:51.999Z</time></trkpt><trkpt lat="40.29100901976771" lon="15.650960275258068"><ele>481.0</ele><time>2026-03-27T08:30:52.999Z</time></trkpt><trkpt lat="40.29118984294852" lon="15.65086573570236"><ele>481.0</ele><time>2026-03-27T08:30:53.999Z</time></trkpt><trkpt lat="40.29137347997159" lon="15.650776755438075"><ele>481.0</ele><time>2026-03-27T08:30:54.999Z</time></trkpt><trkpt lat="40.29155939796006" lon="15.650689373785534"><ele>481.0</ele><time>2026-03-27T08:30:55.999Z</time></trkpt><trkpt lat="40.291750016421325" lon="15.650605778544687"><ele>481.0</ele><time>2026-03-27T08:30:56.999Z</time></trkpt><trkpt lat="40.29193747884259" lon="15.65051554685194"><ele>481.0</ele><time>2026-03-27T08:30:57.999Z</time></trkpt><trkpt lat="40.29212931423792" lon="15.65042668260459"><ele>481.0</ele><time>2026-03-27T08:30:58.999Z</time></trkpt><trkpt lat="40.29232201641034" lon="15.650339485649996"><ele>481.33333333333337</ele><time>2026-03-27T08:30:59.999Z</time></trkpt><trkpt lat="40.2925131359482" lon="15.650246846917913"><ele>481.66666666666663</ele><time>2026-03-27T08:31:00.999Z</time></trkpt><trkpt lat="40.292705663114646" lon="15.65015409473772"><ele>482.0</ele><time>2026-03-27T08:31:01.999Z</time></trkpt><trkpt lat="40.29290060866851" lon="15.650062330731632"><ele>481.66666666666663</ele><time>2026-03-27T08:31:02.999Z</time></trkpt><trkpt lat="40.29309526882268" lon="15.64997036540219"><ele>481.33333333333337</ele><time>2026-03-27T08:31:03.999Z</time></trkpt><trkpt lat="40.29329038709378" lon="15.649880726546293"><ele>481.0</ele><time>2026-03-27T08:31:04.999Z</time></trkpt><trkpt lat="40.29348824690774" lon="15.649792401583724"><ele>481.0</ele><time>2026-03-27T08:31:05.999Z</time></trkpt><trkpt lat="40.29368254303946" lon="15.649698649652697"><ele>481.0</ele><time>2026-03-27T08:31:06.999Z</time></trkpt><trkpt lat="40.29387891071459" lon="15.649608330345048"><ele>481.0</ele><time>2026-03-27T08:31:07.999Z</time></trkpt><trkpt lat="40.2940734738299" lon="15.649518677363089"><ele>480.6666666666667</ele><time>2026-03-27T08:31:08.999Z</time></trkpt><trkpt lat="40.29426910345877" lon="15.649432536134492"><ele>480.33333333333337</ele><time>2026-03-27T08:31:09.999Z</time></trkpt><trkpt lat="40.294463252025004" lon="15.649345130043478"><ele>480.0</ele><time>2026-03-27T08:31:10.999Z</time></trkpt><trkpt lat="40.294656541855126" lon="15.649257477062061"><ele>479.66666666666663</ele><time>2026-03-27T08:31:11.999Z</time></trkpt><trkpt lat="40.29484866582541" lon="15.649172097823152"><ele>479.3333333333333</ele><time>2026-03-27T08:31:12.999Z</time></trkpt><trkpt lat="40.29504075178286" lon="15.649084552780534"><ele>479.0</ele><time>2026-03-27T08:31:13.999Z</time></trkpt><trkpt lat="40.295230781542124" lon="15.648997273120633"><ele>479.0</ele><time>2026-03-27T08:31:14.999Z</time></trkpt><trkpt lat="40.29541703593958" lon="15.64889874728762"><ele>479.0</ele><time>2026-03-27T08:31:15.999Z</time></trkpt><trkpt lat="40.29560083251429" lon="15.648787493881034"><ele>479.0</ele><time>2026-03-27T08:31:16.999Z</time></trkpt><trkpt lat="40.29578161393683" lon="15.648666917970253"><ele>479.0</ele><time>2026-03-27T08:31:17.999Z</time></trkpt><trkpt lat="40.295957745035636" lon="15.648534492579387"><ele>479.0</ele><time>2026-03-27T08:31:18.999Z</time></trkpt><trkpt lat="40.296129785204215" lon="15.64839478446437"><ele>479.0</ele><time>2026-03-27T08:31:19.999Z</time></trkpt><trkpt lat="40.29629940920598" lon="15.648245461697654"><ele>479.0</ele><time>2026-03-27T08:31:20.999Z</time></trkpt><trkpt lat="40.29646567645156" lon="15.648090226409526"><ele>479.0</ele><time>2026-03-27T08:31:21.999Z</time></trkpt><trkpt lat="40.29662724834947" lon="15.647925921948131"><ele>479.0</ele><time>2026-03-27T08:31:22.999Z</time></trkpt><trkpt lat="40.29677690007602" lon="15.647758148154912"><ele>479.0</ele><time>2026-03-27T08:31:23.999Z</time></trkpt><trkpt lat="40.29691870911769" lon="15.647595209903123"><ele>479.0</ele><time>2026-03-27T08:31:24.999Z</time></trkpt><trkpt lat="40.297056858999284" lon="15.647435762380665"><ele>479.0</ele><time>2026-03-27T08:31:25.999Z</time></trkpt><trkpt lat="40.29718501871142" lon="15.647290967084091"><ele>479.0</ele><time>2026-03-27T08:31:26.999Z</time></trkpt><trkpt lat="40.29730993219674" lon="15.647144101589939"><ele>479.0</ele><time>2026-03-27T08:31:27.999Z</time></trkpt><trkpt lat="40.29743419096513" lon="15.64699635799671"><ele>479.0</ele><time>2026-03-27T08:31:28.999Z</time></trkpt><trkpt lat="40.29756327114499" lon="15.646848131043848"><ele>478.66666666666663</ele><time>2026-03-27T08:31:29.999Z</time></trkpt><trkpt lat="40.29769333733431" lon="15.646697684851251"><ele>478.33333333333337</ele><time>2026-03-27T08:31:30.999Z</time></trkpt><trkpt lat="40.29782426852132" lon="15.646545987785665"><ele>478.0</ele><time>2026-03-27T08:31:32Z</time></trkpt><trkpt lat="40.29795758306113" lon="15.646391878720038"><ele>477.6666666666667</ele><time>2026-03-27T08:31:33Z</time></trkpt><trkpt lat="40.298094479416584" lon="15.646238304099569"><ele>477.33333333333337</ele><time>2026-03-27T08:31:34Z</time></trkpt><trkpt lat="40.298230552392596" lon="15.646100157303273"><ele>477.0</ele><time>2026-03-27T08:31:35Z</time></trkpt><trkpt lat="40.29836400841424" lon="15.645970829277822"><ele>476.75</ele><time>2026-03-27T08:31:36Z</time></trkpt><trkpt lat="40.29849173662691" lon="15.645848929525144"><ele>476.5</ele><time>2026-03-27T08:31:37Z</time></trkpt><trkpt lat="40.29861158102918" lon="15.645732265946888"><ele>476.25</ele><time>2026-03-27T08:31:38Z</time></trkpt><trkpt lat="40.298722183496146" lon="15.645616334079534"><ele>476.0</ele><time>2026-03-27T08:31:39Z</time></trkpt><trkpt lat="40.29882417935842" lon="15.645502809815353"><ele>476.0</ele><time>2026-03-27T08:31:40Z</time></trkpt><trkpt lat="40.29891286240571" lon="15.645396487578846"><ele>476.0</ele><time>2026-03-27T08:31:41Z</time></trkpt><trkpt lat="40.29899218550975" lon="15.645303980826045"><ele>476.0</ele><time>2026-03-27T08:31:42Z</time></trkpt><trkpt lat="40.299071915243616" lon="15.645246594864195"><ele>476.0</ele><time>2026-03-27T08:31:43Z</time></trkpt><trkpt lat="40.29915205963283" lon="15.645221939550378"><ele>476.0</ele><time>2026-03-27T08:31:44Z</time></trkpt><trkpt lat="40.29923151716557" lon="15.645231910238136"><ele>475.8333333333333</ele><time>2026-03-27T08:31:45Z</time></trkpt><trkpt lat="40.299302181899016" lon="15.645282995519933"><ele>475.66666666666663</ele><time>2026-03-27T08:31:46Z</time></trkpt><trkpt lat="40.299352721434914" lon="15.645360110615501"><ele>475.5</ele><time>2026-03-27T08:31:47Z</time></trkpt><trkpt lat="40.29938115113201" lon="15.64546109632343"><ele>475.33333333333337</ele><time>2026-03-27T08:31:48Z</time></trkpt><trkpt lat="40.29938650358504" lon="15.645572657520239"><ele>475.1666666666667</ele><time>2026-03-27T08:31:49Z</time></trkpt><trkpt lat="40.29936883453417" lon="15.645679781706495"><ele>475.0</ele><time>2026-03-27T08:31:50Z</time></trkpt><trkpt lat="40.29935791239378" lon="15.645764553982712"><ele>475.0</ele><time>2026-03-27T08:31:51Z</time></trkpt><trkpt lat="40.29927617052375" lon="15.645822724240295"><ele>475.0</ele><time>2026-03-27T08:31:52Z</time></trkpt><trkpt lat="40.299207972439305" lon="15.645872451541106"><ele>475.0</ele><time>2026-03-27T08:31:53Z</time></trkpt><trkpt lat="40.29912331532637" lon="15.645918676928147"><ele>475.0</ele><time>2026-03-27T08:31:54Z</time></trkpt><trkpt lat="40.299024961636114" lon="15.645966912380239"><ele>475.0</ele><time>2026-03-27T08:31:55Z</time></trkpt><trkpt lat="40.29891524595322" lon="15.646021766371309"><ele>475.25</ele><time>2026-03-27T08:31:56Z</time></trkpt><trkpt lat="40.29879689524515" lon="15.646082478944559"><ele>475.5</ele><time>2026-03-27T08:31:57Z</time></trkpt><trkpt lat="40.29867164299139" lon="15.646151567588038"><ele>475.75</ele><time>2026-03-27T08:31:58Z</time></trkpt><trkpt lat="40.298540001660925" lon="15.646226107056155"><ele>476.0</ele><time>2026-03-27T08:31:59Z</time></trkpt><trkpt lat="40.29840480093356" lon="15.646311213152257"><ele>476.3333333333333</ele><time>2026-03-27T08:32:00Z</time></trkpt><trkpt lat="40.29827128216347" lon="15.646419995220162"><ele>476.66666666666663</ele><time>2026-03-27T08:32:01Z</time></trkpt><trkpt lat="40.29814497289975" lon="15.646548324225908"><ele>477.0</ele><time>2026-03-27T08:32:02Z</time></trkpt><trkpt lat="40.298027977820134" lon="15.646697992202167"><ele>477.33333333333337</ele><time>2026-03-27T08:32:03Z</time></trkpt><trkpt lat="40.29792053746265" lon="15.646856697657888"><ele>477.6666666666667</ele><time>2026-03-27T08:32:04Z</time></trkpt><trkpt lat="40.29782176987809" lon="15.647022954291785"><ele>478.0</ele><time>2026-03-27T08:32:05Z</time></trkpt><trkpt lat="40.29772466456105" lon="15.647190886136565"><ele>478.33333333333337</ele><time>2026-03-27T08:32:06Z</time></trkpt><trkpt lat="40.297614183976904" lon="15.647346592220556"><ele>478.66666666666663</ele><time>2026-03-27T08:32:07Z</time></trkpt><trkpt lat="40.29749239366441" lon="15.647458004222688"><ele>479.0</ele><time>2026-03-27T08:32:08Z</time></trkpt><trkpt lat="40.297361304526476" lon="15.647529124786674"><ele>479.0</ele><time>2026-03-27T08:32:09Z</time></trkpt><trkpt lat="40.2972221871579" lon="15.647573653736794"><ele>479.0</ele><time>2026-03-27T08:32:10Z</time></trkpt><trkpt lat="40.297071162704626" lon="15.647609095636966"><ele>479.0</ele><time>2026-03-27T08:32:11Z</time></trkpt><trkpt lat="40.296913125955456" lon="15.647646807566154"><ele>479.0</ele><time>2026-03-27T08:32:12Z</time></trkpt><trkpt lat="40.29674734810128" lon="15.64768797607037"><ele>479.0</ele><time>2026-03-27T08:32:13Z</time></trkpt><trkpt lat="40.2965742343023" lon="15.64773294578982"><ele>479.0</ele><time>2026-03-27T08:32:14Z</time></trkpt><trkpt lat="40.29639373900571" lon="15.647781662558598"><ele>479.0</ele><time>2026-03-27T08:32:15Z</time></trkpt><trkpt lat="40.29620391238128" lon="15.647829913998606"><ele>479.0</ele><time>2026-03-27T08:32:16Z</time></trkpt><trkpt lat="40.29600547356582" lon="15.647873757494521"><ele>479.0</ele><time>2026-03-27T08:32:17Z</time></trkpt><trkpt lat="40.29580260910929" lon="15.647913885419083"><ele>479.0</ele><time>2026-03-27T08:32:18Z</time></trkpt><trkpt lat="40.29559707948349" lon="15.647954821429877"><ele>479.0</ele><time>2026-03-27T08:32:19Z</time></trkpt><trkpt lat="40.295391331065176" lon="15.647995116802347"><ele>479.0</ele><time>2026-03-27T08:32:20Z</time></trkpt><trkpt lat="40.29518505002862" lon="15.648035837859508"><ele>479.66666666666663</ele><time>2026-03-27T08:32:21Z</time></trkpt><trkpt lat="40.29497473178808" lon="15.648075596925644"><ele>480.33333333333337</ele><time>2026-03-27T08:32:22Z</time></trkpt><trkpt lat="40.29476108160415" lon="15.64811950075472"><ele>481.0</ele><time>2026-03-27T08:32:22.999Z</time></trkpt><trkpt lat="40.29454634878312" lon="15.648166806890336"><ele>481.0</ele><time>2026-03-27T08:32:23.999Z</time></trkpt><trkpt lat="40.29432832472015" lon="15.648214962712716"><ele>481.0</ele><time>2026-03-27T08:32:24.999Z</time></trkpt><trkpt lat="40.29410845862666" lon="15.648264071030592"><ele>481.0</ele><time>2026-03-27T08:32:25.999Z</time></trkpt><trkpt lat="40.29388491926822" lon="15.648311706082838"><ele>480.5</ele><time>2026-03-27T08:32:26.999Z</time></trkpt><trkpt lat="40.293661145192814" lon="15.648356535679836"><ele>480.0</ele><time>2026-03-27T08:32:27.999Z</time></trkpt><trkpt lat="40.2934385288114" lon="15.6484008699733"><ele>480.0</ele><time>2026-03-27T08:32:28.999Z</time></trkpt><trkpt lat="40.29321451672825" lon="15.64844358669596"><ele>480.0</ele><time>2026-03-27T08:32:29.999Z</time></trkpt><trkpt lat="40.29298770006632" lon="15.648489121343063"><ele>480.0</ele><time>2026-03-27T08:32:30.999Z</time></trkpt><trkpt lat="40.292759321090315" lon="15.648536320790681"><ele>480.0</ele><time>2026-03-27T08:32:31.999Z</time></trkpt><trkpt lat="40.29252958075475" lon="15.648584092345228"><ele>480.5</ele><time>2026-03-27T08:32:32.999Z</time></trkpt><trkpt lat="40.292294646848326" lon="15.648634174372402"><ele>481.0</ele><time>2026-03-27T08:32:33.999Z</time></trkpt><trkpt lat="40.292057602505444" lon="15.648686477784741"><ele>480.0</ele><time>2026-03-27T08:32:34.999Z</time></trkpt><trkpt lat="40.291817967527905" lon="15.648738049996885"><ele>479.0</ele><time>2026-03-27T08:32:35.999Z</time></trkpt><trkpt lat="40.291574119406725" lon="15.648787412688092"><ele>478.5</ele><time>2026-03-27T08:32:36.999Z</time></trkpt><trkpt lat="40.291331285699705" lon="15.648834614176558"><ele>478.0</ele><time>2026-03-27T08:32:37.999Z</time></trkpt><trkpt lat="40.29110266705352" lon="15.648880962530654"><ele>478.0</ele><time>2026-03-27T08:32:38.999Z</time></trkpt><trkpt lat="40.29089196980246" lon="15.648924956364146"><ele>478.0</ele><time>2026-03-27T08:32:39.999Z</time></trkpt><trkpt lat="40.29069538077469" lon="15.648967756397145"><ele>478.0</ele><time>2026-03-27T08:32:40.999Z</time></trkpt><trkpt lat="40.290508874826166" lon="15.64901098079191"><ele>478.0</ele><time>2026-03-27T08:32:41.999Z</time></trkpt><trkpt lat="40.29033105515769" lon="15.649056793045517"><ele>478.0</ele><time>2026-03-27T08:32:42.999Z</time></trkpt><trkpt lat="40.29015676449737" lon="15.649106525702663"><ele>478.0</ele><time>2026-03-27T08:32:43.999Z</time></trkpt><trkpt lat="40.28998193860812" lon="15.649163147584984"><ele>478.0</ele><time>2026-03-27T08:32:44.999Z</time></trkpt><trkpt lat="40.28980619695746" lon="15.649223558245518"><ele>478.0</ele><time>2026-03-27T08:32:45.999Z</time></trkpt><trkpt lat="40.28963682582622" lon="15.649284746284115"><ele>478.0</ele><time>2026-03-27T08:32:46.999Z</time></trkpt><trkpt lat="40.28947064365871" lon="15.64934633565218"><ele>478.0</ele><time>2026-03-27T08:32:47.999Z</time></trkpt><trkpt lat="40.28930807329073" lon="15.649406209630794"><ele>478.0</ele><time>2026-03-27T08:32:48.999Z</time></trkpt><trkpt lat="40.289145572483534" lon="15.64946672907015"><ele>478.0</ele><time>2026-03-27T08:32:49.999Z</time></trkpt><trkpt lat="40.28898284274926" lon="15.649528035649798"><ele>479.33333333333337</ele><time>2026-03-27T08:32:50.999Z</time></trkpt><trkpt lat="40.28881536610348" lon="15.649591628409196"><ele>480.66666666666663</ele><time>2026-03-27T08:32:51.999Z</time></trkpt><trkpt lat="40.28864446283403" lon="15.649656168853921"><ele>482.0</ele><time>2026-03-27T08:32:52.999Z</time></trkpt><trkpt lat="40.28847451044027" lon="15.649719813583285"><ele>482.0</ele><time>2026-03-27T08:32:53.999Z</time></trkpt><trkpt lat="40.28831250677608" lon="15.649782270365346"><ele>482.0</ele><time>2026-03-27T08:32:54.999Z</time></trkpt><trkpt lat="40.2881587197621" lon="15.64984157054309"><ele>482.0</ele><time>2026-03-27T08:32:55.999Z</time></trkpt><trkpt lat="40.288005012170416" lon="15.64989958629936"><ele>482.0</ele><time>2026-03-27T08:32:56.999Z</time></trkpt><trkpt lat="40.2878477644576" lon="15.64996011540873"><ele>482.0</ele><time>2026-03-27T08:32:57.999Z</time></trkpt><trkpt lat="40.28768959239736" lon="15.650020948232802"><ele>482.0</ele><time>2026-03-27T08:32:58.999Z</time></trkpt><trkpt lat="40.2875307509718" lon="15.65008313348143"><ele>482.0</ele><time>2026-03-27T08:32:59.999Z</time></trkpt><trkpt lat="40.28738077208313" lon="15.650141378656814"><ele>482.0</ele><time>2026-03-27T08:33:00.999Z</time></trkpt><trkpt lat="40.2872373277542" lon="15.650198650452474"><ele>482.0</ele><time>2026-03-27T08:33:01.999Z</time></trkpt><trkpt lat="40.287091483759156" lon="15.650257426328048"><ele>482.0</ele><time>2026-03-27T08:33:02.999Z</time></trkpt><trkpt lat="40.28694161565005" lon="15.650314183914157"><ele>482.0</ele><time>2026-03-27T08:33:03.999Z</time></trkpt><trkpt lat="40.28679368948542" lon="15.650367290562796"><ele>482.0</ele><time>2026-03-27T08:33:04.999Z</time></trkpt><trkpt lat="40.28664717217224" lon="15.65042060936319"><ele>482.0</ele><time>2026-03-27T08:33:05.999Z</time></trkpt><trkpt lat="40.28649748734996" lon="15.650475695044841"><ele>482.0</ele><time>2026-03-27T08:33:06.999Z</time></trkpt><trkpt lat="40.28635207089842" lon="15.650531459779671"><ele>482.0</ele><time>2026-03-27T08:33:07.999Z</time></trkpt><trkpt lat="40.286213162844135" lon="15.650581128088106"><ele>481.75</ele><time>2026-03-27T08:33:08.999Z</time></trkpt><trkpt lat="40.2860799093478" lon="15.650627899418996"><ele>481.5</ele><time>2026-03-27T08:33:09.999Z</time></trkpt><trkpt lat="40.28594775864601" lon="15.650675875419907"><ele>481.25</ele><time>2026-03-27T08:33:10.999Z</time></trkpt><trkpt lat="40.28581704158244" lon="15.650725829925085"><ele>481.0</ele><time>2026-03-27T08:33:11.999Z</time></trkpt><trkpt lat="40.2856865980492" lon="15.650775490408726"><ele>481.5</ele><time>2026-03-27T08:33:12.999Z</time></trkpt><trkpt lat="40.28555726856724" lon="15.650825094089514"><ele>482.0</ele><time>2026-03-27T08:33:13.999Z</time></trkpt><trkpt lat="40.28542824473503" lon="15.650873625875679"><ele>482.5</ele><time>2026-03-27T08:33:14.999Z</time></trkpt><trkpt lat="40.28530017405116" lon="15.650920670061149"><ele>483.0</ele><time>2026-03-27T08:33:15.999Z</time></trkpt><trkpt lat="40.28517252412357" lon="15.650967057415949"><ele>483.0</ele><time>2026-03-27T08:33:16.999Z</time></trkpt><trkpt lat="40.285045927681445" lon="15.651016229868782"><ele>483.0</ele><time>2026-03-27T08:33:17.999Z</time></trkpt><trkpt lat="40.28492647354482" lon="15.651062920631224"><ele>483.0</ele><time>2026-03-27T08:33:18.999Z</time></trkpt><trkpt lat="40.28481227514469" lon="15.651104940015845"><ele>483.0</ele><time>2026-03-27T08:33:19.999Z</time></trkpt><trkpt lat="40.28470462224501" lon="15.651146249178295"><ele>483.2</ele><time>2026-03-27T08:33:20.999Z</time></trkpt><trkpt lat="40.284602643289205" lon="15.65118495274493"><ele>483.4</ele><time>2026-03-27T08:33:21.999Z</time></trkpt><trkpt lat="40.2845074700123" lon="15.651220597364858"><ele>483.59999999999997</ele><time>2026-03-27T08:33:22.999Z</time></trkpt><trkpt lat="40.28441827651943" lon="15.651254598971178"><ele>483.79999999999995</ele><time>2026-03-27T08:33:23.999Z</time></trkpt><trkpt lat="40.284334924116806" lon="15.651286012605812"><ele>484.0</ele><time>2026-03-27T08:33:24.999Z</time></trkpt><trkpt lat="40.2842569569026" lon="15.651314495935416"><ele>484.00000000000006</ele><time>2026-03-27T08:33:25.999Z</time></trkpt><trkpt lat="40.28418584544064" lon="15.651334252963096"><ele>484.0</ele><time>2026-03-27T08:33:26.999Z</time></trkpt><trkpt lat="40.28407643795994" lon="15.651350209686058"><ele>484.0</ele><time>2026-03-27T08:33:28.999Z</time></trkpt><trkpt lat="40.2839995561243" lon="15.651373341604025"><ele>484.0</ele><time>2026-03-27T08:33:31.999Z</time></trkpt><trkpt lat="40.28393158171782" lon="15.651405783545192"><ele>484.00000000000006</ele><time>2026-03-27T08:33:50Z</time></trkpt><trkpt lat="40.28383441226098" lon="15.651465368552891"><ele>484.0</ele><time>2026-03-27T08:33:52Z</time></trkpt><trkpt lat="40.28376723264087" lon="15.651501927490983"><ele>484.0</ele><time>2026-03-27T08:33:53Z</time></trkpt><trkpt lat="40.2836885330424" lon="15.651539691708082"><ele>484.0</ele><time>2026-03-27T08:33:54Z</time></trkpt><trkpt lat="40.28359925657534" lon="15.651578062795974"><ele>484.0</ele><time>2026-03-27T08:33:55Z</time></trkpt><trkpt lat="40.28349756390358" lon="15.651619029451824"><ele>484.0</ele><time>2026-03-27T08:33:56Z</time></trkpt><trkpt lat="40.28338452938377" lon="15.65166657971283"><ele>484.0</ele><time>2026-03-27T08:33:57Z</time></trkpt><trkpt lat="40.28325620457205" lon="15.651719828042648"><ele>484.0</ele><time>2026-03-27T08:33:58Z</time></trkpt><trkpt lat="40.283117737728226" lon="15.651778085576199"><ele>484.0</ele><time>2026-03-27T08:33:59Z</time></trkpt><trkpt lat="40.28297139591617" lon="15.651837645846324"><ele>484.0</ele><time>2026-03-27T08:34:00Z</time></trkpt><trkpt lat="40.28281508580526" lon="15.651895514079655"><ele>484.33333333333337</ele><time>2026-03-27T08:34:01Z</time></trkpt><trkpt lat="40.28265430215964" lon="15.651954697202388"><ele>484.66666666666663</ele><time>2026-03-27T08:34:02Z</time></trkpt><trkpt lat="40.282487515216864" lon="15.65201639250755"><ele>485.0</ele><time>2026-03-27T08:34:03Z</time></trkpt><trkpt lat="40.28231900105072" lon="15.652081400915998"><ele>486.0</ele><time>2026-03-27T08:34:04Z</time></trkpt><trkpt lat="40.282146340211" lon="15.652145984690243"><ele>487.0</ele><time>2026-03-27T08:34:05Z</time></trkpt><trkpt lat="40.2819673183811" lon="15.652213673120912"><ele>488.0</ele><time>2026-03-27T08:34:06Z</time></trkpt><trkpt lat="40.28178332875527" lon="15.652285250681558"><ele>488.0</ele><time>2026-03-27T08:34:07Z</time></trkpt><trkpt lat="40.281591957107764" lon="15.652360529162902"><ele>488.0</ele><time>2026-03-27T08:34:08Z</time></trkpt><trkpt lat="40.281398687505096" lon="15.652433989307047"><ele>488.0</ele><time>2026-03-27T08:34:09Z</time></trkpt><trkpt lat="40.28120194258928" lon="15.652508107137267"><ele>487.3333333333333</ele><time>2026-03-27T08:34:10Z</time></trkpt><trkpt lat="40.28099978084717" lon="15.652584962287376"><ele>486.66666666666663</ele><time>2026-03-27T08:34:11Z</time></trkpt><trkpt lat="40.2807942468355" lon="15.652665633905206"><ele>486.0</ele><time>2026-03-27T08:34:12Z</time></trkpt><trkpt lat="40.28058592381077" lon="15.652744343605345"><ele>489.0</ele><time>2026-03-27T08:34:13Z</time></trkpt><trkpt lat="40.28037058066651" lon="15.652826945127568"><ele>492.0</ele><time>2026-03-27T08:34:14Z</time></trkpt><trkpt lat="40.2801517145948" lon="15.652912826872438"><ele>492.0</ele><time>2026-03-27T08:34:15Z</time></trkpt><trkpt lat="40.27992864733603" lon="15.65300006656876"><ele>492.0</ele><time>2026-03-27T08:34:16Z</time></trkpt><trkpt lat="40.27970179674654" lon="15.653087012466406"><ele>490.5</ele><time>2026-03-27T08:34:17Z</time></trkpt><trkpt lat="40.279471594135096" lon="15.65317531277413"><ele>489.0</ele><time>2026-03-27T08:34:18Z</time></trkpt><trkpt lat="40.27923951795706" lon="15.653265207650746"><ele>489.0</ele><time>2026-03-27T08:34:19Z</time></trkpt><trkpt lat="40.27900378274902" lon="15.653355841233266"><ele>489.0</ele><time>2026-03-27T08:34:20Z</time></trkpt><trkpt lat="40.278767673030444" lon="15.653449041742899"><ele>489.0</ele><time>2026-03-27T08:34:21Z</time></trkpt><trkpt lat="40.27852913005345" lon="15.653543206191975"><ele>489.0</ele><time>2026-03-27T08:34:22Z</time></trkpt><trkpt lat="40.27828482489533" lon="15.653639307764049"><ele>491.5</ele><time>2026-03-27T08:34:23Z</time></trkpt><trkpt lat="40.27803447952202" lon="15.6537368911477"><ele>494.0</ele><time>2026-03-27T08:34:24Z</time></trkpt><trkpt lat="40.27777970399143" lon="15.653838077365604"><ele>494.0</ele><time>2026-03-27T08:34:25Z</time></trkpt><trkpt lat="40.27751919266834" lon="15.65393897637547"><ele>494.0</ele><time>2026-03-27T08:34:26Z</time></trkpt><trkpt lat="40.27725853723548" lon="15.654039415003485"><ele>491.5</ele><time>2026-03-27T08:34:26.999Z</time></trkpt><trkpt lat="40.27699494174731" lon="15.654139394056099"><ele>489.0</ele><time>2026-03-27T08:34:27.999Z</time></trkpt><trkpt lat="40.27673056961503" lon="15.654241397068615"><ele>489.0</ele><time>2026-03-27T08:34:28.999Z</time></trkpt><trkpt lat="40.27646460850897" lon="15.654345312704438"><ele>489.0</ele><time>2026-03-27T08:34:29.999Z</time></trkpt><trkpt lat="40.27619699988711" lon="15.654451975087573"><ele>490.5</ele><time>2026-03-27T08:34:30.999Z</time></trkpt><trkpt lat="40.27592934274793" lon="15.654562345788356"><ele>492.0</ele><time>2026-03-27T08:34:31.999Z</time></trkpt><trkpt lat="40.275661696291955" lon="15.654676573467615"><ele>491.5</ele><time>2026-03-27T08:34:32.999Z</time></trkpt><trkpt lat="40.275395392288196" lon="15.654783968050566"><ele>491.0</ele><time>2026-03-27T08:34:33.999Z</time></trkpt><trkpt lat="40.27513091504231" lon="15.654891854254965"><ele>491.0</ele><time>2026-03-27T08:34:34.999Z</time></trkpt><trkpt lat="40.274865853152846" lon="15.654992995820468"><ele>491.0</ele><time>2026-03-27T08:34:35.999Z</time></trkpt><trkpt lat="40.274603817340754" lon="15.655093726224456"><ele>491.0</ele><time>2026-03-27T08:34:36.999Z</time></trkpt><trkpt lat="40.27434398261506" lon="15.655193781757106"><ele>491.0</ele><time>2026-03-27T08:34:37.999Z</time></trkpt><trkpt lat="40.2740833997955" lon="15.655290207631996"><ele>494.0</ele><time>2026-03-27T08:34:38.999Z</time></trkpt><trkpt lat="40.27382410763012" lon="15.655392825144933"><ele>497.0</ele><time>2026-03-27T08:34:39.999Z</time></trkpt><trkpt lat="40.2735628205766" lon="15.65548790436536"><ele>497.0</ele><time>2026-03-27T08:34:40.999Z</time></trkpt><trkpt lat="40.27330159206086" lon="15.655579076004722"><ele>497.0</ele><time>2026-03-27T08:34:41.999Z</time></trkpt><trkpt lat="40.27303781612863" lon="15.655667116976078"><ele>495.5</ele><time>2026-03-27T08:34:42.999Z</time></trkpt><trkpt lat="40.2727721789016" lon="15.655756006225083"><ele>494.0</ele><time>2026-03-27T08:34:43.999Z</time></trkpt><trkpt lat="40.27250923537634" lon="15.65584671648601"><ele>493.0</ele><time>2026-03-27T08:34:44.999Z</time></trkpt><trkpt lat="40.27224598134222" lon="15.655942651200927"><ele>492.0</ele><time>2026-03-27T08:34:45.999Z</time></trkpt><trkpt lat="40.27198247475242" lon="15.656038240028906"><ele>493.0</ele><time>2026-03-27T08:34:46.999Z</time></trkpt><trkpt lat="40.27172033916149" lon="15.656137598529607"><ele>494.0</ele><time>2026-03-27T08:34:47.999Z</time></trkpt><trkpt lat="40.27145925444848" lon="15.656236925660977"><ele>494.0</ele><time>2026-03-27T08:34:48.999Z</time></trkpt><trkpt lat="40.27120029982161" lon="15.656338273721133"><ele>494.0</ele><time>2026-03-27T08:34:49.999Z</time></trkpt><trkpt lat="40.27094176533307" lon="15.656442302618698"><ele>494.0</ele><time>2026-03-27T08:34:50.999Z</time></trkpt><trkpt lat="40.27068377939296" lon="15.656543876432151"><ele>494.0</ele><time>2026-03-27T08:34:51.999Z</time></trkpt><trkpt lat="40.27042487516364" lon="15.656642064862037"><ele>494.5</ele><time>2026-03-27T08:34:52.999Z</time></trkpt><trkpt lat="40.27016434650728" lon="15.656742131609935"><ele>495.0</ele><time>2026-03-27T08:34:53.999Z</time></trkpt><trkpt lat="40.26990371807009" lon="15.656842309817332"><ele>495.0</ele><time>2026-03-27T08:34:54.999Z</time></trkpt><trkpt lat="40.26964441292603" lon="15.656942673576127"><ele>495.0</ele><time>2026-03-27T08:34:55.999Z</time></trkpt><trkpt lat="40.26938448743996" lon="15.657042601645378"><ele>496.0</ele><time>2026-03-27T08:34:56.999Z</time></trkpt><trkpt lat="40.26912251044553" lon="15.657141957186537"><ele>497.0</ele><time>2026-03-27T08:34:57.999Z</time></trkpt><trkpt lat="40.268861114083606" lon="15.657241106530881"><ele>495.0</ele><time>2026-03-27T08:34:58.999Z</time></trkpt><trkpt lat="40.2686004077156" lon="15.65733647197097"><ele>493.0</ele><time>2026-03-27T08:34:59.999Z</time></trkpt><trkpt lat="40.26834005240949" lon="15.657426102092261"><ele>494.0</ele><time>2026-03-27T08:35:00.999Z</time></trkpt><trkpt lat="40.268078305778374" lon="15.65750946285978"><ele>495.0</ele><time>2026-03-27T08:35:01.999Z</time></trkpt><trkpt lat="40.26781548032782" lon="15.657582687407523"><ele>495.0</ele><time>2026-03-27T08:35:02.999Z</time></trkpt><trkpt lat="40.26754812147602" lon="15.657653055994574"><ele>495.0</ele><time>2026-03-27T08:35:03.999Z</time></trkpt><trkpt lat="40.2672773939452" lon="15.657712023721004"><ele>495.0</ele><time>2026-03-27T08:35:04.999Z</time></trkpt><trkpt lat="40.26700496253086" lon="15.65776714869519"><ele>495.0</ele><time>2026-03-27T08:35:05.999Z</time></trkpt><trkpt lat="40.26673271484878" lon="15.657825358229404"><ele>495.0</ele><time>2026-03-27T08:35:06.999Z</time></trkpt><trkpt lat="40.26645924962956" lon="15.657881513565364"><ele>495.0</ele><time>2026-03-27T08:35:07.999Z</time></trkpt><trkpt lat="40.266183117323216" lon="15.657933660120063"><ele>496.0</ele><time>2026-03-27T08:35:08.999Z</time></trkpt><trkpt lat="40.26590621868904" lon="15.657990305230712"><ele>497.0</ele><time>2026-03-27T08:35:09.999Z</time></trkpt><trkpt lat="40.26562662686474" lon="15.658044813061366"><ele>497.5</ele><time>2026-03-27T08:35:10.999Z</time></trkpt><trkpt lat="40.26534847456995" lon="15.658111942189976"><ele>498.0</ele><time>2026-03-27T08:35:11.999Z</time></trkpt><trkpt lat="40.26506443169807" lon="15.658159503873412"><ele>498.0</ele><time>2026-03-27T08:35:12.999Z</time></trkpt><trkpt lat="40.264789415758564" lon="15.658224149720686"><ele>498.0</ele><time>2026-03-27T08:35:13.999Z</time></trkpt><trkpt lat="40.26451136593786" lon="15.658282343561442"><ele>499.0</ele><time>2026-03-27T08:35:14.999Z</time></trkpt><trkpt lat="40.26423312718428" lon="15.658337287659144"><ele>500.0</ele><time>2026-03-27T08:35:15.999Z</time></trkpt><trkpt lat="40.263956209204636" lon="15.658392757737003"><ele>500.5</ele><time>2026-03-27T08:35:16.999Z</time></trkpt><trkpt lat="40.2636792030251" lon="15.658450775549074"><ele>501.0</ele><time>2026-03-27T08:35:17.999Z</time></trkpt><trkpt lat="40.26340499635703" lon="15.6585078123133"><ele>501.0</ele><time>2026-03-27T08:35:18.999Z</time></trkpt><trkpt lat="40.263130963246375" lon="15.658565584066661"><ele>501.0</ele><time>2026-03-27T08:35:19.999Z</time></trkpt><trkpt lat="40.26285761115029" lon="15.658621343604045"><ele>501.5</ele><time>2026-03-27T08:35:20.999Z</time></trkpt><trkpt lat="40.26258463046659" lon="15.65867464775614"><ele>502.0</ele><time>2026-03-27T08:35:21.999Z</time></trkpt><trkpt lat="40.26231094408997" lon="15.658727902186161"><ele>502.5</ele><time>2026-03-27T08:35:22.999Z</time></trkpt><trkpt lat="40.26203635618477" lon="15.658782293914532"><ele>503.0</ele><time>2026-03-27T08:35:23.999Z</time></trkpt><trkpt lat="40.26176307932026" lon="15.65883774347145"><ele>503.0</ele><time>2026-03-27T08:35:24.999Z</time></trkpt><trkpt lat="40.261490375707886" lon="15.658893194359388"><ele>503.0</ele><time>2026-03-27T08:35:25.999Z</time></trkpt><trkpt lat="40.261218383370675" lon="15.65894807350383"><ele>503.5</ele><time>2026-03-27T08:35:26.999Z</time></trkpt><trkpt lat="40.26094484284107" lon="15.659004034964672"><ele>504.0</ele><time>2026-03-27T08:35:27.999Z</time></trkpt><trkpt lat="40.26067077896195" lon="15.659062020232868"><ele>513.0</ele><time>2026-03-27T08:35:28.999Z</time></trkpt><trkpt lat="40.26039708881799" lon="15.659118223308383"><ele>522.0</ele><time>2026-03-27T08:35:29.999Z</time></trkpt><trkpt lat="40.26012248682542" lon="15.659173624634123"><ele>522.0</ele><time>2026-03-27T08:35:30.999Z</time></trkpt><trkpt lat="40.25984601930507" lon="15.65923018958605"><ele>522.0</ele><time>2026-03-27T08:35:31.999Z</time></trkpt><trkpt lat="40.259569656191914" lon="15.659287251795485"><ele>530.5</ele><time>2026-03-27T08:35:32.999Z</time></trkpt><trkpt lat="40.25929252292242" lon="15.659342270380982"><ele>539.0</ele><time>2026-03-27T08:35:33.999Z</time></trkpt><trkpt lat="40.25901194223124" lon="15.659395553642511"><ele>543.0</ele><time>2026-03-27T08:35:34.999Z</time></trkpt><trkpt lat="40.2587281211927" lon="15.659447311686352"><ele>547.0</ele><time>2026-03-27T08:35:35.999Z</time></trkpt><trkpt lat="40.258443147524495" lon="15.659496905523516"><ele>547.0</ele><time>2026-03-27T08:35:36.999Z</time></trkpt><trkpt lat="40.258156279431326" lon="15.6595445036396"><ele>547.0</ele><time>2026-03-27T08:35:37.999Z</time></trkpt><trkpt lat="40.25786861166455" lon="15.659589507204014"><ele>549.5</ele><time>2026-03-27T08:35:38.999Z</time></trkpt><trkpt lat="40.25755998953532" lon="15.659635628162823"><ele>552.0</ele><time>2026-03-27T08:35:40.067Z</time></trkpt><trkpt lat="40.25727393610419" lon="15.659678775139229"><ele>566.0</ele><time>2026-03-27T08:35:41.06Z</time></trkpt><trkpt lat="40.251700951345505" lon="15.660126945063261"><ele>561.5</ele><time>2026-03-27T08:35:59.998Z</time></trkpt><trkpt lat="40.25144512329723" lon="15.660077605311734"><ele>557.0</ele><time>2026-03-27T08:36:00.998Z</time></trkpt><trkpt lat="40.251160914603375" lon="15.660050750373161"><ele>557.0</ele><time>2026-03-27T08:36:01.998Z</time></trkpt><trkpt lat="40.25087809700278" lon="15.660053631483267"><ele>557.0</ele><time>2026-03-27T08:36:03Z</time></trkpt><trkpt lat="40.25059444453729" lon="15.660046848367234"><ele>555.5</ele><time>2026-03-27T08:36:04Z</time></trkpt><trkpt lat="40.25030736625848" lon="15.660040536104427"><ele>554.0</ele><time>2026-03-27T08:36:05Z</time></trkpt><trkpt lat="40.250018938226994" lon="15.660033999679836"><ele>554.5</ele><time>2026-03-27T08:36:06Z</time></trkpt><trkpt lat="40.24973018426564" lon="15.660016835029246"><ele>555.0</ele><time>2026-03-27T08:36:07Z</time></trkpt><trkpt lat="40.249441826668125" lon="15.660006614840965"><ele>555.0</ele><time>2026-03-27T08:36:08Z</time></trkpt><trkpt lat="40.24915525905669" lon="15.659995697247194"><ele>555.0</ele><time>2026-03-27T08:36:09Z</time></trkpt><trkpt lat="40.248868768998456" lon="15.659978657916607"><ele>556.0</ele><time>2026-03-27T08:36:10Z</time></trkpt><trkpt lat="40.248580990095874" lon="15.65996688367909"><ele>557.0</ele><time>2026-03-27T08:36:11Z</time></trkpt><trkpt lat="40.248294547270014" lon="15.659936486354804"><ele>559.0</ele><time>2026-03-27T08:36:12Z</time></trkpt><trkpt lat="40.248006658182994" lon="15.65991517127927"><ele>561.0</ele><time>2026-03-27T08:36:13Z</time></trkpt><trkpt lat="40.247717311795945" lon="15.659890846759751"><ele>561.0</ele><time>2026-03-27T08:36:14Z</time></trkpt><trkpt lat="40.24742645988188" lon="15.65987349180767"><ele>561.0</ele><time>2026-03-27T08:36:15Z</time></trkpt><trkpt lat="40.247134827646775" lon="15.659858301732319"><ele>565.5</ele><time>2026-03-27T08:36:16Z</time></trkpt><trkpt lat="40.24684233937611" lon="15.659843653984215"><ele>570.0</ele><time>2026-03-27T08:36:17Z</time></trkpt><trkpt lat="40.24655075560134" lon="15.65982989709858"><ele>569.5</ele><time>2026-03-27T08:36:18Z</time></trkpt><trkpt lat="40.246258861102646" lon="15.659815086714266"><ele>569.0</ele><time>2026-03-27T08:36:19Z</time></trkpt><trkpt lat="40.245966938872115" lon="15.65980075069915"><ele>569.0</ele><time>2026-03-27T08:36:20Z</time></trkpt><trkpt lat="40.24567607777055" lon="15.65978907909256"><ele>569.0</ele><time>2026-03-27T08:36:21Z</time></trkpt><trkpt lat="40.24538583609674" lon="15.659776013961684"><ele>570.0</ele><time>2026-03-27T08:36:22Z</time></trkpt><trkpt lat="40.24509551783902" lon="15.659764059697553"><ele>571.0</ele><time>2026-03-27T08:36:23Z</time></trkpt><trkpt lat="40.24480441347061" lon="15.659753624676462"><ele>573.5</ele><time>2026-03-27T08:36:24Z</time></trkpt><trkpt lat="40.24451037471099" lon="15.659728133135712"><ele>576.0</ele><time>2026-03-27T08:36:25Z</time></trkpt><trkpt lat="40.244218546740655" lon="15.65971420713823"><ele>579.0</ele><time>2026-03-27T08:36:26Z</time></trkpt><trkpt lat="40.243925395254486" lon="15.659698613217031"><ele>582.0</ele><time>2026-03-27T08:36:27Z</time></trkpt><trkpt lat="40.243630432843055" lon="15.659681573121457"><ele>582.0</ele><time>2026-03-27T08:36:28Z</time></trkpt><trkpt lat="40.24333608172142" lon="15.659669833313613"><ele>582.0</ele><time>2026-03-27T08:36:29Z</time></trkpt><trkpt lat="40.24304023549866" lon="15.659657387144676"><ele>580.5</ele><time>2026-03-27T08:36:30Z</time></trkpt><trkpt lat="40.24274457166778" lon="15.659643804313902"><ele>579.0</ele><time>2026-03-27T08:36:31Z</time></trkpt><trkpt lat="40.24244888379543" lon="15.65962985421419"><ele>580.0</ele><time>2026-03-27T08:36:32Z</time></trkpt><trkpt lat="40.24215475809394" lon="15.659612687719667"><ele>581.0</ele><time>2026-03-27T08:36:33Z</time></trkpt><trkpt lat="40.241860969483874" lon="15.659596198265692"><ele>581.0</ele><time>2026-03-27T08:36:34Z</time></trkpt><trkpt lat="40.2415669797946" lon="15.659585861727468"><ele>581.0</ele><time>2026-03-27T08:36:35Z</time></trkpt><trkpt lat="40.241270412361914" lon="15.659570867071352"><ele>579.5</ele><time>2026-03-27T08:36:36Z</time></trkpt><trkpt lat="40.24097397343679" lon="15.659566803225003"><ele>578.0</ele><time>2026-03-27T08:36:37Z</time></trkpt><trkpt lat="40.240675768848114" lon="15.659569407283957"><ele>572.5</ele><time>2026-03-27T08:36:38Z</time></trkpt><trkpt lat="40.24037602419546" lon="15.65957474715451"><ele>567.0</ele><time>2026-03-27T08:36:39Z</time></trkpt><trkpt lat="40.24007491380293" lon="15.659604183835533"><ele>566.5</ele><time>2026-03-27T08:36:40Z</time></trkpt><trkpt lat="40.23977343332726" lon="15.659656150848718"><ele>566.0</ele><time>2026-03-27T08:36:41Z</time></trkpt><trkpt lat="40.2394711809255" lon="15.659724599355679"><ele>566.0</ele><time>2026-03-27T08:36:42Z</time></trkpt><trkpt lat="40.23917027605856" lon="15.659805351058152"><ele>566.0</ele><time>2026-03-27T08:36:43Z</time></trkpt><trkpt lat="40.238875065169836" lon="15.659915389578353"><ele>567.5</ele><time>2026-03-27T08:36:44Z</time></trkpt><trkpt lat="40.23858297200569" lon="15.66004058189178"><ele>569.0</ele><time>2026-03-27T08:36:45Z</time></trkpt><trkpt lat="40.238295071490526" lon="15.660186177078753"><ele>568.5</ele><time>2026-03-27T08:36:46Z</time></trkpt><trkpt lat="40.23801445760088" lon="15.660349463295551"><ele>568.0</ele><time>2026-03-27T08:36:47Z</time></trkpt><trkpt lat="40.23774005003732" lon="15.660529992893771"><ele>568.0</ele><time>2026-03-27T08:36:48Z</time></trkpt><trkpt lat="40.237473379831" lon="15.660727475886558"><ele>568.0</ele><time>2026-03-27T08:36:49Z</time></trkpt><trkpt lat="40.23721134810557" lon="15.660938090117709"><ele>568.0</ele><time>2026-03-27T08:36:50Z</time></trkpt><trkpt lat="40.236955247156416" lon="15.661156942511202"><ele>568.0</ele><time>2026-03-27T08:36:51Z</time></trkpt><trkpt lat="40.236702511849046" lon="15.661382068932724"><ele>575.5</ele><time>2026-03-27T08:36:52Z</time></trkpt><trkpt lat="40.23645472420326" lon="15.661616716864433"><ele>583.0</ele><time>2026-03-27T08:36:53Z</time></trkpt><trkpt lat="40.23620690424173" lon="15.661850293817137"><ele>578.0</ele><time>2026-03-27T08:36:54Z</time></trkpt><trkpt lat="40.23596146873568" lon="15.662085338709984"><ele>573.0</ele><time>2026-03-27T08:36:55Z</time></trkpt><trkpt lat="40.23571864588375" lon="15.662325098256705"><ele>574.0</ele><time>2026-03-27T08:36:56Z</time></trkpt><trkpt lat="40.235474593596884" lon="15.662562591057412"><ele>575.0</ele><time>2026-03-27T08:36:56.999Z</time></trkpt><trkpt lat="40.23523082322119" lon="15.662800015482418"><ele>567.0</ele><time>2026-03-27T08:36:57.999Z</time></trkpt><trkpt lat="40.23498695896399" lon="15.663036007657574"><ele>559.0</ele><time>2026-03-27T08:36:58.999Z</time></trkpt><trkpt lat="40.23474303880335" lon="15.663270519437571"><ele>559.0</ele><time>2026-03-27T08:36:59.999Z</time></trkpt><trkpt lat="40.234499898667394" lon="15.663505782829224"><ele>559.0</ele><time>2026-03-27T08:37:00.999Z</time></trkpt><trkpt lat="40.23425865056397" lon="15.663741895466073"><ele>562.5</ele><time>2026-03-27T08:37:01.999Z</time></trkpt><trkpt lat="40.23401914428786" lon="15.66397840972988"><ele>566.0</ele><time>2026-03-27T08:37:02.999Z</time></trkpt><trkpt lat="40.233778948800925" lon="15.664210643684536"><ele>574.0</ele><time>2026-03-27T08:37:03.999Z</time></trkpt><trkpt lat="40.23353917721856" lon="15.664446893793242"><ele>582.0</ele><time>2026-03-27T08:37:04.999Z</time></trkpt><trkpt lat="40.233299947877924" lon="15.664680193860105"><ele>597.0</ele><time>2026-03-27T08:37:05.999Z</time></trkpt><trkpt lat="40.23306242271362" lon="15.664912992457444"><ele>612.0</ele><time>2026-03-27T08:37:06.999Z</time></trkpt><trkpt lat="40.23282760713465" lon="15.665146162308861"><ele>611.5</ele><time>2026-03-27T08:37:07.999Z</time></trkpt><trkpt lat="40.23259141506222" lon="15.665379776244183"><ele>611.0</ele><time>2026-03-27T08:37:08.999Z</time></trkpt><trkpt lat="40.23235406732047" lon="15.665613927817045"><ele>606.0</ele><time>2026-03-27T08:37:09.999Z</time></trkpt><trkpt lat="40.23211590829828" lon="15.665848281987167"><ele>601.0</ele><time>2026-03-27T08:37:10.999Z</time></trkpt><trkpt lat="40.23187698250386" lon="15.666083535865237"><ele>593.5</ele><time>2026-03-27T08:37:11.999Z</time></trkpt><trkpt lat="40.23161999301001" lon="15.666335138401326"><ele>586.0</ele><time>2026-03-27T08:37:13.069Z</time></trkpt><trkpt lat="40.231145131416206" lon="15.666787051873369"><ele>572.5</ele><time>2026-03-27T08:37:14.999Z</time></trkpt><trkpt lat="40.23091014708715" lon="15.66701776090548"><ele>559.0</ele><time>2026-03-27T08:37:15.999Z</time></trkpt><trkpt lat="40.2306661751552" lon="15.667251740685847"><ele>556.0</ele><time>2026-03-27T08:37:16.999Z</time></trkpt><trkpt lat="40.230428382085876" lon="15.66748762529777"><ele>553.0</ele><time>2026-03-27T08:37:17.999Z</time></trkpt><trkpt lat="40.23018710012781" lon="15.667721619827814"><ele>555.5</ele><time>2026-03-27T08:37:18.999Z</time></trkpt><trkpt lat="40.2299467878751" lon="15.667956196311358"><ele>558.0</ele><time>2026-03-27T08:37:19.999Z</time></trkpt><trkpt lat="40.22970474521471" lon="15.66818623259336"><ele>564.0</ele><time>2026-03-27T08:37:20.999Z</time></trkpt><trkpt lat="40.22946093751904" lon="15.668414643273247"><ele>570.0</ele><time>2026-03-27T08:37:21.999Z</time></trkpt><trkpt lat="40.22921496872012" lon="15.668642647128312"><ele>576.0</ele><time>2026-03-27T08:37:22.999Z</time></trkpt><trkpt lat="40.22896479333684" lon="15.668870538077783"><ele>582.0</ele><time>2026-03-27T08:37:23.999Z</time></trkpt><trkpt lat="40.22871039586013" lon="15.669091235591104"><ele>582.0</ele><time>2026-03-27T08:37:24.999Z</time></trkpt><trkpt lat="40.228452783035074" lon="15.669304591702076"><ele>582.0</ele><time>2026-03-27T08:37:25.999Z</time></trkpt><trkpt lat="40.22818832870238" lon="15.669509220602881"><ele>587.0</ele><time>2026-03-27T08:37:26.999Z</time></trkpt><trkpt lat="40.22791959939226" lon="15.669705931857647"><ele>592.0</ele><time>2026-03-27T08:37:27.999Z</time></trkpt><trkpt lat="40.22764568351798" lon="15.669893169044053"><ele>592.0</ele><time>2026-03-27T08:37:28.999Z</time></trkpt><trkpt lat="40.227369014289124" lon="15.670067594380262"><ele>592.0</ele><time>2026-03-27T08:37:29.999Z</time></trkpt><trkpt lat="40.22708877302107" lon="15.67023471671208"><ele>597.0</ele><time>2026-03-27T08:37:30.999Z</time></trkpt><trkpt lat="40.22680643382669" lon="15.670393628979223"><ele>602.0</ele><time>2026-03-27T08:37:31.999Z</time></trkpt><trkpt lat="40.226520185234385" lon="15.67054468041115"><ele>613.0</ele><time>2026-03-27T08:37:32.999Z</time></trkpt><trkpt lat="40.22623028929098" lon="15.670680633390106"><ele>624.0</ele><time>2026-03-27T08:37:33.999Z</time></trkpt><trkpt lat="40.22593746431392" lon="15.670805161561479"><ele>629.0</ele><time>2026-03-27T08:37:34.999Z</time></trkpt><trkpt lat="40.22564371003081" lon="15.670919379171837"><ele>634.0</ele><time>2026-03-27T08:37:35.999Z</time></trkpt><trkpt lat="40.225328899879614" lon="15.671032699749622"><ele>625.5</ele><time>2026-03-27T08:37:37.07Z</time></trkpt><trkpt lat="40.22503626138461" lon="15.671126931608264"><ele>617.0</ele><time>2026-03-27T08:37:38.067Z</time></trkpt><trkpt lat="40.224742392241936" lon="15.671207851826514"><ele>611.0</ele><time>2026-03-27T08:37:39.064Z</time></trkpt><trkpt lat="40.22445022029341" lon="15.671288369677422"><ele>605.0</ele><time>2026-03-27T08:37:40.058Z</time></trkpt><trkpt lat="40.22181103611231" lon="15.671980706056909"><ele>590.0</ele><time>2026-03-27T08:37:48.999Z</time></trkpt><trkpt lat="40.22158422037338" lon="15.671792966246226"><ele>575.0</ele><time>2026-03-27T08:37:49.999Z</time></trkpt><trkpt lat="40.22129875895166" lon="15.671806729282057"><ele>575.0</ele><time>2026-03-27T08:37:50.999Z</time></trkpt><trkpt lat="40.221018163350756" lon="15.671804500723843"><ele>575.0</ele><time>2026-03-27T08:37:51.999Z</time></trkpt><trkpt lat="40.22073331026775" lon="15.671800969091823"><ele>577.0</ele><time>2026-03-27T08:37:52.999Z</time></trkpt><trkpt lat="40.22045065424883" lon="15.67178774776624"><ele>579.0</ele><time>2026-03-27T08:37:53.999Z</time></trkpt><trkpt lat="40.220171129677375" lon="15.671772415543638"><ele>579.0</ele><time>2026-03-27T08:37:54.999Z</time></trkpt><trkpt lat="40.21988991233712" lon="15.671751570939897"><ele>579.0</ele><time>2026-03-27T08:37:55.999Z</time></trkpt><trkpt lat="40.219612083728684" lon="15.67172746765653"><ele>580.0</ele><time>2026-03-27T08:37:56.999Z</time></trkpt><trkpt lat="40.219332595854354" lon="15.671703993509903"><ele>581.0</ele><time>2026-03-27T08:37:57.999Z</time></trkpt><trkpt lat="40.219053353025785" lon="15.671689190340077"><ele>585.0</ele><time>2026-03-27T08:37:58.999Z</time></trkpt><trkpt lat="40.21877523706278" lon="15.67168359400798"><ele>589.0</ele><time>2026-03-27T08:37:59.999Z</time></trkpt><trkpt lat="40.218498343401684" lon="15.67168831960145"><ele>589.0</ele><time>2026-03-27T08:38:00.999Z</time></trkpt><trkpt lat="40.218220378350985" lon="15.671684976163442"><ele>589.0</ele><time>2026-03-27T08:38:01.999Z</time></trkpt><trkpt lat="40.21794249673526" lon="15.671704070211963"><ele>592.5</ele><time>2026-03-27T08:38:02.999Z</time></trkpt><trkpt lat="40.21766235175173" lon="15.671722445314739"><ele>596.0</ele><time>2026-03-27T08:38:03.999Z</time></trkpt><trkpt lat="40.21738312234901" lon="15.671749497016574"><ele>601.5</ele><time>2026-03-27T08:38:04.999Z</time></trkpt><trkpt lat="40.217102615731285" lon="15.671784710328376"><ele>607.0</ele><time>2026-03-27T08:38:05.999Z</time></trkpt><trkpt lat="40.21682027433139" lon="15.671827836207353"><ele>607.0</ele><time>2026-03-27T08:38:06.999Z</time></trkpt><trkpt lat="40.21653882868355" lon="15.67187815646876"><ele>607.0</ele><time>2026-03-27T08:38:07.999Z</time></trkpt><trkpt lat="40.21625561651821" lon="15.671947111792477"><ele>601.5</ele><time>2026-03-27T08:38:09Z</time></trkpt><trkpt lat="40.215977261432556" lon="15.672017790476"><ele>596.0</ele><time>2026-03-27T08:38:10Z</time></trkpt><trkpt lat="40.215699744783294" lon="15.672101550070249"><ele>593.0</ele><time>2026-03-27T08:38:11Z</time></trkpt><trkpt lat="40.215426420512344" lon="15.672192671868093"><ele>590.0</ele><time>2026-03-27T08:38:12Z</time></trkpt><trkpt lat="40.21515387522247" lon="15.6722933102148"><ele>590.0</ele><time>2026-03-27T08:38:13Z</time></trkpt><trkpt lat="40.21488096872295" lon="15.672389158594875"><ele>590.0</ele><time>2026-03-27T08:38:14Z</time></trkpt><trkpt lat="40.21461119963437" lon="15.672502991998085"><ele>586.0</ele><time>2026-03-27T08:38:15Z</time></trkpt><trkpt lat="40.21434543230826" lon="15.672623938211876"><ele>582.0</ele><time>2026-03-27T08:38:16Z</time></trkpt><trkpt lat="40.21408203656255" lon="15.67275409874388"><ele>598.0</ele><time>2026-03-27T08:38:17Z</time></trkpt><trkpt lat="40.213820170712566" lon="15.672892863914166"><ele>614.0</ele><time>2026-03-27T08:38:18Z</time></trkpt><trkpt lat="40.213560453464225" lon="15.673042612964021"><ele>614.0</ele><time>2026-03-27T08:38:19Z</time></trkpt><trkpt lat="40.2133006745523" lon="15.673200205519603"><ele>614.0</ele><time>2026-03-27T08:38:20Z</time></trkpt><trkpt lat="40.213043494838736" lon="15.673367353899055"><ele>648.0</ele><time>2026-03-27T08:38:21Z</time></trkpt><trkpt lat="40.21278672253867" lon="15.673541611961495"><ele>682.0</ele><time>2026-03-27T08:38:22Z</time></trkpt><trkpt lat="40.212532374236865" lon="15.673723304949585"><ele>707.5</ele><time>2026-03-27T08:38:23Z</time></trkpt><trkpt lat="40.21228143198098" lon="15.673911469379554"><ele>733.0</ele><time>2026-03-27T08:38:24Z</time></trkpt><trkpt lat="40.212033933976194" lon="15.674109529967916"><ele>733.0</ele><time>2026-03-27T08:38:25Z</time></trkpt><trkpt lat="40.21178933317278" lon="15.674316616576718"><ele>733.0</ele><time>2026-03-27T08:38:26Z</time></trkpt><trkpt lat="40.21153220882152" lon="15.674549502847803"><ele>732.0</ele><time>2026-03-27T08:38:27.067Z</time></trkpt><trkpt lat="40.21129384991333" lon="15.67477200303215"><ele>731.0</ele><time>2026-03-27T08:38:28.069Z</time></trkpt><trkpt lat="40.2110602855276" lon="15.674998410422809"><ele>713.0</ele><time>2026-03-27T08:38:29.06Z</time></trkpt><trkpt lat="40.20863428485294" lon="15.677717574641123"><ele>700.0</ele><time>2026-03-27T08:38:33.233Z</time></trkpt><trkpt lat="40.207743076486814" lon="15.678709035944362"><ele>703.0</ele><time>2026-03-27T08:38:34.234Z</time></trkpt><trkpt lat="40.206852314715476" lon="15.67969967830882"><ele>719.0</ele><time>2026-03-27T08:38:35.234Z</time></trkpt><trkpt lat="40.20596345363217" lon="15.680688165667975"><ele>738.0</ele><time>2026-03-27T08:38:36.231Z</time></trkpt><trkpt lat="40.20507174693594" lon="15.68168219923815"><ele>733.0</ele><time>2026-03-27T08:38:37.233Z</time></trkpt><trkpt lat="40.20417920523421" lon="15.68267458586095"><ele>685.0</ele><time>2026-03-27T08:38:38.235Z</time></trkpt><trkpt lat="40.20329117700322" lon="15.683662044890132"><ele>662.0</ele><time>2026-03-27T08:38:39.232Z</time></trkpt><trkpt lat="40.20240017740491" lon="15.684660018740749"><ele>661.0</ele><time>2026-03-27T08:38:40.235Z</time></trkpt><trkpt lat="40.201512868112324" lon="15.685649760383834"><ele>645.0</ele><time>2026-03-27T08:38:41.232Z</time></trkpt><trkpt lat="40.20069117636176" lon="15.68638641930845"><ele>657.0</ele><time>2026-03-27T08:39:14.999Z</time></trkpt><trkpt lat="40.20046334644611" lon="15.68655128540534"><ele>669.0</ele><time>2026-03-27T08:39:15.999Z</time></trkpt><trkpt lat="40.200259695981714" lon="15.686876041225746"><ele>670.5</ele><time>2026-03-27T08:39:16.999Z</time></trkpt><trkpt lat="40.2000566968347" lon="15.6871531897899"><ele>672.0</ele><time>2026-03-27T08:39:17.999Z</time></trkpt><trkpt lat="40.19982168062289" lon="15.687453363786236"><ele>672.0</ele><time>2026-03-27T08:39:18.999Z</time></trkpt><trkpt lat="40.19960540773425" lon="15.687723426021071"><ele>672.0</ele><time>2026-03-27T08:39:19.999Z</time></trkpt><trkpt lat="40.19941731165272" lon="15.688025174690086"><ele>665.5</ele><time>2026-03-27T08:39:20.999Z</time></trkpt><trkpt lat="40.19922150647852" lon="15.68831126774981"><ele>659.0</ele><time>2026-03-27T08:39:21.999Z</time></trkpt><trkpt lat="40.199023340581086" lon="15.688603431912323"><ele>659.0</ele><time>2026-03-27T08:39:22.999Z</time></trkpt><trkpt lat="40.198830790824246" lon="15.688906207158235"><ele>659.0</ele><time>2026-03-27T08:39:23.999Z</time></trkpt><trkpt lat="40.19864712619197" lon="15.689218589384549"><ele>656.5</ele><time>2026-03-27T08:39:24.999Z</time></trkpt><trkpt lat="40.19847073192452" lon="15.689540618566479"><ele>654.0</ele><time>2026-03-27T08:39:25.999Z</time></trkpt><trkpt lat="40.19830283552729" lon="15.689871053031736"><ele>654.5</ele><time>2026-03-27T08:39:26.999Z</time></trkpt><trkpt lat="40.1981452447161" lon="15.690211755916355"><ele>655.0</ele><time>2026-03-27T08:39:27.999Z</time></trkpt><trkpt lat="40.1979993929243" lon="15.69056135985732"><ele>651.5</ele><time>2026-03-27T08:39:28.999Z</time></trkpt><trkpt lat="40.197864792278594" lon="15.690919627741662"><ele>648.0</ele><time>2026-03-27T08:39:29.999Z</time></trkpt><trkpt lat="40.19774021224549" lon="15.691284166844"><ele>644.5</ele><time>2026-03-27T08:39:30.999Z</time></trkpt><trkpt lat="40.197621169616504" lon="15.691653461514148"><ele>641.0</ele><time>2026-03-27T08:39:31.999Z</time></trkpt><trkpt lat="40.197500660690636" lon="15.692019195282118"><ele>640.5</ele><time>2026-03-27T08:39:32.999Z</time></trkpt><trkpt lat="40.19740228273296" lon="15.692396588590379"><ele>640.0</ele><time>2026-03-27T08:39:33.999Z</time></trkpt><trkpt lat="40.19729109503637" lon="15.692769361517126"><ele>647.0</ele><time>2026-03-27T08:39:34.999Z</time></trkpt><trkpt lat="40.19718786110505" lon="15.693145031697119"><ele>654.0</ele><time>2026-03-27T08:39:35.999Z</time></trkpt><trkpt lat="40.19707340859675" lon="15.693514096623698"><ele>646.5</ele><time>2026-03-27T08:39:36.999Z</time></trkpt><trkpt lat="40.19695742577697" lon="15.693881299943122"><ele>639.0</ele><time>2026-03-27T08:39:37.999Z</time></trkpt><trkpt lat="40.196835546711796" lon="15.694244597809645"><ele>633.5</ele><time>2026-03-27T08:39:38.999Z</time></trkpt><trkpt lat="40.196709451714455" lon="15.694607616438233"><ele>628.0</ele><time>2026-03-27T08:39:39.999Z</time></trkpt><trkpt lat="40.19658438275949" lon="15.694971293656435"><ele>631.5</ele><time>2026-03-27T08:39:40.999Z</time></trkpt><trkpt lat="40.196456759665324" lon="15.695336319109952"><ele>635.0</ele><time>2026-03-27T08:39:41.999Z</time></trkpt><trkpt lat="40.19632867253283" lon="15.695698222941957"><ele>635.0</ele><time>2026-03-27T08:39:42.999Z</time></trkpt><trkpt lat="40.196203881720145" lon="15.69606018601196"><ele>635.0</ele><time>2026-03-27T08:39:43.999Z</time></trkpt><trkpt lat="40.19607443062938" lon="15.696419565494296"><ele>635.0</ele><time>2026-03-27T08:39:44.999Z</time></trkpt><trkpt lat="40.19594876959684" lon="15.69677967392341"><ele>635.0</ele><time>2026-03-27T08:39:45.999Z</time></trkpt><trkpt lat="40.19582453803535" lon="15.69714071859925"><ele>633.5</ele><time>2026-03-27T08:39:46.999Z</time></trkpt><trkpt lat="40.195699632363436" lon="15.697498270980725"><ele>632.0</ele><time>2026-03-27T08:39:47.999Z</time></trkpt><trkpt lat="40.19557703737328" lon="15.697858651489755"><ele>632.0</ele><time>2026-03-27T08:39:48.999Z</time></trkpt><trkpt lat="40.19545190107785" lon="15.69821831418703"><ele>632.0</ele><time>2026-03-27T08:39:49.999Z</time></trkpt><trkpt lat="40.19532713528288" lon="15.698576402741606"><ele>626.5</ele><time>2026-03-27T08:39:50.999Z</time></trkpt><trkpt lat="40.195200750200506" lon="15.698934018985852"><ele>621.0</ele><time>2026-03-27T08:39:51.999Z</time></trkpt><trkpt lat="40.19507384726078" lon="15.699290254309219"><ele>619.0</ele><time>2026-03-27T08:39:52.999Z</time></trkpt><trkpt lat="40.19494695804489" lon="15.699647523924396"><ele>617.0</ele><time>2026-03-27T08:39:53.999Z</time></trkpt><trkpt lat="40.19481776910776" lon="15.69999819977428"><ele>610.0</ele><time>2026-03-27T08:39:54.999Z</time></trkpt><trkpt lat="40.194685580097136" lon="15.700344493873867"><ele>603.0</ele><time>2026-03-27T08:39:55.999Z</time></trkpt><trkpt lat="40.194544747687345" lon="15.700683334554284"><ele>603.0</ele><time>2026-03-27T08:39:56.999Z</time></trkpt><trkpt lat="40.19439874624346" lon="15.701017876629981"><ele>603.0</ele><time>2026-03-27T08:39:57.999Z</time></trkpt><trkpt lat="40.19424420602656" lon="15.70134166787413"><ele>607.5</ele><time>2026-03-27T08:39:58.999Z</time></trkpt><trkpt lat="40.194080895005065" lon="15.70165780695125"><ele>612.0</ele><time>2026-03-27T08:39:59.999Z</time></trkpt><trkpt lat="40.19391144446075" lon="15.701966858831161"><ele>621.5</ele><time>2026-03-27T08:40:00.999Z</time></trkpt><trkpt lat="40.19373558583083" lon="15.702270928537759"><ele>631.0</ele><time>2026-03-27T08:40:01.999Z</time></trkpt><trkpt lat="40.19355923857053" lon="15.702574870559399"><ele>633.5</ele><time>2026-03-27T08:40:02.999Z</time></trkpt><trkpt lat="40.19337150536453" lon="15.702861749037966"><ele>636.0</ele><time>2026-03-27T08:40:03.999Z</time></trkpt><trkpt lat="40.19317838494982" lon="15.70314520289906"><ele>639.0</ele><time>2026-03-27T08:40:04.999Z</time></trkpt><trkpt lat="40.19297574278379" lon="15.703419602682967"><ele>642.0</ele><time>2026-03-27T08:40:05.999Z</time></trkpt><trkpt lat="40.19276758629422" lon="15.703687551963728"><ele>643.5</ele><time>2026-03-27T08:40:06.999Z</time></trkpt><trkpt lat="40.192554587868834" lon="15.703949469678602"><ele>645.0</ele><time>2026-03-27T08:40:07.999Z</time></trkpt><trkpt lat="40.19233608619634" lon="15.704204569428983"><ele>650.0</ele><time>2026-03-27T08:40:08.999Z</time></trkpt><trkpt lat="40.192111418388684" lon="15.704453586724158"><ele>655.0</ele><time>2026-03-27T08:40:09.999Z</time></trkpt><trkpt lat="40.19187863204001" lon="15.70469388196928"><ele>655.0</ele><time>2026-03-27T08:40:10.999Z</time></trkpt><trkpt lat="40.19163847035076" lon="15.704923441462984"><ele>655.0</ele><time>2026-03-27T08:40:11.999Z</time></trkpt><trkpt lat="40.19139358282493" lon="15.70514654045822"><ele>664.5</ele><time>2026-03-27T08:40:12.998Z</time></trkpt><trkpt lat="40.19114049309918" lon="15.705357853739967"><ele>674.0</ele><time>2026-03-27T08:40:14Z</time></trkpt><trkpt lat="40.19088088158031" lon="15.705556541368942"><ele>681.0</ele><time>2026-03-27T08:40:15Z</time></trkpt><trkpt lat="40.190616909132466" lon="15.705747023414752"><ele>688.0</ele><time>2026-03-27T08:40:16Z</time></trkpt><trkpt lat="40.19034656328536" lon="15.705926191947878"><ele>692.5</ele><time>2026-03-27T08:40:17Z</time></trkpt><trkpt lat="40.19007101804072" lon="15.706096186327244"><ele>697.0</ele><time>2026-03-27T08:40:18Z</time></trkpt><trkpt lat="40.18979176027181" lon="15.706259712484592"><ele>698.0</ele><time>2026-03-27T08:40:19Z</time></trkpt><trkpt lat="40.18948953605382" lon="15.706430616280956"><ele>699.0</ele><time>2026-03-27T08:40:20.069Z</time></trkpt><trkpt lat="40.18920296017255" lon="15.70659010927177"><ele>695.0</ele><time>2026-03-27T08:40:21.071Z</time></trkpt><trkpt lat="40.188913780438746" lon="15.70675042132467"><ele>691.0</ele><time>2026-03-27T08:40:22.069Z</time></trkpt><trkpt lat="40.18862538741369" lon="15.706914054511893"><ele>648.0</ele><time>2026-03-27T08:40:23.069Z</time></trkpt><trkpt lat="40.18670306321079" lon="15.708210083176242"><ele>649.0</ele><time>2026-03-27T08:40:30Z</time></trkpt><trkpt lat="40.186441202793304" lon="15.708419859030277"><ele>650.0</ele><time>2026-03-27T08:40:31Z</time></trkpt><trkpt lat="40.18617462974673" lon="15.708597197331398"><ele>650.0</ele><time>2026-03-27T08:40:32Z</time></trkpt><trkpt lat="40.185905800524914" lon="15.70881772149354"><ele>650.0</ele><time>2026-03-27T08:40:33Z</time></trkpt><trkpt lat="40.185649599431315" lon="15.709040156282947"><ele>651.5</ele><time>2026-03-27T08:40:34Z</time></trkpt><trkpt lat="40.185391592368184" lon="15.709256933739006"><ele>653.0</ele><time>2026-03-27T08:40:35Z</time></trkpt><trkpt lat="40.1851349361072" lon="15.70946850864726"><ele>654.0</ele><time>2026-03-27T08:40:36Z</time></trkpt><trkpt lat="40.18488144158225" lon="15.709675894634358"><ele>655.0</ele><time>2026-03-27T08:40:37Z</time></trkpt><trkpt lat="40.18462891098096" lon="15.70988595071395"><ele>655.0</ele><time>2026-03-27T08:40:38Z</time></trkpt><trkpt lat="40.18437802663979" lon="15.710098223769675"><ele>655.0</ele><time>2026-03-27T08:40:39Z</time></trkpt><trkpt lat="40.184125554291995" lon="15.71031267082041"><ele>651.0</ele><time>2026-03-27T08:40:40Z</time></trkpt><trkpt lat="40.183872525193436" lon="15.710527932084437"><ele>647.0</ele><time>2026-03-27T08:40:41Z</time></trkpt><trkpt lat="40.183618039081026" lon="15.710741520812215"><ele>647.0</ele><time>2026-03-27T08:40:42Z</time></trkpt><trkpt lat="40.18336301478113" lon="15.710952397501798"><ele>647.0</ele><time>2026-03-27T08:40:43Z</time></trkpt><trkpt lat="40.1831091694328" lon="15.711161273785423"><ele>645.5</ele><time>2026-03-27T08:40:44Z</time></trkpt><trkpt lat="40.18285448544579" lon="15.711369976000727"><ele>644.0</ele><time>2026-03-27T08:40:45Z</time></trkpt><trkpt lat="40.18260122556098" lon="15.711581238647515"><ele>644.0</ele><time>2026-03-27T08:40:46Z</time></trkpt><trkpt lat="40.18234815797734" lon="15.71179677869369"><ele>644.0</ele><time>2026-03-27T08:40:47Z</time></trkpt><trkpt lat="40.18209359879357" lon="15.712009908411128"><ele>644.5</ele><time>2026-03-27T08:40:48Z</time></trkpt><trkpt lat="40.18184085541167" lon="15.712225895468253"><ele>645.0</ele><time>2026-03-27T08:40:49Z</time></trkpt><trkpt lat="40.181582628853995" lon="15.712440178130851"><ele>642.0</ele><time>2026-03-27T08:40:50Z</time></trkpt><trkpt lat="40.18132389094618" lon="15.712652973722607"><ele>639.0</ele><time>2026-03-27T08:40:51Z</time></trkpt><trkpt lat="40.18106392671539" lon="15.712866056935617"><ele>641.5</ele><time>2026-03-27T08:40:52Z</time></trkpt><trkpt lat="40.18080534360398" lon="15.71307757777729"><ele>644.0</ele><time>2026-03-27T08:40:53Z</time></trkpt><trkpt lat="40.18054764149844" lon="15.71329067120128"><ele>644.0</ele><time>2026-03-27T08:40:54Z</time></trkpt><trkpt lat="40.180289628555656" lon="15.713506391730354"><ele>644.0</ele><time>2026-03-27T08:40:55Z</time></trkpt><trkpt lat="40.18003100439181" lon="15.713721720389684"><ele>646.0</ele><time>2026-03-27T08:40:56Z</time></trkpt><trkpt lat="40.17977410106448" lon="15.713937504965102"><ele>648.0</ele><time>2026-03-27T08:40:57Z</time></trkpt><trkpt lat="40.179519639420946" lon="15.714152797159631"><ele>648.0</ele><time>2026-03-27T08:40:57.999Z</time></trkpt><trkpt lat="40.17926345792613" lon="15.714364594770583"><ele>648.0</ele><time>2026-03-27T08:40:58.999Z</time></trkpt><trkpt lat="40.17900614655064" lon="15.714574795906282"><ele>643.5</ele><time>2026-03-27T08:40:59.999Z</time></trkpt><trkpt lat="40.17875022796044" lon="15.714785117747205"><ele>639.0</ele><time>2026-03-27T08:41:00.999Z</time></trkpt><trkpt lat="40.17849578822341" lon="15.714997375709848"><ele>639.0</ele><time>2026-03-27T08:41:01.999Z</time></trkpt><trkpt lat="40.178243577361464" lon="15.715208566402433"><ele>639.0</ele><time>2026-03-27T08:41:02.999Z</time></trkpt><trkpt lat="40.177991842985534" lon="15.715417189714302"><ele>647.5</ele><time>2026-03-27T08:41:03.999Z</time></trkpt><trkpt lat="40.177740545352144" lon="15.715623638581798"><ele>656.0</ele><time>2026-03-27T08:41:04.999Z</time></trkpt><trkpt lat="40.17749016316682" lon="15.715830623766083"><ele>654.5</ele><time>2026-03-27T08:41:05.999Z</time></trkpt><trkpt lat="40.17724134215985" lon="15.716039954650391"><ele>653.0</ele><time>2026-03-27T08:41:06.999Z</time></trkpt><trkpt lat="40.17699272023233" lon="15.716248828996578"><ele>653.0</ele><time>2026-03-27T08:41:07.999Z</time></trkpt><trkpt lat="40.17674512745848" lon="15.716455702554281"><ele>653.0</ele><time>2026-03-27T08:41:08.999Z</time></trkpt><trkpt lat="40.17649781926257" lon="15.716661963408315"><ele>651.0</ele><time>2026-03-27T08:41:09.999Z</time></trkpt><trkpt lat="40.176250413594424" lon="15.716867451366289"><ele>649.0</ele><time>2026-03-27T08:41:10.999Z</time></trkpt><trkpt lat="40.17600538869299" lon="15.717072942383872"><ele>655.0</ele><time>2026-03-27T08:41:11.999Z</time></trkpt><trkpt lat="40.175758939960986" lon="15.717280182120334"><ele>661.0</ele><time>2026-03-27T08:41:12.999Z</time></trkpt><trkpt lat="40.17551050416117" lon="15.717486690821369"><ele>661.0</ele><time>2026-03-27T08:41:13.999Z</time></trkpt><trkpt lat="40.175260964356625" lon="15.717692779473364"><ele>661.0</ele><time>2026-03-27T08:41:14.999Z</time></trkpt><trkpt lat="40.175011892473805" lon="15.71790026926064"><ele>658.5</ele><time>2026-03-27T08:41:15.999Z</time></trkpt><trkpt lat="40.17476592041205" lon="15.7181153767874"><ele>656.0</ele><time>2026-03-27T08:41:16.999Z</time></trkpt><trkpt lat="40.17452788878249" lon="15.718343534595771"><ele>660.0</ele><time>2026-03-27T08:41:17.999Z</time></trkpt><trkpt lat="40.17429668918805" lon="15.718583174050307"><ele>664.0</ele><time>2026-03-27T08:41:18.999Z</time></trkpt><trkpt lat="40.1740714305953" lon="15.718831985857557"><ele>665.0</ele><time>2026-03-27T08:41:19.999Z</time></trkpt><trkpt lat="40.17385195625817" lon="15.719092427486087"><ele>666.0</ele><time>2026-03-27T08:41:20.999Z</time></trkpt><trkpt lat="40.173638158679324" lon="15.719357997978396"><ele>668.0</ele><time>2026-03-27T08:41:21.999Z</time></trkpt><trkpt lat="40.17342817852713" lon="15.719633045154467"><ele>670.0</ele><time>2026-03-27T08:41:22.999Z</time></trkpt><trkpt lat="40.17322425323275" lon="15.719920288237002"><ele>671.5</ele><time>2026-03-27T08:41:23.999Z</time></trkpt><trkpt lat="40.17302907134713" lon="15.720213980002855"><ele>673.0</ele><time>2026-03-27T08:41:24.999Z</time></trkpt><trkpt lat="40.172838576113435" lon="15.720512111318753"><ele>673.0</ele><time>2026-03-27T08:41:25.999Z</time></trkpt><trkpt lat="40.17264954297569" lon="15.72081570398166"><ele>673.0</ele><time>2026-03-27T08:41:26.999Z</time></trkpt><trkpt lat="40.17246059156716" lon="15.721119527264259"><ele>665.0</ele><time>2026-03-27T08:41:27.999Z</time></trkpt><trkpt lat="40.1722729559083" lon="15.72142026230703"><ele>657.0</ele><time>2026-03-27T08:41:28.999Z</time></trkpt><trkpt lat="40.17208441459025" lon="15.72172335266698"><ele>662.0</ele><time>2026-03-27T08:41:29.999Z</time></trkpt><trkpt lat="40.17189758801889" lon="15.722025245835543"><ele>667.0</ele><time>2026-03-27T08:41:30.999Z</time></trkpt><trkpt lat="40.17170802170552" lon="15.72232477508324"><ele>669.5</ele><time>2026-03-27T08:41:31.999Z</time></trkpt><trkpt lat="40.17151791772215" lon="15.722623110238072"><ele>672.0</ele><time>2026-03-27T08:41:32.999Z</time></trkpt><trkpt lat="40.17132940152115" lon="15.722924363634622"><ele>678.0</ele><time>2026-03-27T08:41:33.999Z</time></trkpt><trkpt lat="40.17113977800119" lon="15.723224765386336"><ele>684.0</ele><time>2026-03-27T08:41:34.999Z</time></trkpt><trkpt lat="40.170943564752065" lon="15.723519867951786"><ele>685.0</ele><time>2026-03-27T08:41:35.999Z</time></trkpt><trkpt lat="40.17073430672205" lon="15.723800035108406"><ele>686.0</ele><time>2026-03-27T08:41:36.999Z</time></trkpt><trkpt lat="40.17051638778176" lon="15.724059642510312"><ele>690.5</ele><time>2026-03-27T08:41:37.999Z</time></trkpt><trkpt lat="40.17028870355223" lon="15.724309930584832"><ele>695.0</ele><time>2026-03-27T08:41:38.999Z</time></trkpt><trkpt lat="40.17004952503501" lon="15.724546812642453"><ele>691.5</ele><time>2026-03-27T08:41:39.999Z</time></trkpt><trkpt lat="40.16980333359336" lon="15.724768622633889"><ele>688.0</ele><time>2026-03-27T08:41:40.999Z</time></trkpt><trkpt lat="40.16955358434654" lon="15.724985629461827"><ele>688.0</ele><time>2026-03-27T08:41:41.999Z</time></trkpt><trkpt lat="40.16930309289213" lon="15.725200599831947"><ele>688.0</ele><time>2026-03-27T08:41:42.999Z</time></trkpt><trkpt lat="40.169052405986186" lon="15.72541646828085"><ele>687.0</ele><time>2026-03-27T08:41:43.999Z</time></trkpt><trkpt lat="40.168805061846925" lon="15.725631446558605"><ele>686.0</ele><time>2026-03-27T08:41:44.999Z</time></trkpt><trkpt lat="40.16856011072393" lon="15.72584954298688"><ele>689.0</ele><time>2026-03-27T08:41:45.999Z</time></trkpt><trkpt lat="40.16831583239006" lon="15.7260664096909"><ele>692.0</ele><time>2026-03-27T08:41:46.999Z</time></trkpt><trkpt lat="40.16806875522713" lon="15.726282938490705"><ele>692.0</ele><time>2026-03-27T08:41:47.999Z</time></trkpt><trkpt lat="40.16782212863696" lon="15.726498014891359"><ele>692.0</ele><time>2026-03-27T08:41:48.999Z</time></trkpt><trkpt lat="40.16757485986667" lon="15.726714043044293"><ele>689.5</ele><time>2026-03-27T08:41:49.999Z</time></trkpt><trkpt lat="40.16732762954648" lon="15.72693059585786"><ele>687.0</ele><time>2026-03-27T08:41:50.999Z</time></trkpt><trkpt lat="40.16708067153522" lon="15.727147593027063"><ele>687.0</ele><time>2026-03-27T08:41:51.999Z</time></trkpt><trkpt lat="40.16683568437293" lon="15.727369044439746"><ele>687.0</ele><time>2026-03-27T08:41:52.999Z</time></trkpt><trkpt lat="40.16659452394611" lon="15.727597429798113"><ele>690.5</ele><time>2026-03-27T08:41:53.999Z</time></trkpt><trkpt lat="40.16636064172421" lon="15.727838648608117"><ele>694.0</ele><time>2026-03-27T08:41:54.999Z</time></trkpt><trkpt lat="40.166133396932736" lon="15.728095200625392"><ele>694.0</ele><time>2026-03-27T08:41:55.999Z</time></trkpt><trkpt lat="40.16591413329091" lon="15.72836275143056"><ele>694.0</ele><time>2026-03-27T08:41:56.999Z</time></trkpt><trkpt lat="40.1656983955902" lon="15.728638041339527"><ele>696.0</ele><time>2026-03-27T08:41:57.999Z</time></trkpt><trkpt lat="40.16548228304639" lon="15.728914361068206"><ele>698.0</ele><time>2026-03-27T08:41:58.999Z</time></trkpt><trkpt lat="40.16526671599552" lon="15.729190706319036"><ele>704.5</ele><time>2026-03-27T08:41:59.999Z</time></trkpt><trkpt lat="40.165048953825234" lon="15.729469228667945"><ele>711.0</ele><time>2026-03-27T08:42:00.999Z</time></trkpt><trkpt lat="40.16482953913892" lon="15.729751403823718"><ele>725.5</ele><time>2026-03-27T08:42:01.999Z</time></trkpt><trkpt lat="40.16460757668065" lon="15.730035901381692"><ele>740.0</ele><time>2026-03-27T08:42:02.999Z</time></trkpt><trkpt lat="40.164381205623215" lon="15.730323969534437"><ele>752.5</ele><time>2026-03-27T08:42:03.999Z</time></trkpt><trkpt lat="40.16415387954308" lon="15.730614477419678"><ele>765.0</ele><time>2026-03-27T08:42:04.999Z</time></trkpt><trkpt lat="40.163924468663545" lon="15.730908479534524"><ele>795.0</ele><time>2026-03-27T08:42:05.999Z</time></trkpt><trkpt lat="40.16369557831414" lon="15.731204839433406"><ele>825.0</ele><time>2026-03-27T08:42:06.999Z</time></trkpt><trkpt lat="40.16346657651093" lon="15.731502216258408"><ele>825.0</ele><time>2026-03-27T08:42:07.999Z</time></trkpt><trkpt lat="40.16322118441515" lon="15.731821458354318"><ele>825.0</ele><time>2026-03-27T08:42:09.07Z</time></trkpt><trkpt lat="40.162994544646104" lon="15.732118990938682"><ele>837.5</ele><time>2026-03-27T08:42:10.064Z</time></trkpt><trkpt lat="40.162766118485344" lon="15.73241952142132"><ele>850.0</ele><time>2026-03-27T08:42:11.066Z</time></trkpt><trkpt lat="40.16253905442039" lon="15.732720819929199"><ele>822.5</ele><time>2026-03-27T08:42:12.065Z</time></trkpt><trkpt lat="40.162312748149446" lon="15.73302411439243"><ele>795.0</ele><time>2026-03-27T08:42:13.067Z</time></trkpt><trkpt lat="40.162093067374826" lon="15.73332140795433"><ele>765.0</ele><time>2026-03-27T08:42:14.039Z</time></trkpt><trkpt lat="40.16186893584394" lon="15.73362201106992"><ele>735.0</ele><time>2026-03-27T08:42:15.03Z</time></trkpt><trkpt lat="40.16164361997668" lon="15.733929129957298"><ele>707.0</ele><time>2026-03-27T08:42:16.029Z</time></trkpt><trkpt lat="40.160873247555635" lon="15.73482673045767"><ele>696.5</ele><time>2026-03-27T08:42:18.998Z</time></trkpt><trkpt lat="40.16063866418234" lon="15.735127974936544"><ele>686.0</ele><time>2026-03-27T08:42:19.998Z</time></trkpt><trkpt lat="40.160397670087164" lon="15.735436319151228"><ele>683.5</ele><time>2026-03-27T08:42:20.998Z</time></trkpt><trkpt lat="40.16017934736161" lon="15.735717968107865"><ele>681.0</ele><time>2026-03-27T08:42:21.998Z</time></trkpt><trkpt lat="40.15996183678628" lon="15.73600649550352"><ele>681.0</ele><time>2026-03-27T08:42:22.998Z</time></trkpt><trkpt lat="40.15974032160366" lon="15.736298410376001"><ele>681.0</ele><time>2026-03-27T08:42:23.998Z</time></trkpt><trkpt lat="40.159516121424005" lon="15.736588600320015"><ele>681.0</ele><time>2026-03-27T08:42:25Z</time></trkpt><trkpt lat="40.15928877644927" lon="15.736877330895526"><ele>681.0</ele><time>2026-03-27T08:42:26Z</time></trkpt><trkpt lat="40.15907525920939" lon="15.73716095877637"><ele>684.5</ele><time>2026-03-27T08:42:27Z</time></trkpt><trkpt lat="40.158863007827506" lon="15.737441792146106"><ele>688.0</ele><time>2026-03-27T08:42:28Z</time></trkpt><trkpt lat="40.15865230814962" lon="15.73772153782938"><ele>695.0</ele><time>2026-03-27T08:42:29Z</time></trkpt><trkpt lat="40.158437240314136" lon="15.738010186637208"><ele>702.0</ele><time>2026-03-27T08:42:30Z</time></trkpt><trkpt lat="40.15822963039659" lon="15.738310775738324"><ele>706.5</ele><time>2026-03-27T08:42:31Z</time></trkpt><trkpt lat="40.158025728153945" lon="15.738615445411195"><ele>711.0</ele><time>2026-03-27T08:42:32Z</time></trkpt><trkpt lat="40.15783062142489" lon="15.73892899117196"><ele>711.0</ele><time>2026-03-27T08:42:33Z</time></trkpt><trkpt lat="40.15764495648699" lon="15.739254539247954"><ele>711.0</ele><time>2026-03-27T08:42:34Z</time></trkpt><trkpt lat="40.15746016750756" lon="15.739586158240904"><ele>712.0</ele><time>2026-03-27T08:42:35Z</time></trkpt><trkpt lat="40.15727819485791" lon="15.739921462844586"><ele>713.0</ele><time>2026-03-27T08:42:36Z</time></trkpt><trkpt lat="40.157097260370776" lon="15.740264996714416"><ele>713.0</ele><time>2026-03-27T08:42:37Z</time></trkpt><trkpt lat="40.156916875136744" lon="15.740603444250398"><ele>713.0</ele><time>2026-03-27T08:42:38Z</time></trkpt><trkpt lat="40.15673851694517" lon="15.74094503364266"><ele>712.5</ele><time>2026-03-27T08:42:39Z</time></trkpt><trkpt lat="40.156560771503564" lon="15.741286675523066"><ele>712.0</ele><time>2026-03-27T08:42:40Z</time></trkpt><trkpt lat="40.15638217213044" lon="15.741626705633111"><ele>715.5</ele><time>2026-03-27T08:42:41Z</time></trkpt><trkpt lat="40.156204183962146" lon="15.741963265313279"><ele>719.0</ele><time>2026-03-27T08:42:42Z</time></trkpt><trkpt lat="40.156026412669874" lon="15.742298982870084"><ele>719.0</ele><time>2026-03-27T08:42:43Z</time></trkpt><trkpt lat="40.15584935864565" lon="15.742633559525729"><ele>719.0</ele><time>2026-03-27T08:42:44Z</time></trkpt><trkpt lat="40.15567550410614" lon="15.742965211815976"><ele>721.5</ele><time>2026-03-27T08:42:45Z</time></trkpt><trkpt lat="40.15550524180135" lon="15.743291979397327"><ele>724.0</ele><time>2026-03-27T08:42:46Z</time></trkpt><trkpt lat="40.15533607292793" lon="15.743615076133022"><ele>728.0</ele><time>2026-03-27T08:42:47Z</time></trkpt><trkpt lat="40.15516891351368" lon="15.743936835484904"><ele>732.0</ele><time>2026-03-27T08:42:48Z</time></trkpt><trkpt lat="40.15500419011207" lon="15.74425577551508"><ele>733.0</ele><time>2026-03-27T08:42:49Z</time></trkpt><trkpt lat="40.15483893921947" lon="15.744573650016983"><ele>734.0</ele><time>2026-03-27T08:42:50Z</time></trkpt><trkpt lat="40.154674676165456" lon="15.744891976648749"><ele>734.0</ele><time>2026-03-27T08:42:51Z</time></trkpt><trkpt lat="40.154509751203456" lon="15.74520896456545"><ele>734.0</ele><time>2026-03-27T08:42:52Z</time></trkpt><trkpt lat="40.15434383825447" lon="15.745526027429504"><ele>738.0</ele><time>2026-03-27T08:42:53Z</time></trkpt><trkpt lat="40.15417828359405" lon="15.74584477287787"><ele>742.0</ele><time>2026-03-27T08:42:54Z</time></trkpt><trkpt lat="40.15401344340524" lon="15.746162876598975"><ele>743.5</ele><time>2026-03-27T08:42:55Z</time></trkpt><trkpt lat="40.15384885301702" lon="15.746479823382268"><ele>745.0</ele><time>2026-03-27T08:42:56Z</time></trkpt><trkpt lat="40.15368116514911" lon="15.746793664666729"><ele>751.0</ele><time>2026-03-27T08:42:57Z</time></trkpt><trkpt lat="40.15350779863148" lon="15.747102181406754"><ele>757.0</ele><time>2026-03-27T08:42:58Z</time></trkpt><trkpt lat="40.153324952090195" lon="15.747403979497998"><ele>756.0</ele><time>2026-03-27T08:42:59Z</time></trkpt><trkpt lat="40.15313262659577" lon="15.747695850755107"><ele>755.0</ele><time>2026-03-27T08:43:00Z</time></trkpt><trkpt lat="40.152930132646496" lon="15.74797866298117"><ele>758.0</ele><time>2026-03-27T08:43:01Z</time></trkpt><trkpt lat="40.15271729113661" lon="15.748248325976105"><ele>761.0</ele><time>2026-03-27T08:43:02Z</time></trkpt><trkpt lat="40.152495811811946" lon="15.74850809631718"><ele>764.5</ele><time>2026-03-27T08:43:03Z</time></trkpt><trkpt lat="40.15226726126939" lon="15.748755943588156"><ele>768.0</ele><time>2026-03-27T08:43:04Z</time></trkpt><trkpt lat="40.15203147601471" lon="15.748991312662643"><ele>768.0</ele><time>2026-03-27T08:43:05Z</time></trkpt><trkpt lat="40.15178659916402" lon="15.749213006678797"><ele>768.0</ele><time>2026-03-27T08:43:06Z</time></trkpt><trkpt lat="40.15152959486348" lon="15.749411726835662"><ele>773.0</ele><time>2026-03-27T08:43:07Z</time></trkpt><trkpt lat="40.15126889347975" lon="15.749596725496309"><ele>778.0</ele><time>2026-03-27T08:43:08Z</time></trkpt><trkpt lat="40.15100286216855" lon="15.749765775139654"><ele>778.0</ele><time>2026-03-27T08:43:09Z</time></trkpt><trkpt lat="40.15073357778732" lon="15.749923803657463"><ele>778.0</ele><time>2026-03-27T08:43:10Z</time></trkpt><trkpt lat="40.150461304038544" lon="15.750079433195063"><ele>783.0</ele><time>2026-03-27T08:43:11Z</time></trkpt><trkpt lat="40.15018675876983" lon="15.750237542489383"><ele>788.0</ele><time>2026-03-27T08:43:12Z</time></trkpt><trkpt lat="40.1499107607348" lon="15.75039605649982"><ele>787.5</ele><time>2026-03-27T08:43:13Z</time></trkpt><trkpt lat="40.14963433039869" lon="15.750552610505197"><ele>787.0</ele><time>2026-03-27T08:43:14Z</time></trkpt><trkpt lat="40.149357994930824" lon="15.750709093828533"><ele>787.0</ele><time>2026-03-27T08:43:15Z</time></trkpt><trkpt lat="40.149083826984864" lon="15.750872239315726"><ele>787.0</ele><time>2026-03-27T08:43:16Z</time></trkpt><trkpt lat="40.14881262409744" lon="15.75104767035197"><ele>790.0</ele><time>2026-03-27T08:43:16.999Z</time></trkpt><trkpt lat="40.148541216841274" lon="15.75123035621827"><ele>793.0</ele><time>2026-03-27T08:43:17.999Z</time></trkpt><trkpt lat="40.14827019077739" lon="15.751417045535568"><ele>798.0</ele><time>2026-03-27T08:43:18.999Z</time></trkpt><trkpt lat="40.14799916223929" lon="15.751606978337948"><ele>803.0</ele><time>2026-03-27T08:43:19.999Z</time></trkpt><trkpt lat="40.14772896476264" lon="15.75179824677708"><ele>805.5</ele><time>2026-03-27T08:43:20.999Z</time></trkpt><trkpt lat="40.147459693375616" lon="15.751988666502864"><ele>808.0</ele><time>2026-03-27T08:43:21.999Z</time></trkpt><trkpt lat="40.14719375756514" lon="15.752179784136587"><ele>818.5</ele><time>2026-03-27T08:43:22.999Z</time></trkpt><trkpt lat="40.14692842768277" lon="15.752369845799077"><ele>829.0</ele><time>2026-03-27T08:43:23.999Z</time></trkpt><trkpt lat="40.14666432786902" lon="15.752559566316592"><ele>850.5</ele><time>2026-03-27T08:43:24.999Z</time></trkpt><trkpt lat="40.146402423821364" lon="15.752750847198403"><ele>872.0</ele><time>2026-03-27T08:43:25.999Z</time></trkpt><trkpt lat="40.14614200480314" lon="15.752945802987188"><ele>872.0</ele><time>2026-03-27T08:43:26.999Z</time></trkpt><trkpt lat="40.145881722296345" lon="15.753144138108858"><ele>872.0</ele><time>2026-03-27T08:43:27.999Z</time></trkpt><trkpt lat="40.145603540329105" lon="15.753357967986828"><ele>874.5</ele><time>2026-03-27T08:43:29.067Z</time></trkpt><trkpt lat="40.14534527662086" lon="15.753555818381676"><ele>877.0</ele><time>2026-03-27T08:43:30.056Z</time></trkpt><trkpt lat="40.14368149075772" lon="15.754697227679065"><ele>834.0</ele><time>2026-03-27T08:43:34.23Z</time></trkpt><trkpt lat="40.14328696052587" lon="15.754980579049398"><ele>824.0</ele><time>2026-03-27T08:43:35.23Z</time></trkpt><trkpt lat="40.14289256998065" lon="15.755262869075885"><ele>824.0</ele><time>2026-03-27T08:43:36.229Z</time></trkpt><trkpt lat="40.14249723424589" lon="15.75554565020843"><ele>823.5</ele><time>2026-03-27T08:43:37.231Z</time></trkpt><trkpt lat="40.142103565357424" lon="15.755827518796625"><ele>823.0</ele><time>2026-03-27T08:43:38.228Z</time></trkpt><trkpt lat="40.14170793299108" lon="15.756111221855669"><ele>819.0</ele><time>2026-03-27T08:43:39.231Z</time></trkpt><trkpt lat="40.141314461875" lon="15.756394158979626"><ele>815.0</ele><time>2026-03-27T08:43:40.229Z</time></trkpt><trkpt lat="40.14091945166023" lon="15.756678198422337"><ele>802.0</ele><time>2026-03-27T08:43:41.231Z</time></trkpt><trkpt lat="40.14052469333661" lon="15.75696041545457"><ele>802.0</ele><time>2026-03-27T08:43:42.231Z</time></trkpt><trkpt lat="40.14012969408517" lon="15.75724212912247"><ele>792.0</ele><time>2026-03-27T08:43:43.231Z</time></trkpt><trkpt lat="40.13920902381753" lon="15.757882185347043"><ele>789.0</ele><time>2026-03-27T08:43:51.999Z</time></trkpt><trkpt lat="40.13895237936756" lon="15.758095675658483"><ele>786.0</ele><time>2026-03-27T08:43:52.999Z</time></trkpt><trkpt lat="40.138685245977456" lon="15.75826822702165"><ele>786.0</ele><time>2026-03-27T08:43:53.999Z</time></trkpt><trkpt lat="40.13842272541517" lon="15.758450427008237"><ele>786.0</ele><time>2026-03-27T08:43:54.999Z</time></trkpt><trkpt lat="40.138150569033165" lon="15.758645833100895"><ele>786.0</ele><time>2026-03-27T08:43:55.999Z</time></trkpt><trkpt lat="40.137884025241775" lon="15.758829687810382"><ele>786.0</ele><time>2026-03-27T08:43:56.999Z</time></trkpt><trkpt lat="40.13761732497468" lon="15.759016671739916"><ele>784.5</ele><time>2026-03-27T08:43:57.999Z</time></trkpt><trkpt lat="40.13734742767881" lon="15.759199343969785"><ele>783.0</ele><time>2026-03-27T08:43:58.999Z</time></trkpt><trkpt lat="40.137073080859054" lon="15.759373697406435"><ele>787.0</ele><time>2026-03-27T08:43:59.999Z</time></trkpt><trkpt lat="40.136795250280684" lon="15.759538558575917"><ele>791.0</ele><time>2026-03-27T08:44:00.999Z</time></trkpt><trkpt lat="40.13651345586445" lon="15.759696231023504"><ele>791.0</ele><time>2026-03-27T08:44:01.999Z</time></trkpt><trkpt lat="40.13622862302597" lon="15.75984168196224"><ele>791.0</ele><time>2026-03-27T08:44:02.999Z</time></trkpt><trkpt lat="40.13594215163714" lon="15.759981230792159"><ele>791.0</ele><time>2026-03-27T08:44:03.999Z</time></trkpt><trkpt lat="40.13565250551896" lon="15.76011470018996"><ele>791.0</ele><time>2026-03-27T08:44:04.999Z</time></trkpt><trkpt lat="40.135363362460204" lon="15.760245775606334"><ele>791.5</ele><time>2026-03-27T08:44:05.999Z</time></trkpt><trkpt lat="40.13507521176764" lon="15.760377921640348"><ele>792.0</ele><time>2026-03-27T08:44:06.999Z</time></trkpt><trkpt lat="40.13478602118281" lon="15.760512144818636"><ele>792.0</ele><time>2026-03-27T08:44:07.999Z</time></trkpt><trkpt lat="40.13449619010526" lon="15.76064640271019"><ele>792.0</ele><time>2026-03-27T08:44:08.999Z</time></trkpt><trkpt lat="40.13420729746802" lon="15.760776904190799"><ele>791.0</ele><time>2026-03-27T08:44:09.999Z</time></trkpt><trkpt lat="40.13391866609745" lon="15.760904321172806"><ele>790.0</ele><time>2026-03-27T08:44:10.999Z</time></trkpt><trkpt lat="40.133629891487985" lon="15.761035551684497"><ele>790.0</ele><time>2026-03-27T08:44:11.999Z</time></trkpt><trkpt lat="40.13334094621474" lon="15.76116782457539"><ele>790.0</ele><time>2026-03-27T08:44:12.999Z</time></trkpt><trkpt lat="40.13305303264483" lon="15.761300414179601"><ele>787.5</ele><time>2026-03-27T08:44:13.999Z</time></trkpt><trkpt lat="40.132768393931315" lon="15.761437077384988"><ele>785.0</ele><time>2026-03-27T08:44:14.999Z</time></trkpt><trkpt lat="40.13248721268746" lon="15.761585975732137"><ele>782.0</ele><time>2026-03-27T08:44:15.999Z</time></trkpt><trkpt lat="40.13221682455217" lon="15.761757156359474"><ele>779.0</ele><time>2026-03-27T08:44:16.999Z</time></trkpt><trkpt lat="40.13196592583595" lon="15.761956564903786"><ele>779.0</ele><time>2026-03-27T08:44:17.999Z</time></trkpt><trkpt lat="40.13173355477696" lon="15.762185281535462"><ele>779.0</ele><time>2026-03-27T08:44:18.999Z</time></trkpt><trkpt lat="40.13151098301388" lon="15.762430242824033"><ele>773.5</ele><time>2026-03-27T08:44:19.999Z</time></trkpt><trkpt lat="40.13130611047008" lon="15.762694729412852"><ele>768.0</ele><time>2026-03-27T08:44:20.999Z</time></trkpt><trkpt lat="40.13112225428431" lon="15.762977905603409"><ele>768.0</ele><time>2026-03-27T08:44:21.999Z</time></trkpt><trkpt lat="40.130957859667994" lon="15.76327905709535"><ele>768.0</ele><time>2026-03-27T08:44:22.999Z</time></trkpt><trkpt lat="40.130807350304686" lon="15.763591157271833"><ele>759.0</ele><time>2026-03-27T08:44:23.999Z</time></trkpt><trkpt lat="40.130678055353165" lon="15.76391833372231"><ele>750.0</ele><time>2026-03-27T08:44:24.999Z</time></trkpt><trkpt lat="40.130565067793896" lon="15.764258805290543"><ele>755.5</ele><time>2026-03-27T08:44:25.999Z</time></trkpt><trkpt lat="40.130472538379905" lon="15.76461333880323"><ele>761.0</ele><time>2026-03-27T08:44:26.999Z</time></trkpt><trkpt lat="40.130392846520216" lon="15.764972954894866"><ele>767.5</ele><time>2026-03-27T08:44:27.999Z</time></trkpt><trkpt lat="40.130314198659114" lon="15.765337350045899"><ele>774.0</ele><time>2026-03-27T08:44:28.999Z</time></trkpt><trkpt lat="40.13023542667199" lon="15.765705430550074"><ele>780.5</ele><time>2026-03-27T08:44:29.999Z</time></trkpt><trkpt lat="40.13015425805007" lon="15.766076861009937"><ele>787.0</ele><time>2026-03-27T08:44:31Z</time></trkpt><trkpt lat="40.13007390863205" lon="15.766448270250843"><ele>787.0</ele><time>2026-03-27T08:44:32Z</time></trkpt><trkpt lat="40.129995081500546" lon="15.766816858092017"><ele>787.0</ele><time>2026-03-27T08:44:33Z</time></trkpt><trkpt lat="40.12991568252813" lon="15.767184799468112"><ele>782.0</ele><time>2026-03-27T08:44:34Z</time></trkpt><trkpt lat="40.129835542684056" lon="15.767553194020142"><ele>777.0</ele><time>2026-03-27T08:44:35Z</time></trkpt><trkpt lat="40.12975642918422" lon="15.767920081848647"><ele>777.0</ele><time>2026-03-27T08:44:36Z</time></trkpt><trkpt lat="40.1296786163328" lon="15.768287313177582"><ele>777.0</ele><time>2026-03-27T08:44:37Z</time></trkpt><trkpt lat="40.12960083021281" lon="15.768651966771571"><ele>783.0</ele><time>2026-03-27T08:44:38Z</time></trkpt><trkpt lat="40.129521849182865" lon="15.769015797908462"><ele>789.0</ele><time>2026-03-27T08:44:39Z</time></trkpt><trkpt lat="40.12944418519338" lon="15.769377804053514"><ele>796.5</ele><time>2026-03-27T08:44:40Z</time></trkpt><trkpt lat="40.129367530417376" lon="15.769737912575987"><ele>804.0</ele><time>2026-03-27T08:44:41Z</time></trkpt><trkpt lat="40.129295294608845" lon="15.770096331055418"><ele>808.0</ele><time>2026-03-27T08:44:42Z</time></trkpt><trkpt lat="40.12922859179726" lon="15.770457664465455"><ele>812.0</ele><time>2026-03-27T08:44:43Z</time></trkpt><trkpt lat="40.129166373468735" lon="15.770818528939273"><ele>812.5</ele><time>2026-03-27T08:44:44Z</time></trkpt><trkpt lat="40.129107079047046" lon="15.771180252351508"><ele>813.0</ele><time>2026-03-27T08:44:45Z</time></trkpt><trkpt lat="40.12904987168361" lon="15.771540820469381"><ele>808.0</ele><time>2026-03-27T08:44:46Z</time></trkpt><trkpt lat="40.12899176084388" lon="15.771897747911842"><ele>803.0</ele><time>2026-03-27T08:44:47Z</time></trkpt><trkpt lat="40.128931734261286" lon="15.772247924196543"><ele>803.0</ele><time>2026-03-27T08:44:48Z</time></trkpt><trkpt lat="40.128862229311856" lon="15.77258888066501"><ele>803.0</ele><time>2026-03-27T08:44:49Z</time></trkpt><trkpt lat="40.1287760252235" lon="15.772916144633427"><ele>800.5</ele><time>2026-03-27T08:44:50Z</time></trkpt><trkpt lat="40.128664211940524" lon="15.773228550942292"><ele>798.0</ele><time>2026-03-27T08:44:51Z</time></trkpt><trkpt lat="40.12853800283863" lon="15.773532783287992"><ele>798.0</ele><time>2026-03-27T08:44:52Z</time></trkpt><trkpt lat="40.128394518031556" lon="15.773825334723597"><ele>798.0</ele><time>2026-03-27T08:44:53Z</time></trkpt><trkpt lat="40.12823734527824" lon="15.774106171865137"><ele>783.0</ele><time>2026-03-27T08:44:54Z</time></trkpt><trkpt lat="40.128069610022635" lon="15.774376578117497"><ele>768.0</ele><time>2026-03-27T08:44:55Z</time></trkpt><trkpt lat="40.12789598116462" lon="15.774644357381316"><ele>768.0</ele><time>2026-03-27T08:44:56Z</time></trkpt><trkpt lat="40.12772205355986" lon="15.774909598106305"><ele>768.0</ele><time>2026-03-27T08:44:57Z</time></trkpt><trkpt lat="40.12754866498959" lon="15.7751806370998"><ele>784.5</ele><time>2026-03-27T08:44:58Z</time></trkpt><trkpt lat="40.12737523524558" lon="15.775454339156333"><ele>801.0</ele><time>2026-03-27T08:44:59Z</time></trkpt><trkpt lat="40.127200872978655" lon="15.77573503427788"><ele>809.5</ele><time>2026-03-27T08:45:00Z</time></trkpt><trkpt lat="40.127025595708936" lon="15.776020426998253"><ele>818.0</ele><time>2026-03-27T08:45:01Z</time></trkpt><trkpt lat="40.12684772833046" lon="15.776307837372869"><ele>818.0</ele><time>2026-03-27T08:45:02Z</time></trkpt><trkpt lat="40.12666609687646" lon="15.776595297501615"><ele>818.0</ele><time>2026-03-27T08:45:03Z</time></trkpt><trkpt lat="40.12648215029997" lon="15.776888453638128"><ele>817.0</ele><time>2026-03-27T08:45:04Z</time></trkpt><trkpt lat="40.12629384680601" lon="15.777187792818921"><ele>816.0</ele><time>2026-03-27T08:45:05Z</time></trkpt><trkpt lat="40.126101862469675" lon="15.777488229516457"><ele>813.0</ele><time>2026-03-27T08:45:06Z</time></trkpt><trkpt lat="40.12590837210047" lon="15.777791494414652"><ele>810.0</ele><time>2026-03-27T08:45:07Z</time></trkpt><trkpt lat="40.125714829708485" lon="15.778099300050972"><ele>794.0</ele><time>2026-03-27T08:45:08Z</time></trkpt><trkpt lat="40.12552043372184" lon="15.77841255611812"><ele>778.0</ele><time>2026-03-27T08:45:09Z</time></trkpt><trkpt lat="40.125320106880885" lon="15.778722594303641"><ele>778.0</ele><time>2026-03-27T08:45:10Z</time></trkpt><trkpt lat="40.1251307374345" lon="15.779026536480211"><ele>778.0</ele><time>2026-03-27T08:45:11Z</time></trkpt><trkpt lat="40.124931238758634" lon="15.779327076614639"><ele>774.0</ele><time>2026-03-27T08:45:12Z</time></trkpt><trkpt lat="40.12473512829695" lon="15.779631842715302"><ele>770.0</ele><time>2026-03-27T08:45:13Z</time></trkpt><trkpt lat="40.124542213170805" lon="15.779933339858212"><ele>778.5</ele><time>2026-03-27T08:45:14Z</time></trkpt><trkpt lat="40.124349858946154" lon="15.78023473886407"><ele>787.0</ele><time>2026-03-27T08:45:15Z</time></trkpt><trkpt lat="40.124158463085955" lon="15.780535281459256"><ele>790.0</ele><time>2026-03-27T08:45:16Z</time></trkpt><trkpt lat="40.12396710131636" lon="15.780833635191629"><ele>793.0</ele><time>2026-03-27T08:45:17Z</time></trkpt><trkpt lat="40.12377619542784" lon="15.781129740154881"><ele>793.0</ele><time>2026-03-27T08:45:18Z</time></trkpt><trkpt lat="40.12358253228613" lon="15.781420665634574"><ele>793.0</ele><time>2026-03-27T08:45:19Z</time></trkpt><trkpt lat="40.12338483354994" lon="15.78170685889675"><ele>797.0</ele><time>2026-03-27T08:45:20Z</time></trkpt><trkpt lat="40.123180954925935" lon="15.781984071507077"><ele>801.0</ele><time>2026-03-27T08:45:21Z</time></trkpt><trkpt lat="40.122971452099776" lon="15.782252307283283"><ele>801.0</ele><time>2026-03-27T08:45:22Z</time></trkpt><trkpt lat="40.122753939454064" lon="15.78250541548427"><ele>801.0</ele><time>2026-03-27T08:45:23Z</time></trkpt><trkpt lat="40.12252770024262" lon="15.782742836408515"><ele>800.5</ele><time>2026-03-27T08:45:24Z</time></trkpt><trkpt lat="40.12229441438109" lon="15.782960263109189"><ele>800.0</ele><time>2026-03-27T08:45:25Z</time></trkpt><trkpt lat="40.12205272452871" lon="15.783157306915317"><ele>800.0</ele><time>2026-03-27T08:45:26Z</time></trkpt><trkpt lat="40.12180320842496" lon="15.783334672600319"><ele>800.0</ele><time>2026-03-27T08:45:26.999Z</time></trkpt><trkpt lat="40.12154933852383" lon="15.783498169757555"><ele>806.0</ele><time>2026-03-27T08:45:27.999Z</time></trkpt><trkpt lat="40.12129313215891" lon="15.783644004132205"><ele>812.0</ele><time>2026-03-27T08:45:28.999Z</time></trkpt><trkpt lat="40.12103432802745" lon="15.783772660134435"><ele>812.0</ele><time>2026-03-27T08:45:29.999Z</time></trkpt><trkpt lat="40.1207709035805" lon="15.783884734735366"><ele>812.0</ele><time>2026-03-27T08:45:30.999Z</time></trkpt><trkpt lat="40.120504603368914" lon="15.783981193020178"><ele>812.0</ele><time>2026-03-27T08:45:31.999Z</time></trkpt><trkpt lat="40.12023309884348" lon="15.78406061163324"><ele>812.0</ele><time>2026-03-27T08:45:32.999Z</time></trkpt><trkpt lat="40.11995880232426" lon="15.784127408327338"><ele>812.0</ele><time>2026-03-27T08:45:33.999Z</time></trkpt><trkpt lat="40.119681876950395" lon="15.784190542933509"><ele>812.0</ele><time>2026-03-27T08:45:34.999Z</time></trkpt><trkpt lat="40.119403881818464" lon="15.784248410269845"><ele>812.0</ele><time>2026-03-27T08:45:35.999Z</time></trkpt><trkpt lat="40.1191233637623" lon="15.784305570372755"><ele>812.0</ele><time>2026-03-27T08:45:36.999Z</time></trkpt><trkpt lat="40.11884130101603" lon="15.784356663773472"><ele>820.5</ele><time>2026-03-27T08:45:37.999Z</time></trkpt><trkpt lat="40.11855682731437" lon="15.784406179895711"><ele>829.0</ele><time>2026-03-27T08:45:38.999Z</time></trkpt><trkpt lat="40.118271140212144" lon="15.78445809154738"><ele>827.0</ele><time>2026-03-27T08:45:39.999Z</time></trkpt><trkpt lat="40.117984502723814" lon="15.784511564994892"><ele>825.0</ele><time>2026-03-27T08:45:40.999Z</time></trkpt><trkpt lat="40.11769749031783" lon="15.784565539439694"><ele>825.0</ele><time>2026-03-27T08:45:41.999Z</time></trkpt><trkpt lat="40.11740941838402" lon="15.784621971213697"><ele>825.0</ele><time>2026-03-27T08:45:42.999Z</time></trkpt><trkpt lat="40.11712216316258" lon="15.784681964644909"><ele>827.5</ele><time>2026-03-27T08:45:43.999Z</time></trkpt><trkpt lat="40.11683463089871" lon="15.78475106215211"><ele>830.0</ele><time>2026-03-27T08:45:44.999Z</time></trkpt><trkpt lat="40.11654634103526" lon="15.784833986999256"><ele>830.0</ele><time>2026-03-27T08:45:45.999Z</time></trkpt><trkpt lat="40.116259244688365" lon="15.784927898959632"><ele>830.0</ele><time>2026-03-27T08:45:46.999Z</time></trkpt><trkpt lat="40.11597563059106" lon="15.785037926308709"><ele>829.5</ele><time>2026-03-27T08:45:47.999Z</time></trkpt><trkpt lat="40.11569510557575" lon="15.785161564637768"><ele>829.0</ele><time>2026-03-27T08:45:48.999Z</time></trkpt><trkpt lat="40.11541767843665" lon="15.785297137001622"><ele>829.0</ele><time>2026-03-27T08:45:49.999Z</time></trkpt><trkpt lat="40.115147252073854" lon="15.785447108406519"><ele>829.0</ele><time>2026-03-27T08:45:50.999Z</time></trkpt><trkpt lat="40.114882069327955" lon="15.785609041632227"><ele>830.0</ele><time>2026-03-27T08:45:51.999Z</time></trkpt><trkpt lat="40.11462524700934" lon="15.785783222540127"><ele>831.0</ele><time>2026-03-27T08:45:52.999Z</time></trkpt><trkpt lat="40.11437350483459" lon="15.785971409608665"><ele>838.5</ele><time>2026-03-27T08:45:53.999Z</time></trkpt><trkpt lat="40.11412848724538" lon="15.786174927016228"><ele>846.0</ele><time>2026-03-27T08:45:54.999Z</time></trkpt><trkpt lat="40.11388884445161" lon="15.786391560375927"><ele>846.0</ele><time>2026-03-27T08:45:55.999Z</time></trkpt><trkpt lat="40.11365536561722" lon="15.78661952021821"><ele>846.0</ele><time>2026-03-27T08:45:56.999Z</time></trkpt><trkpt lat="40.11342901379758" lon="15.786861013018472"><ele>850.5</ele><time>2026-03-27T08:45:57.999Z</time></trkpt><trkpt lat="40.11320634918605" lon="15.7871136206005"><ele>855.0</ele><time>2026-03-27T08:45:58.999Z</time></trkpt><trkpt lat="40.112990426119225" lon="15.787380036991948"><ele>855.0</ele><time>2026-03-27T08:45:59.999Z</time></trkpt><trkpt lat="40.112781955780214" lon="15.787657945224524"><ele>855.0</ele><time>2026-03-27T08:46:00.999Z</time></trkpt><trkpt lat="40.11257996029849" lon="15.787946132269889"><ele>855.5</ele><time>2026-03-27T08:46:01.999Z</time></trkpt><trkpt lat="40.11238500157267" lon="15.788243340595335"><ele>856.0</ele><time>2026-03-27T08:46:02.999Z</time></trkpt><trkpt lat="40.11219547534043" lon="15.788545752419472"><ele>856.5</ele><time>2026-03-27T08:46:03.999Z</time></trkpt><trkpt lat="40.111998700534656" lon="15.788875802306396"><ele>857.0</ele><time>2026-03-27T08:46:05.073Z</time></trkpt><trkpt lat="40.11181804413496" lon="15.789180905146694"><ele>854.5</ele><time>2026-03-27T08:46:06.069Z</time></trkpt><trkpt lat="40.11164116768136" lon="15.789484777617611"><ele>852.0</ele><time>2026-03-27T08:46:07.066Z</time></trkpt><trkpt lat="40.11146681647522" lon="15.789789605769707"><ele>852.0</ele><time>2026-03-27T08:46:08.066Z</time></trkpt><trkpt lat="40.11130316984971" lon="15.790091097097298"><ele>852.0</ele><time>2026-03-27T08:46:09.046Z</time></trkpt><trkpt lat="40.11113516922571" lon="15.790390547119054"><ele>850.0</ele><time>2026-03-27T08:46:10.035Z</time></trkpt><trkpt lat="40.11042370210518" lon="15.791592003689892"><ele>856.5</ele><time>2026-03-27T08:46:13.999Z</time></trkpt><trkpt lat="40.11023950618155" lon="15.791879663262902"><ele>863.0</ele><time>2026-03-27T08:46:14.999Z</time></trkpt><trkpt lat="40.11006445871641" lon="15.792131026704734"><ele>858.0</ele><time>2026-03-27T08:46:15.999Z</time></trkpt><trkpt lat="40.109862573883696" lon="15.792404443800024"><ele>853.0</ele><time>2026-03-27T08:46:16.999Z</time></trkpt><trkpt lat="40.10965901421192" lon="15.792660117789184"><ele>857.0</ele><time>2026-03-27T08:46:17.999Z</time></trkpt><trkpt lat="40.10944064618456" lon="15.792909445006782"><ele>861.0</ele><time>2026-03-27T08:46:18.999Z</time></trkpt><trkpt lat="40.109198188378166" lon="15.793119140933173"><ele>859.5</ele><time>2026-03-27T08:46:19.999Z</time></trkpt><trkpt lat="40.10896210173045" lon="15.793325517766684"><ele>858.0</ele><time>2026-03-27T08:46:20.999Z</time></trkpt><trkpt lat="40.10872012854248" lon="15.79351238544864"><ele>858.0</ele><time>2026-03-27T08:46:21.999Z</time></trkpt><trkpt lat="40.10847402585134" lon="15.793686452284824"><ele>858.0</ele><time>2026-03-27T08:46:22.999Z</time></trkpt><trkpt lat="40.108223968413206" lon="15.793849434668378"><ele>855.0</ele><time>2026-03-27T08:46:23.999Z</time></trkpt><trkpt lat="40.10797361265355" lon="15.794004292042173"><ele>852.0</ele><time>2026-03-27T08:46:24.999Z</time></trkpt><trkpt lat="40.107719894518" lon="15.794155159981365"><ele>852.0</ele><time>2026-03-27T08:46:25.999Z</time></trkpt><trkpt lat="40.107463557668446" lon="15.79430081345004"><ele>852.0</ele><time>2026-03-27T08:46:26.999Z</time></trkpt><trkpt lat="40.10720059064988" lon="15.794443660335109"><ele>860.5</ele><time>2026-03-27T08:46:27.999Z</time></trkpt><trkpt lat="40.106935467009784" lon="15.794580165736898"><ele>869.0</ele><time>2026-03-27T08:46:28.999Z</time></trkpt><trkpt lat="40.10666968496652" lon="15.794713731511516"><ele>870.0</ele><time>2026-03-27T08:46:29.999Z</time></trkpt><trkpt lat="40.10640429076397" lon="15.794845466098739"><ele>871.0</ele><time>2026-03-27T08:46:30.999Z</time></trkpt><trkpt lat="40.10613868001013" lon="15.794978602962724"><ele>871.0</ele><time>2026-03-27T08:46:31.999Z</time></trkpt><trkpt lat="40.105873280119404" lon="15.7951144071778"><ele>871.0</ele><time>2026-03-27T08:46:32.999Z</time></trkpt><trkpt lat="40.10560800037203" lon="15.795257757625045"><ele>873.0</ele><time>2026-03-27T08:46:33.999Z</time></trkpt><trkpt lat="40.10534557283297" lon="15.79541357256176"><ele>875.0</ele><time>2026-03-27T08:46:34.999Z</time></trkpt><trkpt lat="40.10508355077921" lon="15.795584387296987"><ele>873.5</ele><time>2026-03-27T08:46:35.999Z</time></trkpt><trkpt lat="40.1048229024295" lon="15.795766340131896"><ele>872.0</ele><time>2026-03-27T08:46:37Z</time></trkpt><trkpt lat="40.10456599598981" lon="15.795956293572871"><ele>873.5</ele><time>2026-03-27T08:46:38Z</time></trkpt><trkpt lat="40.104310928806655" lon="15.796155056386505"><ele>875.0</ele><time>2026-03-27T08:46:39Z</time></trkpt><trkpt lat="40.10406099843652" lon="15.796359842964407"><ele>875.0</ele><time>2026-03-27T08:46:40Z</time></trkpt><trkpt lat="40.10381436207396" lon="15.796571972750243"><ele>875.0</ele><time>2026-03-27T08:46:41Z</time></trkpt><trkpt lat="40.10357568007846" lon="15.79679584940952"><ele>877.0</ele><time>2026-03-27T08:46:42Z</time></trkpt><trkpt lat="40.10334069701127" lon="15.797032277111553"><ele>879.0</ele><time>2026-03-27T08:46:43Z</time></trkpt><trkpt lat="40.103113996271674" lon="15.797277932649415"><ele>879.0</ele><time>2026-03-27T08:46:44Z</time></trkpt><trkpt lat="40.102895020125665" lon="15.797531059364374"><ele>879.0</ele><time>2026-03-27T08:46:45Z</time></trkpt><trkpt lat="40.10268279132457" lon="15.797793121747938"><ele>885.5</ele><time>2026-03-27T08:46:46Z</time></trkpt><trkpt lat="40.102477915193234" lon="15.798064099418053"><ele>892.0</ele><time>2026-03-27T08:46:47Z</time></trkpt><trkpt lat="40.102279727825994" lon="15.79834239489098"><ele>897.5</ele><time>2026-03-27T08:46:48Z</time></trkpt><trkpt lat="40.1020870410835" lon="15.798627625378318"><ele>903.0</ele><time>2026-03-27T08:46:49Z</time></trkpt><trkpt lat="40.10190147061304" lon="15.798919017605554"><ele>903.0</ele><time>2026-03-27T08:46:50Z</time></trkpt><trkpt lat="40.10172013401089" lon="15.799216072756325"><ele>903.0</ele><time>2026-03-27T08:46:51Z</time></trkpt><trkpt lat="40.10154767071201" lon="15.799516160169961"><ele>900.0</ele><time>2026-03-27T08:46:52Z</time></trkpt><trkpt lat="40.1013791718476" lon="15.799816247964548"><ele>897.0</ele><time>2026-03-27T08:46:53Z</time></trkpt><trkpt lat="40.10121970580327" lon="15.800124165254708"><ele>896.0</ele><time>2026-03-27T08:46:54Z</time></trkpt><trkpt lat="40.101069789465384" lon="15.800439292387322"><ele>895.0</ele><time>2026-03-27T08:46:55Z</time></trkpt><trkpt lat="40.100926233926224" lon="15.800761146889563"><ele>894.0</ele><time>2026-03-27T08:46:56Z</time></trkpt><trkpt lat="40.100786132060975" lon="15.80108530711108"><ele>893.0</ele><time>2026-03-27T08:46:57Z</time></trkpt><trkpt lat="40.10064761270177" lon="15.80140982500291"><ele>888.5</ele><time>2026-03-27T08:46:58Z</time></trkpt><trkpt lat="40.10051188551671" lon="15.801730021373116"><ele>884.0</ele><time>2026-03-27T08:46:59Z</time></trkpt><trkpt lat="40.100375377717384" lon="15.802047377114608"><ele>884.0</ele><time>2026-03-27T08:47:00Z</time></trkpt><trkpt lat="40.10023928525424" lon="15.802365320050008"><ele>884.0</ele><time>2026-03-27T08:47:01Z</time></trkpt><trkpt lat="40.100105428571794" lon="15.802682536824245"><ele>886.5</ele><time>2026-03-27T08:47:02Z</time></trkpt><trkpt lat="40.099973182086394" lon="15.802997995350417"><ele>889.0</ele><time>2026-03-27T08:47:03Z</time></trkpt><trkpt lat="40.099841551205834" lon="15.803312185031013"><ele>903.0</ele><time>2026-03-27T08:47:04Z</time></trkpt><trkpt lat="40.09971184547625" lon="15.803624730975017"><ele>917.0</ele><time>2026-03-27T08:47:05Z</time></trkpt><trkpt lat="40.099581711176654" lon="15.803941384707365"><ele>917.0</ele><time>2026-03-27T08:47:06Z</time></trkpt><trkpt lat="40.0994508735121" lon="15.804259265512433"><ele>917.0</ele><time>2026-03-27T08:47:07Z</time></trkpt><trkpt lat="40.09931712053216" lon="15.804582700392285"><ele>922.5</ele><time>2026-03-27T08:47:08Z</time></trkpt><trkpt lat="40.09917994840574" lon="15.804913470295878"><ele>928.0</ele><time>2026-03-27T08:47:09Z</time></trkpt><trkpt lat="40.0990402474057" lon="15.805249376197043"><ele>928.0</ele><time>2026-03-27T08:47:10Z</time></trkpt><trkpt lat="40.09889943195161" lon="15.80558963304369"><ele>928.0</ele><time>2026-03-27T08:47:11Z</time></trkpt><trkpt lat="40.098748169321226" lon="15.805958024254764"><ele>927.5</ele><time>2026-03-27T08:47:12.07Z</time></trkpt><trkpt lat="40.098606647613735" lon="15.806306567688884"><ele>927.0</ele><time>2026-03-27T08:47:13.066Z</time></trkpt><trkpt lat="40.09846379693929" lon="15.806658882817976"><ele>864.0</ele><time>2026-03-27T08:47:14.065Z</time></trkpt><trkpt lat="40.09701826115844" lon="15.809982025459782"><ele>868.0</ele><time>2026-03-27T08:47:24Z</time></trkpt><trkpt lat="40.09688110136064" lon="15.810322030276701"><ele>872.0</ele><time>2026-03-27T08:47:25Z</time></trkpt><trkpt lat="40.09674792396801" lon="15.810627726599273"><ele>872.0</ele><time>2026-03-27T08:47:26Z</time></trkpt><trkpt lat="40.09660118427771" lon="15.810966529015005"><ele>872.0</ele><time>2026-03-27T08:47:27Z</time></trkpt><trkpt lat="40.09645754118172" lon="15.811313800064239"><ele>871.0</ele><time>2026-03-27T08:47:28Z</time></trkpt><trkpt lat="40.09631096405077" lon="15.811665715866834"><ele>870.0</ele><time>2026-03-27T08:47:29Z</time></trkpt><trkpt lat="40.09616522103211" lon="15.812019355649738"><ele>869.5</ele><time>2026-03-27T08:47:30Z</time></trkpt><trkpt lat="40.09602239798681" lon="15.81237533664522"><ele>869.0</ele><time>2026-03-27T08:47:31Z</time></trkpt><trkpt lat="40.09587721671991" lon="15.81273222852635"><ele>868.0</ele><time>2026-03-27T08:47:31.999Z</time></trkpt><trkpt lat="40.09572870895075" lon="15.81308842413236"><ele>867.0</ele><time>2026-03-27T08:47:32.999Z</time></trkpt><trkpt lat="40.09557747727613" lon="15.81344337523743"><ele>870.0</ele><time>2026-03-27T08:47:33.999Z</time></trkpt><trkpt lat="40.09542635782445" lon="15.813800114595958"><ele>873.0</ele><time>2026-03-27T08:47:34.999Z</time></trkpt><trkpt lat="40.09527333016128" lon="15.814160924692816"><ele>873.5</ele><time>2026-03-27T08:47:35.999Z</time></trkpt><trkpt lat="40.09512043460534" lon="15.81452289951826"><ele>874.0</ele><time>2026-03-27T08:47:36.999Z</time></trkpt><trkpt lat="40.09496899780483" lon="15.814884613622633"><ele>864.5</ele><time>2026-03-27T08:47:37.999Z</time></trkpt><trkpt lat="40.0948211324171" lon="15.815246464223057"><ele>855.0</ele><time>2026-03-27T08:47:38.999Z</time></trkpt><trkpt lat="40.09468542784655" lon="15.81561379519599"><ele>854.5</ele><time>2026-03-27T08:47:39.999Z</time></trkpt><trkpt lat="40.094563066509394" lon="15.81598945466532"><ele>854.0</ele><time>2026-03-27T08:47:40.999Z</time></trkpt><trkpt lat="40.0944480348986" lon="15.816364747211685"><ele>854.0</ele><time>2026-03-27T08:47:41.999Z</time></trkpt><trkpt lat="40.0943347864463" lon="15.816733833643577"><ele>854.0</ele><time>2026-03-27T08:47:42.999Z</time></trkpt><trkpt lat="40.094225274174114" lon="15.817100254348784"><ele>852.5</ele><time>2026-03-27T08:47:43.999Z</time></trkpt><trkpt lat="40.094115913235555" lon="15.817463471035268"><ele>851.0</ele><time>2026-03-27T08:47:44.999Z</time></trkpt><trkpt lat="40.09400336563684" lon="15.817827934240471"><ele>851.0</ele><time>2026-03-27T08:47:45.999Z</time></trkpt><trkpt lat="40.09389560670885" lon="15.818185585994984"><ele>851.0</ele><time>2026-03-27T08:47:46.999Z</time></trkpt><trkpt lat="40.09379124603314" lon="15.818545132049234"><ele>855.5</ele><time>2026-03-27T08:47:47.999Z</time></trkpt><trkpt lat="40.09368920558908" lon="15.818907183516426"><ele>860.0</ele><time>2026-03-27T08:47:48.999Z</time></trkpt><trkpt lat="40.09358779335249" lon="15.819262783766254"><ele>862.5</ele><time>2026-03-27T08:47:49.999Z</time></trkpt><trkpt lat="40.09348483326011" lon="15.819616151455358"><ele>865.0</ele><time>2026-03-27T08:47:50.999Z</time></trkpt><trkpt lat="40.09337993538015" lon="15.819964760117372"><ele>861.0</ele><time>2026-03-27T08:47:51.999Z</time></trkpt><trkpt lat="40.09327482563598" lon="15.820308856944056"><ele>857.0</ele><time>2026-03-27T08:47:52.999Z</time></trkpt><trkpt lat="40.09317223549044" lon="15.820651955664063"><ele>860.0</ele><time>2026-03-27T08:47:53.999Z</time></trkpt><trkpt lat="40.09307564031001" lon="15.820989535437354"><ele>863.0</ele><time>2026-03-27T08:47:54.999Z</time></trkpt><trkpt lat="40.092988759886936" lon="15.82133030454766"><ele>863.0</ele><time>2026-03-27T08:47:55.999Z</time></trkpt><trkpt lat="40.092914225736024" lon="15.821673588649892"><ele>863.0</ele><time>2026-03-27T08:47:56.999Z</time></trkpt><trkpt lat="40.09285352548637" lon="15.822016607415142"><ele>873.5</ele><time>2026-03-27T08:47:57.999Z</time></trkpt><trkpt lat="40.092810794876065" lon="15.822361915958025"><ele>884.0</ele><time>2026-03-27T08:47:58.999Z</time></trkpt><trkpt lat="40.09278496803495" lon="15.822702721640074"><ele>886.5</ele><time>2026-03-27T08:47:59.999Z</time></trkpt><trkpt lat="40.09276993117287" lon="15.823038251814603"><ele>889.0</ele><time>2026-03-27T08:48:00.999Z</time></trkpt><trkpt lat="40.09277193608531" lon="15.82336645059273"><ele>885.5</ele><time>2026-03-27T08:48:01.999Z</time></trkpt><trkpt lat="40.092786572006766" lon="15.823696246561237"><ele>882.0</ele><time>2026-03-27T08:48:02.999Z</time></trkpt><trkpt lat="40.09281246374044" lon="15.824025097258383"><ele>880.0</ele><time>2026-03-27T08:48:03.999Z</time></trkpt><trkpt lat="40.09288061934349" lon="15.824381647422324"><ele>878.0</ele><time>2026-03-27T08:48:04.999Z</time></trkpt><trkpt lat="40.09295747487632" lon="15.824712913272867"><ele>878.0</ele><time>2026-03-27T08:48:05.999Z</time></trkpt><trkpt lat="40.093028391355986" lon="15.825051233336353"><ele>878.0</ele><time>2026-03-27T08:48:06.999Z</time></trkpt><trkpt lat="40.09311220254602" lon="15.825379230704618"><ele>875.0</ele><time>2026-03-27T08:48:07.999Z</time></trkpt><trkpt lat="40.093195129444005" lon="15.825704523356462"><ele>872.0</ele><time>2026-03-27T08:48:08.999Z</time></trkpt><trkpt lat="40.093277641486594" lon="15.826028857178448"><ele>880.5</ele><time>2026-03-27T08:48:09.999Z</time></trkpt><trkpt lat="40.09336110197943" lon="15.826354384945716"><ele>889.0</ele><time>2026-03-27T08:48:10.999Z</time></trkpt><trkpt lat="40.09344165938557" lon="15.826680660174908"><ele>888.0</ele><time>2026-03-27T08:48:11.999Z</time></trkpt><trkpt lat="40.09351878478506" lon="15.827016283960758"><ele>887.0</ele><time>2026-03-27T08:48:12.999Z</time></trkpt><trkpt lat="40.09358670771758" lon="15.827356341468448"><ele>886.5</ele><time>2026-03-27T08:48:13.999Z</time></trkpt><trkpt lat="40.09364533436205" lon="15.827701206470303"><ele>886.0</ele><time>2026-03-27T08:48:14.999Z</time></trkpt><trkpt lat="40.093693206096845" lon="15.828052406981172"><ele>886.0</ele><time>2026-03-27T08:48:15.999Z</time></trkpt><trkpt lat="40.09372632401478" lon="15.828408641064902"><ele>886.0</ele><time>2026-03-27T08:48:16.999Z</time></trkpt><trkpt lat="40.09374730021949" lon="15.828763247649777"><ele>885.0</ele><time>2026-03-27T08:48:17.999Z</time></trkpt><trkpt lat="40.09375203112316" lon="15.829118645792548"><ele>884.0</ele><time>2026-03-27T08:48:18.999Z</time></trkpt><trkpt lat="40.093743542627934" lon="15.82947258156818"><ele>887.0</ele><time>2026-03-27T08:48:19.999Z</time></trkpt><trkpt lat="40.09372242258891" lon="15.829820526432563"><ele>890.0</ele><time>2026-03-27T08:48:20.999Z</time></trkpt><trkpt lat="40.09369015097726" lon="15.830166997857212"><ele>894.0</ele><time>2026-03-27T08:48:21.999Z</time></trkpt><trkpt lat="40.093644280969976" lon="15.830509374963516"><ele>898.0</ele><time>2026-03-27T08:48:22.999Z</time></trkpt><trkpt lat="40.093586777779706" lon="15.830848515601177"><ele>903.5</ele><time>2026-03-27T08:48:23.999Z</time></trkpt><trkpt lat="40.093518013448865" lon="15.831187218030054"><ele>909.0</ele><time>2026-03-27T08:48:24.999Z</time></trkpt><trkpt lat="40.0934341221277" lon="15.831522071649292"><ele>911.0</ele><time>2026-03-27T08:48:25.999Z</time></trkpt><trkpt lat="40.093336624980175" lon="15.83185219102577"><ele>913.0</ele><time>2026-03-27T08:48:26.999Z</time></trkpt><trkpt lat="40.09322416366178" lon="15.83217520957666"><ele>913.5</ele><time>2026-03-27T08:48:27.999Z</time></trkpt><trkpt lat="40.093097308781935" lon="15.832490788420104"><ele>914.0</ele><time>2026-03-27T08:48:28.999Z</time></trkpt><trkpt lat="40.092956000860184" lon="15.832797417710253"><ele>915.0</ele><time>2026-03-27T08:48:29.999Z</time></trkpt><trkpt lat="40.09280373218165" lon="15.833090914653623"><ele>916.0</ele><time>2026-03-27T08:48:30.999Z</time></trkpt><trkpt lat="40.092644598120415" lon="15.83336608366764"><ele>918.0</ele><time>2026-03-27T08:48:31.999Z</time></trkpt><trkpt lat="40.0924829867592" lon="15.833628290483038"><ele>920.0</ele><time>2026-03-27T08:48:32.999Z</time></trkpt><trkpt lat="40.09231637630817" lon="15.833878474750273"><ele>914.5</ele><time>2026-03-27T08:48:33.999Z</time></trkpt><trkpt lat="40.09214686928708" lon="15.834121158627136"><ele>909.0</ele><time>2026-03-27T08:48:34.999Z</time></trkpt><trkpt lat="40.09197551056402" lon="15.834361804394078"><ele>909.0</ele><time>2026-03-27T08:48:35.999Z</time></trkpt><trkpt lat="40.091801597637804" lon="15.83460022252837"><ele>909.0</ele><time>2026-03-27T08:48:36.999Z</time></trkpt><trkpt lat="40.09162458687051" lon="15.834836902154429"><ele>908.0</ele><time>2026-03-27T08:48:37.999Z</time></trkpt><trkpt lat="40.09144457494128" lon="15.835074018639384"><ele>907.0</ele><time>2026-03-27T08:48:38.999Z</time></trkpt><trkpt lat="40.09126413119012" lon="15.835313442358432"><ele>907.0</ele><time>2026-03-27T08:48:39.999Z</time></trkpt><trkpt lat="40.091083378585665" lon="15.835557964255333"><ele>907.0</ele><time>2026-03-27T08:48:40.999Z</time></trkpt><trkpt lat="40.090902331179585" lon="15.835804165199832"><ele>910.5</ele><time>2026-03-27T08:48:42Z</time></trkpt><trkpt lat="40.09071939671291" lon="15.836051828054176"><ele>914.0</ele><time>2026-03-27T08:48:43Z</time></trkpt><trkpt lat="40.090535943102076" lon="15.836299760937562"><ele>914.0</ele><time>2026-03-27T08:48:44Z</time></trkpt><trkpt lat="40.09035080993819" lon="15.836550362685903"><ele>914.0</ele><time>2026-03-27T08:48:45Z</time></trkpt><trkpt lat="40.090164116235464" lon="15.836804565478467"><ele>917.0</ele><time>2026-03-27T08:48:46Z</time></trkpt><trkpt lat="40.08997348870223" lon="15.83706282475444"><ele>920.0</ele><time>2026-03-27T08:48:47Z</time></trkpt><trkpt lat="40.08978281064631" lon="15.837324590224704"><ele>925.0</ele><time>2026-03-27T08:48:48Z</time></trkpt><trkpt lat="40.089595640650586" lon="15.83758849916499"><ele>930.0</ele><time>2026-03-27T08:48:49Z</time></trkpt><trkpt lat="40.08941250215104" lon="15.837859634036944"><ele>936.5</ele><time>2026-03-27T08:48:50Z</time></trkpt><trkpt lat="40.08923688544572" lon="15.838132536771479"><ele>943.0</ele><time>2026-03-27T08:48:51Z</time></trkpt><trkpt lat="40.08906352823565" lon="15.838404730043457"><ele>946.5</ele><time>2026-03-27T08:48:52Z</time></trkpt><trkpt lat="40.08889110150709" lon="15.838678100290185"><ele>950.0</ele><time>2026-03-27T08:48:53Z</time></trkpt><trkpt lat="40.08872214037459" lon="15.83895680719602"><ele>950.0</ele><time>2026-03-27T08:48:54Z</time></trkpt><trkpt lat="40.08855489817291" lon="15.839240413692563"><ele>950.0</ele><time>2026-03-27T08:48:55Z</time></trkpt><trkpt lat="40.088388408050996" lon="15.83952770693369"><ele>945.5</ele><time>2026-03-27T08:48:56Z</time></trkpt><trkpt lat="40.088225306400645" lon="15.839818381873284"><ele>941.0</ele><time>2026-03-27T08:48:57Z</time></trkpt><trkpt lat="40.08806557231061" lon="15.840112904145807"><ele>946.5</ele><time>2026-03-27T08:48:58Z</time></trkpt><trkpt lat="40.08791063622816" lon="15.840408266998319"><ele>952.0</ele><time>2026-03-27T08:48:59Z</time></trkpt><trkpt lat="40.0877667193426" lon="15.84072088913187"><ele>955.0</ele><time>2026-03-27T08:49:00Z</time></trkpt><trkpt lat="40.08762903752715" lon="15.841058706032051"><ele>958.0</ele><time>2026-03-27T08:49:01Z</time></trkpt><trkpt lat="40.08748889568591" lon="15.841381533427905"><ele>951.0</ele><time>2026-03-27T08:49:02Z</time></trkpt><trkpt lat="40.08734970955408" lon="15.841701157992675"><ele>944.0</ele><time>2026-03-27T08:49:03Z</time></trkpt><trkpt lat="40.08721370291448" lon="15.842020408471273"><ele>943.0</ele><time>2026-03-27T08:49:04Z</time></trkpt><trkpt lat="40.087079933576995" lon="15.842338391737377"><ele>942.0</ele><time>2026-03-27T08:49:05Z</time></trkpt><trkpt lat="40.086948209034034" lon="15.842660862420871"><ele>946.0</ele><time>2026-03-27T08:49:06Z</time></trkpt><trkpt lat="40.0868168679352" lon="15.842987258029488"><ele>950.0</ele><time>2026-03-27T08:49:07Z</time></trkpt><trkpt lat="40.08668569670887" lon="15.843316755222023"><ele>952.0</ele><time>2026-03-27T08:49:08Z</time></trkpt><trkpt lat="40.086554272909346" lon="15.8436462034742"><ele>954.0</ele><time>2026-03-27T08:49:09Z</time></trkpt><trkpt lat="40.086419025313624" lon="15.843976446485557"><ele>952.5</ele><time>2026-03-27T08:49:10Z</time></trkpt><trkpt lat="40.08628200651084" lon="15.844307248565322"><ele>951.0</ele><time>2026-03-27T08:49:11Z</time></trkpt><trkpt lat="40.08614436456162" lon="15.844641147406906"><ele>951.0</ele><time>2026-03-27T08:49:12Z</time></trkpt><trkpt lat="40.086005410393085" lon="15.844976546316952"><ele>951.0</ele><time>2026-03-27T08:49:13Z</time></trkpt><trkpt lat="40.085863347309825" lon="15.845312639231443"><ele>940.5</ele><time>2026-03-27T08:49:14Z</time></trkpt><trkpt lat="40.08572374128853" lon="15.845651153188777"><ele>930.0</ele><time>2026-03-27T08:49:15Z</time></trkpt><trkpt lat="40.085583590075196" lon="15.845993603517154"><ele>928.5</ele><time>2026-03-27T08:49:16Z</time></trkpt><trkpt lat="40.08544427996287" lon="15.846337586522807"><ele>927.0</ele><time>2026-03-27T08:49:17Z</time></trkpt><trkpt lat="40.08530252218174" lon="15.84668669608448"><ele>930.5</ele><time>2026-03-27T08:49:18Z</time></trkpt><trkpt lat="40.085159861094134" lon="15.847037433847147"><ele>934.0</ele><time>2026-03-27T08:49:19Z</time></trkpt><trkpt lat="40.08501661335597" lon="15.847388906807588"><ele>932.5</ele><time>2026-03-27T08:49:20Z</time></trkpt><trkpt lat="40.08487182267636" lon="15.847743261760243"><ele>931.0</ele><time>2026-03-27T08:49:21Z</time></trkpt><trkpt lat="40.084726668270314" lon="15.848100415433372"><ele>931.0</ele><time>2026-03-27T08:49:22Z</time></trkpt><trkpt lat="40.08458124509354" lon="15.848458911270324"><ele>931.0</ele><time>2026-03-27T08:49:23Z</time></trkpt><trkpt lat="40.084435697448946" lon="15.848817170354238"><ele>934.0</ele><time>2026-03-27T08:49:24Z</time></trkpt><trkpt lat="40.084290218512564" lon="15.849177790894293"><ele>937.0</ele><time>2026-03-27T08:49:25Z</time></trkpt><trkpt lat="40.08414045813505" lon="15.849536543653382"><ele>936.5</ele><time>2026-03-27T08:49:26Z</time></trkpt><trkpt lat="40.083983726952525" lon="15.849890515963944"><ele>936.0</ele><time>2026-03-27T08:49:27Z</time></trkpt><trkpt lat="40.08381888620969" lon="15.85023916113939"><ele>937.5</ele><time>2026-03-27T08:49:28Z</time></trkpt><trkpt lat="40.083642453626666" lon="15.85057774908147"><ele>939.0</ele><time>2026-03-27T08:49:29Z</time></trkpt><trkpt lat="40.08345976525341" lon="15.850912070798838"><ele>936.5</ele><time>2026-03-27T08:49:30Z</time></trkpt><trkpt lat="40.083271348102535" lon="15.851243606745197"><ele>934.0</ele><time>2026-03-27T08:49:31Z</time></trkpt><trkpt lat="40.08307673076334" lon="15.85156679191159"><ele>923.0</ele><time>2026-03-27T08:49:32Z</time></trkpt><trkpt lat="40.082878791794975" lon="15.851883318854446"><ele>912.0</ele><time>2026-03-27T08:49:33Z</time></trkpt><trkpt lat="40.082679464057044" lon="15.852197986602137"><ele>912.0</ele><time>2026-03-27T08:49:34Z</time></trkpt><trkpt lat="40.082482094995164" lon="15.852506550820461"><ele>912.0</ele><time>2026-03-27T08:49:35Z</time></trkpt><trkpt lat="40.0822912931994" lon="15.85280080748156"><ele>911.0</ele><time>2026-03-27T08:49:36Z</time></trkpt><trkpt lat="40.0821053141264" lon="15.853083704196923"><ele>910.0</ele><time>2026-03-27T08:49:36.999Z</time></trkpt><trkpt lat="40.08191292381597" lon="15.853358203928488"><ele>910.0</ele><time>2026-03-27T08:49:37.999Z</time></trkpt><trkpt lat="40.08171842116682" lon="15.853625186962962"><ele>910.0</ele><time>2026-03-27T08:49:38.999Z</time></trkpt><trkpt lat="40.08151715153777" lon="15.853882423899433"><ele>904.0</ele><time>2026-03-27T08:49:39.999Z</time></trkpt><trkpt lat="40.08131032006965" lon="15.854122149393922"><ele>898.0</ele><time>2026-03-27T08:49:40.999Z</time></trkpt><trkpt lat="40.08110112096829" lon="15.854342277063855"><ele>898.0</ele><time>2026-03-27T08:49:41.999Z</time></trkpt><trkpt lat="40.080885937596996" lon="15.854544039642873"><ele>898.0</ele><time>2026-03-27T08:49:42.999Z</time></trkpt><trkpt lat="40.08066521158601" lon="15.854731165830911"><ele>894.0</ele><time>2026-03-27T08:49:43.999Z</time></trkpt><trkpt lat="40.08044441215594" lon="15.854906812339253"><ele>890.0</ele><time>2026-03-27T08:49:44.999Z</time></trkpt><trkpt lat="40.08021831310287" lon="15.855064763044833"><ele>895.5</ele><time>2026-03-27T08:49:45.999Z</time></trkpt><trkpt lat="40.07998528428031" lon="15.85520235524619"><ele>901.0</ele><time>2026-03-27T08:49:46.999Z</time></trkpt><trkpt lat="40.07974622001421" lon="15.85532640650538"><ele>901.0</ele><time>2026-03-27T08:49:47.999Z</time></trkpt><trkpt lat="40.07949726842886" lon="15.855437657694868"><ele>901.0</ele><time>2026-03-27T08:49:48.999Z</time></trkpt><trkpt lat="40.07924231709104" lon="15.855542869871375"><ele>900.5</ele><time>2026-03-27T08:49:49.999Z</time></trkpt><trkpt lat="40.07898710519536" lon="15.855650144286182"><ele>900.0</ele><time>2026-03-27T08:49:50.999Z</time></trkpt><trkpt lat="40.07872347335628" lon="15.8557592338163"><ele>900.0</ele><time>2026-03-27T08:49:51.999Z</time></trkpt><trkpt lat="40.078464608257136" lon="15.85586857099281"><ele>900.0</ele><time>2026-03-27T08:49:52.999Z</time></trkpt><trkpt lat="40.078211635617436" lon="15.855976922729237"><ele>900.5</ele><time>2026-03-27T08:49:53.999Z</time></trkpt><trkpt lat="40.07796180441915" lon="15.856090826736285"><ele>901.0</ele><time>2026-03-27T08:49:54.999Z</time></trkpt><trkpt lat="40.077711825589866" lon="15.856215229949935"><ele>901.0</ele><time>2026-03-27T08:49:55.999Z</time></trkpt><trkpt lat="40.07746614168825" lon="15.856356450620604"><ele>901.0</ele><time>2026-03-27T08:49:56.999Z</time></trkpt><trkpt lat="40.077227329086845" lon="15.856508296994756"><ele>897.5</ele><time>2026-03-27T08:49:57.999Z</time></trkpt><trkpt lat="40.07699238523264" lon="15.856671912316873"><ele>894.0</ele><time>2026-03-27T08:49:58.999Z</time></trkpt><trkpt lat="40.07676313719573" lon="15.856849360976234"><ele>889.5</ele><time>2026-03-27T08:49:59.999Z</time></trkpt><trkpt lat="40.07654201824504" lon="15.857041581768536"><ele>885.0</ele><time>2026-03-27T08:50:00.999Z</time></trkpt><trkpt lat="40.07632962413534" lon="15.857249622779737"><ele>885.0</ele><time>2026-03-27T08:50:01.999Z</time></trkpt><trkpt lat="40.07612466621503" lon="15.857469677678955"><ele>885.0</ele><time>2026-03-27T08:50:02.999Z</time></trkpt><trkpt lat="40.07592365643449" lon="15.857696008241486"><ele>877.0</ele><time>2026-03-27T08:50:03.999Z</time></trkpt><trkpt lat="40.07573302029033" lon="15.857939233708759"><ele>869.0</ele><time>2026-03-27T08:50:04.999Z</time></trkpt><trkpt lat="40.07555034382026" lon="15.858195443926059"><ele>863.0</ele><time>2026-03-27T08:50:05.999Z</time></trkpt><trkpt lat="40.07537786913978" lon="15.858464655067834"><ele>857.0</ele><time>2026-03-27T08:50:06.999Z</time></trkpt><trkpt lat="40.075212192829646" lon="15.858745663215778"><ele>857.0</ele><time>2026-03-27T08:50:07.999Z</time></trkpt><trkpt lat="40.07505540211785" lon="15.859038651843646"><ele>857.0</ele><time>2026-03-27T08:50:08.999Z</time></trkpt><trkpt lat="40.07490529099129" lon="15.859339986126336"><ele>851.0</ele><time>2026-03-27T08:50:09.999Z</time></trkpt><trkpt lat="40.07475773706476" lon="15.859647617402016"><ele>845.0</ele><time>2026-03-27T08:50:10.999Z</time></trkpt><trkpt lat="40.07461079139356" lon="15.859960026488347"><ele>846.0</ele><time>2026-03-27T08:50:11.999Z</time></trkpt><trkpt lat="40.07446431345758" lon="15.860276660362663"><ele>847.0</ele><time>2026-03-27T08:50:12.999Z</time></trkpt><trkpt lat="40.07431698268834" lon="15.86059594381051"><ele>847.0</ele><time>2026-03-27T08:50:13.999Z</time></trkpt><trkpt lat="40.074170127058174" lon="15.860916800975817"><ele>847.0</ele><time>2026-03-27T08:50:14.999Z</time></trkpt><trkpt lat="40.074023474093316" lon="15.861238209284867"><ele>849.0</ele><time>2026-03-27T08:50:15.999Z</time></trkpt><trkpt lat="40.073875447465085" lon="15.861560417628018"><ele>851.0</ele><time>2026-03-27T08:50:16.999Z</time></trkpt><trkpt lat="40.07372757693942" lon="15.861883328748746"><ele>854.0</ele><time>2026-03-27T08:50:17.999Z</time></trkpt><trkpt lat="40.07358029025177" lon="15.86220623806755"><ele>857.0</ele><time>2026-03-27T08:50:18.999Z</time></trkpt><trkpt lat="40.07343324708274" lon="15.862528870038673"><ele>859.0</ele><time>2026-03-27T08:50:19.999Z</time></trkpt><trkpt lat="40.07328784322502" lon="15.862850222659867"><ele>861.0</ele><time>2026-03-27T08:50:20.999Z</time></trkpt><trkpt lat="40.07314254264624" lon="15.863173572861374"><ele>856.5</ele><time>2026-03-27T08:50:21.999Z</time></trkpt><trkpt lat="40.07299634882674" lon="15.863495105838455"><ele>852.0</ele><time>2026-03-27T08:50:22.999Z</time></trkpt><trkpt lat="40.072848894326874" lon="15.863813639915348"><ele>852.0</ele><time>2026-03-27T08:50:23.999Z</time></trkpt><trkpt lat="40.07270224255377" lon="15.864127057503556"><ele>852.0</ele><time>2026-03-27T08:50:24.999Z</time></trkpt><trkpt lat="40.07255665674406" lon="15.86443684229777"><ele>854.0</ele><time>2026-03-27T08:50:25.999Z</time></trkpt><trkpt lat="40.07241064003274" lon="15.864745969165318"><ele>856.0</ele><time>2026-03-27T08:50:26.999Z</time></trkpt><trkpt lat="40.07226290730569" lon="15.865051124327772"><ele>859.5</ele><time>2026-03-27T08:50:27.999Z</time></trkpt><trkpt lat="40.07211379018645" lon="15.865344933158257"><ele>863.0</ele><time>2026-03-27T08:50:28.999Z</time></trkpt><trkpt lat="40.07196039592797" lon="15.865629349136757"><ele>863.0</ele><time>2026-03-27T08:50:29.999Z</time></trkpt><trkpt lat="40.071803881288744" lon="15.86590428783993"><ele>863.0</ele><time>2026-03-27T08:50:30.999Z</time></trkpt><trkpt lat="40.071642582127424" lon="15.866173922373894"><ele>860.0</ele><time>2026-03-27T08:50:31.999Z</time></trkpt><trkpt lat="40.07147633035867" lon="15.866434130550505"><ele>857.0</ele><time>2026-03-27T08:50:32.999Z</time></trkpt><trkpt lat="40.071306192508494" lon="15.86668311320716"><ele>861.5</ele><time>2026-03-27T08:50:33.999Z</time></trkpt><trkpt lat="40.07113137984861" lon="15.866918145940897"><ele>866.0</ele><time>2026-03-27T08:50:34.999Z</time></trkpt><trkpt lat="40.07095312708472" lon="15.86713790360304"><ele>862.5</ele><time>2026-03-27T08:50:35.999Z</time></trkpt><trkpt lat="40.07077130632417" lon="15.86734608946303"><ele>859.0</ele><time>2026-03-27T08:50:36.999Z</time></trkpt><trkpt lat="40.070584505922824" lon="15.867547095360926"><ele>864.0</ele><time>2026-03-27T08:50:37.999Z</time></trkpt><trkpt lat="40.07039043700442" lon="15.867740906492307"><ele>869.0</ele><time>2026-03-27T08:50:38.999Z</time></trkpt><trkpt lat="40.07018795759669" lon="15.867927927901516"><ele>869.0</ele><time>2026-03-27T08:50:39.999Z</time></trkpt><trkpt lat="40.069978395051976" lon="15.868109831162574"><ele>869.0</ele><time>2026-03-27T08:50:40.999Z</time></trkpt><trkpt lat="40.06976303782406" lon="15.868285932973215"><ele>876.5</ele><time>2026-03-27T08:50:41.999Z</time></trkpt><trkpt lat="40.06954052196662" lon="15.868454308893304"><ele>884.0</ele><time>2026-03-27T08:50:42.999Z</time></trkpt><trkpt lat="40.06931002839539" lon="15.868613537999073"><ele>883.5</ele><time>2026-03-27T08:50:43.999Z</time></trkpt><trkpt lat="40.0690737683673" lon="15.868762319649516"><ele>883.0</ele><time>2026-03-27T08:50:44.999Z</time></trkpt><trkpt lat="40.06883265701565" lon="15.868902413480619"><ele>883.0</ele><time>2026-03-27T08:50:45.999Z</time></trkpt><trkpt lat="40.06856636393408" lon="15.869041417309456"><ele>883.0</ele><time>2026-03-27T08:50:47.072Z</time></trkpt><trkpt lat="40.068314411384215" lon="15.869161399447098"><ele>881.5</ele><time>2026-03-27T08:50:48.072Z</time></trkpt><trkpt lat="40.06805980069315" lon="15.869269196465279"><ele>880.0</ele><time>2026-03-27T08:50:49.064Z</time></trkpt><trkpt lat="40.06780530381254" lon="15.869359837186515"><ele>884.5</ele><time>2026-03-27T08:50:50.039Z</time></trkpt><trkpt lat="40.067539248278926" lon="15.869428126801964"><ele>889.0</ele><time>2026-03-27T08:50:51.032Z</time></trkpt><trkpt lat="40.06727519106329" lon="15.869489330576315"><ele>1124.0</ele><time>2026-03-27T08:50:52.029Z</time></trkpt><trkpt lat="40.06408643914548" lon="15.869044672545543"><ele>1201.0</ele><time>2026-03-27T08:50:56.226Z</time></trkpt><trkpt lat="40.06295052289522" lon="15.868691849280895"><ele>1264.0</ele><time>2026-03-27T08:50:57.223Z</time></trkpt><trkpt lat="40.06180933490361" lon="15.868342657556639"><ele>1193.0</ele><time>2026-03-27T08:50:58.224Z</time></trkpt><trkpt lat="40.060667115985574" lon="15.868009224371756"><ele>1138.0</ele><time>2026-03-27T08:50:59.224Z</time></trkpt><trkpt lat="40.05952215499958" lon="15.867681315647742"><ele>1088.0</ele><time>2026-03-27T08:51:00.226Z</time></trkpt><trkpt lat="40.05837994239584" lon="15.86734692824482"><ele>1003.0</ele><time>2026-03-27T08:51:01.226Z</time></trkpt><trkpt lat="40.0572413617455" lon="15.867007018443855"><ele>962.0</ele><time>2026-03-27T08:51:02.223Z</time></trkpt><trkpt lat="40.056099686136406" lon="15.866666184679524"><ele>932.0</ele><time>2026-03-27T08:51:03.224Z</time></trkpt><trkpt lat="40.05496056976507" lon="15.866327517052994"><ele>901.0</ele><time>2026-03-27T08:51:04.222Z</time></trkpt><trkpt lat="40.05380778587228" lon="15.866029852690199"><ele>885.0</ele><time>2026-03-27T08:51:05.226Z</time></trkpt><trkpt lat="40.05265022177568" lon="15.865830385075942"><ele>898.0</ele><time>2026-03-27T08:51:06.223Z</time></trkpt><trkpt lat="40.05148107084302" lon="15.865754151278091"><ele>894.0</ele><time>2026-03-27T08:51:07.224Z</time></trkpt><trkpt lat="40.05031434108264" lon="15.86579600134641"><ele>915.0</ele><time>2026-03-27T08:51:08.221Z</time></trkpt><trkpt lat="40.049147348950676" lon="15.865963871648592"><ele>900.0</ele><time>2026-03-27T08:51:09.224Z</time></trkpt><trkpt lat="40.04799935074262" lon="15.866250073747086"><ele>892.0</ele><time>2026-03-27T08:51:10.223Z</time></trkpt><trkpt lat="40.046869236800966" lon="15.866662470621984"><ele>885.0</ele><time>2026-03-27T08:51:11.226Z</time></trkpt><trkpt lat="40.045773238187024" lon="15.867187790846973"><ele>875.0</ele><time>2026-03-27T08:51:12.224Z</time></trkpt><trkpt lat="40.04470844699639" lon="15.867827519805855"><ele>840.0</ele><time>2026-03-27T08:51:13.225Z</time></trkpt><trkpt lat="40.04368845633171" lon="15.868575207897864"><ele>850.0</ele><time>2026-03-27T08:51:14.226Z</time></trkpt><trkpt lat="40.04269769443367" lon="15.869386590071407"><ele>843.0</ele><time>2026-03-27T08:51:15.226Z</time></trkpt><trkpt lat="40.04171449760822" lon="15.87021334447055"><ele>801.0</ele><time>2026-03-27T08:51:16.225Z</time></trkpt><trkpt lat="40.04070539424376" lon="15.870985371113571"><ele>789.0</ele><time>2026-03-27T08:51:17.225Z</time></trkpt><trkpt lat="40.039656821616916" lon="15.871662571092592"><ele>794.0</ele><time>2026-03-27T08:51:18.225Z</time></trkpt><trkpt lat="40.03856907865318" lon="15.872226886324833"><ele>718.0</ele><time>2026-03-27T08:51:19.226Z</time></trkpt><trkpt lat="40.03699409971169" lon="15.872947887597823"><ele>718.0</ele><time>2026-03-27T08:52:31.997Z</time></trkpt><trkpt lat="40.0367207975013" lon="15.873122548260879"><ele>718.0</ele><time>2026-03-27T08:52:32.997Z</time></trkpt><trkpt lat="40.036431361495694" lon="15.873257031303075"><ele>720.5</ele><time>2026-03-27T08:52:33.997Z</time></trkpt><trkpt lat="40.03614888536086" lon="15.873396947270082"><ele>723.0</ele><time>2026-03-27T08:52:34.997Z</time></trkpt><trkpt lat="40.035865148041786" lon="15.873535481102858"><ele>729.5</ele><time>2026-03-27T08:52:35.997Z</time></trkpt><trkpt lat="40.035578731988956" lon="15.873664621215323"><ele>736.0</ele><time>2026-03-27T08:52:36.997Z</time></trkpt><trkpt lat="40.03529028102108" lon="15.873776647855685"><ele>736.0</ele><time>2026-03-27T08:52:38Z</time></trkpt><trkpt lat="40.035000055172546" lon="15.873886564219863"><ele>736.0</ele><time>2026-03-27T08:52:39Z</time></trkpt><trkpt lat="40.034708227037854" lon="15.87397997989775"><ele>745.5</ele><time>2026-03-27T08:52:40Z</time></trkpt><trkpt lat="40.03441406491139" lon="15.874063176554198"><ele>755.0</ele><time>2026-03-27T08:52:41Z</time></trkpt><trkpt lat="40.03411782403116" lon="15.874133080304151"><ele>761.0</ele><time>2026-03-27T08:52:42Z</time></trkpt><trkpt lat="40.033818525500934" lon="15.874196428553676"><ele>767.0</ele><time>2026-03-27T08:52:43Z</time></trkpt><trkpt lat="40.03351693677633" lon="15.874252254025828"><ele>781.5</ele><time>2026-03-27T08:52:44Z</time></trkpt><trkpt lat="40.03321566119046" lon="15.874300102620932"><ele>796.0</ele><time>2026-03-27T08:52:45Z</time></trkpt><trkpt lat="40.03291408013366" lon="15.874341854517995"><ele>796.0</ele><time>2026-03-27T08:52:46Z</time></trkpt><trkpt lat="40.03261177297193" lon="15.874372839400687"><ele>796.0</ele><time>2026-03-27T08:52:47Z</time></trkpt><trkpt lat="40.03230822511633" lon="15.874393457017808"><ele>790.0</ele><time>2026-03-27T08:52:48Z</time></trkpt><trkpt lat="40.03200559729942" lon="15.874413953181481"><ele>784.0</ele><time>2026-03-27T08:52:49Z</time></trkpt><trkpt lat="40.03170378264585" lon="15.874434834672456"><ele>778.5</ele><time>2026-03-27T08:52:50Z</time></trkpt><trkpt lat="40.03140130418191" lon="15.874455201467224"><ele>773.0</ele><time>2026-03-27T08:52:51Z</time></trkpt><trkpt lat="40.03110128357687" lon="15.874499259475607"><ele>777.0</ele><time>2026-03-27T08:52:52Z</time></trkpt><trkpt lat="40.030805139691765" lon="15.874566622431502"><ele>781.0</ele><time>2026-03-27T08:52:53Z</time></trkpt><trkpt lat="40.03051010650955" lon="15.874641587403003"><ele>781.0</ele><time>2026-03-27T08:52:54Z</time></trkpt><trkpt lat="40.030214642446154" lon="15.874727786569085"><ele>781.0</ele><time>2026-03-27T08:52:55Z</time></trkpt><trkpt lat="40.02991979557438" lon="15.874825777082238"><ele>772.5</ele><time>2026-03-27T08:52:56Z</time></trkpt><trkpt lat="40.0296273577926" lon="15.874938744652741"><ele>764.0</ele><time>2026-03-27T08:52:57Z</time></trkpt><trkpt lat="40.029337227771904" lon="15.875065593384535"><ele>760.5</ele><time>2026-03-27T08:52:58Z</time></trkpt><trkpt lat="40.02904966118238" lon="15.875206681458113"><ele>757.0</ele><time>2026-03-27T08:52:59Z</time></trkpt><trkpt lat="40.028764753218965" lon="15.875359680840612"><ele>757.0</ele><time>2026-03-27T08:53:00Z</time></trkpt><trkpt lat="40.02847216309037" lon="15.87550883514465"><ele>757.0</ele><time>2026-03-27T08:53:01Z</time></trkpt><trkpt lat="40.02821609533287" lon="15.875690555909562"><ele>757.0</ele><time>2026-03-27T08:53:02Z</time></trkpt><trkpt lat="40.0279421406152" lon="15.875866404244649"><ele>757.0</ele><time>2026-03-27T08:53:03Z</time></trkpt><trkpt lat="40.02766823294445" lon="15.87604402140314"><ele>750.0</ele><time>2026-03-27T08:53:04Z</time></trkpt><trkpt lat="40.027402384134845" lon="15.876215108398373"><ele>743.0</ele><time>2026-03-27T08:53:05Z</time></trkpt><trkpt lat="40.027139977103765" lon="15.876384363455438"><ele>743.0</ele><time>2026-03-27T08:53:06Z</time></trkpt><trkpt lat="40.02686961610874" lon="15.876551544049526"><ele>743.0</ele><time>2026-03-27T08:53:07Z</time></trkpt><trkpt lat="40.026605038847364" lon="15.876723249176761"><ele>742.5</ele><time>2026-03-27T08:53:08Z</time></trkpt><trkpt lat="40.02634111173131" lon="15.876887811738989"><ele>742.0</ele><time>2026-03-27T08:53:09Z</time></trkpt><trkpt lat="40.026074899095796" lon="15.877049187276901"><ele>739.5</ele><time>2026-03-27T08:53:10Z</time></trkpt><trkpt lat="40.025805553101925" lon="15.87721170640109"><ele>737.0</ele><time>2026-03-27T08:53:11Z</time></trkpt><trkpt lat="40.025549395010465" lon="15.877359062858915"><ele>737.0</ele><time>2026-03-27T08:53:12Z</time></trkpt><trkpt lat="40.02528878539092" lon="15.877522622160962"><ele>737.0</ele><time>2026-03-27T08:53:13Z</time></trkpt><trkpt lat="40.02502719214554" lon="15.877687193504146"><ele>743.5</ele><time>2026-03-27T08:53:14Z</time></trkpt><trkpt lat="40.02476533517872" lon="15.877850493923846"><ele>750.0</ele><time>2026-03-27T08:53:15Z</time></trkpt><trkpt lat="40.02449907589532" lon="15.878004288583128"><ele>750.0</ele><time>2026-03-27T08:53:16Z</time></trkpt><trkpt lat="40.02423175498274" lon="15.878161559622805"><ele>750.0</ele><time>2026-03-27T08:53:17Z</time></trkpt><trkpt lat="40.02396133473452" lon="15.878316645817563"><ele>758.5</ele><time>2026-03-27T08:53:18Z</time></trkpt><trkpt lat="40.0236901555901" lon="15.878471685171068"><ele>767.0</ele><time>2026-03-27T08:53:19Z</time></trkpt><trkpt lat="40.023423227469955" lon="15.878633297474238"><ele>770.5</ele><time>2026-03-27T08:53:20Z</time></trkpt><trkpt lat="40.02315481515388" lon="15.878798953972833"><ele>774.0</ele><time>2026-03-27T08:53:21Z</time></trkpt><trkpt lat="40.022888024345036" lon="15.878968200440552"><ele>774.0</ele><time>2026-03-27T08:53:22Z</time></trkpt><trkpt lat="40.02262623648163" lon="15.879147259462584"><ele>774.0</ele><time>2026-03-27T08:53:23Z</time></trkpt><trkpt lat="40.022368409252394" lon="15.879334463712798"><ele>763.0</ele><time>2026-03-27T08:53:24Z</time></trkpt><trkpt lat="40.02212027931924" lon="15.879540774673726"><ele>752.0</ele><time>2026-03-27T08:53:25Z</time></trkpt><trkpt lat="40.02186663260228" lon="15.87977476768902"><ele>746.5</ele><time>2026-03-27T08:53:26.062Z</time></trkpt><trkpt lat="40.02164463019458" lon="15.880020964572182"><ele>741.0</ele><time>2026-03-27T08:53:27.064Z</time></trkpt><trkpt lat="40.02118772710761" lon="15.880519263491557"><ele>740.0</ele><time>2026-03-27T08:53:29Z</time></trkpt><trkpt lat="40.020963656943906" lon="15.88085581009238"><ele>739.0</ele><time>2026-03-27T08:53:30Z</time></trkpt><trkpt lat="40.02080072032163" lon="15.881189883823675"><ele>737.0</ele><time>2026-03-27T08:53:31Z</time></trkpt><trkpt lat="40.02062985725504" lon="15.881521309179085"><ele>735.0</ele><time>2026-03-27T08:53:32Z</time></trkpt><trkpt lat="40.02046884745725" lon="15.881859391205278"><ele>734.0</ele><time>2026-03-27T08:53:33Z</time></trkpt><trkpt lat="40.020314934625304" lon="15.882195773174933"><ele>733.0</ele><time>2026-03-27T08:53:33.999Z</time></trkpt><trkpt lat="40.02016831514357" lon="15.882540753865399"><ele>732.5</ele><time>2026-03-27T08:53:34.999Z</time></trkpt><trkpt lat="40.02002444088625" lon="15.88288359350598"><ele>732.0</ele><time>2026-03-27T08:53:35.999Z</time></trkpt><trkpt lat="40.01988362257356" lon="15.883231053006183"><ele>732.0</ele><time>2026-03-27T08:53:36.999Z</time></trkpt><trkpt lat="40.0197411821257" lon="15.883576891046351"><ele>732.0</ele><time>2026-03-27T08:53:37.999Z</time></trkpt><trkpt lat="40.01959700108329" lon="15.883920430234333"><ele>733.0</ele><time>2026-03-27T08:53:38.999Z</time></trkpt><trkpt lat="40.019453590231215" lon="15.88426334164126"><ele>734.0</ele><time>2026-03-27T08:53:39.999Z</time></trkpt><trkpt lat="40.019310667599775" lon="15.884604654030678"><ele>734.0</ele><time>2026-03-27T08:53:40.999Z</time></trkpt><trkpt lat="40.01916613548351" lon="15.884944592266761"><ele>734.0</ele><time>2026-03-27T08:53:41.999Z</time></trkpt><trkpt lat="40.01902441969828" lon="15.885285021887562"><ele>731.0</ele><time>2026-03-27T08:53:42.999Z</time></trkpt><trkpt lat="40.01888065579951" lon="15.88562692351364"><ele>728.0</ele><time>2026-03-27T08:53:43.999Z</time></trkpt><trkpt lat="40.01874129385625" lon="15.885970392631837"><ele>727.0</ele><time>2026-03-27T08:53:44.999Z</time></trkpt><trkpt lat="40.01859840918664" lon="15.886315287463198"><ele>726.0</ele><time>2026-03-27T08:53:45.999Z</time></trkpt><trkpt lat="40.018453451935514" lon="15.88665988142943"><ele>725.5</ele><time>2026-03-27T08:53:46.999Z</time></trkpt><trkpt lat="40.018309038719636" lon="15.887004861984902"><ele>725.0</ele><time>2026-03-27T08:53:47.999Z</time></trkpt><trkpt lat="40.01816637248536" lon="15.887352737979135"><ele>725.5</ele><time>2026-03-27T08:53:48.999Z</time></trkpt><trkpt lat="40.01803323560536" lon="15.887710029299688"><ele>726.0</ele><time>2026-03-27T08:53:49.999Z</time></trkpt><trkpt lat="40.01791051711925" lon="15.888075083879293"><ele>725.0</ele><time>2026-03-27T08:53:50.999Z</time></trkpt><trkpt lat="40.01779556891961" lon="15.888444468111283"><ele>724.0</ele><time>2026-03-27T08:53:51.999Z</time></trkpt><trkpt lat="40.01769148687138" lon="15.888819290559404"><ele>724.0</ele><time>2026-03-27T08:53:52.999Z</time></trkpt><trkpt lat="40.017590699131546" lon="15.889194794165904"><ele>724.0</ele><time>2026-03-27T08:53:53.999Z</time></trkpt><trkpt lat="40.01749189702514" lon="15.88956897334658"><ele>724.5</ele><time>2026-03-27T08:53:54.999Z</time></trkpt><trkpt lat="40.01739168422731" lon="15.889942280340906"><ele>725.0</ele><time>2026-03-27T08:53:55.999Z</time></trkpt><trkpt lat="40.01728861480516" lon="15.890313746736188"><ele>725.0</ele><time>2026-03-27T08:53:56.999Z</time></trkpt><trkpt lat="40.017177680357996" lon="15.890680349363677"><ele>725.0</ele><time>2026-03-27T08:53:57.999Z</time></trkpt><trkpt lat="40.0170527866018" lon="15.891037841196406"><ele>725.5</ele><time>2026-03-27T08:53:58.999Z</time></trkpt><trkpt lat="40.01691569767386" lon="15.891388113932473"><ele>726.0</ele><time>2026-03-27T08:53:59.999Z</time></trkpt><trkpt lat="40.016766134788405" lon="15.891729196053893"><ele>727.0</ele><time>2026-03-27T08:54:00.999Z</time></trkpt><trkpt lat="40.01660866843679" lon="15.892061137337425"><ele>728.0</ele><time>2026-03-27T08:54:01.999Z</time></trkpt><trkpt lat="40.016441567642005" lon="15.892383929193153"><ele>727.5</ele><time>2026-03-27T08:54:02.999Z</time></trkpt><trkpt lat="40.01627059570333" lon="15.892704545320418"><ele>727.0</ele><time>2026-03-27T08:54:03.999Z</time></trkpt><trkpt lat="40.016100542346166" lon="15.893026216123232"><ele>727.0</ele><time>2026-03-27T08:54:04.999Z</time></trkpt><trkpt lat="40.0159305417632" lon="15.893347922415812"><ele>727.0</ele><time>2026-03-27T08:54:05.999Z</time></trkpt><trkpt lat="40.015761351084805" lon="15.89367059158196"><ele>728.5</ele><time>2026-03-27T08:54:06.999Z</time></trkpt><trkpt lat="40.01559079610042" lon="15.893995343252797"><ele>730.0</ele><time>2026-03-27T08:54:07.999Z</time></trkpt><trkpt lat="40.01541852597149" lon="15.894320536191515"><ele>730.0</ele><time>2026-03-27T08:54:08.999Z</time></trkpt><trkpt lat="40.015244722992755" lon="15.894646186447941"><ele>730.0</ele><time>2026-03-27T08:54:09.999Z</time></trkpt><trkpt lat="40.015070632476814" lon="15.894974802155637"><ele>726.5</ele><time>2026-03-27T08:54:10.999Z</time></trkpt><trkpt lat="40.01489781558734" lon="15.895309242505633"><ele>723.0</ele><time>2026-03-27T08:54:11.999Z</time></trkpt><trkpt lat="40.014724322631714" lon="15.895645560057824"><ele>723.5</ele><time>2026-03-27T08:54:12.999Z</time></trkpt><trkpt lat="40.01454851802389" lon="15.895982528860708"><ele>724.0</ele><time>2026-03-27T08:54:13.999Z</time></trkpt><trkpt lat="40.0143699518606" lon="15.896317259586697"><ele>724.0</ele><time>2026-03-27T08:54:14.999Z</time></trkpt><trkpt lat="40.01418970997727" lon="15.89665234103501"><ele>724.0</ele><time>2026-03-27T08:54:15.999Z</time></trkpt><trkpt lat="40.014008135682985" lon="15.896989075712527"><ele>723.5</ele><time>2026-03-27T08:54:16.999Z</time></trkpt><trkpt lat="40.01382534891554" lon="15.89732438533592"><ele>723.0</ele><time>2026-03-27T08:54:17.999Z</time></trkpt><trkpt lat="40.01364007382566" lon="15.89765499601326"><ele>723.5</ele><time>2026-03-27T08:54:18.999Z</time></trkpt><trkpt lat="40.01345130558092" lon="15.897979242551198"><ele>724.0</ele><time>2026-03-27T08:54:19.999Z</time></trkpt><trkpt lat="40.013257646365325" lon="15.898297832592"><ele>724.0</ele><time>2026-03-27T08:54:20.999Z</time></trkpt><trkpt lat="40.01305873343277" lon="15.898612053877265"><ele>724.0</ele><time>2026-03-27T08:54:21.999Z</time></trkpt><trkpt lat="40.012853768926206" lon="15.89891999955314"><ele>724.0</ele><time>2026-03-27T08:54:22.999Z</time></trkpt><trkpt lat="40.012644032854375" lon="15.899221961046926"><ele>724.0</ele><time>2026-03-27T08:54:23.999Z</time></trkpt><trkpt lat="40.01242796875312" lon="15.899516597064286"><ele>726.5</ele><time>2026-03-27T08:54:24.999Z</time></trkpt><trkpt lat="40.012206794285355" lon="15.89980507721755"><ele>729.0</ele><time>2026-03-27T08:54:25.999Z</time></trkpt><trkpt lat="40.01198059222949" lon="15.900086492437921"><ele>730.0</ele><time>2026-03-27T08:54:26.999Z</time></trkpt><trkpt lat="40.011749598965686" lon="15.900358531149541"><ele>731.0</ele><time>2026-03-27T08:54:27.999Z</time></trkpt><trkpt lat="40.01151232552577" lon="15.900622458135755"><ele>752.5</ele><time>2026-03-27T08:54:28.999Z</time></trkpt><trkpt lat="40.0112735437189" lon="15.900882539956354"><ele>774.0</ele><time>2026-03-27T08:54:29.999Z</time></trkpt><trkpt lat="40.011033319680514" lon="15.901140634597743"><ele>797.0</ele><time>2026-03-27T08:54:30.999Z</time></trkpt><trkpt lat="40.010793523701174" lon="15.901396084323482"><ele>820.0</ele><time>2026-03-27T08:54:31.999Z</time></trkpt><trkpt lat="40.010553926465114" lon="15.901650128583475"><ele>814.5</ele><time>2026-03-27T08:54:32.999Z</time></trkpt><trkpt lat="40.01031513136899" lon="15.901905062144115"><ele>809.0</ele><time>2026-03-27T08:54:33.999Z</time></trkpt><trkpt lat="40.01007890759422" lon="15.9021626612794"><ele>808.5</ele><time>2026-03-27T08:54:34.999Z</time></trkpt><trkpt lat="40.009828903475665" lon="15.902444653073081"><ele>808.0</ele><time>2026-03-27T08:54:36.073Z</time></trkpt><trkpt lat="40.00960382255842" lon="15.90271674974778"><ele>808.0</ele><time>2026-03-27T08:54:37.068Z</time></trkpt><trkpt lat="40.009385484383145" lon="15.903001646931482"><ele>808.0</ele><time>2026-03-27T08:54:38.066Z</time></trkpt><trkpt lat="40.009170121061636" lon="15.903293656368124"><ele>791.5</ele><time>2026-03-27T08:54:39.069Z</time></trkpt><trkpt lat="40.00896166285296" lon="15.90359467283765"><ele>775.0</ele><time>2026-03-27T08:54:40.068Z</time></trkpt><trkpt lat="40.008756479394194" lon="15.903896998449282"><ele>775.0</ele><time>2026-03-27T08:54:41.058Z</time></trkpt><trkpt lat="40.008556557470925" lon="15.904199451818359"><ele>775.0</ele><time>2026-03-27T08:54:42.035Z</time></trkpt><trkpt lat="40.006217104326836" lon="15.908346891008433"><ele>748.0</ele><time>2026-03-27T08:54:54.998Z</time></trkpt><trkpt lat="40.00603075821556" lon="15.908696080492554"><ele>721.0</ele><time>2026-03-27T08:54:55.998Z</time></trkpt><trkpt lat="40.005842339866845" lon="15.909012877387019"><ele>723.0</ele><time>2026-03-27T08:54:56.998Z</time></trkpt><trkpt lat="40.00564834354993" lon="15.909307260630158"><ele>725.0</ele><time>2026-03-27T08:54:57.998Z</time></trkpt><trkpt lat="40.005446585368205" lon="15.909598505527413"><ele>725.0</ele><time>2026-03-27T08:54:58.998Z</time></trkpt><trkpt lat="40.0052427387355" lon="15.909884477664791"><ele>725.0</ele><time>2026-03-27T08:54:59.998Z</time></trkpt><trkpt lat="40.00503461067416" lon="15.910164331739553"><ele>727.0</ele><time>2026-03-27T08:55:01Z</time></trkpt><trkpt lat="40.00482298387676" lon="15.91043488807259"><ele>729.0</ele><time>2026-03-27T08:55:02Z</time></trkpt><trkpt lat="40.00461087613235" lon="15.910700112465817"><ele>728.0</ele><time>2026-03-27T08:55:03Z</time></trkpt><trkpt lat="40.00440127984213" lon="15.910961660748065"><ele>727.0</ele><time>2026-03-27T08:55:04Z</time></trkpt><trkpt lat="40.00419201889761" lon="15.911221777276243"><ele>731.5</ele><time>2026-03-27T08:55:05Z</time></trkpt><trkpt lat="40.003985588128366" lon="15.91148101919757"><ele>736.0</ele><time>2026-03-27T08:55:06Z</time></trkpt><trkpt lat="40.003775625916695" lon="15.911738521004708"><ele>735.0</ele><time>2026-03-27T08:55:07Z</time></trkpt><trkpt lat="40.00356530093412" lon="15.911999118123068"><ele>734.0</ele><time>2026-03-27T08:55:08Z</time></trkpt><trkpt lat="40.00335437496684" lon="15.912264051272384"><ele>736.0</ele><time>2026-03-27T08:55:09Z</time></trkpt><trkpt lat="40.00314156678434" lon="15.912530906159892"><ele>738.0</ele><time>2026-03-27T08:55:10Z</time></trkpt><trkpt lat="40.002927120718304" lon="15.912793260350591"><ele>738.0</ele><time>2026-03-27T08:55:11Z</time></trkpt><trkpt lat="40.00271287695089" lon="15.91305420991619"><ele>738.0</ele><time>2026-03-27T08:55:12Z</time></trkpt><trkpt lat="40.002499822366794" lon="15.913315639780429"><ele>744.5</ele><time>2026-03-27T08:55:13Z</time></trkpt><trkpt lat="40.00228644611693" lon="15.913575275494914"><ele>751.0</ele><time>2026-03-27T08:55:14Z</time></trkpt><trkpt lat="40.00207530009878" lon="15.913834732318097"><ele>751.0</ele><time>2026-03-27T08:55:15Z</time></trkpt><trkpt lat="40.00186881867312" lon="15.914096681772277"><ele>751.0</ele><time>2026-03-27T08:55:16Z</time></trkpt><trkpt lat="40.00167334448217" lon="15.914370717390103"><ele>761.5</ele><time>2026-03-27T08:55:17Z</time></trkpt><trkpt lat="40.00148327876784" lon="15.914653643917148"><ele>772.0</ele><time>2026-03-27T08:55:18Z</time></trkpt><trkpt lat="40.00130150108496" lon="15.914943722119931"><ele>782.0</ele><time>2026-03-27T08:55:19Z</time></trkpt><trkpt lat="40.001120720505284" lon="15.915238904406685"><ele>792.0</ele><time>2026-03-27T08:55:20Z</time></trkpt><trkpt lat="40.000940988913634" lon="15.915536258018555"><ele>798.5</ele><time>2026-03-27T08:55:21Z</time></trkpt><trkpt lat="40.0007570323104" lon="15.915832735982468"><ele>805.0</ele><time>2026-03-27T08:55:22Z</time></trkpt><trkpt lat="40.00057037047856" lon="15.916129083422579"><ele>819.5</ele><time>2026-03-27T08:55:23Z</time></trkpt><trkpt lat="40.00038030346976" lon="15.916431519564265"><ele>834.0</ele><time>2026-03-27T08:55:24Z</time></trkpt><trkpt lat="40.00018924909651" lon="15.916734144961106"><ele>847.0</ele><time>2026-03-27T08:55:25Z</time></trkpt><trkpt lat="39.9999832101589" lon="15.917063143090234"><ele>860.0</ele><time>2026-03-27T08:55:26.07Z</time></trkpt><trkpt lat="39.999792621513606" lon="15.917368014484204"><ele>706.0</ele><time>2026-03-27T08:55:27.061Z</time></trkpt><trkpt lat="39.99212479231256" lon="15.929999698166723"><ele>708.0</ele><time>2026-03-27T08:56:07.999Z</time></trkpt><trkpt lat="39.991948925284554" lon="15.93029109239626"><ele>710.0</ele><time>2026-03-27T08:56:08.999Z</time></trkpt><trkpt lat="39.99177627680891" lon="15.93063869730316"><ele>708.5</ele><time>2026-03-27T08:56:09.999Z</time></trkpt><trkpt lat="39.99161512371603" lon="15.930914333746992"><ele>707.0</ele><time>2026-03-27T08:56:10.999Z</time></trkpt><trkpt lat="39.991396580886125" lon="15.931196273219213"><ele>707.0</ele><time>2026-03-27T08:56:11.999Z</time></trkpt><trkpt lat="39.99119845994212" lon="15.93147944542243"><ele>707.0</ele><time>2026-03-27T08:56:12.999Z</time></trkpt><trkpt lat="39.9909944379745" lon="15.931739124991115"><ele>696.5</ele><time>2026-03-27T08:56:13.999Z</time></trkpt><trkpt lat="39.99078536066562" lon="15.93199335866841"><ele>686.0</ele><time>2026-03-27T08:56:14.999Z</time></trkpt><trkpt lat="39.99056591334882" lon="15.932228098976646"><ele>686.0</ele><time>2026-03-27T08:56:15.999Z</time></trkpt><trkpt lat="39.99033626883134" lon="15.932449248495601"><ele>686.0</ele><time>2026-03-27T08:56:16.999Z</time></trkpt><trkpt lat="39.9900968130126" lon="15.932657316208504"><ele>679.0</ele><time>2026-03-27T08:56:17.999Z</time></trkpt><trkpt lat="39.98985353881332" lon="15.932854671786126"><ele>672.0</ele><time>2026-03-27T08:56:18.999Z</time></trkpt><trkpt lat="39.98960643877755" lon="15.933046764463628"><ele>672.0</ele><time>2026-03-27T08:56:19.999Z</time></trkpt><trkpt lat="39.989353747419194" lon="15.933226992124686"><ele>672.0</ele><time>2026-03-27T08:56:20.999Z</time></trkpt><trkpt lat="39.98909554759856" lon="15.93339048393083"><ele>667.0</ele><time>2026-03-27T08:56:21.999Z</time></trkpt><trkpt lat="39.988834002365415" lon="15.933534843136135"><ele>662.0</ele><time>2026-03-27T08:56:22.999Z</time></trkpt><trkpt lat="39.98856648564304" lon="15.933674785153057"><ele>664.0</ele><time>2026-03-27T08:56:23.999Z</time></trkpt><trkpt lat="39.9882991007688" lon="15.933794353434442"><ele>666.0</ele><time>2026-03-27T08:56:24.999Z</time></trkpt><trkpt lat="39.98802784598916" lon="15.93389533455827"><ele>666.0</ele><time>2026-03-27T08:56:25.999Z</time></trkpt><trkpt lat="39.987754395478326" lon="15.933982553460272"><ele>666.0</ele><time>2026-03-27T08:56:26.999Z</time></trkpt><trkpt lat="39.98747381064859" lon="15.934061236337973"><ele>665.0</ele><time>2026-03-27T08:56:27.999Z</time></trkpt><trkpt lat="39.9872026977011" lon="15.934148194742562"><ele>664.0</ele><time>2026-03-27T08:56:28.999Z</time></trkpt><trkpt lat="39.98691261150689" lon="15.93419626479131"><ele>646.5</ele><time>2026-03-27T08:56:29.999Z</time></trkpt><trkpt lat="39.98662849320073" lon="15.93422807111979"><ele>629.0</ele><time>2026-03-27T08:56:30.999Z</time></trkpt><trkpt lat="39.986338465982264" lon="15.934257807250724"><ele>629.0</ele><time>2026-03-27T08:56:31.999Z</time></trkpt><trkpt lat="39.98604906789331" lon="15.934281844513514"><ele>629.0</ele><time>2026-03-27T08:56:32.999Z</time></trkpt><trkpt lat="39.985762001525664" lon="15.934303735366445"><ele>637.5</ele><time>2026-03-27T08:56:33.999Z</time></trkpt><trkpt lat="39.98546527432906" lon="15.934336073247437"><ele>646.0</ele><time>2026-03-27T08:56:34.999Z</time></trkpt><trkpt lat="39.985160755315114" lon="15.93437025321608"><ele>653.5</ele><time>2026-03-27T08:56:35.999Z</time></trkpt><trkpt lat="39.98486148273425" lon="15.934402019254302"><ele>661.0</ele><time>2026-03-27T08:56:36.999Z</time></trkpt><trkpt lat="39.984556836761655" lon="15.934433056434836"><ele>661.0</ele><time>2026-03-27T08:56:37.999Z</time></trkpt><trkpt lat="39.98425378603997" lon="15.934467615615626"><ele>661.0</ele><time>2026-03-27T08:56:38.999Z</time></trkpt><trkpt lat="39.98394630462701" lon="15.934506155870496"><ele>657.0</ele><time>2026-03-27T08:56:39.999Z</time></trkpt><trkpt lat="39.98363701734774" lon="15.934549423746647"><ele>653.0</ele><time>2026-03-27T08:56:40.999Z</time></trkpt><trkpt lat="39.98332314793531" lon="15.934597203796667"><ele>641.5</ele><time>2026-03-27T08:56:41.999Z</time></trkpt><trkpt lat="39.983011464345736" lon="15.934633691640085"><ele>630.0</ele><time>2026-03-27T08:56:42.999Z</time></trkpt><trkpt lat="39.98269780423952" lon="15.934670045997402"><ele>631.5</ele><time>2026-03-27T08:56:43.999Z</time></trkpt><trkpt lat="39.98239013630998" lon="15.93470226507636"><ele>633.0</ele><time>2026-03-27T08:56:44.999Z</time></trkpt><trkpt lat="39.982074017862736" lon="15.934739916828944"><ele>633.0</ele><time>2026-03-27T08:56:45.999Z</time></trkpt><trkpt lat="39.9817592200188" lon="15.934780422643536"><ele>633.0</ele><time>2026-03-27T08:56:46.999Z</time></trkpt><trkpt lat="39.98144527070912" lon="15.934817486969065"><ele>636.5</ele><time>2026-03-27T08:56:47.999Z</time></trkpt><trkpt lat="39.98113039929601" lon="15.934858834662567"><ele>640.0</ele><time>2026-03-27T08:56:48.999Z</time></trkpt><trkpt lat="39.98081615830394" lon="15.934907110773764"><ele>629.5</ele><time>2026-03-27T08:56:49.999Z</time></trkpt><trkpt lat="39.98050359174222" lon="15.934970004260789"><ele>619.0</ele><time>2026-03-27T08:56:50.999Z</time></trkpt><trkpt lat="39.980191796706215" lon="15.935039333269533"><ele>604.0</ele><time>2026-03-27T08:56:51.999Z</time></trkpt><trkpt lat="39.97987979875574" lon="15.935112621972447"><ele>589.0</ele><time>2026-03-27T08:56:52.999Z</time></trkpt><trkpt lat="39.979569602010045" lon="15.935186504446724"><ele>589.0</ele><time>2026-03-27T08:56:53.999Z</time></trkpt><trkpt lat="39.979259717033955" lon="15.935260018796606"><ele>589.0</ele><time>2026-03-27T08:56:54.999Z</time></trkpt><trkpt lat="39.97895200630156" lon="15.935333983594917"><ele>598.5</ele><time>2026-03-27T08:56:55.999Z</time></trkpt><trkpt lat="39.97864709996094" lon="15.935397907939201"><ele>608.0</ele><time>2026-03-27T08:56:56.999Z</time></trkpt><trkpt lat="39.978340165848586" lon="15.93546849850219"><ele>615.5</ele><time>2026-03-27T08:56:57.999Z</time></trkpt><trkpt lat="39.97803201176263" lon="15.935527949876874"><ele>623.0</ele><time>2026-03-27T08:56:58.999Z</time></trkpt><trkpt lat="39.97772772482863" lon="15.935589861956121"><ele>620.0</ele><time>2026-03-27T08:56:59.999Z</time></trkpt><trkpt lat="39.97742325076857" lon="15.935655061524766"><ele>617.0</ele><time>2026-03-27T08:57:00.999Z</time></trkpt><trkpt lat="39.977118930064215" lon="15.935720827247774"><ele>617.0</ele><time>2026-03-27T08:57:01.999Z</time></trkpt><trkpt lat="39.976820950366594" lon="15.935785508475123"><ele>617.0</ele><time>2026-03-27T08:57:02.999Z</time></trkpt><trkpt lat="39.976537273556445" lon="15.935841086841664"><ele>612.0</ele><time>2026-03-27T08:57:03.999Z</time></trkpt><trkpt lat="39.976266126605466" lon="15.935896459778803"><ele>607.0</ele><time>2026-03-27T08:57:04.999Z</time></trkpt><trkpt lat="39.976004471756006" lon="15.935950081841634"><ele>607.0</ele><time>2026-03-27T08:57:06Z</time></trkpt><trkpt lat="39.97575260108075" lon="15.936003685124318"><ele>607.0</ele><time>2026-03-27T08:57:07Z</time></trkpt><trkpt lat="39.97549839014738" lon="15.936059071441912"><ele>607.0</ele><time>2026-03-27T08:57:08Z</time></trkpt><trkpt lat="39.975240095741" lon="15.936116391032856"><ele>607.0</ele><time>2026-03-27T08:57:09Z</time></trkpt><trkpt lat="39.97498923023954" lon="15.936173103857367"><ele>606.0</ele><time>2026-03-27T08:57:10Z</time></trkpt><trkpt lat="39.97474501303018" lon="15.936226529836755"><ele>605.0</ele><time>2026-03-27T08:57:11Z</time></trkpt><trkpt lat="39.97450819748127" lon="15.93627405595797"><ele>605.0</ele><time>2026-03-27T08:57:12Z</time></trkpt><trkpt lat="39.974271690370195" lon="15.936306028485557"><ele>605.0</ele><time>2026-03-27T08:57:13Z</time></trkpt><trkpt lat="39.97403044001419" lon="15.93631655504703"><ele>601.5</ele><time>2026-03-27T08:57:14Z</time></trkpt><trkpt lat="39.973785147307304" lon="15.936299891886202"><ele>598.0</ele><time>2026-03-27T08:57:15Z</time></trkpt><trkpt lat="39.97354302955001" lon="15.93625918768717"><ele>596.0</ele><time>2026-03-27T08:57:16Z</time></trkpt><trkpt lat="39.97330110560695" lon="15.936195402870627"><ele>594.0</ele><time>2026-03-27T08:57:17Z</time></trkpt><trkpt lat="39.97306726753094" lon="15.936113836974386"><ele>594.0</ele><time>2026-03-27T08:57:18Z</time></trkpt><trkpt lat="39.97284478340022" lon="15.936004397284202"><ele>594.0</ele><time>2026-03-27T08:57:19Z</time></trkpt><trkpt lat="39.97263567386222" lon="15.935872746451716"><ele>594.0</ele><time>2026-03-27T08:57:20Z</time></trkpt><trkpt lat="39.97242933585074" lon="15.935737844008775"><ele>594.0</ele><time>2026-03-27T08:57:21Z</time></trkpt><trkpt lat="39.97222972547487" lon="15.935584610105492"><ele>594.0</ele><time>2026-03-27T08:57:22Z</time></trkpt><trkpt lat="39.97203327513717" lon="15.935413799246206"><ele>594.0</ele><time>2026-03-27T08:57:23Z</time></trkpt><trkpt lat="39.971846104948746" lon="15.935224102730968"><ele>591.0</ele><time>2026-03-27T08:57:24Z</time></trkpt><trkpt lat="39.971664741614205" lon="15.935017240276192"><ele>588.0</ele><time>2026-03-27T08:57:25Z</time></trkpt><trkpt lat="39.97148428369226" lon="15.934803755280049"><ele>588.0</ele><time>2026-03-27T08:57:26Z</time></trkpt><trkpt lat="39.97130618783084" lon="15.934590750712802"><ele>588.0</ele><time>2026-03-27T08:57:27Z</time></trkpt><trkpt lat="39.971135837817556" lon="15.934385132180369"><ele>586.5</ele><time>2026-03-27T08:57:28Z</time></trkpt><trkpt lat="39.97096442613143" lon="15.934182542763883"><ele>585.0</ele><time>2026-03-27T08:57:29Z</time></trkpt><trkpt lat="39.97078956731476" lon="15.933978782413579"><ele>580.0</ele><time>2026-03-27T08:57:30Z</time></trkpt><trkpt lat="39.970617865587926" lon="15.933775893031193"><ele>575.0</ele><time>2026-03-27T08:57:31Z</time></trkpt><trkpt lat="39.97044834091183" lon="15.933582121547081"><ele>575.0</ele><time>2026-03-27T08:57:32Z</time></trkpt><trkpt lat="39.97027387647211" lon="15.933394105967258"><ele>575.0</ele><time>2026-03-27T08:57:33Z</time></trkpt><trkpt lat="39.97008262971956" lon="15.933227048169549"><ele>575.0</ele><time>2026-03-27T08:57:34Z</time></trkpt><trkpt lat="39.96987719873081" lon="15.933075610953448"><ele>575.0</ele><time>2026-03-27T08:57:35Z</time></trkpt><trkpt lat="39.96966408501876" lon="15.932933999406298"><ele>575.0</ele><time>2026-03-27T08:57:36Z</time></trkpt><trkpt lat="39.9694431587709" lon="15.932810152086438"><ele>575.0</ele><time>2026-03-27T08:57:37Z</time></trkpt><trkpt lat="39.969214095573776" lon="15.93270380973449"><ele>571.0</ele><time>2026-03-27T08:57:38Z</time></trkpt><trkpt lat="39.968980972544564" lon="15.932618921716296"><ele>567.0</ele><time>2026-03-27T08:57:39Z</time></trkpt><trkpt lat="39.968753876613576" lon="15.93255675735884"><ele>567.0</ele><time>2026-03-27T08:57:40Z</time></trkpt><trkpt lat="39.96853186768914" lon="15.932520570027611"><ele>567.0</ele><time>2026-03-27T08:57:41Z</time></trkpt><trkpt lat="39.9683118432048" lon="15.93249788825921"><ele>567.0</ele><time>2026-03-27T08:57:42Z</time></trkpt><trkpt lat="39.96809307026255" lon="15.932493996428136"><ele>567.0</ele><time>2026-03-27T08:57:43Z</time></trkpt><trkpt lat="39.96787196013855" lon="15.932502372359199"><ele>567.0</ele><time>2026-03-27T08:57:44Z</time></trkpt><trkpt lat="39.96764299464668" lon="15.932513907154885"><ele>565.5</ele><time>2026-03-27T08:57:45Z</time></trkpt><trkpt lat="39.967404609148886" lon="15.932527551515204"><ele>564.0</ele><time>2026-03-27T08:57:46Z</time></trkpt><trkpt lat="39.967160394424404" lon="15.932547730653942"><ele>562.5</ele><time>2026-03-27T08:57:47Z</time></trkpt><trkpt lat="39.96690812529033" lon="15.932557416207231"><ele>561.0</ele><time>2026-03-27T08:57:48Z</time></trkpt><trkpt lat="39.96664754049328" lon="15.932567495356416"><ele>560.0</ele><time>2026-03-27T08:57:49Z</time></trkpt><trkpt lat="39.96638175207792" lon="15.93257485216064"><ele>559.0</ele><time>2026-03-27T08:57:50Z</time></trkpt><trkpt lat="39.96610808031207" lon="15.932585734443455"><ele>557.5</ele><time>2026-03-27T08:57:51Z</time></trkpt><trkpt lat="39.965831222485875" lon="15.932599140007992"><ele>556.0</ele><time>2026-03-27T08:57:52Z</time></trkpt><trkpt lat="39.96554860389467" lon="15.932611405088359"><ele>556.0</ele><time>2026-03-27T08:57:53Z</time></trkpt><trkpt lat="39.96526586527848" lon="15.932626714278548"><ele>556.0</ele><time>2026-03-27T08:57:54Z</time></trkpt><trkpt lat="39.96498309385468" lon="15.932636688317176"><ele>555.5</ele><time>2026-03-27T08:57:55Z</time></trkpt><trkpt lat="39.964697744012305" lon="15.93264448170579"><ele>555.0</ele><time>2026-03-27T08:57:56Z</time></trkpt><trkpt lat="39.964415662974766" lon="15.93265204152442"><ele>554.0</ele><time>2026-03-27T08:57:57Z</time></trkpt><trkpt lat="39.96414133660998" lon="15.93265404600719"><ele>553.0</ele><time>2026-03-27T08:57:58Z</time></trkpt><trkpt lat="39.96387197578186" lon="15.932662648622747"><ele>553.0</ele><time>2026-03-27T08:57:59Z</time></trkpt><trkpt lat="39.96360108332078" lon="15.9326917848118"><ele>553.0</ele><time>2026-03-27T08:58:00Z</time></trkpt><trkpt lat="39.96333075059829" lon="15.932740094374244"><ele>549.5</ele><time>2026-03-27T08:58:01Z</time></trkpt><trkpt lat="39.96305712724051" lon="15.932800121366421"><ele>546.0</ele><time>2026-03-27T08:58:02Z</time></trkpt><trkpt lat="39.96277963089166" lon="15.932861477345424"><ele>541.0</ele><time>2026-03-27T08:58:03Z</time></trkpt><trkpt lat="39.9624982071117" lon="15.932920471550517"><ele>536.0</ele><time>2026-03-27T08:58:04Z</time></trkpt><trkpt lat="39.96221747843618" lon="15.932969168982828"><ele>536.0</ele><time>2026-03-27T08:58:05Z</time></trkpt><trkpt lat="39.961938380950095" lon="15.933016317885171"><ele>536.0</ele><time>2026-03-27T08:58:06Z</time></trkpt><trkpt lat="39.961659365876436" lon="15.933065164266157"><ele>533.0</ele><time>2026-03-27T08:58:07Z</time></trkpt><trkpt lat="39.9613847960587" lon="15.933117236566172"><ele>530.0</ele><time>2026-03-27T08:58:07.999Z</time></trkpt><trkpt lat="39.96110968596363" lon="15.933181457178604"><ele>526.0</ele><time>2026-03-27T08:58:08.999Z</time></trkpt><trkpt lat="39.96083689297053" lon="15.933256645218602"><ele>522.0</ele><time>2026-03-27T08:58:09.999Z</time></trkpt><trkpt lat="39.96056930256573" lon="15.933341431930245"><ele>515.0</ele><time>2026-03-27T08:58:10.999Z</time></trkpt><trkpt lat="39.96030671450462" lon="15.933432366198948"><ele>508.0</ele><time>2026-03-27T08:58:11.999Z</time></trkpt><trkpt lat="39.960048977517495" lon="15.933530896319263"><ele>497.5</ele><time>2026-03-27T08:58:12.999Z</time></trkpt><trkpt lat="39.95979346898136" lon="15.933641108126203"><ele>487.0</ele><time>2026-03-27T08:58:13.999Z</time></trkpt><trkpt lat="39.95953799784664" lon="15.933761104752895"><ele>487.0</ele><time>2026-03-27T08:58:14.999Z</time></trkpt><trkpt lat="39.959284693370755" lon="15.933894266425591"><ele>487.0</ele><time>2026-03-27T08:58:15.999Z</time></trkpt><trkpt lat="39.959033504936635" lon="15.934042507985676"><ele>475.5</ele><time>2026-03-27T08:58:16.999Z</time></trkpt><trkpt lat="39.95878181510451" lon="15.934196278203778"><ele>464.0</ele><time>2026-03-27T08:58:17.999Z</time></trkpt><trkpt lat="39.95852529199281" lon="15.934345946260267"><ele>445.5</ele><time>2026-03-27T08:58:18.999Z</time></trkpt><trkpt lat="39.958264348806296" lon="15.934494959050118"><ele>427.0</ele><time>2026-03-27T08:58:19.999Z</time></trkpt><trkpt lat="39.958000919953506" lon="15.934644667450785"><ele>427.0</ele><time>2026-03-27T08:58:20.999Z</time></trkpt><trkpt lat="39.95773458993432" lon="15.934796873477811"><ele>427.0</ele><time>2026-03-27T08:58:21.999Z</time></trkpt><trkpt lat="39.95746368836278" lon="15.934947797363623"><ele>419.5</ele><time>2026-03-27T08:58:22.999Z</time></trkpt><trkpt lat="39.95719238518125" lon="15.935098376059658"><ele>412.0</ele><time>2026-03-27T08:58:23.999Z</time></trkpt><trkpt lat="39.95692431016325" lon="15.935248439775085"><ele>432.0</ele><time>2026-03-27T08:58:24.999Z</time></trkpt><trkpt lat="39.95666042472815" lon="15.935406106899439"><ele>452.0</ele><time>2026-03-27T08:58:25.999Z</time></trkpt><trkpt lat="39.95640012181054" lon="15.935572278802361"><ele>452.0</ele><time>2026-03-27T08:58:26.999Z</time></trkpt><trkpt lat="39.95614276559301" lon="15.935740370628956"><ele>452.0</ele><time>2026-03-27T08:58:27.999Z</time></trkpt><trkpt lat="39.95588922271453" lon="15.935917271683962"><ele>483.5</ele><time>2026-03-27T08:58:28.999Z</time></trkpt><trkpt lat="39.9556382369363" lon="15.936101478257402"><ele>515.0</ele><time>2026-03-27T08:58:29.999Z</time></trkpt><trkpt lat="39.95539230559166" lon="15.936293438989715"><ele>515.0</ele><time>2026-03-27T08:58:30.999Z</time></trkpt><trkpt lat="39.9551459146981" lon="15.936492766264632"><ele>515.0</ele><time>2026-03-27T08:58:31.999Z</time></trkpt><trkpt lat="39.95490345001669" lon="15.936698621315637"><ele>521.0</ele><time>2026-03-27T08:58:32.999Z</time></trkpt><trkpt lat="39.95466640857329" lon="15.93691544670876"><ele>527.0</ele><time>2026-03-27T08:58:33.999Z</time></trkpt><trkpt lat="39.95443393185815" lon="15.937140201025066"><ele>527.0</ele><time>2026-03-27T08:58:34.999Z</time></trkpt><trkpt lat="39.95420563759854" lon="15.937372295330686"><ele>527.0</ele><time>2026-03-27T08:58:35.999Z</time></trkpt><trkpt lat="39.95398044495554" lon="15.937610577999184"><ele>539.0</ele><time>2026-03-27T08:58:36.999Z</time></trkpt><trkpt lat="39.95375740110944" lon="15.937858049644904"><ele>551.0</ele><time>2026-03-27T08:58:37.999Z</time></trkpt><trkpt lat="39.953532439062464" lon="15.938109766770735"><ele>565.5</ele><time>2026-03-27T08:58:38.999Z</time></trkpt><trkpt lat="39.95330967193218" lon="15.938347411171039"><ele>580.0</ele><time>2026-03-27T08:58:39.999Z</time></trkpt><trkpt lat="39.95309412920289" lon="15.938589838419439"><ele>582.5</ele><time>2026-03-27T08:58:40.999Z</time></trkpt><trkpt lat="39.95289019418548" lon="15.938852809561864"><ele>585.0</ele><time>2026-03-27T08:58:41.999Z</time></trkpt><trkpt lat="39.952695977714164" lon="15.939124665766288"><ele>601.5</ele><time>2026-03-27T08:58:42.999Z</time></trkpt><trkpt lat="39.952510946253426" lon="15.9394053957837"><ele>618.0</ele><time>2026-03-27T08:58:43.999Z</time></trkpt><trkpt lat="39.95231888305836" lon="15.939708065040552"><ele>618.0</ele><time>2026-03-27T08:58:45.072Z</time></trkpt><trkpt lat="39.95214620011759" lon="15.939989341504095"><ele>618.0</ele><time>2026-03-27T08:58:46.069Z</time></trkpt><trkpt lat="39.9519773487266" lon="15.94028033292921"><ele>618.0</ele><time>2026-03-27T08:58:47.069Z</time></trkpt><trkpt lat="39.951843608664596" lon="15.940522447691784"><ele>618.0</ele><time>2026-03-27T08:58:48.038Z</time></trkpt><trkpt lat="39.951689982823616" lon="15.940805018409293"><ele>487.0</ele><time>2026-03-27T08:58:49.034Z</time></trkpt><trkpt lat="39.942958391269535" lon="15.959138428947378"><ele>487.0</ele><time>2026-03-27T08:59:46.998Z</time></trkpt><trkpt lat="39.94265399685407" lon="15.95916075139422"><ele>487.0</ele><time>2026-03-27T08:59:47.998Z</time></trkpt><trkpt lat="39.942351446068905" lon="15.95914892168073"><ele>469.0</ele><time>2026-03-27T08:59:48.998Z</time></trkpt><trkpt lat="39.94207568155065" lon="15.959134811250305"><ele>451.0</ele><time>2026-03-27T08:59:49.998Z</time></trkpt><trkpt lat="39.941777341022814" lon="15.95909428885836"><ele>441.0</ele><time>2026-03-27T08:59:50.998Z</time></trkpt><trkpt lat="39.941476334456844" lon="15.959069889746166"><ele>431.0</ele><time>2026-03-27T08:59:51.998Z</time></trkpt><trkpt lat="39.94118844555148" lon="15.959047412735838"><ele>431.0</ele><time>2026-03-27T08:59:53Z</time></trkpt><trkpt lat="39.940897813954166" lon="15.959036757323988"><ele>431.0</ele><time>2026-03-27T08:59:54Z</time></trkpt><trkpt lat="39.940611389028106" lon="15.95905406867764"><ele>413.0</ele><time>2026-03-27T08:59:55Z</time></trkpt><trkpt lat="39.94032141587933" lon="15.959095446271451"><ele>395.0</ele><time>2026-03-27T08:59:56Z</time></trkpt><trkpt lat="39.94005570745567" lon="15.959173748373965"><ele>360.0</ele><time>2026-03-27T08:59:57Z</time></trkpt><trkpt lat="39.93978936600209" lon="15.95926072140906"><ele>325.0</ele><time>2026-03-27T08:59:58Z</time></trkpt><trkpt lat="39.93953093443023" lon="15.95933875656178"><ele>325.0</ele><time>2026-03-27T08:59:59Z</time></trkpt><trkpt lat="39.939264293469876" lon="15.959407683194877"><ele>325.0</ele><time>2026-03-27T09:00:00Z</time></trkpt><trkpt lat="39.938983950707474" lon="15.959467240252648"><ele>321.0</ele><time>2026-03-27T09:00:01Z</time></trkpt><trkpt lat="39.938702842467215" lon="15.959529624354733"><ele>317.0</ele><time>2026-03-27T09:00:02Z</time></trkpt><trkpt lat="39.938426250288295" lon="15.959594292480707"><ele>331.0</ele><time>2026-03-27T09:00:03Z</time></trkpt><trkpt lat="39.93814895169147" lon="15.959669718158928"><ele>345.0</ele><time>2026-03-27T09:00:04Z</time></trkpt><trkpt lat="39.937877584405186" lon="15.959754567643209"><ele>345.0</ele><time>2026-03-27T09:00:05Z</time></trkpt><trkpt lat="39.93761083863634" lon="15.959831290504354"><ele>345.0</ele><time>2026-03-27T09:00:06Z</time></trkpt><trkpt lat="39.93734540863334" lon="15.959908068655242"><ele>354.0</ele><time>2026-03-27T09:00:07Z</time></trkpt><trkpt lat="39.9370761386066" lon="15.959978557120149"><ele>363.0</ele><time>2026-03-27T09:00:08Z</time></trkpt><trkpt lat="39.93680731324536" lon="15.960054267885981"><ele>379.5</ele><time>2026-03-27T09:00:09Z</time></trkpt><trkpt lat="39.936533738006496" lon="15.960125947720588"><ele>396.0</ele><time>2026-03-27T09:00:10Z</time></trkpt><trkpt lat="39.93626231005372" lon="15.96019600055323"><ele>396.0</ele><time>2026-03-27T09:00:11Z</time></trkpt><trkpt lat="39.93599112987371" lon="15.960274005066093"><ele>396.0</ele><time>2026-03-27T09:00:12Z</time></trkpt><trkpt lat="39.93573392263824" lon="15.960377460551431"><ele>411.5</ele><time>2026-03-27T09:00:13Z</time></trkpt><trkpt lat="39.9354588483729" lon="15.96046181147907"><ele>427.0</ele><time>2026-03-27T09:00:14Z</time></trkpt><trkpt lat="39.93518714727523" lon="15.960552523902697"><ele>441.5</ele><time>2026-03-27T09:00:15Z</time></trkpt><trkpt lat="39.934916757979195" lon="15.96066220109489"><ele>456.0</ele><time>2026-03-27T09:00:16Z</time></trkpt><trkpt lat="39.93464608260601" lon="15.960785888560357"><ele>456.0</ele><time>2026-03-27T09:00:17Z</time></trkpt><trkpt lat="39.934378277624084" lon="15.96092361025831"><ele>456.0</ele><time>2026-03-27T09:00:18Z</time></trkpt><trkpt lat="39.9341172960858" lon="15.961080333199591"><ele>471.5</ele><time>2026-03-27T09:00:19Z</time></trkpt><trkpt lat="39.933858920876375" lon="15.961252208288064"><ele>487.0</ele><time>2026-03-27T09:00:20Z</time></trkpt><trkpt lat="39.933605543977045" lon="15.96143728020731"><ele>487.5</ele><time>2026-03-27T09:00:21Z</time></trkpt><trkpt lat="39.933356964323416" lon="15.961633465667003"><ele>488.0</ele><time>2026-03-27T09:00:22Z</time></trkpt><trkpt lat="39.933110520061746" lon="15.961836334358006"><ele>494.5</ele><time>2026-03-27T09:00:23Z</time></trkpt><trkpt lat="39.93286675018543" lon="15.962041081930355"><ele>501.0</ele><time>2026-03-27T09:00:24Z</time></trkpt><trkpt lat="39.93262280731288" lon="15.962245151585208"><ele>501.0</ele><time>2026-03-27T09:00:25Z</time></trkpt><trkpt lat="39.932379122606456" lon="15.962452895249196"><ele>501.0</ele><time>2026-03-27T09:00:26Z</time></trkpt><trkpt lat="39.932135108556295" lon="15.962657483829213"><ele>501.0</ele><time>2026-03-27T09:00:27Z</time></trkpt><trkpt lat="39.931887204676634" lon="15.962855281897498"><ele>501.0</ele><time>2026-03-27T09:00:28Z</time></trkpt><trkpt lat="39.93163957655642" lon="15.963049402291118"><ele>505.5</ele><time>2026-03-27T09:00:29Z</time></trkpt><trkpt lat="39.93139060751171" lon="15.963235882531132"><ele>510.0</ele><time>2026-03-27T09:00:30Z</time></trkpt><trkpt lat="39.931139375911705" lon="15.963409150271572"><ele>509.0</ele><time>2026-03-27T09:00:31Z</time></trkpt><trkpt lat="39.93088775251566" lon="15.963575276871653"><ele>508.0</ele><time>2026-03-27T09:00:32Z</time></trkpt><trkpt lat="39.93063538164934" lon="15.963733215673031"><ele>508.0</ele><time>2026-03-27T09:00:33Z</time></trkpt><trkpt lat="39.930380000229135" lon="15.963883973877351"><ele>508.0</ele><time>2026-03-27T09:00:34Z</time></trkpt><trkpt lat="39.930121680300424" lon="15.964026511269648"><ele>511.5</ele><time>2026-03-27T09:00:35Z</time></trkpt><trkpt lat="39.92986170447251" lon="15.964162505829538"><ele>515.0</ele><time>2026-03-27T09:00:36Z</time></trkpt><trkpt lat="39.92959768410369" lon="15.964302790822263"><ele>520.0</ele><time>2026-03-27T09:00:37Z</time></trkpt><trkpt lat="39.92933460334894" lon="15.964441156410302"><ele>525.0</ele><time>2026-03-27T09:00:38Z</time></trkpt><trkpt lat="39.929071787811665" lon="15.964580430998593"><ele>531.0</ele><time>2026-03-27T09:00:39Z</time></trkpt><trkpt lat="39.92882161938218" lon="15.964719429480983"><ele>537.0</ele><time>2026-03-27T09:00:40Z</time></trkpt><trkpt lat="39.92855492336784" lon="15.96482874396753"><ele>542.0</ele><time>2026-03-27T09:00:41Z</time></trkpt><trkpt lat="39.92826438011927" lon="15.964941935872918"><ele>547.0</ele><time>2026-03-27T09:00:42.073Z</time></trkpt><trkpt lat="39.9279909085731" lon="15.965048630674696"><ele>549.0</ele><time>2026-03-27T09:00:43.068Z</time></trkpt><trkpt lat="39.92771959553184" lon="15.965155339812535"><ele>551.0</ele><time>2026-03-27T09:00:44.066Z</time></trkpt><trkpt lat="39.92744867479331" lon="15.965261894726432"><ele>555.0</ele><time>2026-03-27T09:00:45.064Z</time></trkpt><trkpt lat="39.92717915232404" lon="15.965367900921198"><ele>559.0</ele><time>2026-03-27T09:00:46.066Z</time></trkpt><trkpt lat="39.92691657674496" lon="15.96547117585985"><ele>559.0</ele><time>2026-03-27T09:00:47.051Z</time></trkpt><trkpt lat="39.9266552254499" lon="15.96557604432061"><ele>559.0</ele><time>2026-03-27T09:00:48.035Z</time></trkpt><trkpt lat="39.9272899" lon="15.9652339"><ele>546.0</ele><time>2026-03-27T09:00:51.217Z</time></trkpt><trkpt lat="39.92447939377412" lon="15.966282506996595"><ele>541.0</ele><time>2026-03-27T09:00:54.999Z</time></trkpt><trkpt lat="39.92419480631029" lon="15.966399879608787"><ele>536.0</ele><time>2026-03-27T09:00:55.999Z</time></trkpt><trkpt lat="39.92391560578029" lon="15.966524876403774"><ele>536.0</ele><time>2026-03-27T09:00:56.999Z</time></trkpt><trkpt lat="39.92364829665463" lon="15.966630739753414"><ele>536.0</ele><time>2026-03-27T09:00:57.999Z</time></trkpt><trkpt lat="39.923370361241815" lon="15.966739355611523"><ele>543.0</ele><time>2026-03-27T09:00:58.999Z</time></trkpt><trkpt lat="39.923093223814305" lon="15.96684346171526"><ele>550.0</ele><time>2026-03-27T09:00:59.999Z</time></trkpt><trkpt lat="39.92282285227299" lon="15.966950799967192"><ele>546.5</ele><time>2026-03-27T09:01:00.999Z</time></trkpt><trkpt lat="39.922550723661494" lon="15.967055122967466"><ele>543.0</ele><time>2026-03-27T09:01:01.999Z</time></trkpt><trkpt lat="39.922278563122504" lon="15.967154889110056"><ele>543.0</ele><time>2026-03-27T09:01:02.999Z</time></trkpt><trkpt lat="39.92200744606425" lon="15.967244959733087"><ele>543.0</ele><time>2026-03-27T09:01:03.999Z</time></trkpt><trkpt lat="39.92173488610641" lon="15.96732723999665"><ele>542.5</ele><time>2026-03-27T09:01:04.999Z</time></trkpt><trkpt lat="39.92145546141955" lon="15.967398605056228"><ele>542.0</ele><time>2026-03-27T09:01:05.999Z</time></trkpt><trkpt lat="39.921181135901875" lon="15.967454070051764"><ele>543.5</ele><time>2026-03-27T09:01:06.999Z</time></trkpt><trkpt lat="39.92089623357936" lon="15.96748935257607"><ele>545.0</ele><time>2026-03-27T09:01:07.999Z</time></trkpt><trkpt lat="39.92060973923113" lon="15.967513020731978"><ele>545.0</ele><time>2026-03-27T09:01:08.999Z</time></trkpt><trkpt lat="39.92032370418775" lon="15.967521424903683"><ele>545.0</ele><time>2026-03-27T09:01:09.999Z</time></trkpt><trkpt lat="39.92003436032366" lon="15.967515521202694"><ele>547.5</ele><time>2026-03-27T09:01:10.999Z</time></trkpt><trkpt lat="39.91974334547316" lon="15.967495329746082"><ele>550.0</ele><time>2026-03-27T09:01:11.999Z</time></trkpt><trkpt lat="39.91945265095503" lon="15.967459624962942"><ele>553.0</ele><time>2026-03-27T09:01:12.999Z</time></trkpt><trkpt lat="39.91916191456004" lon="15.967406399517177"><ele>556.0</ele><time>2026-03-27T09:01:13.999Z</time></trkpt><trkpt lat="39.918871389629444" lon="15.96734311882176"><ele>556.0</ele><time>2026-03-27T09:01:14.999Z</time></trkpt><trkpt lat="39.91858301084333" lon="15.967259506555354"><ele>556.0</ele><time>2026-03-27T09:01:15.999Z</time></trkpt><trkpt lat="39.91829593128881" lon="15.967158839640367"><ele>560.5</ele><time>2026-03-27T09:01:16.999Z</time></trkpt><trkpt lat="39.91801101751468" lon="15.967043556848484"><ele>565.0</ele><time>2026-03-27T09:01:17.999Z</time></trkpt><trkpt lat="39.91773037529683" lon="15.966913295705783"><ele>564.0</ele><time>2026-03-27T09:01:18.999Z</time></trkpt><trkpt lat="39.91745135919288" lon="15.966771676262864"><ele>563.0</ele><time>2026-03-27T09:01:19.999Z</time></trkpt><trkpt lat="39.91717639476773" lon="15.966617017684943"><ele>563.0</ele><time>2026-03-27T09:01:20.999Z</time></trkpt><trkpt lat="39.916903060531865" lon="15.966459672492544"><ele>563.0</ele><time>2026-03-27T09:01:21.999Z</time></trkpt><trkpt lat="39.916630100418274" lon="15.966303238090575"><ele>568.0</ele><time>2026-03-27T09:01:22.999Z</time></trkpt><trkpt lat="39.91635820495838" lon="15.966144797316781"><ele>573.0</ele><time>2026-03-27T09:01:23.999Z</time></trkpt><trkpt lat="39.91608731317255" lon="15.965988552546452"><ele>571.5</ele><time>2026-03-27T09:01:24.999Z</time></trkpt><trkpt lat="39.915818270387895" lon="15.965826121606321"><ele>570.0</ele><time>2026-03-27T09:01:25.999Z</time></trkpt><trkpt lat="39.91555461182305" lon="15.965658922104733"><ele>570.0</ele><time>2026-03-27T09:01:26.999Z</time></trkpt><trkpt lat="39.915290866097656" lon="15.96548559018844"><ele>570.0</ele><time>2026-03-27T09:01:27.999Z</time></trkpt><trkpt lat="39.915029951383744" lon="15.96530890011645"><ele>571.5</ele><time>2026-03-27T09:01:28.999Z</time></trkpt><trkpt lat="39.91477314335708" lon="15.96513816174662"><ele>573.0</ele><time>2026-03-27T09:01:29.999Z</time></trkpt><trkpt lat="39.914515262876186" lon="15.964969315322323"><ele>573.0</ele><time>2026-03-27T09:01:30.999Z</time></trkpt><trkpt lat="39.91425601070029" lon="15.964800310242884"><ele>573.0</ele><time>2026-03-27T09:01:31.999Z</time></trkpt><trkpt lat="39.91400061127398" lon="15.964635599045115"><ele>574.5</ele><time>2026-03-27T09:01:32.999Z</time></trkpt><trkpt lat="39.913746210951246" lon="15.964471931262601"><ele>576.0</ele><time>2026-03-27T09:01:33.999Z</time></trkpt><trkpt lat="39.91348976977255" lon="15.964309906033304"><ele>581.5</ele><time>2026-03-27T09:01:34.999Z</time></trkpt><trkpt lat="39.91323273474267" lon="15.964145289143083"><ele>587.0</ele><time>2026-03-27T09:01:35.999Z</time></trkpt><trkpt lat="39.91297503195263" lon="15.96398173513265"><ele>587.0</ele><time>2026-03-27T09:01:36.999Z</time></trkpt><trkpt lat="39.91271713736722" lon="15.963814925104641"><ele>587.0</ele><time>2026-03-27T09:01:37.999Z</time></trkpt><trkpt lat="39.91245765739266" lon="15.963649139047137"><ele>586.5</ele><time>2026-03-27T09:01:38.999Z</time></trkpt><trkpt lat="39.91219773491994" lon="15.963484727951537"><ele>586.0</ele><time>2026-03-27T09:01:39.999Z</time></trkpt><trkpt lat="39.91193535991682" lon="15.9633218172288"><ele>590.5</ele><time>2026-03-27T09:01:40.999Z</time></trkpt><trkpt lat="39.91167333505009" lon="15.963157808168813"><ele>595.0</ele><time>2026-03-27T09:01:41.999Z</time></trkpt><trkpt lat="39.91140724374085" lon="15.962999028958222"><ele>595.0</ele><time>2026-03-27T09:01:42.999Z</time></trkpt><trkpt lat="39.91113918741162" lon="15.962845052226516"><ele>595.0</ele><time>2026-03-27T09:01:43.999Z</time></trkpt><trkpt lat="39.910867842755444" lon="15.962700094187326"><ele>595.0</ele><time>2026-03-27T09:01:44.999Z</time></trkpt><trkpt lat="39.9105945984085" lon="15.962571144725826"><ele>595.0</ele><time>2026-03-27T09:01:45.999Z</time></trkpt><trkpt lat="39.91031859923289" lon="15.962453228096495"><ele>597.0</ele><time>2026-03-27T09:01:46.999Z</time></trkpt><trkpt lat="39.910038948292765" lon="15.962350135182614"><ele>599.0</ele><time>2026-03-27T09:01:47.999Z</time></trkpt><trkpt lat="39.90976061580383" lon="15.962264655336487"><ele>599.0</ele><time>2026-03-27T09:01:48.999Z</time></trkpt><trkpt lat="39.909480346487385" lon="15.962196658271136"><ele>599.0</ele><time>2026-03-27T09:01:49.999Z</time></trkpt><trkpt lat="39.90919813525787" lon="15.962150911283455"><ele>603.5</ele><time>2026-03-27T09:01:50.999Z</time></trkpt><trkpt lat="39.90891573114765" lon="15.962122422062631"><ele>608.0</ele><time>2026-03-27T09:01:51.999Z</time></trkpt><trkpt lat="39.908631142062006" lon="15.962113039507866"><ele>612.0</ele><time>2026-03-27T09:01:52.999Z</time></trkpt><trkpt lat="39.908345684437805" lon="15.962120214493291"><ele>616.0</ele><time>2026-03-27T09:01:53.999Z</time></trkpt><trkpt lat="39.90805980998899" lon="15.962145071985429"><ele>616.0</ele><time>2026-03-27T09:01:54.999Z</time></trkpt><trkpt lat="39.90777717705687" lon="15.962189664043942"><ele>616.0</ele><time>2026-03-27T09:01:55.999Z</time></trkpt><trkpt lat="39.90749353131453" lon="15.962251485807302"><ele>614.5</ele><time>2026-03-27T09:01:56.999Z</time></trkpt><trkpt lat="39.907212396781084" lon="15.96232937806945"><ele>613.0</ele><time>2026-03-27T09:01:57.999Z</time></trkpt><trkpt lat="39.906931398727814" lon="15.96242557502795"><ele>615.0</ele><time>2026-03-27T09:01:59Z</time></trkpt><trkpt lat="39.90665774003359" lon="15.962537857927224"><ele>617.0</ele><time>2026-03-27T09:02:00Z</time></trkpt><trkpt lat="39.906392497015865" lon="15.962669273477465"><ele>617.0</ele><time>2026-03-27T09:02:01Z</time></trkpt><trkpt lat="39.90613662293945" lon="15.96280352493616"><ele>617.0</ele><time>2026-03-27T09:02:02Z</time></trkpt><trkpt lat="39.90590034764587" lon="15.962971592683784"><ele>617.5</ele><time>2026-03-27T09:02:03Z</time></trkpt><trkpt lat="39.90567309714297" lon="15.96315119174895"><ele>618.0</ele><time>2026-03-27T09:02:04Z</time></trkpt><trkpt lat="39.90545507470609" lon="15.963333189739117"><ele>621.5</ele><time>2026-03-27T09:02:05Z</time></trkpt><trkpt lat="39.905249900721905" lon="15.963531400132982"><ele>625.0</ele><time>2026-03-27T09:02:06Z</time></trkpt><trkpt lat="39.90505105176813" lon="15.963733486386346"><ele>625.0</ele><time>2026-03-27T09:02:07Z</time></trkpt><trkpt lat="39.9048615360689" lon="15.963953652708783"><ele>625.0</ele><time>2026-03-27T09:02:08Z</time></trkpt><trkpt lat="39.904680986241985" lon="15.964185140253983"><ele>628.5</ele><time>2026-03-27T09:02:09Z</time></trkpt><trkpt lat="39.90451410127595" lon="15.96442861216872"><ele>632.0</ele><time>2026-03-27T09:02:10Z</time></trkpt><trkpt lat="39.90435044024692" lon="15.964683820799744"><ele>635.0</ele><time>2026-03-27T09:02:11Z</time></trkpt><trkpt lat="39.904188314738676" lon="15.96494394703728"><ele>638.0</ele><time>2026-03-27T09:02:12Z</time></trkpt><trkpt lat="39.90402720722471" lon="15.965209724037871"><ele>647.5</ele><time>2026-03-27T09:02:13Z</time></trkpt><trkpt lat="39.90388242639095" lon="15.965471091850377"><ele>657.0</ele><time>2026-03-27T09:02:14Z</time></trkpt><trkpt lat="39.90374848028893" lon="15.965730697555347"><ele>670.5</ele><time>2026-03-27T09:02:15Z</time></trkpt><trkpt lat="39.90361883344942" lon="15.965991382399437"><ele>684.0</ele><time>2026-03-27T09:02:16Z</time></trkpt><trkpt lat="39.90349282033836" lon="15.96624456454764"><ele>713.5</ele><time>2026-03-27T09:02:17Z</time></trkpt><trkpt lat="39.903361175110035" lon="15.966500621337316"><ele>743.0</ele><time>2026-03-27T09:02:18Z</time></trkpt><trkpt lat="39.90322885294531" lon="15.966778893594414"><ele>746.0</ele><time>2026-03-27T09:02:19.074Z</time></trkpt><trkpt lat="39.90310917632329" lon="15.967040926402868"><ele>749.0</ele><time>2026-03-27T09:02:20.068Z</time></trkpt><trkpt lat="39.9029832632622" lon="15.967298767367124"><ele>734.0</ele><time>2026-03-27T09:02:21.067Z</time></trkpt><trkpt lat="39.90209380443952" lon="15.969664537769182"><ele>692.0</ele><time>2026-03-27T09:02:24.213Z</time></trkpt><trkpt lat="39.901538441645194" lon="15.971003510539736"><ele>675.0</ele><time>2026-03-27T09:02:25.213Z</time></trkpt><trkpt lat="39.90098207494794" lon="15.972345572070783"><ele>660.0</ele><time>2026-03-27T09:02:26.216Z</time></trkpt><trkpt lat="39.900315809713824" lon="15.973773919662804"><ele>660.0</ele><time>2026-03-27T09:02:40Z</time></trkpt><trkpt lat="39.90018285104498" lon="15.974094704586365"><ele>660.0</ele><time>2026-03-27T09:02:41Z</time></trkpt><trkpt lat="39.900099595011326" lon="15.974423813062856"><ele>659.5</ele><time>2026-03-27T09:02:42Z</time></trkpt><trkpt lat="39.89996382058248" lon="15.974753807372494"><ele>659.0</ele><time>2026-03-27T09:02:43Z</time></trkpt><trkpt lat="39.899828792551055" lon="15.975055657255668"><ele>659.0</ele><time>2026-03-27T09:02:44Z</time></trkpt><trkpt lat="39.89968270295996" lon="15.97536301764682"><ele>659.0</ele><time>2026-03-27T09:02:45Z</time></trkpt><trkpt lat="39.89952717499146" lon="15.975660634814746"><ele>655.0</ele><time>2026-03-27T09:02:46Z</time></trkpt><trkpt lat="39.8993624024229" lon="15.975956205609512"><ele>651.0</ele><time>2026-03-27T09:02:47Z</time></trkpt><trkpt lat="39.899186012229244" lon="15.976239736977847"><ele>657.5</ele><time>2026-03-27T09:02:48Z</time></trkpt><trkpt lat="39.898999082186535" lon="15.976515721195119"><ele>664.0</ele><time>2026-03-27T09:02:49Z</time></trkpt><trkpt lat="39.898804118659626" lon="15.976787410599716"><ele>664.0</ele><time>2026-03-27T09:02:50Z</time></trkpt><trkpt lat="39.898600513192065" lon="15.977049172747794"><ele>664.0</ele><time>2026-03-27T09:02:51Z</time></trkpt><trkpt lat="39.89838393138437" lon="15.977300181219691"><ele>682.0</ele><time>2026-03-27T09:02:52Z</time></trkpt><trkpt lat="39.89819672598393" lon="15.97753764049475"><ele>700.0</ele><time>2026-03-27T09:02:53Z</time></trkpt><trkpt lat="39.89776258047733" lon="15.978051855246793"><ele>695.5</ele><time>2026-03-27T09:02:55Z</time></trkpt><trkpt lat="39.89755720064368" lon="15.978220725899648"><ele>691.0</ele><time>2026-03-27T09:02:56Z</time></trkpt><trkpt lat="39.89733533287933" lon="15.978389346221785"><ele>691.0</ele><time>2026-03-27T09:02:57Z</time></trkpt><trkpt lat="39.897082704435725" lon="15.978567112368154"><ele>691.0</ele><time>2026-03-27T09:02:58.068Z</time></trkpt><trkpt lat="39.89685776972994" lon="15.978708433815981"><ele>699.5</ele><time>2026-03-27T09:02:59.066Z</time></trkpt><trkpt lat="39.89662703254661" lon="15.97884063489521"><ele>708.0</ele><time>2026-03-27T09:03:00.067Z</time></trkpt><trkpt lat="39.8961901046066" lon="15.979059739229141"><ele>733.0</ele><time>2026-03-27T09:03:02.057Z</time></trkpt><trkpt lat="39.894127224376106" lon="15.97945523437232"><ele>746.0</ele><time>2026-03-27T09:03:05.215Z</time></trkpt><trkpt lat="39.89296055621774" lon="15.979425617187028"><ele>753.0</ele><time>2026-03-27T09:03:06.212Z</time></trkpt><trkpt lat="39.89178958076145" lon="15.979306158574682"><ele>724.0</ele><time>2026-03-27T09:03:07.215Z</time></trkpt><trkpt lat="39.89062043419482" lon="15.979191990186779"><ele>721.0</ele><time>2026-03-27T09:03:08.217Z</time></trkpt><trkpt lat="39.88945196193569" lon="15.979184743012357"><ele>776.0</ele><time>2026-03-27T09:03:09.215Z</time></trkpt><trkpt lat="39.88829019844778" lon="15.979337025695642"><ele>784.0</ele><time>2026-03-27T09:03:10.213Z</time></trkpt><trkpt lat="39.88714280526185" lon="15.97964813561728"><ele>780.0</ele><time>2026-03-27T09:03:11.215Z</time></trkpt><trkpt lat="39.886028804947756" lon="15.980118441339686"><ele>811.0</ele><time>2026-03-27T09:03:12.216Z</time></trkpt><trkpt lat="39.884960087073104" lon="15.980741134411447"><ele>798.0</ele><time>2026-03-27T09:03:13.216Z</time></trkpt><trkpt lat="39.883952418837495" lon="15.981501642260671"><ele>817.0</ele><time>2026-03-27T09:03:14.212Z</time></trkpt><trkpt lat="39.88300474343934" lon="15.982403070140945"><ele>794.0</ele><time>2026-03-27T09:03:15.216Z</time></trkpt><trkpt lat="39.882137952488385" lon="15.983423534091692"><ele>809.0</ele><time>2026-03-27T09:03:16.216Z</time></trkpt><trkpt lat="39.88135596529689" lon="15.984550809309749"><ele>809.0</ele><time>2026-03-27T09:03:17.215Z</time></trkpt><trkpt lat="39.88064010372564" lon="15.98575314181422"><ele>738.0</ele><time>2026-03-27T09:03:18.215Z</time></trkpt><trkpt lat="39.879791726695494" lon="15.987322165382613"><ele>742.5</ele><time>2026-03-27T09:04:04.999Z</time></trkpt><trkpt lat="39.87962459438404" lon="15.98763188045336"><ele>747.0</ele><time>2026-03-27T09:04:05.999Z</time></trkpt><trkpt lat="39.87944125090439" lon="15.987971631530081"><ele>747.0</ele><time>2026-03-27T09:04:06.999Z</time></trkpt><trkpt lat="39.879293363901546" lon="15.988267352652132"><ele>747.0</ele><time>2026-03-27T09:04:07.999Z</time></trkpt><trkpt lat="39.87911877401286" lon="15.988585181620723"><ele>758.5</ele><time>2026-03-27T09:04:08.999Z</time></trkpt><trkpt lat="39.87895402153126" lon="15.988882609735944"><ele>770.0</ele><time>2026-03-27T09:04:09.999Z</time></trkpt><trkpt lat="39.87878681373846" lon="15.989177857358182"><ele>770.5</ele><time>2026-03-27T09:04:11Z</time></trkpt><trkpt lat="39.87860240781454" lon="15.989461759486263"><ele>771.0</ele><time>2026-03-27T09:04:12Z</time></trkpt><trkpt lat="39.87842457596769" lon="15.989748727240869"><ele>776.0</ele><time>2026-03-27T09:04:13Z</time></trkpt><trkpt lat="39.87826379813103" lon="15.990046515451342"><ele>781.0</ele><time>2026-03-27T09:04:14Z</time></trkpt><trkpt lat="39.878106236267115" lon="15.990344736961774"><ele>781.0</ele><time>2026-03-27T09:04:15Z</time></trkpt><trkpt lat="39.87794407198955" lon="15.990637823270147"><ele>781.0</ele><time>2026-03-27T09:04:16Z</time></trkpt><trkpt lat="39.87777757520166" lon="15.99093548809751"><ele>778.5</ele><time>2026-03-27T09:04:17Z</time></trkpt><trkpt lat="39.87763082848657" lon="15.991251786053615"><ele>776.0</ele><time>2026-03-27T09:04:18Z</time></trkpt><trkpt lat="39.87749843579821" lon="15.991574515872665"><ele>776.0</ele><time>2026-03-27T09:04:19Z</time></trkpt><trkpt lat="39.87736873931127" lon="15.99189802699079"><ele>776.0</ele><time>2026-03-27T09:04:20Z</time></trkpt><trkpt lat="39.8772527165045" lon="15.99223725064823"><ele>778.5</ele><time>2026-03-27T09:04:21Z</time></trkpt><trkpt lat="39.87715972084792" lon="15.992583747282046"><ele>781.0</ele><time>2026-03-27T09:04:22Z</time></trkpt><trkpt lat="39.877082625317" lon="15.992936723777483"><ele>781.0</ele><time>2026-03-27T09:04:23Z</time></trkpt><trkpt lat="39.87701917645779" lon="15.993294800308702"><ele>781.0</ele><time>2026-03-27T09:04:24Z</time></trkpt><trkpt lat="39.876967237629316" lon="15.993657801676875"><ele>782.5</ele><time>2026-03-27T09:04:25Z</time></trkpt><trkpt lat="39.87693357475338" lon="15.994015359317302"><ele>784.0</ele><time>2026-03-27T09:04:26Z</time></trkpt><trkpt lat="39.87691959297751" lon="15.994377134497991"><ele>784.0</ele><time>2026-03-27T09:04:27Z</time></trkpt><trkpt lat="39.876920576341064" lon="15.994742903850648"><ele>784.0</ele><time>2026-03-27T09:04:28Z</time></trkpt><trkpt lat="39.876930606479284" lon="15.995108286675817"><ele>783.0</ele><time>2026-03-27T09:04:29Z</time></trkpt><trkpt lat="39.876958931193236" lon="15.995474909996236"><ele>782.0</ele><time>2026-03-27T09:04:30Z</time></trkpt><trkpt lat="39.87699780049458" lon="15.99584191727641"><ele>780.0</ele><time>2026-03-27T09:04:31Z</time></trkpt><trkpt lat="39.8770449815135" lon="15.99621018874542"><ele>778.0</ele><time>2026-03-27T09:04:32Z</time></trkpt><trkpt lat="39.87710151580901" lon="15.996579166973286"><ele>779.5</ele><time>2026-03-27T09:04:33Z</time></trkpt><trkpt lat="39.87716302208365" lon="15.996946743329856"><ele>781.0</ele><time>2026-03-27T09:04:34Z</time></trkpt><trkpt lat="39.8772247518899" lon="15.997316877711116"><ele>783.0</ele><time>2026-03-27T09:04:35Z</time></trkpt><trkpt lat="39.87729174531017" lon="15.99768666005557"><ele>785.0</ele><time>2026-03-27T09:04:36Z</time></trkpt><trkpt lat="39.87735872722948" lon="15.998056877503657"><ele>783.5</ele><time>2026-03-27T09:04:37Z</time></trkpt><trkpt lat="39.8774257233762" lon="15.998431122451636"><ele>782.0</ele><time>2026-03-27T09:04:38Z</time></trkpt><trkpt lat="39.87749099181027" lon="15.998806674129716"><ele>781.5</ele><time>2026-03-27T09:04:39Z</time></trkpt><trkpt lat="39.87755838919989" lon="15.999184339104756"><ele>781.0</ele><time>2026-03-27T09:04:40Z</time></trkpt><trkpt lat="39.877624409594645" lon="15.999560506123174"><ele>788.5</ele><time>2026-03-27T09:04:41Z</time></trkpt><trkpt lat="39.87769206260264" lon="15.999935736578099"><ele>796.0</ele><time>2026-03-27T09:04:42Z</time></trkpt><trkpt lat="39.87775791838227" lon="16.00031243625212"><ele>796.0</ele><time>2026-03-27T09:04:43Z</time></trkpt><trkpt lat="39.87782577216624" lon="16.00069010392415"><ele>796.0</ele><time>2026-03-27T09:04:44Z</time></trkpt><trkpt lat="39.877892715542025" lon="16.00106422571355"><ele>796.0</ele><time>2026-03-27T09:04:45Z</time></trkpt><trkpt lat="39.877960192093745" lon="16.001437517893986"><ele>796.0</ele><time>2026-03-27T09:04:46Z</time></trkpt><trkpt lat="39.87802735349621" lon="16.001813085393366"><ele>796.0</ele><time>2026-03-27T09:04:47Z</time></trkpt><trkpt lat="39.87809596788242" lon="16.002188117631217"><ele>796.0</ele><time>2026-03-27T09:04:48Z</time></trkpt><trkpt lat="39.87816422327835" lon="16.00256383276462"><ele>796.0</ele><time>2026-03-27T09:04:49Z</time></trkpt><trkpt lat="39.87823137830785" lon="16.002937375978767"><ele>796.0</ele><time>2026-03-27T09:04:50Z</time></trkpt><trkpt lat="39.878299736837185" lon="16.00330899726581"><ele>797.0</ele><time>2026-03-27T09:04:51Z</time></trkpt><trkpt lat="39.87836783083809" lon="16.003680175690054"><ele>798.0</ele><time>2026-03-27T09:04:52Z</time></trkpt><trkpt lat="39.87843655440551" lon="16.00405024511792"><ele>808.5</ele><time>2026-03-27T09:04:53Z</time></trkpt><trkpt lat="39.87850443706167" lon="16.004421410539607"><ele>819.0</ele><time>2026-03-27T09:04:54Z</time></trkpt><trkpt lat="39.87857161197815" lon="16.00478864991642"><ele>821.5</ele><time>2026-03-27T09:04:55Z</time></trkpt><trkpt lat="39.87863947891503" lon="16.005157087764793"><ele>824.0</ele><time>2026-03-27T09:04:56Z</time></trkpt><trkpt lat="39.87871103186947" lon="16.0055234005459"><ele>824.0</ele><time>2026-03-27T09:04:57Z</time></trkpt><trkpt lat="39.87879014641681" lon="16.005886276252063"><ele>824.0</ele><time>2026-03-27T09:04:58Z</time></trkpt><trkpt lat="39.87888065983554" lon="16.00624421679713"><ele>824.0</ele><time>2026-03-27T09:04:59Z</time></trkpt><trkpt lat="39.87898501039451" lon="16.006596056008604"><ele>824.0</ele><time>2026-03-27T09:05:00Z</time></trkpt><trkpt lat="39.87910274604723" lon="16.006941633853955"><ele>823.5</ele><time>2026-03-27T09:05:01Z</time></trkpt><trkpt lat="39.879231203975486" lon="16.007280988138376"><ele>823.0</ele><time>2026-03-27T09:05:02Z</time></trkpt><trkpt lat="39.87937406786496" lon="16.00761086924122"><ele>829.5</ele><time>2026-03-27T09:05:03Z</time></trkpt><trkpt lat="39.8795290560294" lon="16.007931390657635"><ele>836.0</ele><time>2026-03-27T09:05:04Z</time></trkpt><trkpt lat="39.87969563538121" lon="16.00824182017112"><ele>831.0</ele><time>2026-03-27T09:05:05Z</time></trkpt><trkpt lat="39.87986906796165" lon="16.008543702853636"><ele>826.0</ele><time>2026-03-27T09:05:06Z</time></trkpt><trkpt lat="39.88005413386222" lon="16.00883386313741"><ele>828.0</ele><time>2026-03-27T09:05:07Z</time></trkpt><trkpt lat="39.88024806983148" lon="16.009115022388027"><ele>830.0</ele><time>2026-03-27T09:05:08Z</time></trkpt><trkpt lat="39.88044984774898" lon="16.009386349441158"><ele>830.0</ele><time>2026-03-27T09:05:08.999Z</time></trkpt><trkpt lat="39.88066223729455" lon="16.00964301547422"><ele>830.0</ele><time>2026-03-27T09:05:09.999Z</time></trkpt><trkpt lat="39.880880133856905" lon="16.00988819266317"><ele>831.5</ele><time>2026-03-27T09:05:10.999Z</time></trkpt><trkpt lat="39.88110053051279" lon="16.010125166951333"><ele>833.0</ele><time>2026-03-27T09:05:11.999Z</time></trkpt><trkpt lat="39.88132178949215" lon="16.010361653017366"><ele>833.0</ele><time>2026-03-27T09:05:12.999Z</time></trkpt><trkpt lat="39.88154422132407" lon="16.010597923684266"><ele>833.0</ele><time>2026-03-27T09:05:13.999Z</time></trkpt><trkpt lat="39.8817656866169" lon="16.010831401200967"><ele>836.0</ele><time>2026-03-27T09:05:14.999Z</time></trkpt><trkpt lat="39.881983226769485" lon="16.011063426839602"><ele>839.0</ele><time>2026-03-27T09:05:15.999Z</time></trkpt><trkpt lat="39.88219532857578" lon="16.011301639823632"><ele>839.0</ele><time>2026-03-27T09:05:16.999Z</time></trkpt><trkpt lat="39.88240055792863" lon="16.01154871718526"><ele>839.0</ele><time>2026-03-27T09:05:17.999Z</time></trkpt><trkpt lat="39.88260009410883" lon="16.01180537549218"><ele>840.5</ele><time>2026-03-27T09:05:18.999Z</time></trkpt><trkpt lat="39.8827907032494" lon="16.012072605189502"><ele>842.0</ele><time>2026-03-27T09:05:19.999Z</time></trkpt><trkpt lat="39.882971725062355" lon="16.012348391396255"><ele>841.5</ele><time>2026-03-27T09:05:20.999Z</time></trkpt><trkpt lat="39.88314123827168" lon="16.012640326383323"><ele>841.0</ele><time>2026-03-27T09:05:21.999Z</time></trkpt><trkpt lat="39.883301908098545" lon="16.01294468798355"><ele>845.5</ele><time>2026-03-27T09:05:22.999Z</time></trkpt><trkpt lat="39.88345234657389" lon="16.013259330806438"><ele>850.0</ele><time>2026-03-27T09:05:23.999Z</time></trkpt><trkpt lat="39.883589726198736" lon="16.013587162936133"><ele>856.0</ele><time>2026-03-27T09:05:24.999Z</time></trkpt><trkpt lat="39.883719280055246" lon="16.01391983628393"><ele>862.0</ele><time>2026-03-27T09:05:25.999Z</time></trkpt><trkpt lat="39.88384128131268" lon="16.01426441701813"><ele>863.0</ele><time>2026-03-27T09:05:26.999Z</time></trkpt><trkpt lat="39.883949142928806" lon="16.01461142420485"><ele>864.0</ele><time>2026-03-27T09:05:27.999Z</time></trkpt><trkpt lat="39.884044833426614" lon="16.01496669954486"><ele>862.0</ele><time>2026-03-27T09:05:28.999Z</time></trkpt><trkpt lat="39.884129476626974" lon="16.015327440806207"><ele>860.0</ele><time>2026-03-27T09:05:29.999Z</time></trkpt><trkpt lat="39.884204827869134" lon="16.01569072914732"><ele>884.0</ele><time>2026-03-27T09:05:30.999Z</time></trkpt><trkpt lat="39.88427384411203" lon="16.016055765358246"><ele>908.0</ele><time>2026-03-27T09:05:31.999Z</time></trkpt><trkpt lat="39.884338748631784" lon="16.016423076663873"><ele>902.5</ele><time>2026-03-27T09:05:32.999Z</time></trkpt><trkpt lat="39.884400952424166" lon="16.01679113157965"><ele>897.0</ele><time>2026-03-27T09:05:33.999Z</time></trkpt><trkpt lat="39.88446153456998" lon="16.017152763237142"><ele>892.5</ele><time>2026-03-27T09:05:34.999Z</time></trkpt><trkpt lat="39.884522388696666" lon="16.017514734686287"><ele>888.0</ele><time>2026-03-27T09:05:35.999Z</time></trkpt><trkpt lat="39.88458484287646" lon="16.017876593663516"><ele>888.0</ele><time>2026-03-27T09:05:36.999Z</time></trkpt><trkpt lat="39.88464851605852" lon="16.018236809458617"><ele>888.0</ele><time>2026-03-27T09:05:37.999Z</time></trkpt><trkpt lat="39.88471245836628" lon="16.018596435374373"><ele>884.5</ele><time>2026-03-27T09:05:38.999Z</time></trkpt><trkpt lat="39.88477594270225" lon="16.0189521800364"><ele>881.0</ele><time>2026-03-27T09:05:39.999Z</time></trkpt><trkpt lat="39.88484214515256" lon="16.01930528218901"><ele>877.5</ele><time>2026-03-27T09:05:40.999Z</time></trkpt><trkpt lat="39.884913676708216" lon="16.01965541644172"><ele>874.0</ele><time>2026-03-27T09:05:41.999Z</time></trkpt><trkpt lat="39.88499153718248" lon="16.020005705261987"><ele>869.5</ele><time>2026-03-27T09:05:42.999Z</time></trkpt><trkpt lat="39.88507854049537" lon="16.0203544035164"><ele>865.0</ele><time>2026-03-27T09:05:43.999Z</time></trkpt><trkpt lat="39.885172462861696" lon="16.02070172301319"><ele>872.0</ele><time>2026-03-27T09:05:44.999Z</time></trkpt><trkpt lat="39.88527158699569" lon="16.021050067282985"><ele>879.0</ele><time>2026-03-27T09:05:45.999Z</time></trkpt><trkpt lat="39.88537165286312" lon="16.021400768315328"><ele>878.0</ele><time>2026-03-27T09:05:46.999Z</time></trkpt><trkpt lat="39.885471880295924" lon="16.021752371743997"><ele>877.0</ele><time>2026-03-27T09:05:47.999Z</time></trkpt><trkpt lat="39.88557042463519" lon="16.022108648885308"><ele>877.0</ele><time>2026-03-27T09:05:48.999Z</time></trkpt><trkpt lat="39.88566636389991" lon="16.022465189742892"><ele>877.0</ele><time>2026-03-27T09:05:49.999Z</time></trkpt><trkpt lat="39.885763847686064" lon="16.022819709736158"><ele>880.0</ele><time>2026-03-27T09:05:50.999Z</time></trkpt><trkpt lat="39.88586186970073" lon="16.0231753535672"><ele>883.0</ele><time>2026-03-27T09:05:51.999Z</time></trkpt><trkpt lat="39.88596159848958" lon="16.02352884382804"><ele>890.5</ele><time>2026-03-27T09:05:52.999Z</time></trkpt><trkpt lat="39.886065496798274" lon="16.02388148756598"><ele>898.0</ele><time>2026-03-27T09:05:53.999Z</time></trkpt><trkpt lat="39.88617618955051" lon="16.024231885575304"><ele>898.0</ele><time>2026-03-27T09:05:54.999Z</time></trkpt><trkpt lat="39.88629468548009" lon="16.024577882358752"><ele>898.0</ele><time>2026-03-27T09:05:55.999Z</time></trkpt><trkpt lat="39.886422564531074" lon="16.024916170624678"><ele>898.0</ele><time>2026-03-27T09:05:56.999Z</time></trkpt><trkpt lat="39.88655728666245" lon="16.025249947913867"><ele>898.0</ele><time>2026-03-27T09:05:57.999Z</time></trkpt><trkpt lat="39.88669682551689" lon="16.02558000342468"><ele>902.5</ele><time>2026-03-27T09:05:58.999Z</time></trkpt><trkpt lat="39.88684017606936" lon="16.02590526210787"><ele>907.0</ele><time>2026-03-27T09:05:59.999Z</time></trkpt><trkpt lat="39.88698739783928" lon="16.02622459321093"><ele>907.0</ele><time>2026-03-27T09:06:00.999Z</time></trkpt><trkpt lat="39.88713656553704" lon="16.02654441943586"><ele>907.0</ele><time>2026-03-27T09:06:01.999Z</time></trkpt><trkpt lat="39.8872870754549" lon="16.026867167977912"><ele>906.0</ele><time>2026-03-27T09:06:02.999Z</time></trkpt><trkpt lat="39.88743253520601" lon="16.027187701218438"><ele>905.0</ele><time>2026-03-27T09:06:03.999Z</time></trkpt><trkpt lat="39.887576566428464" lon="16.02751208308988"><ele>908.0</ele><time>2026-03-27T09:06:04.999Z</time></trkpt><trkpt lat="39.8877129543221" lon="16.027839744281078"><ele>911.0</ele><time>2026-03-27T09:06:05.999Z</time></trkpt><trkpt lat="39.88783545842054" lon="16.028174426015248"><ele>913.5</ele><time>2026-03-27T09:06:06.999Z</time></trkpt><trkpt lat="39.887945286982465" lon="16.02851324411315"><ele>916.0</ele><time>2026-03-27T09:06:07.999Z</time></trkpt><trkpt lat="39.888052724526474" lon="16.028853552956715"><ele>921.0</ele><time>2026-03-27T09:06:08.999Z</time></trkpt><trkpt lat="39.88815041795023" lon="16.029197885549515"><ele>926.0</ele><time>2026-03-27T09:06:09.999Z</time></trkpt><trkpt lat="39.88824194966128" lon="16.029547279286525"><ele>926.0</ele><time>2026-03-27T09:06:10.999Z</time></trkpt><trkpt lat="39.88832595699109" lon="16.029900970719456"><ele>926.0</ele><time>2026-03-27T09:06:11.999Z</time></trkpt><trkpt lat="39.888402045664535" lon="16.03026154097911"><ele>932.0</ele><time>2026-03-27T09:06:12.999Z</time></trkpt><trkpt lat="39.888470870868325" lon="16.03063033667356"><ele>938.0</ele><time>2026-03-27T09:06:13.999Z</time></trkpt><trkpt lat="39.88852952349577" lon="16.031006622474692"><ele>938.0</ele><time>2026-03-27T09:06:14.999Z</time></trkpt><trkpt lat="39.88857826131079" lon="16.031390824056814"><ele>938.0</ele><time>2026-03-27T09:06:16Z</time></trkpt><trkpt lat="39.888614111361456" lon="16.031778708353436"><ele>939.0</ele><time>2026-03-27T09:06:17Z</time></trkpt><trkpt lat="39.88864527746572" lon="16.032169408134024"><ele>940.0</ele><time>2026-03-27T09:06:18Z</time></trkpt><trkpt lat="39.88867312899313" lon="16.03256604796935"><ele>942.5</ele><time>2026-03-27T09:06:19Z</time></trkpt><trkpt lat="39.88870039543999" lon="16.032964803172234"><ele>945.0</ele><time>2026-03-27T09:06:20Z</time></trkpt><trkpt lat="39.88872635794353" lon="16.03336633325816"><ele>952.0</ele><time>2026-03-27T09:06:21Z</time></trkpt><trkpt lat="39.88875160389386" lon="16.03377091437661"><ele>959.0</ele><time>2026-03-27T09:06:22Z</time></trkpt><trkpt lat="39.888778045203104" lon="16.03417852027499"><ele>968.5</ele><time>2026-03-27T09:06:23Z</time></trkpt><trkpt lat="39.88880770862498" lon="16.034616872759894"><ele>978.0</ele><time>2026-03-27T09:06:24.068Z</time></trkpt><trkpt lat="39.88883555191307" lon="16.035030548687107"><ele>981.5</ele><time>2026-03-27T09:06:25.069Z</time></trkpt><trkpt lat="39.88886337538137" lon="16.035444147739586"><ele>985.0</ele><time>2026-03-27T09:06:26.064Z</time></trkpt><trkpt lat="39.8891206" lon="16.0383866"><ele>938.0</ele><time>2026-03-27T09:06:30.209Z</time></trkpt><trkpt lat="39.889172807228704" lon="16.039095628753643"><ele>931.5</ele><time>2026-03-27T09:06:35Z</time></trkpt><trkpt lat="39.88920376722725" lon="16.03951007912661"><ele>925.0</ele><time>2026-03-27T09:06:36Z</time></trkpt><trkpt lat="39.88923939594991" lon="16.039927526719527"><ele>938.0</ele><time>2026-03-27T09:06:37Z</time></trkpt><trkpt lat="39.88926379921107" lon="16.04033060448628"><ele>951.0</ele><time>2026-03-27T09:06:38Z</time></trkpt><trkpt lat="39.88927421041427" lon="16.04072950027992"><ele>951.0</ele><time>2026-03-27T09:06:39Z</time></trkpt><trkpt lat="39.88929364558155" lon="16.04113036258817"><ele>951.0</ele><time>2026-03-27T09:06:40Z</time></trkpt><trkpt lat="39.8893032008466" lon="16.04152976344885"><ele>958.0</ele><time>2026-03-27T09:06:41Z</time></trkpt><trkpt lat="39.88930240954958" lon="16.041924038771338"><ele>965.0</ele><time>2026-03-27T09:06:42Z</time></trkpt><trkpt lat="39.88929007050487" lon="16.04231413119172"><ele>962.0</ele><time>2026-03-27T09:06:43Z</time></trkpt><trkpt lat="39.88926880033332" lon="16.042701318167538"><ele>959.0</ele><time>2026-03-27T09:06:44Z</time></trkpt><trkpt lat="39.8892372789336" lon="16.04308349285099"><ele>969.5</ele><time>2026-03-27T09:06:45Z</time></trkpt><trkpt lat="39.88919478682276" lon="16.0434573454913"><ele>980.0</ele><time>2026-03-27T09:06:46Z</time></trkpt><trkpt lat="39.88914488138921" lon="16.04382426127381"><ele>991.5</ele><time>2026-03-27T09:06:47Z</time></trkpt><trkpt lat="39.889083533466035" lon="16.044209709186394"><ele>1003.0</ele><time>2026-03-27T09:06:48.067Z</time></trkpt><trkpt lat="39.889020475237835" lon="16.04456313563838"><ele>987.0</ele><time>2026-03-27T09:06:49.061Z</time></trkpt><trkpt lat="39.88782327934733" lon="16.04839614295404"><ele>979.0</ele><time>2026-03-27T09:06:53.212Z</time></trkpt><trkpt lat="39.88714892694751" lon="16.049635767462824"><ele>969.0</ele><time>2026-03-27T09:06:54.211Z</time></trkpt><trkpt lat="39.88636139371893" lon="16.050765351980292"><ele>968.5</ele><time>2026-03-27T09:06:55.214Z</time></trkpt><trkpt lat="39.8861514" lon="16.0510254"><ele>968.0</ele><time>2026-03-27T09:06:56.214Z</time></trkpt><trkpt lat="39.885256979205884" lon="16.052061029124435"><ele>962.5</ele><time>2026-03-27T09:07:13.999Z</time></trkpt><trkpt lat="39.88522232416537" lon="16.051954774762255"><ele>957.0</ele><time>2026-03-27T09:07:14.999Z</time></trkpt><trkpt lat="39.88483367716239" lon="16.052550268927178"><ele>952.0</ele><time>2026-03-27T09:07:15.999Z</time></trkpt><trkpt lat="39.88464464602609" lon="16.05278440159882"><ele>947.0</ele><time>2026-03-27T09:07:16.999Z</time></trkpt><trkpt lat="39.88445204896908" lon="16.0530232190266"><ele>946.0</ele><time>2026-03-27T09:07:17.999Z</time></trkpt><trkpt lat="39.884248263297025" lon="16.053267214493403"><ele>945.0</ele><time>2026-03-27T09:07:18.999Z</time></trkpt><trkpt lat="39.884031155259606" lon="16.05351288096073"><ele>945.0</ele><time>2026-03-27T09:07:19.999Z</time></trkpt><trkpt lat="39.883812496011664" lon="16.053758681818948"><ele>945.0</ele><time>2026-03-27T09:07:20.999Z</time></trkpt><trkpt lat="39.88359267611781" lon="16.054032320937665"><ele>946.0</ele><time>2026-03-27T09:07:21.999Z</time></trkpt><trkpt lat="39.88337489897063" lon="16.054286522214294"><ele>947.0</ele><time>2026-03-27T09:07:22.999Z</time></trkpt><trkpt lat="39.883153800769115" lon="16.054540057355965"><ele>947.0</ele><time>2026-03-27T09:07:23.999Z</time></trkpt><trkpt lat="39.88293300657988" lon="16.05479217683218"><ele>947.0</ele><time>2026-03-27T09:07:24.999Z</time></trkpt><trkpt lat="39.88271325840014" lon="16.055045761703195"><ele>948.5</ele><time>2026-03-27T09:07:25.999Z</time></trkpt><trkpt lat="39.88249140623337" lon="16.055299990375843"><ele>950.0</ele><time>2026-03-27T09:07:26.999Z</time></trkpt><trkpt lat="39.882269305912395" lon="16.055554760771418"><ele>951.0</ele><time>2026-03-27T09:07:27.999Z</time></trkpt><trkpt lat="39.88204314056391" lon="16.055809620271482"><ele>952.0</ele><time>2026-03-27T09:07:28.999Z</time></trkpt><trkpt lat="39.881814958681964" lon="16.056071566003638"><ele>953.0</ele><time>2026-03-27T09:07:29.999Z</time></trkpt><trkpt lat="39.8815873221819" lon="16.05633165579084"><ele>954.0</ele><time>2026-03-27T09:07:30.999Z</time></trkpt><trkpt lat="39.88135997294766" lon="16.05659209357525"><ele>956.5</ele><time>2026-03-27T09:07:31.999Z</time></trkpt><trkpt lat="39.88112881584269" lon="16.056858782387387"><ele>959.0</ele><time>2026-03-27T09:07:32.999Z</time></trkpt><trkpt lat="39.88089530769503" lon="16.05712094911505"><ele>960.0</ele><time>2026-03-27T09:07:33.999Z</time></trkpt><trkpt lat="39.880668126747565" lon="16.057385637135024"><ele>961.0</ele><time>2026-03-27T09:07:34.999Z</time></trkpt><trkpt lat="39.880440824305424" lon="16.057648377566156"><ele>962.5</ele><time>2026-03-27T09:07:35.999Z</time></trkpt><trkpt lat="39.880213902722055" lon="16.057913562145387"><ele>964.0</ele><time>2026-03-27T09:07:36.999Z</time></trkpt><trkpt lat="39.87998939224916" lon="16.05818375505824"><ele>965.5</ele><time>2026-03-27T09:07:37.999Z</time></trkpt><trkpt lat="39.8797723768096" lon="16.058459025677557"><ele>967.0</ele><time>2026-03-27T09:07:38.999Z</time></trkpt><trkpt lat="39.87955844259777" lon="16.058745537040327"><ele>967.0</ele><time>2026-03-27T09:07:39.999Z</time></trkpt><trkpt lat="39.87934904770708" lon="16.059036607875377"><ele>967.0</ele><time>2026-03-27T09:07:40.999Z</time></trkpt><trkpt lat="39.879144612184604" lon="16.059333841575953"><ele>969.0</ele><time>2026-03-27T09:07:41.999Z</time></trkpt><trkpt lat="39.87894450904503" lon="16.059637193989367"><ele>971.0</ele><time>2026-03-27T09:07:42.999Z</time></trkpt><trkpt lat="39.87875709894987" lon="16.059951798384308"><ele>972.0</ele><time>2026-03-27T09:07:43.999Z</time></trkpt><trkpt lat="39.878578706282084" lon="16.060274610934687"><ele>973.0</ele><time>2026-03-27T09:07:44.999Z</time></trkpt><trkpt lat="39.87840845653725" lon="16.06060794039545"><ele>975.0</ele><time>2026-03-27T09:07:45.999Z</time></trkpt><trkpt lat="39.878250168035436" lon="16.060950829191075"><ele>977.0</ele><time>2026-03-27T09:07:46.999Z</time></trkpt><trkpt lat="39.878105375433826" lon="16.061310256564354"><ele>978.0</ele><time>2026-03-27T09:07:47.999Z</time></trkpt><trkpt lat="39.877967993344996" lon="16.061668634051188"><ele>979.0</ele><time>2026-03-27T09:07:48.999Z</time></trkpt><trkpt lat="39.87784332084483" lon="16.06203233867863"><ele>979.0</ele><time>2026-03-27T09:07:49.999Z</time></trkpt><trkpt lat="39.877724732839965" lon="16.062402235783942"><ele>979.0</ele><time>2026-03-27T09:07:50.999Z</time></trkpt><trkpt lat="39.877616234327526" lon="16.06277367835478"><ele>979.0</ele><time>2026-03-27T09:07:51.999Z</time></trkpt><trkpt lat="39.87751201058281" lon="16.06314952644391"><ele>979.0</ele><time>2026-03-27T09:07:52.999Z</time></trkpt><trkpt lat="39.8774082677402" lon="16.063520375797076"><ele>979.0</ele><time>2026-03-27T09:07:53.999Z</time></trkpt><trkpt lat="39.87730796555742" lon="16.063897865053516"><ele>979.0</ele><time>2026-03-27T09:07:54.999Z</time></trkpt><trkpt lat="39.87720984645966" lon="16.06427855314577"><ele>980.5</ele><time>2026-03-27T09:07:55.999Z</time></trkpt><trkpt lat="39.87710871104706" lon="16.06465270096149"><ele>982.0</ele><time>2026-03-27T09:07:56.999Z</time></trkpt><trkpt lat="39.87700177003681" lon="16.06502396777608"><ele>983.0</ele><time>2026-03-27T09:07:57.999Z</time></trkpt><trkpt lat="39.8768833961466" lon="16.0653850576273"><ele>984.0</ele><time>2026-03-27T09:07:58.999Z</time></trkpt><trkpt lat="39.87675876333978" lon="16.06574953486209"><ele>981.0</ele><time>2026-03-27T09:07:59.999Z</time></trkpt><trkpt lat="39.876624678767456" lon="16.066105520923838"><ele>978.0</ele><time>2026-03-27T09:08:00.999Z</time></trkpt><trkpt lat="39.876479042409535" lon="16.06645471435335"><ele>979.0</ele><time>2026-03-27T09:08:01.999Z</time></trkpt><trkpt lat="39.87632683460524" lon="16.066797698441068"><ele>980.0</ele><time>2026-03-27T09:08:02.999Z</time></trkpt><trkpt lat="39.87616279745858" lon="16.067138165868"><ele>981.0</ele><time>2026-03-27T09:08:03.999Z</time></trkpt><trkpt lat="39.87598764752547" lon="16.067463909438025"><ele>982.0</ele><time>2026-03-27T09:08:04.999Z</time></trkpt><trkpt lat="39.875803702139926" lon="16.067785084174588"><ele>982.0</ele><time>2026-03-27T09:08:05.999Z</time></trkpt><trkpt lat="39.87561542167126" lon="16.06809353015803"><ele>982.0</ele><time>2026-03-27T09:08:06.999Z</time></trkpt><trkpt lat="39.87542732738425" lon="16.06839503280246"><ele>984.0</ele><time>2026-03-27T09:08:07.999Z</time></trkpt><trkpt lat="39.87522875313194" lon="16.0686880396714"><ele>986.0</ele><time>2026-03-27T09:08:08.999Z</time></trkpt><trkpt lat="39.87502788929583" lon="16.068984064691435"><ele>988.0</ele><time>2026-03-27T09:08:09.999Z</time></trkpt><trkpt lat="39.87482061576137" lon="16.06928365659461"><ele>990.0</ele><time>2026-03-27T09:08:10.999Z</time></trkpt><trkpt lat="39.874615251177104" lon="16.069583194879904"><ele>990.0</ele><time>2026-03-27T09:08:11.999Z</time></trkpt><trkpt lat="39.874408942107166" lon="16.069884804798754"><ele>990.0</ele><time>2026-03-27T09:08:12.999Z</time></trkpt><trkpt lat="39.874201898757725" lon="16.070185234010975"><ele>990.5</ele><time>2026-03-27T09:08:13.999Z</time></trkpt><trkpt lat="39.873993287158385" lon="16.070486238419395"><ele>991.0</ele><time>2026-03-27T09:08:14.999Z</time></trkpt><trkpt lat="39.87378779090584" lon="16.070782426635734"><ele>991.0</ele><time>2026-03-27T09:08:15.999Z</time></trkpt><trkpt lat="39.8735852012358" lon="16.071075885602657"><ele>991.0</ele><time>2026-03-27T09:08:16.999Z</time></trkpt><trkpt lat="39.87338626349219" lon="16.071366077402686"><ele>992.5</ele><time>2026-03-27T09:08:17.999Z</time></trkpt><trkpt lat="39.87319094495726" lon="16.071647285079322"><ele>994.0</ele><time>2026-03-27T09:08:18.999Z</time></trkpt><trkpt lat="39.87299826852571" lon="16.071922965266825"><ele>994.0</ele><time>2026-03-27T09:08:19.999Z</time></trkpt><trkpt lat="39.87281457637996" lon="16.07219452851863"><ele>994.0</ele><time>2026-03-27T09:08:20.999Z</time></trkpt><trkpt lat="39.87264318264873" lon="16.072462749335667"><ele>990.5</ele><time>2026-03-27T09:08:22Z</time></trkpt><trkpt lat="39.87247649052647" lon="16.072735307587187"><ele>987.0</ele><time>2026-03-27T09:08:23Z</time></trkpt><trkpt lat="39.87231570257765" lon="16.0730106039939"><ele>988.0</ele><time>2026-03-27T09:08:24Z</time></trkpt><trkpt lat="39.872159727743266" lon="16.073292165614415"><ele>989.0</ele><time>2026-03-27T09:08:25Z</time></trkpt><trkpt lat="39.872003124653176" lon="16.07357878599873"><ele>989.0</ele><time>2026-03-27T09:08:26Z</time></trkpt><trkpt lat="39.871841610246534" lon="16.073866056071264"><ele>989.0</ele><time>2026-03-27T09:08:27Z</time></trkpt><trkpt lat="39.8716808968766" lon="16.074149254489093"><ele>986.5</ele><time>2026-03-27T09:08:28Z</time></trkpt><trkpt lat="39.8715141162854" lon="16.074441298144563"><ele>984.0</ele><time>2026-03-27T09:08:29Z</time></trkpt><trkpt lat="39.87134576086865" lon="16.074735492409204"><ele>984.5</ele><time>2026-03-27T09:08:30Z</time></trkpt><trkpt lat="39.8711725730603" lon="16.075040307529495"><ele>985.0</ele><time>2026-03-27T09:08:31Z</time></trkpt><trkpt lat="39.87099666529011" lon="16.075344445864094"><ele>983.0</ele><time>2026-03-27T09:08:32Z</time></trkpt><trkpt lat="39.87081836371023" lon="16.07565115533558"><ele>981.0</ele><time>2026-03-27T09:08:33Z</time></trkpt><trkpt lat="39.87063139813875" lon="16.075955871069134"><ele>981.0</ele><time>2026-03-27T09:08:34Z</time></trkpt><trkpt lat="39.87044117495224" lon="16.076259682448082"><ele>981.0</ele><time>2026-03-27T09:08:35Z</time></trkpt><trkpt lat="39.87024412652092" lon="16.076552589492984"><ele>980.0</ele><time>2026-03-27T09:08:36Z</time></trkpt><trkpt lat="39.87003804341746" lon="16.076833716122067"><ele>979.0</ele><time>2026-03-27T09:08:37Z</time></trkpt><trkpt lat="39.86981719850897" lon="16.07709614194329"><ele>979.0</ele><time>2026-03-27T09:08:38Z</time></trkpt><trkpt lat="39.869587889057755" lon="16.077345728745264"><ele>979.0</ele><time>2026-03-27T09:08:39Z</time></trkpt><trkpt lat="39.869357482051925" lon="16.077590809948482"><ele>978.0</ele><time>2026-03-27T09:08:40Z</time></trkpt><trkpt lat="39.86911969699297" lon="16.077826650613662"><ele>977.0</ele><time>2026-03-27T09:08:41Z</time></trkpt><trkpt lat="39.86887676451685" lon="16.078050501304624"><ele>977.0</ele><time>2026-03-27T09:08:42Z</time></trkpt><trkpt lat="39.86862920131661" lon="16.078261570406102"><ele>977.0</ele><time>2026-03-27T09:08:43Z</time></trkpt><trkpt lat="39.86837932597225" lon="16.078466770474314"><ele>978.5</ele><time>2026-03-27T09:08:44Z</time></trkpt><trkpt lat="39.86813019837123" lon="16.078667879535413"><ele>980.0</ele><time>2026-03-27T09:08:45Z</time></trkpt><trkpt lat="39.867882556417264" lon="16.078866660738882"><ele>980.0</ele><time>2026-03-27T09:08:46Z</time></trkpt><trkpt lat="39.86763649780863" lon="16.079064083405367"><ele>980.0</ele><time>2026-03-27T09:08:47Z</time></trkpt><trkpt lat="39.86739159191564" lon="16.079261843898106"><ele>986.0</ele><time>2026-03-27T09:08:48Z</time></trkpt><trkpt lat="39.86714891849492" lon="16.079460183943887"><ele>992.0</ele><time>2026-03-27T09:08:49Z</time></trkpt><trkpt lat="39.86691019484636" lon="16.079663892319754"><ele>990.0</ele><time>2026-03-27T09:08:50Z</time></trkpt><trkpt lat="39.86667321862766" lon="16.079872491506578"><ele>988.0</ele><time>2026-03-27T09:08:51Z</time></trkpt><trkpt lat="39.8664402288939" lon="16.080083163744515"><ele>1000.5</ele><time>2026-03-27T09:08:52Z</time></trkpt><trkpt lat="39.86620738341442" lon="16.08029762885044"><ele>1013.0</ele><time>2026-03-27T09:08:53Z</time></trkpt><trkpt lat="39.86597310901693" lon="16.080516029907102"><ele>1008.0</ele><time>2026-03-27T09:08:54Z</time></trkpt><trkpt lat="39.8657372383015" lon="16.080727106774464"><ele>1003.0</ele><time>2026-03-27T09:08:55Z</time></trkpt><trkpt lat="39.86548706981593" lon="16.080959446332006"><ele>1006.0</ele><time>2026-03-27T09:08:56.069Z</time></trkpt><trkpt lat="39.86525413741151" lon="16.081180177212296"><ele>1009.0</ele><time>2026-03-27T09:08:57.067Z</time></trkpt><trkpt lat="39.86502139758386" lon="16.081403624369614"><ele>1008.0</ele><time>2026-03-27T09:08:58.061Z</time></trkpt><trkpt lat="39.86479037751025" lon="16.081627239965222"><ele>1007.0</ele><time>2026-03-27T09:08:59.061Z</time></trkpt><trkpt lat="39.86426556364551" lon="16.083095891786087"><ele>1006.5</ele><time>2026-03-27T09:09:03Z</time></trkpt><trkpt lat="39.864199070713084" lon="16.083442533576967"><ele>1006.0</ele><time>2026-03-27T09:09:04Z</time></trkpt><trkpt lat="39.86410734931637" lon="16.083787256623776"><ele>1006.0</ele><time>2026-03-27T09:09:05Z</time></trkpt><trkpt lat="39.86398996385414" lon="16.08412197114337"><ele>1006.0</ele><time>2026-03-27T09:09:06Z</time></trkpt><trkpt lat="39.86389397792161" lon="16.0844574529611"><ele>1006.0</ele><time>2026-03-27T09:09:07Z</time></trkpt><trkpt lat="39.86380501642155" lon="16.084791919284502"><ele>1006.0</ele><time>2026-03-27T09:09:08Z</time></trkpt><trkpt lat="39.86372897419008" lon="16.085132219267226"><ele>1005.5</ele><time>2026-03-27T09:09:09Z</time></trkpt><trkpt lat="39.86366326569415" lon="16.085476451332497"><ele>1005.0</ele><time>2026-03-27T09:09:10Z</time></trkpt><trkpt lat="39.86361266266888" lon="16.085828934443494"><ele>1004.5</ele><time>2026-03-27T09:09:11Z</time></trkpt><trkpt lat="39.86356779522167" lon="16.086187205357703"><ele>1004.0</ele><time>2026-03-27T09:09:12Z</time></trkpt><trkpt lat="39.86353206532714" lon="16.086546509834754"><ele>1004.5</ele><time>2026-03-27T09:09:13Z</time></trkpt><trkpt lat="39.863508619041816" lon="16.086907438404833"><ele>1005.0</ele><time>2026-03-27T09:09:14Z</time></trkpt><trkpt lat="39.863494366816944" lon="16.087269311394575"><ele>1006.0</ele><time>2026-03-27T09:09:15Z</time></trkpt><trkpt lat="39.86349236265384" lon="16.087635999173674"><ele>1007.0</ele><time>2026-03-27T09:09:16Z</time></trkpt><trkpt lat="39.86350048128202" lon="16.08800762244756"><ele>1007.5</ele><time>2026-03-27T09:09:17Z</time></trkpt><trkpt lat="39.86352330152411" lon="16.08837271578087"><ele>1008.0</ele><time>2026-03-27T09:09:18Z</time></trkpt><trkpt lat="39.863556451987634" lon="16.08873581699448"><ele>1009.0</ele><time>2026-03-27T09:09:19Z</time></trkpt><trkpt lat="39.863603447803605" lon="16.08909532585542"><ele>1010.0</ele><time>2026-03-27T09:09:20Z</time></trkpt><trkpt lat="39.86365657747315" lon="16.089450404533913"><ele>1010.0</ele><time>2026-03-27T09:09:21Z</time></trkpt><trkpt lat="39.86372642584097" lon="16.089800063139567"><ele>1010.0</ele><time>2026-03-27T09:09:22Z</time></trkpt><trkpt lat="39.86380652681354" lon="16.090139887710556"><ele>1011.0</ele><time>2026-03-27T09:09:23Z</time></trkpt><trkpt lat="39.86389108713174" lon="16.09047690695155"><ele>1012.0</ele><time>2026-03-27T09:09:24Z</time></trkpt><trkpt lat="39.86398356048683" lon="16.090807089112005"><ele>1013.5</ele><time>2026-03-27T09:09:25Z</time></trkpt><trkpt lat="39.86408628684882" lon="16.091130990056083"><ele>1015.0</ele><time>2026-03-27T09:09:26Z</time></trkpt><trkpt lat="39.86419789491134" lon="16.091450849928655"><ele>1017.0</ele><time>2026-03-27T09:09:26.999Z</time></trkpt><trkpt lat="39.864319397447844" lon="16.091771887255756"><ele>1019.0</ele><time>2026-03-27T09:09:27.999Z</time></trkpt><trkpt lat="39.86444951768558" lon="16.092091548027422"><ele>1019.0</ele><time>2026-03-27T09:09:28.999Z</time></trkpt><trkpt lat="39.86458465681623" lon="16.092415258513405"><ele>1019.0</ele><time>2026-03-27T09:09:29.999Z</time></trkpt><trkpt lat="39.864711199542384" lon="16.09275532518763"><ele>1022.0</ele><time>2026-03-27T09:09:30.999Z</time></trkpt><trkpt lat="39.864832546536995" lon="16.093105046436502"><ele>1025.0</ele><time>2026-03-27T09:09:31.999Z</time></trkpt><trkpt lat="39.864947975611585" lon="16.093465858593582"><ele>1037.0</ele><time>2026-03-27T09:09:32.999Z</time></trkpt><trkpt lat="39.86506722707446" lon="16.09381810506785"><ele>1049.0</ele><time>2026-03-27T09:09:33.999Z</time></trkpt><trkpt lat="39.86518265814635" lon="16.09417620913861"><ele>1055.0</ele><time>2026-03-27T09:09:34.999Z</time></trkpt><trkpt lat="39.86530085272795" lon="16.094527719475604"><ele>1061.0</ele><time>2026-03-27T09:09:35.999Z</time></trkpt><trkpt lat="39.865422966676086" lon="16.09491268727291"><ele>1071.5</ele><time>2026-03-27T09:09:37.071Z</time></trkpt><trkpt lat="39.865536746159265" lon="16.09527093240974"><ele>1082.0</ele><time>2026-03-27T09:09:38.067Z</time></trkpt><trkpt lat="39.86714063841167" lon="16.09896246720338"><ele>1038.5</ele><time>2026-03-27T09:09:48.999Z</time></trkpt><trkpt lat="39.867245226463965" lon="16.099329233937063"><ele>995.0</ele><time>2026-03-27T09:09:49.999Z</time></trkpt><trkpt lat="39.867274337125956" lon="16.099669289033283"><ele>997.5</ele><time>2026-03-27T09:09:50.999Z</time></trkpt><trkpt lat="39.86734738981988" lon="16.099977131789377"><ele>1000.0</ele><time>2026-03-27T09:09:51.999Z</time></trkpt><trkpt lat="39.867392378630484" lon="16.1003319681682"><ele>1000.0</ele><time>2026-03-27T09:09:52.999Z</time></trkpt><trkpt lat="39.867437252197334" lon="16.10068986049151"><ele>1000.0</ele><time>2026-03-27T09:09:53.999Z</time></trkpt><trkpt lat="39.86746833759519" lon="16.101041458843504"><ele>1003.0</ele><time>2026-03-27T09:09:54.999Z</time></trkpt><trkpt lat="39.86749522931369" lon="16.101395950479418"><ele>1006.0</ele><time>2026-03-27T09:09:55.999Z</time></trkpt><trkpt lat="39.86751581788804" lon="16.10175180531384"><ele>1006.0</ele><time>2026-03-27T09:09:56.999Z</time></trkpt><trkpt lat="39.867535274957525" lon="16.10210527893596"><ele>1006.0</ele><time>2026-03-27T09:09:57.999Z</time></trkpt><trkpt lat="39.867551108040345" lon="16.102461418281713"><ele>1002.0</ele><time>2026-03-27T09:09:58.999Z</time></trkpt><trkpt lat="39.86756040579016" lon="16.102827482695606"><ele>998.0</ele><time>2026-03-27T09:09:59.999Z</time></trkpt><trkpt lat="39.867572438161275" lon="16.103191842598545"><ele>994.0</ele><time>2026-03-27T09:10:00.999Z</time></trkpt><trkpt lat="39.86757852465934" lon="16.103566432918118"><ele>990.0</ele><time>2026-03-27T09:10:01.999Z</time></trkpt><trkpt lat="39.86758956775781" lon="16.103937096759232"><ele>986.5</ele><time>2026-03-27T09:10:02.999Z</time></trkpt><trkpt lat="39.86760412957677" lon="16.104320729303755"><ele>983.0</ele><time>2026-03-27T09:10:03.999Z</time></trkpt><trkpt lat="39.86761662109924" lon="16.10469518275355"><ele>996.0</ele><time>2026-03-27T09:10:04.999Z</time></trkpt><trkpt lat="39.86763674291749" lon="16.105067605800333"><ele>1009.0</ele><time>2026-03-27T09:10:05.999Z</time></trkpt><trkpt lat="39.867655782124274" lon="16.10544394990034"><ele>1006.5</ele><time>2026-03-27T09:10:06.999Z</time></trkpt><trkpt lat="39.86767079152835" lon="16.105824690903056"><ele>1004.0</ele><time>2026-03-27T09:10:07.999Z</time></trkpt><trkpt lat="39.86768824513274" lon="16.106193227895712"><ele>1004.0</ele><time>2026-03-27T09:10:08.999Z</time></trkpt><trkpt lat="39.86770790069159" lon="16.106572110021855"><ele>1004.0</ele><time>2026-03-27T09:10:09.999Z</time></trkpt><trkpt lat="39.86773239394951" lon="16.106951928230867"><ele>1009.0</ele><time>2026-03-27T09:10:10.999Z</time></trkpt><trkpt lat="39.867758372587495" lon="16.10732484046801"><ele>1014.0</ele><time>2026-03-27T09:10:11.999Z</time></trkpt><trkpt lat="39.867797504961885" lon="16.10769806204458"><ele>1014.0</ele><time>2026-03-27T09:10:12.999Z</time></trkpt><trkpt lat="39.86783350757479" lon="16.108061662274505"><ele>1014.0</ele><time>2026-03-27T09:10:13.999Z</time></trkpt><trkpt lat="39.86786875967779" lon="16.10841309389662"><ele>1009.5</ele><time>2026-03-27T09:10:14.999Z</time></trkpt><trkpt lat="39.867905413466644" lon="16.108750657494323"><ele>1005.0</ele><time>2026-03-27T09:10:15.999Z</time></trkpt><trkpt lat="39.86794070034431" lon="16.109094696452456"><ele>995.5</ele><time>2026-03-27T09:10:16.999Z</time></trkpt><trkpt lat="39.867975660626286" lon="16.109440256921715"><ele>986.0</ele><time>2026-03-27T09:10:17.999Z</time></trkpt><trkpt lat="39.86801653149099" lon="16.109788409637904"><ele>986.5</ele><time>2026-03-27T09:10:18.999Z</time></trkpt><trkpt lat="39.86805597235542" lon="16.11014174594781"><ele>987.0</ele><time>2026-03-27T09:10:19.999Z</time></trkpt><trkpt lat="39.8681068728885" lon="16.110496125950572"><ele>986.5</ele><time>2026-03-27T09:10:20.999Z</time></trkpt><trkpt lat="39.86814715521013" lon="16.110852202045322"><ele>986.0</ele><time>2026-03-27T09:10:21.999Z</time></trkpt><trkpt lat="39.86818679517699" lon="16.111212757870483"><ele>986.0</ele><time>2026-03-27T09:10:22.999Z</time></trkpt><trkpt lat="39.868228115075816" lon="16.111576540041717"><ele>986.0</ele><time>2026-03-27T09:10:23.999Z</time></trkpt><trkpt lat="39.86826936601207" lon="16.11194222696189"><ele>986.0</ele><time>2026-03-27T09:10:24.999Z</time></trkpt><trkpt lat="39.868310230125275" lon="16.1123093667389"><ele>986.0</ele><time>2026-03-27T09:10:25.999Z</time></trkpt><trkpt lat="39.86835453482424" lon="16.112678234701594"><ele>984.0</ele><time>2026-03-27T09:10:26.999Z</time></trkpt><trkpt lat="39.86840439804642" lon="16.11304369616023"><ele>982.0</ele><time>2026-03-27T09:10:28Z</time></trkpt><trkpt lat="39.86846113285522" lon="16.113405178967444"><ele>978.0</ele><time>2026-03-27T09:10:29Z</time></trkpt><trkpt lat="39.86852391732317" lon="16.113766782410504"><ele>974.0</ele><time>2026-03-27T09:10:30Z</time></trkpt><trkpt lat="39.86858943315335" lon="16.114123048666716"><ele>970.0</ele><time>2026-03-27T09:10:31Z</time></trkpt><trkpt lat="39.868658067845054" lon="16.11448010980745"><ele>966.0</ele><time>2026-03-27T09:10:32Z</time></trkpt><trkpt lat="39.86872842744897" lon="16.114836971943788"><ele>971.5</ele><time>2026-03-27T09:10:33Z</time></trkpt><trkpt lat="39.868799099497316" lon="16.1151934476916"><ele>977.0</ele><time>2026-03-27T09:10:34Z</time></trkpt><trkpt lat="39.868870136775215" lon="16.1155474651992"><ele>978.5</ele><time>2026-03-27T09:10:35Z</time></trkpt><trkpt lat="39.868935032747494" lon="16.11589615181392"><ele>980.0</ele><time>2026-03-27T09:10:36Z</time></trkpt><trkpt lat="39.86899931150564" lon="16.116232411042034"><ele>980.0</ele><time>2026-03-27T09:10:37Z</time></trkpt><trkpt lat="39.86906363947357" lon="16.1165692746409"><ele>980.0</ele><time>2026-03-27T09:10:38Z</time></trkpt><trkpt lat="39.86912759108534" lon="16.116906874273077"><ele>979.5</ele><time>2026-03-27T09:10:39Z</time></trkpt><trkpt lat="39.869192311535315" lon="16.1172430432955"><ele>979.0</ele><time>2026-03-27T09:10:40Z</time></trkpt><trkpt lat="39.86925855237616" lon="16.117576447293036"><ele>977.5</ele><time>2026-03-27T09:10:41Z</time></trkpt><trkpt lat="39.86932749967846" lon="16.117902995626533"><ele>976.0</ele><time>2026-03-27T09:10:42Z</time></trkpt><trkpt lat="39.86940411410452" lon="16.118219842655233"><ele>964.5</ele><time>2026-03-27T09:10:43Z</time></trkpt><trkpt lat="39.86948657047167" lon="16.118532134634616"><ele>953.0</ele><time>2026-03-27T09:10:44Z</time></trkpt><trkpt lat="39.86957665008586" lon="16.118836638334475"><ele>951.0</ele><time>2026-03-27T09:10:45Z</time></trkpt><trkpt lat="39.869675434632775" lon="16.119141136155097"><ele>949.0</ele><time>2026-03-27T09:10:46Z</time></trkpt><trkpt lat="39.86978237382727" lon="16.119444706064574"><ele>949.0</ele><time>2026-03-27T09:10:47Z</time></trkpt><trkpt lat="39.86989749064227" lon="16.11974920792409"><ele>949.0</ele><time>2026-03-27T09:10:48Z</time></trkpt><trkpt lat="39.870022422425315" lon="16.12004971756839"><ele>972.5</ele><time>2026-03-27T09:10:49Z</time></trkpt><trkpt lat="39.870155224769164" lon="16.120345738989677"><ele>996.0</ele><time>2026-03-27T09:10:50Z</time></trkpt><trkpt lat="39.87029884379393" lon="16.12064211921412"><ele>1004.5</ele><time>2026-03-27T09:10:51Z</time></trkpt><trkpt lat="39.87045262631369" lon="16.120939438362516"><ele>1013.0</ele><time>2026-03-27T09:10:52Z</time></trkpt><trkpt lat="39.870609639600424" lon="16.121233341767958"><ele>1013.0</ele><time>2026-03-27T09:10:53Z</time></trkpt><trkpt lat="39.870759071139915" lon="16.12152838170817"><ele>1013.0</ele><time>2026-03-27T09:10:54Z</time></trkpt><trkpt lat="39.870913223880926" lon="16.121825192093883"><ele>1023.5</ele><time>2026-03-27T09:10:55Z</time></trkpt><trkpt lat="39.871069221349316" lon="16.122122826308026"><ele>1034.0</ele><time>2026-03-27T09:10:56Z</time></trkpt><trkpt lat="39.87121556402399" lon="16.12242248796909"><ele>1034.0</ele><time>2026-03-27T09:10:57Z</time></trkpt><trkpt lat="39.871375622394616" lon="16.12272394874249"><ele>1034.0</ele><time>2026-03-27T09:10:58Z</time></trkpt><trkpt lat="39.87154156320526" lon="16.123046939147983"><ele>1032.0</ele><time>2026-03-27T09:10:59.065Z</time></trkpt><trkpt lat="39.87169991721608" lon="16.123352319388186"><ele>1030.0</ele><time>2026-03-27T09:11:00.067Z</time></trkpt><trkpt lat="39.871860780635416" lon="16.123654129081295"><ele>1030.0</ele><time>2026-03-27T09:11:01.067Z</time></trkpt><trkpt lat="39.87201081612138" lon="16.12394113156972"><ele>1030.0</ele><time>2026-03-27T09:11:02.038Z</time></trkpt><trkpt lat="39.87349645685044" lon="16.126450498653877"><ele>868.0</ele><time>2026-03-27T09:11:12.316Z</time></trkpt><trkpt lat="39.87421093184011" lon="16.127530682042725"><ele>932.0</ele><time>2026-03-27T09:11:17.681Z</time></trkpt><trkpt lat="39.87746775833076" lon="16.127566423736287"><ele>924.0</ele><time>2026-03-27T09:11:22Z</time></trkpt><trkpt lat="39.87763523857937" lon="16.127623185213043"><ele>916.0</ele><time>2026-03-27T09:11:23Z</time></trkpt><trkpt lat="39.87786284978192" lon="16.127785668284385"><ele>908.0</ele><time>2026-03-27T09:11:24Z</time></trkpt><trkpt lat="39.87806452252986" lon="16.127951275443433"><ele>908.0</ele><time>2026-03-27T09:11:25Z</time></trkpt><trkpt lat="39.87826802073573" lon="16.128129880052803"><ele>908.0</ele><time>2026-03-27T09:11:26Z</time></trkpt><trkpt lat="39.87845147043" lon="16.12827731129635"><ele>896.6666666666667</ele><time>2026-03-27T09:11:27Z</time></trkpt><trkpt lat="39.878627491325084" lon="16.12841953473055"><ele>885.3333333333333</ele><time>2026-03-27T09:11:28Z</time></trkpt><trkpt lat="39.87879682544092" lon="16.1285533554921"><ele>874.0</ele><time>2026-03-27T09:11:29Z</time></trkpt><trkpt lat="39.87895914473947" lon="16.128680078323182"><ele>874.0</ele><time>2026-03-27T09:11:30Z</time></trkpt><trkpt lat="39.87911652006281" lon="16.128812493123164"><ele>874.0</ele><time>2026-03-27T09:11:31Z</time></trkpt><trkpt lat="39.879273996730035" lon="16.12893815852686"><ele>874.0</ele><time>2026-03-27T09:11:31.999Z</time></trkpt><trkpt lat="39.87942967573814" lon="16.12906804952381"><ele>876.6666666666666</ele><time>2026-03-27T09:11:32.999Z</time></trkpt><trkpt lat="39.87958695462198" lon="16.12919939841338"><ele>879.3333333333333</ele><time>2026-03-27T09:11:33.999Z</time></trkpt><trkpt lat="39.87974672010464" lon="16.12933080708259"><ele>882.0</ele><time>2026-03-27T09:11:34.999Z</time></trkpt><trkpt lat="39.8799111485891" lon="16.129464776801075"><ele>882.0</ele><time>2026-03-27T09:11:35.999Z</time></trkpt><trkpt lat="39.88007825418888" lon="16.12960721147301"><ele>882.0</ele><time>2026-03-27T09:11:36.999Z</time></trkpt><trkpt lat="39.88024511545955" lon="16.129756908437262"><ele>882.0</ele><time>2026-03-27T09:11:37.999Z</time></trkpt><trkpt lat="39.88041372689584" lon="16.12991144261232"><ele>897.6666666666667</ele><time>2026-03-27T09:11:38.999Z</time></trkpt><trkpt lat="39.88057785303621" lon="16.130084729228184"><ele>913.3333333333334</ele><time>2026-03-27T09:11:39.999Z</time></trkpt><trkpt lat="39.880741551709384" lon="16.130279704993516"><ele>929.0</ele><time>2026-03-27T09:11:40.999Z</time></trkpt><trkpt lat="39.88090140585397" lon="16.130483416978286"><ele>937.5</ele><time>2026-03-27T09:11:41.999Z</time></trkpt><trkpt lat="39.881062728140066" lon="16.130690682352935"><ele>946.0</ele><time>2026-03-27T09:11:42.999Z</time></trkpt><trkpt lat="39.881231818185725" lon="16.13089848568026"><ele>946.0</ele><time>2026-03-27T09:11:43.999Z</time></trkpt><trkpt lat="39.881402182235036" lon="16.13110681738512"><ele>946.0</ele><time>2026-03-27T09:11:44.999Z</time></trkpt><trkpt lat="39.88157391217666" lon="16.131319149982478"><ele>946.0</ele><time>2026-03-27T09:11:45.999Z</time></trkpt><trkpt lat="39.881747336450466" lon="16.131531871824187"><ele>946.0</ele><time>2026-03-27T09:11:46.999Z</time></trkpt><trkpt lat="39.88192225691636" lon="16.13174768598104"><ele>943.0</ele><time>2026-03-27T09:11:47.999Z</time></trkpt><trkpt lat="39.88209819853033" lon="16.13196738271741"><ele>940.0</ele><time>2026-03-27T09:11:48.999Z</time></trkpt><trkpt lat="39.88227651650304" lon="16.132183483905425"><ele>938.5</ele><time>2026-03-27T09:11:49.999Z</time></trkpt><trkpt lat="39.8824573118032" lon="16.132404951049892"><ele>937.0</ele><time>2026-03-27T09:11:50.999Z</time></trkpt><trkpt lat="39.88263583941912" lon="16.132628741015377"><ele>937.0</ele><time>2026-03-27T09:11:51.999Z</time></trkpt><trkpt lat="39.88281392113189" lon="16.13285512561958"><ele>937.0</ele><time>2026-03-27T09:11:52.999Z</time></trkpt><trkpt lat="39.88299389577518" lon="16.133081825824767"><ele>928.0</ele><time>2026-03-27T09:11:53.999Z</time></trkpt><trkpt lat="39.88317387169824" lon="16.13330843809809"><ele>919.0</ele><time>2026-03-27T09:11:54.999Z</time></trkpt><trkpt lat="39.883353250700516" lon="16.133534922443413"><ele>927.0</ele><time>2026-03-27T09:11:55.999Z</time></trkpt><trkpt lat="39.883534453676724" lon="16.133761741576343"><ele>935.0</ele><time>2026-03-27T09:11:56.999Z</time></trkpt><trkpt lat="39.883720944240366" lon="16.133987766982106"><ele>936.5</ele><time>2026-03-27T09:11:57.999Z</time></trkpt><trkpt lat="39.88391017217061" lon="16.134216994654675"><ele>938.0</ele><time>2026-03-27T09:11:58.999Z</time></trkpt><trkpt lat="39.88409456515988" lon="16.134445829255608"><ele>952.5</ele><time>2026-03-27T09:11:59.999Z</time></trkpt><trkpt lat="39.88427683943193" lon="16.13467397690955"><ele>967.0</ele><time>2026-03-27T09:12:00.999Z</time></trkpt><trkpt lat="39.88445627755902" lon="16.134897291808986"><ele>978.5</ele><time>2026-03-27T09:12:01.999Z</time></trkpt><trkpt lat="39.884631387204294" lon="16.135115513602823"><ele>990.0</ele><time>2026-03-27T09:12:02.999Z</time></trkpt><trkpt lat="39.88481185380384" lon="16.135329582218606"><ele>990.0</ele><time>2026-03-27T09:12:03.999Z</time></trkpt><trkpt lat="39.8849904764282" lon="16.13555102409396"><ele>990.0</ele><time>2026-03-27T09:12:04.999Z</time></trkpt><trkpt lat="39.88518314975926" lon="16.13579151805669"><ele>1002.0</ele><time>2026-03-27T09:12:06.068Z</time></trkpt><trkpt lat="39.8853632178425" lon="16.13601567883671"><ele>1014.0</ele><time>2026-03-27T09:12:07.063Z</time></trkpt><trkpt lat="39.88554137684399" lon="16.136241273281335"><ele>1014.0</ele><time>2026-03-27T09:12:08.06Z</time></trkpt><trkpt lat="39.885720881553965" lon="16.136466729884486"><ele>1014.0</ele><time>2026-03-27T09:12:09.059Z</time></trkpt><trkpt lat="39.88589736358501" lon="16.136689422737593"><ele>960.0</ele><time>2026-03-27T09:12:10.058Z</time></trkpt><trkpt lat="39.88733804696207" lon="16.138544956464894"><ele>939.0</ele><time>2026-03-27T09:12:13.207Z</time></trkpt><trkpt lat="39.88805320578385" lon="16.139750479941274"><ele>869.0</ele><time>2026-03-27T09:12:14.209Z</time></trkpt><trkpt lat="39.888620105644534" lon="16.141076648937123"><ele>869.0</ele><time>2026-03-27T09:12:23.999Z</time></trkpt><trkpt lat="39.88873307981954" lon="16.141366038025822"><ele>869.0</ele><time>2026-03-27T09:12:24.999Z</time></trkpt><trkpt lat="39.88886220988895" lon="16.141705890403554"><ele>867.5</ele><time>2026-03-27T09:12:25.999Z</time></trkpt><trkpt lat="39.88898262372852" lon="16.14203428643974"><ele>866.0</ele><time>2026-03-27T09:12:26.999Z</time></trkpt><trkpt lat="39.88907885041687" lon="16.142367741714363"><ele>871.0</ele><time>2026-03-27T09:12:27.999Z</time></trkpt><trkpt lat="39.889173074021926" lon="16.14271108953114"><ele>876.0</ele><time>2026-03-27T09:12:28.999Z</time></trkpt><trkpt lat="39.88925328799731" lon="16.14305593145241"><ele>885.5</ele><time>2026-03-27T09:12:29.999Z</time></trkpt><trkpt lat="39.88932219308928" lon="16.143409923913325"><ele>895.0</ele><time>2026-03-27T09:12:30.999Z</time></trkpt><trkpt lat="39.889386744347384" lon="16.143770239825276"><ele>895.5</ele><time>2026-03-27T09:12:31.999Z</time></trkpt><trkpt lat="39.88943914418161" lon="16.144131679998253"><ele>896.0</ele><time>2026-03-27T09:12:32.999Z</time></trkpt><trkpt lat="39.88949015831369" lon="16.14449604288074"><ele>896.0</ele><time>2026-03-27T09:12:34Z</time></trkpt><trkpt lat="39.88953241145678" lon="16.144861874486235"><ele>896.0</ele><time>2026-03-27T09:12:35Z</time></trkpt><trkpt lat="39.88956213541896" lon="16.145218782004275"><ele>898.5</ele><time>2026-03-27T09:12:36Z</time></trkpt><trkpt lat="39.88958458257933" lon="16.145576081453587"><ele>901.0</ele><time>2026-03-27T09:12:37Z</time></trkpt><trkpt lat="39.88959606554711" lon="16.14593101441277"><ele>901.0</ele><time>2026-03-27T09:12:38Z</time></trkpt><trkpt lat="39.889597594089715" lon="16.146291010699578"><ele>901.0</ele><time>2026-03-27T09:12:39Z</time></trkpt><trkpt lat="39.88959248122924" lon="16.14665434120128"><ele>896.5</ele><time>2026-03-27T09:12:40Z</time></trkpt><trkpt lat="39.8895808934133" lon="16.147018745925344"><ele>892.0</ele><time>2026-03-27T09:12:41Z</time></trkpt><trkpt lat="39.88955830736415" lon="16.14738429529681"><ele>892.0</ele><time>2026-03-27T09:12:42Z</time></trkpt><trkpt lat="39.88952670504087" lon="16.14774399869329"><ele>892.0</ele><time>2026-03-27T09:12:43Z</time></trkpt><trkpt lat="39.889503304089246" lon="16.148110503112758"><ele>895.5</ele><time>2026-03-27T09:12:44Z</time></trkpt><trkpt lat="39.88944460773735" lon="16.148460280250024"><ele>899.0</ele><time>2026-03-27T09:12:45Z</time></trkpt><trkpt lat="39.889377331750055" lon="16.148810773781126"><ele>898.5</ele><time>2026-03-27T09:12:46Z</time></trkpt><trkpt lat="39.88930542670072" lon="16.14915928471139"><ele>898.0</ele><time>2026-03-27T09:12:47Z</time></trkpt><trkpt lat="39.889223839259586" lon="16.14950858178136"><ele>888.5</ele><time>2026-03-27T09:12:48Z</time></trkpt><trkpt lat="39.88914189531018" lon="16.14985410627488"><ele>879.0</ele><time>2026-03-27T09:12:49Z</time></trkpt><trkpt lat="39.88904695028288" lon="16.150198135014147"><ele>878.5</ele><time>2026-03-27T09:12:50Z</time></trkpt><trkpt lat="39.88894654716571" lon="16.15052542567461"><ele>878.0</ele><time>2026-03-27T09:12:51Z</time></trkpt><trkpt lat="39.88884388098012" lon="16.1508467569115"><ele>888.0</ele><time>2026-03-27T09:12:52Z</time></trkpt><trkpt lat="39.88875070457818" lon="16.15117568582421"><ele>898.0</ele><time>2026-03-27T09:12:53Z</time></trkpt><trkpt lat="39.888665213341866" lon="16.1514978955447"><ele>904.0</ele><time>2026-03-27T09:12:54Z</time></trkpt><trkpt lat="39.88857983879962" lon="16.151818060719137"><ele>910.0</ele><time>2026-03-27T09:12:55Z</time></trkpt><trkpt lat="39.88849232888928" lon="16.15213829348048"><ele>892.0</ele><time>2026-03-27T09:12:56Z</time></trkpt><trkpt lat="39.88832155532044" lon="16.152428083594852"><ele>874.0</ele><time>2026-03-27T09:12:57Z</time></trkpt><trkpt lat="39.88821934275198" lon="16.15280153419171"><ele>874.0</ele><time>2026-03-27T09:12:58Z</time></trkpt><trkpt lat="39.888069549732485" lon="16.15313528962139"><ele>874.0</ele><time>2026-03-27T09:12:59Z</time></trkpt><trkpt lat="39.887905683569784" lon="16.15347190742758"><ele>874.5</ele><time>2026-03-27T09:13:00Z</time></trkpt><trkpt lat="39.88774905797696" lon="16.153793338081314"><ele>875.0</ele><time>2026-03-27T09:13:01Z</time></trkpt><trkpt lat="39.88758438938335" lon="16.154109806251174"><ele>867.0</ele><time>2026-03-27T09:13:02Z</time></trkpt><trkpt lat="39.88741492898197" lon="16.15442229783903"><ele>859.0</ele><time>2026-03-27T09:13:03Z</time></trkpt><trkpt lat="39.88724050649817" lon="16.154733622655066"><ele>867.0</ele><time>2026-03-27T09:13:04Z</time></trkpt><trkpt lat="39.887065152334166" lon="16.155037307078224"><ele>875.0</ele><time>2026-03-27T09:13:05Z</time></trkpt><trkpt lat="39.886880034475155" lon="16.155337024428913"><ele>865.5</ele><time>2026-03-27T09:13:06Z</time></trkpt><trkpt lat="39.886702260836884" lon="16.155638600134868"><ele>856.0</ele><time>2026-03-27T09:13:07Z</time></trkpt><trkpt lat="39.886530293069846" lon="16.155926819889483"><ele>856.0</ele><time>2026-03-27T09:13:08Z</time></trkpt><trkpt lat="39.88636917377249" lon="16.15619796462992"><ele>856.0</ele><time>2026-03-27T09:13:09Z</time></trkpt><trkpt lat="39.88621183240832" lon="16.156463889186192"><ele>856.5</ele><time>2026-03-27T09:13:10Z</time></trkpt><trkpt lat="39.88605507386545" lon="16.156728942799063"><ele>857.0</ele><time>2026-03-27T09:13:11Z</time></trkpt><trkpt lat="39.88589637503402" lon="16.156992015814996"><ele>856.5</ele><time>2026-03-27T09:13:12Z</time></trkpt><trkpt lat="39.88573272867659" lon="16.157254813966023"><ele>856.0</ele><time>2026-03-27T09:13:13Z</time></trkpt><trkpt lat="39.88556880207512" lon="16.15751977271377"><ele>856.0</ele><time>2026-03-27T09:13:14Z</time></trkpt><trkpt lat="39.88540036829319" lon="16.157787252601974"><ele>856.0</ele><time>2026-03-27T09:13:15Z</time></trkpt><trkpt lat="39.885220585585316" lon="16.1580490831856"><ele>852.0</ele><time>2026-03-27T09:13:16Z</time></trkpt><trkpt lat="39.88502711931037" lon="16.158302198051857"><ele>848.0</ele><time>2026-03-27T09:13:17Z</time></trkpt><trkpt lat="39.884825516646345" lon="16.15854516265533"><ele>848.0</ele><time>2026-03-27T09:13:18Z</time></trkpt><trkpt lat="39.88461463562368" lon="16.158784065462854"><ele>848.0</ele><time>2026-03-27T09:13:19Z</time></trkpt><trkpt lat="39.88440057968628" lon="16.159021798768382"><ele>846.5</ele><time>2026-03-27T09:13:20Z</time></trkpt><trkpt lat="39.88418078242434" lon="16.159254734487583"><ele>845.0</ele><time>2026-03-27T09:13:21Z</time></trkpt><trkpt lat="39.88395729469564" lon="16.15947948029262"><ele>845.0</ele><time>2026-03-27T09:13:22Z</time></trkpt><trkpt lat="39.883729787641606" lon="16.159704071729706"><ele>845.0</ele><time>2026-03-27T09:13:23Z</time></trkpt><trkpt lat="39.88349992775175" lon="16.15992771893996"><ele>845.0</ele><time>2026-03-27T09:13:24Z</time></trkpt><trkpt lat="39.88327073942589" lon="16.16014777080635"><ele>845.0</ele><time>2026-03-27T09:13:25Z</time></trkpt><trkpt lat="39.88304764306211" lon="16.160351731390534"><ele>845.0</ele><time>2026-03-27T09:13:26Z</time></trkpt><trkpt lat="39.88283569544887" lon="16.160543186830548"><ele>845.0</ele><time>2026-03-27T09:13:27Z</time></trkpt><trkpt lat="39.88263274100089" lon="16.160729792726265"><ele>842.5</ele><time>2026-03-27T09:13:28Z</time></trkpt><trkpt lat="39.88243032307468" lon="16.16091530582109"><ele>840.0</ele><time>2026-03-27T09:13:29Z</time></trkpt><trkpt lat="39.88223423304483" lon="16.16105425732443"><ele>840.0</ele><time>2026-03-27T09:13:30Z</time></trkpt><trkpt lat="39.88206784385705" lon="16.16123586491339"><ele>840.0</ele><time>2026-03-27T09:13:31Z</time></trkpt><trkpt lat="39.88185802880046" lon="16.161433684094902"><ele>837.0</ele><time>2026-03-27T09:13:32Z</time></trkpt><trkpt lat="39.8816512169096" lon="16.161624703962246"><ele>834.0</ele><time>2026-03-27T09:13:33Z</time></trkpt><trkpt lat="39.8814411770642" lon="16.161816488528185"><ele>834.0</ele><time>2026-03-27T09:13:34Z</time></trkpt><trkpt lat="39.881229292420315" lon="16.16200852350596"><ele>834.0</ele><time>2026-03-27T09:13:34.999Z</time></trkpt><trkpt lat="39.88101732935156" lon="16.162208730934452"><ele>830.0</ele><time>2026-03-27T09:13:35.999Z</time></trkpt><trkpt lat="39.88080019412866" lon="16.16241065804261"><ele>826.0</ele><time>2026-03-27T09:13:36.999Z</time></trkpt><trkpt lat="39.88058036483494" lon="16.1626147160316"><ele>826.0</ele><time>2026-03-27T09:13:37.999Z</time></trkpt><trkpt lat="39.88036023049988" lon="16.16282453084454"><ele>826.0</ele><time>2026-03-27T09:13:38.999Z</time></trkpt><trkpt lat="39.88013859377981" lon="16.16303487426671"><ele>826.0</ele><time>2026-03-27T09:13:39.999Z</time></trkpt><trkpt lat="39.879910780840305" lon="16.16324894915217"><ele>826.0</ele><time>2026-03-27T09:13:40.999Z</time></trkpt><trkpt lat="39.87967841033328" lon="16.163459678145482"><ele>826.0</ele><time>2026-03-27T09:13:41.999Z</time></trkpt><trkpt lat="39.87944126576141" lon="16.16367438673461"><ele>826.0</ele><time>2026-03-27T09:13:42.999Z</time></trkpt><trkpt lat="39.87920700504335" lon="16.16389194470119"><ele>824.0</ele><time>2026-03-27T09:13:43.999Z</time></trkpt><trkpt lat="39.87897519212824" lon="16.164110893905743"><ele>822.0</ele><time>2026-03-27T09:13:44.999Z</time></trkpt><trkpt lat="39.87874381652137" lon="16.164330220566658"><ele>822.0</ele><time>2026-03-27T09:13:45.999Z</time></trkpt><trkpt lat="39.87851284688894" lon="16.164547293778796"><ele>822.0</ele><time>2026-03-27T09:13:46.999Z</time></trkpt><trkpt lat="39.87828142877203" lon="16.16476554835443"><ele>819.0</ele><time>2026-03-27T09:13:47.999Z</time></trkpt><trkpt lat="39.87805034969856" lon="16.164983960788728"><ele>816.0</ele><time>2026-03-27T09:13:48.999Z</time></trkpt><trkpt lat="39.87781857052466" lon="16.165201259321705"><ele>811.0</ele><time>2026-03-27T09:13:49.999Z</time></trkpt><trkpt lat="39.877586674829956" lon="16.165416519020333"><ele>806.0</ele><time>2026-03-27T09:13:50.999Z</time></trkpt><trkpt lat="39.877356816707646" lon="16.165623039331432"><ele>807.5</ele><time>2026-03-27T09:13:51.999Z</time></trkpt><trkpt lat="39.87713421401064" lon="16.165823532806066"><ele>809.0</ele><time>2026-03-27T09:13:52.999Z</time></trkpt><trkpt lat="39.87691454651356" lon="16.16602314589358"><ele>805.0</ele><time>2026-03-27T09:13:53.999Z</time></trkpt><trkpt lat="39.8766954355835" lon="16.16622638832062"><ele>801.0</ele><time>2026-03-27T09:13:54.999Z</time></trkpt><trkpt lat="39.87647696985251" lon="16.166430054997306"><ele>805.0</ele><time>2026-03-27T09:13:55.999Z</time></trkpt><trkpt lat="39.876258828736496" lon="16.166635870646505"><ele>809.0</ele><time>2026-03-27T09:13:56.999Z</time></trkpt><trkpt lat="39.87604289001454" lon="16.166843340300595"><ele>804.5</ele><time>2026-03-27T09:13:57.999Z</time></trkpt><trkpt lat="39.875827966806355" lon="16.167052734774114"><ele>800.0</ele><time>2026-03-27T09:13:58.999Z</time></trkpt><trkpt lat="39.87561816722475" lon="16.167262149623102"><ele>803.0</ele><time>2026-03-27T09:13:59.999Z</time></trkpt><trkpt lat="39.875416872931716" lon="16.167472877926873"><ele>806.0</ele><time>2026-03-27T09:14:00.999Z</time></trkpt><trkpt lat="39.8752201816102" lon="16.167689845163903"><ele>802.0</ele><time>2026-03-27T09:14:01.999Z</time></trkpt><trkpt lat="39.87503179667918" lon="16.167912369033303"><ele>798.0</ele><time>2026-03-27T09:14:02.999Z</time></trkpt><trkpt lat="39.87484800832201" lon="16.168142484833744"><ele>799.5</ele><time>2026-03-27T09:14:03.999Z</time></trkpt><trkpt lat="39.87466930713603" lon="16.168373626341378"><ele>801.0</ele><time>2026-03-27T09:14:04.999Z</time></trkpt><trkpt lat="39.87449418948847" lon="16.168607099193686"><ele>801.0</ele><time>2026-03-27T09:14:05.999Z</time></trkpt><trkpt lat="39.87432561730434" lon="16.16884545038552"><ele>801.0</ele><time>2026-03-27T09:14:06.999Z</time></trkpt><trkpt lat="39.87416334708896" lon="16.169092118479117"><ele>798.5</ele><time>2026-03-27T09:14:07.999Z</time></trkpt><trkpt lat="39.87400643999676" lon="16.169344564570608"><ele>796.0</ele><time>2026-03-27T09:14:08.999Z</time></trkpt><trkpt lat="39.87384764689137" lon="16.169597446190476"><ele>796.0</ele><time>2026-03-27T09:14:09.999Z</time></trkpt><trkpt lat="39.873685316470066" lon="16.16985015422969"><ele>796.0</ele><time>2026-03-27T09:14:10.999Z</time></trkpt><trkpt lat="39.873518702594936" lon="16.170102839162848"><ele>791.0</ele><time>2026-03-27T09:14:11.999Z</time></trkpt><trkpt lat="39.873352038567084" lon="16.170357401117084"><ele>786.0</ele><time>2026-03-27T09:14:12.999Z</time></trkpt><trkpt lat="39.87318440730307" lon="16.170614563670874"><ele>789.0</ele><time>2026-03-27T09:14:13.999Z</time></trkpt><trkpt lat="39.87301953492661" lon="16.170871003359405"><ele>792.0</ele><time>2026-03-27T09:14:14.999Z</time></trkpt><trkpt lat="39.872854965143425" lon="16.17112248473877"><ele>792.0</ele><time>2026-03-27T09:14:15.999Z</time></trkpt><trkpt lat="39.87268993123053" lon="16.17137524131141"><ele>792.0</ele><time>2026-03-27T09:14:16.999Z</time></trkpt><trkpt lat="39.87252567367756" lon="16.1716293021085"><ele>789.0</ele><time>2026-03-27T09:14:17.999Z</time></trkpt><trkpt lat="39.87235933161556" lon="16.17188403138373"><ele>786.0</ele><time>2026-03-27T09:14:18.999Z</time></trkpt><trkpt lat="39.87219231233579" lon="16.17213816021444"><ele>786.0</ele><time>2026-03-27T09:14:19.999Z</time></trkpt><trkpt lat="39.87202555128847" lon="16.172392239959564"><ele>786.0</ele><time>2026-03-27T09:14:20.999Z</time></trkpt><trkpt lat="39.87185991104043" lon="16.172648768507464"><ele>782.0</ele><time>2026-03-27T09:14:21.999Z</time></trkpt><trkpt lat="39.871696179279894" lon="16.17290299988331"><ele>778.0</ele><time>2026-03-27T09:14:22.999Z</time></trkpt><trkpt lat="39.87153111901852" lon="16.173155439502338"><ele>782.0</ele><time>2026-03-27T09:14:23.999Z</time></trkpt><trkpt lat="39.87136407172464" lon="16.173407322496068"><ele>786.0</ele><time>2026-03-27T09:14:24.999Z</time></trkpt><trkpt lat="39.871196359656494" lon="16.17365700546958"><ele>786.0</ele><time>2026-03-27T09:14:25.999Z</time></trkpt><trkpt lat="39.871030032567205" lon="16.173909044251527"><ele>786.0</ele><time>2026-03-27T09:14:26.999Z</time></trkpt><trkpt lat="39.87086515402809" lon="16.1741647171816"><ele>781.0</ele><time>2026-03-27T09:14:27.999Z</time></trkpt><trkpt lat="39.87070129782087" lon="16.17442197826435"><ele>776.0</ele><time>2026-03-27T09:14:28.999Z</time></trkpt><trkpt lat="39.870535618207114" lon="16.174680505264025"><ele>777.0</ele><time>2026-03-27T09:14:29.999Z</time></trkpt><trkpt lat="39.870368469361345" lon="16.174939301483793"><ele>778.0</ele><time>2026-03-27T09:14:30.999Z</time></trkpt><trkpt lat="39.87019658614973" lon="16.17519813219273"><ele>772.0</ele><time>2026-03-27T09:14:31.999Z</time></trkpt><trkpt lat="39.87002429614089" lon="16.175458610426922"><ele>766.0</ele><time>2026-03-27T09:14:32.999Z</time></trkpt><trkpt lat="39.869853523475086" lon="16.175722045705683"><ele>766.0</ele><time>2026-03-27T09:14:33.999Z</time></trkpt><trkpt lat="39.86968203314797" lon="16.175987476041943"><ele>766.0</ele><time>2026-03-27T09:14:34.999Z</time></trkpt><trkpt lat="39.86950996169244" lon="16.176253867452534"><ele>767.5</ele><time>2026-03-27T09:14:35.999Z</time></trkpt><trkpt lat="39.869335278272686" lon="16.17652261547149"><ele>769.0</ele><time>2026-03-27T09:14:36.999Z</time></trkpt><trkpt lat="39.86915808000684" lon="16.17679526384009"><ele>765.5</ele><time>2026-03-27T09:14:37.999Z</time></trkpt><trkpt lat="39.86897630376701" lon="16.177076246430918"><ele>762.0</ele><time>2026-03-27T09:14:39Z</time></trkpt><trkpt lat="39.8687955499322" lon="16.17735497183867"><ele>762.0</ele><time>2026-03-27T09:14:40Z</time></trkpt><trkpt lat="39.86862019813948" lon="16.17763058900327"><ele>762.0</ele><time>2026-03-27T09:14:41Z</time></trkpt><trkpt lat="39.86844766925105" lon="16.177908020031392"><ele>763.0</ele><time>2026-03-27T09:14:42Z</time></trkpt><trkpt lat="39.86827837906474" lon="16.178182532981303"><ele>764.0</ele><time>2026-03-27T09:14:43Z</time></trkpt><trkpt lat="39.868110123322246" lon="16.17845121772228"><ele>764.0</ele><time>2026-03-27T09:14:44Z</time></trkpt><trkpt lat="39.867939137969735" lon="16.178716518297808"><ele>764.0</ele><time>2026-03-27T09:14:45Z</time></trkpt><trkpt lat="39.86776825053486" lon="16.17897630864944"><ele>763.0</ele><time>2026-03-27T09:14:46Z</time></trkpt><trkpt lat="39.86759880656624" lon="16.179232844149986"><ele>762.0</ele><time>2026-03-27T09:14:47Z</time></trkpt><trkpt lat="39.86743071070515" lon="16.17949094112285"><ele>762.0</ele><time>2026-03-27T09:14:48Z</time></trkpt><trkpt lat="39.86726423503184" lon="16.179749695689516"><ele>762.0</ele><time>2026-03-27T09:14:49Z</time></trkpt><trkpt lat="39.86709610686215" lon="16.180012867325146"><ele>764.0</ele><time>2026-03-27T09:14:50Z</time></trkpt><trkpt lat="39.866926219036564" lon="16.180274260276992"><ele>766.0</ele><time>2026-03-27T09:14:51Z</time></trkpt><trkpt lat="39.86675734573969" lon="16.18053624528295"><ele>762.5</ele><time>2026-03-27T09:14:52Z</time></trkpt><trkpt lat="39.86658654096205" lon="16.18079618781912"><ele>759.0</ele><time>2026-03-27T09:14:53Z</time></trkpt><trkpt lat="39.86642112058963" lon="16.181056457372367"><ele>759.0</ele><time>2026-03-27T09:14:54Z</time></trkpt><trkpt lat="39.86625525563712" lon="16.181308694792342"><ele>759.0</ele><time>2026-03-27T09:14:55Z</time></trkpt><trkpt lat="39.86609562941661" lon="16.18155558578634"><ele>755.0</ele><time>2026-03-27T09:14:56Z</time></trkpt><trkpt lat="39.86593768729416" lon="16.18179696786197"><ele>751.0</ele><time>2026-03-27T09:14:57Z</time></trkpt><trkpt lat="39.865779901969844" lon="16.182040280314165"><ele>751.0</ele><time>2026-03-27T09:14:58Z</time></trkpt><trkpt lat="39.86562240669628" lon="16.182285840582026"><ele>751.0</ele><time>2026-03-27T09:14:59Z</time></trkpt><trkpt lat="39.865461670908566" lon="16.182531572857496"><ele>752.0</ele><time>2026-03-27T09:15:00Z</time></trkpt><trkpt lat="39.86530194930696" lon="16.18278199127472"><ele>753.0</ele><time>2026-03-27T09:15:01Z</time></trkpt><trkpt lat="39.86513852417149" lon="16.183036305383954"><ele>748.5</ele><time>2026-03-27T09:15:02Z</time></trkpt><trkpt lat="39.864975780144476" lon="16.18329835594453"><ele>744.0</ele><time>2026-03-27T09:15:03Z</time></trkpt><trkpt lat="39.864815518665544" lon="16.183568618370433"><ele>744.0</ele><time>2026-03-27T09:15:04Z</time></trkpt><trkpt lat="39.86466021593037" lon="16.183848275351572"><ele>744.0</ele><time>2026-03-27T09:15:05Z</time></trkpt><trkpt lat="39.86451026503603" lon="16.184133739273594"><ele>743.0</ele><time>2026-03-27T09:15:06Z</time></trkpt><trkpt lat="39.864362398897406" lon="16.18442545940042"><ele>742.0</ele><time>2026-03-27T09:15:07Z</time></trkpt><trkpt lat="39.86421833208578" lon="16.184717942855038"><ele>736.5</ele><time>2026-03-27T09:15:08Z</time></trkpt><trkpt lat="39.86407470385852" lon="16.18501468364325"><ele>731.0</ele><time>2026-03-27T09:15:09Z</time></trkpt><trkpt lat="39.86393122948335" lon="16.185309602540467"><ele>731.0</ele><time>2026-03-27T09:15:10Z</time></trkpt><trkpt lat="39.86379123484878" lon="16.185607633480352"><ele>731.0</ele><time>2026-03-27T09:15:11Z</time></trkpt><trkpt lat="39.86365306962496" lon="16.185902384562365"><ele>730.0</ele><time>2026-03-27T09:15:12Z</time></trkpt><trkpt lat="39.86351649062842" lon="16.186188450882266"><ele>729.0</ele><time>2026-03-27T09:15:13Z</time></trkpt><trkpt lat="39.86338256724559" lon="16.186470796661858"><ele>729.0</ele><time>2026-03-27T09:15:14Z</time></trkpt><trkpt lat="39.86324770589989" lon="16.18675324605764"><ele>729.0</ele><time>2026-03-27T09:15:15Z</time></trkpt><trkpt lat="39.86311317508881" lon="16.18703689816933"><ele>729.0</ele><time>2026-03-27T09:15:16Z</time></trkpt><trkpt lat="39.86297648410233" lon="16.18732655638478"><ele>729.0</ele><time>2026-03-27T09:15:17Z</time></trkpt><trkpt lat="39.86283752111017" lon="16.187618931840138"><ele>727.5</ele><time>2026-03-27T09:15:18Z</time></trkpt><trkpt lat="39.86269689898133" lon="16.187913944129736"><ele>726.0</ele><time>2026-03-27T09:15:19Z</time></trkpt><trkpt lat="39.86255169341625" lon="16.188212850614853"><ele>726.0</ele><time>2026-03-27T09:15:20Z</time></trkpt><trkpt lat="39.862406038241026" lon="16.188517538660246"><ele>726.0</ele><time>2026-03-27T09:15:21Z</time></trkpt><trkpt lat="39.86226021122158" lon="16.188827417240105"><ele>727.0</ele><time>2026-03-27T09:15:22Z</time></trkpt><trkpt lat="39.86210966514714" lon="16.189148258998557"><ele>728.0</ele><time>2026-03-27T09:15:23Z</time></trkpt><trkpt lat="39.86195546730744" lon="16.18946126855437"><ele>728.0</ele><time>2026-03-27T09:15:24Z</time></trkpt><trkpt lat="39.86180703833798" lon="16.18977193943116"><ele>728.0</ele><time>2026-03-27T09:15:25Z</time></trkpt><trkpt lat="39.86165524497744" lon="16.190099467138126"><ele>726.0</ele><time>2026-03-27T09:15:26Z</time></trkpt><trkpt lat="39.86149451449034" lon="16.190439856690073"><ele>724.0</ele><time>2026-03-27T09:15:27Z</time></trkpt><trkpt lat="39.86133394297739" lon="16.19077843239429"><ele>724.0</ele><time>2026-03-27T09:15:28Z</time></trkpt><trkpt lat="39.86119625445571" lon="16.191054763602516"><ele>724.0</ele><time>2026-03-27T09:15:29Z</time></trkpt><trkpt lat="39.86103437242126" lon="16.19137077789446"><ele>720.5</ele><time>2026-03-27T09:15:30Z</time></trkpt><trkpt lat="39.860864725532316" lon="16.19168120147395"><ele>717.0</ele><time>2026-03-27T09:15:31Z</time></trkpt><trkpt lat="39.86068606614784" lon="16.191982308196263"><ele>717.0</ele><time>2026-03-27T09:15:32Z</time></trkpt><trkpt lat="39.86050153437195" lon="16.19227798263589"><ele>717.0</ele><time>2026-03-27T09:15:33Z</time></trkpt><trkpt lat="39.86031244776959" lon="16.192568368355627"><ele>714.5</ele><time>2026-03-27T09:15:34Z</time></trkpt><trkpt lat="39.86011917996258" lon="16.19285551116708"><ele>712.0</ele><time>2026-03-27T09:15:35Z</time></trkpt><trkpt lat="39.859926575718184" lon="16.193137434383523"><ele>715.5</ele><time>2026-03-27T09:15:36Z</time></trkpt><trkpt lat="39.85973205283675" lon="16.193418788368994"><ele>719.0</ele><time>2026-03-27T09:15:37Z</time></trkpt><trkpt lat="39.85954199195055" lon="16.19370116763547"><ele>719.0</ele><time>2026-03-27T09:15:38Z</time></trkpt><trkpt lat="39.85935111472749" lon="16.193983827544486"><ele>719.0</ele><time>2026-03-27T09:15:39Z</time></trkpt><trkpt lat="39.85915985589263" lon="16.194266254396513"><ele>717.0</ele><time>2026-03-27T09:15:40Z</time></trkpt><trkpt lat="39.858968550484185" lon="16.19454991134828"><ele>715.0</ele><time>2026-03-27T09:15:41Z</time></trkpt><trkpt lat="39.858776153024245" lon="16.19483408792841"><ele>714.5</ele><time>2026-03-27T09:15:42Z</time></trkpt><trkpt lat="39.858583185494055" lon="16.195117941776026"><ele>714.0</ele><time>2026-03-27T09:15:43Z</time></trkpt><trkpt lat="39.85839016526642" lon="16.195403512966223"><ele>715.5</ele><time>2026-03-27T09:15:44Z</time></trkpt><trkpt lat="39.85819723203219" lon="16.195689565533804"><ele>717.0</ele><time>2026-03-27T09:15:45Z</time></trkpt><trkpt lat="39.85800249594758" lon="16.195975464262727"><ele>717.0</ele><time>2026-03-27T09:15:46Z</time></trkpt><trkpt lat="39.85780679206995" lon="16.19626226440897"><ele>717.0</ele><time>2026-03-27T09:15:47Z</time></trkpt><trkpt lat="39.85760760230118" lon="16.196547578375164"><ele>713.0</ele><time>2026-03-27T09:15:48Z</time></trkpt><trkpt lat="39.8574060716941" lon="16.196834754875745"><ele>709.0</ele><time>2026-03-27T09:15:48.999Z</time></trkpt><trkpt lat="39.85720241132054" lon="16.1971233224833"><ele>711.0</ele><time>2026-03-27T09:15:49.999Z</time></trkpt><trkpt lat="39.856998622656675" lon="16.19741373704031"><ele>713.0</ele><time>2026-03-27T09:15:50.999Z</time></trkpt><trkpt lat="39.8567943642687" lon="16.197706025809623"><ele>709.0</ele><time>2026-03-27T09:15:51.999Z</time></trkpt><trkpt lat="39.856588679883664" lon="16.197999153564556"><ele>705.0</ele><time>2026-03-27T09:15:52.999Z</time></trkpt><trkpt lat="39.8563828149192" lon="16.198291640379125"><ele>704.5</ele><time>2026-03-27T09:15:53.999Z</time></trkpt><trkpt lat="39.856180079843824" lon="16.19858417474221"><ele>704.0</ele><time>2026-03-27T09:15:54.999Z</time></trkpt><trkpt lat="39.855979180860075" lon="16.198876910103536"><ele>700.5</ele><time>2026-03-27T09:15:55.999Z</time></trkpt><trkpt lat="39.8557799922101" lon="16.19916910782622"><ele>697.0</ele><time>2026-03-27T09:15:56.999Z</time></trkpt><trkpt lat="39.855581160207464" lon="16.199461217616815"><ele>697.0</ele><time>2026-03-27T09:15:57.999Z</time></trkpt><trkpt lat="39.85538288116553" lon="16.199753064947668"><ele>697.0</ele><time>2026-03-27T09:15:58.999Z</time></trkpt><trkpt lat="39.85518600809496" lon="16.200044489985153"><ele>691.0</ele><time>2026-03-27T09:15:59.999Z</time></trkpt><trkpt lat="39.854991229328256" lon="16.20033350860121"><ele>685.0</ele><time>2026-03-27T09:16:00.999Z</time></trkpt><trkpt lat="39.85479739146108" lon="16.200618338782515"><ele>685.5</ele><time>2026-03-27T09:16:01.999Z</time></trkpt><trkpt lat="39.85460450446786" lon="16.20090014147956"><ele>686.0</ele><time>2026-03-27T09:16:02.999Z</time></trkpt><trkpt lat="39.8544120909112" lon="16.20118070927437"><ele>683.5</ele><time>2026-03-27T09:16:03.999Z</time></trkpt><trkpt lat="39.85421899579938" lon="16.201460828303805"><ele>681.0</ele><time>2026-03-27T09:16:04.999Z</time></trkpt><trkpt lat="39.85402674574572" lon="16.201739682197427"><ele>681.0</ele><time>2026-03-27T09:16:05.999Z</time></trkpt><trkpt lat="39.85383464874282" lon="16.202018061644488"><ele>681.0</ele><time>2026-03-27T09:16:06.999Z</time></trkpt><trkpt lat="39.85364295973567" lon="16.202296694952818"><ele>677.5</ele><time>2026-03-27T09:16:07.999Z</time></trkpt><trkpt lat="39.85345396800482" lon="16.202571703613334"><ele>674.0</ele><time>2026-03-27T09:16:08.999Z</time></trkpt><trkpt lat="39.85326880593239" lon="16.202842479409256"><ele>674.0</ele><time>2026-03-27T09:16:09.999Z</time></trkpt><trkpt lat="39.853084031829674" lon="16.20311503128897"><ele>674.0</ele><time>2026-03-27T09:16:10.999Z</time></trkpt><trkpt lat="39.852900779980935" lon="16.20339196624386"><ele>676.5</ele><time>2026-03-27T09:16:11.999Z</time></trkpt><trkpt lat="39.85272222720412" lon="16.20367875611004"><ele>679.0</ele><time>2026-03-27T09:16:12.999Z</time></trkpt><trkpt lat="39.85254615663333" lon="16.2039768486326"><ele>677.0</ele><time>2026-03-27T09:16:13.999Z</time></trkpt><trkpt lat="39.852377985760015" lon="16.204282426410337"><ele>675.0</ele><time>2026-03-27T09:16:14.999Z</time></trkpt><trkpt lat="39.852213332902195" lon="16.204593112230643"><ele>679.0</ele><time>2026-03-27T09:16:15.999Z</time></trkpt><trkpt lat="39.85205547992146" lon="16.204910128781506"><ele>683.0</ele><time>2026-03-27T09:16:16.999Z</time></trkpt><trkpt lat="39.85190358433752" lon="16.20523243578595"><ele>670.0</ele><time>2026-03-27T09:16:17.999Z</time></trkpt><trkpt lat="39.85175324050719" lon="16.205556931827797"><ele>657.0</ele><time>2026-03-27T09:16:18.999Z</time></trkpt><trkpt lat="39.85160385901522" lon="16.205881179055503"><ele>653.0</ele><time>2026-03-27T09:16:19.999Z</time></trkpt><trkpt lat="39.85145538486597" lon="16.206201435730517"><ele>649.0</ele><time>2026-03-27T09:16:20.999Z</time></trkpt><trkpt lat="39.85131226069319" lon="16.20651700409731"><ele>646.5</ele><time>2026-03-27T09:16:21.999Z</time></trkpt><trkpt lat="39.85116711792663" lon="16.206830913021818"><ele>644.0</ele><time>2026-03-27T09:16:22.999Z</time></trkpt><trkpt lat="39.851023192040174" lon="16.207142003893757"><ele>646.5</ele><time>2026-03-27T09:16:23.999Z</time></trkpt><trkpt lat="39.8508769946963" lon="16.20745471598161"><ele>649.0</ele><time>2026-03-27T09:16:24.999Z</time></trkpt><trkpt lat="39.850730930494976" lon="16.207766036379855"><ele>649.0</ele><time>2026-03-27T09:16:25.999Z</time></trkpt><trkpt lat="39.85058404041133" lon="16.20807865053443"><ele>649.0</ele><time>2026-03-27T09:16:26.999Z</time></trkpt><trkpt lat="39.850438409698036" lon="16.208392453487004"><ele>656.0</ele><time>2026-03-27T09:16:27.999Z</time></trkpt><trkpt lat="39.85029466468582" lon="16.208704578482727"><ele>663.0</ele><time>2026-03-27T09:16:28.999Z</time></trkpt><trkpt lat="39.85015366022843" lon="16.20901222395785"><ele>663.0</ele><time>2026-03-27T09:16:29.999Z</time></trkpt><trkpt lat="39.85002179729208" lon="16.209304962477166"><ele>663.0</ele><time>2026-03-27T09:16:30.999Z</time></trkpt><trkpt lat="39.8498955339981" lon="16.209585727257398"><ele>668.5</ele><time>2026-03-27T09:16:31.999Z</time></trkpt><trkpt lat="39.84977311772588" lon="16.209868819582674"><ele>674.0</ele><time>2026-03-27T09:16:32.999Z</time></trkpt><trkpt lat="39.84966568933141" lon="16.210161347970104"><ele>674.0</ele><time>2026-03-27T09:16:33.999Z</time></trkpt><trkpt lat="39.849565996709" lon="16.210466792201185"><ele>674.0</ele><time>2026-03-27T09:16:34.999Z</time></trkpt><trkpt lat="39.84946896511876" lon="16.210776309746628"><ele>682.5</ele><time>2026-03-27T09:16:35.999Z</time></trkpt><trkpt lat="39.84937985906842" lon="16.211095046186013"><ele>691.0</ele><time>2026-03-27T09:16:36.999Z</time></trkpt><trkpt lat="39.849297075061834" lon="16.211423701161486"><ele>688.5</ele><time>2026-03-27T09:16:37.999Z</time></trkpt><trkpt lat="39.849220011698" lon="16.211759482282957"><ele>686.0</ele><time>2026-03-27T09:16:38.999Z</time></trkpt><trkpt lat="39.84914554711863" lon="16.212128982624158"><ele>677.0</ele><time>2026-03-27T09:16:40.065Z</time></trkpt><trkpt lat="39.84908383439053" lon="16.212491346848804"><ele>668.0</ele><time>2026-03-27T09:16:41.066Z</time></trkpt><trkpt lat="39.84902499958403" lon="16.212858498795097"><ele>661.0</ele><time>2026-03-27T09:16:42.064Z</time></trkpt><trkpt lat="39.8489738754735" lon="16.21321107093798"><ele>654.0</ele><time>2026-03-27T09:16:42.999Z</time></trkpt><trkpt lat="39.84891323844678" lon="16.213554056355015"><ele>654.0</ele><time>2026-03-27T09:16:43.999Z</time></trkpt><trkpt lat="39.848892185778695" lon="16.213821386643335"><ele>654.0</ele><time>2026-03-27T09:16:44.999Z</time></trkpt><trkpt lat="39.848843374514125" lon="16.21418124966889"><ele>648.0</ele><time>2026-03-27T09:16:45.999Z</time></trkpt><trkpt lat="39.84878986521589" lon="16.214537977740743"><ele>642.0</ele><time>2026-03-27T09:16:46.999Z</time></trkpt><trkpt lat="39.84873922261171" lon="16.214894217436733"><ele>641.5</ele><time>2026-03-27T09:16:48Z</time></trkpt><trkpt lat="39.848689428481656" lon="16.215257381080455"><ele>641.0</ele><time>2026-03-27T09:16:49Z</time></trkpt><trkpt lat="39.848640325780316" lon="16.215619395836136"><ele>641.5</ele><time>2026-03-27T09:16:50Z</time></trkpt><trkpt lat="39.848591627248574" lon="16.21597982678552"><ele>642.0</ele><time>2026-03-27T09:16:51Z</time></trkpt><trkpt lat="39.84854105578675" lon="16.21633955839033"><ele>644.0</ele><time>2026-03-27T09:16:52Z</time></trkpt><trkpt lat="39.848488909319315" lon="16.216702105958323"><ele>646.0</ele><time>2026-03-27T09:16:53Z</time></trkpt><trkpt lat="39.848438129891264" lon="16.2170653804269"><ele>640.5</ele><time>2026-03-27T09:16:54Z</time></trkpt><trkpt lat="39.84838697760235" lon="16.21743259442861"><ele>635.0</ele><time>2026-03-27T09:16:55Z</time></trkpt><trkpt lat="39.848335466239064" lon="16.21780500846118"><ele>635.0</ele><time>2026-03-27T09:16:56Z</time></trkpt><trkpt lat="39.84828334609135" lon="16.218178215102093"><ele>635.0</ele><time>2026-03-27T09:16:57Z</time></trkpt><trkpt lat="39.84822996767658" lon="16.218552234795474"><ele>635.0</ele><time>2026-03-27T09:16:58Z</time></trkpt><trkpt lat="39.848177312674004" lon="16.21892690580578"><ele>635.0</ele><time>2026-03-27T09:16:59Z</time></trkpt><trkpt lat="39.84812512989842" lon="16.21930343217829"><ele>635.5</ele><time>2026-03-27T09:17:00Z</time></trkpt><trkpt lat="39.848074026397086" lon="16.21968066300524"><ele>636.0</ele><time>2026-03-27T09:17:01Z</time></trkpt><trkpt lat="39.848024047233295" lon="16.220058334935608"><ele>636.0</ele><time>2026-03-27T09:17:02Z</time></trkpt><trkpt lat="39.84797283275007" lon="16.22043364172482"><ele>636.0</ele><time>2026-03-27T09:17:03Z</time></trkpt><trkpt lat="39.847920400302556" lon="16.22080756411204"><ele>635.5</ele><time>2026-03-27T09:17:04Z</time></trkpt><trkpt lat="39.84786956693189" lon="16.221183347479883"><ele>635.0</ele><time>2026-03-27T09:17:05Z</time></trkpt><trkpt lat="39.847823911976725" lon="16.221559404343335"><ele>634.5</ele><time>2026-03-27T09:17:06Z</time></trkpt><trkpt lat="39.84778575332841" lon="16.221936459832573"><ele>634.0</ele><time>2026-03-27T09:17:07Z</time></trkpt><trkpt lat="39.84775478006577" lon="16.22231233992318"><ele>634.0</ele><time>2026-03-27T09:17:08Z</time></trkpt><trkpt lat="39.847730736957615" lon="16.22269008321732"><ele>634.0</ele><time>2026-03-27T09:17:09Z</time></trkpt><trkpt lat="39.84770949195365" lon="16.22307054289601"><ele>633.0</ele><time>2026-03-27T09:17:10Z</time></trkpt><trkpt lat="39.847690312840484" lon="16.22344964772043"><ele>632.0</ele><time>2026-03-27T09:17:11Z</time></trkpt><trkpt lat="39.84767333579032" lon="16.2238295928131"><ele>631.0</ele><time>2026-03-27T09:17:12Z</time></trkpt><trkpt lat="39.847658247323956" lon="16.224208751484866"><ele>630.0</ele><time>2026-03-27T09:17:13Z</time></trkpt><trkpt lat="39.8476420655743" lon="16.224587684482284"><ele>622.0</ele><time>2026-03-27T09:17:14Z</time></trkpt><trkpt lat="39.84762364266925" lon="16.2249668054677"><ele>614.0</ele><time>2026-03-27T09:17:15Z</time></trkpt><trkpt lat="39.84760711170572" lon="16.22534610826981"><ele>613.5</ele><time>2026-03-27T09:17:16Z</time></trkpt><trkpt lat="39.847590850591125" lon="16.225722842672127"><ele>613.0</ele><time>2026-03-27T09:17:17Z</time></trkpt><trkpt lat="39.8475739110753" lon="16.22609804497215"><ele>613.0</ele><time>2026-03-27T09:17:18Z</time></trkpt><trkpt lat="39.84755752636413" lon="16.226471628335858"><ele>613.0</ele><time>2026-03-27T09:17:19Z</time></trkpt><trkpt lat="39.847540792068386" lon="16.226846923922704"><ele>612.0</ele><time>2026-03-27T09:17:20Z</time></trkpt><trkpt lat="39.84752292032954" lon="16.227225167381707"><ele>611.0</ele><time>2026-03-27T09:17:21Z</time></trkpt><trkpt lat="39.847506295198315" lon="16.227605800284636"><ele>609.5</ele><time>2026-03-27T09:17:22Z</time></trkpt><trkpt lat="39.84749054418841" lon="16.22798964401516"><ele>608.0</ele><time>2026-03-27T09:17:23Z</time></trkpt><trkpt lat="39.84747490188512" lon="16.228377673346"><ele>606.5</ele><time>2026-03-27T09:17:24Z</time></trkpt><trkpt lat="39.84745814037549" lon="16.228767211026877"><ele>605.0</ele><time>2026-03-27T09:17:25Z</time></trkpt><trkpt lat="39.84744146251588" lon="16.229159009103792"><ele>603.0</ele><time>2026-03-27T09:17:26Z</time></trkpt><trkpt lat="39.84742474480095" lon="16.22954878325664"><ele>601.0</ele><time>2026-03-27T09:17:27Z</time></trkpt><trkpt lat="39.84740868803969" lon="16.229937240824725"><ele>599.5</ele><time>2026-03-27T09:17:28Z</time></trkpt><trkpt lat="39.847391850207366" lon="16.23032597027812"><ele>598.0</ele><time>2026-03-27T09:17:29Z</time></trkpt><trkpt lat="39.847371973335164" lon="16.23071557057828"><ele>596.5</ele><time>2026-03-27T09:17:30Z</time></trkpt><trkpt lat="39.84734784473481" lon="16.231104265453627"><ele>595.0</ele><time>2026-03-27T09:17:31Z</time></trkpt><trkpt lat="39.84731806529889" lon="16.23149177222857"><ele>593.0</ele><time>2026-03-27T09:17:32Z</time></trkpt><trkpt lat="39.847271856515185" lon="16.231870955250336"><ele>591.0</ele><time>2026-03-27T09:17:33Z</time></trkpt><trkpt lat="39.847217271947905" lon="16.232245093834237"><ele>590.5</ele><time>2026-03-27T09:17:34Z</time></trkpt><trkpt lat="39.8471574304896" lon="16.232615211316084"><ele>590.0</ele><time>2026-03-27T09:17:35Z</time></trkpt><trkpt lat="39.84709229077962" lon="16.232983344652805"><ele>588.5</ele><time>2026-03-27T09:17:36Z</time></trkpt><trkpt lat="39.847019325109294" lon="16.233348400251852"><ele>587.0</ele><time>2026-03-27T09:17:37Z</time></trkpt><trkpt lat="39.8469363345957" lon="16.233711385865732"><ele>585.0</ele><time>2026-03-27T09:17:38Z</time></trkpt><trkpt lat="39.84684842793102" lon="16.234068685265854"><ele>583.0</ele><time>2026-03-27T09:17:39Z</time></trkpt><trkpt lat="39.84675227697185" lon="16.23441891684776"><ele>578.0</ele><time>2026-03-27T09:17:40Z</time></trkpt><trkpt lat="39.84665406282167" lon="16.234763678700915"><ele>573.0</ele><time>2026-03-27T09:17:41Z</time></trkpt><trkpt lat="39.84655067899888" lon="16.235103917790692"><ele>572.5</ele><time>2026-03-27T09:17:42Z</time></trkpt><trkpt lat="39.846439825733526" lon="16.23544142143696"><ele>572.0</ele><time>2026-03-27T09:17:43Z</time></trkpt><trkpt lat="39.84632200244386" lon="16.235776311671064"><ele>572.0</ele><time>2026-03-27T09:17:44Z</time></trkpt><trkpt lat="39.84619489255808" lon="16.236108614888995"><ele>572.0</ele><time>2026-03-27T09:17:45Z</time></trkpt><trkpt lat="39.84606069381676" lon="16.23643915723698"><ele>575.0</ele><time>2026-03-27T09:17:46Z</time></trkpt><trkpt lat="39.84592022608791" lon="16.23676904845796"><ele>578.0</ele><time>2026-03-27T09:17:47Z</time></trkpt><trkpt lat="39.84577686185371" lon="16.23710060665234"><ele>580.0</ele><time>2026-03-27T09:17:48Z</time></trkpt><trkpt lat="39.84563214240554" lon="16.237434530073934"><ele>582.0</ele><time>2026-03-27T09:17:49Z</time></trkpt><trkpt lat="39.845487305039185" lon="16.237772827466067"><ele>582.0</ele><time>2026-03-27T09:17:50Z</time></trkpt><trkpt lat="39.84534361027241" lon="16.238114715678282"><ele>582.0</ele><time>2026-03-27T09:17:51Z</time></trkpt><trkpt lat="39.84520086145793" lon="16.2384577717635"><ele>578.0</ele><time>2026-03-27T09:17:52Z</time></trkpt><trkpt lat="39.84505755359481" lon="16.2388022692665"><ele>574.0</ele><time>2026-03-27T09:17:53Z</time></trkpt><trkpt lat="39.844912620779596" lon="16.23914532243112"><ele>573.5</ele><time>2026-03-27T09:17:54Z</time></trkpt><trkpt lat="39.84476664924833" lon="16.239487357142167"><ele>573.0</ele><time>2026-03-27T09:17:55Z</time></trkpt><trkpt lat="39.844621028533965" lon="16.239830605577314"><ele>572.0</ele><time>2026-03-27T09:17:55.999Z</time></trkpt><trkpt lat="39.84447378596157" lon="16.24017557119076"><ele>571.0</ele><time>2026-03-27T09:17:56.999Z</time></trkpt><trkpt lat="39.84432716427523" lon="16.24051877324648"><ele>566.0</ele><time>2026-03-27T09:17:57.999Z</time></trkpt><trkpt lat="39.844180421676086" lon="16.24086322535652"><ele>561.0</ele><time>2026-03-27T09:17:58.999Z</time></trkpt><trkpt lat="39.84403563192468" lon="16.241207902343437"><ele>560.5</ele><time>2026-03-27T09:17:59.999Z</time></trkpt><trkpt lat="39.8438891035659" lon="16.241550429933287"><ele>560.0</ele><time>2026-03-27T09:18:00.999Z</time></trkpt><trkpt lat="39.8437439871674" lon="16.24188264164834"><ele>560.0</ele><time>2026-03-27T09:18:01.999Z</time></trkpt><trkpt lat="39.84361009691074" lon="16.242198116710366"><ele>560.0</ele><time>2026-03-27T09:18:02.999Z</time></trkpt><trkpt lat="39.84347931552695" lon="16.242504457320514"><ele>555.0</ele><time>2026-03-27T09:18:03.999Z</time></trkpt><trkpt lat="39.84335377935088" lon="16.242800371491143"><ele>550.0</ele><time>2026-03-27T09:18:04.999Z</time></trkpt><trkpt lat="39.84323044045831" lon="16.243092006596836"><ele>550.5</ele><time>2026-03-27T09:18:05.999Z</time></trkpt><trkpt lat="39.84310863397772" lon="16.243392822838523"><ele>551.0</ele><time>2026-03-27T09:18:06.999Z</time></trkpt><trkpt lat="39.84298745057103" lon="16.2437022443507"><ele>551.0</ele><time>2026-03-27T09:18:07.999Z</time></trkpt><trkpt lat="39.84286284313942" lon="16.24402475678325"><ele>551.0</ele><time>2026-03-27T09:18:08.999Z</time></trkpt><trkpt lat="39.84273282072672" lon="16.24435672000618"><ele>547.0</ele><time>2026-03-27T09:18:09.999Z</time></trkpt><trkpt lat="39.84259413576089" lon="16.244696449305007"><ele>543.0</ele><time>2026-03-27T09:18:10.999Z</time></trkpt><trkpt lat="39.842448985349606" lon="16.24503936807516"><ele>543.0</ele><time>2026-03-27T09:18:11.999Z</time></trkpt><trkpt lat="39.84230082728117" lon="16.24538186524554"><ele>543.0</ele><time>2026-03-27T09:18:12.999Z</time></trkpt><trkpt lat="39.842153282299584" lon="16.24572912668168"><ele>544.0</ele><time>2026-03-27T09:18:13.999Z</time></trkpt><trkpt lat="39.84200046999429" lon="16.246072839001723"><ele>545.0</ele><time>2026-03-27T09:18:14.999Z</time></trkpt><trkpt lat="39.84184081441836" lon="16.246411328180088"><ele>540.5</ele><time>2026-03-27T09:18:15.999Z</time></trkpt><trkpt lat="39.84167127354516" lon="16.24674248575796"><ele>536.0</ele><time>2026-03-27T09:18:16.999Z</time></trkpt><trkpt lat="39.841494369424694" lon="16.247070871177815"><ele>535.5</ele><time>2026-03-27T09:18:17.999Z</time></trkpt><trkpt lat="39.84130810751105" lon="16.247396561950342"><ele>535.0</ele><time>2026-03-27T09:18:18.999Z</time></trkpt><trkpt lat="39.841118425396054" lon="16.24772219185634"><ele>530.5</ele><time>2026-03-27T09:18:19.999Z</time></trkpt><trkpt lat="39.8409261478342" lon="16.24805015462013"><ele>526.0</ele><time>2026-03-27T09:18:20.999Z</time></trkpt><trkpt lat="39.84073360740836" lon="16.24838233912187"><ele>526.0</ele><time>2026-03-27T09:18:21.999Z</time></trkpt><trkpt lat="39.84054176224243" lon="16.24872048661605"><ele>526.0</ele><time>2026-03-27T09:18:22.999Z</time></trkpt><trkpt lat="39.84035143489016" lon="16.249061124720267"><ele>526.5</ele><time>2026-03-27T09:18:23.999Z</time></trkpt><trkpt lat="39.84015837887123" lon="16.249405148781246"><ele>527.0</ele><time>2026-03-27T09:18:24.999Z</time></trkpt><trkpt lat="39.83996577026779" lon="16.249750117519607"><ele>525.0</ele><time>2026-03-27T09:18:25.999Z</time></trkpt><trkpt lat="39.83977478606191" lon="16.25009562254047"><ele>523.0</ele><time>2026-03-27T09:18:26.999Z</time></trkpt><trkpt lat="39.83957987653962" lon="16.250439414405918"><ele>520.5</ele><time>2026-03-27T09:18:27.999Z</time></trkpt><trkpt lat="39.839380598857865" lon="16.250776843997073"><ele>518.0</ele><time>2026-03-27T09:18:28.999Z</time></trkpt><trkpt lat="39.83917460413536" lon="16.251105193519486"><ele>518.0</ele><time>2026-03-27T09:18:29.999Z</time></trkpt><trkpt lat="39.83897343174673" lon="16.251429961889006"><ele>518.0</ele><time>2026-03-27T09:18:30.999Z</time></trkpt><trkpt lat="39.83878016004861" lon="16.251761714271925"><ele>519.5</ele><time>2026-03-27T09:18:31.999Z</time></trkpt><trkpt lat="39.83859416907386" lon="16.252091079174033"><ele>521.0</ele><time>2026-03-27T09:18:32.999Z</time></trkpt><trkpt lat="39.83840948642198" lon="16.252418476453023"><ele>516.5</ele><time>2026-03-27T09:18:33.999Z</time></trkpt><trkpt lat="39.838224097900884" lon="16.252743252177574"><ele>512.0</ele><time>2026-03-27T09:18:34.999Z</time></trkpt><trkpt lat="39.83803770973495" lon="16.253064619971376"><ele>511.5</ele><time>2026-03-27T09:18:35.999Z</time></trkpt><trkpt lat="39.83784438933258" lon="16.253373084590173"><ele>511.0</ele><time>2026-03-27T09:18:36.999Z</time></trkpt><trkpt lat="39.837639962239926" lon="16.253659136210118"><ele>507.5</ele><time>2026-03-27T09:18:37.999Z</time></trkpt><trkpt lat="39.8374313102317" lon="16.253925413389716"><ele>504.0</ele><time>2026-03-27T09:18:38.999Z</time></trkpt><trkpt lat="39.8372159149271" lon="16.254184870683638"><ele>503.0</ele><time>2026-03-27T09:18:39.999Z</time></trkpt><trkpt lat="39.83699639341539" lon="16.254434290559523"><ele>502.0</ele><time>2026-03-27T09:18:40.999Z</time></trkpt><trkpt lat="39.83677286284784" lon="16.254672638773954"><ele>499.5</ele><time>2026-03-27T09:18:41.999Z</time></trkpt><trkpt lat="39.83654710606847" lon="16.254901541672442"><ele>497.0</ele><time>2026-03-27T09:18:42.999Z</time></trkpt><trkpt lat="39.836316948057856" lon="16.255119159887073"><ele>497.0</ele><time>2026-03-27T09:18:43.999Z</time></trkpt><trkpt lat="39.836082929561364" lon="16.255326553404615"><ele>497.0</ele><time>2026-03-27T09:18:44.999Z</time></trkpt><trkpt lat="39.835843453453535" lon="16.25552384875207"><ele>494.0</ele><time>2026-03-27T09:18:45.999Z</time></trkpt><trkpt lat="39.83559635816487" lon="16.255714326605567"><ele>491.0</ele><time>2026-03-27T09:18:46.999Z</time></trkpt><trkpt lat="39.83534389261956" lon="16.255894532735887"><ele>488.0</ele><time>2026-03-27T09:18:47.999Z</time></trkpt><trkpt lat="39.83509222672536" lon="16.256064302681473"><ele>485.0</ele><time>2026-03-27T09:18:48.999Z</time></trkpt><trkpt lat="39.834844931835946" lon="16.256217744647554"><ele>485.0</ele><time>2026-03-27T09:18:49.999Z</time></trkpt><trkpt lat="39.834601404222035" lon="16.256354785594272"><ele>485.0</ele><time>2026-03-27T09:18:50.999Z</time></trkpt><trkpt lat="39.83435191502046" lon="16.256489790586"><ele>483.5</ele><time>2026-03-27T09:18:51.999Z</time></trkpt><trkpt lat="39.83409762419836" lon="16.2566243036432"><ele>482.0</ele><time>2026-03-27T09:18:52.999Z</time></trkpt><trkpt lat="39.833838302339124" lon="16.256754326485904"><ele>482.0</ele><time>2026-03-27T09:18:54Z</time></trkpt><trkpt lat="39.83357439369296" lon="16.256887099321535"><ele>482.0</ele><time>2026-03-27T09:18:55Z</time></trkpt><trkpt lat="39.83330553850519" lon="16.25702375508181"><ele>479.5</ele><time>2026-03-27T09:18:56Z</time></trkpt><trkpt lat="39.83303334009062" lon="16.25715831530466"><ele>477.0</ele><time>2026-03-27T09:18:57Z</time></trkpt><trkpt lat="39.83276011280717" lon="16.257292354787882"><ele>475.0</ele><time>2026-03-27T09:18:58Z</time></trkpt><trkpt lat="39.83248386583792" lon="16.25742979714198"><ele>473.0</ele><time>2026-03-27T09:18:59Z</time></trkpt><trkpt lat="39.83220078557855" lon="16.25756783998586"><ele>473.0</ele><time>2026-03-27T09:19:00Z</time></trkpt><trkpt lat="39.83191316317641" lon="16.25770922389187"><ele>473.0</ele><time>2026-03-27T09:19:01Z</time></trkpt><trkpt lat="39.831620098292085" lon="16.257856902974602"><ele>471.5</ele><time>2026-03-27T09:19:02Z</time></trkpt><trkpt lat="39.83132483328774" lon="16.258001939031164"><ele>470.0</ele><time>2026-03-27T09:19:03Z</time></trkpt><trkpt lat="39.83102656161566" lon="16.258145241943033"><ele>469.0</ele><time>2026-03-27T09:19:04Z</time></trkpt><trkpt lat="39.83072688444148" lon="16.2582894083717"><ele>468.0</ele><time>2026-03-27T09:19:05Z</time></trkpt><trkpt lat="39.83042507722529" lon="16.25843476399592"><ele>467.0</ele><time>2026-03-27T09:19:06Z</time></trkpt><trkpt lat="39.830120762556156" lon="16.258584225325095"><ele>466.0</ele><time>2026-03-27T09:19:07Z</time></trkpt><trkpt lat="39.829815579693246" lon="16.258733583435053"><ele>466.0</ele><time>2026-03-27T09:19:08Z</time></trkpt><trkpt lat="39.82951104791714" lon="16.258883868945635"><ele>466.0</ele><time>2026-03-27T09:19:09Z</time></trkpt><trkpt lat="39.82920759526187" lon="16.259033629663524"><ele>466.5</ele><time>2026-03-27T09:19:10Z</time></trkpt><trkpt lat="39.828903179104344" lon="16.259177547725397"><ele>467.0</ele><time>2026-03-27T09:19:11Z</time></trkpt><trkpt lat="39.82859671474361" lon="16.259306757151954"><ele>466.5</ele><time>2026-03-27T09:19:12Z</time></trkpt><trkpt lat="39.828286014695884" lon="16.259413332591656"><ele>466.0</ele><time>2026-03-27T09:19:13Z</time></trkpt><trkpt lat="39.82797093980962" lon="16.259496209272083"><ele>466.0</ele><time>2026-03-27T09:19:14Z</time></trkpt><trkpt lat="39.82765472686401" lon="16.25955921802664"><ele>466.0</ele><time>2026-03-27T09:19:15Z</time></trkpt><trkpt lat="39.827336621053995" lon="16.259605412060193"><ele>465.5</ele><time>2026-03-27T09:19:16Z</time></trkpt><trkpt lat="39.82701771097201" lon="16.259632936205932"><ele>465.0</ele><time>2026-03-27T09:19:17Z</time></trkpt><trkpt lat="39.82670038423392" lon="16.2596415184935"><ele>465.0</ele><time>2026-03-27T09:19:18Z</time></trkpt><trkpt lat="39.82638556319809" lon="16.25963149874318"><ele>465.0</ele><time>2026-03-27T09:19:19Z</time></trkpt><trkpt lat="39.82607264755822" lon="16.259602611217353"><ele>463.5</ele><time>2026-03-27T09:19:20Z</time></trkpt><trkpt lat="39.82576213572992" lon="16.259554194187128"><ele>462.0</ele><time>2026-03-27T09:19:21Z</time></trkpt><trkpt lat="39.82545476033707" lon="16.259480055879067"><ele>462.0</ele><time>2026-03-27T09:19:22Z</time></trkpt><trkpt lat="39.82515125583578" lon="16.25939152100662"><ele>462.0</ele><time>2026-03-27T09:19:23Z</time></trkpt><trkpt lat="39.824852477679464" lon="16.259289126002262"><ele>461.0</ele><time>2026-03-27T09:19:24Z</time></trkpt><trkpt lat="39.82455875463595" lon="16.259174018957463"><ele>460.0</ele><time>2026-03-27T09:19:25Z</time></trkpt><trkpt lat="39.8242732280732" lon="16.259038380909956"><ele>459.5</ele><time>2026-03-27T09:19:26Z</time></trkpt><trkpt lat="39.823993045272886" lon="16.258890124135533"><ele>459.0</ele><time>2026-03-27T09:19:27Z</time></trkpt><trkpt lat="39.8237203154222" lon="16.258719342888238"><ele>457.5</ele><time>2026-03-27T09:19:28Z</time></trkpt><trkpt lat="39.8234549225484" lon="16.258529831892574"><ele>456.0</ele><time>2026-03-27T09:19:29Z</time></trkpt><trkpt lat="39.82319438534899" lon="16.258324015846004"><ele>456.5</ele><time>2026-03-27T09:19:30Z</time></trkpt><trkpt lat="39.82293831740487" lon="16.258104662491565"><ele>457.0</ele><time>2026-03-27T09:19:31Z</time></trkpt><trkpt lat="39.822680613801424" lon="16.257880813437577"><ele>454.0</ele><time>2026-03-27T09:19:32Z</time></trkpt><trkpt lat="39.822420366680106" lon="16.257659100106807"><ele>451.0</ele><time>2026-03-27T09:19:33Z</time></trkpt><trkpt lat="39.822155832409365" lon="16.257444440545918"><ele>450.0</ele><time>2026-03-27T09:19:34Z</time></trkpt><trkpt lat="39.821894884083285" lon="16.25723570031392"><ele>449.0</ele><time>2026-03-27T09:19:35Z</time></trkpt><trkpt lat="39.8216337201842" lon="16.257028944094294"><ele>446.0</ele><time>2026-03-27T09:19:36Z</time></trkpt><trkpt lat="39.82137547173519" lon="16.256822101857413"><ele>443.0</ele><time>2026-03-27T09:19:37Z</time></trkpt><trkpt lat="39.82111970770969" lon="16.256616951478932"><ele>439.0</ele><time>2026-03-27T09:19:38Z</time></trkpt><trkpt lat="39.82086882111032" lon="16.256416191025334"><ele>435.0</ele><time>2026-03-27T09:19:39Z</time></trkpt><trkpt lat="39.82062261806208" lon="16.256226940760072"><ele>435.0</ele><time>2026-03-27T09:19:40Z</time></trkpt><trkpt lat="39.82037000943906" lon="16.25604692893847"><ele>435.0</ele><time>2026-03-27T09:19:41Z</time></trkpt><trkpt lat="39.82011061035492" lon="16.255875921751684"><ele>431.5</ele><time>2026-03-27T09:19:42Z</time></trkpt><trkpt lat="39.819844458545646" lon="16.25571185190747"><ele>428.0</ele><time>2026-03-27T09:19:43Z</time></trkpt><trkpt lat="39.819573454389555" lon="16.255556128656558"><ele>424.5</ele><time>2026-03-27T09:19:44Z</time></trkpt><trkpt lat="39.81929765402287" lon="16.25540869333967"><ele>421.0</ele><time>2026-03-27T09:19:45Z</time></trkpt><trkpt lat="39.81901554017498" lon="16.255270550988094"><ele>421.0</ele><time>2026-03-27T09:19:46Z</time></trkpt><trkpt lat="39.818729240016545" lon="16.255141986349866"><ele>421.0</ele><time>2026-03-27T09:19:47Z</time></trkpt><trkpt lat="39.81843701405399" lon="16.255027148035506"><ele>420.0</ele><time>2026-03-27T09:19:48Z</time></trkpt><trkpt lat="39.818137577723334" lon="16.25491946539792"><ele>419.0</ele><time>2026-03-27T09:19:49Z</time></trkpt><trkpt lat="39.81783425947597" lon="16.25481540562631"><ele>417.5</ele><time>2026-03-27T09:19:50Z</time></trkpt><trkpt lat="39.81752858121291" lon="16.254710698779213"><ele>416.0</ele><time>2026-03-27T09:19:51Z</time></trkpt><trkpt lat="39.81722154326648" lon="16.254604094876218"><ele>416.0</ele><time>2026-03-27T09:19:52Z</time></trkpt><trkpt lat="39.816914189521455" lon="16.2544956726079"><ele>416.0</ele><time>2026-03-27T09:19:53Z</time></trkpt><trkpt lat="39.81660717360524" lon="16.254384172870875"><ele>415.0</ele><time>2026-03-27T09:19:54Z</time></trkpt><trkpt lat="39.816299917485516" lon="16.25427122846511"><ele>414.0</ele><time>2026-03-27T09:19:55Z</time></trkpt><trkpt lat="39.8159922730272" lon="16.25415743127992"><ele>413.5</ele><time>2026-03-27T09:19:56Z</time></trkpt><trkpt lat="39.81568482535738" lon="16.254045224160784"><ele>413.0</ele><time>2026-03-27T09:19:57Z</time></trkpt><trkpt lat="39.81537631268729" lon="16.253934707561953"><ele>411.0</ele><time>2026-03-27T09:19:58Z</time></trkpt><trkpt lat="39.815068943590376" lon="16.253821008221184"><ele>409.0</ele><time>2026-03-27T09:19:59Z</time></trkpt><trkpt lat="39.81476287802353" lon="16.25370542051588"><ele>409.0</ele><time>2026-03-27T09:20:00Z</time></trkpt><trkpt lat="39.814458645843054" lon="16.253591004653103"><ele>409.0</ele><time>2026-03-27T09:20:01Z</time></trkpt><trkpt lat="39.81415574097528" lon="16.25347574609571"><ele>406.5</ele><time>2026-03-27T09:20:02Z</time></trkpt><trkpt lat="39.81385731084203" lon="16.25335171136369"><ele>404.0</ele><time>2026-03-27T09:20:03Z</time></trkpt><trkpt lat="39.81355666826603" lon="16.253228101338603"><ele>396.0</ele><time>2026-03-27T09:20:03.999Z</time></trkpt><trkpt lat="39.813257557597474" lon="16.253111371549142"><ele>388.0</ele><time>2026-03-27T09:20:04.999Z</time></trkpt><trkpt lat="39.812959036997135" lon="16.25299770202693"><ele>388.0</ele><time>2026-03-27T09:20:05.999Z</time></trkpt><trkpt lat="39.812666184993915" lon="16.252889610536705"><ele>388.0</ele><time>2026-03-27T09:20:06.999Z</time></trkpt><trkpt lat="39.81237628049586" lon="16.252780256507595"><ele>380.5</ele><time>2026-03-27T09:20:07.999Z</time></trkpt><trkpt lat="39.8120870155263" lon="16.25267400260795"><ele>373.0</ele><time>2026-03-27T09:20:08.999Z</time></trkpt><trkpt lat="39.811801019699985" lon="16.252569155607922"><ele>369.5</ele><time>2026-03-27T09:20:09.999Z</time></trkpt><trkpt lat="39.81151803416114" lon="16.2524637910297"><ele>366.0</ele><time>2026-03-27T09:20:10.999Z</time></trkpt><trkpt lat="39.81123584839276" lon="16.252357595666542"><ele>366.0</ele><time>2026-03-27T09:20:11.999Z</time></trkpt><trkpt lat="39.81095642172435" lon="16.25225152908064"><ele>366.0</ele><time>2026-03-27T09:20:12.999Z</time></trkpt><trkpt lat="39.81067754359759" lon="16.252143633758035"><ele>366.0</ele><time>2026-03-27T09:20:13.999Z</time></trkpt><trkpt lat="39.81040421452546" lon="16.252020121130375"><ele>366.0</ele><time>2026-03-27T09:20:14.999Z</time></trkpt><trkpt lat="39.81014726939372" lon="16.251877131326466"><ele>371.5</ele><time>2026-03-27T09:20:15.999Z</time></trkpt><trkpt lat="39.80991269104256" lon="16.251718224972404"><ele>377.0</ele><time>2026-03-27T09:20:16.999Z</time></trkpt><trkpt lat="39.80968664809536" lon="16.251543646157675"><ele>377.0</ele><time>2026-03-27T09:20:17.999Z</time></trkpt><trkpt lat="39.80946806650066" lon="16.251349125682925"><ele>377.0</ele><time>2026-03-27T09:20:18.999Z</time></trkpt><trkpt lat="39.80925480002162" lon="16.251134985491383"><ele>381.0</ele><time>2026-03-27T09:20:19.999Z</time></trkpt><trkpt lat="39.809046973686456" lon="16.250904324841258"><ele>385.0</ele><time>2026-03-27T09:20:20.999Z</time></trkpt><trkpt lat="39.808843032849765" lon="16.250658563774575"><ele>385.5</ele><time>2026-03-27T09:20:21.999Z</time></trkpt><trkpt lat="39.80863542279125" lon="16.250405862034953"><ele>386.0</ele><time>2026-03-27T09:20:22.999Z</time></trkpt><trkpt lat="39.80842399943616" lon="16.250154874841922"><ele>386.5</ele><time>2026-03-27T09:20:23.999Z</time></trkpt><trkpt lat="39.808208867934766" lon="16.249902511691598"><ele>387.0</ele><time>2026-03-27T09:20:24.999Z</time></trkpt><trkpt lat="39.80799307426713" lon="16.249646676670544"><ele>386.0</ele><time>2026-03-27T09:20:25.999Z</time></trkpt><trkpt lat="39.80777416441122" lon="16.249390421480374"><ele>385.0</ele><time>2026-03-27T09:20:26.999Z</time></trkpt><trkpt lat="39.80755758401835" lon="16.249133458951373"><ele>380.0</ele><time>2026-03-27T09:20:27.999Z</time></trkpt><trkpt lat="39.80734273358809" lon="16.248879476917686"><ele>375.0</ele><time>2026-03-27T09:20:28.999Z</time></trkpt><trkpt lat="39.807127048611385" lon="16.24862321906473"><ele>375.0</ele><time>2026-03-27T09:20:29.999Z</time></trkpt><trkpt lat="39.806910347410714" lon="16.248364803248194"><ele>375.0</ele><time>2026-03-27T09:20:30.999Z</time></trkpt><trkpt lat="39.80669358155698" lon="16.248106444808645"><ele>372.0</ele><time>2026-03-27T09:20:31.999Z</time></trkpt><trkpt lat="39.80647607989136" lon="16.247847467215937"><ele>369.0</ele><time>2026-03-27T09:20:32.999Z</time></trkpt><trkpt lat="39.80625788186074" lon="16.247585137403313"><ele>369.0</ele><time>2026-03-27T09:20:33.999Z</time></trkpt><trkpt lat="39.80603778108367" lon="16.247322598165823"><ele>369.0</ele><time>2026-03-27T09:20:34.999Z</time></trkpt><trkpt lat="39.805814490834415" lon="16.24705971669555"><ele>369.5</ele><time>2026-03-27T09:20:35.999Z</time></trkpt><trkpt lat="39.80558957826911" lon="16.2467946724703"><ele>370.0</ele><time>2026-03-27T09:20:36.999Z</time></trkpt><trkpt lat="39.80536369001206" lon="16.246526144819"><ele>369.0</ele><time>2026-03-27T09:20:37.999Z</time></trkpt><trkpt lat="39.805136528255204" lon="16.246254821283376"><ele>368.0</ele><time>2026-03-27T09:20:38.999Z</time></trkpt><trkpt lat="39.80490946661368" lon="16.245981440596942"><ele>368.0</ele><time>2026-03-27T09:20:39.999Z</time></trkpt><trkpt lat="39.80468119608933" lon="16.245707935611048"><ele>368.0</ele><time>2026-03-27T09:20:40.999Z</time></trkpt><trkpt lat="39.80445057111874" lon="16.245432540857884"><ele>365.5</ele><time>2026-03-27T09:20:41.999Z</time></trkpt><trkpt lat="39.804216936626574" lon="16.245157877319382"><ele>363.0</ele><time>2026-03-27T09:20:42.999Z</time></trkpt><trkpt lat="39.803981455309604" lon="16.244883178119288"><ele>359.5</ele><time>2026-03-27T09:20:43.999Z</time></trkpt><trkpt lat="39.80374625400237" lon="16.24460691970441"><ele>356.0</ele><time>2026-03-27T09:20:44.999Z</time></trkpt><trkpt lat="39.80351197409963" lon="16.244328634664303"><ele>355.5</ele><time>2026-03-27T09:20:45.999Z</time></trkpt><trkpt lat="39.80327834448376" lon="16.244049467087212"><ele>355.0</ele><time>2026-03-27T09:20:46.999Z</time></trkpt><trkpt lat="39.803045844910976" lon="16.243770747333922"><ele>355.0</ele><time>2026-03-27T09:20:47.999Z</time></trkpt><trkpt lat="39.802812683861" lon="16.24349405737076"><ele>355.0</ele><time>2026-03-27T09:20:48.999Z</time></trkpt><trkpt lat="39.802578974950926" lon="16.24321869194443"><ele>355.0</ele><time>2026-03-27T09:20:49.999Z</time></trkpt><trkpt lat="39.802346502078564" lon="16.242944844605777"><ele>355.0</ele><time>2026-03-27T09:20:50.999Z</time></trkpt><trkpt lat="39.80211508597343" lon="16.242672034722165"><ele>355.0</ele><time>2026-03-27T09:20:51.999Z</time></trkpt><trkpt lat="39.80188523615628" lon="16.242397671860004"><ele>355.0</ele><time>2026-03-27T09:20:52.999Z</time></trkpt><trkpt lat="39.80165472655334" lon="16.242125691663873"><ele>355.0</ele><time>2026-03-27T09:20:53.999Z</time></trkpt><trkpt lat="39.801424947456624" lon="16.241852419736315"><ele>355.0</ele><time>2026-03-27T09:20:54.999Z</time></trkpt><trkpt lat="39.80119586321014" lon="16.24158031450078"><ele>354.5</ele><time>2026-03-27T09:20:55.999Z</time></trkpt><trkpt lat="39.80096880333765" lon="16.24130802018044"><ele>354.0</ele><time>2026-03-27T09:20:56.999Z</time></trkpt><trkpt lat="39.80074098381745" lon="16.241037999886004"><ele>354.0</ele><time>2026-03-27T09:20:57.999Z</time></trkpt><trkpt lat="39.8005138828496" lon="16.24076713934131"><ele>354.0</ele><time>2026-03-27T09:20:58.999Z</time></trkpt><trkpt lat="39.80028790504133" lon="16.240500230887157"><ele>352.5</ele><time>2026-03-27T09:21:00Z</time></trkpt><trkpt lat="39.800063734314406" lon="16.24023377556474"><ele>351.0</ele><time>2026-03-27T09:21:01Z</time></trkpt><trkpt lat="39.79983897315528" lon="16.239969841117055"><ele>348.0</ele><time>2026-03-27T09:21:02Z</time></trkpt><trkpt lat="39.799614868714464" lon="16.23970411395817"><ele>345.0</ele><time>2026-03-27T09:21:03Z</time></trkpt><trkpt lat="39.79939020761201" lon="16.239439690012624"><ele>345.0</ele><time>2026-03-27T09:21:04Z</time></trkpt><trkpt lat="39.79916516834761" lon="16.239174304443402"><ele>345.0</ele><time>2026-03-27T09:21:05Z</time></trkpt><trkpt lat="39.79894153645642" lon="16.238906785114057"><ele>345.0</ele><time>2026-03-27T09:21:06Z</time></trkpt><trkpt lat="39.798722745987675" lon="16.2386402264663"><ele>345.0</ele><time>2026-03-27T09:21:07Z</time></trkpt><trkpt lat="39.798511284675364" lon="16.238371727655533"><ele>348.0</ele><time>2026-03-27T09:21:08Z</time></trkpt><trkpt lat="39.79831705975155" lon="16.23808990619194"><ele>351.0</ele><time>2026-03-27T09:21:09Z</time></trkpt><trkpt lat="39.798136607266784" lon="16.237793540747397"><ele>351.0</ele><time>2026-03-27T09:21:10Z</time></trkpt><trkpt lat="39.79797296480449" lon="16.23748216357036"><ele>351.0</ele><time>2026-03-27T09:21:11Z</time></trkpt><trkpt lat="39.79782057519092" lon="16.23716162605657"><ele>351.5</ele><time>2026-03-27T09:21:12Z</time></trkpt><trkpt lat="39.79768273029056" lon="16.236832305064265"><ele>352.0</ele><time>2026-03-27T09:21:13Z</time></trkpt><trkpt lat="39.79755760798282" lon="16.236494843538892"><ele>351.0</ele><time>2026-03-27T09:21:14Z</time></trkpt><trkpt lat="39.79744667584649" lon="16.236147871301696"><ele>350.0</ele><time>2026-03-27T09:21:15Z</time></trkpt><trkpt lat="39.7973453661193" lon="16.235793953959732"><ele>349.0</ele><time>2026-03-27T09:21:16Z</time></trkpt><trkpt lat="39.79724719242083" lon="16.235435197559543"><ele>348.0</ele><time>2026-03-27T09:21:17Z</time></trkpt><trkpt lat="39.79714481916585" lon="16.235077188607555"><ele>347.0</ele><time>2026-03-27T09:21:18Z</time></trkpt><trkpt lat="39.79704106732143" lon="16.234718470063576"><ele>346.0</ele><time>2026-03-27T09:21:19Z</time></trkpt><trkpt lat="39.79693445449108" lon="16.234360869467913"><ele>348.0</ele><time>2026-03-27T09:21:20Z</time></trkpt><trkpt lat="39.796818137453904" lon="16.234005691356643"><ele>350.0</ele><time>2026-03-27T09:21:21Z</time></trkpt><trkpt lat="39.796691003822986" lon="16.233652594418167"><ele>350.5</ele><time>2026-03-27T09:21:22Z</time></trkpt><trkpt lat="39.796553302064" lon="16.233305488577788"><ele>351.0</ele><time>2026-03-27T09:21:23Z</time></trkpt><trkpt lat="39.796405868128595" lon="16.232964386353903"><ele>351.0</ele><time>2026-03-27T09:21:24Z</time></trkpt><trkpt lat="39.796249602263934" lon="16.232627977975852"><ele>351.0</ele><time>2026-03-27T09:21:25Z</time></trkpt><trkpt lat="39.79608296103124" lon="16.23229986299211"><ele>350.0</ele><time>2026-03-27T09:21:26Z</time></trkpt><trkpt lat="39.79590750179939" lon="16.231977636566054"><ele>349.0</ele><time>2026-03-27T09:21:27Z</time></trkpt><trkpt lat="39.79572249898053" lon="16.231663422285862"><ele>346.0</ele><time>2026-03-27T09:21:28Z</time></trkpt><trkpt lat="39.79553016227716" lon="16.231359390267222"><ele>343.0</ele><time>2026-03-27T09:21:29Z</time></trkpt><trkpt lat="39.79532877994359" lon="16.231066156254013"><ele>341.5</ele><time>2026-03-27T09:21:30Z</time></trkpt><trkpt lat="39.79512212682723" lon="16.230782936880736"><ele>340.0</ele><time>2026-03-27T09:21:31Z</time></trkpt><trkpt lat="39.7949089705278" lon="16.230511259854215"><ele>340.0</ele><time>2026-03-27T09:21:32Z</time></trkpt><trkpt lat="39.794688742234506" lon="16.230250106366135"><ele>340.0</ele><time>2026-03-27T09:21:33Z</time></trkpt><trkpt lat="39.79446311507256" lon="16.22999899965732"><ele>338.0</ele><time>2026-03-27T09:21:34Z</time></trkpt><trkpt lat="39.794227856528394" lon="16.2297525206258"><ele>336.0</ele><time>2026-03-27T09:21:35Z</time></trkpt><trkpt lat="39.79399206865206" lon="16.229525336637554"><ele>336.0</ele><time>2026-03-27T09:21:36Z</time></trkpt><trkpt lat="39.7937486866107" lon="16.229305240639878"><ele>336.0</ele><time>2026-03-27T09:21:37Z</time></trkpt><trkpt lat="39.79350066169556" lon="16.229093777529755"><ele>334.5</ele><time>2026-03-27T09:21:38Z</time></trkpt><trkpt lat="39.79324775066241" lon="16.228896381647086"><ele>333.0</ele><time>2026-03-27T09:21:39Z</time></trkpt><trkpt lat="39.79298919433216" lon="16.228714097938305"><ele>333.0</ele><time>2026-03-27T09:21:40Z</time></trkpt><trkpt lat="39.792723322605134" lon="16.22854539617824"><ele>333.0</ele><time>2026-03-27T09:21:41Z</time></trkpt><trkpt lat="39.792458369520354" lon="16.22838537016489"><ele>333.5</ele><time>2026-03-27T09:21:42Z</time></trkpt><trkpt lat="39.79218871459625" lon="16.2282344597473"><ele>334.0</ele><time>2026-03-27T09:21:43Z</time></trkpt><trkpt lat="39.79191258596707" lon="16.22809784989028"><ele>331.0</ele><time>2026-03-27T09:21:44Z</time></trkpt><trkpt lat="39.79162661550644" lon="16.227974259548763"><ele>328.0</ele><time>2026-03-27T09:21:45Z</time></trkpt><trkpt lat="39.79133941453441" lon="16.22785634211488"><ele>328.0</ele><time>2026-03-27T09:21:46Z</time></trkpt><trkpt lat="39.79104761704416" lon="16.227749235139317"><ele>328.0</ele><time>2026-03-27T09:21:47Z</time></trkpt><trkpt lat="39.79075282804365" lon="16.227646751255016"><ele>330.5</ele><time>2026-03-27T09:21:48Z</time></trkpt><trkpt lat="39.7904567697404" lon="16.227539194532277"><ele>333.0</ele><time>2026-03-27T09:21:49Z</time></trkpt><trkpt lat="39.79015905526784" lon="16.227427499897832"><ele>334.5</ele><time>2026-03-27T09:21:50Z</time></trkpt><trkpt lat="39.789860963775396" lon="16.22731610697277"><ele>336.0</ele><time>2026-03-27T09:21:51Z</time></trkpt><trkpt lat="39.78956139777442" lon="16.227201774332023"><ele>334.5</ele><time>2026-03-27T09:21:52Z</time></trkpt><trkpt lat="39.78926142354988" lon="16.227087106345568"><ele>333.0</ele><time>2026-03-27T09:21:53Z</time></trkpt><trkpt lat="39.78896014689057" lon="16.226975878677674"><ele>333.0</ele><time>2026-03-27T09:21:54Z</time></trkpt><trkpt lat="39.78865981019899" lon="16.22686790213923"><ele>333.0</ele><time>2026-03-27T09:21:55Z</time></trkpt><trkpt lat="39.788358040302654" lon="16.226755431648662"><ele>331.0</ele><time>2026-03-27T09:21:56Z</time></trkpt><trkpt lat="39.788052396168105" lon="16.226645453488057"><ele>329.0</ele><time>2026-03-27T09:21:57Z</time></trkpt><trkpt lat="39.78774642353457" lon="16.226536110790807"><ele>326.5</ele><time>2026-03-27T09:21:58Z</time></trkpt><trkpt lat="39.78743796724899" lon="16.226430911500557"><ele>324.0</ele><time>2026-03-27T09:21:59Z</time></trkpt><trkpt lat="39.78712721371451" lon="16.22632623993205"><ele>321.0</ele><time>2026-03-27T09:22:00Z</time></trkpt><trkpt lat="39.78681671401628" lon="16.22621906658862"><ele>318.0</ele><time>2026-03-27T09:22:01Z</time></trkpt><trkpt lat="39.786506512322084" lon="16.226105041591143"><ele>318.0</ele><time>2026-03-27T09:22:02Z</time></trkpt><trkpt lat="39.786196724141384" lon="16.22599088681477"><ele>318.0</ele><time>2026-03-27T09:22:03Z</time></trkpt><trkpt lat="39.7858869196351" lon="16.22587653972805"><ele>317.0</ele><time>2026-03-27T09:22:04Z</time></trkpt><trkpt lat="39.78557813717571" lon="16.225761014075623"><ele>316.0</ele><time>2026-03-27T09:22:05Z</time></trkpt><trkpt lat="39.78527122198373" lon="16.225645088360668"><ele>313.0</ele><time>2026-03-27T09:22:06Z</time></trkpt><trkpt lat="39.784963282102396" lon="16.225529171721746"><ele>310.0</ele><time>2026-03-27T09:22:07Z</time></trkpt><trkpt lat="39.78465755564462" lon="16.22541619637407"><ele>310.0</ele><time>2026-03-27T09:22:07.999Z</time></trkpt><trkpt lat="39.784356728128444" lon="16.22530552124963"><ele>310.0</ele><time>2026-03-27T09:22:08.999Z</time></trkpt><trkpt lat="39.7840609022649" lon="16.225192726881843"><ele>305.5</ele><time>2026-03-27T09:22:09.999Z</time></trkpt><trkpt lat="39.78376463182182" lon="16.225079278353668"><ele>301.0</ele><time>2026-03-27T09:22:10.999Z</time></trkpt><trkpt lat="39.783469169511534" lon="16.22496711878969"><ele>283.5</ele><time>2026-03-27T09:22:11.999Z</time></trkpt><trkpt lat="39.78317559477804" lon="16.22485956910399"><ele>266.0</ele><time>2026-03-27T09:22:12.999Z</time></trkpt><trkpt lat="39.78288148454976" lon="16.22475468684194"><ele>239.5</ele><time>2026-03-27T09:22:13.999Z</time></trkpt><trkpt lat="39.782589629891405" lon="16.22464714279197"><ele>213.0</ele><time>2026-03-27T09:22:14.999Z</time></trkpt><trkpt lat="39.782300919351805" lon="16.224534097591725"><ele>213.0</ele><time>2026-03-27T09:22:15.999Z</time></trkpt><trkpt lat="39.782014842640244" lon="16.224423329651337"><ele>213.0</ele><time>2026-03-27T09:22:16.999Z</time></trkpt><trkpt lat="39.78172756475972" lon="16.22431312672761"><ele>196.0</ele><time>2026-03-27T09:22:17.999Z</time></trkpt><trkpt lat="39.78143873761886" lon="16.224209306050845"><ele>179.0</ele><time>2026-03-27T09:22:18.999Z</time></trkpt><trkpt lat="39.781150630767335" lon="16.224106313498446"><ele>177.5</ele><time>2026-03-27T09:22:19.999Z</time></trkpt><trkpt lat="39.78086540210306" lon="16.224001304924837"><ele>176.0</ele><time>2026-03-27T09:22:20.999Z</time></trkpt><trkpt lat="39.78057958242894" lon="16.223895638649807"><ele>182.5</ele><time>2026-03-27T09:22:21.999Z</time></trkpt><trkpt lat="39.78029552665962" lon="16.223790515051757"><ele>189.0</ele><time>2026-03-27T09:22:22.999Z</time></trkpt><trkpt lat="39.78001306459237" lon="16.22368931968224"><ele>207.0</ele><time>2026-03-27T09:22:23.999Z</time></trkpt><trkpt lat="39.77973016063252" lon="16.223586417120178"><ele>225.0</ele><time>2026-03-27T09:22:24.999Z</time></trkpt><trkpt lat="39.7794461167702" lon="16.22348092106045"><ele>233.0</ele><time>2026-03-27T09:22:25.999Z</time></trkpt><trkpt lat="39.77916013367407" lon="16.223375381469406"><ele>241.0</ele><time>2026-03-27T09:22:26.999Z</time></trkpt><trkpt lat="39.77887447916927" lon="16.223267285858817"><ele>241.0</ele><time>2026-03-27T09:22:27.999Z</time></trkpt><trkpt lat="39.77858873351768" lon="16.22316399609937"><ele>241.0</ele><time>2026-03-27T09:22:28.999Z</time></trkpt><trkpt lat="39.77830251246188" lon="16.22307391818885"><ele>255.5</ele><time>2026-03-27T09:22:29.999Z</time></trkpt><trkpt lat="39.77800920464737" lon="16.22300602013558"><ele>270.0</ele><time>2026-03-27T09:22:30.999Z</time></trkpt><trkpt lat="39.777715658848685" lon="16.222959908113317"><ele>271.0</ele><time>2026-03-27T09:22:31.999Z</time></trkpt><trkpt lat="39.777418106134675" lon="16.2229257456236"><ele>272.0</ele><time>2026-03-27T09:22:32.999Z</time></trkpt><trkpt lat="39.777118680940774" lon="16.222909239464844"><ele>271.0</ele><time>2026-03-27T09:22:33.999Z</time></trkpt><trkpt lat="39.77681868778686" lon="16.222910945521765"><ele>270.0</ele><time>2026-03-27T09:22:34.999Z</time></trkpt><trkpt lat="39.77651906823298" lon="16.222930905552108"><ele>270.0</ele><time>2026-03-27T09:22:35.999Z</time></trkpt><trkpt lat="39.77622263639756" lon="16.222969965323013"><ele>270.0</ele><time>2026-03-27T09:22:36.999Z</time></trkpt><trkpt lat="39.775927856069046" lon="16.22302700701968"><ele>271.0</ele><time>2026-03-27T09:22:37.999Z</time></trkpt><trkpt lat="39.775634530359476" lon="16.223098755845687"><ele>272.0</ele><time>2026-03-27T09:22:38.999Z</time></trkpt><trkpt lat="39.77534391476619" lon="16.223184791520165"><ele>263.0</ele><time>2026-03-27T09:22:39.999Z</time></trkpt><trkpt lat="39.77505505391726" lon="16.223277558356294"><ele>254.0</ele><time>2026-03-27T09:22:40.999Z</time></trkpt><trkpt lat="39.77476391908597" lon="16.223366601246596"><ele>254.0</ele><time>2026-03-27T09:22:41.999Z</time></trkpt><trkpt lat="39.774469951717336" lon="16.22345752271792"><ele>254.0</ele><time>2026-03-27T09:22:42.999Z</time></trkpt><trkpt lat="39.7741757328972" lon="16.223546986047843"><ele>260.5</ele><time>2026-03-27T09:22:43.999Z</time></trkpt><trkpt lat="39.773881820573166" lon="16.223634266351898"><ele>267.0</ele><time>2026-03-27T09:22:44.999Z</time></trkpt><trkpt lat="39.77358552456508" lon="16.22372198964238"><ele>270.5</ele><time>2026-03-27T09:22:45.999Z</time></trkpt><trkpt lat="39.77328847944642" lon="16.223806792477475"><ele>274.0</ele><time>2026-03-27T09:22:46.999Z</time></trkpt><trkpt lat="39.77299096109192" lon="16.2238918665964"><ele>274.0</ele><time>2026-03-27T09:22:47.999Z</time></trkpt><trkpt lat="39.77269156529231" lon="16.223974169455495"><ele>274.0</ele><time>2026-03-27T09:22:48.999Z</time></trkpt><trkpt lat="39.772389185221726" lon="16.224039293518498"><ele>271.5</ele><time>2026-03-27T09:22:49.999Z</time></trkpt><trkpt lat="39.77208486333701" lon="16.22409340293083"><ele>269.0</ele><time>2026-03-27T09:22:50.999Z</time></trkpt><trkpt lat="39.77177660164222" lon="16.22413333635137"><ele>268.0</ele><time>2026-03-27T09:22:51.999Z</time></trkpt><trkpt lat="39.7714651745973" lon="16.224157859816373"><ele>267.0</ele><time>2026-03-27T09:22:52.999Z</time></trkpt><trkpt lat="39.771150208382615" lon="16.224165832818258"><ele>266.0</ele><time>2026-03-27T09:22:53.999Z</time></trkpt><trkpt lat="39.77083461299008" lon="16.224159252857962"><ele>265.0</ele><time>2026-03-27T09:22:54.999Z</time></trkpt><trkpt lat="39.77051911350024" lon="16.224132862045433"><ele>265.0</ele><time>2026-03-27T09:22:55.999Z</time></trkpt><trkpt lat="39.770206818988825" lon="16.224095654307725"><ele>265.0</ele><time>2026-03-27T09:22:56.999Z</time></trkpt><trkpt lat="39.76989525512466" lon="16.22405211047818"><ele>264.0</ele><time>2026-03-27T09:22:57.999Z</time></trkpt><trkpt lat="39.7695823903923" lon="16.223996522781228"><ele>263.0</ele><time>2026-03-27T09:22:58.999Z</time></trkpt><trkpt lat="39.769273242250975" lon="16.223924011889263"><ele>262.0</ele><time>2026-03-27T09:22:59.999Z</time></trkpt><trkpt lat="39.768967743382085" lon="16.223835884748034"><ele>261.0</ele><time>2026-03-27T09:23:00.999Z</time></trkpt><trkpt lat="39.76866549356267" lon="16.223731434386"><ele>257.0</ele><time>2026-03-27T09:23:01.999Z</time></trkpt><trkpt lat="39.76836787037024" lon="16.223617762105626"><ele>253.0</ele><time>2026-03-27T09:23:02.999Z</time></trkpt><trkpt lat="39.76807526331635" lon="16.22349580196493"><ele>253.0</ele><time>2026-03-27T09:23:03.999Z</time></trkpt><trkpt lat="39.76778466046832" lon="16.223362475951383"><ele>253.0</ele><time>2026-03-27T09:23:04.999Z</time></trkpt><trkpt lat="39.76749691543081" lon="16.22322238943852"><ele>240.0</ele><time>2026-03-27T09:23:06Z</time></trkpt><trkpt lat="39.76721110619898" lon="16.223080094606438"><ele>227.0</ele><time>2026-03-27T09:23:07Z</time></trkpt><trkpt lat="39.766927251375144" lon="16.222934451740272"><ele>235.0</ele><time>2026-03-27T09:23:08Z</time></trkpt><trkpt lat="39.76664425300916" lon="16.222789354706435"><ele>243.0</ele><time>2026-03-27T09:23:09Z</time></trkpt><trkpt lat="39.76636082054321" lon="16.222648167021383"><ele>243.0</ele><time>2026-03-27T09:23:10Z</time></trkpt><trkpt lat="39.766077614159386" lon="16.2225075734884"><ele>243.0</ele><time>2026-03-27T09:23:11Z</time></trkpt><trkpt lat="39.76579324636858" lon="16.22236553110739"><ele>247.0</ele><time>2026-03-27T09:23:12Z</time></trkpt><trkpt lat="39.76550893865082" lon="16.222224736044705"><ele>251.0</ele><time>2026-03-27T09:23:13Z</time></trkpt><trkpt lat="39.76522476126101" lon="16.222080757933256"><ele>251.0</ele><time>2026-03-27T09:23:14Z</time></trkpt><trkpt lat="39.764941721010786" lon="16.22194054014257"><ele>251.0</ele><time>2026-03-27T09:23:15Z</time></trkpt><trkpt lat="39.76465972538921" lon="16.221802483632576"><ele>251.0</ele><time>2026-03-27T09:23:16Z</time></trkpt><trkpt lat="39.76437713705917" lon="16.221666025404083"><ele>251.0</ele><time>2026-03-27T09:23:17Z</time></trkpt><trkpt lat="39.76409554046224" lon="16.221533234688675"><ele>250.0</ele><time>2026-03-27T09:23:18Z</time></trkpt><trkpt lat="39.763816940953916" lon="16.221396591923437"><ele>249.0</ele><time>2026-03-27T09:23:19Z</time></trkpt><trkpt lat="39.763540473335134" lon="16.221254389307454"><ele>241.5</ele><time>2026-03-27T09:23:20Z</time></trkpt><trkpt lat="39.76327342672769" lon="16.221117358466167"><ele>234.0</ele><time>2026-03-27T09:23:21Z</time></trkpt><trkpt lat="39.76301856268349" lon="16.220991677201518"><ele>234.0</ele><time>2026-03-27T09:23:22Z</time></trkpt><trkpt lat="39.762771622099166" lon="16.220872094689227"><ele>234.0</ele><time>2026-03-27T09:23:23Z</time></trkpt><trkpt lat="39.762527307577066" lon="16.220752475390274"><ele>226.5</ele><time>2026-03-27T09:23:24Z</time></trkpt><trkpt lat="39.76228828428136" lon="16.220633341842387"><ele>219.0</ele><time>2026-03-27T09:23:25Z</time></trkpt><trkpt lat="39.76205121716784" lon="16.220526295595768"><ele>210.5</ele><time>2026-03-27T09:23:26Z</time></trkpt><trkpt lat="39.76180687696015" lon="16.220441547118934"><ele>202.0</ele><time>2026-03-27T09:23:27Z</time></trkpt><trkpt lat="39.761558037904116" lon="16.220384967224064"><ele>202.0</ele><time>2026-03-27T09:23:28Z</time></trkpt><trkpt lat="39.76131190998756" lon="16.22034655046626"><ele>202.0</ele><time>2026-03-27T09:23:29Z</time></trkpt><trkpt lat="39.761061803326484" lon="16.220332587394434"><ele>192.5</ele><time>2026-03-27T09:23:30Z</time></trkpt><trkpt lat="39.760807183957496" lon="16.220330137335658"><ele>183.0</ele><time>2026-03-27T09:23:31Z</time></trkpt><trkpt lat="39.76054800827948" lon="16.220342302882905"><ele>183.0</ele><time>2026-03-27T09:23:32Z</time></trkpt><trkpt lat="39.760284836459874" lon="16.220362213286393"><ele>183.0</ele><time>2026-03-27T09:23:33Z</time></trkpt><trkpt lat="39.76001988864672" lon="16.220381380137137"><ele>170.5</ele><time>2026-03-27T09:23:34Z</time></trkpt><trkpt lat="39.75975196016758" lon="16.22039559283979"><ele>158.0</ele><time>2026-03-27T09:23:35Z</time></trkpt><trkpt lat="39.75947974868286" lon="16.22040853105418"><ele>150.5</ele><time>2026-03-27T09:23:36Z</time></trkpt><trkpt lat="39.75920610600834" lon="16.220425982982906"><ele>143.0</ele><time>2026-03-27T09:23:37Z</time></trkpt><trkpt lat="39.758931838802695" lon="16.220446947258896"><ele>143.0</ele><time>2026-03-27T09:23:38Z</time></trkpt><trkpt lat="39.75865525007618" lon="16.220464354233883"><ele>143.0</ele><time>2026-03-27T09:23:39Z</time></trkpt><trkpt lat="39.75837939885775" lon="16.220479118599123"><ele>143.0</ele><time>2026-03-27T09:23:40Z</time></trkpt><trkpt lat="39.758110715447046" lon="16.22049468089011"><ele>143.0</ele><time>2026-03-27T09:23:41Z</time></trkpt><trkpt lat="39.757855153080875" lon="16.220508813470953"><ele>152.5</ele><time>2026-03-27T09:23:42Z</time></trkpt><trkpt lat="39.75760963680159" lon="16.22052221351766"><ele>162.0</ele><time>2026-03-27T09:23:43Z</time></trkpt><trkpt lat="39.757370186629835" lon="16.220535325420645"><ele>162.0</ele><time>2026-03-27T09:23:44Z</time></trkpt><trkpt lat="39.75713349740005" lon="16.220546333202325"><ele>162.0</ele><time>2026-03-27T09:23:45Z</time></trkpt><trkpt lat="39.756900554059335" lon="16.220557720388232"><ele>176.5</ele><time>2026-03-27T09:23:46Z</time></trkpt><trkpt lat="39.756666760867205" lon="16.22057416129413"><ele>191.0</ele><time>2026-03-27T09:23:47Z</time></trkpt><trkpt lat="39.75643070705459" lon="16.22060073391815"><ele>191.0</ele><time>2026-03-27T09:23:48Z</time></trkpt><trkpt lat="39.75619620576861" lon="16.220648879810263"><ele>191.0</ele><time>2026-03-27T09:23:49Z</time></trkpt><trkpt lat="39.75596455885338" lon="16.220719704028372"><ele>198.0</ele><time>2026-03-27T09:23:50Z</time></trkpt><trkpt lat="39.75573803658798" lon="16.220813894401793"><ele>205.0</ele><time>2026-03-27T09:23:51Z</time></trkpt><trkpt lat="39.7555139018799" lon="16.220928571881295"><ele>205.0</ele><time>2026-03-27T09:23:52Z</time></trkpt><trkpt lat="39.75529629250273" lon="16.221068835394"><ele>205.0</ele><time>2026-03-27T09:23:53Z</time></trkpt><trkpt lat="39.755086397243815" lon="16.221230355223405"><ele>204.0</ele><time>2026-03-27T09:23:54Z</time></trkpt><trkpt lat="39.754884047288115" lon="16.221410960490214"><ele>203.0</ele><time>2026-03-27T09:23:55Z</time></trkpt><trkpt lat="39.75469079109971" lon="16.22161313906716"><ele>203.0</ele><time>2026-03-27T09:23:56Z</time></trkpt><trkpt lat="39.75452016526362" lon="16.22182698379544"><ele>203.0</ele><time>2026-03-27T09:23:57Z</time></trkpt><trkpt lat="39.754363384008066" lon="16.222051855941512"><ele>201.0</ele><time>2026-03-27T09:23:58Z</time></trkpt><trkpt lat="39.754205643215606" lon="16.2222843973908"><ele>199.0</ele><time>2026-03-27T09:23:59Z</time></trkpt><trkpt lat="39.754043594815336" lon="16.22251682325595"><ele>199.0</ele><time>2026-03-27T09:24:00Z</time></trkpt><trkpt lat="39.753881553826815" lon="16.222744929401568"><ele>199.0</ele><time>2026-03-27T09:24:01Z</time></trkpt><trkpt lat="39.753721303709085" lon="16.22295409666188"><ele>199.0</ele><time>2026-03-27T09:24:02Z</time></trkpt><trkpt lat="39.753556240835806" lon="16.22314630650595"><ele>199.0</ele><time>2026-03-27T09:24:03Z</time></trkpt><trkpt lat="39.75338241866188" lon="16.223319836723693"><ele>199.0</ele><time>2026-03-27T09:24:04Z</time></trkpt><trkpt lat="39.75319339879037" lon="16.223482059143826"><ele>196.5</ele><time>2026-03-27T09:24:05Z</time></trkpt><trkpt lat="39.752992059485734" lon="16.223630869317553"><ele>194.0</ele><time>2026-03-27T09:24:06Z</time></trkpt><trkpt lat="39.75277366979075" lon="16.223758838568862"><ele>194.5</ele><time>2026-03-27T09:24:07Z</time></trkpt><trkpt lat="39.7525452500959" lon="16.223872323355838"><ele>195.0</ele><time>2026-03-27T09:24:08Z</time></trkpt><trkpt lat="39.752306187756574" lon="16.2239676162485"><ele>188.0</ele><time>2026-03-27T09:24:09Z</time></trkpt><trkpt lat="39.75206045791571" lon="16.224047619996668"><ele>181.0</ele><time>2026-03-27T09:24:10Z</time></trkpt><trkpt lat="39.751808056794566" lon="16.22411782648911"><ele>179.5</ele><time>2026-03-27T09:24:11Z</time></trkpt><trkpt lat="39.751548130943135" lon="16.224183918476758"><ele>178.0</ele><time>2026-03-27T09:24:12Z</time></trkpt><trkpt lat="39.75128261865791" lon="16.224249827718157"><ele>179.5</ele><time>2026-03-27T09:24:13Z</time></trkpt><trkpt lat="39.751009548298065" lon="16.224320138604163"><ele>181.0</ele><time>2026-03-27T09:24:14Z</time></trkpt><trkpt lat="39.750733286893826" lon="16.22439372091411"><ele>181.0</ele><time>2026-03-27T09:24:15Z</time></trkpt><trkpt lat="39.75045275342883" lon="16.224474057483466"><ele>181.0</ele><time>2026-03-27T09:24:16Z</time></trkpt><trkpt lat="39.750167533648636" lon="16.22455512951083"><ele>182.5</ele><time>2026-03-27T09:24:17Z</time></trkpt><trkpt lat="39.74987921597441" lon="16.224632470511786"><ele>184.0</ele><time>2026-03-27T09:24:18Z</time></trkpt><trkpt lat="39.74958837965245" lon="16.22470700389619"><ele>187.5</ele><time>2026-03-27T09:24:19Z</time></trkpt><trkpt lat="39.749294429162255" lon="16.2247826639691"><ele>191.0</ele><time>2026-03-27T09:24:19.999Z</time></trkpt><trkpt lat="39.74899804279029" lon="16.22486001684295"><ele>181.0</ele><time>2026-03-27T09:24:20.999Z</time></trkpt><trkpt lat="39.748699919896225" lon="16.224938629632152"><ele>171.0</ele><time>2026-03-27T09:24:21.999Z</time></trkpt><trkpt lat="39.74839937157336" lon="16.225018598987333"><ele>169.0</ele><time>2026-03-27T09:24:22.999Z</time></trkpt><trkpt lat="39.74809844414226" lon="16.225098801674573"><ele>167.0</ele><time>2026-03-27T09:24:23.999Z</time></trkpt><trkpt lat="39.74779788377746" lon="16.225175968314517"><ele>164.5</ele><time>2026-03-27T09:24:24.999Z</time></trkpt><trkpt lat="39.7474982592702" lon="16.225249382936678"><ele>162.0</ele><time>2026-03-27T09:24:25.999Z</time></trkpt><trkpt lat="39.74720238830048" lon="16.225323526428312"><ele>162.0</ele><time>2026-03-27T09:24:26.999Z</time></trkpt><trkpt lat="39.746908449839594" lon="16.225399562472532"><ele>162.0</ele><time>2026-03-27T09:24:27.999Z</time></trkpt><trkpt lat="39.74661979533276" lon="16.225475045669956"><ele>157.5</ele><time>2026-03-27T09:24:28.999Z</time></trkpt><trkpt lat="39.74634560247806" lon="16.225550934015757"><ele>153.0</ele><time>2026-03-27T09:24:29.999Z</time></trkpt><trkpt lat="39.74607761981008" lon="16.225635326501955"><ele>153.5</ele><time>2026-03-27T09:24:30.999Z</time></trkpt><trkpt lat="39.74581026934066" lon="16.225737210178913"><ele>154.0</ele><time>2026-03-27T09:24:31.999Z</time></trkpt><trkpt lat="39.745540766978564" lon="16.22584789893773"><ele>154.0</ele><time>2026-03-27T09:24:32.999Z</time></trkpt><trkpt lat="39.74526729127745" lon="16.225970988169262"><ele>154.0</ele><time>2026-03-27T09:24:33.999Z</time></trkpt><trkpt lat="39.744996531684585" lon="16.226106133260487"><ele>152.0</ele><time>2026-03-27T09:24:34.999Z</time></trkpt><trkpt lat="39.74473248682527" lon="16.226252461276296"><ele>150.0</ele><time>2026-03-27T09:24:35.999Z</time></trkpt><trkpt lat="39.744471377545516" lon="16.2264093449196"><ele>146.0</ele><time>2026-03-27T09:24:36.999Z</time></trkpt><trkpt lat="39.74421371975311" lon="16.226578742537015"><ele>142.0</ele><time>2026-03-27T09:24:37.999Z</time></trkpt><trkpt lat="39.74395703885357" lon="16.22675630899172"><ele>142.0</ele><time>2026-03-27T09:24:38.999Z</time></trkpt><trkpt lat="39.74370368812063" lon="16.226938571907663"><ele>142.0</ele><time>2026-03-27T09:24:39.999Z</time></trkpt><trkpt lat="39.743457145454684" lon="16.227141801286916"><ele>138.0</ele><time>2026-03-27T09:24:40.999Z</time></trkpt><trkpt lat="39.743214793429075" lon="16.227350765066614"><ele>134.0</ele><time>2026-03-27T09:24:41.999Z</time></trkpt><trkpt lat="39.74297025351452" lon="16.227567220792075"><ele>134.0</ele><time>2026-03-27T09:24:42.999Z</time></trkpt><trkpt lat="39.74272756618366" lon="16.227784443655526"><ele>134.0</ele><time>2026-03-27T09:24:43.999Z</time></trkpt><trkpt lat="39.74248575722428" lon="16.227999829482172"><ele>129.5</ele><time>2026-03-27T09:24:44.999Z</time></trkpt><trkpt lat="39.74224530832338" lon="16.22821596814497"><ele>125.0</ele><time>2026-03-27T09:24:45.999Z</time></trkpt><trkpt lat="39.74200413118733" lon="16.228429424121096"><ele>125.0</ele><time>2026-03-27T09:24:46.999Z</time></trkpt><trkpt lat="39.74176470180782" lon="16.228638422220687"><ele>125.0</ele><time>2026-03-27T09:24:47.999Z</time></trkpt><trkpt lat="39.74153770644462" lon="16.228838272714444"><ele>122.5</ele><time>2026-03-27T09:24:48.999Z</time></trkpt><trkpt lat="39.74131657772694" lon="16.229034850050024"><ele>120.0</ele><time>2026-03-27T09:24:49.999Z</time></trkpt><trkpt lat="39.741093366209725" lon="16.2292340930866"><ele>125.0</ele><time>2026-03-27T09:24:50.999Z</time></trkpt><trkpt lat="39.74086740664962" lon="16.22943955704315"><ele>130.0</ele><time>2026-03-27T09:24:51.999Z</time></trkpt><trkpt lat="39.74063792240563" lon="16.22964811419462"><ele>128.5</ele><time>2026-03-27T09:24:52.999Z</time></trkpt><trkpt lat="39.74040414829696" lon="16.229851334435118"><ele>127.0</ele><time>2026-03-27T09:24:53.999Z</time></trkpt><trkpt lat="39.74016783352149" lon="16.23005418142916"><ele>127.0</ele><time>2026-03-27T09:24:54.999Z</time></trkpt><trkpt lat="39.73992783627815" lon="16.230253143522123"><ele>127.0</ele><time>2026-03-27T09:24:55.999Z</time></trkpt><trkpt lat="39.73968239174915" lon="16.230442228188217"><ele>127.0</ele><time>2026-03-27T09:24:56.999Z</time></trkpt><trkpt lat="39.739431287142914" lon="16.230622838424985"><ele>127.0</ele><time>2026-03-27T09:24:57.999Z</time></trkpt><trkpt lat="39.73917468622985" lon="16.230795570289843"><ele>124.0</ele><time>2026-03-27T09:24:58.999Z</time></trkpt><trkpt lat="39.7389168325923" lon="16.230955628267008"><ele>121.0</ele><time>2026-03-27T09:24:59.999Z</time></trkpt><trkpt lat="39.738658273456736" lon="16.231103214213636"><ele>121.0</ele><time>2026-03-27T09:25:00.999Z</time></trkpt><trkpt lat="39.73840093587382" lon="16.231239885825747"><ele>121.0</ele><time>2026-03-27T09:25:01.999Z</time></trkpt><trkpt lat="39.73814342322265" lon="16.231363498814865"><ele>116.0</ele><time>2026-03-27T09:25:02.999Z</time></trkpt><trkpt lat="39.73788647318298" lon="16.231477700032332"><ele>111.0</ele><time>2026-03-27T09:25:03.999Z</time></trkpt><trkpt lat="39.737625679395016" lon="16.231586902609042"><ele>111.0</ele><time>2026-03-27T09:25:04.999Z</time></trkpt><trkpt lat="39.73736042759615" lon="16.231684052908687"><ele>111.0</ele><time>2026-03-27T09:25:05.999Z</time></trkpt><trkpt lat="39.73709023598781" lon="16.23177134586226"><ele>111.0</ele><time>2026-03-27T09:25:06.999Z</time></trkpt><trkpt lat="39.73681585067018" lon="16.231853218257566"><ele>111.0</ele><time>2026-03-27T09:25:07.999Z</time></trkpt><trkpt lat="39.73653784557929" lon="16.231925120297067"><ele>111.0</ele><time>2026-03-27T09:25:08.999Z</time></trkpt><trkpt lat="39.73625702461243" lon="16.23199030560594"><ele>111.0</ele><time>2026-03-27T09:25:09.999Z</time></trkpt><trkpt lat="39.73597416628998" lon="16.232059684779124"><ele>111.5</ele><time>2026-03-27T09:25:11Z</time></trkpt><trkpt lat="39.73569096018092" lon="16.23213183140935"><ele>112.0</ele><time>2026-03-27T09:25:12Z</time></trkpt><trkpt lat="39.73540729846458" lon="16.23220135756476"><ele>111.0</ele><time>2026-03-27T09:25:13Z</time></trkpt><trkpt lat="39.73512039129039" lon="16.23227048490974"><ele>110.0</ele><time>2026-03-27T09:25:14Z</time></trkpt><trkpt lat="39.73483068975924" lon="16.23234106208766"><ele>107.5</ele><time>2026-03-27T09:25:15Z</time></trkpt><trkpt lat="39.73454466117692" lon="16.232412331727907"><ele>105.0</ele><time>2026-03-27T09:25:16Z</time></trkpt><trkpt lat="39.73425815832586" lon="16.232482709211688"><ele>105.0</ele><time>2026-03-27T09:25:17Z</time></trkpt><trkpt lat="39.73397383044416" lon="16.23256339870871"><ele>105.0</ele><time>2026-03-27T09:25:18Z</time></trkpt><trkpt lat="39.73369586452704" lon="16.232662716257366"><ele>104.0</ele><time>2026-03-27T09:25:19Z</time></trkpt><trkpt lat="39.733422897781054" lon="16.23277403817052"><ele>103.0</ele><time>2026-03-27T09:25:20Z</time></trkpt><trkpt lat="39.73315415438578" lon="16.23289595154462"><ele>103.0</ele><time>2026-03-27T09:25:21Z</time></trkpt><trkpt lat="39.73288569269407" lon="16.233027426307814"><ele>103.0</ele><time>2026-03-27T09:25:22Z</time></trkpt><trkpt lat="39.7326209765036" lon="16.233166606421833"><ele>102.0</ele><time>2026-03-27T09:25:23Z</time></trkpt><trkpt lat="39.73235749021813" lon="16.233311942961247"><ele>101.0</ele><time>2026-03-27T09:25:24Z</time></trkpt><trkpt lat="39.73209089449801" lon="16.233460986294055"><ele>101.0</ele><time>2026-03-27T09:25:25Z</time></trkpt><trkpt lat="39.73182133988289" lon="16.233607488204452"><ele>101.0</ele><time>2026-03-27T09:25:26Z</time></trkpt><trkpt lat="39.73154939576876" lon="16.23375536361747"><ele>101.0</ele><time>2026-03-27T09:25:27Z</time></trkpt><trkpt lat="39.73127640706265" lon="16.2339054785435"><ele>101.0</ele><time>2026-03-27T09:25:28Z</time></trkpt><trkpt lat="39.73100077851234" lon="16.234055449455276"><ele>99.5</ele><time>2026-03-27T09:25:29Z</time></trkpt><trkpt lat="39.73072293472631" lon="16.234208229483688"><ele>98.0</ele><time>2026-03-27T09:25:30Z</time></trkpt><trkpt lat="39.730444486747984" lon="16.23436484117001"><ele>98.0</ele><time>2026-03-27T09:25:31Z</time></trkpt><trkpt lat="39.73016671897071" lon="16.234524598802853"><ele>98.0</ele><time>2026-03-27T09:25:32Z</time></trkpt><trkpt lat="39.72988810763075" lon="16.23468435802445"><ele>97.5</ele><time>2026-03-27T09:25:33Z</time></trkpt><trkpt lat="39.72960930896495" lon="16.234841742562732"><ele>97.0</ele><time>2026-03-27T09:25:34Z</time></trkpt><trkpt lat="39.729327766986735" lon="16.234999579128974"><ele>99.5</ele><time>2026-03-27T09:25:35Z</time></trkpt><trkpt lat="39.729047885288274" lon="16.235153479885195"><ele>102.0</ele><time>2026-03-27T09:25:36Z</time></trkpt><trkpt lat="39.72877037111839" lon="16.23530430558759"><ele>102.0</ele><time>2026-03-27T09:25:37Z</time></trkpt><trkpt lat="39.7284926554125" lon="16.235455064660115"><ele>102.0</ele><time>2026-03-27T09:25:38Z</time></trkpt><trkpt lat="39.72821341061882" lon="16.23559983558116"><ele>102.0</ele><time>2026-03-27T09:25:39Z</time></trkpt><trkpt lat="39.72793510839217" lon="16.235741330251663"><ele>102.0</ele><time>2026-03-27T09:25:40Z</time></trkpt><trkpt lat="39.72765904686815" lon="16.23588293874879"><ele>102.0</ele><time>2026-03-27T09:25:41Z</time></trkpt><trkpt lat="39.727383169586616" lon="16.23602350723961"><ele>102.0</ele><time>2026-03-27T09:25:42Z</time></trkpt><trkpt lat="39.72709922923668" lon="16.236160848501168"><ele>104.0</ele><time>2026-03-27T09:25:43Z</time></trkpt><trkpt lat="39.72681616993881" lon="16.236299518468233"><ele>106.0</ele><time>2026-03-27T09:25:44Z</time></trkpt><trkpt lat="39.7265333244774" lon="16.236447445826606"><ele>105.0</ele><time>2026-03-27T09:25:45Z</time></trkpt><trkpt lat="39.726251297995724" lon="16.23659982424102"><ele>104.0</ele><time>2026-03-27T09:25:46Z</time></trkpt><trkpt lat="39.72596861901261" lon="16.236755290868736"><ele>104.0</ele><time>2026-03-27T09:25:47Z</time></trkpt><trkpt lat="39.72568708720884" lon="16.23691205985388"><ele>104.0</ele><time>2026-03-27T09:25:48Z</time></trkpt><trkpt lat="39.72540752838275" lon="16.237069714872824"><ele>104.5</ele><time>2026-03-27T09:25:49Z</time></trkpt><trkpt lat="39.72512787843448" lon="16.237221951185035"><ele>105.0</ele><time>2026-03-27T09:25:50Z</time></trkpt><trkpt lat="39.72484598537439" lon="16.237373293017093"><ele>105.0</ele><time>2026-03-27T09:25:51Z</time></trkpt><trkpt lat="39.72456362008265" lon="16.237523413789937"><ele>105.0</ele><time>2026-03-27T09:25:52Z</time></trkpt><trkpt lat="39.72428281517356" lon="16.237669131659732"><ele>105.0</ele><time>2026-03-27T09:25:53Z</time></trkpt><trkpt lat="39.72400335809087" lon="16.23781271906872"><ele>105.0</ele><time>2026-03-27T09:25:54Z</time></trkpt><trkpt lat="39.723724322425774" lon="16.23795786803365"><ele>106.0</ele><time>2026-03-27T09:25:55Z</time></trkpt><trkpt lat="39.7234433165672" lon="16.238104799210394"><ele>107.0</ele><time>2026-03-27T09:25:56Z</time></trkpt><trkpt lat="39.72316132549967" lon="16.238251622035072"><ele>107.0</ele><time>2026-03-27T09:25:57Z</time></trkpt><trkpt lat="39.7228824523606" lon="16.23839717344636"><ele>107.0</ele><time>2026-03-27T09:25:58Z</time></trkpt><trkpt lat="39.7226019643641" lon="16.2385424686549"><ele>107.0</ele><time>2026-03-27T09:25:59Z</time></trkpt><trkpt lat="39.7223211359778" lon="16.23869070159289"><ele>107.0</ele><time>2026-03-27T09:26:00Z</time></trkpt><trkpt lat="39.72204125023062" lon="16.238840363043586"><ele>107.0</ele><time>2026-03-27T09:26:01Z</time></trkpt><trkpt lat="39.72176199397472" lon="16.23898695639368"><ele>107.0</ele><time>2026-03-27T09:26:02Z</time></trkpt><trkpt lat="39.721481065967915" lon="16.23913339431537"><ele>107.0</ele><time>2026-03-27T09:26:03Z</time></trkpt><trkpt lat="39.72119844283838" lon="16.23927862395278"><ele>107.0</ele><time>2026-03-27T09:26:04Z</time></trkpt><trkpt lat="39.720916251149724" lon="16.23942681193576"><ele>108.0</ele><time>2026-03-27T09:26:05Z</time></trkpt><trkpt lat="39.72063389720138" lon="16.239572941135457"><ele>109.0</ele><time>2026-03-27T09:26:06Z</time></trkpt><trkpt lat="39.72035081966078" lon="16.23971224936843"><ele>108.5</ele><time>2026-03-27T09:26:07Z</time></trkpt><trkpt lat="39.72006724545531" lon="16.239844518126816"><ele>108.0</ele><time>2026-03-27T09:26:08Z</time></trkpt><trkpt lat="39.71978197250593" lon="16.239980801444574"><ele>108.0</ele><time>2026-03-27T09:26:09Z</time></trkpt><trkpt lat="39.71949774492221" lon="16.240122003607933"><ele>108.0</ele><time>2026-03-27T09:26:10Z</time></trkpt><trkpt lat="39.719213852057514" lon="16.24026786424497"><ele>107.5</ele><time>2026-03-27T09:26:11Z</time></trkpt><trkpt lat="39.7189284698862" lon="16.24041506099876"><ele>107.0</ele><time>2026-03-27T09:26:12Z</time></trkpt><trkpt lat="39.71864253161968" lon="16.240561290448"><ele>107.0</ele><time>2026-03-27T09:26:13Z</time></trkpt><trkpt lat="39.71835746801695" lon="16.24070540703482"><ele>107.0</ele><time>2026-03-27T09:26:14Z</time></trkpt><trkpt lat="39.71807272625141" lon="16.240847534348063"><ele>107.0</ele><time>2026-03-27T09:26:15Z</time></trkpt><trkpt lat="39.71778925662341" lon="16.24099137827646"><ele>107.0</ele><time>2026-03-27T09:26:16Z</time></trkpt><trkpt lat="39.71750747026569" lon="16.24113850319874"><ele>109.0</ele><time>2026-03-27T09:26:17Z</time></trkpt><trkpt lat="39.717227398592826" lon="16.24128623434788"><ele>111.0</ele><time>2026-03-27T09:26:18Z</time></trkpt><trkpt lat="39.716949272182454" lon="16.241433973405826"><ele>110.5</ele><time>2026-03-27T09:26:19Z</time></trkpt><trkpt lat="39.71667170054224" lon="16.241580412713997"><ele>110.0</ele><time>2026-03-27T09:26:20Z</time></trkpt><trkpt lat="39.71639430584241" lon="16.241726876324236"><ele>110.0</ele><time>2026-03-27T09:26:21Z</time></trkpt><trkpt lat="39.71611642282414" lon="16.241873684306242"><ele>110.0</ele><time>2026-03-27T09:26:22Z</time></trkpt><trkpt lat="39.71583946583268" lon="16.242017960318478"><ele>110.5</ele><time>2026-03-27T09:26:23Z</time></trkpt><trkpt lat="39.71556195951807" lon="16.24216083629989"><ele>111.0</ele><time>2026-03-27T09:26:24Z</time></trkpt><trkpt lat="39.71528889153434" lon="16.24230304394398"><ele>108.5</ele><time>2026-03-27T09:26:25Z</time></trkpt><trkpt lat="39.715016452735384" lon="16.24244755197661"><ele>106.0</ele><time>2026-03-27T09:26:25.999Z</time></trkpt><trkpt lat="39.7147410906692" lon="16.242590950453884"><ele>106.0</ele><time>2026-03-27T09:26:26.999Z</time></trkpt><trkpt lat="39.714464782178986" lon="16.242733005649484"><ele>106.0</ele><time>2026-03-27T09:26:27.999Z</time></trkpt><trkpt lat="39.71418655361987" lon="16.242876511817474"><ele>103.5</ele><time>2026-03-27T09:26:28.999Z</time></trkpt><trkpt lat="39.713904723324035" lon="16.243016444654483"><ele>101.0</ele><time>2026-03-27T09:26:29.999Z</time></trkpt><trkpt lat="39.713617429973944" lon="16.243149365667524"><ele>96.5</ele><time>2026-03-27T09:26:30.999Z</time></trkpt><trkpt lat="39.71332656155872" lon="16.24327352169087"><ele>92.0</ele><time>2026-03-27T09:26:31.999Z</time></trkpt><trkpt lat="39.713031821621065" lon="16.243390209009156"><ele>90.0</ele><time>2026-03-27T09:26:32.999Z</time></trkpt><trkpt lat="39.7127332881332" lon="16.24349974255216"><ele>88.0</ele><time>2026-03-27T09:26:33.999Z</time></trkpt><trkpt lat="39.71243183131366" lon="16.243598163314065"><ele>88.0</ele><time>2026-03-27T09:26:34.999Z</time></trkpt><trkpt lat="39.71212691836814" lon="16.24368324373552"><ele>88.0</ele><time>2026-03-27T09:26:35.999Z</time></trkpt><trkpt lat="39.71181979882146" lon="16.243754763327694"><ele>94.5</ele><time>2026-03-27T09:26:36.999Z</time></trkpt><trkpt lat="39.7115100637222" lon="16.243817683651795"><ele>101.0</ele><time>2026-03-27T09:26:37.999Z</time></trkpt><trkpt lat="39.711200713639236" lon="16.243871142267025"><ele>106.5</ele><time>2026-03-27T09:26:38.999Z</time></trkpt><trkpt lat="39.71088885890873" lon="16.243914315635465"><ele>112.0</ele><time>2026-03-27T09:26:39.999Z</time></trkpt><trkpt lat="39.710574612798915" lon="16.243947582244893"><ele>105.5</ele><time>2026-03-27T09:26:40.999Z</time></trkpt><trkpt lat="39.71026009995044" lon="16.24397047784728"><ele>99.0</ele><time>2026-03-27T09:26:41.999Z</time></trkpt><trkpt lat="39.70994550734481" lon="16.24398195591746"><ele>98.0</ele><time>2026-03-27T09:26:42.999Z</time></trkpt><trkpt lat="39.709631290454425" lon="16.24398177265727"><ele>97.0</ele><time>2026-03-27T09:26:43.999Z</time></trkpt><trkpt lat="39.70931723211598" lon="16.243971068407006"><ele>99.5</ele><time>2026-03-27T09:26:44.999Z</time></trkpt><trkpt lat="39.709005244288754" lon="16.243950036006638"><ele>102.0</ele><time>2026-03-27T09:26:45.999Z</time></trkpt><trkpt lat="39.708693467595715" lon="16.24392032996883"><ele>103.5</ele><time>2026-03-27T09:26:46.999Z</time></trkpt><trkpt lat="39.708383305126276" lon="16.24387925720614"><ele>105.0</ele><time>2026-03-27T09:26:47.999Z</time></trkpt><trkpt lat="39.708074478830355" lon="16.243825778388217"><ele>105.0</ele><time>2026-03-27T09:26:48.999Z</time></trkpt><trkpt lat="39.70776583649537" lon="16.243760963245094"><ele>105.0</ele><time>2026-03-27T09:26:49.999Z</time></trkpt><trkpt lat="39.70745755360786" lon="16.24368274911267"><ele>102.5</ele><time>2026-03-27T09:26:50.999Z</time></trkpt><trkpt lat="39.70714847409993" lon="16.24359545552394"><ele>100.0</ele><time>2026-03-27T09:26:51.999Z</time></trkpt><trkpt lat="39.706840502591255" lon="16.24350442808353"><ele>99.0</ele><time>2026-03-27T09:26:52.999Z</time></trkpt><trkpt lat="39.706533517728325" lon="16.243396662972366"><ele>98.0</ele><time>2026-03-27T09:26:53.999Z</time></trkpt><trkpt lat="39.70622649478671" lon="16.243279817410315"><ele>99.0</ele><time>2026-03-27T09:26:54.999Z</time></trkpt><trkpt lat="39.70592184551135" lon="16.24314846945656"><ele>100.0</ele><time>2026-03-27T09:26:55.999Z</time></trkpt><trkpt lat="39.70562075553529" lon="16.243010572164128"><ele>100.0</ele><time>2026-03-27T09:26:56.999Z</time></trkpt><trkpt lat="39.70532249173993" lon="16.24286511080196"><ele>100.0</ele><time>2026-03-27T09:26:57.999Z</time></trkpt><trkpt lat="39.705027212852265" lon="16.242710162405064"><ele>96.0</ele><time>2026-03-27T09:26:58.999Z</time></trkpt><trkpt lat="39.70473083019411" lon="16.24255087626585"><ele>92.0</ele><time>2026-03-27T09:26:59.999Z</time></trkpt><trkpt lat="39.704430985113035" lon="16.24238403779764"><ele>92.0</ele><time>2026-03-27T09:27:00.999Z</time></trkpt><trkpt lat="39.70413175078875" lon="16.24221036584716"><ele>92.0</ele><time>2026-03-27T09:27:01.999Z</time></trkpt><trkpt lat="39.70383427235273" lon="16.242033093976197"><ele>91.0</ele><time>2026-03-27T09:27:02.999Z</time></trkpt><trkpt lat="39.703534346665144" lon="16.241852775758485"><ele>90.0</ele><time>2026-03-27T09:27:03.999Z</time></trkpt><trkpt lat="39.70323476270331" lon="16.241674726966814"><ele>90.0</ele><time>2026-03-27T09:27:04.999Z</time></trkpt><trkpt lat="39.7029365833738" lon="16.241499193476727"><ele>90.0</ele><time>2026-03-27T09:27:05.999Z</time></trkpt><trkpt lat="39.70264668458976" lon="16.24132559472384"><ele>90.0</ele><time>2026-03-27T09:27:06.999Z</time></trkpt><trkpt lat="39.70236561613867" lon="16.24115252156232"><ele>90.0</ele><time>2026-03-27T09:27:07.999Z</time></trkpt><trkpt lat="39.70208673448795" lon="16.240980566235933"><ele>88.5</ele><time>2026-03-27T09:27:08.999Z</time></trkpt><trkpt lat="39.70180767445023" lon="16.24080786828932"><ele>87.0</ele><time>2026-03-27T09:27:09.999Z</time></trkpt><trkpt lat="39.7015286801443" lon="16.240636951139056"><ele>88.0</ele><time>2026-03-27T09:27:10.999Z</time></trkpt><trkpt lat="39.70125130190142" lon="16.2404672035016"><ele>89.0</ele><time>2026-03-27T09:27:11.999Z</time></trkpt><trkpt lat="39.70097545642507" lon="16.240300079338827"><ele>89.0</ele><time>2026-03-27T09:27:12.999Z</time></trkpt><trkpt lat="39.70070132370239" lon="16.240135073372933"><ele>89.0</ele><time>2026-03-27T09:27:13.999Z</time></trkpt><trkpt lat="39.70042777106992" lon="16.239973528916444"><ele>89.0</ele><time>2026-03-27T09:27:14.999Z</time></trkpt><trkpt lat="39.70015558424927" lon="16.239811255434866"><ele>89.0</ele><time>2026-03-27T09:27:15.999Z</time></trkpt><trkpt lat="39.69988301969881" lon="16.239648523293123"><ele>89.0</ele><time>2026-03-27T09:27:17Z</time></trkpt><trkpt lat="39.6996110451676" lon="16.239483892654192"><ele>89.0</ele><time>2026-03-27T09:27:18Z</time></trkpt><trkpt lat="39.69933848730559" lon="16.239318304707428"><ele>88.0</ele><time>2026-03-27T09:27:19Z</time></trkpt><trkpt lat="39.69906558876657" lon="16.23915196647967"><ele>87.0</ele><time>2026-03-27T09:27:20Z</time></trkpt><trkpt lat="39.698790795820784" lon="16.23898599419073"><ele>87.5</ele><time>2026-03-27T09:27:21Z</time></trkpt><trkpt lat="39.69851474846991" lon="16.238820597401798"><ele>88.0</ele><time>2026-03-27T09:27:22Z</time></trkpt><trkpt lat="39.69823834708924" lon="16.23865495696535"><ele>88.0</ele><time>2026-03-27T09:27:23Z</time></trkpt><trkpt lat="39.69796095242024" lon="16.23848871138649"><ele>88.0</ele><time>2026-03-27T09:27:24Z</time></trkpt><trkpt lat="39.69768374244286" lon="16.23832204921393"><ele>87.5</ele><time>2026-03-27T09:27:25Z</time></trkpt><trkpt lat="39.69740607046461" lon="16.23815435592496"><ele>87.0</ele><time>2026-03-27T09:27:26Z</time></trkpt><trkpt lat="39.697126444855975" lon="16.237987633419323"><ele>88.5</ele><time>2026-03-27T09:27:27Z</time></trkpt><trkpt lat="39.696847243065285" lon="16.237820599929794"><ele>90.0</ele><time>2026-03-27T09:27:28Z</time></trkpt><trkpt lat="39.696567571759275" lon="16.23765339953557"><ele>90.0</ele><time>2026-03-27T09:27:29Z</time></trkpt><trkpt lat="39.69628991513102" lon="16.237483366235995"><ele>90.0</ele><time>2026-03-27T09:27:30Z</time></trkpt><trkpt lat="39.69601453056506" lon="16.23730935503133"><ele>90.5</ele><time>2026-03-27T09:27:31Z</time></trkpt><trkpt lat="39.69573870722528" lon="16.237128409984802"><ele>91.0</ele><time>2026-03-27T09:27:32Z</time></trkpt><trkpt lat="39.69546486225756" lon="16.236936813677165"><ele>92.0</ele><time>2026-03-27T09:27:33Z</time></trkpt><trkpt lat="39.695191720343594" lon="16.236740463195016"><ele>93.0</ele><time>2026-03-27T09:27:34Z</time></trkpt><trkpt lat="39.69492395832472" lon="16.2365320540218"><ele>93.0</ele><time>2026-03-27T09:27:35Z</time></trkpt><trkpt lat="39.69465910463008" lon="16.236313902146282"><ele>93.0</ele><time>2026-03-27T09:27:36Z</time></trkpt><trkpt lat="39.69439854378706" lon="16.236085494833468"><ele>93.0</ele><time>2026-03-27T09:27:37Z</time></trkpt><trkpt lat="39.69414313959344" lon="16.23584510676227"><ele>93.0</ele><time>2026-03-27T09:27:38Z</time></trkpt><trkpt lat="39.6938906236975" lon="16.235598013619555"><ele>93.5</ele><time>2026-03-27T09:27:39Z</time></trkpt><trkpt lat="39.69364235603313" lon="16.235342238871276"><ele>94.0</ele><time>2026-03-27T09:27:40Z</time></trkpt><trkpt lat="39.69339937915881" lon="16.235075793981693"><ele>92.5</ele><time>2026-03-27T09:27:41Z</time></trkpt><trkpt lat="39.69316120154042" lon="16.234801936369283"><ele>91.0</ele><time>2026-03-27T09:27:42Z</time></trkpt><trkpt lat="39.69292735584961" lon="16.234519980313816"><ele>91.5</ele><time>2026-03-27T09:27:43Z</time></trkpt><trkpt lat="39.6926991603707" lon="16.23423318425875"><ele>92.0</ele><time>2026-03-27T09:27:44Z</time></trkpt><trkpt lat="39.69247603480186" lon="16.23393803480434"><ele>92.0</ele><time>2026-03-27T09:27:45Z</time></trkpt><trkpt lat="39.692259351389424" lon="16.233638296157785"><ele>92.0</ele><time>2026-03-27T09:27:46Z</time></trkpt><trkpt lat="39.692046216151915" lon="16.233338342253468"><ele>93.0</ele><time>2026-03-27T09:27:47Z</time></trkpt><trkpt lat="39.69183264244495" lon="16.23303940997439"><ele>94.0</ele><time>2026-03-27T09:27:48Z</time></trkpt><trkpt lat="39.69161979437408" lon="16.232740270576926"><ele>94.0</ele><time>2026-03-27T09:27:49Z</time></trkpt><trkpt lat="39.691408810732256" lon="16.232442147283173"><ele>94.0</ele><time>2026-03-27T09:27:50Z</time></trkpt><trkpt lat="39.69119777267936" lon="16.232146128877968"><ele>96.0</ele><time>2026-03-27T09:27:51Z</time></trkpt><trkpt lat="39.690987012238395" lon="16.2318510382194"><ele>98.0</ele><time>2026-03-27T09:27:52Z</time></trkpt><trkpt lat="39.69077709414525" lon="16.23155784208963"><ele>97.5</ele><time>2026-03-27T09:27:53Z</time></trkpt><trkpt lat="39.69056747298844" lon="16.231264398747637"><ele>97.0</ele><time>2026-03-27T09:27:54Z</time></trkpt><trkpt lat="39.69035876327305" lon="16.230969593821648"><ele>98.0</ele><time>2026-03-27T09:27:55Z</time></trkpt><trkpt lat="39.69015220254655" lon="16.23067442674714"><ele>99.0</ele><time>2026-03-27T09:27:56Z</time></trkpt><trkpt lat="39.68994512054783" lon="16.230379291067262"><ele>99.0</ele><time>2026-03-27T09:27:57Z</time></trkpt><trkpt lat="39.689738528621994" lon="16.23008465047995"><ele>99.0</ele><time>2026-03-27T09:27:58Z</time></trkpt><trkpt lat="39.6895291393274" lon="16.229788598064104"><ele>99.0</ele><time>2026-03-27T09:27:59Z</time></trkpt><trkpt lat="39.68931860039704" lon="16.229491460351287"><ele>99.0</ele><time>2026-03-27T09:28:00Z</time></trkpt><trkpt lat="39.68910856933679" lon="16.229197046659223"><ele>98.0</ele><time>2026-03-27T09:28:01Z</time></trkpt><trkpt lat="39.688896753592644" lon="16.2289032363439"><ele>97.0</ele><time>2026-03-27T09:28:02Z</time></trkpt><trkpt lat="39.68868506890814" lon="16.22860949265076"><ele>97.0</ele><time>2026-03-27T09:28:03Z</time></trkpt><trkpt lat="39.68847387926713" lon="16.22831625205384"><ele>97.0</ele><time>2026-03-27T09:28:04Z</time></trkpt><trkpt lat="39.68826354135036" lon="16.228022123546033"><ele>97.0</ele><time>2026-03-27T09:28:05Z</time></trkpt><trkpt lat="39.68805558456503" lon="16.22772758916689"><ele>97.0</ele><time>2026-03-27T09:28:06Z</time></trkpt><trkpt lat="39.6878470339388" lon="16.227434838793965"><ele>97.5</ele><time>2026-03-27T09:28:07Z</time></trkpt><trkpt lat="39.68763759493452" lon="16.227144070513567"><ele>98.0</ele><time>2026-03-27T09:28:08Z</time></trkpt><trkpt lat="39.68742712404463" lon="16.226855773354245"><ele>98.0</ele><time>2026-03-27T09:28:09Z</time></trkpt><trkpt lat="39.687216561397264" lon="16.22656615948051"><ele>98.0</ele><time>2026-03-27T09:28:10Z</time></trkpt><trkpt lat="39.68700655098098" lon="16.22627695367042"><ele>96.5</ele><time>2026-03-27T09:28:11Z</time></trkpt><trkpt lat="39.68679399714526" lon="16.225991926030797"><ele>95.0</ele><time>2026-03-27T09:28:12Z</time></trkpt><trkpt lat="39.68657829914366" lon="16.225713518878816"><ele>94.0</ele><time>2026-03-27T09:28:13Z</time></trkpt><trkpt lat="39.686360704510754" lon="16.225439953143834"><ele>93.0</ele><time>2026-03-27T09:28:14Z</time></trkpt><trkpt lat="39.68614188044409" lon="16.22516991025207"><ele>93.0</ele><time>2026-03-27T09:28:15Z</time></trkpt><trkpt lat="39.68592291304887" lon="16.22489908817236"><ele>93.0</ele><time>2026-03-27T09:28:16Z</time></trkpt><trkpt lat="39.685705116041696" lon="16.224628304721225"><ele>92.0</ele><time>2026-03-27T09:28:17Z</time></trkpt><trkpt lat="39.685488367541744" lon="16.22435972336877"><ele>91.0</ele><time>2026-03-27T09:28:18Z</time></trkpt><trkpt lat="39.68527449853342" lon="16.22409235767118"><ele>90.5</ele><time>2026-03-27T09:28:19Z</time></trkpt><trkpt lat="39.68506324217259" lon="16.22382565104494"><ele>90.0</ele><time>2026-03-27T09:28:20Z</time></trkpt><trkpt lat="39.68485276119468" lon="16.22356015976724"><ele>90.0</ele><time>2026-03-27T09:28:21Z</time></trkpt><trkpt lat="39.684640995916645" lon="16.223294043291023"><ele>90.0</ele><time>2026-03-27T09:28:22Z</time></trkpt><trkpt lat="39.68442628696018" lon="16.223026221984906"><ele>89.5</ele><time>2026-03-27T09:28:23Z</time></trkpt><trkpt lat="39.684210155251044" lon="16.22275779415624"><ele>89.0</ele><time>2026-03-27T09:28:24Z</time></trkpt><trkpt lat="39.683995038259845" lon="16.222492057328036"><ele>88.5</ele><time>2026-03-27T09:28:25Z</time></trkpt><trkpt lat="39.68377551420747" lon="16.22222604915698"><ele>88.0</ele><time>2026-03-27T09:28:26Z</time></trkpt><trkpt lat="39.683551910540764" lon="16.221963916169674"><ele>88.5</ele><time>2026-03-27T09:28:27Z</time></trkpt><trkpt lat="39.68332219046189" lon="16.221709959029198"><ele>89.0</ele><time>2026-03-27T09:28:28Z</time></trkpt><trkpt lat="39.68308571693176" lon="16.221461367717755"><ele>89.0</ele><time>2026-03-27T09:28:28.999Z</time></trkpt><trkpt lat="39.68284529252778" lon="16.221219251766335"><ele>89.0</ele><time>2026-03-27T09:28:29.999Z</time></trkpt><trkpt lat="39.68260166330231" lon="16.22098494729303"><ele>89.5</ele><time>2026-03-27T09:28:30.999Z</time></trkpt><trkpt lat="39.68235369343374" lon="16.2207560408164"><ele>90.0</ele><time>2026-03-27T09:28:31.999Z</time></trkpt><trkpt lat="39.6821011338974" lon="16.220535556609907"><ele>90.0</ele><time>2026-03-27T09:28:32.999Z</time></trkpt><trkpt lat="39.681842586915984" lon="16.220322585454056"><ele>90.0</ele><time>2026-03-27T09:28:33.999Z</time></trkpt><trkpt lat="39.681578011471885" lon="16.22011747507046"><ele>90.0</ele><time>2026-03-27T09:28:34.999Z</time></trkpt><trkpt lat="39.68130971637104" lon="16.21991985185952"><ele>90.0</ele><time>2026-03-27T09:28:35.999Z</time></trkpt><trkpt lat="39.68103676555461" lon="16.21973732748585"><ele>90.5</ele><time>2026-03-27T09:28:36.999Z</time></trkpt><trkpt lat="39.68075910899644" lon="16.219561068788295"><ele>91.0</ele><time>2026-03-27T09:28:37.999Z</time></trkpt><trkpt lat="39.680478528059766" lon="16.219395463888436"><ele>92.0</ele><time>2026-03-27T09:28:38.999Z</time></trkpt><trkpt lat="39.68019507634718" lon="16.21923881845766"><ele>93.0</ele><time>2026-03-27T09:28:39.999Z</time></trkpt><trkpt lat="39.67990972199631" lon="16.219091826647023"><ele>92.5</ele><time>2026-03-27T09:28:40.999Z</time></trkpt><trkpt lat="39.67962328912352" lon="16.218955373002753"><ele>92.0</ele><time>2026-03-27T09:28:41.999Z</time></trkpt><trkpt lat="39.679334282889705" lon="16.218833004576467"><ele>92.0</ele><time>2026-03-27T09:28:42.999Z</time></trkpt><trkpt lat="39.67904484574996" lon="16.218720065709274"><ele>92.0</ele><time>2026-03-27T09:28:43.999Z</time></trkpt><trkpt lat="39.67875365626967" lon="16.218612992679592"><ele>92.5</ele><time>2026-03-27T09:28:44.999Z</time></trkpt><trkpt lat="39.67846422302699" lon="16.218507242378752"><ele>93.0</ele><time>2026-03-27T09:28:45.999Z</time></trkpt><trkpt lat="39.67817550671241" lon="16.218404749001472"><ele>93.0</ele><time>2026-03-27T09:28:46.999Z</time></trkpt><trkpt lat="39.677886644783385" lon="16.218304991705338"><ele>93.0</ele><time>2026-03-27T09:28:47.999Z</time></trkpt><trkpt lat="39.677597258347944" lon="16.218206868335226"><ele>93.5</ele><time>2026-03-27T09:28:48.999Z</time></trkpt><trkpt lat="39.67730530574876" lon="16.218109957852327"><ele>94.0</ele><time>2026-03-27T09:28:49.999Z</time></trkpt><trkpt lat="39.677020597189596" lon="16.218014567832867"><ele>94.0</ele><time>2026-03-27T09:28:50.999Z</time></trkpt><trkpt lat="39.67674204992428" lon="16.217921206131365"><ele>94.0</ele><time>2026-03-27T09:28:51.999Z</time></trkpt><trkpt lat="39.67646584830525" lon="16.217830597094153"><ele>94.0</ele><time>2026-03-27T09:28:52.999Z</time></trkpt><trkpt lat="39.676188940209514" lon="16.217740103195847"><ele>94.0</ele><time>2026-03-27T09:28:53.999Z</time></trkpt><trkpt lat="39.67590826020697" lon="16.217644691554604"><ele>94.0</ele><time>2026-03-27T09:28:54.999Z</time></trkpt><trkpt lat="39.6756269136087" lon="16.217551211579664"><ele>94.0</ele><time>2026-03-27T09:28:55.999Z</time></trkpt><trkpt lat="39.675344075667304" lon="16.21745574808291"><ele>93.0</ele><time>2026-03-27T09:28:56.999Z</time></trkpt><trkpt lat="39.67506046557324" lon="16.217360427100832"><ele>92.0</ele><time>2026-03-27T09:28:57.999Z</time></trkpt><trkpt lat="39.67477421232188" lon="16.217264422190187"><ele>92.0</ele><time>2026-03-27T09:28:58.999Z</time></trkpt><trkpt lat="39.67448583205835" lon="16.217168911231234"><ele>92.0</ele><time>2026-03-27T09:28:59.999Z</time></trkpt><trkpt lat="39.6741963018052" lon="16.21707343992965"><ele>92.0</ele><time>2026-03-27T09:29:00.999Z</time></trkpt><trkpt lat="39.67390615171634" lon="16.216978544263764"><ele>92.0</ele><time>2026-03-27T09:29:01.999Z</time></trkpt><trkpt lat="39.673616210626584" lon="16.216882541130328"><ele>92.0</ele><time>2026-03-27T09:29:02.999Z</time></trkpt><trkpt lat="39.67332494119072" lon="16.21678651673306"><ele>92.0</ele><time>2026-03-27T09:29:03.999Z</time></trkpt><trkpt lat="39.67303317793195" lon="16.216689908405733"><ele>91.0</ele><time>2026-03-27T09:29:04.999Z</time></trkpt><trkpt lat="39.672739993034625" lon="16.21659113809099"><ele>90.0</ele><time>2026-03-27T09:29:05.999Z</time></trkpt><trkpt lat="39.67244531796983" lon="16.216490173424607"><ele>90.0</ele><time>2026-03-27T09:29:06.999Z</time></trkpt><trkpt lat="39.67214806484967" lon="16.216388535030344"><ele>90.0</ele><time>2026-03-27T09:29:07.999Z</time></trkpt><trkpt lat="39.67184709841684" lon="16.21628715643941"><ele>90.0</ele><time>2026-03-27T09:29:08.999Z</time></trkpt><trkpt lat="39.67154430646157" lon="16.216184707829427"><ele>90.0</ele><time>2026-03-27T09:29:09.999Z</time></trkpt><trkpt lat="39.6712383617286" lon="16.216083195429217"><ele>89.0</ele><time>2026-03-27T09:29:10.999Z</time></trkpt><trkpt lat="39.6709302684579" lon="16.21598340628358"><ele>88.0</ele><time>2026-03-27T09:29:11.999Z</time></trkpt><trkpt lat="39.670621285801445" lon="16.215883301241817"><ele>88.0</ele><time>2026-03-27T09:29:12.999Z</time></trkpt><trkpt lat="39.67031212932566" lon="16.21578176566376"><ele>88.0</ele><time>2026-03-27T09:29:13.999Z</time></trkpt><trkpt lat="39.67000365817172" lon="16.215679208524787"><ele>87.0</ele><time>2026-03-27T09:29:14.999Z</time></trkpt><trkpt lat="39.66969687317118" lon="16.215574483157475"><ele>86.0</ele><time>2026-03-27T09:29:15.999Z</time></trkpt><trkpt lat="39.669388772980795" lon="16.21546933418014"><ele>86.0</ele><time>2026-03-27T09:29:16.999Z</time></trkpt><trkpt lat="39.669080564063165" lon="16.215366175963"><ele>86.0</ele><time>2026-03-27T09:29:17.999Z</time></trkpt><trkpt lat="39.66877349018033" lon="16.215264263936824"><ele>86.0</ele><time>2026-03-27T09:29:18.999Z</time></trkpt><trkpt lat="39.668466746068134" lon="16.215164264592815"><ele>86.0</ele><time>2026-03-27T09:29:19.999Z</time></trkpt><trkpt lat="39.66816070932234" lon="16.215065841049167"><ele>86.0</ele><time>2026-03-27T09:29:20.999Z</time></trkpt><trkpt lat="39.667854386140995" lon="16.21497091842501"><ele>86.0</ele><time>2026-03-27T09:29:21.999Z</time></trkpt><trkpt lat="39.66754807882915" lon="16.214877298550412"><ele>86.5</ele><time>2026-03-27T09:29:23Z</time></trkpt><trkpt lat="39.66724160754703" lon="16.214783929095628"><ele>87.0</ele><time>2026-03-27T09:29:24Z</time></trkpt><trkpt lat="39.66693646162191" lon="16.214690462304354"><ele>86.0</ele><time>2026-03-27T09:29:25Z</time></trkpt><trkpt lat="39.666631397882725" lon="16.21459702649828"><ele>85.0</ele><time>2026-03-27T09:29:26Z</time></trkpt><trkpt lat="39.66632804615132" lon="16.214502274800612"><ele>84.5</ele><time>2026-03-27T09:29:27Z</time></trkpt><trkpt lat="39.666024253712834" lon="16.21440880522835"><ele>84.0</ele><time>2026-03-27T09:29:28Z</time></trkpt><trkpt lat="39.66571994918415" lon="16.21432108085081"><ele>84.0</ele><time>2026-03-27T09:29:29Z</time></trkpt><trkpt lat="39.66541436211565" lon="16.214240967915345"><ele>84.0</ele><time>2026-03-27T09:29:30Z</time></trkpt><trkpt lat="39.66510816436834" lon="16.21417043437152"><ele>84.0</ele><time>2026-03-27T09:29:31Z</time></trkpt><trkpt lat="39.66480018887687" lon="16.21411210499306"><ele>84.0</ele><time>2026-03-27T09:29:32Z</time></trkpt><trkpt lat="39.664490336000746" lon="16.214066691123136"><ele>84.0</ele><time>2026-03-27T09:29:33Z</time></trkpt><trkpt lat="39.664180177605594" lon="16.214029829775367"><ele>84.0</ele><time>2026-03-27T09:29:34Z</time></trkpt><trkpt lat="39.663869469495026" lon="16.214002395392896"><ele>83.5</ele><time>2026-03-27T09:29:35Z</time></trkpt><trkpt lat="39.66355856083377" lon="16.21398466882704"><ele>83.0</ele><time>2026-03-27T09:29:36Z</time></trkpt><trkpt lat="39.663247169320364" lon="16.213972160200825"><ele>83.0</ele><time>2026-03-27T09:29:37Z</time></trkpt><trkpt lat="39.66293501553028" lon="16.213962994930537"><ele>83.0</ele><time>2026-03-27T09:29:38Z</time></trkpt><trkpt lat="39.66262269063042" lon="16.213959791034448"><ele>83.0</ele><time>2026-03-27T09:29:39Z</time></trkpt><trkpt lat="39.66230985858067" lon="16.213975358856104"><ele>83.0</ele><time>2026-03-27T09:29:40Z</time></trkpt><trkpt lat="39.66200042123933" lon="16.21400764075454"><ele>82.5</ele><time>2026-03-27T09:29:41Z</time></trkpt><trkpt lat="39.66168979342439" lon="16.21405337124932"><ele>82.0</ele><time>2026-03-27T09:29:42Z</time></trkpt><trkpt lat="39.66138192447172" lon="16.21410581588511"><ele>82.5</ele><time>2026-03-27T09:29:43Z</time></trkpt><trkpt lat="39.66107509963139" lon="16.214165882964654"><ele>83.0</ele><time>2026-03-27T09:29:44Z</time></trkpt><trkpt lat="39.660769256378615" lon="16.214230079992223"><ele>83.0</ele><time>2026-03-27T09:29:45Z</time></trkpt><trkpt lat="39.66046335167377" lon="16.21429570814651"><ele>83.0</ele><time>2026-03-27T09:29:46Z</time></trkpt><trkpt lat="39.660157663460446" lon="16.214363393624296"><ele>83.0</ele><time>2026-03-27T09:29:47Z</time></trkpt><trkpt lat="39.65985132384238" lon="16.214429560141124"><ele>83.0</ele><time>2026-03-27T09:29:48Z</time></trkpt><trkpt lat="39.65954683323497" lon="16.21450000368426"><ele>82.5</ele><time>2026-03-27T09:29:49Z</time></trkpt><trkpt lat="39.65924372399423" lon="16.21456879721237"><ele>82.0</ele><time>2026-03-27T09:29:50Z</time></trkpt><trkpt lat="39.65894240685175" lon="16.214637199065205"><ele>82.0</ele><time>2026-03-27T09:29:51Z</time></trkpt><trkpt lat="39.65864065880034" lon="16.21470853361524"><ele>82.0</ele><time>2026-03-27T09:29:52Z</time></trkpt><trkpt lat="39.65833871698631" lon="16.21478219902075"><ele>81.5</ele><time>2026-03-27T09:29:53Z</time></trkpt><trkpt lat="39.65803813331351" lon="16.214855436448275"><ele>81.0</ele><time>2026-03-27T09:29:54Z</time></trkpt><trkpt lat="39.65773775055229" lon="16.2149267850421"><ele>82.0</ele><time>2026-03-27T09:29:55Z</time></trkpt><trkpt lat="39.657436934033534" lon="16.21499633286981"><ele>83.0</ele><time>2026-03-27T09:29:56Z</time></trkpt><trkpt lat="39.65713666159314" lon="16.2150630007995"><ele>83.0</ele><time>2026-03-27T09:29:57Z</time></trkpt><trkpt lat="39.656836459911105" lon="16.2151308472567"><ele>83.0</ele><time>2026-03-27T09:29:58Z</time></trkpt><trkpt lat="39.65653564844796" lon="16.215199358391853"><ele>83.0</ele><time>2026-03-27T09:29:59Z</time></trkpt><trkpt lat="39.6562344347628" lon="16.215267752971474"><ele>83.0</ele><time>2026-03-27T09:30:00Z</time></trkpt><trkpt lat="39.65593142837636" lon="16.215336192336267"><ele>82.5</ele><time>2026-03-27T09:30:01Z</time></trkpt><trkpt lat="39.65562812399112" lon="16.215402914210046"><ele>82.0</ele><time>2026-03-27T09:30:02Z</time></trkpt><trkpt lat="39.65532474589687" lon="16.21547018479817"><ele>82.5</ele><time>2026-03-27T09:30:03Z</time></trkpt><trkpt lat="39.655022501404176" lon="16.215539658641333"><ele>83.0</ele><time>2026-03-27T09:30:04Z</time></trkpt><trkpt lat="39.654719747712015" lon="16.215610772754527"><ele>83.5</ele><time>2026-03-27T09:30:05Z</time></trkpt><trkpt lat="39.65441718763462" lon="16.215680537082957"><ele>84.0</ele><time>2026-03-27T09:30:06Z</time></trkpt><trkpt lat="39.654115037077474" lon="16.21574942164821"><ele>84.0</ele><time>2026-03-27T09:30:07Z</time></trkpt><trkpt lat="39.65381508221099" lon="16.215817258769416"><ele>84.0</ele><time>2026-03-27T09:30:08Z</time></trkpt><trkpt lat="39.653515238417725" lon="16.215884600371837"><ele>84.0</ele><time>2026-03-27T09:30:09Z</time></trkpt><trkpt lat="39.65321495575787" lon="16.215951657908164"><ele>84.0</ele><time>2026-03-27T09:30:10Z</time></trkpt><trkpt lat="39.6529135785332" lon="16.216019347252367"><ele>83.5</ele><time>2026-03-27T09:30:11Z</time></trkpt><trkpt lat="39.65261241614748" lon="16.21608850194321"><ele>83.0</ele><time>2026-03-27T09:30:12Z</time></trkpt><trkpt lat="39.65231109289168" lon="16.21615953577621"><ele>83.0</ele><time>2026-03-27T09:30:13Z</time></trkpt><trkpt lat="39.652010591386265" lon="16.216236993291055"><ele>83.0</ele><time>2026-03-27T09:30:14Z</time></trkpt><trkpt lat="39.651712284358936" lon="16.21632633220735"><ele>83.0</ele><time>2026-03-27T09:30:15Z</time></trkpt><trkpt lat="39.651417540575686" lon="16.216430727135318"><ele>83.0</ele><time>2026-03-27T09:30:16Z</time></trkpt><trkpt lat="39.65112523136518" lon="16.21655093251869"><ele>84.0</ele><time>2026-03-27T09:30:17Z</time></trkpt><trkpt lat="39.65083678954539" lon="16.21668633892044"><ele>85.0</ele><time>2026-03-27T09:30:18Z</time></trkpt><trkpt lat="39.65055271670055" lon="16.216833670551512"><ele>89.0</ele><time>2026-03-27T09:30:19Z</time></trkpt><trkpt lat="39.650271688501995" lon="16.216994048272152"><ele>93.0</ele><time>2026-03-27T09:30:20Z</time></trkpt><trkpt lat="39.64999781074041" lon="16.217170024048553"><ele>93.5</ele><time>2026-03-27T09:30:21Z</time></trkpt><trkpt lat="39.64972802323238" lon="16.21735871630058"><ele>94.0</ele><time>2026-03-27T09:30:22Z</time></trkpt><trkpt lat="39.649464844301235" lon="16.217563203917713"><ele>92.5</ele><time>2026-03-27T09:30:23Z</time></trkpt><trkpt lat="39.64920561601886" lon="16.217773657445456"><ele>91.0</ele><time>2026-03-27T09:30:24Z</time></trkpt><trkpt lat="39.64895261355933" lon="16.218002093369186"><ele>90.5</ele><time>2026-03-27T09:30:25Z</time></trkpt><trkpt lat="39.64870539815149" lon="16.218239679678227"><ele>90.0</ele><time>2026-03-27T09:30:26Z</time></trkpt><trkpt lat="39.64846402361605" lon="16.218484705586036"><ele>90.0</ele><time>2026-03-27T09:30:27Z</time></trkpt><trkpt lat="39.64823040477428" lon="16.218739317279447"><ele>90.0</ele><time>2026-03-27T09:30:28Z</time></trkpt><trkpt lat="39.648002413564235" lon="16.21900131843513"><ele>89.0</ele><time>2026-03-27T09:30:29Z</time></trkpt><trkpt lat="39.6477828360877" lon="16.219274273964142"><ele>88.0</ele><time>2026-03-27T09:30:30Z</time></trkpt><trkpt lat="39.647571202236854" lon="16.21955752051543"><ele>88.0</ele><time>2026-03-27T09:30:31Z</time></trkpt><trkpt lat="39.64737126710176" lon="16.219853558473524"><ele>88.0</ele><time>2026-03-27T09:30:31.999Z</time></trkpt><trkpt lat="39.64718256903445" lon="16.22015835894017"><ele>88.0</ele><time>2026-03-27T09:30:32.999Z</time></trkpt><trkpt lat="39.647003563426516" lon="16.220471595538076"><ele>88.0</ele><time>2026-03-27T09:30:33.999Z</time></trkpt><trkpt lat="39.646831988610096" lon="16.220791263332647"><ele>92.5</ele><time>2026-03-27T09:30:34.999Z</time></trkpt><trkpt lat="39.64666927224062" lon="16.221120181427075"><ele>97.0</ele><time>2026-03-27T09:30:35.999Z</time></trkpt><trkpt lat="39.646516923318174" lon="16.221457842268787"><ele>96.0</ele><time>2026-03-27T09:30:36.999Z</time></trkpt><trkpt lat="39.64637055409343" lon="16.22179903275645"><ele>95.0</ele><time>2026-03-27T09:30:37.999Z</time></trkpt><trkpt lat="39.646229932453736" lon="16.22214564473924"><ele>103.5</ele><time>2026-03-27T09:30:38.999Z</time></trkpt><trkpt lat="39.6460924341125" lon="16.22249197290622"><ele>112.0</ele><time>2026-03-27T09:30:39.999Z</time></trkpt><trkpt lat="39.64595315168558" lon="16.22283676068947"><ele>107.0</ele><time>2026-03-27T09:30:40.999Z</time></trkpt><trkpt lat="39.64581465947932" lon="16.223179030431947"><ele>102.0</ele><time>2026-03-27T09:30:41.999Z</time></trkpt><trkpt lat="39.64567855805684" lon="16.22352163586197"><ele>102.0</ele><time>2026-03-27T09:30:42.999Z</time></trkpt><trkpt lat="39.64554277718193" lon="16.223864727685747"><ele>102.0</ele><time>2026-03-27T09:30:43.999Z</time></trkpt><trkpt lat="39.64540613464996" lon="16.224207249414164"><ele>100.0</ele><time>2026-03-27T09:30:44.999Z</time></trkpt><trkpt lat="39.64526958387074" lon="16.224550360539048"><ele>98.0</ele><time>2026-03-27T09:30:45.999Z</time></trkpt><trkpt lat="39.645128131559424" lon="16.224895017692432"><ele>92.0</ele><time>2026-03-27T09:30:46.999Z</time></trkpt><trkpt lat="39.64497504253632" lon="16.22523586167473"><ele>86.0</ele><time>2026-03-27T09:30:47.999Z</time></trkpt><trkpt lat="39.64481404382989" lon="16.225573227697947"><ele>84.5</ele><time>2026-03-27T09:30:48.999Z</time></trkpt><trkpt lat="39.64464641304191" lon="16.225907983456164"><ele>83.0</ele><time>2026-03-27T09:30:49.999Z</time></trkpt><trkpt lat="39.6444692672674" lon="16.226235878209856"><ele>83.0</ele><time>2026-03-27T09:30:50.999Z</time></trkpt><trkpt lat="39.64428183715807" lon="16.226554100765377"><ele>83.0</ele><time>2026-03-27T09:30:51.999Z</time></trkpt><trkpt lat="39.644083485656616" lon="16.226861920731864"><ele>83.0</ele><time>2026-03-27T09:30:52.999Z</time></trkpt><trkpt lat="39.64387825864182" lon="16.227161932534376"><ele>83.0</ele><time>2026-03-27T09:30:53.999Z</time></trkpt><trkpt lat="39.64366550499144" lon="16.227452632414295"><ele>83.0</ele><time>2026-03-27T09:30:54.999Z</time></trkpt><trkpt lat="39.64344151183552" lon="16.227735307316497"><ele>83.0</ele><time>2026-03-27T09:30:55.999Z</time></trkpt><trkpt lat="39.64320600969371" lon="16.22800642451828"><ele>83.0</ele><time>2026-03-27T09:30:56.999Z</time></trkpt><trkpt lat="39.64296219603884" lon="16.228267062270046"><ele>83.0</ele><time>2026-03-27T09:30:57.999Z</time></trkpt><trkpt lat="39.64270713698625" lon="16.228510377450952"><ele>82.5</ele><time>2026-03-27T09:30:58.999Z</time></trkpt><trkpt lat="39.642447020980654" lon="16.22874028906555"><ele>82.0</ele><time>2026-03-27T09:30:59.999Z</time></trkpt><trkpt lat="39.64218101710364" lon="16.228953071003463"><ele>81.5</ele><time>2026-03-27T09:31:00.999Z</time></trkpt><trkpt lat="39.641912802796384" lon="16.229148995544673"><ele>81.0</ele><time>2026-03-27T09:31:01.999Z</time></trkpt><trkpt lat="39.64164258322683" lon="16.229332462457904"><ele>81.0</ele><time>2026-03-27T09:31:02.999Z</time></trkpt><trkpt lat="39.6413696014291" lon="16.229503652067354"><ele>81.0</ele><time>2026-03-27T09:31:03.999Z</time></trkpt><trkpt lat="39.6410941439648" lon="16.229663337508132"><ele>81.0</ele><time>2026-03-27T09:31:04.999Z</time></trkpt><trkpt lat="39.64081750319099" lon="16.22980915900683"><ele>81.0</ele><time>2026-03-27T09:31:05.999Z</time></trkpt><trkpt lat="39.64054255103709" lon="16.229942528981333"><ele>82.5</ele><time>2026-03-27T09:31:06.999Z</time></trkpt><trkpt lat="39.64026648750348" lon="16.230065161264488"><ele>84.0</ele><time>2026-03-27T09:31:07.999Z</time></trkpt><trkpt lat="39.639990792654324" lon="16.230179666200463"><ele>84.0</ele><time>2026-03-27T09:31:08.999Z</time></trkpt><trkpt lat="39.639718736418445" lon="16.230291452068954"><ele>84.0</ele><time>2026-03-27T09:31:09.999Z</time></trkpt><trkpt lat="39.63944946383383" lon="16.230401868362392"><ele>85.5</ele><time>2026-03-27T09:31:10.999Z</time></trkpt><trkpt lat="39.639182704536715" lon="16.23051184399665"><ele>87.0</ele><time>2026-03-27T09:31:11.999Z</time></trkpt><trkpt lat="39.63891893923815" lon="16.230619138195127"><ele>87.0</ele><time>2026-03-27T09:31:12.999Z</time></trkpt><trkpt lat="39.63865089595402" lon="16.230725277483366"><ele>87.0</ele><time>2026-03-27T09:31:13.999Z</time></trkpt><trkpt lat="39.638382078175674" lon="16.230832958873933"><ele>87.5</ele><time>2026-03-27T09:31:14.999Z</time></trkpt><trkpt lat="39.6381139999004" lon="16.23094261316297"><ele>88.0</ele><time>2026-03-27T09:31:15.999Z</time></trkpt><trkpt lat="39.63784420594247" lon="16.23105295530774"><ele>89.0</ele><time>2026-03-27T09:31:16.999Z</time></trkpt><trkpt lat="39.637573667862284" lon="16.231163160311542"><ele>90.0</ele><time>2026-03-27T09:31:17.999Z</time></trkpt><trkpt lat="39.63730205855037" lon="16.231270114639234"><ele>90.0</ele><time>2026-03-27T09:31:18.999Z</time></trkpt><trkpt lat="39.637028320537695" lon="16.231371619097953"><ele>90.0</ele><time>2026-03-27T09:31:19.999Z</time></trkpt><trkpt lat="39.63675153285589" lon="16.23146819633215"><ele>91.0</ele><time>2026-03-27T09:31:20.999Z</time></trkpt><trkpt lat="39.63647366586072" lon="16.231554793013572"><ele>92.0</ele><time>2026-03-27T09:31:21.999Z</time></trkpt><trkpt lat="39.63619360132655" lon="16.231627187068217"><ele>93.5</ele><time>2026-03-27T09:31:22.999Z</time></trkpt><trkpt lat="39.63591093348773" lon="16.23168581192185"><ele>95.0</ele><time>2026-03-27T09:31:23.999Z</time></trkpt><trkpt lat="39.63562768842802" lon="16.231734971043466"><ele>95.0</ele><time>2026-03-27T09:31:24.999Z</time></trkpt><trkpt lat="39.63534323041317" lon="16.23177410936455"><ele>95.0</ele><time>2026-03-27T09:31:25.999Z</time></trkpt><trkpt lat="39.635057689011724" lon="16.231797505042653"><ele>97.5</ele><time>2026-03-27T09:31:26.999Z</time></trkpt><trkpt lat="39.634771309200914" lon="16.23180558195535"><ele>100.0</ele><time>2026-03-27T09:31:27.999Z</time></trkpt><trkpt lat="39.63448315089841" lon="16.231800585500267"><ele>101.0</ele><time>2026-03-27T09:31:29Z</time></trkpt><trkpt lat="39.63419508126017" lon="16.2317819795841"><ele>102.0</ele><time>2026-03-27T09:31:30Z</time></trkpt><trkpt lat="39.633905514332966" lon="16.2317514401705"><ele>103.0</ele><time>2026-03-27T09:31:31Z</time></trkpt><trkpt lat="39.63361734482112" lon="16.231708534231803"><ele>104.0</ele><time>2026-03-27T09:31:32Z</time></trkpt><trkpt lat="39.633329861251596" lon="16.231650189359616"><ele>104.0</ele><time>2026-03-27T09:31:33Z</time></trkpt><trkpt lat="39.63304442060709" lon="16.231576680877925"><ele>104.0</ele><time>2026-03-27T09:31:34Z</time></trkpt><trkpt lat="39.632760604736895" lon="16.23148739811498"><ele>104.5</ele><time>2026-03-27T09:31:35Z</time></trkpt><trkpt lat="39.632478323715254" lon="16.231387574871682"><ele>105.0</ele><time>2026-03-27T09:31:36Z</time></trkpt><trkpt lat="39.632199295864396" lon="16.23127648763769"><ele>107.5</ele><time>2026-03-27T09:31:37Z</time></trkpt><trkpt lat="39.6319250178771" lon="16.231152705327432"><ele>110.0</ele><time>2026-03-27T09:31:38Z</time></trkpt><trkpt lat="39.63165440708348" lon="16.231018896054373"><ele>110.0</ele><time>2026-03-27T09:31:39Z</time></trkpt><trkpt lat="39.63138513336779" lon="16.230881118244557"><ele>110.0</ele><time>2026-03-27T09:31:40Z</time></trkpt><trkpt lat="39.63111643806495" lon="16.230739194244684"><ele>110.0</ele><time>2026-03-27T09:31:41Z</time></trkpt><trkpt lat="39.6308479690877" lon="16.23059543347521"><ele>110.0</ele><time>2026-03-27T09:31:42Z</time></trkpt><trkpt lat="39.63057940692374" lon="16.230450849245937"><ele>110.0</ele><time>2026-03-27T09:31:43Z</time></trkpt><trkpt lat="39.63030834194825" lon="16.2303107739706"><ele>110.0</ele><time>2026-03-27T09:31:44Z</time></trkpt><trkpt lat="39.63003399686441" lon="16.230178361711435"><ele>115.0</ele><time>2026-03-27T09:31:45Z</time></trkpt><trkpt lat="39.62975727550964" lon="16.230050597227876"><ele>120.0</ele><time>2026-03-27T09:31:46Z</time></trkpt><trkpt lat="39.629478202058735" lon="16.229928083038597"><ele>122.0</ele><time>2026-03-27T09:31:47Z</time></trkpt><trkpt lat="39.629197853710366" lon="16.229814058134423"><ele>124.0</ele><time>2026-03-27T09:31:48Z</time></trkpt><trkpt lat="39.62891264157944" lon="16.22970938822578"><ele>122.5</ele><time>2026-03-27T09:31:49Z</time></trkpt><trkpt lat="39.62862546890153" lon="16.229615176895756"><ele>121.0</ele><time>2026-03-27T09:31:50Z</time></trkpt><trkpt lat="39.628336050322915" lon="16.229529510430105"><ele>121.0</ele><time>2026-03-27T09:31:51Z</time></trkpt><trkpt lat="39.62804692998423" lon="16.22944954090194"><ele>121.0</ele><time>2026-03-27T09:31:52Z</time></trkpt><trkpt lat="39.62775669938504" lon="16.229370720350932"><ele>122.0</ele><time>2026-03-27T09:31:53Z</time></trkpt><trkpt lat="39.62746756634526" lon="16.229294926811743"><ele>123.0</ele><time>2026-03-27T09:31:54Z</time></trkpt><trkpt lat="39.62718013007494" lon="16.22922013707274"><ele>126.5</ele><time>2026-03-27T09:31:55Z</time></trkpt><trkpt lat="39.626889755633414" lon="16.229141846745613"><ele>130.0</ele><time>2026-03-27T09:31:56Z</time></trkpt><trkpt lat="39.62659894193429" lon="16.22906594862097"><ele>130.0</ele><time>2026-03-27T09:31:57Z</time></trkpt><trkpt lat="39.626307259789584" lon="16.228997530983914"><ele>130.0</ele><time>2026-03-27T09:31:58Z</time></trkpt><trkpt lat="39.626015118381005" lon="16.228937091891677"><ele>127.5</ele><time>2026-03-27T09:31:59Z</time></trkpt><trkpt lat="39.62572363859647" lon="16.228885797847656"><ele>125.0</ele><time>2026-03-27T09:32:00Z</time></trkpt><trkpt lat="39.625431770633455" lon="16.228846309046233"><ele>126.5</ele><time>2026-03-27T09:32:01Z</time></trkpt><trkpt lat="39.625137528424695" lon="16.228819926829537"><ele>128.0</ele><time>2026-03-27T09:32:02Z</time></trkpt><trkpt lat="39.6248467007183" lon="16.22880565199189"><ele>128.0</ele><time>2026-03-27T09:32:03Z</time></trkpt><trkpt lat="39.624557123924525" lon="16.228801522501403"><ele>128.0</ele><time>2026-03-27T09:32:04Z</time></trkpt><trkpt lat="39.62426652174222" lon="16.22881215862199"><ele>128.5</ele><time>2026-03-27T09:32:05Z</time></trkpt><trkpt lat="39.62397745488611" lon="16.228837014840312"><ele>129.0</ele><time>2026-03-27T09:32:06Z</time></trkpt><trkpt lat="39.62369069156184" lon="16.228875471115224"><ele>130.0</ele><time>2026-03-27T09:32:07Z</time></trkpt><trkpt lat="39.62340560180339" lon="16.228928254973077"><ele>131.0</ele><time>2026-03-27T09:32:08Z</time></trkpt><trkpt lat="39.623121142852085" lon="16.228990502722354"><ele>132.5</ele><time>2026-03-27T09:32:09Z</time></trkpt><trkpt lat="39.622838339792565" lon="16.229058657095166"><ele>134.0</ele><time>2026-03-27T09:32:10Z</time></trkpt><trkpt lat="39.6225561026985" lon="16.229130955172508"><ele>136.5</ele><time>2026-03-27T09:32:11Z</time></trkpt><trkpt lat="39.62227327154762" lon="16.22920325321236"><ele>139.0</ele><time>2026-03-27T09:32:12Z</time></trkpt><trkpt lat="39.621990507461014" lon="16.229276041179123"><ele>142.0</ele><time>2026-03-27T09:32:13Z</time></trkpt><trkpt lat="39.621708672773316" lon="16.22934996695243"><ele>145.0</ele><time>2026-03-27T09:32:14Z</time></trkpt><trkpt lat="39.62142790331242" lon="16.229426946393836"><ele>145.0</ele><time>2026-03-27T09:32:15Z</time></trkpt><trkpt lat="39.62114686546163" lon="16.22950339438753"><ele>145.0</ele><time>2026-03-27T09:32:16Z</time></trkpt><trkpt lat="39.62086490867572" lon="16.22957916628852"><ele>145.0</ele><time>2026-03-27T09:32:17Z</time></trkpt><trkpt lat="39.62058261990345" lon="16.22965166616144"><ele>145.0</ele><time>2026-03-27T09:32:18Z</time></trkpt><trkpt lat="39.62030134091897" lon="16.229721814710725"><ele>145.5</ele><time>2026-03-27T09:32:19Z</time></trkpt><trkpt lat="39.62002044369273" lon="16.229790012247946"><ele>146.0</ele><time>2026-03-27T09:32:20Z</time></trkpt><trkpt lat="39.61973991556382" lon="16.22985238207139"><ele>147.5</ele><time>2026-03-27T09:32:21Z</time></trkpt><trkpt lat="39.61945935687044" lon="16.22990581047785"><ele>149.0</ele><time>2026-03-27T09:32:22Z</time></trkpt><trkpt lat="39.619176292524536" lon="16.229946878024734"><ele>149.0</ele><time>2026-03-27T09:32:23Z</time></trkpt><trkpt lat="39.61889217764705" lon="16.2299775357724"><ele>149.0</ele><time>2026-03-27T09:32:24Z</time></trkpt><trkpt lat="39.61860529103326" lon="16.229997209938272"><ele>150.5</ele><time>2026-03-27T09:32:25Z</time></trkpt><trkpt lat="39.61831633525852" lon="16.230002785277996"><ele>152.0</ele><time>2026-03-27T09:32:26Z</time></trkpt><trkpt lat="39.61802502832261" lon="16.229996494959742"><ele>152.0</ele><time>2026-03-27T09:32:27Z</time></trkpt><trkpt lat="39.617732421925645" lon="16.229983268958957"><ele>152.0</ele><time>2026-03-27T09:32:28Z</time></trkpt><trkpt lat="39.617438084738616" lon="16.22996291743989"><ele>152.0</ele><time>2026-03-27T09:32:29Z</time></trkpt><trkpt lat="39.61714322125086" lon="16.229939297437696"><ele>152.0</ele><time>2026-03-27T09:32:30Z</time></trkpt><trkpt lat="39.6168476859196" lon="16.229918264097797"><ele>156.5</ele><time>2026-03-27T09:32:31Z</time></trkpt><trkpt lat="39.6165534463576" lon="16.22990530791473"><ele>161.0</ele><time>2026-03-27T09:32:32Z</time></trkpt><trkpt lat="39.61626132550225" lon="16.229907715154795"><ele>162.0</ele><time>2026-03-27T09:32:33Z</time></trkpt><trkpt lat="39.615973278078194" lon="16.229919938878638"><ele>163.0</ele><time>2026-03-27T09:32:34Z</time></trkpt><trkpt lat="39.615684421625275" lon="16.22994563645303"><ele>163.0</ele><time>2026-03-27T09:32:35Z</time></trkpt><trkpt lat="39.61539372541652" lon="16.229984043240634"><ele>163.0</ele><time>2026-03-27T09:32:36Z</time></trkpt><trkpt lat="39.61510468480179" lon="16.230026725636876"><ele>161.5</ele><time>2026-03-27T09:32:37Z</time></trkpt><trkpt lat="39.61481503438159" lon="16.23007880804334"><ele>160.0</ele><time>2026-03-27T09:32:38Z</time></trkpt><trkpt lat="39.61452569261473" lon="16.230141488341477"><ele>161.0</ele><time>2026-03-27T09:32:39Z</time></trkpt><trkpt lat="39.61423589755913" lon="16.23021049768643"><ele>162.0</ele><time>2026-03-27T09:32:40Z</time></trkpt><trkpt lat="39.613950657020574" lon="16.230284580401634"><ele>162.0</ele><time>2026-03-27T09:32:41Z</time></trkpt><trkpt lat="39.61366575969409" lon="16.230366892081477"><ele>162.0</ele><time>2026-03-27T09:32:42Z</time></trkpt><trkpt lat="39.613381358628104" lon="16.230453851479236"><ele>164.0</ele><time>2026-03-27T09:32:42.999Z</time></trkpt><trkpt lat="39.61309553579996" lon="16.230539990477507"><ele>166.0</ele><time>2026-03-27T09:32:43.999Z</time></trkpt><trkpt lat="39.61281001239399" lon="16.230625050871705"><ele>169.0</ele><time>2026-03-27T09:32:44.999Z</time></trkpt><trkpt lat="39.612524960833696" lon="16.230708563736016"><ele>172.0</ele><time>2026-03-27T09:32:45.999Z</time></trkpt><trkpt lat="39.61223969393056" lon="16.23079531161162"><ele>172.0</ele><time>2026-03-27T09:32:46.999Z</time></trkpt><trkpt lat="39.611953953434465" lon="16.230884888186733"><ele>172.0</ele><time>2026-03-27T09:32:47.999Z</time></trkpt><trkpt lat="39.611667505644526" lon="16.230973593962574"><ele>172.0</ele><time>2026-03-27T09:32:48.999Z</time></trkpt><trkpt lat="39.61138050232122" lon="16.231065009880314"><ele>172.0</ele><time>2026-03-27T09:32:49.999Z</time></trkpt><trkpt lat="39.61109296255589" lon="16.231158653480417"><ele>175.0</ele><time>2026-03-27T09:32:50.999Z</time></trkpt><trkpt lat="39.610803644809806" lon="16.231251378175134"><ele>178.0</ele><time>2026-03-27T09:32:51.999Z</time></trkpt><trkpt lat="39.610513733049395" lon="16.231342775334337"><ele>185.5</ele><time>2026-03-27T09:32:52.999Z</time></trkpt><trkpt lat="39.61021990776549" lon="16.231433497008723"><ele>193.0</ele><time>2026-03-27T09:32:53.999Z</time></trkpt><trkpt lat="39.609923639953074" lon="16.23152447511672"><ele>193.0</ele><time>2026-03-27T09:32:54.999Z</time></trkpt><trkpt lat="39.60962466008685" lon="16.231616774218544"><ele>193.0</ele><time>2026-03-27T09:32:55.999Z</time></trkpt><trkpt lat="39.60932360144857" lon="16.23171067681837"><ele>204.0</ele><time>2026-03-27T09:32:56.999Z</time></trkpt><trkpt lat="39.60902055252943" lon="16.231805799078618"><ele>215.0</ele><time>2026-03-27T09:32:57.999Z</time></trkpt><trkpt lat="39.608716045562396" lon="16.231900391952543"><ele>225.5</ele><time>2026-03-27T09:32:58.999Z</time></trkpt><trkpt lat="39.60838774631409" lon="16.23200147942358"><ele>236.0</ele><time>2026-03-27T09:33:00.069Z</time></trkpt><trkpt lat="39.608079297950866" lon="16.23209585601631"><ele>213.0</ele><time>2026-03-27T09:33:01.071Z</time></trkpt><trkpt lat="39.605027571466216" lon="16.23330143264963"><ele>182.0</ele><time>2026-03-27T09:33:05.19Z</time></trkpt><trkpt lat="39.60397173890456" lon="16.233969796010285"><ele>173.0</ele><time>2026-03-27T09:33:06.194Z</time></trkpt><trkpt lat="39.60298023761926" lon="16.23476419869951"><ele>163.0</ele><time>2026-03-27T09:33:07.191Z</time></trkpt><trkpt lat="39.602046683403316" lon="16.23568372962741"><ele>144.0</ele><time>2026-03-27T09:33:08.194Z</time></trkpt><trkpt lat="39.60188205677924" lon="16.23702726611514"><ele>146.0</ele><time>2026-03-27T09:33:24.999Z</time></trkpt><trkpt lat="39.6016580033041" lon="16.237347471600657"><ele>148.0</ele><time>2026-03-27T09:33:25.999Z</time></trkpt><trkpt lat="39.600759849337436" lon="16.23727304767027"><ele>143.5</ele><time>2026-03-27T09:33:26.999Z</time></trkpt><trkpt lat="39.60057891387258" lon="16.237572474193794"><ele>139.0</ele><time>2026-03-27T09:33:27.999Z</time></trkpt><trkpt lat="39.60038977341376" lon="16.237882374275795"><ele>133.5</ele><time>2026-03-27T09:33:28.999Z</time></trkpt><trkpt lat="39.60020886311326" lon="16.238194393452705"><ele>128.0</ele><time>2026-03-27T09:33:29.999Z</time></trkpt><trkpt lat="39.600021889228614" lon="16.2385146727114"><ele>128.0</ele><time>2026-03-27T09:33:30.999Z</time></trkpt><trkpt lat="39.59984356856105" lon="16.23884330660793"><ele>128.0</ele><time>2026-03-27T09:33:31.999Z</time></trkpt><trkpt lat="39.599669357106244" lon="16.239170817690276"><ele>122.0</ele><time>2026-03-27T09:33:32.999Z</time></trkpt><trkpt lat="39.59949044279483" lon="16.239496030426814"><ele>116.0</ele><time>2026-03-27T09:33:33.999Z</time></trkpt><trkpt lat="39.599313368525465" lon="16.239822135691536"><ele>116.0</ele><time>2026-03-27T09:33:35Z</time></trkpt><trkpt lat="39.59913190274726" lon="16.24014484314687"><ele>116.0</ele><time>2026-03-27T09:33:36Z</time></trkpt><trkpt lat="39.59894796609356" lon="16.2404674343714"><ele>116.0</ele><time>2026-03-27T09:33:37Z</time></trkpt><trkpt lat="39.5987642384652" lon="16.24078732420709"><ele>116.0</ele><time>2026-03-27T09:33:38Z</time></trkpt><trkpt lat="39.59857476252598" lon="16.24109970313637"><ele>112.5</ele><time>2026-03-27T09:33:39Z</time></trkpt><trkpt lat="39.59838094885658" lon="16.241408753502895"><ele>109.0</ele><time>2026-03-27T09:33:40Z</time></trkpt><trkpt lat="39.59818510891133" lon="16.241707725675035"><ele>109.0</ele><time>2026-03-27T09:33:41Z</time></trkpt><trkpt lat="39.59798445196013" lon="16.241996190692884"><ele>109.0</ele><time>2026-03-27T09:33:42Z</time></trkpt><trkpt lat="39.5977712773388" lon="16.242264576399993"><ele>109.0</ele><time>2026-03-27T09:33:43Z</time></trkpt><trkpt lat="39.59754670454946" lon="16.24252149789064"><ele>109.0</ele><time>2026-03-27T09:33:44Z</time></trkpt><trkpt lat="39.59731375635772" lon="16.24276899521815"><ele>109.0</ele><time>2026-03-27T09:33:45Z</time></trkpt><trkpt lat="39.59707719732225" lon="16.243013715914028"><ele>109.0</ele><time>2026-03-27T09:33:46Z</time></trkpt><trkpt lat="39.59683468367892" lon="16.24325409751274"><ele>108.5</ele><time>2026-03-27T09:33:47Z</time></trkpt><trkpt lat="39.596584962960264" lon="16.24348880829053"><ele>108.0</ele><time>2026-03-27T09:33:48Z</time></trkpt><trkpt lat="39.59633083929701" lon="16.243714576452742"><ele>108.0</ele><time>2026-03-27T09:33:49Z</time></trkpt><trkpt lat="39.596068976792544" lon="16.243929674480817"><ele>108.0</ele><time>2026-03-27T09:33:50Z</time></trkpt><trkpt lat="39.59580424618602" lon="16.244133291056396"><ele>103.0</ele><time>2026-03-27T09:33:51Z</time></trkpt><trkpt lat="39.595534571509376" lon="16.244325402550423"><ele>98.0</ele><time>2026-03-27T09:33:52Z</time></trkpt><trkpt lat="39.59526433294788" lon="16.244504924661804"><ele>98.0</ele><time>2026-03-27T09:33:53Z</time></trkpt><trkpt lat="39.59499248873648" lon="16.244676318151463"><ele>98.0</ele><time>2026-03-27T09:33:54Z</time></trkpt><trkpt lat="39.594718148560844" lon="16.244836078233938"><ele>92.0</ele><time>2026-03-27T09:33:55Z</time></trkpt><trkpt lat="39.59444260853104" lon="16.24498711595854"><ele>86.0</ele><time>2026-03-27T09:33:56Z</time></trkpt><trkpt lat="39.594163160521326" lon="16.245123385243158"><ele>86.0</ele><time>2026-03-27T09:33:57Z</time></trkpt><trkpt lat="39.5938811939758" lon="16.245245699914847"><ele>86.0</ele><time>2026-03-27T09:33:58Z</time></trkpt><trkpt lat="39.59359670879968" lon="16.245353848297622"><ele>77.5</ele><time>2026-03-27T09:33:59Z</time></trkpt><trkpt lat="39.59331015294065" lon="16.24545240106064"><ele>69.0</ele><time>2026-03-27T09:34:00Z</time></trkpt><trkpt lat="39.593021057394886" lon="16.24554133112901"><ele>70.0</ele><time>2026-03-27T09:34:01Z</time></trkpt><trkpt lat="39.59272823955783" lon="16.245619262078986"><ele>71.0</ele><time>2026-03-27T09:34:02Z</time></trkpt><trkpt lat="39.59243239622633" lon="16.24568616883533"><ele>71.0</ele><time>2026-03-27T09:34:03Z</time></trkpt><trkpt lat="39.59213242917319" lon="16.24574265032156"><ele>71.0</ele><time>2026-03-27T09:34:04Z</time></trkpt><trkpt lat="39.591830514470736" lon="16.245788564551525"><ele>75.0</ele><time>2026-03-27T09:34:05Z</time></trkpt><trkpt lat="39.59152771934116" lon="16.24582103957013"><ele>79.0</ele><time>2026-03-27T09:34:06Z</time></trkpt><trkpt lat="39.5912234706832" lon="16.2458425778878"><ele>76.5</ele><time>2026-03-27T09:34:07Z</time></trkpt><trkpt lat="39.59091856551133" lon="16.24585361917805"><ele>74.0</ele><time>2026-03-27T09:34:08Z</time></trkpt><trkpt lat="39.59061401313979" lon="16.24585665023603"><ele>73.5</ele><time>2026-03-27T09:34:09Z</time></trkpt><trkpt lat="39.59030788701346" lon="16.245853216093792"><ele>73.0</ele><time>2026-03-27T09:34:10Z</time></trkpt><trkpt lat="39.59000125567015" lon="16.24584409258757"><ele>73.0</ele><time>2026-03-27T09:34:11Z</time></trkpt><trkpt lat="39.5896951823827" lon="16.24583415483788"><ele>73.0</ele><time>2026-03-27T09:34:12Z</time></trkpt><trkpt lat="39.58939088174339" lon="16.245823878203637"><ele>71.0</ele><time>2026-03-27T09:34:13Z</time></trkpt><trkpt lat="39.589088014561185" lon="16.2458104713989"><ele>69.0</ele><time>2026-03-27T09:34:14Z</time></trkpt><trkpt lat="39.58878498400844" lon="16.245797242793838"><ele>66.5</ele><time>2026-03-27T09:34:15Z</time></trkpt><trkpt lat="39.58848270135764" lon="16.245786879211227"><ele>64.0</ele><time>2026-03-27T09:34:16Z</time></trkpt><trkpt lat="39.588181573080725" lon="16.24577688761547"><ele>64.0</ele><time>2026-03-27T09:34:17Z</time></trkpt><trkpt lat="39.58788162396367" lon="16.245768757366562"><ele>64.0</ele><time>2026-03-27T09:34:18Z</time></trkpt><trkpt lat="39.58758446537704" lon="16.245758420754647"><ele>62.5</ele><time>2026-03-27T09:34:19Z</time></trkpt><trkpt lat="39.58728785257015" lon="16.245745552640926"><ele>61.0</ele><time>2026-03-27T09:34:20Z</time></trkpt><trkpt lat="39.586991027940755" lon="16.245730436176423"><ele>60.5</ele><time>2026-03-27T09:34:21Z</time></trkpt><trkpt lat="39.586693095881955" lon="16.24571696691564"><ele>60.0</ele><time>2026-03-27T09:34:22Z</time></trkpt><trkpt lat="39.58639557219804" lon="16.245704272249036"><ele>60.0</ele><time>2026-03-27T09:34:23Z</time></trkpt><trkpt lat="39.586098192797245" lon="16.24569156313933"><ele>60.0</ele><time>2026-03-27T09:34:24Z</time></trkpt><trkpt lat="39.585801626767044" lon="16.24567749398067"><ele>60.0</ele><time>2026-03-27T09:34:25Z</time></trkpt><trkpt lat="39.58550758842122" lon="16.24566076802559"><ele>60.0</ele><time>2026-03-27T09:34:26Z</time></trkpt><trkpt lat="39.585214693378894" lon="16.245640666526004"><ele>60.0</ele><time>2026-03-27T09:34:27Z</time></trkpt><trkpt lat="39.58492500221164" lon="16.24561430316972"><ele>60.0</ele><time>2026-03-27T09:34:28Z</time></trkpt><trkpt lat="39.5846369535516" lon="16.245586057127223"><ele>60.0</ele><time>2026-03-27T09:34:29Z</time></trkpt><trkpt lat="39.58434906856578" lon="16.245556399862643"><ele>60.0</ele><time>2026-03-27T09:34:30Z</time></trkpt><trkpt lat="39.58406494247863" lon="16.24552249998995"><ele>60.0</ele><time>2026-03-27T09:34:31Z</time></trkpt><trkpt lat="39.58377811484904" lon="16.24548117085789"><ele>60.0</ele><time>2026-03-27T09:34:32Z</time></trkpt><trkpt lat="39.583492917207074" lon="16.245431264739587"><ele>60.5</ele><time>2026-03-27T09:34:33Z</time></trkpt><trkpt lat="39.58320717132526" lon="16.245373558419306"><ele>61.0</ele><time>2026-03-27T09:34:34Z</time></trkpt><trkpt lat="39.582922762817574" lon="16.24530677093663"><ele>61.5</ele><time>2026-03-27T09:34:35Z</time></trkpt><trkpt lat="39.58264038905267" lon="16.245232335471105"><ele>62.0</ele><time>2026-03-27T09:34:36Z</time></trkpt><trkpt lat="39.582360880530906" lon="16.24515018160576"><ele>62.0</ele><time>2026-03-27T09:34:37Z</time></trkpt><trkpt lat="39.582085375089804" lon="16.245061915446694"><ele>62.0</ele><time>2026-03-27T09:34:38Z</time></trkpt><trkpt lat="39.58181189125213" lon="16.24496952129172"><ele>61.0</ele><time>2026-03-27T09:34:39Z</time></trkpt><trkpt lat="39.58154002906403" lon="16.24487060460372"><ele>60.0</ele><time>2026-03-27T09:34:40Z</time></trkpt><trkpt lat="39.581268975712334" lon="16.244763967030888"><ele>59.5</ele><time>2026-03-27T09:34:41Z</time></trkpt><trkpt lat="39.580998116611525" lon="16.244646232885486"><ele>59.0</ele><time>2026-03-27T09:34:42Z</time></trkpt><trkpt lat="39.58072589149918" lon="16.24451865892765"><ele>59.0</ele><time>2026-03-27T09:34:43Z</time></trkpt><trkpt lat="39.58045529747144" lon="16.244383586098174"><ele>59.0</ele><time>2026-03-27T09:34:44Z</time></trkpt><trkpt lat="39.58018531595276" lon="16.2442402576794"><ele>59.0</ele><time>2026-03-27T09:34:45Z</time></trkpt><trkpt lat="39.57992072113326" lon="16.244089184991903"><ele>59.0</ele><time>2026-03-27T09:34:46Z</time></trkpt><trkpt lat="39.57966019331189" lon="16.243928639272312"><ele>60.5</ele><time>2026-03-27T09:34:47Z</time></trkpt><trkpt lat="39.579401132551375" lon="16.24376139032917"><ele>62.0</ele><time>2026-03-27T09:34:48Z</time></trkpt><trkpt lat="39.579144531296194" lon="16.243592113127512"><ele>62.0</ele><time>2026-03-27T09:34:49Z</time></trkpt><trkpt lat="39.57888980715995" lon="16.24341754678937"><ele>62.0</ele><time>2026-03-27T09:34:50Z</time></trkpt><trkpt lat="39.57863779891879" lon="16.243239715003234"><ele>62.5</ele><time>2026-03-27T09:34:51Z</time></trkpt><trkpt lat="39.578388835335325" lon="16.243050440272107"><ele>63.0</ele><time>2026-03-27T09:34:52Z</time></trkpt><trkpt lat="39.578145119404965" lon="16.242850573604386"><ele>63.0</ele><time>2026-03-27T09:34:53Z</time></trkpt><trkpt lat="39.57790578985783" lon="16.242644782486366"><ele>63.0</ele><time>2026-03-27T09:34:53.999Z</time></trkpt><trkpt lat="39.57766703789265" lon="16.2424367423085"><ele>61.5</ele><time>2026-03-27T09:34:54.999Z</time></trkpt><trkpt lat="39.57742780341806" lon="16.242230945671263"><ele>60.0</ele><time>2026-03-27T09:34:55.999Z</time></trkpt><trkpt lat="39.577191329202456" lon="16.242019532570737"><ele>61.5</ele><time>2026-03-27T09:34:56.999Z</time></trkpt><trkpt lat="39.57695661349422" lon="16.241804690822665"><ele>63.0</ele><time>2026-03-27T09:34:57.999Z</time></trkpt><trkpt lat="39.57672230592963" lon="16.241591229592782"><ele>65.0</ele><time>2026-03-27T09:34:58.999Z</time></trkpt><trkpt lat="39.57649078719877" lon="16.241378205789417"><ele>67.0</ele><time>2026-03-27T09:34:59.999Z</time></trkpt><trkpt lat="39.5762605280925" lon="16.241167021548254"><ele>65.5</ele><time>2026-03-27T09:35:00.999Z</time></trkpt><trkpt lat="39.576028986780905" lon="16.240953040512117"><ele>64.0</ele><time>2026-03-27T09:35:01.999Z</time></trkpt><trkpt lat="39.57579784585281" lon="16.24073468533128"><ele>63.5</ele><time>2026-03-27T09:35:02.999Z</time></trkpt><trkpt lat="39.575564900055234" lon="16.240514319925296"><ele>63.0</ele><time>2026-03-27T09:35:03.999Z</time></trkpt><trkpt lat="39.57533232015518" lon="16.24029426422446"><ele>63.0</ele><time>2026-03-27T09:35:04.999Z</time></trkpt><trkpt lat="39.5751009058288" lon="16.240080660514828"><ele>63.0</ele><time>2026-03-27T09:35:05.999Z</time></trkpt><trkpt lat="39.57486348701516" lon="16.239873487334492"><ele>63.0</ele><time>2026-03-27T09:35:06.999Z</time></trkpt><trkpt lat="39.57462426251194" lon="16.2396717254095"><ele>63.0</ele><time>2026-03-27T09:35:07.999Z</time></trkpt><trkpt lat="39.57438143612507" lon="16.23948027554846"><ele>63.0</ele><time>2026-03-27T09:35:08.999Z</time></trkpt><trkpt lat="39.574134389365625" lon="16.239293504443694"><ele>63.0</ele><time>2026-03-27T09:35:09.999Z</time></trkpt><trkpt lat="39.57388104146902" lon="16.239116965563152"><ele>65.0</ele><time>2026-03-27T09:35:10.999Z</time></trkpt><trkpt lat="39.573622166933355" lon="16.23894866101682"><ele>67.0</ele><time>2026-03-27T09:35:11.999Z</time></trkpt><trkpt lat="39.573360460035786" lon="16.238791053022023"><ele>67.0</ele><time>2026-03-27T09:35:12.999Z</time></trkpt><trkpt lat="39.573092920668955" lon="16.238646178544098"><ele>67.0</ele><time>2026-03-27T09:35:13.999Z</time></trkpt><trkpt lat="39.57282110607506" lon="16.23850976301433"><ele>65.5</ele><time>2026-03-27T09:35:14.999Z</time></trkpt><trkpt lat="39.57254549925584" lon="16.238381419418726"><ele>64.0</ele><time>2026-03-27T09:35:15.999Z</time></trkpt><trkpt lat="39.57226582253789" lon="16.238261308192506"><ele>64.0</ele><time>2026-03-27T09:35:16.999Z</time></trkpt><trkpt lat="39.57198242809627" lon="16.238148160951667"><ele>64.0</ele><time>2026-03-27T09:35:17.999Z</time></trkpt><trkpt lat="39.57169586290259" lon="16.23804117109875"><ele>64.5</ele><time>2026-03-27T09:35:18.999Z</time></trkpt><trkpt lat="39.57140785392034" lon="16.237943931268173"><ele>65.0</ele><time>2026-03-27T09:35:19.999Z</time></trkpt><trkpt lat="39.5711185432222" lon="16.237852032691915"><ele>65.0</ele><time>2026-03-27T09:35:20.999Z</time></trkpt><trkpt lat="39.57083037896477" lon="16.23776376225064"><ele>65.0</ele><time>2026-03-27T09:35:21.999Z</time></trkpt><trkpt lat="39.57054353612949" lon="16.237678773654423"><ele>63.5</ele><time>2026-03-27T09:35:22.999Z</time></trkpt><trkpt lat="39.570257197444384" lon="16.237596392145612"><ele>62.0</ele><time>2026-03-27T09:35:23.999Z</time></trkpt><trkpt lat="39.56996938856486" lon="16.23751354777353"><ele>62.0</ele><time>2026-03-27T09:35:24.999Z</time></trkpt><trkpt lat="39.56968488094404" lon="16.2374283843866"><ele>62.0</ele><time>2026-03-27T09:35:25.999Z</time></trkpt><trkpt lat="39.56940146701738" lon="16.23734409238106"><ele>63.5</ele><time>2026-03-27T09:35:26.999Z</time></trkpt><trkpt lat="39.56911604037819" lon="16.23726256761782"><ele>65.0</ele><time>2026-03-27T09:35:27.999Z</time></trkpt><trkpt lat="39.56883131974283" lon="16.237179840724355"><ele>65.0</ele><time>2026-03-27T09:35:28.999Z</time></trkpt><trkpt lat="39.56854744247734" lon="16.23709637805905"><ele>65.0</ele><time>2026-03-27T09:35:29.999Z</time></trkpt><trkpt lat="39.568263174388655" lon="16.23701369599971"><ele>65.0</ele><time>2026-03-27T09:35:30.999Z</time></trkpt><trkpt lat="39.56797797161306" lon="16.23692942672841"><ele>65.0</ele><time>2026-03-27T09:35:31.999Z</time></trkpt><trkpt lat="39.56769112101877" lon="16.23684671577646"><ele>64.0</ele><time>2026-03-27T09:35:32.999Z</time></trkpt><trkpt lat="39.56740476270866" lon="16.23676293529212"><ele>63.0</ele><time>2026-03-27T09:35:33.999Z</time></trkpt><trkpt lat="39.56711941103195" lon="16.236678322647112"><ele>63.0</ele><time>2026-03-27T09:35:34.999Z</time></trkpt><trkpt lat="39.56683484982469" lon="16.236594347542326"><ele>63.0</ele><time>2026-03-27T09:35:35.999Z</time></trkpt><trkpt lat="39.566550432237285" lon="16.236509855891494"><ele>64.0</ele><time>2026-03-27T09:35:36.999Z</time></trkpt><trkpt lat="39.566265302716594" lon="16.23642512744298"><ele>65.0</ele><time>2026-03-27T09:35:37.999Z</time></trkpt><trkpt lat="39.565978007722244" lon="16.236342779460397"><ele>65.0</ele><time>2026-03-27T09:35:38.999Z</time></trkpt><trkpt lat="39.56568877474112" lon="16.236261642473416"><ele>65.0</ele><time>2026-03-27T09:35:40Z</time></trkpt><trkpt lat="39.5653998616742" lon="16.236179523738052"><ele>65.0</ele><time>2026-03-27T09:35:41Z</time></trkpt><trkpt lat="39.56511236641603" lon="16.23609549488614"><ele>65.0</ele><time>2026-03-27T09:35:42Z</time></trkpt><trkpt lat="39.56482635468364" lon="16.23601036209442"><ele>65.0</ele><time>2026-03-27T09:35:43Z</time></trkpt><trkpt lat="39.56454069049171" lon="16.235923951312984"><ele>65.0</ele><time>2026-03-27T09:35:44Z</time></trkpt><trkpt lat="39.56425568465101" lon="16.235837339543824"><ele>65.0</ele><time>2026-03-27T09:35:45Z</time></trkpt><trkpt lat="39.563970282035214" lon="16.235751529731257"><ele>65.0</ele><time>2026-03-27T09:35:46Z</time></trkpt><trkpt lat="39.563684990729044" lon="16.23566788811387"><ele>65.0</ele><time>2026-03-27T09:35:47Z</time></trkpt><trkpt lat="39.56340129342828" lon="16.235583203233915"><ele>65.0</ele><time>2026-03-27T09:35:48Z</time></trkpt><trkpt lat="39.56311892049295" lon="16.235495700268025"><ele>65.0</ele><time>2026-03-27T09:35:49Z</time></trkpt><trkpt lat="39.56283796646854" lon="16.235406144610494"><ele>65.0</ele><time>2026-03-27T09:35:50Z</time></trkpt><trkpt lat="39.56255835344078" lon="16.235313540344713"><ele>65.0</ele><time>2026-03-27T09:35:51Z</time></trkpt><trkpt lat="39.56227842001443" lon="16.235217863975777"><ele>65.0</ele><time>2026-03-27T09:35:52Z</time></trkpt><trkpt lat="39.5620004736735" lon="16.235119724167934"><ele>65.5</ele><time>2026-03-27T09:35:53Z</time></trkpt><trkpt lat="39.56172478489139" lon="16.23501880739495"><ele>66.0</ele><time>2026-03-27T09:35:54Z</time></trkpt><trkpt lat="39.561450435912555" lon="16.234914416995267"><ele>67.0</ele><time>2026-03-27T09:35:55Z</time></trkpt><trkpt lat="39.5611788256726" lon="16.234803774664343"><ele>68.0</ele><time>2026-03-27T09:35:56Z</time></trkpt><trkpt lat="39.56090764534198" lon="16.234692382212295"><ele>68.0</ele><time>2026-03-27T09:35:57Z</time></trkpt><trkpt lat="39.560637252777795" lon="16.23458049174282"><ele>68.0</ele><time>2026-03-27T09:35:58Z</time></trkpt><trkpt lat="39.56036690265008" lon="16.234467662138037"><ele>67.5</ele><time>2026-03-27T09:35:59Z</time></trkpt><trkpt lat="39.560098936622715" lon="16.234352315193014"><ele>67.0</ele><time>2026-03-27T09:36:00Z</time></trkpt><trkpt lat="39.559830576518436" lon="16.23423586711908"><ele>67.0</ele><time>2026-03-27T09:36:01Z</time></trkpt><trkpt lat="39.55956116113197" lon="16.234115087007762"><ele>67.0</ele><time>2026-03-27T09:36:02Z</time></trkpt><trkpt lat="39.559291259561746" lon="16.233990911125673"><ele>68.0</ele><time>2026-03-27T09:36:03Z</time></trkpt><trkpt lat="39.55902108236822" lon="16.23386438122704"><ele>69.0</ele><time>2026-03-27T09:36:04Z</time></trkpt><trkpt lat="39.55875061439217" lon="16.23373637264882"><ele>69.5</ele><time>2026-03-27T09:36:05Z</time></trkpt><trkpt lat="39.55847968364149" lon="16.233609277268638"><ele>70.0</ele><time>2026-03-27T09:36:06Z</time></trkpt><trkpt lat="39.55820801023724" lon="16.233480924929186"><ele>70.0</ele><time>2026-03-27T09:36:07Z</time></trkpt><trkpt lat="39.557935618441306" lon="16.233349393611796"><ele>70.0</ele><time>2026-03-27T09:36:08Z</time></trkpt><trkpt lat="39.55766555379123" lon="16.233215865741624"><ele>69.5</ele><time>2026-03-27T09:36:09Z</time></trkpt><trkpt lat="39.55739488896713" lon="16.233084123792853"><ele>69.0</ele><time>2026-03-27T09:36:10Z</time></trkpt><trkpt lat="39.55712297699186" lon="16.232955002549307"><ele>69.0</ele><time>2026-03-27T09:36:11Z</time></trkpt><trkpt lat="39.55685361005025" lon="16.23282504443201"><ele>69.0</ele><time>2026-03-27T09:36:12Z</time></trkpt><trkpt lat="39.55658631704787" lon="16.232694530748066"><ele>69.0</ele><time>2026-03-27T09:36:13Z</time></trkpt><trkpt lat="39.556319544733086" lon="16.232568319054828"><ele>69.0</ele><time>2026-03-27T09:36:14Z</time></trkpt><trkpt lat="39.55605247514201" lon="16.23244381566403"><ele>70.5</ele><time>2026-03-27T09:36:15Z</time></trkpt><trkpt lat="39.55578776732737" lon="16.232317040800403"><ele>72.0</ele><time>2026-03-27T09:36:16Z</time></trkpt><trkpt lat="39.55552508512663" lon="16.232187983405428"><ele>72.5</ele><time>2026-03-27T09:36:17Z</time></trkpt><trkpt lat="39.55526304734913" lon="16.232061607676613"><ele>73.0</ele><time>2026-03-27T09:36:18Z</time></trkpt><trkpt lat="39.55499986620223" lon="16.23193468669822"><ele>73.0</ele><time>2026-03-27T09:36:19Z</time></trkpt><trkpt lat="39.55473259738576" lon="16.23180498549575"><ele>73.0</ele><time>2026-03-27T09:36:20Z</time></trkpt><trkpt lat="39.55446124223564" lon="16.231673054208656"><ele>72.5</ele><time>2026-03-27T09:36:21Z</time></trkpt><trkpt lat="39.554188998895356" lon="16.231540402154614"><ele>72.0</ele><time>2026-03-27T09:36:22Z</time></trkpt><trkpt lat="39.55391167255115" lon="16.231408499901363"><ele>72.0</ele><time>2026-03-27T09:36:23Z</time></trkpt><trkpt lat="39.553629051104785" lon="16.231278192488325"><ele>72.0</ele><time>2026-03-27T09:36:24Z</time></trkpt><trkpt lat="39.55334622732436" lon="16.231144773729014"><ele>72.0</ele><time>2026-03-27T09:36:25Z</time></trkpt><trkpt lat="39.55306099991322" lon="16.231007620320717"><ele>72.0</ele><time>2026-03-27T09:36:26Z</time></trkpt><trkpt lat="39.55277413844438" lon="16.230869690185617"><ele>72.0</ele><time>2026-03-27T09:36:27Z</time></trkpt><trkpt lat="39.55248415803076" lon="16.230728727395217"><ele>72.0</ele><time>2026-03-27T09:36:28Z</time></trkpt><trkpt lat="39.55218954035827" lon="16.23058618066783"><ele>72.5</ele><time>2026-03-27T09:36:29Z</time></trkpt><trkpt lat="39.551890937522394" lon="16.230442817432106"><ele>73.0</ele><time>2026-03-27T09:36:30Z</time></trkpt><trkpt lat="39.55159018108063" lon="16.2302977098528"><ele>73.0</ele><time>2026-03-27T09:36:31Z</time></trkpt><trkpt lat="39.55128808182064" lon="16.23015168462427"><ele>73.0</ele><time>2026-03-27T09:36:32Z</time></trkpt><trkpt lat="39.55098340454879" lon="16.230003269514793"><ele>72.5</ele><time>2026-03-27T09:36:33Z</time></trkpt><trkpt lat="39.550677362716534" lon="16.229854295005488"><ele>72.0</ele><time>2026-03-27T09:36:34Z</time></trkpt><trkpt lat="39.55036887455041" lon="16.229707221841515"><ele>72.0</ele><time>2026-03-27T09:36:35Z</time></trkpt><trkpt lat="39.55005786488761" lon="16.229559663517154"><ele>72.0</ele><time>2026-03-27T09:36:36Z</time></trkpt><trkpt lat="39.549745710201066" lon="16.229412052122267"><ele>72.0</ele><time>2026-03-27T09:36:37Z</time></trkpt><trkpt lat="39.54943260537797" lon="16.229263866144972"><ele>72.0</ele><time>2026-03-27T09:36:38Z</time></trkpt><trkpt lat="39.549119171525014" lon="16.229115585480223"><ele>71.5</ele><time>2026-03-27T09:36:39Z</time></trkpt><trkpt lat="39.54880372763274" lon="16.22896580712696"><ele>71.0</ele><time>2026-03-27T09:36:40Z</time></trkpt><trkpt lat="39.54848661939164" lon="16.228815333061107"><ele>71.0</ele><time>2026-03-27T09:36:41Z</time></trkpt><trkpt lat="39.54816825743477" lon="16.228664329282203"><ele>71.0</ele><time>2026-03-27T09:36:42Z</time></trkpt><trkpt lat="39.54784975785644" lon="16.22851220638922"><ele>71.0</ele><time>2026-03-27T09:36:43Z</time></trkpt><trkpt lat="39.54752758019511" lon="16.22835856135423"><ele>71.0</ele><time>2026-03-27T09:36:44Z</time></trkpt><trkpt lat="39.54720307592508" lon="16.22820439839368"><ele>71.0</ele><time>2026-03-27T09:36:45Z</time></trkpt><trkpt lat="39.546876903518125" lon="16.22805109349629"><ele>71.0</ele><time>2026-03-27T09:36:46Z</time></trkpt><trkpt lat="39.54655081513589" lon="16.227896234112954"><ele>71.0</ele><time>2026-03-27T09:36:47Z</time></trkpt><trkpt lat="39.54622414411649" lon="16.227738834726043"><ele>71.0</ele><time>2026-03-27T09:36:48Z</time></trkpt><trkpt lat="39.5458961606451" lon="16.227583273839166"><ele>70.5</ele><time>2026-03-27T09:36:49Z</time></trkpt><trkpt lat="39.54556796698829" lon="16.227427623736844"><ele>70.0</ele><time>2026-03-27T09:36:50Z</time></trkpt><trkpt lat="39.54524072847234" lon="16.227270916286617"><ele>71.5</ele><time>2026-03-27T09:36:51Z</time></trkpt><trkpt lat="39.54491584295036" lon="16.227117823984145"><ele>73.0</ele><time>2026-03-27T09:36:52Z</time></trkpt><trkpt lat="39.54459301214759" lon="16.226966818914324"><ele>72.5</ele><time>2026-03-27T09:36:53Z</time></trkpt><trkpt lat="39.54427320583472" lon="16.22681827433294"><ele>72.0</ele><time>2026-03-27T09:36:54Z</time></trkpt><trkpt lat="39.54395655218308" lon="16.226669201181895"><ele>72.0</ele><time>2026-03-27T09:36:54.999Z</time></trkpt><trkpt lat="39.54364087094143" lon="16.226520659186434"><ele>72.0</ele><time>2026-03-27T09:36:55.999Z</time></trkpt><trkpt lat="39.54332538681267" lon="16.226371135783246"><ele>72.5</ele><time>2026-03-27T09:36:56.999Z</time></trkpt><trkpt lat="39.54300984060861" lon="16.226218779682274"><ele>73.0</ele><time>2026-03-27T09:36:57.999Z</time></trkpt><trkpt lat="39.542694556739974" lon="16.226065974810442"><ele>73.0</ele><time>2026-03-27T09:36:58.999Z</time></trkpt><trkpt lat="39.542377336197085" lon="16.225913260778434"><ele>73.0</ele><time>2026-03-27T09:36:59.999Z</time></trkpt><trkpt lat="39.542057969428" lon="16.225762122739827"><ele>73.5</ele><time>2026-03-27T09:37:00.999Z</time></trkpt><trkpt lat="39.54173615265196" lon="16.225612789062296"><ele>74.0</ele><time>2026-03-27T09:37:01.999Z</time></trkpt><trkpt lat="39.54141257419573" lon="16.225465089183484"><ele>75.5</ele><time>2026-03-27T09:37:02.999Z</time></trkpt><trkpt lat="39.54108834894463" lon="16.22531702984431"><ele>77.0</ele><time>2026-03-27T09:37:03.999Z</time></trkpt><trkpt lat="39.54076294106857" lon="16.225166536349967"><ele>77.0</ele><time>2026-03-27T09:37:04.999Z</time></trkpt><trkpt lat="39.5404404165015" lon="16.22501345501632"><ele>77.0</ele><time>2026-03-27T09:37:05.999Z</time></trkpt><trkpt lat="39.54011809684553" lon="16.2248578721642"><ele>77.5</ele><time>2026-03-27T09:37:06.999Z</time></trkpt><trkpt lat="39.53979535909754" lon="16.22469895939166"><ele>78.0</ele><time>2026-03-27T09:37:07.999Z</time></trkpt><trkpt lat="39.53946964216252" lon="16.224538658960782"><ele>76.5</ele><time>2026-03-27T09:37:08.999Z</time></trkpt><trkpt lat="39.53913952439403" lon="16.224377027085772"><ele>75.0</ele><time>2026-03-27T09:37:09.999Z</time></trkpt><trkpt lat="39.53881036341016" lon="16.22421770149745"><ele>74.5</ele><time>2026-03-27T09:37:10.999Z</time></trkpt><trkpt lat="39.53847818835623" lon="16.22405670783272"><ele>74.0</ele><time>2026-03-27T09:37:11.999Z</time></trkpt><trkpt lat="39.53814595894686" lon="16.22389796651579"><ele>74.0</ele><time>2026-03-27T09:37:12.999Z</time></trkpt><trkpt lat="39.53781039223597" lon="16.223739375317525"><ele>74.0</ele><time>2026-03-27T09:37:13.999Z</time></trkpt><trkpt lat="39.53747396373013" lon="16.223580573984602"><ele>74.0</ele><time>2026-03-27T09:37:14.999Z</time></trkpt><trkpt lat="39.53713726991026" lon="16.22341935314636"><ele>74.0</ele><time>2026-03-27T09:37:15.999Z</time></trkpt><trkpt lat="39.53680056666573" lon="16.223256407313876"><ele>75.5</ele><time>2026-03-27T09:37:16.999Z</time></trkpt><trkpt lat="39.536463478193554" lon="16.223091211744222"><ele>77.0</ele><time>2026-03-27T09:37:17.999Z</time></trkpt><trkpt lat="39.53612684141008" lon="16.222924985696075"><ele>77.0</ele><time>2026-03-27T09:37:18.999Z</time></trkpt><trkpt lat="39.53579107233392" lon="16.22275836468307"><ele>77.0</ele><time>2026-03-27T09:37:19.999Z</time></trkpt><trkpt lat="39.535457456393594" lon="16.22258632123621"><ele>77.0</ele><time>2026-03-27T09:37:20.999Z</time></trkpt><trkpt lat="39.5351261373829" lon="16.222407718972683"><ele>77.0</ele><time>2026-03-27T09:37:21.999Z</time></trkpt><trkpt lat="39.53479690226352" lon="16.222224373316564"><ele>77.0</ele><time>2026-03-27T09:37:22.999Z</time></trkpt><trkpt lat="39.534469504201816" lon="16.222039445972815"><ele>77.0</ele><time>2026-03-27T09:37:23.999Z</time></trkpt><trkpt lat="39.53414318417171" lon="16.221852899701"><ele>77.0</ele><time>2026-03-27T09:37:24.999Z</time></trkpt><trkpt lat="39.53381894097325" lon="16.22166162145237"><ele>77.0</ele><time>2026-03-27T09:37:25.999Z</time></trkpt><trkpt lat="39.533497967585845" lon="16.22146978570658"><ele>77.5</ele><time>2026-03-27T09:37:26.999Z</time></trkpt><trkpt lat="39.53317554527473" lon="16.221281181192385"><ele>78.0</ele><time>2026-03-27T09:37:27.999Z</time></trkpt><trkpt lat="39.532852689330575" lon="16.221093784422077"><ele>79.5</ele><time>2026-03-27T09:37:28.999Z</time></trkpt><trkpt lat="39.53252818108657" lon="16.22090750695898"><ele>81.0</ele><time>2026-03-27T09:37:29.999Z</time></trkpt><trkpt lat="39.53220350591984" lon="16.220722494122164"><ele>80.0</ele><time>2026-03-27T09:37:30.999Z</time></trkpt><trkpt lat="39.531879500546495" lon="16.220534233459052"><ele>79.0</ele><time>2026-03-27T09:37:31.999Z</time></trkpt><trkpt lat="39.531554916531114" lon="16.220343079463312"><ele>79.0</ele><time>2026-03-27T09:37:32.999Z</time></trkpt><trkpt lat="39.53122868964873" lon="16.220152713164513"><ele>79.0</ele><time>2026-03-27T09:37:33.999Z</time></trkpt><trkpt lat="39.53090015455217" lon="16.219961787714265"><ele>78.0</ele><time>2026-03-27T09:37:34.999Z</time></trkpt><trkpt lat="39.53056840796774" lon="16.219769192371412"><ele>77.0</ele><time>2026-03-27T09:37:35.999Z</time></trkpt><trkpt lat="39.53023417976003" lon="16.219577808034327"><ele>77.0</ele><time>2026-03-27T09:37:36.999Z</time></trkpt><trkpt lat="39.529899149489644" lon="16.219386865022738"><ele>77.0</ele><time>2026-03-27T09:37:37.999Z</time></trkpt><trkpt lat="39.529565078267275" lon="16.219195309418918"><ele>77.0</ele><time>2026-03-27T09:37:38.999Z</time></trkpt><trkpt lat="39.52922966128278" lon="16.219007228894018"><ele>77.0</ele><time>2026-03-27T09:37:39.999Z</time></trkpt><trkpt lat="39.52889540158049" lon="16.218817499214108"><ele>77.5</ele><time>2026-03-27T09:37:40.999Z</time></trkpt><trkpt lat="39.52856608738569" lon="16.218625377650383"><ele>78.0</ele><time>2026-03-27T09:37:41.999Z</time></trkpt><trkpt lat="39.52825013124223" lon="16.21843519996054"><ele>78.0</ele><time>2026-03-27T09:37:42.999Z</time></trkpt><trkpt lat="39.52795760351" lon="16.218249708486514"><ele>78.0</ele><time>2026-03-27T09:37:43.999Z</time></trkpt><trkpt lat="39.527672532367745" lon="16.218049063224726"><ele>77.5</ele><time>2026-03-27T09:37:44.999Z</time></trkpt><trkpt lat="39.527383440463765" lon="16.217833547712896"><ele>77.0</ele><time>2026-03-27T09:37:46Z</time></trkpt><trkpt lat="39.52710377311231" lon="16.21761903686211"><ele>76.5</ele><time>2026-03-27T09:37:47Z</time></trkpt><trkpt lat="39.52682905363064" lon="16.217400983968595"><ele>76.0</ele><time>2026-03-27T09:37:48Z</time></trkpt><trkpt lat="39.52655347660169" lon="16.217178632389473"><ele>76.0</ele><time>2026-03-27T09:37:49Z</time></trkpt><trkpt lat="39.52628132756897" lon="16.216947302713645"><ele>76.0</ele><time>2026-03-27T09:37:50Z</time></trkpt><trkpt lat="39.52601429005156" lon="16.216711444011278"><ele>76.5</ele><time>2026-03-27T09:37:51Z</time></trkpt><trkpt lat="39.525752238019244" lon="16.216471059222943"><ele>77.0</ele><time>2026-03-27T09:37:52Z</time></trkpt><trkpt lat="39.525492280516836" lon="16.21623078946324"><ele>76.0</ele><time>2026-03-27T09:37:53Z</time></trkpt><trkpt lat="39.525236943775155" lon="16.215997931125884"><ele>75.0</ele><time>2026-03-27T09:37:54Z</time></trkpt><trkpt lat="39.524986361159186" lon="16.21576825710135"><ele>76.0</ele><time>2026-03-27T09:37:55Z</time></trkpt><trkpt lat="39.52473514955919" lon="16.21553929603437"><ele>77.0</ele><time>2026-03-27T09:37:56Z</time></trkpt><trkpt lat="39.5244835462818" lon="16.215312634187413"><ele>77.0</ele><time>2026-03-27T09:37:57Z</time></trkpt><trkpt lat="39.52423377880675" lon="16.215087286190975"><ele>77.0</ele><time>2026-03-27T09:37:58Z</time></trkpt><trkpt lat="39.52398351420776" lon="16.214867911155174"><ele>78.0</ele><time>2026-03-27T09:37:59Z</time></trkpt><trkpt lat="39.523732102664866" lon="16.214651520738173"><ele>79.0</ele><time>2026-03-27T09:38:00Z</time></trkpt><trkpt lat="39.52347719042286" lon="16.214439675941023"><ele>79.0</ele><time>2026-03-27T09:38:01Z</time></trkpt><trkpt lat="39.5232195537553" lon="16.21423534548285"><ele>79.0</ele><time>2026-03-27T09:38:02Z</time></trkpt><trkpt lat="39.52295436897465" lon="16.21404906013641"><ele>81.0</ele><time>2026-03-27T09:38:03Z</time></trkpt><trkpt lat="39.52268161099538" lon="16.213881710874105"><ele>83.0</ele><time>2026-03-27T09:38:04Z</time></trkpt><trkpt lat="39.52240392559084" lon="16.213722639323425"><ele>83.0</ele><time>2026-03-27T09:38:05Z</time></trkpt><trkpt lat="39.52212345722191" lon="16.213571211703986"><ele>83.0</ele><time>2026-03-27T09:38:06Z</time></trkpt><trkpt lat="39.52184191687402" lon="16.213428041382432"><ele>83.0</ele><time>2026-03-27T09:38:07Z</time></trkpt><trkpt lat="39.52155971640008" lon="16.213292719385333"><ele>83.0</ele><time>2026-03-27T09:38:08Z</time></trkpt><trkpt lat="39.52127366802191" lon="16.213167725171587"><ele>83.5</ele><time>2026-03-27T09:38:09Z</time></trkpt><trkpt lat="39.520985917089185" lon="16.213048856546607"><ele>84.0</ele><time>2026-03-27T09:38:10Z</time></trkpt><trkpt lat="39.52069720218697" lon="16.212929761447384"><ele>84.0</ele><time>2026-03-27T09:38:11Z</time></trkpt><trkpt lat="39.52040822959041" lon="16.21281361835397"><ele>84.0</ele><time>2026-03-27T09:38:12Z</time></trkpt><trkpt lat="39.520117175245275" lon="16.212700058345565"><ele>83.5</ele><time>2026-03-27T09:38:13Z</time></trkpt><trkpt lat="39.5198254998818" lon="16.212588225660014"><ele>83.0</ele><time>2026-03-27T09:38:14Z</time></trkpt><trkpt lat="39.51953407366311" lon="16.212476004404664"><ele>83.5</ele><time>2026-03-27T09:38:15Z</time></trkpt><trkpt lat="39.51924254578081" lon="16.212362781393587"><ele>84.0</ele><time>2026-03-27T09:38:16Z</time></trkpt><trkpt lat="39.51895093084122" lon="16.212250767419214"><ele>85.0</ele><time>2026-03-27T09:38:17Z</time></trkpt><trkpt lat="39.51865867335114" lon="16.212138122109085"><ele>86.0</ele><time>2026-03-27T09:38:18Z</time></trkpt><trkpt lat="39.5183647472238" lon="16.21202436747524"><ele>86.0</ele><time>2026-03-27T09:38:19Z</time></trkpt><trkpt lat="39.518070248384134" lon="16.21190997706892"><ele>86.0</ele><time>2026-03-27T09:38:20Z</time></trkpt><trkpt lat="39.51777581231748" lon="16.21179529987628"><ele>86.0</ele><time>2026-03-27T09:38:21Z</time></trkpt><trkpt lat="39.517481089443336" lon="16.211681398554234"><ele>86.0</ele><time>2026-03-27T09:38:22Z</time></trkpt><trkpt lat="39.517185316287375" lon="16.21156698961506"><ele>88.5</ele><time>2026-03-27T09:38:23Z</time></trkpt><trkpt lat="39.51688964201134" lon="16.211453430524596"><ele>91.0</ele><time>2026-03-27T09:38:24Z</time></trkpt><trkpt lat="39.5165943377187" lon="16.211340634056548"><ele>91.0</ele><time>2026-03-27T09:38:25Z</time></trkpt><trkpt lat="39.5162998540779" lon="16.211227622439786"><ele>91.0</ele><time>2026-03-27T09:38:26Z</time></trkpt><trkpt lat="39.51600630054388" lon="16.211113024903845"><ele>90.5</ele><time>2026-03-27T09:38:27Z</time></trkpt><trkpt lat="39.51571150132561" lon="16.211000025500766"><ele>90.0</ele><time>2026-03-27T09:38:28Z</time></trkpt><trkpt lat="39.51541564328432" lon="16.210886881226006"><ele>90.5</ele><time>2026-03-27T09:38:29Z</time></trkpt><trkpt lat="39.515119860732625" lon="16.21077070548382"><ele>91.0</ele><time>2026-03-27T09:38:30Z</time></trkpt><trkpt lat="39.51482340972197" lon="16.210655642033586"><ele>90.5</ele><time>2026-03-27T09:38:31Z</time></trkpt><trkpt lat="39.51452736234674" lon="16.210541521836948"><ele>90.0</ele><time>2026-03-27T09:38:32Z</time></trkpt><trkpt lat="39.51423118269561" lon="16.210431036184517"><ele>90.0</ele><time>2026-03-27T09:38:33Z</time></trkpt><trkpt lat="39.51393302168476" lon="16.21032649698412"><ele>90.0</ele><time>2026-03-27T09:38:34Z</time></trkpt><trkpt lat="39.513632023322444" lon="16.210231254488974"><ele>90.0</ele><time>2026-03-27T09:38:35Z</time></trkpt><trkpt lat="39.513329723601444" lon="16.210148377458502"><ele>90.0</ele><time>2026-03-27T09:38:36Z</time></trkpt><trkpt lat="39.513024291987094" lon="16.21008045987321"><ele>89.0</ele><time>2026-03-27T09:38:37Z</time></trkpt><trkpt lat="39.51271690529237" lon="16.210025194759165"><ele>88.0</ele><time>2026-03-27T09:38:38Z</time></trkpt><trkpt lat="39.51240829823243" lon="16.20998097344047"><ele>88.0</ele><time>2026-03-27T09:38:39Z</time></trkpt><trkpt lat="39.51209697107251" lon="16.20994969928905"><ele>88.0</ele><time>2026-03-27T09:38:40Z</time></trkpt><trkpt lat="39.51178620000919" lon="16.209927011506558"><ele>89.5</ele><time>2026-03-27T09:38:41Z</time></trkpt><trkpt lat="39.511475302180834" lon="16.20991077492211"><ele>91.0</ele><time>2026-03-27T09:38:42Z</time></trkpt><trkpt lat="39.51116364089641" lon="16.209898187171305"><ele>91.0</ele><time>2026-03-27T09:38:43Z</time></trkpt><trkpt lat="39.51085045509682" lon="16.2098882402269"><ele>91.0</ele><time>2026-03-27T09:38:44Z</time></trkpt><trkpt lat="39.51053592699962" lon="16.209879489324177"><ele>91.0</ele><time>2026-03-27T09:38:45Z</time></trkpt><trkpt lat="39.51021907314232" lon="16.20986913819314"><ele>91.0</ele><time>2026-03-27T09:38:46Z</time></trkpt><trkpt lat="39.50990040859852" lon="16.209859276992912"><ele>91.0</ele><time>2026-03-27T09:38:47Z</time></trkpt><trkpt lat="39.50958010609933" lon="16.209850158734962"><ele>91.0</ele><time>2026-03-27T09:38:48Z</time></trkpt><trkpt lat="39.50925951930284" lon="16.209843102952117"><ele>90.5</ele><time>2026-03-27T09:38:49Z</time></trkpt><trkpt lat="39.50893695715793" lon="16.20983595308767"><ele>90.0</ele><time>2026-03-27T09:38:50Z</time></trkpt><trkpt lat="39.50861407215119" lon="16.209829222771702"><ele>89.0</ele><time>2026-03-27T09:38:51Z</time></trkpt><trkpt lat="39.50828989816331" lon="16.209821858464053"><ele>88.0</ele><time>2026-03-27T09:38:52Z</time></trkpt><trkpt lat="39.50796592424135" lon="16.20981484427954"><ele>86.5</ele><time>2026-03-27T09:38:53Z</time></trkpt><trkpt lat="39.50764233848265" lon="16.209811145501597"><ele>85.0</ele><time>2026-03-27T09:38:54Z</time></trkpt><trkpt lat="39.50731992436513" lon="16.20980625384459"><ele>85.0</ele><time>2026-03-27T09:38:55Z</time></trkpt><trkpt lat="39.50699904345752" lon="16.20979928904982"><ele>85.0</ele><time>2026-03-27T09:38:56Z</time></trkpt><trkpt lat="39.50667791042583" lon="16.20979162171353"><ele>85.0</ele><time>2026-03-27T09:38:57Z</time></trkpt><trkpt lat="39.506357061839275" lon="16.209783459046513"><ele>85.0</ele><time>2026-03-27T09:38:58Z</time></trkpt><trkpt lat="39.506037219077825" lon="16.209775002034547"><ele>84.0</ele><time>2026-03-27T09:38:59Z</time></trkpt><trkpt lat="39.50571678813237" lon="16.209765677724853"><ele>83.0</ele><time>2026-03-27T09:39:00Z</time></trkpt><trkpt lat="39.50539602477215" lon="16.209753214649247"><ele>83.0</ele><time>2026-03-27T09:39:01Z</time></trkpt><trkpt lat="39.50507442258755" lon="16.209739550992126"><ele>83.0</ele><time>2026-03-27T09:39:01.999Z</time></trkpt><trkpt lat="39.50475178929498" lon="16.209731203090378"><ele>82.0</ele><time>2026-03-27T09:39:02.999Z</time></trkpt><trkpt lat="39.50442897831393" lon="16.209730253344837"><ele>81.0</ele><time>2026-03-27T09:39:03.999Z</time></trkpt><trkpt lat="39.50410462267669" lon="16.209737899476963"><ele>81.0</ele><time>2026-03-27T09:39:04.999Z</time></trkpt><trkpt lat="39.50378028570577" lon="16.209753611499146"><ele>81.0</ele><time>2026-03-27T09:39:05.999Z</time></trkpt><trkpt lat="39.50345590498551" lon="16.209777085262903"><ele>81.5</ele><time>2026-03-27T09:39:06.999Z</time></trkpt><trkpt lat="39.50313182122986" lon="16.209805776061202"><ele>82.0</ele><time>2026-03-27T09:39:07.999Z</time></trkpt><trkpt lat="39.50280803097685" lon="16.209840630017425"><ele>83.0</ele><time>2026-03-27T09:39:08.999Z</time></trkpt><trkpt lat="39.50248527195454" lon="16.20988251016326"><ele>84.0</ele><time>2026-03-27T09:39:09.999Z</time></trkpt><trkpt lat="39.502163806861404" lon="16.2099326664876"><ele>84.5</ele><time>2026-03-27T09:39:10.999Z</time></trkpt><trkpt lat="39.50184395090983" lon="16.20998802624036"><ele>85.0</ele><time>2026-03-27T09:39:11.999Z</time></trkpt><trkpt lat="39.50152511694054" lon="16.21004720323395"><ele>85.0</ele><time>2026-03-27T09:39:12.999Z</time></trkpt><trkpt lat="39.50120739420141" lon="16.21011369168574"><ele>85.0</ele><time>2026-03-27T09:39:13.999Z</time></trkpt><trkpt lat="39.500891949119385" lon="16.210187773446552"><ele>85.0</ele><time>2026-03-27T09:39:14.999Z</time></trkpt><trkpt lat="39.50057676712804" lon="16.210267218796687"><ele>85.0</ele><time>2026-03-27T09:39:15.999Z</time></trkpt><trkpt lat="39.500262003645204" lon="16.210346655904303"><ele>85.5</ele><time>2026-03-27T09:39:16.999Z</time></trkpt><trkpt lat="39.49994687300437" lon="16.210429133215186"><ele>86.0</ele><time>2026-03-27T09:39:17.999Z</time></trkpt><trkpt lat="39.49963082728196" lon="16.210509868497017"><ele>86.0</ele><time>2026-03-27T09:39:18.999Z</time></trkpt><trkpt lat="39.49931387813977" lon="16.210588852698304"><ele>86.0</ele><time>2026-03-27T09:39:19.999Z</time></trkpt><trkpt lat="39.49899595731651" lon="16.21066982434744"><ele>87.5</ele><time>2026-03-27T09:39:20.999Z</time></trkpt><trkpt lat="39.498678025490406" lon="16.210752169530892"><ele>89.0</ele><time>2026-03-27T09:39:21.999Z</time></trkpt><trkpt lat="39.49836023682437" lon="16.210834650314965"><ele>89.0</ele><time>2026-03-27T09:39:22.999Z</time></trkpt><trkpt lat="39.49804185336569" lon="16.21091657735911"><ele>89.0</ele><time>2026-03-27T09:39:23.999Z</time></trkpt><trkpt lat="39.497726333635725" lon="16.211000127870722"><ele>88.5</ele><time>2026-03-27T09:39:24.999Z</time></trkpt><trkpt lat="39.49741152410909" lon="16.211084361226085"><ele>88.0</ele><time>2026-03-27T09:39:25.999Z</time></trkpt><trkpt lat="39.497100139943825" lon="16.21116803862537"><ele>88.5</ele><time>2026-03-27T09:39:26.999Z</time></trkpt><trkpt lat="39.49679143011264" lon="16.21124940186081"><ele>89.0</ele><time>2026-03-27T09:39:27.999Z</time></trkpt><trkpt lat="39.496482442949976" lon="16.21133017008744"><ele>90.0</ele><time>2026-03-27T09:39:28.999Z</time></trkpt><trkpt lat="39.49618817927676" lon="16.211406213393627"><ele>91.0</ele><time>2026-03-27T09:39:29.999Z</time></trkpt><trkpt lat="39.49590917617237" lon="16.211474486885834"><ele>90.0</ele><time>2026-03-27T09:39:30.999Z</time></trkpt><trkpt lat="39.495633909408916" lon="16.211535328767898"><ele>89.0</ele><time>2026-03-27T09:39:31.999Z</time></trkpt><trkpt lat="39.49535679108043" lon="16.211588286743012"><ele>89.0</ele><time>2026-03-27T09:39:32.999Z</time></trkpt><trkpt lat="39.49507509517317" lon="16.21163629741804"><ele>89.0</ele><time>2026-03-27T09:39:33.999Z</time></trkpt><trkpt lat="39.49478850354832" lon="16.211677471937115"><ele>88.0</ele><time>2026-03-27T09:39:34.999Z</time></trkpt><trkpt lat="39.49449763896544" lon="16.211715244240626"><ele>87.0</ele><time>2026-03-27T09:39:35.999Z</time></trkpt><trkpt lat="39.49420440160619" lon="16.211750612979213"><ele>87.0</ele><time>2026-03-27T09:39:36.999Z</time></trkpt><trkpt lat="39.4939096471193" lon="16.21178736226345"><ele>87.0</ele><time>2026-03-27T09:39:37.999Z</time></trkpt><trkpt lat="39.493612769560286" lon="16.211831515248974"><ele>87.5</ele><time>2026-03-27T09:39:38.999Z</time></trkpt><trkpt lat="39.4933177030996" lon="16.21188045397239"><ele>88.0</ele><time>2026-03-27T09:39:39.999Z</time></trkpt><trkpt lat="39.49302212450688" lon="16.211934837546632"><ele>88.5</ele><time>2026-03-27T09:39:40.999Z</time></trkpt><trkpt lat="39.492724746987335" lon="16.211995930475585"><ele>89.0</ele><time>2026-03-27T09:39:41.999Z</time></trkpt><trkpt lat="39.49242739764661" lon="16.212064574436074"><ele>89.0</ele><time>2026-03-27T09:39:42.999Z</time></trkpt><trkpt lat="39.49212889125038" lon="16.21213487638539"><ele>89.0</ele><time>2026-03-27T09:39:43.999Z</time></trkpt><trkpt lat="39.49183195241981" lon="16.21220789720797"><ele>89.0</ele><time>2026-03-27T09:39:44.999Z</time></trkpt><trkpt lat="39.49153429036077" lon="16.21228258098576"><ele>89.0</ele><time>2026-03-27T09:39:45.999Z</time></trkpt><trkpt lat="39.49123559334572" lon="16.212353656586025"><ele>89.0</ele><time>2026-03-27T09:39:46.999Z</time></trkpt><trkpt lat="39.490937010259145" lon="16.212419659734135"><ele>89.0</ele><time>2026-03-27T09:39:47.999Z</time></trkpt><trkpt lat="39.490641650174695" lon="16.212483214852362"><ele>89.5</ele><time>2026-03-27T09:39:48.999Z</time></trkpt><trkpt lat="39.490347594657166" lon="16.21254656374459"><ele>90.0</ele><time>2026-03-27T09:39:49.999Z</time></trkpt><trkpt lat="39.49005450683404" lon="16.212610910497347"><ele>90.0</ele><time>2026-03-27T09:39:50.999Z</time></trkpt><trkpt lat="39.489761008820146" lon="16.212676734336373"><ele>90.0</ele><time>2026-03-27T09:39:52Z</time></trkpt><trkpt lat="39.489469898370054" lon="16.212744849503387"><ele>89.5</ele><time>2026-03-27T09:39:53Z</time></trkpt><trkpt lat="39.48917939198802" lon="16.212815848790882"><ele>89.0</ele><time>2026-03-27T09:39:54Z</time></trkpt><trkpt lat="39.48888731458272" lon="16.21288802868069"><ele>89.0</ele><time>2026-03-27T09:39:55Z</time></trkpt><trkpt lat="39.48859591123683" lon="16.212960964883646"><ele>89.0</ele><time>2026-03-27T09:39:56Z</time></trkpt><trkpt lat="39.48830279567793" lon="16.21303658118091"><ele>89.0</ele><time>2026-03-27T09:39:57Z</time></trkpt><trkpt lat="39.488008335801524" lon="16.213108718031286"><ele>89.0</ele><time>2026-03-27T09:39:58Z</time></trkpt><trkpt lat="39.48771406164472" lon="16.213178984404728"><ele>89.0</ele><time>2026-03-27T09:39:59Z</time></trkpt><trkpt lat="39.487420006577466" lon="16.21325087421418"><ele>89.0</ele><time>2026-03-27T09:40:00Z</time></trkpt><trkpt lat="39.48712539721258" lon="16.213327387235193"><ele>89.5</ele><time>2026-03-27T09:40:01Z</time></trkpt><trkpt lat="39.48683028382107" lon="16.21340424688961"><ele>90.0</ele><time>2026-03-27T09:40:02Z</time></trkpt><trkpt lat="39.486535613612446" lon="16.213480576404802"><ele>90.0</ele><time>2026-03-27T09:40:03Z</time></trkpt><trkpt lat="39.48624112450097" lon="16.213555671916577"><ele>90.0</ele><time>2026-03-27T09:40:04Z</time></trkpt><trkpt lat="39.48594701038104" lon="16.213629699421784"><ele>90.0</ele><time>2026-03-27T09:40:05Z</time></trkpt><trkpt lat="39.485653512743205" lon="16.21370261010985"><ele>90.0</ele><time>2026-03-27T09:40:06Z</time></trkpt><trkpt lat="39.48535818341576" lon="16.213776607830304"><ele>90.5</ele><time>2026-03-27T09:40:07Z</time></trkpt><trkpt lat="39.48506384236015" lon="16.213850147969108"><ele>91.0</ele><time>2026-03-27T09:40:08Z</time></trkpt><trkpt lat="39.48477393226667" lon="16.213920572465458"><ele>91.5</ele><time>2026-03-27T09:40:09Z</time></trkpt><trkpt lat="39.48448620412226" lon="16.213991736403255"><ele>92.0</ele><time>2026-03-27T09:40:10Z</time></trkpt><trkpt lat="39.48419819176957" lon="16.214063092049177"><ele>92.0</ele><time>2026-03-27T09:40:11Z</time></trkpt><trkpt lat="39.483911462701414" lon="16.21413317813955"><ele>92.0</ele><time>2026-03-27T09:40:12Z</time></trkpt><trkpt lat="39.48362602480611" lon="16.214204303224147"><ele>92.5</ele><time>2026-03-27T09:40:13Z</time></trkpt><trkpt lat="39.483341735569326" lon="16.21427694112565"><ele>93.0</ele><time>2026-03-27T09:40:14Z</time></trkpt><trkpt lat="39.483058960433944" lon="16.214349502586092"><ele>93.5</ele><time>2026-03-27T09:40:15Z</time></trkpt><trkpt lat="39.48277625535311" lon="16.214421438461038"><ele>94.0</ele><time>2026-03-27T09:40:16Z</time></trkpt><trkpt lat="39.482492603885525" lon="16.21449288915576"><ele>94.0</ele><time>2026-03-27T09:40:17Z</time></trkpt><trkpt lat="39.48220593762686" lon="16.214563659960803"><ele>94.0</ele><time>2026-03-27T09:40:18Z</time></trkpt><trkpt lat="39.48191845719997" lon="16.21463757959037"><ele>94.5</ele><time>2026-03-27T09:40:19Z</time></trkpt><trkpt lat="39.48162756450526" lon="16.214711892221143"><ele>95.0</ele><time>2026-03-27T09:40:20Z</time></trkpt><trkpt lat="39.48133571170682" lon="16.214786086954305"><ele>95.5</ele><time>2026-03-27T09:40:21Z</time></trkpt><trkpt lat="39.48104022567441" lon="16.214862073789146"><ele>96.0</ele><time>2026-03-27T09:40:22Z</time></trkpt><trkpt lat="39.48074175154001" lon="16.214935319458455"><ele>96.0</ele><time>2026-03-27T09:40:23Z</time></trkpt><trkpt lat="39.48044253338747" lon="16.215009878268617"><ele>96.0</ele><time>2026-03-27T09:40:24Z</time></trkpt><trkpt lat="39.48014094950598" lon="16.215085293516974"><ele>96.0</ele><time>2026-03-27T09:40:25Z</time></trkpt><trkpt lat="39.479837559679346" lon="16.21516034122638"><ele>96.0</ele><time>2026-03-27T09:40:26Z</time></trkpt><trkpt lat="39.47953241993468" lon="16.215236125464422"><ele>95.5</ele><time>2026-03-27T09:40:27Z</time></trkpt><trkpt lat="39.479225500334124" lon="16.215314190510576"><ele>95.0</ele><time>2026-03-27T09:40:28Z</time></trkpt><trkpt lat="39.47891940756992" lon="16.215391293549462"><ele>96.0</ele><time>2026-03-27T09:40:29Z</time></trkpt><trkpt lat="39.47861433654384" lon="16.21546811418093"><ele>97.0</ele><time>2026-03-27T09:40:30Z</time></trkpt><trkpt lat="39.47830960736686" lon="16.215544904199273"><ele>97.0</ele><time>2026-03-27T09:40:31Z</time></trkpt><trkpt lat="39.47800612991558" lon="16.215621592845363"><ele>97.0</ele><time>2026-03-27T09:40:32Z</time></trkpt><trkpt lat="39.47770150923506" lon="16.215698301369688"><ele>96.0</ele><time>2026-03-27T09:40:33Z</time></trkpt><trkpt lat="39.4773974596686" lon="16.215775952663225"><ele>95.0</ele><time>2026-03-27T09:40:34Z</time></trkpt><trkpt lat="39.47709270710324" lon="16.21585382234779"><ele>94.0</ele><time>2026-03-27T09:40:35Z</time></trkpt><trkpt lat="39.476786819943634" lon="16.21593475285892"><ele>93.0</ele><time>2026-03-27T09:40:36Z</time></trkpt><trkpt lat="39.47647969793775" lon="16.216017566832946"><ele>93.0</ele><time>2026-03-27T09:40:37Z</time></trkpt><trkpt lat="39.47617291146077" lon="16.21610090462196"><ele>93.0</ele><time>2026-03-27T09:40:38Z</time></trkpt><trkpt lat="39.475869295135205" lon="16.216189455815766"><ele>93.0</ele><time>2026-03-27T09:40:39Z</time></trkpt><trkpt lat="39.47556774852896" lon="16.216284336974148"><ele>93.0</ele><time>2026-03-27T09:40:40Z</time></trkpt><trkpt lat="39.475268468392954" lon="16.216385729014966"><ele>94.0</ele><time>2026-03-27T09:40:41Z</time></trkpt><trkpt lat="39.47497209214133" lon="16.216493845255687"><ele>95.0</ele><time>2026-03-27T09:40:42Z</time></trkpt><trkpt lat="39.47467709744881" lon="16.21660737446769"><ele>94.0</ele><time>2026-03-27T09:40:43Z</time></trkpt><trkpt lat="39.47438283176457" lon="16.216725593610906"><ele>93.0</ele><time>2026-03-27T09:40:44Z</time></trkpt><trkpt lat="39.47408865622719" lon="16.216849722285716"><ele>93.0</ele><time>2026-03-27T09:40:45Z</time></trkpt><trkpt lat="39.47379473806843" lon="16.216973894551984"><ele>93.0</ele><time>2026-03-27T09:40:46Z</time></trkpt><trkpt lat="39.473503556264035" lon="16.217098436280338"><ele>93.0</ele><time>2026-03-27T09:40:47Z</time></trkpt><trkpt lat="39.47321180125613" lon="16.217224372473325"><ele>93.0</ele><time>2026-03-27T09:40:48Z</time></trkpt><trkpt lat="39.47291759357589" lon="16.21734900298872"><ele>93.0</ele><time>2026-03-27T09:40:49Z</time></trkpt><trkpt lat="39.47262394077475" lon="16.217472348376795"><ele>93.0</ele><time>2026-03-27T09:40:50Z</time></trkpt><trkpt lat="39.47233031319636" lon="16.21759546904301"><ele>93.0</ele><time>2026-03-27T09:40:51Z</time></trkpt><trkpt lat="39.47204973362482" lon="16.217715218103457"><ele>93.0</ele><time>2026-03-27T09:40:52Z</time></trkpt><trkpt lat="39.471786014260836" lon="16.217831158327392"><ele>93.0</ele><time>2026-03-27T09:40:53Z</time></trkpt><trkpt lat="39.47153885172146" lon="16.217942716277577"><ele>93.0</ele><time>2026-03-27T09:40:54Z</time></trkpt><trkpt lat="39.47129543998969" lon="16.21805603536712"><ele>95.0</ele><time>2026-03-27T09:40:55Z</time></trkpt><trkpt lat="39.4710475643074" lon="16.21817088810941"><ele>97.0</ele><time>2026-03-27T09:40:56Z</time></trkpt><trkpt lat="39.47079644707484" lon="16.21828678069844"><ele>97.0</ele><time>2026-03-27T09:40:57Z</time></trkpt><trkpt lat="39.47054503198027" lon="16.218399903190484"><ele>97.0</ele><time>2026-03-27T09:40:58Z</time></trkpt><trkpt lat="39.47029381746081" lon="16.218511805463347"><ele>96.5</ele><time>2026-03-27T09:40:59Z</time></trkpt><trkpt lat="39.47004298399282" lon="16.218622679294878"><ele>96.0</ele><time>2026-03-27T09:41:00Z</time></trkpt><trkpt lat="39.46978989454167" lon="16.21873328760749"><ele>96.0</ele><time>2026-03-27T09:41:01Z</time></trkpt><trkpt lat="39.469533507094" lon="16.218842919855902"><ele>96.0</ele><time>2026-03-27T09:41:02Z</time></trkpt><trkpt lat="39.46927413225339" lon="16.218953829062485"><ele>96.5</ele><time>2026-03-27T09:41:03Z</time></trkpt><trkpt lat="39.4690125965836" lon="16.219067331388896"><ele>97.0</ele><time>2026-03-27T09:41:04Z</time></trkpt><trkpt lat="39.46875033750957" lon="16.219181535143093"><ele>97.0</ele><time>2026-03-27T09:41:05Z</time></trkpt><trkpt lat="39.46848548257837" lon="16.219296071083107"><ele>97.0</ele><time>2026-03-27T09:41:06Z</time></trkpt><trkpt lat="39.46821950544345" lon="16.219411630285403"><ele>97.0</ele><time>2026-03-27T09:41:07Z</time></trkpt><trkpt lat="39.46795143341957" lon="16.21952576765358"><ele>97.0</ele><time>2026-03-27T09:41:08Z</time></trkpt><trkpt lat="39.46768101388289" lon="16.219642802431732"><ele>97.0</ele><time>2026-03-27T09:41:09Z</time></trkpt><trkpt lat="39.467408058641844" lon="16.219759632858562"><ele>97.0</ele><time>2026-03-27T09:41:10Z</time></trkpt><trkpt lat="39.46713358603306" lon="16.21987882600702"><ele>97.0</ele><time>2026-03-27T09:41:11Z</time></trkpt><trkpt lat="39.46685864024428" lon="16.22000128375227"><ele>97.0</ele><time>2026-03-27T09:41:11.999Z</time></trkpt><trkpt lat="39.46658375734357" lon="16.220128005016146"><ele>97.0</ele><time>2026-03-27T09:41:12.999Z</time></trkpt><trkpt lat="39.466307898478526" lon="16.22026150541504"><ele>97.0</ele><time>2026-03-27T09:41:13.999Z</time></trkpt><trkpt lat="39.46603210932569" lon="16.22040105421026"><ele>97.5</ele><time>2026-03-27T09:41:14.999Z</time></trkpt><trkpt lat="39.46575412679819" lon="16.220546701113047"><ele>98.0</ele><time>2026-03-27T09:41:15.999Z</time></trkpt><trkpt lat="39.46547569933728" lon="16.220696397634157"><ele>99.0</ele><time>2026-03-27T09:41:16.999Z</time></trkpt><trkpt lat="39.465197845412945" lon="16.220850293027876"><ele>100.0</ele><time>2026-03-27T09:41:17.999Z</time></trkpt><trkpt lat="39.46492185458043" lon="16.221013273266344"><ele>100.0</ele><time>2026-03-27T09:41:18.999Z</time></trkpt><trkpt lat="39.464647837735136" lon="16.221185948379663"><ele>100.0</ele><time>2026-03-27T09:41:19.999Z</time></trkpt><trkpt lat="39.46437549552788" lon="16.221368504041305"><ele>98.5</ele><time>2026-03-27T09:41:20.999Z</time></trkpt><trkpt lat="39.464108321166684" lon="16.221560272276598"><ele>97.0</ele><time>2026-03-27T09:41:21.999Z</time></trkpt><trkpt lat="39.46384297134284" lon="16.221759367477677"><ele>97.5</ele><time>2026-03-27T09:41:22.999Z</time></trkpt><trkpt lat="39.46358231177931" lon="16.221965046227034"><ele>98.0</ele><time>2026-03-27T09:41:23.999Z</time></trkpt><trkpt lat="39.463325842920774" lon="16.222175958945844"><ele>98.5</ele><time>2026-03-27T09:41:24.999Z</time></trkpt><trkpt lat="39.46307253251407" lon="16.22239318666018"><ele>99.0</ele><time>2026-03-27T09:41:25.999Z</time></trkpt><trkpt lat="39.46282060640871" lon="16.222618809847404"><ele>99.0</ele><time>2026-03-27T09:41:26.999Z</time></trkpt><trkpt lat="39.4625708158626" lon="16.222854162558267"><ele>99.0</ele><time>2026-03-27T09:41:27.999Z</time></trkpt><trkpt lat="39.46232352573075" lon="16.22310098772253"><ele>99.5</ele><time>2026-03-27T09:41:28.999Z</time></trkpt><trkpt lat="39.46208178544912" lon="16.22335941261703"><ele>100.0</ele><time>2026-03-27T09:41:29.999Z</time></trkpt><trkpt lat="39.46184230544582" lon="16.22362366466269"><ele>100.0</ele><time>2026-03-27T09:41:30.999Z</time></trkpt><trkpt lat="39.461604422013" lon="16.223892341422665"><ele>100.0</ele><time>2026-03-27T09:41:31.999Z</time></trkpt><trkpt lat="39.461370159233795" lon="16.224161679064423"><ele>100.5</ele><time>2026-03-27T09:41:32.999Z</time></trkpt><trkpt lat="39.461138246440605" lon="16.22444207393558"><ele>101.0</ele><time>2026-03-27T09:41:33.999Z</time></trkpt><trkpt lat="39.46091023183809" lon="16.22472477360817"><ele>100.5</ele><time>2026-03-27T09:41:34.999Z</time></trkpt><trkpt lat="39.46068713156412" lon="16.225016302515176"><ele>100.0</ele><time>2026-03-27T09:41:35.999Z</time></trkpt><trkpt lat="39.460469149358644" lon="16.22531152077082"><ele>100.0</ele><time>2026-03-27T09:41:36.999Z</time></trkpt><trkpt lat="39.4602536204718" lon="16.225609528944904"><ele>100.0</ele><time>2026-03-27T09:41:37.999Z</time></trkpt><trkpt lat="39.46004033664472" lon="16.225912971703142"><ele>100.0</ele><time>2026-03-27T09:41:38.999Z</time></trkpt><trkpt lat="39.45982520299971" lon="16.226217024914614"><ele>100.0</ele><time>2026-03-27T09:41:39.999Z</time></trkpt><trkpt lat="39.45960994343068" lon="16.226519432283677"><ele>101.5</ele><time>2026-03-27T09:41:40.999Z</time></trkpt><trkpt lat="39.459394640506964" lon="16.226823550016153"><ele>103.0</ele><time>2026-03-27T09:41:41.999Z</time></trkpt><trkpt lat="39.459179779043616" lon="16.227127928080623"><ele>103.5</ele><time>2026-03-27T09:41:42.999Z</time></trkpt><trkpt lat="39.458966708533985" lon="16.227432592299397"><ele>104.0</ele><time>2026-03-27T09:41:43.999Z</time></trkpt><trkpt lat="39.45875613629745" lon="16.227735856390115"><ele>104.0</ele><time>2026-03-27T09:41:44.999Z</time></trkpt><trkpt lat="39.458547076665155" lon="16.228035152903463"><ele>104.0</ele><time>2026-03-27T09:41:45.999Z</time></trkpt><trkpt lat="39.45833994362463" lon="16.22833020862402"><ele>104.0</ele><time>2026-03-27T09:41:46.999Z</time></trkpt><trkpt lat="39.458135029923746" lon="16.228621233279608"><ele>104.0</ele><time>2026-03-27T09:41:47.999Z</time></trkpt><trkpt lat="39.45793474297972" lon="16.228913441881105"><ele>103.5</ele><time>2026-03-27T09:41:48.999Z</time></trkpt><trkpt lat="39.45773266705769" lon="16.22920394793774"><ele>103.0</ele><time>2026-03-27T09:41:49.999Z</time></trkpt><trkpt lat="39.4575293244591" lon="16.229493994800837"><ele>103.0</ele><time>2026-03-27T09:41:50.999Z</time></trkpt><trkpt lat="39.4573257968958" lon="16.229783660903426"><ele>103.0</ele><time>2026-03-27T09:41:51.999Z</time></trkpt><trkpt lat="39.45712184664606" lon="16.230073268643093"><ele>103.0</ele><time>2026-03-27T09:41:52.999Z</time></trkpt><trkpt lat="39.45691697036153" lon="16.230364344451313"><ele>103.0</ele><time>2026-03-27T09:41:53.999Z</time></trkpt><trkpt lat="39.456712281569835" lon="16.230656227050147"><ele>103.0</ele><time>2026-03-27T09:41:54.999Z</time></trkpt><trkpt lat="39.45650740893109" lon="16.230948806619864"><ele>103.0</ele><time>2026-03-27T09:41:55.999Z</time></trkpt><trkpt lat="39.456301237774575" lon="16.231242788265163"><ele>103.5</ele><time>2026-03-27T09:41:56.999Z</time></trkpt><trkpt lat="39.45609330319974" lon="16.23153650438637"><ele>104.0</ele><time>2026-03-27T09:41:58Z</time></trkpt><trkpt lat="39.455886344867" lon="16.231831256649755"><ele>104.0</ele><time>2026-03-27T09:41:59Z</time></trkpt><trkpt lat="39.455679848310865" lon="16.23212690836055"><ele>104.0</ele><time>2026-03-27T09:42:00Z</time></trkpt><trkpt lat="39.45547213662593" lon="16.23242364518764"><ele>104.0</ele><time>2026-03-27T09:42:01Z</time></trkpt><trkpt lat="39.45526328988395" lon="16.232722121068733"><ele>104.0</ele><time>2026-03-27T09:42:02Z</time></trkpt><trkpt lat="39.45505465618313" lon="16.233022200075204"><ele>103.5</ele><time>2026-03-27T09:42:03Z</time></trkpt><trkpt lat="39.45484346271262" lon="16.233321714983187"><ele>103.0</ele><time>2026-03-27T09:42:04Z</time></trkpt><trkpt lat="39.45462904364973" lon="16.23361745314989"><ele>103.5</ele><time>2026-03-27T09:42:05Z</time></trkpt><trkpt lat="39.45440866327004" lon="16.233906443760127"><ele>104.0</ele><time>2026-03-27T09:42:06Z</time></trkpt><trkpt lat="39.45418132463475" lon="16.234186467793464"><ele>104.0</ele><time>2026-03-27T09:42:07Z</time></trkpt><trkpt lat="39.453949110492665" lon="16.234454878925437"><ele>104.0</ele><time>2026-03-27T09:42:08Z</time></trkpt><trkpt lat="39.4537106875068" lon="16.23471437441824"><ele>104.0</ele><time>2026-03-27T09:42:09Z</time></trkpt><trkpt lat="39.453468366567144" lon="16.234968597893857"><ele>104.0</ele><time>2026-03-27T09:42:10Z</time></trkpt><trkpt lat="39.45322278078309" lon="16.235212636153154"><ele>104.0</ele><time>2026-03-27T09:42:11Z</time></trkpt><trkpt lat="39.45297192443878" lon="16.235449676749827"><ele>104.0</ele><time>2026-03-27T09:42:12Z</time></trkpt><trkpt lat="39.452714023968085" lon="16.235673901086958"><ele>105.0</ele><time>2026-03-27T09:42:13Z</time></trkpt><trkpt lat="39.45245254432278" lon="16.23588624672532"><ele>106.0</ele><time>2026-03-27T09:42:14Z</time></trkpt><trkpt lat="39.45218520840188" lon="16.236087267593643"><ele>106.5</ele><time>2026-03-27T09:42:15Z</time></trkpt><trkpt lat="39.45191398714476" lon="16.236276282519754"><ele>107.0</ele><time>2026-03-27T09:42:16Z</time></trkpt><trkpt lat="39.45164182451044" lon="16.236458954090395"><ele>109.0</ele><time>2026-03-27T09:42:17Z</time></trkpt><trkpt lat="39.451366450377186" lon="16.23663050350196"><ele>111.0</ele><time>2026-03-27T09:42:18Z</time></trkpt><trkpt lat="39.451090087638214" lon="16.23679350427395"><ele>111.5</ele><time>2026-03-27T09:42:19Z</time></trkpt><trkpt lat="39.45081110264956" lon="16.2369404931935"><ele>112.0</ele><time>2026-03-27T09:42:20Z</time></trkpt><trkpt lat="39.450529042548176" lon="16.23707284261341"><ele>111.5</ele><time>2026-03-27T09:42:21Z</time></trkpt><trkpt lat="39.4502433037245" lon="16.237192941203496"><ele>111.0</ele><time>2026-03-27T09:42:22Z</time></trkpt><trkpt lat="39.44995627531543" lon="16.237302400888098"><ele>111.5</ele><time>2026-03-27T09:42:23Z</time></trkpt><trkpt lat="39.44966783185818" lon="16.237402298670293"><ele>112.0</ele><time>2026-03-27T09:42:24Z</time></trkpt><trkpt lat="39.44937714471529" lon="16.237494437336014"><ele>112.0</ele><time>2026-03-27T09:42:25Z</time></trkpt><trkpt lat="39.44908362380211" lon="16.23757601287626"><ele>112.0</ele><time>2026-03-27T09:42:26Z</time></trkpt><trkpt lat="39.448788055202584" lon="16.23765008468711"><ele>113.0</ele><time>2026-03-27T09:42:27Z</time></trkpt><trkpt lat="39.448490647353" lon="16.23771561020061"><ele>114.0</ele><time>2026-03-27T09:42:28Z</time></trkpt><trkpt lat="39.448189763912026" lon="16.237770421282022"><ele>116.5</ele><time>2026-03-27T09:42:29Z</time></trkpt><trkpt lat="39.4478859742574" lon="16.23781547064481"><ele>119.0</ele><time>2026-03-27T09:42:30Z</time></trkpt><trkpt lat="39.44757990409886" lon="16.237849468833332"><ele>119.0</ele><time>2026-03-27T09:42:31Z</time></trkpt><trkpt lat="39.44727148409042" lon="16.23786808657822"><ele>119.0</ele><time>2026-03-27T09:42:32Z</time></trkpt><trkpt lat="39.44695931503028" lon="16.23787437865994"><ele>120.5</ele><time>2026-03-27T09:42:33Z</time></trkpt><trkpt lat="39.44664772357757" lon="16.237872420908708"><ele>122.0</ele><time>2026-03-27T09:42:34Z</time></trkpt><trkpt lat="39.446339950247804" lon="16.237864349158997"><ele>122.5</ele><time>2026-03-27T09:42:35Z</time></trkpt><trkpt lat="39.446029856961964" lon="16.237847988576178"><ele>123.0</ele><time>2026-03-27T09:42:36Z</time></trkpt><trkpt lat="39.44571820733832" lon="16.23782812604219"><ele>123.5</ele><time>2026-03-27T09:42:37Z</time></trkpt><trkpt lat="39.44540090257387" lon="16.237806427114318"><ele>124.0</ele><time>2026-03-27T09:42:38Z</time></trkpt><trkpt lat="39.445085798828394" lon="16.2377843906156"><ele>124.0</ele><time>2026-03-27T09:42:39Z</time></trkpt><trkpt lat="39.44477178747877" lon="16.23776454709327"><ele>124.0</ele><time>2026-03-27T09:42:40Z</time></trkpt><trkpt lat="39.4444567506606" lon="16.237752744549454"><ele>123.5</ele><time>2026-03-27T09:42:41Z</time></trkpt><trkpt lat="39.44414115476397" lon="16.237748106309887"><ele>123.0</ele><time>2026-03-27T09:42:42Z</time></trkpt><trkpt lat="39.44382367423552" lon="16.23774899736945"><ele>124.0</ele><time>2026-03-27T09:42:43Z</time></trkpt><trkpt lat="39.44350507201866" lon="16.237761063816823"><ele>125.0</ele><time>2026-03-27T09:42:44Z</time></trkpt><trkpt lat="39.4431879714666" lon="16.237791997994876"><ele>123.0</ele><time>2026-03-27T09:42:45Z</time></trkpt><trkpt lat="39.44287072921187" lon="16.237842629338083"><ele>121.0</ele><time>2026-03-27T09:42:46Z</time></trkpt><trkpt lat="39.442554544275026" lon="16.237906950670844"><ele>121.0</ele><time>2026-03-27T09:42:47Z</time></trkpt><trkpt lat="39.442239211215394" lon="16.237986126883396"><ele>121.0</ele><time>2026-03-27T09:42:48Z</time></trkpt><trkpt lat="39.44192586075349" lon="16.2380775954839"><ele>119.0</ele><time>2026-03-27T09:42:49Z</time></trkpt><trkpt lat="39.44161469301313" lon="16.2381808030421"><ele>117.0</ele><time>2026-03-27T09:42:50Z</time></trkpt><trkpt lat="39.44130531473766" lon="16.238296555364332"><ele>118.0</ele><time>2026-03-27T09:42:51Z</time></trkpt><trkpt lat="39.440997787523635" lon="16.238424898278463"><ele>119.0</ele><time>2026-03-27T09:42:52Z</time></trkpt><trkpt lat="39.44069190489635" lon="16.238562161069716"><ele>119.0</ele><time>2026-03-27T09:42:53Z</time></trkpt><trkpt lat="39.44038862521332" lon="16.238704709685933"><ele>119.0</ele><time>2026-03-27T09:42:54Z</time></trkpt><trkpt lat="39.44008716669318" lon="16.23885155884845"><ele>118.5</ele><time>2026-03-27T09:42:55Z</time></trkpt><trkpt lat="39.43978690635692" lon="16.239001134448255"><ele>118.0</ele><time>2026-03-27T09:42:56Z</time></trkpt><trkpt lat="39.43948535365344" lon="16.239148753806727"><ele>120.5</ele><time>2026-03-27T09:42:57Z</time></trkpt><trkpt lat="39.43918517221076" lon="16.239296062618173"><ele>123.0</ele><time>2026-03-27T09:42:58Z</time></trkpt><trkpt lat="39.43888534300277" lon="16.239446733350412"><ele>125.0</ele><time>2026-03-27T09:42:59Z</time></trkpt><trkpt lat="39.438585334295794" lon="16.239601531517728"><ele>127.0</ele><time>2026-03-27T09:43:00Z</time></trkpt><trkpt lat="39.43828591528832" lon="16.239754561013797"><ele>126.5</ele><time>2026-03-27T09:43:01Z</time></trkpt><trkpt lat="39.43798753920225" lon="16.23990464483615"><ele>126.0</ele><time>2026-03-27T09:43:02Z</time></trkpt><trkpt lat="39.4376915741994" lon="16.240046527493742"><ele>126.0</ele><time>2026-03-27T09:43:03Z</time></trkpt><trkpt lat="39.43739554307671" lon="16.240182469587744"><ele>126.0</ele><time>2026-03-27T09:43:04Z</time></trkpt><trkpt lat="39.43709884864151" lon="16.24031135338486"><ele>126.5</ele><time>2026-03-27T09:43:05Z</time></trkpt><trkpt lat="39.4367981565881" lon="16.240426620166247"><ele>127.0</ele><time>2026-03-27T09:43:06Z</time></trkpt><trkpt lat="39.43649274774481" lon="16.24053183978491"><ele>127.0</ele><time>2026-03-27T09:43:07Z</time></trkpt><trkpt lat="39.43618378818904" lon="16.24062449943763"><ele>127.0</ele><time>2026-03-27T09:43:08Z</time></trkpt><trkpt lat="39.435872136589836" lon="16.2407063379327"><ele>127.0</ele><time>2026-03-27T09:43:09Z</time></trkpt><trkpt lat="39.435558152029365" lon="16.240774990158958"><ele>127.0</ele><time>2026-03-27T09:43:10Z</time></trkpt><trkpt lat="39.43524264726231" lon="16.240826728633074"><ele>127.0</ele><time>2026-03-27T09:43:11Z</time></trkpt><trkpt lat="39.43492720852743" lon="16.24086423484411"><ele>127.0</ele><time>2026-03-27T09:43:12Z</time></trkpt><trkpt lat="39.43461245313079" lon="16.2408895701571"><ele>128.0</ele><time>2026-03-27T09:43:13Z</time></trkpt><trkpt lat="39.43429920354238" lon="16.240903747762697"><ele>129.0</ele><time>2026-03-27T09:43:14Z</time></trkpt><trkpt lat="39.433985710610976" lon="16.24091579915365"><ele>129.5</ele><time>2026-03-27T09:43:15Z</time></trkpt><trkpt lat="39.433670446072455" lon="16.24092759398167"><ele>130.0</ele><time>2026-03-27T09:43:16Z</time></trkpt><trkpt lat="39.43335465670155" lon="16.24093778364019"><ele>130.0</ele><time>2026-03-27T09:43:17Z</time></trkpt><trkpt lat="39.43303766105854" lon="16.240945053825758"><ele>130.0</ele><time>2026-03-27T09:43:18Z</time></trkpt><trkpt lat="39.432718542463746" lon="16.24095014986652"><ele>131.0</ele><time>2026-03-27T09:43:18.999Z</time></trkpt><trkpt lat="39.43240034970873" lon="16.24095451268642"><ele>132.0</ele><time>2026-03-27T09:43:19.999Z</time></trkpt><trkpt lat="39.43208608382798" lon="16.24095790742817"><ele>132.0</ele><time>2026-03-27T09:43:20.999Z</time></trkpt><trkpt lat="39.4317723249343" lon="16.240961487110415"><ele>132.0</ele><time>2026-03-27T09:43:21.999Z</time></trkpt><trkpt lat="39.4314563389521" lon="16.240965168900484"><ele>132.5</ele><time>2026-03-27T09:43:22.999Z</time></trkpt><trkpt lat="39.43114258962402" lon="16.240970092593518"><ele>133.0</ele><time>2026-03-27T09:43:23.999Z</time></trkpt><trkpt lat="39.4308309603894" lon="16.240977090023552"><ele>133.0</ele><time>2026-03-27T09:43:24.999Z</time></trkpt><trkpt lat="39.43051837587125" lon="16.240988738186655"><ele>133.0</ele><time>2026-03-27T09:43:25.999Z</time></trkpt><trkpt lat="39.43020641715007" lon="16.241006372118616"><ele>133.5</ele><time>2026-03-27T09:43:26.999Z</time></trkpt><trkpt lat="39.42989457310758" lon="16.241032095372034"><ele>134.0</ele><time>2026-03-27T09:43:27.999Z</time></trkpt><trkpt lat="39.42958360445879" lon="16.241065344083758"><ele>134.5</ele><time>2026-03-27T09:43:28.999Z</time></trkpt><trkpt lat="39.42927279294937" lon="16.2411061168884"><ele>135.0</ele><time>2026-03-27T09:43:29.999Z</time></trkpt><trkpt lat="39.42896204140518" lon="16.24115194146917"><ele>138.0</ele><time>2026-03-27T09:43:30.999Z</time></trkpt><trkpt lat="39.42865217551581" lon="16.241202171286755"><ele>141.0</ele><time>2026-03-27T09:43:31.999Z</time></trkpt><trkpt lat="39.42834226453336" lon="16.241258432722883"><ele>141.0</ele><time>2026-03-27T09:43:32.999Z</time></trkpt><trkpt lat="39.42803243733138" lon="16.24131516065304"><ele>141.0</ele><time>2026-03-27T09:43:33.999Z</time></trkpt><trkpt lat="39.42772316817041" lon="16.24137029834038"><ele>141.0</ele><time>2026-03-27T09:43:34.999Z</time></trkpt><trkpt lat="39.427413963652356" lon="16.241425733599"><ele>141.0</ele><time>2026-03-27T09:43:35.999Z</time></trkpt><trkpt lat="39.42710894466416" lon="16.241482105667398"><ele>140.5</ele><time>2026-03-27T09:43:36.999Z</time></trkpt><trkpt lat="39.42679954649969" lon="16.241540557599482"><ele>140.0</ele><time>2026-03-27T09:43:37.999Z</time></trkpt><trkpt lat="39.42648904501325" lon="16.241600313201324"><ele>140.0</ele><time>2026-03-27T09:43:38.999Z</time></trkpt><trkpt lat="39.42617700030197" lon="16.241661362936316"><ele>140.0</ele><time>2026-03-27T09:43:39.999Z</time></trkpt><trkpt lat="39.42586411275111" lon="16.24172138261878"><ele>140.0</ele><time>2026-03-27T09:43:40.999Z</time></trkpt><trkpt lat="39.425552153850404" lon="16.241780775053346"><ele>140.0</ele><time>2026-03-27T09:43:41.999Z</time></trkpt><trkpt lat="39.4252401072131" lon="16.241837592108006"><ele>140.5</ele><time>2026-03-27T09:43:42.999Z</time></trkpt><trkpt lat="39.424927627529954" lon="16.241893659966255"><ele>141.0</ele><time>2026-03-27T09:43:43.999Z</time></trkpt><trkpt lat="39.42461507952019" lon="16.241951575440982"><ele>142.0</ele><time>2026-03-27T09:43:44.999Z</time></trkpt><trkpt lat="39.42430346189531" lon="16.242011000182487"><ele>143.0</ele><time>2026-03-27T09:43:45.999Z</time></trkpt><trkpt lat="39.42399428736092" lon="16.242071012578382"><ele>142.5</ele><time>2026-03-27T09:43:46.999Z</time></trkpt><trkpt lat="39.42368617295745" lon="16.242129790483855"><ele>142.0</ele><time>2026-03-27T09:43:47.999Z</time></trkpt><trkpt lat="39.42337736269391" lon="16.24218870980308"><ele>142.0</ele><time>2026-03-27T09:43:48.999Z</time></trkpt><trkpt lat="39.42306895843035" lon="16.242246239651525"><ele>142.0</ele><time>2026-03-27T09:43:49.999Z</time></trkpt><trkpt lat="39.4227615034026" lon="16.242302238589716"><ele>142.0</ele><time>2026-03-27T09:43:50.999Z</time></trkpt><trkpt lat="39.42245455747679" lon="16.242358037853958"><ele>142.0</ele><time>2026-03-27T09:43:51.999Z</time></trkpt><trkpt lat="39.42214730336991" lon="16.242413726209975"><ele>142.5</ele><time>2026-03-27T09:43:52.999Z</time></trkpt><trkpt lat="39.421839541385225" lon="16.24246969541081"><ele>143.0</ele><time>2026-03-27T09:43:53.999Z</time></trkpt><trkpt lat="39.421530615634666" lon="16.242526725561643"><ele>143.0</ele><time>2026-03-27T09:43:54.999Z</time></trkpt><trkpt lat="39.42122015481609" lon="16.24258594606928"><ele>143.0</ele><time>2026-03-27T09:43:55.999Z</time></trkpt><trkpt lat="39.42090911167833" lon="16.242649091945037"><ele>143.0</ele><time>2026-03-27T09:43:56.999Z</time></trkpt><trkpt lat="39.420597591915815" lon="16.242716288857917"><ele>143.0</ele><time>2026-03-27T09:43:57.999Z</time></trkpt><trkpt lat="39.420284947989366" lon="16.24278765392624"><ele>143.5</ele><time>2026-03-27T09:43:58.999Z</time></trkpt><trkpt lat="39.41997255271811" lon="16.242860306507477"><ele>144.0</ele><time>2026-03-27T09:43:59.999Z</time></trkpt><trkpt lat="39.41965616563611" lon="16.24293495406597"><ele>143.5</ele><time>2026-03-27T09:44:00.999Z</time></trkpt><trkpt lat="39.419340772261364" lon="16.243016029106215"><ele>143.0</ele><time>2026-03-27T09:44:01.999Z</time></trkpt><trkpt lat="39.419024146994296" lon="16.243104489827804"><ele>142.5</ele><time>2026-03-27T09:44:03Z</time></trkpt><trkpt lat="39.418708793467616" lon="16.243202681684128"><ele>142.0</ele><time>2026-03-27T09:44:04Z</time></trkpt><trkpt lat="39.41839419588562" lon="16.24330832509579"><ele>142.0</ele><time>2026-03-27T09:44:05Z</time></trkpt><trkpt lat="39.41807768457361" lon="16.243420315782984"><ele>142.0</ele><time>2026-03-27T09:44:06Z</time></trkpt><trkpt lat="39.417761714263094" lon="16.24353749335305"><ele>142.0</ele><time>2026-03-27T09:44:07Z</time></trkpt><trkpt lat="39.417446975655984" lon="16.243657560275278"><ele>142.0</ele><time>2026-03-27T09:44:08Z</time></trkpt><trkpt lat="39.41713657165562" lon="16.243778809174934"><ele>139.0</ele><time>2026-03-27T09:44:09Z</time></trkpt><trkpt lat="39.41682800772442" lon="16.243898234169087"><ele>136.0</ele><time>2026-03-27T09:44:10Z</time></trkpt><trkpt lat="39.41651257974907" lon="16.244013572674643"><ele>133.5</ele><time>2026-03-27T09:44:11Z</time></trkpt><trkpt lat="39.41619972134193" lon="16.244125805511054"><ele>131.0</ele><time>2026-03-27T09:44:12Z</time></trkpt><trkpt lat="39.41588812965472" lon="16.244236141363906"><ele>131.0</ele><time>2026-03-27T09:44:13Z</time></trkpt><trkpt lat="39.415575340407315" lon="16.244342596408806"><ele>131.0</ele><time>2026-03-27T09:44:14Z</time></trkpt><trkpt lat="39.41525945526374" lon="16.24444276609621"><ele>133.5</ele><time>2026-03-27T09:44:15Z</time></trkpt><trkpt lat="39.41494187728081" lon="16.244532595033597"><ele>136.0</ele><time>2026-03-27T09:44:16Z</time></trkpt><trkpt lat="39.414622605251864" lon="16.24461177781515"><ele>141.0</ele><time>2026-03-27T09:44:17Z</time></trkpt><trkpt lat="39.41430224534034" lon="16.244679030987804"><ele>146.0</ele><time>2026-03-27T09:44:18Z</time></trkpt><trkpt lat="39.41398017119689" lon="16.24473614105075"><ele>146.0</ele><time>2026-03-27T09:44:19Z</time></trkpt><trkpt lat="39.41365567543211" lon="16.244782195243566"><ele>146.0</ele><time>2026-03-27T09:44:20Z</time></trkpt><trkpt lat="39.41333067077245" lon="16.24481632046352"><ele>144.0</ele><time>2026-03-27T09:44:21Z</time></trkpt><trkpt lat="39.41300496044193" lon="16.244838083387485"><ele>142.0</ele><time>2026-03-27T09:44:22Z</time></trkpt><trkpt lat="39.41267938375973" lon="16.244848138638744"><ele>142.0</ele><time>2026-03-27T09:44:23Z</time></trkpt><trkpt lat="39.41235277638979" lon="16.24484782123637"><ele>142.0</ele><time>2026-03-27T09:44:24Z</time></trkpt><trkpt lat="39.41202635501294" lon="16.24483877778451"><ele>143.0</ele><time>2026-03-27T09:44:25Z</time></trkpt><trkpt lat="39.41170012616277" lon="16.244820853477524"><ele>144.0</ele><time>2026-03-27T09:44:26Z</time></trkpt><trkpt lat="39.41137620323863" lon="16.244796696784356"><ele>145.5</ele><time>2026-03-27T09:44:27Z</time></trkpt><trkpt lat="39.41105109551273" lon="16.244767068471333"><ele>147.0</ele><time>2026-03-27T09:44:28Z</time></trkpt><trkpt lat="39.4107266907509" lon="16.244734066879865"><ele>147.5</ele><time>2026-03-27T09:44:29Z</time></trkpt><trkpt lat="39.41040220351621" lon="16.244695852153686"><ele>148.0</ele><time>2026-03-27T09:44:30Z</time></trkpt><trkpt lat="39.41008061210985" lon="16.24466570051076"><ele>148.0</ele><time>2026-03-27T09:44:31Z</time></trkpt><trkpt lat="39.40976104046042" lon="16.244622246141564"><ele>148.0</ele><time>2026-03-27T09:44:32Z</time></trkpt><trkpt lat="39.40943251349445" lon="16.244567263350596"><ele>148.5</ele><time>2026-03-27T09:44:33Z</time></trkpt><trkpt lat="39.409102453428844" lon="16.244526686039915"><ele>149.0</ele><time>2026-03-27T09:44:34Z</time></trkpt><trkpt lat="39.408775143860815" lon="16.244483593932507"><ele>149.5</ele><time>2026-03-27T09:44:35Z</time></trkpt><trkpt lat="39.4084490732925" lon="16.244444060807947"><ele>150.0</ele><time>2026-03-27T09:44:36Z</time></trkpt><trkpt lat="39.40812416127171" lon="16.244402289705146"><ele>149.0</ele><time>2026-03-27T09:44:37Z</time></trkpt><trkpt lat="39.40779900833819" lon="16.244360718643012"><ele>148.0</ele><time>2026-03-27T09:44:38Z</time></trkpt><trkpt lat="39.40747467862048" lon="16.24432255540833"><ele>149.5</ele><time>2026-03-27T09:44:39Z</time></trkpt><trkpt lat="39.40714870774414" lon="16.24428652292295"><ele>151.0</ele><time>2026-03-27T09:44:40Z</time></trkpt><trkpt lat="39.40681928536684" lon="16.244246389058517"><ele>151.0</ele><time>2026-03-27T09:44:41Z</time></trkpt><trkpt lat="39.406493566351116" lon="16.2442036249388"><ele>151.0</ele><time>2026-03-27T09:44:42Z</time></trkpt><trkpt lat="39.40616881689226" lon="16.244169026268082"><ele>151.0</ele><time>2026-03-27T09:44:43Z</time></trkpt><trkpt lat="39.40584132670449" lon="16.244136051478996"><ele>151.0</ele><time>2026-03-27T09:44:44Z</time></trkpt><trkpt lat="39.40551655347101" lon="16.244098424413274"><ele>150.5</ele><time>2026-03-27T09:44:45Z</time></trkpt><trkpt lat="39.405196538075245" lon="16.244053720417103"><ele>150.0</ele><time>2026-03-27T09:44:46Z</time></trkpt><trkpt lat="39.40487367422288" lon="16.244015645599188"><ele>150.0</ele><time>2026-03-27T09:44:47Z</time></trkpt><trkpt lat="39.404579796108564" lon="16.24397438219219"><ele>150.0</ele><time>2026-03-27T09:44:48Z</time></trkpt><trkpt lat="39.404269931478616" lon="16.243935245647176"><ele>151.0</ele><time>2026-03-27T09:44:49Z</time></trkpt><trkpt lat="39.40396002926983" lon="16.24389364090032"><ele>152.0</ele><time>2026-03-27T09:44:50Z</time></trkpt><trkpt lat="39.40364810707017" lon="16.243852197757697"><ele>150.0</ele><time>2026-03-27T09:44:51Z</time></trkpt><trkpt lat="39.403334070094374" lon="16.243809848152576"><ele>148.0</ele><time>2026-03-27T09:44:52Z</time></trkpt><trkpt lat="39.40301647777544" lon="16.24376757425648"><ele>146.0</ele><time>2026-03-27T09:44:53Z</time></trkpt><trkpt lat="39.40269486604377" lon="16.243727881868924"><ele>144.0</ele><time>2026-03-27T09:44:54Z</time></trkpt><trkpt lat="39.40237267844526" lon="16.24368745842825"><ele>143.5</ele><time>2026-03-27T09:44:55Z</time></trkpt><trkpt lat="39.40204843247531" lon="16.243647186078466"><ele>143.0</ele><time>2026-03-27T09:44:56Z</time></trkpt><trkpt lat="39.40172315274801" lon="16.243607231894856"><ele>143.0</ele><time>2026-03-27T09:44:57Z</time></trkpt><trkpt lat="39.4013988224153" lon="16.243565830441444"><ele>143.0</ele><time>2026-03-27T09:44:58Z</time></trkpt><trkpt lat="39.40107364549246" lon="16.243529252763935"><ele>143.5</ele><time>2026-03-27T09:44:59Z</time></trkpt><trkpt lat="39.40074827953306" lon="16.24349155135009"><ele>144.0</ele><time>2026-03-27T09:45:00Z</time></trkpt><trkpt lat="39.40042382369477" lon="16.243450699842793"><ele>144.0</ele><time>2026-03-27T09:45:01Z</time></trkpt><trkpt lat="39.40010085043825" lon="16.243406789194918"><ele>144.0</ele><time>2026-03-27T09:45:02Z</time></trkpt><trkpt lat="39.399779441889905" lon="16.243364921557497"><ele>144.0</ele><time>2026-03-27T09:45:03Z</time></trkpt><trkpt lat="39.39945781089225" lon="16.24331969383837"><ele>144.0</ele><time>2026-03-27T09:45:04Z</time></trkpt><trkpt lat="39.39913718180794" lon="16.243278436805937"><ele>144.5</ele><time>2026-03-27T09:45:05Z</time></trkpt><trkpt lat="39.398818040327534" lon="16.243234860541136"><ele>145.0</ele><time>2026-03-27T09:45:06Z</time></trkpt><trkpt lat="39.3984987177088" lon="16.243195548048885"><ele>145.0</ele><time>2026-03-27T09:45:07Z</time></trkpt><trkpt lat="39.3981809482262" lon="16.243160694717925"><ele>145.0</ele><time>2026-03-27T09:45:08Z</time></trkpt><trkpt lat="39.39786219280753" lon="16.243124890058198"><ele>145.5</ele><time>2026-03-27T09:45:09Z</time></trkpt><trkpt lat="39.397546695814995" lon="16.243084563700123"><ele>146.0</ele><time>2026-03-27T09:45:10Z</time></trkpt><trkpt lat="39.397227819290904" lon="16.243045070796885"><ele>147.0</ele><time>2026-03-27T09:45:11Z</time></trkpt><trkpt lat="39.396912513008296" lon="16.243002957429585"><ele>148.0</ele><time>2026-03-27T09:45:12Z</time></trkpt><trkpt lat="39.39659680210753" lon="16.242960936173322"><ele>150.0</ele><time>2026-03-27T09:45:13Z</time></trkpt><trkpt lat="39.39628287709411" lon="16.242916305490056"><ele>152.0</ele><time>2026-03-27T09:45:14Z</time></trkpt><trkpt lat="39.39596701056328" lon="16.2428685797092"><ele>152.0</ele><time>2026-03-27T09:45:15Z</time></trkpt><trkpt lat="39.395652295501755" lon="16.242822092881394"><ele>152.0</ele><time>2026-03-27T09:45:16Z</time></trkpt><trkpt lat="39.39534084534394" lon="16.24277270865793"><ele>154.0</ele><time>2026-03-27T09:45:17Z</time></trkpt><trkpt lat="39.395021978798034" lon="16.242730016622176"><ele>156.0</ele><time>2026-03-27T09:45:18Z</time></trkpt><trkpt lat="39.394707685697774" lon="16.24269249333743"><ele>156.5</ele><time>2026-03-27T09:45:19Z</time></trkpt><trkpt lat="39.39441236340925" lon="16.24264622621742"><ele>157.0</ele><time>2026-03-27T09:45:20Z</time></trkpt><trkpt lat="39.39410869342028" lon="16.24259784992917"><ele>158.5</ele><time>2026-03-27T09:45:21Z</time></trkpt><trkpt lat="39.393807205788306" lon="16.2425407940499"><ele>160.0</ele><time>2026-03-27T09:45:22Z</time></trkpt><trkpt lat="39.39350680447861" lon="16.242486792415438"><ele>160.0</ele><time>2026-03-27T09:45:23Z</time></trkpt><trkpt lat="39.39320953191872" lon="16.242420839955912"><ele>160.0</ele><time>2026-03-27T09:45:23.999Z</time></trkpt><trkpt lat="39.39291607664579" lon="16.24234936591057"><ele>162.0</ele><time>2026-03-27T09:45:24.999Z</time></trkpt><trkpt lat="39.39262647291322" lon="16.242263885157065"><ele>164.0</ele><time>2026-03-27T09:45:25.999Z</time></trkpt><trkpt lat="39.39234319599343" lon="16.24216385957493"><ele>164.0</ele><time>2026-03-27T09:45:26.999Z</time></trkpt><trkpt lat="39.39206396093965" lon="16.2420522280736"><ele>164.0</ele><time>2026-03-27T09:45:27.999Z</time></trkpt><trkpt lat="39.39178902946994" lon="16.24192635274573"><ele>164.0</ele><time>2026-03-27T09:45:28.999Z</time></trkpt><trkpt lat="39.391519375726254" lon="16.241790527879644"><ele>164.0</ele><time>2026-03-27T09:45:29.999Z</time></trkpt><trkpt lat="39.39125408956231" lon="16.241645126064167"><ele>164.0</ele><time>2026-03-27T09:45:30.999Z</time></trkpt><trkpt lat="39.39099173890306" lon="16.24148954961622"><ele>164.0</ele><time>2026-03-27T09:45:31.999Z</time></trkpt><trkpt lat="39.39073280571455" lon="16.241328118717693"><ele>165.0</ele><time>2026-03-27T09:45:32.999Z</time></trkpt><trkpt lat="39.39047890668371" lon="16.241156034728263"><ele>166.0</ele><time>2026-03-27T09:45:33.999Z</time></trkpt><trkpt lat="39.39022836281586" lon="16.24097593486518"><ele>166.0</ele><time>2026-03-27T09:45:34.999Z</time></trkpt><trkpt lat="39.38997956706211" lon="16.240785712106415"><ele>166.0</ele><time>2026-03-27T09:45:35.999Z</time></trkpt><trkpt lat="39.389732971784255" lon="16.24058611321094"><ele>165.5</ele><time>2026-03-27T09:45:36.999Z</time></trkpt><trkpt lat="39.38948804522572" lon="16.240378346915882"><ele>165.0</ele><time>2026-03-27T09:45:37.999Z</time></trkpt><trkpt lat="39.38924329755039" lon="16.24016184860931"><ele>165.0</ele><time>2026-03-27T09:45:38.999Z</time></trkpt><trkpt lat="39.38899838203107" lon="16.2399395624537"><ele>165.0</ele><time>2026-03-27T09:45:39.999Z</time></trkpt><trkpt lat="39.38875427431882" lon="16.239716353006838"><ele>164.0</ele><time>2026-03-27T09:45:40.999Z</time></trkpt><trkpt lat="39.388512344259546" lon="16.239488242332342"><ele>163.0</ele><time>2026-03-27T09:45:41.999Z</time></trkpt><trkpt lat="39.388271176394774" lon="16.23925748352606"><ele>163.0</ele><time>2026-03-27T09:45:42.999Z</time></trkpt><trkpt lat="39.38803315423565" lon="16.23902390550156"><ele>163.0</ele><time>2026-03-27T09:45:43.999Z</time></trkpt><trkpt lat="39.38779942807526" lon="16.238788671713444"><ele>161.5</ele><time>2026-03-27T09:45:44.999Z</time></trkpt><trkpt lat="39.387567811227626" lon="16.238553237827652"><ele>160.0</ele><time>2026-03-27T09:45:45.999Z</time></trkpt><trkpt lat="39.3873311677053" lon="16.238337479622704"><ele>162.5</ele><time>2026-03-27T09:45:46.999Z</time></trkpt><trkpt lat="39.387089522879094" lon="16.23812807609164"><ele>165.0</ele><time>2026-03-27T09:45:47.999Z</time></trkpt><trkpt lat="39.38684445597612" lon="16.237930734473814"><ele>165.0</ele><time>2026-03-27T09:45:48.999Z</time></trkpt><trkpt lat="39.38659581282002" lon="16.23774133630817"><ele>165.0</ele><time>2026-03-27T09:45:49.999Z</time></trkpt><trkpt lat="39.38634353516068" lon="16.237563387013726"><ele>166.0</ele><time>2026-03-27T09:45:50.999Z</time></trkpt><trkpt lat="39.386085149414455" lon="16.237394558677"><ele>167.0</ele><time>2026-03-27T09:45:51.999Z</time></trkpt><trkpt lat="39.38581982263387" lon="16.237236485417142"><ele>167.0</ele><time>2026-03-27T09:45:52.999Z</time></trkpt><trkpt lat="39.38554698828302" lon="16.237089207129873"><ele>167.0</ele><time>2026-03-27T09:45:53.999Z</time></trkpt><trkpt lat="39.38526643234938" lon="16.23695504117651"><ele>163.0</ele><time>2026-03-27T09:45:54.999Z</time></trkpt><trkpt lat="39.38497778377934" lon="16.236832803032442"><ele>159.0</ele><time>2026-03-27T09:45:55.999Z</time></trkpt><trkpt lat="39.384682662193505" lon="16.23672076391984"><ele>159.0</ele><time>2026-03-27T09:45:56.999Z</time></trkpt><trkpt lat="39.38438317403445" lon="16.236620523855976"><ele>159.0</ele><time>2026-03-27T09:45:57.999Z</time></trkpt><trkpt lat="39.384080538925716" lon="16.23652959611527"><ele>159.5</ele><time>2026-03-27T09:45:58.999Z</time></trkpt><trkpt lat="39.38377524481903" lon="16.236455741352156"><ele>160.0</ele><time>2026-03-27T09:45:59.999Z</time></trkpt><trkpt lat="39.383467313396594" lon="16.236394402781013"><ele>160.0</ele><time>2026-03-27T09:46:00.999Z</time></trkpt><trkpt lat="39.383158935098116" lon="16.236348399238388"><ele>160.0</ele><time>2026-03-27T09:46:01.999Z</time></trkpt><trkpt lat="39.38284972950918" lon="16.236318742136373"><ele>159.5</ele><time>2026-03-27T09:46:02.999Z</time></trkpt><trkpt lat="39.38254209755992" lon="16.236298172726535"><ele>159.0</ele><time>2026-03-27T09:46:03.999Z</time></trkpt><trkpt lat="39.38224015888852" lon="16.23628683782112"><ele>160.0</ele><time>2026-03-27T09:46:04.999Z</time></trkpt><trkpt lat="39.38194081249782" lon="16.23628324241986"><ele>161.0</ele><time>2026-03-27T09:46:05.999Z</time></trkpt><trkpt lat="39.38164527654667" lon="16.23628327532988"><ele>161.0</ele><time>2026-03-27T09:46:06.999Z</time></trkpt><trkpt lat="39.38135192400433" lon="16.23628470530663"><ele>161.0</ele><time>2026-03-27T09:46:07.999Z</time></trkpt><trkpt lat="39.38106026300176" lon="16.236287666579475"><ele>161.0</ele><time>2026-03-27T09:46:09Z</time></trkpt><trkpt lat="39.3807701263707" lon="16.236290568305307"><ele>161.0</ele><time>2026-03-27T09:46:10Z</time></trkpt><trkpt lat="39.38048122811669" lon="16.23629110653241"><ele>161.5</ele><time>2026-03-27T09:46:11Z</time></trkpt><trkpt lat="39.380193627153226" lon="16.23629165014039"><ele>162.0</ele><time>2026-03-27T09:46:12Z</time></trkpt><trkpt lat="39.37990585561577" lon="16.23629324193535"><ele>163.0</ele><time>2026-03-27T09:46:13Z</time></trkpt><trkpt lat="39.37961991935166" lon="16.236298483898345"><ele>164.0</ele><time>2026-03-27T09:46:14Z</time></trkpt><trkpt lat="39.37933318902265" lon="16.23630457073616"><ele>164.0</ele><time>2026-03-27T09:46:15Z</time></trkpt><trkpt lat="39.37904543675565" lon="16.23631006911188"><ele>164.0</ele><time>2026-03-27T09:46:16Z</time></trkpt><trkpt lat="39.3787567565901" lon="16.236315987113155"><ele>166.5</ele><time>2026-03-27T09:46:17Z</time></trkpt><trkpt lat="39.37846691717214" lon="16.236319845360484"><ele>169.0</ele><time>2026-03-27T09:46:18Z</time></trkpt><trkpt lat="39.37817705051882" lon="16.23632315415528"><ele>171.0</ele><time>2026-03-27T09:46:19Z</time></trkpt><trkpt lat="39.37788671529605" lon="16.236327499164904"><ele>173.0</ele><time>2026-03-27T09:46:20Z</time></trkpt><trkpt lat="39.37759606789954" lon="16.236333546776898"><ele>173.0</ele><time>2026-03-27T09:46:21Z</time></trkpt><trkpt lat="39.377304002148875" lon="16.236336709567073"><ele>173.0</ele><time>2026-03-27T09:46:22Z</time></trkpt><trkpt lat="39.37701015876116" lon="16.236335474384507"><ele>173.5</ele><time>2026-03-27T09:46:23Z</time></trkpt><trkpt lat="39.3767145892169" lon="16.236334684539216"><ele>174.0</ele><time>2026-03-27T09:46:24Z</time></trkpt><trkpt lat="39.376417683159914" lon="16.236336117123862"><ele>173.0</ele><time>2026-03-27T09:46:25Z</time></trkpt><trkpt lat="39.37611928715882" lon="16.23633680489957"><ele>172.0</ele><time>2026-03-27T09:46:26Z</time></trkpt><trkpt lat="39.375817964615926" lon="16.236335249484817"><ele>171.0</ele><time>2026-03-27T09:46:27Z</time></trkpt><trkpt lat="39.37551387793485" lon="16.23633762378503"><ele>170.0</ele><time>2026-03-27T09:46:28Z</time></trkpt><trkpt lat="39.37520676071543" lon="16.23634358093698"><ele>170.0</ele><time>2026-03-27T09:46:29Z</time></trkpt><trkpt lat="39.37489791211166" lon="16.236348497258938"><ele>170.0</ele><time>2026-03-27T09:46:30Z</time></trkpt><trkpt lat="39.37458993051931" lon="16.23635382773218"><ele>171.0</ele><time>2026-03-27T09:46:31Z</time></trkpt><trkpt lat="39.37428086362997" lon="16.23635911979282"><ele>172.0</ele><time>2026-03-27T09:46:32Z</time></trkpt><trkpt lat="39.37397166022647" lon="16.23636512440593"><ele>175.5</ele><time>2026-03-27T09:46:33Z</time></trkpt><trkpt lat="39.37366186620185" lon="16.236371597803668"><ele>179.0</ele><time>2026-03-27T09:46:34Z</time></trkpt><trkpt lat="39.373351494384025" lon="16.236376184356686"><ele>179.0</ele><time>2026-03-27T09:46:35Z</time></trkpt><trkpt lat="39.37304272032685" lon="16.23638147179213"><ele>179.0</ele><time>2026-03-27T09:46:36Z</time></trkpt><trkpt lat="39.37273338826943" lon="16.236388114984152"><ele>179.0</ele><time>2026-03-27T09:46:37Z</time></trkpt><trkpt lat="39.3724353064599" lon="16.23639613943547"><ele>179.0</ele><time>2026-03-27T09:46:38Z</time></trkpt><trkpt lat="39.37215405864582" lon="16.236403402938596"><ele>179.0</ele><time>2026-03-27T09:46:39Z</time></trkpt><trkpt lat="39.37188731566811" lon="16.23641416257799"><ele>179.0</ele><time>2026-03-27T09:46:40Z</time></trkpt><trkpt lat="39.37163671469241" lon="16.236420241860813"><ele>179.0</ele><time>2026-03-27T09:46:41Z</time></trkpt><trkpt lat="39.3713947897947" lon="16.236425550863654"><ele>179.0</ele><time>2026-03-27T09:46:42Z</time></trkpt><trkpt lat="39.37116034212514" lon="16.236429419665043"><ele>176.5</ele><time>2026-03-27T09:46:43Z</time></trkpt><trkpt lat="39.370924137537045" lon="16.236429549777732"><ele>174.0</ele><time>2026-03-27T09:46:44Z</time></trkpt><trkpt lat="39.3706829893338" lon="16.23643165891929"><ele>174.0</ele><time>2026-03-27T09:46:45Z</time></trkpt><trkpt lat="39.37043815968761" lon="16.236429972875314"><ele>174.0</ele><time>2026-03-27T09:46:46Z</time></trkpt><trkpt lat="39.370189909234384" lon="16.23642924324387"><ele>174.0</ele><time>2026-03-27T09:46:47Z</time></trkpt><trkpt lat="39.36993714563773" lon="16.23643108066036"><ele>174.0</ele><time>2026-03-27T09:46:48Z</time></trkpt><trkpt lat="39.36968132503337" lon="16.23643169606983"><ele>174.5</ele><time>2026-03-27T09:46:49Z</time></trkpt><trkpt lat="39.36942306322248" lon="16.236432578615755"><ele>175.0</ele><time>2026-03-27T09:46:50Z</time></trkpt><trkpt lat="39.369162247271625" lon="16.236433414484623"><ele>175.0</ele><time>2026-03-27T09:46:51Z</time></trkpt><trkpt lat="39.36890137047072" lon="16.236433130958773"><ele>175.0</ele><time>2026-03-27T09:46:52Z</time></trkpt><trkpt lat="39.368644549808735" lon="16.236427717380245"><ele>177.5</ele><time>2026-03-27T09:46:53Z</time></trkpt><trkpt lat="39.36839556867531" lon="16.236417671917323"><ele>180.0</ele><time>2026-03-27T09:46:54Z</time></trkpt><trkpt lat="39.368151060424" lon="16.236401890934978"><ele>182.0</ele><time>2026-03-27T09:46:55Z</time></trkpt><trkpt lat="39.367907992247126" lon="16.236377361384356"><ele>184.0</ele><time>2026-03-27T09:46:56Z</time></trkpt><trkpt lat="39.36766681364823" lon="16.236340938390665"><ele>184.0</ele><time>2026-03-27T09:46:57Z</time></trkpt><trkpt lat="39.367426911635214" lon="16.236296785063367"><ele>184.0</ele><time>2026-03-27T09:46:58Z</time></trkpt><trkpt lat="39.36718566336026" lon="16.236245466354102"><ele>182.5</ele><time>2026-03-27T09:46:59Z</time></trkpt><trkpt lat="39.36694132735621" lon="16.236180421749598"><ele>181.0</ele><time>2026-03-27T09:47:00Z</time></trkpt><trkpt lat="39.36669531735566" lon="16.236103942435772"><ele>181.0</ele><time>2026-03-27T09:47:01Z</time></trkpt><trkpt lat="39.36644794675139" lon="16.236019943694536"><ele>181.0</ele><time>2026-03-27T09:47:02Z</time></trkpt><trkpt lat="39.36619719434545" lon="16.23592974665642"><ele>181.0</ele><time>2026-03-27T09:47:03Z</time></trkpt><trkpt lat="39.36594582765181" lon="16.23583383295443"><ele>181.0</ele><time>2026-03-27T09:47:04Z</time></trkpt><trkpt lat="39.36569275532149" lon="16.2357326510442"><ele>183.5</ele><time>2026-03-27T09:47:05Z</time></trkpt><trkpt lat="39.36543488738926" lon="16.235626190897815"><ele>186.0</ele><time>2026-03-27T09:47:06Z</time></trkpt><trkpt lat="39.36517328566194" lon="16.235515805711195"><ele>186.0</ele><time>2026-03-27T09:47:07Z</time></trkpt><trkpt lat="39.36490771466939" lon="16.235405595414065"><ele>186.0</ele><time>2026-03-27T09:47:08Z</time></trkpt><trkpt lat="39.36464138064886" lon="16.23529335543121"><ele>183.0</ele><time>2026-03-27T09:47:09Z</time></trkpt><trkpt lat="39.36437378551608" lon="16.235173292775205"><ele>180.0</ele><time>2026-03-27T09:47:10Z</time></trkpt><trkpt lat="39.36410438657038" lon="16.235048476220175"><ele>178.5</ele><time>2026-03-27T09:47:11Z</time></trkpt><trkpt lat="39.36383227121097" lon="16.234924790557304"><ele>177.0</ele><time>2026-03-27T09:47:12Z</time></trkpt><trkpt lat="39.36355744786921" lon="16.23480477774104"><ele>179.0</ele><time>2026-03-27T09:47:13Z</time></trkpt><trkpt lat="39.363280509554315" lon="16.23468901896987"><ele>181.0</ele><time>2026-03-27T09:47:14Z</time></trkpt><trkpt lat="39.36300378668063" lon="16.234575717414547"><ele>182.5</ele><time>2026-03-27T09:47:15Z</time></trkpt><trkpt lat="39.362728428018755" lon="16.234461705683422"><ele>184.0</ele><time>2026-03-27T09:47:16Z</time></trkpt><trkpt lat="39.362453086923544" lon="16.23434839890809"><ele>183.5</ele><time>2026-03-27T09:47:17Z</time></trkpt><trkpt lat="39.362178271197266" lon="16.234237068353"><ele>183.0</ele><time>2026-03-27T09:47:18Z</time></trkpt><trkpt lat="39.361901964384614" lon="16.23413416320666"><ele>183.0</ele><time>2026-03-27T09:47:19Z</time></trkpt><trkpt lat="39.36162645501794" lon="16.234037302533327"><ele>183.0</ele><time>2026-03-27T09:47:20Z</time></trkpt><trkpt lat="39.361351074474946" lon="16.23394717754043"><ele>186.5</ele><time>2026-03-27T09:47:21Z</time></trkpt><trkpt lat="39.36107651270207" lon="16.23386337925093"><ele>190.0</ele><time>2026-03-27T09:47:22Z</time></trkpt><trkpt lat="39.36081183513751" lon="16.233788874358233"><ele>190.0</ele><time>2026-03-27T09:47:23Z</time></trkpt><trkpt lat="39.360559575815486" lon="16.23372625117808"><ele>190.0</ele><time>2026-03-27T09:47:23.999Z</time></trkpt><trkpt lat="39.36030946602532" lon="16.233668941494493"><ele>188.5</ele><time>2026-03-27T09:47:24.999Z</time></trkpt><trkpt lat="39.36006452254612" lon="16.233616717126527"><ele>187.0</ele><time>2026-03-27T09:47:25.999Z</time></trkpt><trkpt lat="39.35982299211645" lon="16.233574616059425"><ele>187.0</ele><time>2026-03-27T09:47:26.999Z</time></trkpt><trkpt lat="39.359582888081" lon="16.233544268738417"><ele>187.0</ele><time>2026-03-27T09:47:27.999Z</time></trkpt><trkpt lat="39.3593455032493" lon="16.233520374239028"><ele>187.0</ele><time>2026-03-27T09:47:28.999Z</time></trkpt><trkpt lat="39.35910830787931" lon="16.233502003995266"><ele>187.0</ele><time>2026-03-27T09:47:29.999Z</time></trkpt><trkpt lat="39.358873988033004" lon="16.23348367086391"><ele>190.5</ele><time>2026-03-27T09:47:30.999Z</time></trkpt><trkpt lat="39.358641789565226" lon="16.23347212388347"><ele>194.0</ele><time>2026-03-27T09:47:31.999Z</time></trkpt><trkpt lat="39.35841264677097" lon="16.233463832343407"><ele>194.0</ele><time>2026-03-27T09:47:32.999Z</time></trkpt><trkpt lat="39.35818670939385" lon="16.233459009700415"><ele>194.0</ele><time>2026-03-27T09:47:33.999Z</time></trkpt><trkpt lat="39.35796426944961" lon="16.233457426270224"><ele>194.0</ele><time>2026-03-27T09:47:34.999Z</time></trkpt><trkpt lat="39.35774370172629" lon="16.23345758337668"><ele>195.0</ele><time>2026-03-27T09:47:35.999Z</time></trkpt><trkpt lat="39.35752627590094" lon="16.233457884522867"><ele>196.0</ele><time>2026-03-27T09:47:36.999Z</time></trkpt><trkpt lat="39.35731761750839" lon="16.233461082808226"><ele>197.0</ele><time>2026-03-27T09:47:37.999Z</time></trkpt><trkpt lat="39.357112668462136" lon="16.23346418177728"><ele>198.66666666666669</ele><time>2026-03-27T09:47:38.999Z</time></trkpt><trkpt lat="39.35690813884207" lon="16.233472556391693"><ele>200.33333333333331</ele><time>2026-03-27T09:47:39.999Z</time></trkpt><trkpt lat="39.3567035355322" lon="16.233476896319527"><ele>202.0</ele><time>2026-03-27T09:47:40.999Z</time></trkpt><trkpt lat="39.356498498373796" lon="16.233480124532402"><ele>201.66666666666666</ele><time>2026-03-27T09:47:41.999Z</time></trkpt><trkpt lat="39.35629396983119" lon="16.23348436086168"><ele>201.33333333333331</ele><time>2026-03-27T09:47:42.999Z</time></trkpt><trkpt lat="39.356089653101584" lon="16.233489231032245"><ele>201.0</ele><time>2026-03-27T09:47:43.999Z</time></trkpt><trkpt lat="39.35588283851724" lon="16.233496598436844"><ele>201.0</ele><time>2026-03-27T09:47:44.999Z</time></trkpt><trkpt lat="39.35567408972105" lon="16.233499306001075"><ele>201.0</ele><time>2026-03-27T09:47:45.999Z</time></trkpt><trkpt lat="39.35546476192947" lon="16.233503299363175"><ele>201.0</ele><time>2026-03-27T09:47:46.999Z</time></trkpt><trkpt lat="39.35525565805219" lon="16.233509811797802"><ele>199.33333333333331</ele><time>2026-03-27T09:47:47.999Z</time></trkpt><trkpt lat="39.35504495010721" lon="16.233512184470158"><ele>197.66666666666666</ele><time>2026-03-27T09:47:48.999Z</time></trkpt><trkpt lat="39.35483573659907" lon="16.23351996747513"><ele>196.0</ele><time>2026-03-27T09:47:49.999Z</time></trkpt><trkpt lat="39.3546333540774" lon="16.233524238012663"><ele>196.0</ele><time>2026-03-27T09:47:50.999Z</time></trkpt><trkpt lat="39.35444060287419" lon="16.233525978788265"><ele>196.0</ele><time>2026-03-27T09:47:51.999Z</time></trkpt><trkpt lat="39.3542547937095" lon="16.233530527772402"><ele>196.0</ele><time>2026-03-27T09:47:52.999Z</time></trkpt><trkpt lat="39.35406417914346" lon="16.233538002576502"><ele>196.0</ele><time>2026-03-27T09:47:53.999Z</time></trkpt><trkpt lat="39.35386730250089" lon="16.233542810186897"><ele>196.0</ele><time>2026-03-27T09:47:54.999Z</time></trkpt><trkpt lat="39.353673910704025" lon="16.233551729292007"><ele>196.0</ele><time>2026-03-27T09:47:55.999Z</time></trkpt><trkpt lat="39.353490501122664" lon="16.233564632381842"><ele>196.0</ele><time>2026-03-27T09:47:56.999Z</time></trkpt><trkpt lat="39.353316358730204" lon="16.2335791840702"><ele>196.0</ele><time>2026-03-27T09:47:57.999Z</time></trkpt><trkpt lat="39.353151860143456" lon="16.233596220726202"><ele>196.0</ele><time>2026-03-27T09:47:58.999Z</time></trkpt><trkpt lat="39.352995626952264" lon="16.23361445486971"><ele>196.0</ele><time>2026-03-27T09:47:59.999Z</time></trkpt><trkpt lat="39.35284606951136" lon="16.233633942353755"><ele>196.0</ele><time>2026-03-27T09:48:00.999Z</time></trkpt><trkpt lat="39.35270325166959" lon="16.233654724221505"><ele>196.0</ele><time>2026-03-27T09:48:01.999Z</time></trkpt><trkpt lat="39.35256848275935" lon="16.233675405310848"><ele>196.0</ele><time>2026-03-27T09:48:02.999Z</time></trkpt><trkpt lat="39.35244185111923" lon="16.23368492324274"><ele>196.0</ele><time>2026-03-27T09:48:03.999Z</time></trkpt><trkpt lat="39.35232294697629" lon="16.233667501417113"><ele>196.0</ele><time>2026-03-27T09:48:04.999Z</time></trkpt><trkpt lat="39.352214766326995" lon="16.233621026659286"><ele>196.0</ele><time>2026-03-27T09:48:05.999Z</time></trkpt><trkpt lat="39.3521151782959" lon="16.23354779699138"><ele>196.0</ele><time>2026-03-27T09:48:06.999Z</time></trkpt><trkpt lat="39.35203199743212" lon="16.233456070330174"><ele>196.0</ele><time>2026-03-27T09:48:07.999Z</time></trkpt><trkpt lat="39.35196418468965" lon="16.23335225948665"><ele>196.0</ele><time>2026-03-27T09:48:08.999Z</time></trkpt><trkpt lat="39.351906585101666" lon="16.233237874605205"><ele>196.0</ele><time>2026-03-27T09:48:09.999Z</time></trkpt><trkpt lat="39.351852417111886" lon="16.233104392261698"><ele>196.0</ele><time>2026-03-27T09:48:10.999Z</time></trkpt><trkpt lat="39.35179551052868" lon="16.23297217259144"><ele>196.0</ele><time>2026-03-27T09:48:11.999Z</time></trkpt><trkpt lat="39.35173673297274" lon="16.232848579769467"><ele>195.8</ele><time>2026-03-27T09:48:12.999Z</time></trkpt><trkpt lat="39.351670338550754" lon="16.232740141458322"><ele>195.60000000000002</ele><time>2026-03-27T09:48:13.999Z</time></trkpt><trkpt lat="39.35159181225475" lon="16.232642256666995"><ele>195.4</ele><time>2026-03-27T09:48:15Z</time></trkpt><trkpt lat="39.35151529489171" lon="16.23253587619303"><ele>195.2</ele><time>2026-03-27T09:48:16Z</time></trkpt><trkpt lat="39.351450700585744" lon="16.232435397284643"><ele>195.0</ele><time>2026-03-27T09:48:17Z</time></trkpt><trkpt lat="39.351279867075036" lon="16.232461703127207"><ele>195.5</ele><time>2026-03-27T09:48:18Z</time></trkpt><trkpt lat="39.351158549093604" lon="16.23245836610314"><ele>196.0</ele><time>2026-03-27T09:48:19Z</time></trkpt><trkpt lat="39.35103681526891" lon="16.232487906310684"><ele>196.5</ele><time>2026-03-27T09:48:20Z</time></trkpt><trkpt lat="39.3509198068178" lon="16.232547925649314"><ele>197.0</ele><time>2026-03-27T09:48:21Z</time></trkpt><trkpt lat="39.35082179279755" lon="16.232643042529112"><ele>197.0</ele><time>2026-03-27T09:48:22Z</time></trkpt><trkpt lat="39.35074430608116" lon="16.232756322124754"><ele>197.0</ele><time>2026-03-27T09:48:23Z</time></trkpt><trkpt lat="39.35068289872601" lon="16.23288976041026"><ele>197.0</ele><time>2026-03-27T09:48:24Z</time></trkpt><trkpt lat="39.35064187317971" lon="16.233041996175796"><ele>197.0</ele><time>2026-03-27T09:48:25Z</time></trkpt><trkpt lat="39.350627220207954" lon="16.2331988764336"><ele>196.0</ele><time>2026-03-27T09:48:26Z</time></trkpt><trkpt lat="39.350639370316" lon="16.233354425571385"><ele>195.0</ele><time>2026-03-27T09:48:27Z</time></trkpt><trkpt lat="39.35067631964297" lon="16.23350986530136"><ele>194.0</ele><time>2026-03-27T09:48:28Z</time></trkpt><trkpt lat="39.3507333823134" lon="16.233665870236276"><ele>193.0</ele><time>2026-03-27T09:48:29Z</time></trkpt><trkpt lat="39.350807202563345" lon="16.233822732696417"><ele>193.75</ele><time>2026-03-27T09:48:30Z</time></trkpt><trkpt lat="39.35088750946411" lon="16.233983862212977"><ele>194.5</ele><time>2026-03-27T09:48:31Z</time></trkpt><trkpt lat="39.35096103587295" lon="16.23414230122997"><ele>195.25</ele><time>2026-03-27T09:48:32Z</time></trkpt><trkpt lat="39.351035923616685" lon="16.234299375974064"><ele>196.0</ele><time>2026-03-27T09:48:33Z</time></trkpt><trkpt lat="39.35112050778556" lon="16.23445743793846"><ele>196.0</ele><time>2026-03-27T09:48:34Z</time></trkpt><trkpt lat="39.35120324027094" lon="16.234603652545058"><ele>196.0</ele><time>2026-03-27T09:48:35Z</time></trkpt><trkpt lat="39.35128621708574" lon="16.23472522934211"><ele>196.0</ele><time>2026-03-27T09:48:36Z</time></trkpt><trkpt lat="39.35136380187954" lon="16.23483157035805"><ele>196.0</ele><time>2026-03-27T09:48:37Z</time></trkpt><trkpt lat="39.35143177227828" lon="16.23492369099676"><ele>195.16666666666666</ele><time>2026-03-27T09:48:38Z</time></trkpt><trkpt lat="39.351494102638064" lon="16.235008654692294"><ele>194.33333333333331</ele><time>2026-03-27T09:48:39Z</time></trkpt><trkpt lat="39.35155259478971" lon="16.23508781795439"><ele>193.5</ele><time>2026-03-27T09:48:40Z</time></trkpt><trkpt lat="39.35160196902114" lon="16.235153878678723"><ele>192.66666666666666</ele><time>2026-03-27T09:48:41Z</time></trkpt><trkpt lat="39.351666229533194" lon="16.23524092810299"><ele>191.83333333333331</ele><time>2026-03-27T09:48:43Z</time></trkpt><trkpt lat="39.35172187641378" lon="16.235308410642716"><ele>191.0</ele><time>2026-03-27T09:48:45Z</time></trkpt><trkpt lat="39.351780672062795" lon="16.235384166842294"><ele>191.0</ele><time>2026-03-27T09:48:49Z</time></trkpt><trkpt lat="39.3518356657497" lon="16.23544635881226"><ele>191.0</ele><time>2026-03-27T09:48:52Z</time></trkpt><trkpt lat="39.351890863312654" lon="16.23550921085877"><ele>191.0</ele><time>2026-03-27T09:48:55Z</time></trkpt><trkpt lat="39.351949290489316" lon="16.235575980692058"><ele>191.0</ele><time>2026-03-27T09:48:59Z</time></trkpt><trkpt lat="39.35200491400797" lon="16.235623281854807"><ele>191.0</ele><time>2026-03-27T09:49:03Z</time></trkpt><trkpt lat="39.352069985906965" lon="16.23566944542644"><ele>191.0</ele><time>2026-03-27T09:49:15Z</time></trkpt><trkpt lat="39.35214564842632" lon="16.235710908754164"><ele>191.0</ele><time>2026-03-27T09:49:17Z</time></trkpt><trkpt lat="39.352252382780485" lon="16.23573074201534"><ele>190.66666666666666</ele><time>2026-03-27T09:49:19Z</time></trkpt><trkpt lat="39.3523220075095" lon="16.23574079017102"><ele>190.33333333333331</ele><time>2026-03-27T09:49:21Z</time></trkpt><trkpt lat="39.35239701433312" lon="16.235738591056162"><ele>190.0</ele><time>2026-03-27T09:49:24Z</time></trkpt><trkpt lat="39.35248783370689" lon="16.23571258384215"><ele>189.66666666666666</ele><time>2026-03-27T09:49:27Z</time></trkpt><trkpt lat="39.352553811838135" lon="16.23568815563192"><ele>189.33333333333334</ele><time>2026-03-27T09:49:29Z</time></trkpt><trkpt lat="39.35262642072193" lon="16.235662012704225"><ele>189.0</ele><time>2026-03-27T09:49:31Z</time></trkpt><trkpt lat="39.352717556905944" lon="16.23566511539405"><ele>189.0</ele><time>2026-03-27T09:49:33Z</time></trkpt><trkpt lat="39.352816303530226" lon="16.23570827838185"><ele>189.0</ele><time>2026-03-27T09:49:35Z</time></trkpt><trkpt lat="39.35288813595383" lon="16.23573596803225"><ele>189.0</ele><time>2026-03-27T09:49:36Z</time></trkpt><trkpt lat="39.35296543984092" lon="16.2357629690754"><ele>189.0</ele><time>2026-03-27T09:49:37Z</time></trkpt><trkpt lat="39.35304027015678" lon="16.235756587472842"><ele>189.0</ele><time>2026-03-27T09:49:38Z</time></trkpt><trkpt lat="39.35314834343152" lon="16.235842587103125"><ele>188.79999999999998</ele><time>2026-03-27T09:49:39.999Z</time></trkpt><trkpt lat="39.35321868979054" lon="16.235943524852892"><ele>188.6</ele><time>2026-03-27T09:49:41.999Z</time></trkpt><trkpt lat="39.35326667596533" lon="16.236083065815166"><ele>188.4</ele><time>2026-03-27T09:49:43.999Z</time></trkpt><trkpt lat="39.3532840879542" lon="16.23620103156084"><ele>188.2</ele><time>2026-03-27T09:49:45.999Z</time></trkpt><trkpt lat="39.353295162484464" lon="16.236297924757963"><ele>188.0</ele><time>2026-03-27T09:49:47.999Z</time></trkpt><trkpt lat="39.35330996768176" lon="16.236387765065725"><ele>188.0</ele><time>2026-03-27T09:49:49.999Z</time></trkpt><trkpt lat="39.3533285522788" lon="16.236480015441966"><ele>188.0</ele><time>2026-03-27T09:49:51.999Z</time></trkpt><trkpt lat="39.35333305812626" lon="16.236576850987063"><ele>188.0</ele><time>2026-03-27T09:49:54.999Z</time></trkpt><trkpt lat="39.35330035900739" lon="16.236662106250343"><ele>188.0</ele><time>2026-03-27T09:50:00.999Z</time></trkpt><trkpt lat="39.35332122181352" lon="16.23674654908557"><ele>188.0</ele><time>2026-03-27T09:50:11.999Z</time></trkpt><trkpt lat="39.35339414327141" lon="16.236717250084308"><ele>188.0</ele><time>2026-03-27T09:50:33Z</time></trkpt><trkpt lat="39.353344875763106" lon="16.23661277821373"><ele>188.0</ele><time>2026-03-27T09:50:35Z</time></trkpt><trkpt lat="39.353328981731075" lon="16.236498903039195"><ele>188.0</ele><time>2026-03-27T09:50:37Z</time></trkpt><trkpt lat="39.35331380472761" lon="16.236390165169915"><ele>188.0</ele><time>2026-03-27T09:50:39Z</time></trkpt><trkpt lat="39.35330167393502" lon="16.23630325200885"><ele>188.0</ele><time>2026-03-27T09:50:41Z</time></trkpt><trkpt lat="39.3532861473584" lon="16.236192009121417"><ele>188.0</ele><time>2026-03-27T09:50:44Z</time></trkpt><trkpt lat="39.35329916414589" lon="16.236285269865263"><ele>188.0</ele><time>2026-03-27T09:54:45Z</time></trkpt><trkpt lat="39.353310371901706" lon="16.23636556960987"><ele>188.0</ele><time>2026-03-27T09:55:05Z</time></trkpt><trkpt lat="39.353487070342176" lon="16.236271659288658"><ele>188.0</ele><time>2026-03-27T09:59:41Z</time></trkpt><trkpt lat="39.353440696722586" lon="16.236203806591945"><ele>188.0</ele><time>2026-03-27T10:27:44.999Z</time></trkpt><trkpt lat="39.35338692775243" lon="16.236114320585752"><ele>188.0</ele><time>2026-03-27T10:34:25Z</time></trkpt><trkpt lat="39.353316222436405" lon="16.23609169422825"><ele>188.0</ele><time>2026-03-27T10:35:04Z</time></trkpt><trkpt lat="39.3532880638392" lon="16.236016304557815"><ele>188.0</ele><time>2026-03-27T10:35:06Z</time></trkpt><trkpt lat="39.353275861948525" lon="16.235874191220553"><ele>188.0</ele><time>2026-03-27T10:35:08Z</time></trkpt><trkpt lat="39.35326422341654" lon="16.23574329431347"><ele>188.0</ele><time>2026-03-27T10:35:10Z</time></trkpt><trkpt lat="39.35324286580455" lon="16.235628599735087"><ele>188.0</ele><time>2026-03-27T10:35:12Z</time></trkpt><trkpt lat="39.35321885519307" lon="16.2354988783101"><ele>188.0</ele><time>2026-03-27T10:35:14Z</time></trkpt><trkpt lat="39.35320975055194" lon="16.23535936081007"><ele>188.2</ele><time>2026-03-27T10:35:16Z</time></trkpt><trkpt lat="39.35323984972751" lon="16.235251901659723"><ele>188.4</ele><time>2026-03-27T10:35:18Z</time></trkpt><trkpt lat="39.35319666365" lon="16.23513408285446"><ele>188.6</ele><time>2026-03-27T10:35:20Z</time></trkpt><trkpt lat="39.35313926682395" lon="16.235009406285922"><ele>188.79999999999998</ele><time>2026-03-27T10:35:22Z</time></trkpt><trkpt lat="39.3530720191858" lon="16.234887747877114"><ele>189.0</ele><time>2026-03-27T10:35:24Z</time></trkpt><trkpt lat="39.35297206214803" lon="16.234923663442906"><ele>189.0</ele><time>2026-03-27T10:35:25Z</time></trkpt><trkpt lat="39.35290761565326" lon="16.23494021164019"><ele>189.0</ele><time>2026-03-27T10:35:26Z</time></trkpt><trkpt lat="39.35284643522001" lon="16.23498344661"><ele>189.0</ele><time>2026-03-27T10:35:27Z</time></trkpt><trkpt lat="39.35279469478828" lon="16.235049233844865"><ele>189.0</ele><time>2026-03-27T10:35:28Z</time></trkpt><trkpt lat="39.35274950887736" lon="16.235123423140372"><ele>189.0</ele><time>2026-03-27T10:35:29Z</time></trkpt><trkpt lat="39.352720794495745" lon="16.23521525633249"><ele>189.0</ele><time>2026-03-27T10:35:30Z</time></trkpt><trkpt lat="39.35269948769818" lon="16.235312890551477"><ele>189.0</ele><time>2026-03-27T10:35:31Z</time></trkpt><trkpt lat="39.35267420376774" lon="16.235411279212286"><ele>189.0</ele><time>2026-03-27T10:35:32Z</time></trkpt><trkpt lat="39.35263075303947" lon="16.23549941707163"><ele>189.0</ele><time>2026-03-27T10:35:33Z</time></trkpt><trkpt lat="39.35256921739694" lon="16.23557582570185"><ele>189.0</ele><time>2026-03-27T10:35:34Z</time></trkpt><trkpt lat="39.35251217319402" lon="16.23566265423005"><ele>189.0</ele><time>2026-03-27T10:35:35Z</time></trkpt><trkpt lat="39.352394274330976" lon="16.235664320707013"><ele>189.0</ele><time>2026-03-27T10:35:36Z</time></trkpt><trkpt lat="39.352290851306655" lon="16.235671653772304"><ele>189.25</ele><time>2026-03-27T10:35:37Z</time></trkpt><trkpt lat="39.352183198324525" lon="16.235655910017353"><ele>189.5</ele><time>2026-03-27T10:35:38Z</time></trkpt><trkpt lat="39.35207422119703" lon="16.235608656469715"><ele>189.75</ele><time>2026-03-27T10:35:39Z</time></trkpt><trkpt lat="39.35197163022005" lon="16.235535696510983"><ele>190.0</ele><time>2026-03-27T10:35:40Z</time></trkpt><trkpt lat="39.35187620648758" lon="16.23544150405143"><ele>190.25</ele><time>2026-03-27T10:35:41Z</time></trkpt><trkpt lat="39.351784833346635" lon="16.235332223798842"><ele>190.5</ele><time>2026-03-27T10:35:42Z</time></trkpt><trkpt lat="39.35169509095516" lon="16.235217825184307"><ele>190.75</ele><time>2026-03-27T10:35:43Z</time></trkpt><trkpt lat="39.351603798912016" lon="16.235098220947336"><ele>191.0</ele><time>2026-03-27T10:35:44Z</time></trkpt><trkpt lat="39.35151034712008" lon="16.234974405689936"><ele>191.0</ele><time>2026-03-27T10:35:45Z</time></trkpt><trkpt lat="39.35141604923348" lon="16.23484605494917"><ele>191.0</ele><time>2026-03-27T10:35:46Z</time></trkpt><trkpt lat="39.35131914375433" lon="16.234710966898852"><ele>191.0</ele><time>2026-03-27T10:35:47Z</time></trkpt><trkpt lat="39.35122039692882" lon="16.23457004086891"><ele>191.0</ele><time>2026-03-27T10:35:48Z</time></trkpt><trkpt lat="39.35112348955413" lon="16.234416485487948"><ele>191.66666666666666</ele><time>2026-03-27T10:35:49Z</time></trkpt><trkpt lat="39.35103563338821" lon="16.234245382294613"><ele>192.33333333333331</ele><time>2026-03-27T10:35:50Z</time></trkpt><trkpt lat="39.35095229512245" lon="16.234068290706233"><ele>193.0</ele><time>2026-03-27T10:35:51Z</time></trkpt><trkpt lat="39.350864464778844" lon="16.23388476912365"><ele>193.0</ele><time>2026-03-27T10:35:52Z</time></trkpt><trkpt lat="39.35078331693313" lon="16.233712187326287"><ele>193.0</ele><time>2026-03-27T10:35:53Z</time></trkpt><trkpt lat="39.35072420004183" lon="16.23355663588885"><ele>193.0</ele><time>2026-03-27T10:35:54Z</time></trkpt><trkpt lat="39.35067431017581" lon="16.233415226297943"><ele>193.0</ele><time>2026-03-27T10:35:55Z</time></trkpt><trkpt lat="39.35065178361598" lon="16.233268928076157"><ele>194.0</ele><time>2026-03-27T10:35:56Z</time></trkpt><trkpt lat="39.35065385350368" lon="16.23311838169238"><ele>195.0</ele><time>2026-03-27T10:35:57Z</time></trkpt><trkpt lat="39.350677533396436" lon="16.232966948138387"><ele>196.0</ele><time>2026-03-27T10:35:58Z</time></trkpt><trkpt lat="39.35072596167515" lon="16.232821522905976"><ele>197.0</ele><time>2026-03-27T10:35:59Z</time></trkpt><trkpt lat="39.35080047376851" lon="16.232695419124898"><ele>197.0</ele><time>2026-03-27T10:36:00Z</time></trkpt><trkpt lat="39.35089629086548" lon="16.23259370614849"><ele>197.0</ele><time>2026-03-27T10:36:01Z</time></trkpt><trkpt lat="39.35100798525148" lon="16.23252421766263"><ele>197.0</ele><time>2026-03-27T10:36:02Z</time></trkpt><trkpt lat="39.35112940702443" lon="16.23248541706652"><ele>197.0</ele><time>2026-03-27T10:36:03Z</time></trkpt><trkpt lat="39.35125490485029" lon="16.23248543793417"><ele>196.5</ele><time>2026-03-27T10:36:04Z</time></trkpt><trkpt lat="39.351378203958845" lon="16.232521737550623"><ele>196.0</ele><time>2026-03-27T10:36:05Z</time></trkpt><trkpt lat="39.351494598849804" lon="16.232591759977602"><ele>195.5</ele><time>2026-03-27T10:36:06Z</time></trkpt><trkpt lat="39.35159383056078" lon="16.232690937624426"><ele>195.0</ele><time>2026-03-27T10:36:07Z</time></trkpt><trkpt lat="39.35166584046092" lon="16.232805367347986"><ele>195.0</ele><time>2026-03-27T10:36:08Z</time></trkpt><trkpt lat="39.35171294900432" lon="16.232924774187406"><ele>195.0</ele><time>2026-03-27T10:36:09Z</time></trkpt><trkpt lat="39.35174072303202" lon="16.233050115612823"><ele>195.0</ele><time>2026-03-27T10:36:10Z</time></trkpt><trkpt lat="39.351751221891604" lon="16.233181447211717"><ele>195.0</ele><time>2026-03-27T10:36:11Z</time></trkpt><trkpt lat="39.35174275781894" lon="16.233316750624844"><ele>195.0</ele><time>2026-03-27T10:36:12Z</time></trkpt><trkpt lat="39.35171433346019" lon="16.23345378957458"><ele>195.25</ele><time>2026-03-27T10:36:13Z</time></trkpt><trkpt lat="39.35166146570135" lon="16.233586299202226"><ele>195.5</ele><time>2026-03-27T10:36:14Z</time></trkpt><trkpt lat="39.351584343283676" lon="16.23370722050747"><ele>195.75</ele><time>2026-03-27T10:36:15Z</time></trkpt><trkpt lat="39.35148533385056" lon="16.233810847765803"><ele>196.0</ele><time>2026-03-27T10:36:16Z</time></trkpt><trkpt lat="39.35136661771129" lon="16.23388970559882"><ele>196.0</ele><time>2026-03-27T10:36:17Z</time></trkpt><trkpt lat="39.351230885431065" lon="16.233937104316045"><ele>196.0</ele><time>2026-03-27T10:36:18Z</time></trkpt><trkpt lat="39.35108519715478" lon="16.233971593854225"><ele>196.0</ele><time>2026-03-27T10:36:19Z</time></trkpt><trkpt lat="39.3509309034671" lon="16.234007120386124"><ele>196.0</ele><time>2026-03-27T10:36:20Z</time></trkpt><trkpt lat="39.35077051125828" lon="16.234048836298037"><ele>196.0</ele><time>2026-03-27T10:36:21Z</time></trkpt><trkpt lat="39.35060536079834" lon="16.234095577605295"><ele>196.0</ele><time>2026-03-27T10:36:22Z</time></trkpt><trkpt lat="39.35043487846139" lon="16.234143445020226"><ele>196.0</ele><time>2026-03-27T10:36:23Z</time></trkpt><trkpt lat="39.350254233823385" lon="16.234194202684392"><ele>196.0</ele><time>2026-03-27T10:36:24Z</time></trkpt><trkpt lat="39.350068317605604" lon="16.234248204175348"><ele>196.0</ele><time>2026-03-27T10:36:25Z</time></trkpt><trkpt lat="39.34987702852108" lon="16.234302743044356"><ele>196.0</ele><time>2026-03-27T10:36:26Z</time></trkpt><trkpt lat="39.34967850428088" lon="16.23435560400993"><ele>196.33333333333331</ele><time>2026-03-27T10:36:27Z</time></trkpt><trkpt lat="39.34947531332966" lon="16.234407511530225"><ele>196.66666666666669</ele><time>2026-03-27T10:36:28Z</time></trkpt><trkpt lat="39.34926770866514" lon="16.2344600339953"><ele>197.0</ele><time>2026-03-27T10:36:29Z</time></trkpt><trkpt lat="39.349059385392714" lon="16.234517873674477"><ele>197.0</ele><time>2026-03-27T10:36:30Z</time></trkpt><trkpt lat="39.34885199701321" lon="16.234579260460283"><ele>197.0</ele><time>2026-03-27T10:36:31Z</time></trkpt><trkpt lat="39.348648725742315" lon="16.23463532238995"><ele>197.0</ele><time>2026-03-27T10:36:32Z</time></trkpt><trkpt lat="39.348444668141966" lon="16.234691419999816"><ele>197.0</ele><time>2026-03-27T10:36:33Z</time></trkpt><trkpt lat="39.348240984285574" lon="16.23475071462723"><ele>197.0</ele><time>2026-03-27T10:36:34Z</time></trkpt><trkpt lat="39.348034489907114" lon="16.23481175429166"><ele>197.0</ele><time>2026-03-27T10:36:35Z</time></trkpt><trkpt lat="39.347824397532676" lon="16.234869621960538"><ele>196.33333333333334</ele><time>2026-03-27T10:36:36Z</time></trkpt><trkpt lat="39.34761686524529" lon="16.234922353759657"><ele>195.66666666666669</ele><time>2026-03-27T10:36:37Z</time></trkpt><trkpt lat="39.34740620184432" lon="16.23497405940568"><ele>195.0</ele><time>2026-03-27T10:36:38Z</time></trkpt><trkpt lat="39.3471930159432" lon="16.235020788718185"><ele>194.33333333333331</ele><time>2026-03-27T10:36:39Z</time></trkpt><trkpt lat="39.34697954777441" lon="16.235056570029542"><ele>193.66666666666666</ele><time>2026-03-27T10:36:40Z</time></trkpt><trkpt lat="39.346762892962914" lon="16.235082031904525"><ele>193.0</ele><time>2026-03-27T10:36:41Z</time></trkpt><trkpt lat="39.34654414566991" lon="16.235103208420227"><ele>194.33333333333331</ele><time>2026-03-27T10:36:42Z</time></trkpt><trkpt lat="39.34632532026557" lon="16.235119942462834"><ele>195.66666666666669</ele><time>2026-03-27T10:36:43Z</time></trkpt><trkpt lat="39.346105013014395" lon="16.235127229712425"><ele>197.0</ele><time>2026-03-27T10:36:44Z</time></trkpt><trkpt lat="39.34587910133127" lon="16.235126624586158"><ele>197.0</ele><time>2026-03-27T10:36:45Z</time></trkpt><trkpt lat="39.34565323581882" lon="16.2351183726546"><ele>197.0</ele><time>2026-03-27T10:36:46Z</time></trkpt><trkpt lat="39.34542531505616" lon="16.235100872999844"><ele>199.0</ele><time>2026-03-27T10:36:47Z</time></trkpt><trkpt lat="39.34519609047578" lon="16.235075130932298"><ele>201.0</ele><time>2026-03-27T10:36:48Z</time></trkpt><trkpt lat="39.34496593567666" lon="16.23503984416279"><ele>201.0</ele><time>2026-03-27T10:36:49Z</time></trkpt><trkpt lat="39.344735508857994" lon="16.235001788917856"><ele>201.0</ele><time>2026-03-27T10:36:50Z</time></trkpt><trkpt lat="39.34449876449425" lon="16.23496032714913"><ele>201.0</ele><time>2026-03-27T10:36:51Z</time></trkpt><trkpt lat="39.34425466075735" lon="16.23491670121252"><ele>201.0</ele><time>2026-03-27T10:36:52Z</time></trkpt><trkpt lat="39.344004449125435" lon="16.234871251864277"><ele>201.5</ele><time>2026-03-27T10:36:53Z</time></trkpt><trkpt lat="39.34375021707652" lon="16.23482515081481"><ele>202.0</ele><time>2026-03-27T10:36:54Z</time></trkpt><trkpt lat="39.343491091730385" lon="16.234777521715685"><ele>202.0</ele><time>2026-03-27T10:36:55Z</time></trkpt><trkpt lat="39.34322730570167" lon="16.23473157483396"><ele>202.0</ele><time>2026-03-27T10:36:56Z</time></trkpt><trkpt lat="39.342960245367216" lon="16.23468530062324"><ele>202.0</ele><time>2026-03-27T10:36:57Z</time></trkpt><trkpt lat="39.342691539301626" lon="16.23464014483969"><ele>202.0</ele><time>2026-03-27T10:36:58Z</time></trkpt><trkpt lat="39.34242273621699" lon="16.234599320239898"><ele>201.5</ele><time>2026-03-27T10:36:59Z</time></trkpt><trkpt lat="39.342147046287366" lon="16.23456698995886"><ele>201.0</ele><time>2026-03-27T10:37:00Z</time></trkpt><trkpt lat="39.34186805788203" lon="16.234544337109618"><ele>201.0</ele><time>2026-03-27T10:37:01Z</time></trkpt><trkpt lat="39.34158886431966" lon="16.234533527026553"><ele>201.0</ele><time>2026-03-27T10:37:02Z</time></trkpt><trkpt lat="39.34130606365269" lon="16.23453572253202"><ele>199.5</ele><time>2026-03-27T10:37:03Z</time></trkpt><trkpt lat="39.34102077731935" lon="16.23454996803476"><ele>198.0</ele><time>2026-03-27T10:37:04Z</time></trkpt><trkpt lat="39.34074076749561" lon="16.234574313779987"><ele>197.5</ele><time>2026-03-27T10:37:05Z</time></trkpt><trkpt lat="39.34046115358647" lon="16.234611516747265"><ele>197.0</ele><time>2026-03-27T10:37:06Z</time></trkpt><trkpt lat="39.34018128687121" lon="16.234659297221736"><ele>197.0</ele><time>2026-03-27T10:37:07Z</time></trkpt><trkpt lat="39.3399020016466" lon="16.234719441672986"><ele>197.0</ele><time>2026-03-27T10:37:08Z</time></trkpt><trkpt lat="39.3396249523886" lon="16.234793075693194"><ele>195.0</ele><time>2026-03-27T10:37:09Z</time></trkpt><trkpt lat="39.339353922052474" lon="16.23487693838735"><ele>193.0</ele><time>2026-03-27T10:37:10Z</time></trkpt><trkpt lat="39.33908366652054" lon="16.2349685297973"><ele>192.5</ele><time>2026-03-27T10:37:11Z</time></trkpt><trkpt lat="39.338817050859475" lon="16.23506536734985"><ele>192.0</ele><time>2026-03-27T10:37:12Z</time></trkpt><trkpt lat="39.33855307730767" lon="16.235168658582268"><ele>192.0</ele><time>2026-03-27T10:37:13Z</time></trkpt><trkpt lat="39.33829162876454" lon="16.23527742222229"><ele>192.0</ele><time>2026-03-27T10:37:14Z</time></trkpt><trkpt lat="39.338030929793014" lon="16.235385869518474"><ele>193.5</ele><time>2026-03-27T10:37:15Z</time></trkpt><trkpt lat="39.33777164947874" lon="16.235493122899282"><ele>195.0</ele><time>2026-03-27T10:37:16Z</time></trkpt><trkpt lat="39.3375111608562" lon="16.235599481702554"><ele>194.5</ele><time>2026-03-27T10:37:17Z</time></trkpt><trkpt lat="39.33725334151036" lon="16.235704864806323"><ele>194.0</ele><time>2026-03-27T10:37:18Z</time></trkpt><trkpt lat="39.336996183543675" lon="16.235812240667006"><ele>194.0</ele><time>2026-03-27T10:37:19Z</time></trkpt><trkpt lat="39.3367422820708" lon="16.235918734465475"><ele>194.0</ele><time>2026-03-27T10:37:20Z</time></trkpt><trkpt lat="39.33649078951866" lon="16.23602438532834"><ele>195.5</ele><time>2026-03-27T10:37:21Z</time></trkpt><trkpt lat="39.33623883709166" lon="16.23612823979947"><ele>197.0</ele><time>2026-03-27T10:37:22Z</time></trkpt><trkpt lat="39.335985433653136" lon="16.236232544493866"><ele>197.0</ele><time>2026-03-27T10:37:23Z</time></trkpt><trkpt lat="39.33573391000564" lon="16.236337742191598"><ele>197.0</ele><time>2026-03-27T10:37:24Z</time></trkpt><trkpt lat="39.33547958482784" lon="16.236445098543552"><ele>198.0</ele><time>2026-03-27T10:37:25Z</time></trkpt><trkpt lat="39.33522263509388" lon="16.236555264229885"><ele>199.0</ele><time>2026-03-27T10:37:26Z</time></trkpt><trkpt lat="39.33496435811452" lon="16.236665911941692"><ele>200.0</ele><time>2026-03-27T10:37:27Z</time></trkpt><trkpt lat="39.334705247090184" lon="16.23677445786583"><ele>201.0</ele><time>2026-03-27T10:37:28Z</time></trkpt><trkpt lat="39.334444898134485" lon="16.23688004381242"><ele>201.0</ele><time>2026-03-27T10:37:29Z</time></trkpt><trkpt lat="39.33418259744361" lon="16.23698798114749"><ele>201.0</ele><time>2026-03-27T10:37:30Z</time></trkpt><trkpt lat="39.33391967319504" lon="16.237098576447217"><ele>203.0</ele><time>2026-03-27T10:37:31Z</time></trkpt><trkpt lat="39.33365724349337" lon="16.237209359169295"><ele>205.0</ele><time>2026-03-27T10:37:32Z</time></trkpt><trkpt lat="39.33339594821886" lon="16.23732037186827"><ele>205.0</ele><time>2026-03-27T10:37:33Z</time></trkpt><trkpt lat="39.33313648065445" lon="16.237429011843027"><ele>205.0</ele><time>2026-03-27T10:37:34Z</time></trkpt><trkpt lat="39.33287488337604" lon="16.23753812700457"><ele>206.0</ele><time>2026-03-27T10:37:35Z</time></trkpt><trkpt lat="39.33261447405552" lon="16.237647295640155"><ele>207.0</ele><time>2026-03-27T10:37:36Z</time></trkpt><trkpt lat="39.332354900548324" lon="16.237756209704273"><ele>208.5</ele><time>2026-03-27T10:37:37Z</time></trkpt><trkpt lat="39.33209276516293" lon="16.237864622296012"><ele>210.0</ele><time>2026-03-27T10:37:38Z</time></trkpt><trkpt lat="39.331825590185815" lon="16.237974814232974"><ele>210.0</ele><time>2026-03-27T10:37:39Z</time></trkpt><trkpt lat="39.331556745489856" lon="16.238085103634607"><ele>210.0</ele><time>2026-03-27T10:37:40Z</time></trkpt><trkpt lat="39.331283093525784" lon="16.238197569109104"><ele>211.5</ele><time>2026-03-27T10:37:41Z</time></trkpt><trkpt lat="39.331008808304475" lon="16.238312112620164"><ele>213.0</ele><time>2026-03-27T10:37:42Z</time></trkpt><trkpt lat="39.330732674551065" lon="16.23842806492273"><ele>214.0</ele><time>2026-03-27T10:37:43Z</time></trkpt><trkpt lat="39.33045342292251" lon="16.23854437888583"><ele>215.0</ele><time>2026-03-27T10:37:44Z</time></trkpt><trkpt lat="39.33017419154202" lon="16.23865927465376"><ele>215.0</ele><time>2026-03-27T10:37:45Z</time></trkpt><trkpt lat="39.32989462891314" lon="16.23877699383548"><ele>215.0</ele><time>2026-03-27T10:37:46Z</time></trkpt><trkpt lat="39.329616570897606" lon="16.23889191810021"><ele>215.5</ele><time>2026-03-27T10:37:47Z</time></trkpt><trkpt lat="39.32933830509573" lon="16.23900697859351"><ele>216.0</ele><time>2026-03-27T10:37:48Z</time></trkpt><trkpt lat="39.329060363851596" lon="16.239117701613914"><ele>216.5</ele><time>2026-03-27T10:37:49Z</time></trkpt><trkpt lat="39.32877934916565" lon="16.239226007656875"><ele>217.0</ele><time>2026-03-27T10:37:50Z</time></trkpt><trkpt lat="39.32849659955287" lon="16.239324483665154"><ele>217.0</ele><time>2026-03-27T10:37:51Z</time></trkpt><trkpt lat="39.32820365185747" lon="16.239411559629996"><ele>217.0</ele><time>2026-03-27T10:37:52Z</time></trkpt><trkpt lat="39.32790543600533" lon="16.239484922762717"><ele>218.0</ele><time>2026-03-27T10:37:53Z</time></trkpt><trkpt lat="39.32760259825195" lon="16.239546112756727"><ele>219.0</ele><time>2026-03-27T10:37:54Z</time></trkpt><trkpt lat="39.32729542558499" lon="16.239595523368102"><ele>220.5</ele><time>2026-03-27T10:37:55Z</time></trkpt><trkpt lat="39.32698383292323" lon="16.23963302843755"><ele>222.0</ele><time>2026-03-27T10:37:56Z</time></trkpt><trkpt lat="39.32667049757177" lon="16.239658533669008"><ele>223.5</ele><time>2026-03-27T10:37:57Z</time></trkpt><trkpt lat="39.32635459697735" lon="16.239671998267063"><ele>225.0</ele><time>2026-03-27T10:37:58Z</time></trkpt><trkpt lat="39.326038320128305" lon="16.2396774745459"><ele>225.0</ele><time>2026-03-27T10:37:59Z</time></trkpt><trkpt lat="39.32572393388952" lon="16.239677194406838"><ele>225.0</ele><time>2026-03-27T10:38:00Z</time></trkpt><trkpt lat="39.325409676927954" lon="16.239674732369075"><ele>224.0</ele><time>2026-03-27T10:38:01Z</time></trkpt><trkpt lat="39.32509592831094" lon="16.239668684108043"><ele>223.0</ele><time>2026-03-27T10:38:02Z</time></trkpt><trkpt lat="39.32478168387262" lon="16.23966456827124"><ele>223.5</ele><time>2026-03-27T10:38:03Z</time></trkpt><trkpt lat="39.32446916591583" lon="16.239658810257914"><ele>224.0</ele><time>2026-03-27T10:38:04Z</time></trkpt><trkpt lat="39.32415958872111" lon="16.239656811566793"><ele>222.5</ele><time>2026-03-27T10:38:05Z</time></trkpt><trkpt lat="39.32385111045021" lon="16.239660926124504"><ele>221.0</ele><time>2026-03-27T10:38:06Z</time></trkpt><trkpt lat="39.32354456426049" lon="16.239675853334045"><ele>221.0</ele><time>2026-03-27T10:38:07Z</time></trkpt><trkpt lat="39.323238476304084" lon="16.23970075211625"><ele>221.0</ele><time>2026-03-27T10:38:08Z</time></trkpt><trkpt lat="39.32293264109556" lon="16.239736351772414"><ele>220.0</ele><time>2026-03-27T10:38:09Z</time></trkpt><trkpt lat="39.32262899357716" lon="16.239774826680375"><ele>219.0</ele><time>2026-03-27T10:38:10Z</time></trkpt><trkpt lat="39.32232512867225" lon="16.23983008461556"><ele>217.0</ele><time>2026-03-27T10:38:11Z</time></trkpt><trkpt lat="39.32202497867971" lon="16.23989502292545"><ele>215.0</ele><time>2026-03-27T10:38:12Z</time></trkpt><trkpt lat="39.32172710419175" lon="16.239969951656672"><ele>215.0</ele><time>2026-03-27T10:38:13Z</time></trkpt><trkpt lat="39.32142980905406" lon="16.240056879810947"><ele>215.0</ele><time>2026-03-27T10:38:14Z</time></trkpt><trkpt lat="39.321134685947776" lon="16.240154506226187"><ele>214.0</ele><time>2026-03-27T10:38:15Z</time></trkpt><trkpt lat="39.32084085730767" lon="16.240260931315706"><ele>213.0</ele><time>2026-03-27T10:38:16Z</time></trkpt><trkpt lat="39.32054827152641" lon="16.24037596446147"><ele>212.0</ele><time>2026-03-27T10:38:17Z</time></trkpt><trkpt lat="39.32025217067992" lon="16.24049667062646"><ele>211.0</ele><time>2026-03-27T10:38:18Z</time></trkpt><trkpt lat="39.31995310362954" lon="16.240619014907388"><ele>211.5</ele><time>2026-03-27T10:38:19Z</time></trkpt><trkpt lat="39.31965248305705" lon="16.24074240084398"><ele>212.0</ele><time>2026-03-27T10:38:20Z</time></trkpt><trkpt lat="39.31935103062739" lon="16.24086202136254"><ele>212.0</ele><time>2026-03-27T10:38:21Z</time></trkpt><trkpt lat="39.31904720708183" lon="16.240974047229642"><ele>212.0</ele><time>2026-03-27T10:38:22Z</time></trkpt><trkpt lat="39.31874313935574" lon="16.241076511397345"><ele>210.5</ele><time>2026-03-27T10:38:23Z</time></trkpt><trkpt lat="39.3184381505382" lon="16.24116690581438"><ele>209.0</ele><time>2026-03-27T10:38:24Z</time></trkpt><trkpt lat="39.318133193689654" lon="16.241244678887284"><ele>209.5</ele><time>2026-03-27T10:38:25Z</time></trkpt><trkpt lat="39.31782989196769" lon="16.24130818920906"><ele>210.0</ele><time>2026-03-27T10:38:26Z</time></trkpt><trkpt lat="39.31752376713585" lon="16.24135508310791"><ele>211.0</ele><time>2026-03-27T10:38:27Z</time></trkpt><trkpt lat="39.31721499560131" lon="16.241380997815487"><ele>212.0</ele><time>2026-03-27T10:38:28Z</time></trkpt><trkpt lat="39.316904941918395" lon="16.241387286267738"><ele>212.0</ele><time>2026-03-27T10:38:29Z</time></trkpt><trkpt lat="39.31659592907973" lon="16.24137373677094"><ele>212.0</ele><time>2026-03-27T10:38:30Z</time></trkpt><trkpt lat="39.316289020379834" lon="16.241342340982364"><ele>212.5</ele><time>2026-03-27T10:38:31Z</time></trkpt><trkpt lat="39.31598539851946" lon="16.2412965639179"><ele>213.0</ele><time>2026-03-27T10:38:32Z</time></trkpt><trkpt lat="39.31568383482125" lon="16.241233076459846"><ele>215.5</ele><time>2026-03-27T10:38:33Z</time></trkpt><trkpt lat="39.31538671166066" lon="16.241148840313976"><ele>218.0</ele><time>2026-03-27T10:38:34Z</time></trkpt><trkpt lat="39.31509357434536" lon="16.241049562732012"><ele>218.0</ele><time>2026-03-27T10:38:35Z</time></trkpt><trkpt lat="39.31480440193512" lon="16.24093364937416"><ele>218.0</ele><time>2026-03-27T10:38:36Z</time></trkpt><trkpt lat="39.31452015201986" lon="16.240802241078875"><ele>220.0</ele><time>2026-03-27T10:38:37Z</time></trkpt><trkpt lat="39.314242754644525" lon="16.240655026710467"><ele>222.0</ele><time>2026-03-27T10:38:38Z</time></trkpt><trkpt lat="39.31397074942432" lon="16.240491207012894"><ele>227.5</ele><time>2026-03-27T10:38:39Z</time></trkpt><trkpt lat="39.31370191273178" lon="16.240316413909678"><ele>233.0</ele><time>2026-03-27T10:38:40Z</time></trkpt><trkpt lat="39.313438037461474" lon="16.240138134699766"><ele>233.0</ele><time>2026-03-27T10:38:41Z</time></trkpt><trkpt lat="39.31317774145717" lon="16.239955883680704"><ele>233.0</ele><time>2026-03-27T10:38:42Z</time></trkpt><trkpt lat="39.31291956997403" lon="16.239772428463308"><ele>232.5</ele><time>2026-03-27T10:38:43Z</time></trkpt><trkpt lat="39.312660310052586" lon="16.239587921042098"><ele>232.0</ele><time>2026-03-27T10:38:44Z</time></trkpt><trkpt lat="39.31240016751887" lon="16.23940818552172"><ele>240.0</ele><time>2026-03-27T10:38:45Z</time></trkpt><trkpt lat="39.31213535747734" lon="16.239236497800707"><ele>248.0</ele><time>2026-03-27T10:38:46Z</time></trkpt><trkpt lat="39.31186635379797" lon="16.239072625323832"><ele>247.0</ele><time>2026-03-27T10:38:47Z</time></trkpt><trkpt lat="39.311596069167905" lon="16.238919115519096"><ele>246.0</ele><time>2026-03-27T10:38:48Z</time></trkpt><trkpt lat="39.31132033877468" lon="16.23878434262915"><ele>246.0</ele><time>2026-03-27T10:38:49Z</time></trkpt><trkpt lat="39.31104113042859" lon="16.238666170311646"><ele>246.0</ele><time>2026-03-27T10:38:50Z</time></trkpt><trkpt lat="39.310761654088935" lon="16.23856008936749"><ele>251.0</ele><time>2026-03-27T10:38:51Z</time></trkpt><trkpt lat="39.31048057760011" lon="16.23846072304196"><ele>256.0</ele><time>2026-03-27T10:38:52Z</time></trkpt><trkpt lat="39.310199297127" lon="16.23836660677392"><ele>256.0</ele><time>2026-03-27T10:38:53Z</time></trkpt><trkpt lat="39.309917950256335" lon="16.23827164165465"><ele>256.0</ele><time>2026-03-27T10:38:54Z</time></trkpt><trkpt lat="39.30963492668651" lon="16.238176614899583"><ele>258.0</ele><time>2026-03-27T10:38:55Z</time></trkpt><trkpt lat="39.309351250231714" lon="16.238086268013713"><ele>260.0</ele><time>2026-03-27T10:38:56Z</time></trkpt><trkpt lat="39.309067028889245" lon="16.237996115248766"><ele>267.0</ele><time>2026-03-27T10:38:57Z</time></trkpt><trkpt lat="39.30878267075504" lon="16.237904889491674"><ele>274.0</ele><time>2026-03-27T10:38:58Z</time></trkpt><trkpt lat="39.30849949834773" lon="16.237812940530663"><ele>274.0</ele><time>2026-03-27T10:38:59Z</time></trkpt><trkpt lat="39.3082153055108" lon="16.23772025002566"><ele>274.0</ele><time>2026-03-27T10:39:00Z</time></trkpt><trkpt lat="39.30793058599577" lon="16.23762557493142"><ele>281.0</ele><time>2026-03-27T10:39:01Z</time></trkpt><trkpt lat="39.30764735008626" lon="16.237529694920195"><ele>288.0</ele><time>2026-03-27T10:39:02Z</time></trkpt><trkpt lat="39.30736009863745" lon="16.237439057844263"><ele>295.0</ele><time>2026-03-27T10:39:03Z</time></trkpt><trkpt lat="39.30707143436562" lon="16.237347853510585"><ele>302.0</ele><time>2026-03-27T10:39:04Z</time></trkpt><trkpt lat="39.30678050254063" lon="16.23725413484598"><ele>302.0</ele><time>2026-03-27T10:39:05Z</time></trkpt><trkpt lat="39.30648879285407" lon="16.237155458281475"><ele>302.0</ele><time>2026-03-27T10:39:06Z</time></trkpt><trkpt lat="39.306196801666665" lon="16.237053748415693"><ele>307.5</ele><time>2026-03-27T10:39:07Z</time></trkpt><trkpt lat="39.30590246716773" lon="16.236948215267155"><ele>313.0</ele><time>2026-03-27T10:39:08Z</time></trkpt><trkpt lat="39.305605614202086" lon="16.236843281680983"><ele>307.0</ele><time>2026-03-27T10:39:09Z</time></trkpt><trkpt lat="39.30530844162341" lon="16.23674081049487"><ele>301.0</ele><time>2026-03-27T10:39:10Z</time></trkpt><trkpt lat="39.30501001087002" lon="16.236663240566315"><ele>300.5</ele><time>2026-03-27T10:39:11Z</time></trkpt><trkpt lat="39.30471009217506" lon="16.236563205722835"><ele>300.0</ele><time>2026-03-27T10:39:12Z</time></trkpt><trkpt lat="39.3044097115258" lon="16.23646573823228"><ele>300.0</ele><time>2026-03-27T10:39:13Z</time></trkpt><trkpt lat="39.3041078724649" lon="16.236364322479687"><ele>300.0</ele><time>2026-03-27T10:39:14Z</time></trkpt><trkpt lat="39.30380527998734" lon="16.236262883711163"><ele>295.5</ele><time>2026-03-27T10:39:15Z</time></trkpt><trkpt lat="39.30349770849843" lon="16.236162659386146"><ele>291.0</ele><time>2026-03-27T10:39:16Z</time></trkpt><trkpt lat="39.30318504210055" lon="16.236072803318596"><ele>283.5</ele><time>2026-03-27T10:39:17Z</time></trkpt><trkpt lat="39.30287064738891" lon="16.235988581350487"><ele>276.0</ele><time>2026-03-27T10:39:18Z</time></trkpt><trkpt lat="39.30263504229329" lon="16.235963485366977"><ele>276.0</ele><time>2026-03-27T10:39:19Z</time></trkpt><trkpt lat="39.30230395311221" lon="16.235901677373107"><ele>276.0</ele><time>2026-03-27T10:39:20Z</time></trkpt><trkpt lat="39.30199525678564" lon="16.235856286792544"><ele>273.0</ele><time>2026-03-27T10:39:21Z</time></trkpt><trkpt lat="39.30168337564352" lon="16.23582862365886"><ele>270.0</ele><time>2026-03-27T10:39:22Z</time></trkpt><trkpt lat="39.30137969461661" lon="16.235828025178197"><ele>269.0</ele><time>2026-03-27T10:39:23Z</time></trkpt><trkpt lat="39.30107472264192" lon="16.23584051587722"><ele>268.0</ele><time>2026-03-27T10:39:24Z</time></trkpt><trkpt lat="39.30077083531069" lon="16.23586344061783"><ele>269.0</ele><time>2026-03-27T10:39:25Z</time></trkpt><trkpt lat="39.30046645392206" lon="16.23590318348717"><ele>270.0</ele><time>2026-03-27T10:39:26Z</time></trkpt><trkpt lat="39.300166725704024" lon="16.235961865455433"><ele>270.0</ele><time>2026-03-27T10:39:27Z</time></trkpt><trkpt lat="39.29986572710239" lon="16.23603197811387"><ele>270.0</ele><time>2026-03-27T10:39:28Z</time></trkpt><trkpt lat="39.29956730534333" lon="16.2361079154487"><ele>273.5</ele><time>2026-03-27T10:39:29Z</time></trkpt><trkpt lat="39.299273570444946" lon="16.236190752436446"><ele>277.0</ele><time>2026-03-27T10:39:30Z</time></trkpt><trkpt lat="39.29897783705097" lon="16.236277582109448"><ele>279.5</ele><time>2026-03-27T10:39:31Z</time></trkpt><trkpt lat="39.29868316730825" lon="16.236366868549343"><ele>282.0</ele><time>2026-03-27T10:39:32Z</time></trkpt><trkpt lat="39.29838877380704" lon="16.236455824649934"><ele>285.0</ele><time>2026-03-27T10:39:33Z</time></trkpt><trkpt lat="39.298093467056965" lon="16.236545003227814"><ele>288.0</ele><time>2026-03-27T10:39:34Z</time></trkpt><trkpt lat="39.29779706722383" lon="16.236634590996825"><ele>288.5</ele><time>2026-03-27T10:39:35Z</time></trkpt><trkpt lat="39.29749920671399" lon="16.236721940356464"><ele>289.0</ele><time>2026-03-27T10:39:36Z</time></trkpt><trkpt lat="39.29720163492601" lon="16.236808125647705"><ele>290.5</ele><time>2026-03-27T10:39:37Z</time></trkpt><trkpt lat="39.29690591628612" lon="16.236894799843018"><ele>292.0</ele><time>2026-03-27T10:39:38Z</time></trkpt><trkpt lat="39.296612021185254" lon="16.236983377171878"><ele>297.0</ele><time>2026-03-27T10:39:39Z</time></trkpt><trkpt lat="39.29631923415457" lon="16.237075152114528"><ele>302.0</ele><time>2026-03-27T10:39:40Z</time></trkpt><trkpt lat="39.29602684776369" lon="16.237164688317506"><ele>302.0</ele><time>2026-03-27T10:39:41Z</time></trkpt><trkpt lat="39.2957358836124" lon="16.23725013764321"><ele>302.0</ele><time>2026-03-27T10:39:42Z</time></trkpt><trkpt lat="39.2954464223525" lon="16.23733762562844"><ele>313.0</ele><time>2026-03-27T10:39:43Z</time></trkpt><trkpt lat="39.29515870858057" lon="16.237423455358346"><ele>324.0</ele><time>2026-03-27T10:39:44Z</time></trkpt><trkpt lat="39.294869923169195" lon="16.23750916428646"><ele>335.0</ele><time>2026-03-27T10:39:45Z</time></trkpt><trkpt lat="39.29458182269136" lon="16.23759105229739"><ele>346.0</ele><time>2026-03-27T10:39:46Z</time></trkpt><trkpt lat="39.29429521677644" lon="16.237670551748575"><ele>346.0</ele><time>2026-03-27T10:39:47Z</time></trkpt><trkpt lat="39.294009636059734" lon="16.23774896811357"><ele>346.0</ele><time>2026-03-27T10:39:48Z</time></trkpt><trkpt lat="39.293725565942424" lon="16.237830001581425"><ele>348.0</ele><time>2026-03-27T10:39:49Z</time></trkpt><trkpt lat="39.2934429109089" lon="16.23791380320833"><ele>350.0</ele><time>2026-03-27T10:39:50Z</time></trkpt><trkpt lat="39.2931605711329" lon="16.237996089504183"><ele>342.5</ele><time>2026-03-27T10:39:51Z</time></trkpt><trkpt lat="39.29286088874828" lon="16.238120837117773"><ele>335.0</ele><time>2026-03-27T10:39:52Z</time></trkpt><trkpt lat="39.29257637608624" lon="16.238204450887693"><ele>335.0</ele><time>2026-03-27T10:39:53Z</time></trkpt><trkpt lat="39.29228857300056" lon="16.23828945653593"><ele>335.0</ele><time>2026-03-27T10:39:54Z</time></trkpt><trkpt lat="39.29200352401625" lon="16.238376362948763"><ele>326.5</ele><time>2026-03-27T10:39:55Z</time></trkpt><trkpt lat="39.291753455495645" lon="16.238457509679364"><ele>318.0</ele><time>2026-03-27T10:39:56Z</time></trkpt><trkpt lat="39.29144366656685" lon="16.238522289267756"><ele>319.5</ele><time>2026-03-27T10:39:57Z</time></trkpt><trkpt lat="39.29116114970611" lon="16.238603884871342"><ele>321.0</ele><time>2026-03-27T10:39:58Z</time></trkpt><trkpt lat="39.29087973137371" lon="16.23869717410024"><ele>321.0</ele><time>2026-03-27T10:39:59Z</time></trkpt><trkpt lat="39.290597830531084" lon="16.238788576661968"><ele>321.0</ele><time>2026-03-27T10:40:00Z</time></trkpt><trkpt lat="39.29031365786957" lon="16.238873314825046"><ele>326.5</ele><time>2026-03-27T10:40:01Z</time></trkpt><trkpt lat="39.29003418781452" lon="16.238955769383104"><ele>332.0</ele><time>2026-03-27T10:40:02Z</time></trkpt><trkpt lat="39.28975484559851" lon="16.23903549914641"><ele>316.0</ele><time>2026-03-27T10:40:03Z</time></trkpt><trkpt lat="39.28947878935036" lon="16.239113811241563"><ele>300.0</ele><time>2026-03-27T10:40:04Z</time></trkpt><trkpt lat="39.28920360532199" lon="16.23919786413234"><ele>300.0</ele><time>2026-03-27T10:40:05Z</time></trkpt><trkpt lat="39.28893263739652" lon="16.239297043656617"><ele>300.0</ele><time>2026-03-27T10:40:06Z</time></trkpt><trkpt lat="39.28866490314762" lon="16.239411426838945"><ele>285.5</ele><time>2026-03-27T10:40:07Z</time></trkpt><trkpt lat="39.28840117165306" lon="16.23954134703775"><ele>271.0</ele><time>2026-03-27T10:40:08Z</time></trkpt><trkpt lat="39.28814713137038" lon="16.23967902699019"><ele>276.0</ele><time>2026-03-27T10:40:09Z</time></trkpt><trkpt lat="39.28789964073034" lon="16.239832370024136"><ele>281.0</ele><time>2026-03-27T10:40:10Z</time></trkpt><trkpt lat="39.28765891231966" lon="16.239995181277255"><ele>281.0</ele><time>2026-03-27T10:40:11Z</time></trkpt><trkpt lat="39.28742707744658" lon="16.240167382782673"><ele>281.0</ele><time>2026-03-27T10:40:12Z</time></trkpt><trkpt lat="39.28720317079934" lon="16.24035000549174"><ele>298.5</ele><time>2026-03-27T10:40:13Z</time></trkpt><trkpt lat="39.286986345273476" lon="16.240543976051523"><ele>316.0</ele><time>2026-03-27T10:40:14Z</time></trkpt><trkpt lat="39.286776332597675" lon="16.240744438927205"><ele>317.0</ele><time>2026-03-27T10:40:15Z</time></trkpt><trkpt lat="39.286572040996525" lon="16.24094877501647"><ele>318.0</ele><time>2026-03-27T10:40:16Z</time></trkpt><trkpt lat="39.2863674962629" lon="16.241153715232567"><ele>331.0</ele><time>2026-03-27T10:40:17Z</time></trkpt><trkpt lat="39.2861572739809" lon="16.24135734533185"><ele>344.0</ele><time>2026-03-27T10:40:18Z</time></trkpt><trkpt lat="39.28594271890153" lon="16.24155344941784"><ele>344.0</ele><time>2026-03-27T10:40:19Z</time></trkpt><trkpt lat="39.285724657159925" lon="16.241743330373424"><ele>344.0</ele><time>2026-03-27T10:40:20Z</time></trkpt><trkpt lat="39.28550992686395" lon="16.241929749598167"><ele>350.5</ele><time>2026-03-27T10:40:21Z</time></trkpt><trkpt lat="39.285297090766655" lon="16.24211687778642"><ele>357.0</ele><time>2026-03-27T10:40:22Z</time></trkpt><trkpt lat="39.285084661314514" lon="16.242307168233197"><ele>357.0</ele><time>2026-03-27T10:40:23Z</time></trkpt><trkpt lat="39.284870357592624" lon="16.24249872481346"><ele>357.0</ele><time>2026-03-27T10:40:24Z</time></trkpt><trkpt lat="39.28465343246175" lon="16.24269076466309"><ele>366.5</ele><time>2026-03-27T10:40:25Z</time></trkpt><trkpt lat="39.284437432535086" lon="16.242884686013067"><ele>376.0</ele><time>2026-03-27T10:40:26Z</time></trkpt><trkpt lat="39.28422170333955" lon="16.243080774784605"><ele>368.5</ele><time>2026-03-27T10:40:27Z</time></trkpt><trkpt lat="39.28400871090654" lon="16.2432727341372"><ele>361.0</ele><time>2026-03-27T10:40:28Z</time></trkpt><trkpt lat="39.283798506097796" lon="16.243458659101695"><ele>356.0</ele><time>2026-03-27T10:40:29Z</time></trkpt><trkpt lat="39.283593211850125" lon="16.243642078408524"><ele>351.0</ele><time>2026-03-27T10:40:30Z</time></trkpt><trkpt lat="39.28339875067725" lon="16.24386574326094"><ele>352.0</ele><time>2026-03-27T10:40:31Z</time></trkpt><trkpt lat="39.2832164644343" lon="16.244042721221636"><ele>353.0</ele><time>2026-03-27T10:40:32Z</time></trkpt><trkpt lat="39.28302503019142" lon="16.244253030284845"><ele>353.0</ele><time>2026-03-27T10:40:33Z</time></trkpt><trkpt lat="39.28283483731452" lon="16.24447208812826"><ele>353.0</ele><time>2026-03-27T10:40:34Z</time></trkpt><trkpt lat="39.28265062599661" lon="16.244698501723043"><ele>341.5</ele><time>2026-03-27T10:40:35Z</time></trkpt><trkpt lat="39.28247271679163" lon="16.24492625940958"><ele>330.0</ele><time>2026-03-27T10:40:36Z</time></trkpt><trkpt lat="39.28229644151586" lon="16.24516289711668"><ele>331.5</ele><time>2026-03-27T10:40:37Z</time></trkpt><trkpt lat="39.28212190702725" lon="16.24540259551873"><ele>333.0</ele><time>2026-03-27T10:40:38Z</time></trkpt><trkpt lat="39.281946614666715" lon="16.245647011761175"><ele>333.0</ele><time>2026-03-27T10:40:39Z</time></trkpt><trkpt lat="39.281770933638974" lon="16.24588998949957"><ele>333.0</ele><time>2026-03-27T10:40:40Z</time></trkpt><trkpt lat="39.28159230043976" lon="16.246127692830154"><ele>344.0</ele><time>2026-03-27T10:40:41Z</time></trkpt><trkpt lat="39.28141216172163" lon="16.24636630444669"><ele>355.0</ele><time>2026-03-27T10:40:42Z</time></trkpt><trkpt lat="39.28123383053348" lon="16.246610670823138"><ele>355.0</ele><time>2026-03-27T10:40:43Z</time></trkpt><trkpt lat="39.281056323941485" lon="16.246858103151464"><ele>355.0</ele><time>2026-03-27T10:40:44Z</time></trkpt><trkpt lat="39.28088003911433" lon="16.24710718751792"><ele>359.0</ele><time>2026-03-27T10:40:45Z</time></trkpt><trkpt lat="39.28070289086782" lon="16.247357529908754"><ele>363.0</ele><time>2026-03-27T10:40:46Z</time></trkpt><trkpt lat="39.28052506717014" lon="16.247607999058722"><ele>363.0</ele><time>2026-03-27T10:40:47Z</time></trkpt><trkpt lat="39.28034182501644" lon="16.247860772909263"><ele>363.0</ele><time>2026-03-27T10:40:48Z</time></trkpt><trkpt lat="39.28015488951876" lon="16.248111349843562"><ele>361.0</ele><time>2026-03-27T10:40:49Z</time></trkpt><trkpt lat="39.27996124330491" lon="16.248356406704396"><ele>359.0</ele><time>2026-03-27T10:40:50Z</time></trkpt><trkpt lat="39.27976164952271" lon="16.248593667577385"><ele>359.0</ele><time>2026-03-27T10:40:51Z</time></trkpt><trkpt lat="39.27954769290661" lon="16.24880683636722"><ele>359.0</ele><time>2026-03-27T10:40:52Z</time></trkpt><trkpt lat="39.279324012910365" lon="16.248995996464682"><ele>355.5</ele><time>2026-03-27T10:40:53Z</time></trkpt><trkpt lat="39.27908889163433" lon="16.249148251181822"><ele>352.0</ele><time>2026-03-27T10:40:54Z</time></trkpt><trkpt lat="39.2788487640024" lon="16.249254678771774"><ele>352.0</ele><time>2026-03-27T10:40:55Z</time></trkpt><trkpt lat="39.278609159797384" lon="16.249328219183987"><ele>352.0</ele><time>2026-03-27T10:40:56Z</time></trkpt><trkpt lat="39.278372822791724" lon="16.249379775229553"><ele>352.0</ele><time>2026-03-27T10:40:57Z</time></trkpt><trkpt lat="39.27813358187883" lon="16.24940756755434"><ele>352.0</ele><time>2026-03-27T10:40:58Z</time></trkpt><trkpt lat="39.27789160195787" lon="16.249409696383292"><ele>351.0</ele><time>2026-03-27T10:40:59Z</time></trkpt><trkpt lat="39.27764834924774" lon="16.24938108101653"><ele>350.0</ele><time>2026-03-27T10:41:00Z</time></trkpt><trkpt lat="39.277409525049165" lon="16.24932418367554"><ele>337.5</ele><time>2026-03-27T10:41:01Z</time></trkpt><trkpt lat="39.27717880498029" lon="16.249243824362956"><ele>325.0</ele><time>2026-03-27T10:41:02Z</time></trkpt><trkpt lat="39.27696372888176" lon="16.249125275997084"><ele>325.0</ele><time>2026-03-27T10:41:03Z</time></trkpt><trkpt lat="39.276749915310575" lon="16.249003955873746"><ele>325.0</ele><time>2026-03-27T10:41:04Z</time></trkpt><trkpt lat="39.276538519950265" lon="16.248865849824107"><ele>336.0</ele><time>2026-03-27T10:41:05Z</time></trkpt><trkpt lat="39.27632910150085" lon="16.24872127262888"><ele>347.0</ele><time>2026-03-27T10:41:06Z</time></trkpt><trkpt lat="39.27611760401923" lon="16.248568003409037"><ele>347.0</ele><time>2026-03-27T10:41:07Z</time></trkpt><trkpt lat="39.27590040327576" lon="16.248413302913814"><ele>347.0</ele><time>2026-03-27T10:41:08Z</time></trkpt><trkpt lat="39.27567641412549" lon="16.24826473913359"><ele>356.5</ele><time>2026-03-27T10:41:09Z</time></trkpt><trkpt lat="39.27544479320725" lon="16.248125811950846"><ele>366.0</ele><time>2026-03-27T10:41:10Z</time></trkpt><trkpt lat="39.275204482898594" lon="16.248003537905255"><ele>366.0</ele><time>2026-03-27T10:41:11Z</time></trkpt><trkpt lat="39.27495770361956" lon="16.247893624585174"><ele>366.0</ele><time>2026-03-27T10:41:12Z</time></trkpt><trkpt lat="39.27470795241183" lon="16.24779366414391"><ele>359.5</ele><time>2026-03-27T10:41:13Z</time></trkpt><trkpt lat="39.2744543506181" lon="16.247703246562722"><ele>353.0</ele><time>2026-03-27T10:41:14Z</time></trkpt><trkpt lat="39.274198579488" lon="16.24762078747975"><ele>353.0</ele><time>2026-03-27T10:41:15Z</time></trkpt><trkpt lat="39.27394296782399" lon="16.247539964276623"><ele>353.0</ele><time>2026-03-27T10:41:16Z</time></trkpt><trkpt lat="39.27368861576813" lon="16.247458104248828"><ele>358.0</ele><time>2026-03-27T10:41:17Z</time></trkpt><trkpt lat="39.27343641277878" lon="16.2473732303236"><ele>363.0</ele><time>2026-03-27T10:41:18Z</time></trkpt><trkpt lat="39.273184918108015" lon="16.24728728906422"><ele>356.5</ele><time>2026-03-27T10:41:19Z</time></trkpt><trkpt lat="39.27293342178159" lon="16.247205480949095"><ele>350.0</ele><time>2026-03-27T10:41:20Z</time></trkpt><trkpt lat="39.272683058532074" lon="16.247125490319604"><ele>350.0</ele><time>2026-03-27T10:41:21Z</time></trkpt><trkpt lat="39.2724314786659" lon="16.24704348330156"><ele>350.0</ele><time>2026-03-27T10:41:22Z</time></trkpt><trkpt lat="39.272179136534724" lon="16.246961215828673"><ele>358.0</ele><time>2026-03-27T10:41:23Z</time></trkpt><trkpt lat="39.27192576651813" lon="16.2468793387757"><ele>366.0</ele><time>2026-03-27T10:41:24Z</time></trkpt><trkpt lat="39.27167234772979" lon="16.246797421149935"><ele>356.0</ele><time>2026-03-27T10:41:25Z</time></trkpt><trkpt lat="39.271418441231056" lon="16.24671604224286"><ele>346.0</ele><time>2026-03-27T10:41:26Z</time></trkpt><trkpt lat="39.27116593834147" lon="16.246633444884772"><ele>346.0</ele><time>2026-03-27T10:41:27Z</time></trkpt><trkpt lat="39.270910995481444" lon="16.246557026550203"><ele>346.0</ele><time>2026-03-27T10:41:28Z</time></trkpt><trkpt lat="39.27065542691045" lon="16.24649843286611"><ele>344.5</ele><time>2026-03-27T10:41:29Z</time></trkpt><trkpt lat="39.27040122173013" lon="16.246468169137877"><ele>343.0</ele><time>2026-03-27T10:41:30Z</time></trkpt><trkpt lat="39.270149150862146" lon="16.24646891232007"><ele>343.0</ele><time>2026-03-27T10:41:31Z</time></trkpt><trkpt lat="39.26990075814603" lon="16.246502769816537"><ele>343.0</ele><time>2026-03-27T10:41:32Z</time></trkpt><trkpt lat="39.269654172334945" lon="16.24656429974108"><ele>349.5</ele><time>2026-03-27T10:41:33Z</time></trkpt><trkpt lat="39.269413019202375" lon="16.246651445164"><ele>356.0</ele><time>2026-03-27T10:41:34Z</time></trkpt><trkpt lat="39.26917875125931" lon="16.246766181328518"><ele>356.0</ele><time>2026-03-27T10:41:35Z</time></trkpt><trkpt lat="39.268951513314775" lon="16.246904312171598"><ele>356.0</ele><time>2026-03-27T10:41:36Z</time></trkpt><trkpt lat="39.268733270964354" lon="16.247064818915074"><ele>363.0</ele><time>2026-03-27T10:41:37Z</time></trkpt><trkpt lat="39.26852720339873" lon="16.24725250697015"><ele>370.0</ele><time>2026-03-27T10:41:38Z</time></trkpt><trkpt lat="39.268323007183845" lon="16.247449523840483"><ele>370.0</ele><time>2026-03-27T10:41:39Z</time></trkpt><trkpt lat="39.268118999394275" lon="16.24765153002509"><ele>370.0</ele><time>2026-03-27T10:41:40Z</time></trkpt><trkpt lat="39.267912197410055" lon="16.24785318211028"><ele>374.0</ele><time>2026-03-27T10:41:41Z</time></trkpt><trkpt lat="39.267703598220514" lon="16.248052627823448"><ele>378.0</ele><time>2026-03-27T10:41:42Z</time></trkpt><trkpt lat="39.26749491815289" lon="16.24824978752939"><ele>378.0</ele><time>2026-03-27T10:41:43Z</time></trkpt><trkpt lat="39.267285704581575" lon="16.24843380662544"><ele>378.0</ele><time>2026-03-27T10:41:44Z</time></trkpt><trkpt lat="39.267074168522214" lon="16.248601753746907"><ele>394.5</ele><time>2026-03-27T10:41:45Z</time></trkpt><trkpt lat="39.26685838308757" lon="16.248751897609054"><ele>411.0</ele><time>2026-03-27T10:41:46Z</time></trkpt><trkpt lat="39.266639409227466" lon="16.248889075084186"><ele>391.5</ele><time>2026-03-27T10:41:47Z</time></trkpt><trkpt lat="39.266416013009376" lon="16.24901193079595"><ele>372.0</ele><time>2026-03-27T10:41:48Z</time></trkpt><trkpt lat="39.26619090343841" lon="16.24911766795999"><ele>372.0</ele><time>2026-03-27T10:41:49Z</time></trkpt><trkpt lat="39.26596760569084" lon="16.24921270870381"><ele>372.0</ele><time>2026-03-27T10:41:50Z</time></trkpt><trkpt lat="39.26574526792064" lon="16.24930469315521"><ele>391.5</ele><time>2026-03-27T10:41:51Z</time></trkpt><trkpt lat="39.26551867788464" lon="16.2494017358889"><ele>411.0</ele><time>2026-03-27T10:41:52Z</time></trkpt><trkpt lat="39.265290307998704" lon="16.24950236744865"><ele>411.0</ele><time>2026-03-27T10:41:53Z</time></trkpt><trkpt lat="39.265060141662445" lon="16.249601620922984"><ele>411.0</ele><time>2026-03-27T10:41:54Z</time></trkpt><trkpt lat="39.26482654948258" lon="16.249700255197386"><ele>406.0</ele><time>2026-03-27T10:41:55Z</time></trkpt><trkpt lat="39.264589064480354" lon="16.249800345540653"><ele>401.0</ele><time>2026-03-27T10:41:56Z</time></trkpt><trkpt lat="39.264350267076665" lon="16.2499021308084"><ele>401.0</ele><time>2026-03-27T10:41:57Z</time></trkpt><trkpt lat="39.264110545546934" lon="16.250005029334034"><ele>401.0</ele><time>2026-03-27T10:41:58Z</time></trkpt><trkpt lat="39.26387178978982" lon="16.25010464914833"><ele>400.5</ele><time>2026-03-27T10:41:59Z</time></trkpt><trkpt lat="39.26363254030953" lon="16.25020428197358"><ele>400.0</ele><time>2026-03-27T10:42:00Z</time></trkpt><trkpt lat="39.263392611625264" lon="16.250306943019474"><ele>400.0</ele><time>2026-03-27T10:42:01Z</time></trkpt><trkpt lat="39.263160000250146" lon="16.25042480599624"><ele>400.0</ele><time>2026-03-27T10:42:02Z</time></trkpt><trkpt lat="39.2629289048292" lon="16.250554552772623"><ele>378.5</ele><time>2026-03-27T10:42:03Z</time></trkpt><trkpt lat="39.26270010030918" lon="16.250695366069028"><ele>357.0</ele><time>2026-03-27T10:42:04Z</time></trkpt><trkpt lat="39.262474850898094" lon="16.250842186137934"><ele>357.0</ele><time>2026-03-27T10:42:05Z</time></trkpt><trkpt lat="39.26225034926295" lon="16.250996110451695"><ele>357.0</ele><time>2026-03-27T10:42:06Z</time></trkpt><trkpt lat="39.262028191756144" lon="16.25115653119674"><ele>357.0</ele><time>2026-03-27T10:42:07Z</time></trkpt><trkpt lat="39.26180923512347" lon="16.251325145123346"><ele>357.0</ele><time>2026-03-27T10:42:08Z</time></trkpt><trkpt lat="39.26159242234934" lon="16.25150054431988"><ele>390.0</ele><time>2026-03-27T10:42:09Z</time></trkpt><trkpt lat="39.26138272658495" lon="16.25168442620149"><ele>423.0</ele><time>2026-03-27T10:42:10Z</time></trkpt><trkpt lat="39.261180223870866" lon="16.251875308609588"><ele>423.0</ele><time>2026-03-27T10:42:11Z</time></trkpt><trkpt lat="39.26098303290169" lon="16.252070456167605"><ele>423.0</ele><time>2026-03-27T10:42:12Z</time></trkpt><trkpt lat="39.260787658481775" lon="16.252273799581282"><ele>436.5</ele><time>2026-03-27T10:42:13Z</time></trkpt><trkpt lat="39.260594385553745" lon="16.252490806972236"><ele>450.0</ele><time>2026-03-27T10:42:14Z</time></trkpt><trkpt lat="39.26040372198817" lon="16.25272204948134"><ele>450.0</ele><time>2026-03-27T10:42:15Z</time></trkpt><trkpt lat="39.260213157436866" lon="16.25296669301637"><ele>450.0</ele><time>2026-03-27T10:42:16Z</time></trkpt><trkpt lat="39.260023409800056" lon="16.253221321819193"><ele>445.5</ele><time>2026-03-27T10:42:17Z</time></trkpt><trkpt lat="39.25983416572357" lon="16.2534858338558"><ele>441.0</ele><time>2026-03-27T10:42:18Z</time></trkpt><trkpt lat="39.25964441850841" lon="16.253759526204163"><ele>422.5</ele><time>2026-03-27T10:42:19Z</time></trkpt><trkpt lat="39.25948543273454" lon="16.25403155765784"><ele>404.0</ele><time>2026-03-27T10:42:20Z</time></trkpt><trkpt lat="39.25931749117505" lon="16.254321479189354"><ele>404.0</ele><time>2026-03-27T10:42:21Z</time></trkpt><trkpt lat="39.25915568432891" lon="16.254608181037558"><ele>404.0</ele><time>2026-03-27T10:42:22Z</time></trkpt><trkpt lat="39.25900109046359" lon="16.25489604118124"><ele>420.5</ele><time>2026-03-27T10:42:23Z</time></trkpt><trkpt lat="39.258843036635966" lon="16.255212123909473"><ele>437.0</ele><time>2026-03-27T10:42:24Z</time></trkpt><trkpt lat="39.258695902586076" lon="16.25552260428128"><ele>425.5</ele><time>2026-03-27T10:42:25Z</time></trkpt><trkpt lat="39.25855061446059" lon="16.25583686840438"><ele>414.0</ele><time>2026-03-27T10:42:26Z</time></trkpt><trkpt lat="39.258407344767086" lon="16.25614429876846"><ele>414.0</ele><time>2026-03-27T10:42:27Z</time></trkpt><trkpt lat="39.25827081457635" lon="16.25644707784128"><ele>414.0</ele><time>2026-03-27T10:42:28Z</time></trkpt><trkpt lat="39.25811925071583" lon="16.256732935722862"><ele>417.0</ele><time>2026-03-27T10:42:29Z</time></trkpt><trkpt lat="39.25799760533768" lon="16.25702618226725"><ele>420.0</ele><time>2026-03-27T10:42:30Z</time></trkpt><trkpt lat="39.25787121148684" lon="16.25732810143164"><ele>420.0</ele><time>2026-03-27T10:42:31Z</time></trkpt><trkpt lat="39.2577581964455" lon="16.25763705359847"><ele>420.0</ele><time>2026-03-27T10:42:32Z</time></trkpt><trkpt lat="39.257654069023815" lon="16.257946940965525"><ele>414.0</ele><time>2026-03-27T10:42:33Z</time></trkpt><trkpt lat="39.25756251779318" lon="16.258271197819944"><ele>408.0</ele><time>2026-03-27T10:42:34Z</time></trkpt><trkpt lat="39.257486677227604" lon="16.258606846084778"><ele>406.0</ele><time>2026-03-27T10:42:35Z</time></trkpt><trkpt lat="39.257417098272924" lon="16.25895285498505"><ele>404.0</ele><time>2026-03-27T10:42:36Z</time></trkpt><trkpt lat="39.25736891275818" lon="16.259303911982407"><ele>404.0</ele><time>2026-03-27T10:42:37Z</time></trkpt><trkpt lat="39.25734386124484" lon="16.25966513388443"><ele>404.0</ele><time>2026-03-27T10:42:38Z</time></trkpt><trkpt lat="39.25733283603479" lon="16.260005272421637"><ele>400.0</ele><time>2026-03-27T10:42:39Z</time></trkpt><trkpt lat="39.25731161322588" lon="16.26038142013553"><ele>396.0</ele><time>2026-03-27T10:42:40Z</time></trkpt><trkpt lat="39.25729877433139" lon="16.260741629388672"><ele>394.5</ele><time>2026-03-27T10:42:41Z</time></trkpt><trkpt lat="39.257281918513485" lon="16.261100209689065"><ele>393.0</ele><time>2026-03-27T10:42:42Z</time></trkpt><trkpt lat="39.25725485344943" lon="16.261457651957336"><ele>381.5</ele><time>2026-03-27T10:42:43Z</time></trkpt><trkpt lat="39.25723524584716" lon="16.26181845318841"><ele>370.0</ele><time>2026-03-27T10:42:44Z</time></trkpt><trkpt lat="39.25722048705884" lon="16.262171882619583"><ele>376.0</ele><time>2026-03-27T10:42:45Z</time></trkpt><trkpt lat="39.25720269196969" lon="16.262520295586356"><ele>382.0</ele><time>2026-03-27T10:42:46Z</time></trkpt><trkpt lat="39.2571821851534" lon="16.26286958713314"><ele>402.5</ele><time>2026-03-27T10:42:47Z</time></trkpt><trkpt lat="39.25715221871068" lon="16.263220302808342"><ele>423.0</ele><time>2026-03-27T10:42:48Z</time></trkpt><trkpt lat="39.257104772361764" lon="16.263575320547186"><ele>423.0</ele><time>2026-03-27T10:42:49Z</time></trkpt><trkpt lat="39.25705628889149" lon="16.263931358526964"><ele>423.0</ele><time>2026-03-27T10:42:50Z</time></trkpt><trkpt lat="39.257003396333424" lon="16.26428260165156"><ele>431.0</ele><time>2026-03-27T10:42:51Z</time></trkpt><trkpt lat="39.25695034278159" lon="16.264632035136994"><ele>439.0</ele><time>2026-03-27T10:42:52Z</time></trkpt><trkpt lat="39.25688694094533" lon="16.264981392509412"><ele>439.0</ele><time>2026-03-27T10:42:53Z</time></trkpt><trkpt lat="39.256815369877174" lon="16.26533080832641"><ele>439.0</ele><time>2026-03-27T10:42:54Z</time></trkpt><trkpt lat="39.25674421091439" lon="16.265677714726007"><ele>434.5</ele><time>2026-03-27T10:42:55Z</time></trkpt><trkpt lat="39.25667132003115" lon="16.266023235418267"><ele>430.0</ele><time>2026-03-27T10:42:56Z</time></trkpt><trkpt lat="39.25658922301064" lon="16.266369179063474"><ele>423.5</ele><time>2026-03-27T10:42:57Z</time></trkpt><trkpt lat="39.256504495777094" lon="16.266710743134304"><ele>417.0</ele><time>2026-03-27T10:42:58Z</time></trkpt><trkpt lat="39.256415217689224" lon="16.267047217137016"><ele>437.0</ele><time>2026-03-27T10:42:59Z</time></trkpt><trkpt lat="39.256322106810046" lon="16.267378529018316"><ele>457.0</ele><time>2026-03-27T10:43:00Z</time></trkpt><trkpt lat="39.25622135769026" lon="16.26770115482114"><ele>457.0</ele><time>2026-03-27T10:43:01Z</time></trkpt><trkpt lat="39.25611099297452" lon="16.268024434757727"><ele>457.0</ele><time>2026-03-27T10:43:02Z</time></trkpt><trkpt lat="39.25602401272926" lon="16.268372833488623"><ele>448.5</ele><time>2026-03-27T10:43:03Z</time></trkpt><trkpt lat="39.255910091562356" lon="16.26868785061029"><ele>440.0</ele><time>2026-03-27T10:43:04Z</time></trkpt><trkpt lat="39.255803974038365" lon="16.269011311869033"><ele>436.0</ele><time>2026-03-27T10:43:05Z</time></trkpt><trkpt lat="39.255707766862294" lon="16.26931966410849"><ele>432.0</ele><time>2026-03-27T10:43:06Z</time></trkpt><trkpt lat="39.25559052822393" lon="16.26965113793345"><ele>436.0</ele><time>2026-03-27T10:43:07Z</time></trkpt><trkpt lat="39.25547562670056" lon="16.269973473714945"><ele>440.0</ele><time>2026-03-27T10:43:08Z</time></trkpt><trkpt lat="39.2553502231944" lon="16.27029026754146"><ele>440.0</ele><time>2026-03-27T10:43:09Z</time></trkpt><trkpt lat="39.25521430463775" lon="16.27060219439344"><ele>440.0</ele><time>2026-03-27T10:43:10Z</time></trkpt><trkpt lat="39.255076038468594" lon="16.270911030084807"><ele>435.5</ele><time>2026-03-27T10:43:11Z</time></trkpt><trkpt lat="39.25493120809634" lon="16.271216840189435"><ele>431.0</ele><time>2026-03-27T10:43:12Z</time></trkpt><trkpt lat="39.2547851744062" lon="16.271527606861813"><ele>430.5</ele><time>2026-03-27T10:43:13Z</time></trkpt><trkpt lat="39.25464377419715" lon="16.27184176190865"><ele>430.0</ele><time>2026-03-27T10:43:14Z</time></trkpt><trkpt lat="39.25449925484878" lon="16.272154523502948"><ele>432.5</ele><time>2026-03-27T10:43:15Z</time></trkpt><trkpt lat="39.25435662508311" lon="16.27245687804323"><ele>435.0</ele><time>2026-03-27T10:43:16Z</time></trkpt><trkpt lat="39.25420916890997" lon="16.272762953184483"><ele>435.0</ele><time>2026-03-27T10:43:17Z</time></trkpt><trkpt lat="39.25406293572271" lon="16.273065495889497"><ele>435.0</ele><time>2026-03-27T10:43:18Z</time></trkpt><trkpt lat="39.2539145225894" lon="16.27337111446006"><ele>450.0</ele><time>2026-03-27T10:43:19Z</time></trkpt><trkpt lat="39.25377948518226" lon="16.273663131750208"><ele>465.0</ele><time>2026-03-27T10:43:20Z</time></trkpt><trkpt lat="39.25362412927494" lon="16.273959214552942"><ele>465.0</ele><time>2026-03-27T10:43:21Z</time></trkpt><trkpt lat="39.25348759058674" lon="16.274269584646934"><ele>465.0</ele><time>2026-03-27T10:43:22Z</time></trkpt><trkpt lat="39.2533540842743" lon="16.27455940298606"><ele>459.5</ele><time>2026-03-27T10:43:23Z</time></trkpt><trkpt lat="39.25321295582511" lon="16.274853408077572"><ele>454.0</ele><time>2026-03-27T10:43:24Z</time></trkpt><trkpt lat="39.25307578997433" lon="16.275143785636846"><ele>464.0</ele><time>2026-03-27T10:43:25Z</time></trkpt><trkpt lat="39.25294071866219" lon="16.275440812303415"><ele>474.0</ele><time>2026-03-27T10:43:26Z</time></trkpt><trkpt lat="39.25280937380222" lon="16.275716701327404"><ele>474.0</ele><time>2026-03-27T10:43:27Z</time></trkpt><trkpt lat="39.25265549845098" lon="16.275987742728486"><ele>474.0</ele><time>2026-03-27T10:43:28Z</time></trkpt><trkpt lat="39.252479071011294" lon="16.27624243022502"><ele>477.5</ele><time>2026-03-27T10:43:29Z</time></trkpt><trkpt lat="39.25230826339841" lon="16.276510890751613"><ele>481.0</ele><time>2026-03-27T10:43:30Z</time></trkpt><trkpt lat="39.25212610005038" lon="16.276770236674405"><ele>481.0</ele><time>2026-03-27T10:43:31Z</time></trkpt><trkpt lat="39.2519420201343" lon="16.27702968463664"><ele>481.0</ele><time>2026-03-27T10:43:32Z</time></trkpt><trkpt lat="39.251752169901934" lon="16.277284596143343"><ele>482.0</ele><time>2026-03-27T10:43:33Z</time></trkpt><trkpt lat="39.25155351412682" lon="16.277531593452697"><ele>483.0</ele><time>2026-03-27T10:43:34Z</time></trkpt><trkpt lat="39.251349234628044" lon="16.277772397123798"><ele>483.0</ele><time>2026-03-27T10:43:35Z</time></trkpt><trkpt lat="39.25113413532037" lon="16.27800286126708"><ele>483.0</ele><time>2026-03-27T10:43:36Z</time></trkpt><trkpt lat="39.250915238032256" lon="16.278226137497676"><ele>487.5</ele><time>2026-03-27T10:43:37Z</time></trkpt><trkpt lat="39.250691076856704" lon="16.278439996819547"><ele>492.0</ele><time>2026-03-27T10:43:38Z</time></trkpt><trkpt lat="39.25046063081955" lon="16.278645292710785"><ele>492.0</ele><time>2026-03-27T10:43:39Z</time></trkpt><trkpt lat="39.250229209319016" lon="16.278843291183563"><ele>492.0</ele><time>2026-03-27T10:43:40Z</time></trkpt><trkpt lat="39.24999423345717" lon="16.27903075848013"><ele>492.0</ele><time>2026-03-27T10:43:41Z</time></trkpt><trkpt lat="39.249764629570144" lon="16.279203080590104"><ele>492.0</ele><time>2026-03-27T10:43:42Z</time></trkpt><trkpt lat="39.24954162639828" lon="16.27935900924489"><ele>492.0</ele><time>2026-03-27T10:43:43Z</time></trkpt><trkpt lat="39.249334626031036" lon="16.2794996016213"><ele>492.0</ele><time>2026-03-27T10:43:44Z</time></trkpt><trkpt lat="39.24915567048084" lon="16.279620056174178"><ele>492.0</ele><time>2026-03-27T10:43:45Z</time></trkpt><trkpt lat="39.24900761608333" lon="16.27972546534767"><ele>491.25</ele><time>2026-03-27T10:43:46Z</time></trkpt><trkpt lat="39.24887856387716" lon="16.279812485830206"><ele>490.5</ele><time>2026-03-27T10:43:47Z</time></trkpt><trkpt lat="39.248761712078874" lon="16.279894398541536"><ele>489.75</ele><time>2026-03-27T10:43:48Z</time></trkpt><trkpt lat="39.248653112896186" lon="16.279971838276477"><ele>489.0</ele><time>2026-03-27T10:43:49Z</time></trkpt><trkpt lat="39.24852544718769" lon="16.28006878363209"><ele>489.0</ele><time>2026-03-27T10:43:50Z</time></trkpt><trkpt lat="39.248394187318304" lon="16.280171752533573"><ele>489.0</ele><time>2026-03-27T10:43:51Z</time></trkpt><trkpt lat="39.248258928598204" lon="16.280282420913448"><ele>489.0</ele><time>2026-03-27T10:43:52Z</time></trkpt><trkpt lat="39.248121620996855" lon="16.280403301746357"><ele>492.0</ele><time>2026-03-27T10:43:53Z</time></trkpt><trkpt lat="39.247982758079516" lon="16.280527614182784"><ele>495.0</ele><time>2026-03-27T10:43:54Z</time></trkpt><trkpt lat="39.24785619718846" lon="16.28064307203518"><ele>498.0</ele><time>2026-03-27T10:43:55Z</time></trkpt><trkpt lat="39.24773471408407" lon="16.28076255812542"><ele>498.0</ele><time>2026-03-27T10:43:56Z</time></trkpt><trkpt lat="39.24760933729243" lon="16.280886354860534"><ele>498.0</ele><time>2026-03-27T10:43:57Z</time></trkpt><trkpt lat="39.24748167071486" lon="16.281010029711183"><ele>498.0</ele><time>2026-03-27T10:43:58Z</time></trkpt><trkpt lat="39.24734527761608" lon="16.28114073748904"><ele>500.33333333333337</ele><time>2026-03-27T10:43:59Z</time></trkpt><trkpt lat="39.247201218593155" lon="16.281275495434578"><ele>502.6666666666667</ele><time>2026-03-27T10:44:00Z</time></trkpt><trkpt lat="39.247046055255" lon="16.281414541768996"><ele>505.0</ele><time>2026-03-27T10:44:01Z</time></trkpt><trkpt lat="39.24689164019314" lon="16.281551800637672"><ele>505.0</ele><time>2026-03-27T10:44:02Z</time></trkpt><trkpt lat="39.24673746300934" lon="16.281689935243183"><ele>505.0</ele><time>2026-03-27T10:44:03Z</time></trkpt><trkpt lat="39.246595949364" lon="16.28182125559875"><ele>505.0</ele><time>2026-03-27T10:44:04Z</time></trkpt><trkpt lat="39.246459742010984" lon="16.281944467738803"><ele>508.33333333333337</ele><time>2026-03-27T10:44:05Z</time></trkpt><trkpt lat="39.24632300608806" lon="16.282067698289467"><ele>511.66666666666663</ele><time>2026-03-27T10:44:06Z</time></trkpt><trkpt lat="39.2461866762852" lon="16.282193241217726"><ele>515.0</ele><time>2026-03-27T10:44:07Z</time></trkpt><trkpt lat="39.246059342078205" lon="16.28230488225392"><ele>515.0</ele><time>2026-03-27T10:44:08Z</time></trkpt><trkpt lat="39.245924794058446" lon="16.28242882903616"><ele>515.0</ele><time>2026-03-27T10:44:09Z</time></trkpt><trkpt lat="39.24577599599559" lon="16.28256819354966"><ele>515.0</ele><time>2026-03-27T10:44:10Z</time></trkpt><trkpt lat="39.24564817542421" lon="16.282694986032038"><ele>517.0</ele><time>2026-03-27T10:44:11Z</time></trkpt><trkpt lat="39.245510630999846" lon="16.282815983393178"><ele>519.0</ele><time>2026-03-27T10:44:12Z</time></trkpt><trkpt lat="39.24537888248164" lon="16.282934346946004"><ele>521.0</ele><time>2026-03-27T10:44:13Z</time></trkpt><trkpt lat="39.24524638884988" lon="16.28305221678154"><ele>518.3333333333333</ele><time>2026-03-27T10:44:14Z</time></trkpt><trkpt lat="39.24511205738102" lon="16.283172638683435"><ele>515.6666666666666</ele><time>2026-03-27T10:44:15Z</time></trkpt><trkpt lat="39.244976668304034" lon="16.283297231449918"><ele>513.0</ele><time>2026-03-27T10:44:16Z</time></trkpt><trkpt lat="39.24484424489045" lon="16.28342707672292"><ele>517.3333333333334</ele><time>2026-03-27T10:44:17Z</time></trkpt><trkpt lat="39.24470129512983" lon="16.283558829206445"><ele>521.6666666666667</ele><time>2026-03-27T10:44:18Z</time></trkpt><trkpt lat="39.244561723609046" lon="16.28369053734835"><ele>526.0</ele><time>2026-03-27T10:44:19Z</time></trkpt><trkpt lat="39.24442619416023" lon="16.283826089432022"><ele>523.0</ele><time>2026-03-27T10:44:20Z</time></trkpt><trkpt lat="39.24429174656315" lon="16.283957688424575"><ele>520.0</ele><time>2026-03-27T10:44:21Z</time></trkpt><trkpt lat="39.24415860588236" lon="16.284095003350814"><ele>517.0</ele><time>2026-03-27T10:44:22Z</time></trkpt><trkpt lat="39.2440405055349" lon="16.2842403229323"><ele>521.6666666666667</ele><time>2026-03-27T10:44:23Z</time></trkpt><trkpt lat="39.24392238016513" lon="16.28439554428161"><ele>526.3333333333334</ele><time>2026-03-27T10:44:24Z</time></trkpt><trkpt lat="39.24380348077601" lon="16.284558638677176"><ele>531.0</ele><time>2026-03-27T10:44:25Z</time></trkpt><trkpt lat="39.24367905012166" lon="16.284727655599898"><ele>528.3333333333334</ele><time>2026-03-27T10:44:26Z</time></trkpt><trkpt lat="39.24354325193531" lon="16.28491138272619"><ele>525.6666666666667</ele><time>2026-03-27T10:44:27Z</time></trkpt><trkpt lat="39.24338203663596" lon="16.285034359227517"><ele>523.0</ele><time>2026-03-27T10:44:28Z</time></trkpt><trkpt lat="39.24324479073839" lon="16.285173904024333"><ele>524.6666666666667</ele><time>2026-03-27T10:44:29Z</time></trkpt><trkpt lat="39.243108414065645" lon="16.28542305233449"><ele>526.3333333333334</ele><time>2026-03-27T10:44:30Z</time></trkpt><trkpt lat="39.24297601194791" lon="16.28561899627219"><ele>528.0</ele><time>2026-03-27T10:44:31Z</time></trkpt><trkpt lat="39.24284391348119" lon="16.285817296216727"><ele>529.0</ele><time>2026-03-27T10:44:32Z</time></trkpt><trkpt lat="39.242709542691465" lon="16.286021266869664"><ele>530.0</ele><time>2026-03-27T10:44:33Z</time></trkpt><trkpt lat="39.2425735552391" lon="16.286232484883833"><ele>531.0</ele><time>2026-03-27T10:44:34Z</time></trkpt><trkpt lat="39.242438763929876" lon="16.286446905360147"><ele>529.6666666666666</ele><time>2026-03-27T10:44:35Z</time></trkpt><trkpt lat="39.24229628354143" lon="16.286664199024635"><ele>528.3333333333333</ele><time>2026-03-27T10:44:36Z</time></trkpt><trkpt lat="39.242152937455884" lon="16.28688077045059"><ele>527.0</ele><time>2026-03-27T10:44:37Z</time></trkpt><trkpt lat="39.24200343581038" lon="16.28709634484112"><ele>528.5</ele><time>2026-03-27T10:44:38Z</time></trkpt><trkpt lat="39.2418503437603" lon="16.28731943405986"><ele>530.0</ele><time>2026-03-27T10:44:39Z</time></trkpt><trkpt lat="39.24169571970871" lon="16.287546203840648"><ele>530.0</ele><time>2026-03-27T10:44:40Z</time></trkpt><trkpt lat="39.24154151876044" lon="16.287777088048028"><ele>530.0</ele><time>2026-03-27T10:44:41Z</time></trkpt><trkpt lat="39.241384029617066" lon="16.28801663365422"><ele>534.0</ele><time>2026-03-27T10:44:42Z</time></trkpt><trkpt lat="39.2412225309139" lon="16.288257401489407"><ele>538.0</ele><time>2026-03-27T10:44:43Z</time></trkpt><trkpt lat="39.24105481149089" lon="16.288493291392456"><ele>538.0</ele><time>2026-03-27T10:44:44Z</time></trkpt><trkpt lat="39.2408735863966" lon="16.28872643545316"><ele>538.0</ele><time>2026-03-27T10:44:45Z</time></trkpt><trkpt lat="39.2406852797584" lon="16.288954050703904"><ele>533.5</ele><time>2026-03-27T10:44:46Z</time></trkpt><trkpt lat="39.240489305136016" lon="16.28917288023388"><ele>529.0</ele><time>2026-03-27T10:44:47Z</time></trkpt><trkpt lat="39.24028630565566" lon="16.28939139217128"><ele>529.0</ele><time>2026-03-27T10:44:48Z</time></trkpt><trkpt lat="39.24007868734863" lon="16.28960709845504"><ele>529.0</ele><time>2026-03-27T10:44:49Z</time></trkpt><trkpt lat="39.23986667597475" lon="16.289822681409458"><ele>532.0</ele><time>2026-03-27T10:44:50Z</time></trkpt><trkpt lat="39.23965662068921" lon="16.290036563049895"><ele>535.0</ele><time>2026-03-27T10:44:51Z</time></trkpt><trkpt lat="39.2394427941194" lon="16.290252583043475"><ele>535.0</ele><time>2026-03-27T10:44:52Z</time></trkpt><trkpt lat="39.23923115790743" lon="16.290470086850533"><ele>535.0</ele><time>2026-03-27T10:44:53Z</time></trkpt><trkpt lat="39.239019376211346" lon="16.290691319373273"><ele>534.5</ele><time>2026-03-27T10:44:54Z</time></trkpt><trkpt lat="39.238808261880834" lon="16.29091681239613"><ele>534.0</ele><time>2026-03-27T10:44:55Z</time></trkpt><trkpt lat="39.23860154596346" lon="16.291146275473707"><ele>534.0</ele><time>2026-03-27T10:44:56Z</time></trkpt><trkpt lat="39.23840232485072" lon="16.29138793969879"><ele>534.0</ele><time>2026-03-27T10:44:57Z</time></trkpt><trkpt lat="39.23821343324457" lon="16.2916424313335"><ele>530.5</ele><time>2026-03-27T10:44:58Z</time></trkpt><trkpt lat="39.23802753256891" lon="16.29190288962559"><ele>527.0</ele><time>2026-03-27T10:44:59Z</time></trkpt><trkpt lat="39.23784389599126" lon="16.29216122716461"><ele>536.5</ele><time>2026-03-27T10:45:00Z</time></trkpt><trkpt lat="39.23767060750061" lon="16.292400223054845"><ele>546.0</ele><time>2026-03-27T10:45:01Z</time></trkpt><trkpt lat="39.237507275855464" lon="16.29261965420206"><ele>546.0</ele><time>2026-03-27T10:45:02Z</time></trkpt><trkpt lat="39.23735734774422" lon="16.292821660871788"><ele>546.0</ele><time>2026-03-27T10:45:03Z</time></trkpt><trkpt lat="39.23721615110873" lon="16.293014550965538"><ele>546.0</ele><time>2026-03-27T10:45:04Z</time></trkpt><trkpt lat="39.23707682541271" lon="16.293207085715753"><ele>544.6666666666666</ele><time>2026-03-27T10:45:05Z</time></trkpt><trkpt lat="39.23693440500658" lon="16.2934044644965"><ele>543.3333333333333</ele><time>2026-03-27T10:45:06Z</time></trkpt><trkpt lat="39.23679070114763" lon="16.293602691296012"><ele>542.0</ele><time>2026-03-27T10:45:07Z</time></trkpt><trkpt lat="39.23664683373192" lon="16.293799798629983"><ele>542.0</ele><time>2026-03-27T10:45:08Z</time></trkpt><trkpt lat="39.23649989205537" lon="16.294001211461577"><ele>542.0</ele><time>2026-03-27T10:45:09Z</time></trkpt><trkpt lat="39.23635388364014" lon="16.294201927569336"><ele>542.0</ele><time>2026-03-27T10:45:10Z</time></trkpt><trkpt lat="39.236206691222996" lon="16.29440754801706"><ele>542.0</ele><time>2026-03-27T10:45:11Z</time></trkpt><trkpt lat="39.23606207890186" lon="16.29461196942257"><ele>542.0</ele><time>2026-03-27T10:45:12Z</time></trkpt><trkpt lat="39.23591869517779" lon="16.294812099407494"><ele>542.0</ele><time>2026-03-27T10:45:13Z</time></trkpt><trkpt lat="39.23577786477321" lon="16.295005817088818"><ele>542.0</ele><time>2026-03-27T10:45:14Z</time></trkpt><trkpt lat="39.23563894870976" lon="16.295193835787742"><ele>542.0</ele><time>2026-03-27T10:45:15Z</time></trkpt><trkpt lat="39.23549746223239" lon="16.295388483091482"><ele>542.0</ele><time>2026-03-27T10:45:16Z</time></trkpt><trkpt lat="39.23535841094954" lon="16.29558225541623"><ele>548.6666666666666</ele><time>2026-03-27T10:45:17Z</time></trkpt><trkpt lat="39.23521208975246" lon="16.295780207851355"><ele>555.3333333333334</ele><time>2026-03-27T10:45:18Z</time></trkpt><trkpt lat="39.23506180106799" lon="16.29598320590438"><ele>562.0</ele><time>2026-03-27T10:45:19Z</time></trkpt><trkpt lat="39.23490995264588" lon="16.296190590503468"><ele>561.5</ele><time>2026-03-27T10:45:20Z</time></trkpt><trkpt lat="39.23475424790003" lon="16.296402907722182"><ele>561.0</ele><time>2026-03-27T10:45:21Z</time></trkpt><trkpt lat="39.23459730354065" lon="16.29662180938601"><ele>561.0</ele><time>2026-03-27T10:45:22Z</time></trkpt><trkpt lat="39.23443613121108" lon="16.296844769957694"><ele>561.0</ele><time>2026-03-27T10:45:23Z</time></trkpt><trkpt lat="39.23427163429028" lon="16.297073221356502"><ele>559.5</ele><time>2026-03-27T10:45:24Z</time></trkpt><trkpt lat="39.23410146527104" lon="16.297304084647763"><ele>558.0</ele><time>2026-03-27T10:45:25Z</time></trkpt><trkpt lat="39.23392720061798" lon="16.29753909432822"><ele>558.0</ele><time>2026-03-27T10:45:26Z</time></trkpt><trkpt lat="39.23375158475991" lon="16.297777785955073"><ele>558.0</ele><time>2026-03-27T10:45:27Z</time></trkpt><trkpt lat="39.23357290601292" lon="16.298021997446895"><ele>565.5</ele><time>2026-03-27T10:45:28Z</time></trkpt><trkpt lat="39.23339229836517" lon="16.298268047546312"><ele>573.0</ele><time>2026-03-27T10:45:29Z</time></trkpt><trkpt lat="39.23321076508977" lon="16.298514897920526"><ele>572.5</ele><time>2026-03-27T10:45:30Z</time></trkpt><trkpt lat="39.233026636148914" lon="16.298762416990893"><ele>572.0</ele><time>2026-03-27T10:45:31Z</time></trkpt><trkpt lat="39.23283673906222" lon="16.299019412267388"><ele>572.0</ele><time>2026-03-27T10:45:32Z</time></trkpt><trkpt lat="39.23264542127052" lon="16.299280565497185"><ele>572.0</ele><time>2026-03-27T10:45:33Z</time></trkpt><trkpt lat="39.23245839172316" lon="16.299541964189814"><ele>571.5</ele><time>2026-03-27T10:45:34Z</time></trkpt><trkpt lat="39.23226933625905" lon="16.29980108206153"><ele>571.0</ele><time>2026-03-27T10:45:35Z</time></trkpt><trkpt lat="39.23207946554315" lon="16.30006352166843"><ele>571.0</ele><time>2026-03-27T10:45:36Z</time></trkpt><trkpt lat="39.23188793232956" lon="16.300321467331354"><ele>571.0</ele><time>2026-03-27T10:45:37Z</time></trkpt><trkpt lat="39.23169561248221" lon="16.30058607904985"><ele>571.5</ele><time>2026-03-27T10:45:38Z</time></trkpt><trkpt lat="39.2315019461697" lon="16.3008551538523"><ele>572.0</ele><time>2026-03-27T10:45:39Z</time></trkpt><trkpt lat="39.231312087817166" lon="16.301117023972402"><ele>572.0</ele><time>2026-03-27T10:45:40Z</time></trkpt><trkpt lat="39.231125160351425" lon="16.30137955705806"><ele>572.0</ele><time>2026-03-27T10:45:41Z</time></trkpt><trkpt lat="39.23094054093066" lon="16.301632680529686"><ele>574.5</ele><time>2026-03-27T10:45:42Z</time></trkpt><trkpt lat="39.230760572783744" lon="16.301881890144145"><ele>577.0</ele><time>2026-03-27T10:45:43Z</time></trkpt><trkpt lat="39.23058119876154" lon="16.302122641501068"><ele>580.0</ele><time>2026-03-27T10:45:44Z</time></trkpt><trkpt lat="39.23039373135203" lon="16.302360765518007"><ele>583.0</ele><time>2026-03-27T10:45:45Z</time></trkpt><trkpt lat="39.23019600900469" lon="16.302590405890932"><ele>583.0</ele><time>2026-03-27T10:45:46Z</time></trkpt><trkpt lat="39.22998734764285" lon="16.302800071801443"><ele>583.0</ele><time>2026-03-27T10:45:47Z</time></trkpt><trkpt lat="39.22976755518433" lon="16.302999714062953"><ele>587.0</ele><time>2026-03-27T10:45:48Z</time></trkpt><trkpt lat="39.229537816737334" lon="16.303175011156608"><ele>591.0</ele><time>2026-03-27T10:45:49Z</time></trkpt><trkpt lat="39.22931322529005" lon="16.303327282211697"><ele>591.0</ele><time>2026-03-27T10:45:50Z</time></trkpt><trkpt lat="39.229083318229385" lon="16.30345245523946"><ele>591.0</ele><time>2026-03-27T10:45:51Z</time></trkpt><trkpt lat="39.22885062440156" lon="16.303564571627575"><ele>590.0</ele><time>2026-03-27T10:45:52Z</time></trkpt><trkpt lat="39.22863031641795" lon="16.303618389919794"><ele>589.0</ele><time>2026-03-27T10:45:53Z</time></trkpt><trkpt lat="39.228427602526985" lon="16.303700307580637"><ele>588.0</ele><time>2026-03-27T10:45:54Z</time></trkpt><trkpt lat="39.22821449166843" lon="16.303758979508938"><ele>589.0</ele><time>2026-03-27T10:45:55Z</time></trkpt><trkpt lat="39.2280115499805" lon="16.303799858620202"><ele>590.0</ele><time>2026-03-27T10:45:56Z</time></trkpt><trkpt lat="39.227827209865225" lon="16.30383991748525"><ele>591.0</ele><time>2026-03-27T10:45:57Z</time></trkpt><trkpt lat="39.22764724235525" lon="16.30386765111641"><ele>591.0</ele><time>2026-03-27T10:45:58Z</time></trkpt><trkpt lat="39.22747159988022" lon="16.30388950043752"><ele>591.0</ele><time>2026-03-27T10:45:59Z</time></trkpt><trkpt lat="39.22729556289455" lon="16.303911104363515"><ele>591.0</ele><time>2026-03-27T10:46:00Z</time></trkpt><trkpt lat="39.227121805245076" lon="16.303931613031565"><ele>595.6666666666666</ele><time>2026-03-27T10:46:01Z</time></trkpt><trkpt lat="39.22694977833178" lon="16.303952610577003"><ele>600.3333333333333</ele><time>2026-03-27T10:46:02Z</time></trkpt><trkpt lat="39.226767105826184" lon="16.30396917137927"><ele>605.0</ele><time>2026-03-27T10:46:03Z</time></trkpt><trkpt lat="39.226582679129" lon="16.303996533003133"><ele>606.3333333333333</ele><time>2026-03-27T10:46:04Z</time></trkpt><trkpt lat="39.22641425919508" lon="16.304012528130187"><ele>607.6666666666666</ele><time>2026-03-27T10:46:05Z</time></trkpt><trkpt lat="39.22625305773344" lon="16.30402709111038"><ele>609.0</ele><time>2026-03-27T10:46:06Z</time></trkpt><trkpt lat="39.226090581854066" lon="16.304040741906597"><ele>609.0</ele><time>2026-03-27T10:46:07Z</time></trkpt><trkpt lat="39.225929588814246" lon="16.304066505808358"><ele>609.0</ele><time>2026-03-27T10:46:08Z</time></trkpt><trkpt lat="39.225756862267616" lon="16.304085548001982"><ele>609.0</ele><time>2026-03-27T10:46:09Z</time></trkpt><trkpt lat="39.225585355721606" lon="16.30410162908567"><ele>610.3333333333334</ele><time>2026-03-27T10:46:10Z</time></trkpt><trkpt lat="39.22541249423594" lon="16.30412025835364"><ele>611.6666666666667</ele><time>2026-03-27T10:46:11Z</time></trkpt><trkpt lat="39.22524074268708" lon="16.304140730425225"><ele>613.0</ele><time>2026-03-27T10:46:12Z</time></trkpt><trkpt lat="39.22506583126641" lon="16.304160738876877"><ele>613.0</ele><time>2026-03-27T10:46:13Z</time></trkpt><trkpt lat="39.22489499214088" lon="16.30417911909809"><ele>613.0</ele><time>2026-03-27T10:46:14Z</time></trkpt><trkpt lat="39.2247278909448" lon="16.304198134916884"><ele>613.0</ele><time>2026-03-27T10:46:15Z</time></trkpt><trkpt lat="39.22455235402829" lon="16.304219107891917"><ele>615.0</ele><time>2026-03-27T10:46:16Z</time></trkpt><trkpt lat="39.224377200711686" lon="16.30423697879727"><ele>617.0</ele><time>2026-03-27T10:46:17Z</time></trkpt><trkpt lat="39.22420389730633" lon="16.30425631592944"><ele>619.0</ele><time>2026-03-27T10:46:18Z</time></trkpt><trkpt lat="39.22403602502347" lon="16.304276931179675"><ele>620.0</ele><time>2026-03-27T10:46:19Z</time></trkpt><trkpt lat="39.2238665370258" lon="16.30429897868853"><ele>621.0</ele><time>2026-03-27T10:46:20Z</time></trkpt><trkpt lat="39.22369684514896" lon="16.30431940628165"><ele>622.0</ele><time>2026-03-27T10:46:21Z</time></trkpt><trkpt lat="39.22352224373835" lon="16.304347562840775"><ele>622.0</ele><time>2026-03-27T10:46:22Z</time></trkpt><trkpt lat="39.22335798547495" lon="16.304361560670547"><ele>622.0</ele><time>2026-03-27T10:46:23Z</time></trkpt><trkpt lat="39.22318712896233" lon="16.304374984517928"><ele>622.0</ele><time>2026-03-27T10:46:24Z</time></trkpt><trkpt lat="39.223023982614876" lon="16.304395724643804"><ele>622.6666666666667</ele><time>2026-03-27T10:46:25Z</time></trkpt><trkpt lat="39.22285960220772" lon="16.304415265301074"><ele>623.3333333333334</ele><time>2026-03-27T10:46:26Z</time></trkpt><trkpt lat="39.2226938664336" lon="16.304437081317616"><ele>624.0</ele><time>2026-03-27T10:46:27Z</time></trkpt><trkpt lat="39.222522691581034" lon="16.304459771609594"><ele>624.0</ele><time>2026-03-27T10:46:28Z</time></trkpt><trkpt lat="39.22234871883151" lon="16.30448063838977"><ele>624.0</ele><time>2026-03-27T10:46:29Z</time></trkpt><trkpt lat="39.2221754208338" lon="16.304499959535054"><ele>624.0</ele><time>2026-03-27T10:46:30Z</time></trkpt><trkpt lat="39.22200049039951" lon="16.30451831407246"><ele>623.6666666666666</ele><time>2026-03-27T10:46:31Z</time></trkpt><trkpt lat="39.22183103139953" lon="16.304540514288185"><ele>623.3333333333333</ele><time>2026-03-27T10:46:32Z</time></trkpt><trkpt lat="39.22165918125819" lon="16.304560443324682"><ele>623.0</ele><time>2026-03-27T10:46:33Z</time></trkpt><trkpt lat="39.221489088371115" lon="16.304584351073988"><ele>623.6666666666666</ele><time>2026-03-27T10:46:34Z</time></trkpt><trkpt lat="39.221310907790865" lon="16.304605711923294"><ele>624.3333333333334</ele><time>2026-03-27T10:46:35Z</time></trkpt><trkpt lat="39.22112931929665" lon="16.30462711694659"><ele>625.0</ele><time>2026-03-27T10:46:36Z</time></trkpt><trkpt lat="39.220942993976436" lon="16.304648970406348"><ele>625.0</ele><time>2026-03-27T10:46:37Z</time></trkpt><trkpt lat="39.220752635497234" lon="16.304672511296225"><ele>625.0</ele><time>2026-03-27T10:46:38Z</time></trkpt><trkpt lat="39.22056477096744" lon="16.30469394809836"><ele>625.0</ele><time>2026-03-27T10:46:39Z</time></trkpt><trkpt lat="39.22037307620878" lon="16.304719017959282"><ele>624.6666666666667</ele><time>2026-03-27T10:46:40Z</time></trkpt><trkpt lat="39.220179739278535" lon="16.30474221978084"><ele>624.3333333333334</ele><time>2026-03-27T10:46:41Z</time></trkpt><trkpt lat="39.21998629082912" lon="16.304765080245442"><ele>624.0</ele><time>2026-03-27T10:46:42Z</time></trkpt><trkpt lat="39.219791459247325" lon="16.304786348902844"><ele>626.0</ele><time>2026-03-27T10:46:43Z</time></trkpt><trkpt lat="39.21959183820554" lon="16.30480762660414"><ele>628.0</ele><time>2026-03-27T10:46:44Z</time></trkpt><trkpt lat="39.21939716391622" lon="16.304830491640868"><ele>630.0</ele><time>2026-03-27T10:46:45Z</time></trkpt><trkpt lat="39.219200821985574" lon="16.30485445664777"><ele>630.0</ele><time>2026-03-27T10:46:46Z</time></trkpt><trkpt lat="39.21900640935528" lon="16.304878143838845"><ele>630.0</ele><time>2026-03-27T10:46:47Z</time></trkpt><trkpt lat="39.21881164465552" lon="16.304904319233202"><ele>630.0</ele><time>2026-03-27T10:46:48Z</time></trkpt><trkpt lat="39.21861578402961" lon="16.304931031684507"><ele>631.6666666666666</ele><time>2026-03-27T10:46:49Z</time></trkpt><trkpt lat="39.218419101846465" lon="16.30495777552082"><ele>633.3333333333333</ele><time>2026-03-27T10:46:50Z</time></trkpt><trkpt lat="39.21823001023466" lon="16.304984111806565"><ele>635.0</ele><time>2026-03-27T10:46:51Z</time></trkpt><trkpt lat="39.21805156645617" lon="16.30501282449894"><ele>636.0</ele><time>2026-03-27T10:46:52Z</time></trkpt><trkpt lat="39.21787083729621" lon="16.305046012231642"><ele>637.0</ele><time>2026-03-27T10:46:53Z</time></trkpt><trkpt lat="39.21768642670701" lon="16.30508415195008"><ele>638.0</ele><time>2026-03-27T10:46:54Z</time></trkpt><trkpt lat="39.21750504640401" lon="16.30512374404536"><ele>640.3333333333333</ele><time>2026-03-27T10:46:55Z</time></trkpt><trkpt lat="39.21731840217919" lon="16.305165585522563"><ele>642.6666666666666</ele><time>2026-03-27T10:46:56Z</time></trkpt><trkpt lat="39.21713104084481" lon="16.30521321122646"><ele>645.0</ele><time>2026-03-27T10:46:57Z</time></trkpt><trkpt lat="39.216943651605774" lon="16.305261235513846"><ele>645.0</ele><time>2026-03-27T10:46:58Z</time></trkpt><trkpt lat="39.21675988641478" lon="16.305310223592546"><ele>645.0</ele><time>2026-03-27T10:46:59Z</time></trkpt><trkpt lat="39.21657528318534" lon="16.305361258880925"><ele>645.0</ele><time>2026-03-27T10:47:00Z</time></trkpt><trkpt lat="39.21639375354161" lon="16.305415791241792"><ele>644.3333333333334</ele><time>2026-03-27T10:47:01Z</time></trkpt><trkpt lat="39.21619755843713" lon="16.305482576082213"><ele>643.6666666666667</ele><time>2026-03-27T10:47:02Z</time></trkpt><trkpt lat="39.2159990025477" lon="16.30554168003292"><ele>643.0</ele><time>2026-03-27T10:47:03Z</time></trkpt><trkpt lat="39.21578983080933" lon="16.305610820143357"><ele>639.5</ele><time>2026-03-27T10:47:04Z</time></trkpt><trkpt lat="39.215575405357214" lon="16.305688691351932"><ele>636.0</ele><time>2026-03-27T10:47:05Z</time></trkpt><trkpt lat="39.21535455625993" lon="16.30577129768929"><ele>636.0</ele><time>2026-03-27T10:47:06Z</time></trkpt><trkpt lat="39.21512415420335" lon="16.3058598661859"><ele>636.0</ele><time>2026-03-27T10:47:07Z</time></trkpt><trkpt lat="39.21488592393835" lon="16.305957747549066"><ele>632.5</ele><time>2026-03-27T10:47:08Z</time></trkpt><trkpt lat="39.214643787092626" lon="16.306061611556448"><ele>629.0</ele><time>2026-03-27T10:47:09Z</time></trkpt><trkpt lat="39.21439622978725" lon="16.30617051786142"><ele>629.0</ele><time>2026-03-27T10:47:10Z</time></trkpt><trkpt lat="39.21414266600407" lon="16.306277706053322"><ele>629.0</ele><time>2026-03-27T10:47:11Z</time></trkpt><trkpt lat="39.21388453484454" lon="16.30638437866851"><ele>630.0</ele><time>2026-03-27T10:47:12Z</time></trkpt><trkpt lat="39.213619127447764" lon="16.30649185535144"><ele>631.0</ele><time>2026-03-27T10:47:13Z</time></trkpt><trkpt lat="39.21335247987686" lon="16.306600690459895"><ele>633.5</ele><time>2026-03-27T10:47:14Z</time></trkpt><trkpt lat="39.21308457250909" lon="16.306712278099806"><ele>636.0</ele><time>2026-03-27T10:47:15Z</time></trkpt><trkpt lat="39.212816934280994" lon="16.30682413243921"><ele>636.0</ele><time>2026-03-27T10:47:16Z</time></trkpt><trkpt lat="39.21254754225927" lon="16.306933945685987"><ele>636.0</ele><time>2026-03-27T10:47:17Z</time></trkpt><trkpt lat="39.21227735212957" lon="16.30703982016836"><ele>636.5</ele><time>2026-03-27T10:47:18Z</time></trkpt><trkpt lat="39.21199976778945" lon="16.307145940865862"><ele>637.0</ele><time>2026-03-27T10:47:19Z</time></trkpt><trkpt lat="39.21172097886499" lon="16.30725448891563"><ele>636.5</ele><time>2026-03-27T10:47:20Z</time></trkpt><trkpt lat="39.21144032418558" lon="16.307370872241034"><ele>636.0</ele><time>2026-03-27T10:47:21Z</time></trkpt><trkpt lat="39.21115889800537" lon="16.307490651381755"><ele>636.0</ele><time>2026-03-27T10:47:22Z</time></trkpt><trkpt lat="39.210876795017214" lon="16.307606993506155"><ele>636.0</ele><time>2026-03-27T10:47:23Z</time></trkpt><trkpt lat="39.210584422057764" lon="16.30771848207186"><ele>636.0</ele><time>2026-03-27T10:47:24Z</time></trkpt><trkpt lat="39.21030771254915" lon="16.307844477311125"><ele>636.0</ele><time>2026-03-27T10:47:25Z</time></trkpt><trkpt lat="39.210020703781275" lon="16.30795899220583"><ele>635.0</ele><time>2026-03-27T10:47:26Z</time></trkpt><trkpt lat="39.209736639817145" lon="16.308074561260046"><ele>634.0</ele><time>2026-03-27T10:47:27Z</time></trkpt><trkpt lat="39.20945458268124" lon="16.30818860790867"><ele>633.0</ele><time>2026-03-27T10:47:28Z</time></trkpt><trkpt lat="39.20917287547945" lon="16.30830608126084"><ele>632.0</ele><time>2026-03-27T10:47:29Z</time></trkpt><trkpt lat="39.20889376524972" lon="16.308423049796705"><ele>629.5</ele><time>2026-03-27T10:47:30Z</time></trkpt><trkpt lat="39.208615684341396" lon="16.30853946039012"><ele>627.0</ele><time>2026-03-27T10:47:31Z</time></trkpt><trkpt lat="39.20833528088802" lon="16.308653927540888"><ele>624.5</ele><time>2026-03-27T10:47:32Z</time></trkpt><trkpt lat="39.208054769668934" lon="16.3087698744789"><ele>622.0</ele><time>2026-03-27T10:47:33Z</time></trkpt><trkpt lat="39.20776861055816" lon="16.30888674414999"><ele>622.5</ele><time>2026-03-27T10:47:34Z</time></trkpt><trkpt lat="39.20748392898795" lon="16.30900128957464"><ele>623.0</ele><time>2026-03-27T10:47:35Z</time></trkpt><trkpt lat="39.20719709799772" lon="16.309118662738697"><ele>621.5</ele><time>2026-03-27T10:47:36Z</time></trkpt><trkpt lat="39.20691119090361" lon="16.3092367695523"><ele>620.0</ele><time>2026-03-27T10:47:37Z</time></trkpt><trkpt lat="39.20662529260358" lon="16.309355082186748"><ele>620.0</ele><time>2026-03-27T10:47:38Z</time></trkpt><trkpt lat="39.20634250878391" lon="16.309471385564528"><ele>620.0</ele><time>2026-03-27T10:47:39Z</time></trkpt><trkpt lat="39.20605584382969" lon="16.309587538602997"><ele>620.0</ele><time>2026-03-27T10:47:40Z</time></trkpt><trkpt lat="39.20576958316598" lon="16.30970437418515"><ele>620.0</ele><time>2026-03-27T10:47:41Z</time></trkpt><trkpt lat="39.20548418271996" lon="16.30982275529508"><ele>620.5</ele><time>2026-03-27T10:47:42Z</time></trkpt><trkpt lat="39.2052104803403" lon="16.309935795585396"><ele>621.0</ele><time>2026-03-27T10:47:43Z</time></trkpt><trkpt lat="39.204947969031664" lon="16.31004267791213"><ele>620.5</ele><time>2026-03-27T10:47:44Z</time></trkpt><trkpt lat="39.20468769362584" lon="16.310150501998304"><ele>620.0</ele><time>2026-03-27T10:47:45Z</time></trkpt><trkpt lat="39.20442047320486" lon="16.310260091915275"><ele>620.0</ele><time>2026-03-27T10:47:46Z</time></trkpt><trkpt lat="39.20414887498368" lon="16.310369996138235"><ele>620.0</ele><time>2026-03-27T10:47:47Z</time></trkpt><trkpt lat="39.20387941459237" lon="16.310481171285723"><ele>620.5</ele><time>2026-03-27T10:47:48Z</time></trkpt><trkpt lat="39.203615523420865" lon="16.31058918582422"><ele>621.0</ele><time>2026-03-27T10:47:49Z</time></trkpt><trkpt lat="39.203363988965805" lon="16.31069264058274"><ele>620.0</ele><time>2026-03-27T10:47:50Z</time></trkpt><trkpt lat="39.203121530910636" lon="16.310792370582917"><ele>619.0</ele><time>2026-03-27T10:47:51Z</time></trkpt><trkpt lat="39.20287808520756" lon="16.310891822681434"><ele>619.0</ele><time>2026-03-27T10:47:52Z</time></trkpt><trkpt lat="39.20263604513668" lon="16.310990184594363"><ele>619.0</ele><time>2026-03-27T10:47:53Z</time></trkpt><trkpt lat="39.20238752084576" lon="16.311094117388446"><ele>618.5</ele><time>2026-03-27T10:47:54Z</time></trkpt><trkpt lat="39.20213619344648" lon="16.311199890812954"><ele>618.0</ele><time>2026-03-27T10:47:55Z</time></trkpt><trkpt lat="39.20187846992606" lon="16.31130620814865"><ele>619.0</ele><time>2026-03-27T10:47:56Z</time></trkpt><trkpt lat="39.201616062422424" lon="16.311413795261963"><ele>620.0</ele><time>2026-03-27T10:47:57Z</time></trkpt><trkpt lat="39.20135168188092" lon="16.311521595641665"><ele>620.0</ele><time>2026-03-27T10:47:58Z</time></trkpt><trkpt lat="39.20108277871235" lon="16.311629736541583"><ele>620.0</ele><time>2026-03-27T10:47:59Z</time></trkpt><trkpt lat="39.2008104056218" lon="16.311742623148053"><ele>620.5</ele><time>2026-03-27T10:48:00Z</time></trkpt><trkpt lat="39.20054112220218" lon="16.31185280125254"><ele>621.0</ele><time>2026-03-27T10:48:01Z</time></trkpt><trkpt lat="39.2002662941234" lon="16.311966813731203"><ele>621.0</ele><time>2026-03-27T10:48:02Z</time></trkpt><trkpt lat="39.1999958732344" lon="16.312079317954886"><ele>621.0</ele><time>2026-03-27T10:48:03Z</time></trkpt><trkpt lat="39.19973256613244" lon="16.312188471558034"><ele>621.0</ele><time>2026-03-27T10:48:04Z</time></trkpt><trkpt lat="39.199473171491654" lon="16.312292571997048"><ele>621.0</ele><time>2026-03-27T10:48:05Z</time></trkpt><trkpt lat="39.19920986956392" lon="16.31239109446693"><ele>621.0</ele><time>2026-03-27T10:48:06Z</time></trkpt><trkpt lat="39.198945469470445" lon="16.312473526357735"><ele>621.0</ele><time>2026-03-27T10:48:07Z</time></trkpt><trkpt lat="39.19867919654843" lon="16.312545718339873"><ele>621.0</ele><time>2026-03-27T10:48:08Z</time></trkpt><trkpt lat="39.19841066469843" lon="16.3126077401805"><ele>621.0</ele><time>2026-03-27T10:48:09Z</time></trkpt><trkpt lat="39.198138517113904" lon="16.31266134650855"><ele>619.0</ele><time>2026-03-27T10:48:10Z</time></trkpt><trkpt lat="39.19786601171584" lon="16.312701222120157"><ele>617.0</ele><time>2026-03-27T10:48:11Z</time></trkpt><trkpt lat="39.19759758095845" lon="16.312733021179113"><ele>617.0</ele><time>2026-03-27T10:48:12Z</time></trkpt><trkpt lat="39.197338890871826" lon="16.312749101571754"><ele>617.0</ele><time>2026-03-27T10:48:13Z</time></trkpt><trkpt lat="39.19708386291715" lon="16.31275067345792"><ele>613.5</ele><time>2026-03-27T10:48:14Z</time></trkpt><trkpt lat="39.19683287832244" lon="16.312722318571595"><ele>610.0</ele><time>2026-03-27T10:48:15Z</time></trkpt><trkpt lat="39.19657512150904" lon="16.312676947204633"><ele>606.5</ele><time>2026-03-27T10:48:16Z</time></trkpt><trkpt lat="39.1963145319242" lon="16.312612640694002"><ele>603.0</ele><time>2026-03-27T10:48:17Z</time></trkpt><trkpt lat="39.196057988694626" lon="16.312529363595182"><ele>603.0</ele><time>2026-03-27T10:48:18Z</time></trkpt><trkpt lat="39.19580427511986" lon="16.312426578023864"><ele>603.0</ele><time>2026-03-27T10:48:19Z</time></trkpt><trkpt lat="39.195551453204054" lon="16.312307555611593"><ele>605.5</ele><time>2026-03-27T10:48:20Z</time></trkpt><trkpt lat="39.19529563000025" lon="16.312180119415874"><ele>608.0</ele><time>2026-03-27T10:48:21Z</time></trkpt><trkpt lat="39.19503789452808" lon="16.312047674922976"><ele>605.0</ele><time>2026-03-27T10:48:22Z</time></trkpt><trkpt lat="39.19477935713166" lon="16.311900926409297"><ele>602.0</ele><time>2026-03-27T10:48:23Z</time></trkpt><trkpt lat="39.194521452203404" lon="16.311738877288246"><ele>602.0</ele><time>2026-03-27T10:48:24Z</time></trkpt><trkpt lat="39.19426419568313" lon="16.311560991005113"><ele>602.0</ele><time>2026-03-27T10:48:25Z</time></trkpt><trkpt lat="39.19401117956026" lon="16.311373405080786"><ele>598.5</ele><time>2026-03-27T10:48:26Z</time></trkpt><trkpt lat="39.19376191037572" lon="16.311180511647706"><ele>595.0</ele><time>2026-03-27T10:48:27Z</time></trkpt><trkpt lat="39.193515250940024" lon="16.31098581298251"><ele>595.0</ele><time>2026-03-27T10:48:28Z</time></trkpt><trkpt lat="39.19326538731056" lon="16.310797342826916"><ele>595.0</ele><time>2026-03-27T10:48:29Z</time></trkpt><trkpt lat="39.19301006075762" lon="16.310614650115372"><ele>591.0</ele><time>2026-03-27T10:48:30Z</time></trkpt><trkpt lat="39.1927532921264" lon="16.310430100762883"><ele>587.0</ele><time>2026-03-27T10:48:31Z</time></trkpt><trkpt lat="39.19249597352714" lon="16.3102427599824"><ele>580.5</ele><time>2026-03-27T10:48:32Z</time></trkpt><trkpt lat="39.192240457640914" lon="16.310051772042517"><ele>574.0</ele><time>2026-03-27T10:48:33Z</time></trkpt><trkpt lat="39.19198618860648" lon="16.309860481059655"><ele>578.5</ele><time>2026-03-27T10:48:34Z</time></trkpt><trkpt lat="39.1917303606819" lon="16.309671446954475"><ele>583.0</ele><time>2026-03-27T10:48:35Z</time></trkpt><trkpt lat="39.191475113120696" lon="16.309483937896804"><ele>584.5</ele><time>2026-03-27T10:48:36Z</time></trkpt><trkpt lat="39.1912182972394" lon="16.309295033784146"><ele>586.0</ele><time>2026-03-27T10:48:37Z</time></trkpt><trkpt lat="39.19096224383278" lon="16.309104962746712"><ele>586.0</ele><time>2026-03-27T10:48:38Z</time></trkpt><trkpt lat="39.19070659551745" lon="16.308913860325006"><ele>586.0</ele><time>2026-03-27T10:48:39Z</time></trkpt><trkpt lat="39.19044975765421" lon="16.30872268945632"><ele>589.5</ele><time>2026-03-27T10:48:40Z</time></trkpt><trkpt lat="39.19019127079905" lon="16.308532103436303"><ele>593.0</ele><time>2026-03-27T10:48:41Z</time></trkpt><trkpt lat="39.18993090169315" lon="16.308340609411"><ele>588.5</ele><time>2026-03-27T10:48:42Z</time></trkpt><trkpt lat="39.18967086397662" lon="16.308147273086178"><ele>584.0</ele><time>2026-03-27T10:48:43Z</time></trkpt><trkpt lat="39.18941075698524" lon="16.307953536633406"><ele>584.0</ele><time>2026-03-27T10:48:44Z</time></trkpt><trkpt lat="39.189152611869" lon="16.307760416877283"><ele>584.0</ele><time>2026-03-27T10:48:45Z</time></trkpt><trkpt lat="39.18889422868774" lon="16.307567501563586"><ele>582.5</ele><time>2026-03-27T10:48:46Z</time></trkpt><trkpt lat="39.1886367079695" lon="16.30737462449311"><ele>581.0</ele><time>2026-03-27T10:48:47Z</time></trkpt><trkpt lat="39.18837870139644" lon="16.307182667118855"><ele>579.0</ele><time>2026-03-27T10:48:48Z</time></trkpt><trkpt lat="39.18812005023421" lon="16.30698978020698"><ele>577.0</ele><time>2026-03-27T10:48:49Z</time></trkpt><trkpt lat="39.18786147796657" lon="16.30679800391129"><ele>577.0</ele><time>2026-03-27T10:48:50Z</time></trkpt><trkpt lat="39.187603263793235" lon="16.30660728231165"><ele>577.0</ele><time>2026-03-27T10:48:51Z</time></trkpt><trkpt lat="39.18734610971837" lon="16.306416231253106"><ele>574.0</ele><time>2026-03-27T10:48:52Z</time></trkpt><trkpt lat="39.187090170956736" lon="16.306227425588602"><ele>571.0</ele><time>2026-03-27T10:48:53Z</time></trkpt><trkpt lat="39.18683226356657" lon="16.306038704626644"><ele>571.0</ele><time>2026-03-27T10:48:54Z</time></trkpt><trkpt lat="39.186573313947285" lon="16.305851333356028"><ele>571.0</ele><time>2026-03-27T10:48:55Z</time></trkpt><trkpt lat="39.18631979374283" lon="16.305664167683034"><ele>573.0</ele><time>2026-03-27T10:48:56Z</time></trkpt><trkpt lat="39.186072102447056" lon="16.305482190835995"><ele>575.0</ele><time>2026-03-27T10:48:57Z</time></trkpt><trkpt lat="39.1858224337227" lon="16.305299878325204"><ele>572.0</ele><time>2026-03-27T10:48:58Z</time></trkpt><trkpt lat="39.18557426163549" lon="16.305111350092076"><ele>569.0</ele><time>2026-03-27T10:48:59Z</time></trkpt><trkpt lat="39.185326852836134" lon="16.304923381456724"><ele>568.0</ele><time>2026-03-27T10:49:00Z</time></trkpt><trkpt lat="39.18507819079559" lon="16.30473997762967"><ele>567.0</ele><time>2026-03-27T10:49:01Z</time></trkpt><trkpt lat="39.184826863572994" lon="16.30455983982026"><ele>567.0</ele><time>2026-03-27T10:49:02Z</time></trkpt><trkpt lat="39.18457314507715" lon="16.304382621777773"><ele>567.0</ele><time>2026-03-27T10:49:03Z</time></trkpt><trkpt lat="39.184314505136854" lon="16.304201034394787"><ele>567.0</ele><time>2026-03-27T10:49:04Z</time></trkpt><trkpt lat="39.184055552807756" lon="16.30401770090068"><ele>567.0</ele><time>2026-03-27T10:49:05Z</time></trkpt><trkpt lat="39.18379608628884" lon="16.303832176742915"><ele>568.0</ele><time>2026-03-27T10:49:06Z</time></trkpt><trkpt lat="39.18353754738521" lon="16.303640205213"><ele>569.0</ele><time>2026-03-27T10:49:07Z</time></trkpt><trkpt lat="39.18328016150855" lon="16.30344169836946"><ele>566.0</ele><time>2026-03-27T10:49:08Z</time></trkpt><trkpt lat="39.183025198715235" lon="16.303237150643568"><ele>563.0</ele><time>2026-03-27T10:49:09Z</time></trkpt><trkpt lat="39.18277265889638" lon="16.303025156832085"><ele>563.0</ele><time>2026-03-27T10:49:10Z</time></trkpt><trkpt lat="39.182520364600876" lon="16.302807654177855"><ele>563.0</ele><time>2026-03-27T10:49:11Z</time></trkpt><trkpt lat="39.18226838325355" lon="16.302584217215983"><ele>565.5</ele><time>2026-03-27T10:49:12Z</time></trkpt><trkpt lat="39.18201958931078" lon="16.30235521332763"><ele>568.0</ele><time>2026-03-27T10:49:13Z</time></trkpt><trkpt lat="39.18177280637004" lon="16.302121031154915"><ele>568.0</ele><time>2026-03-27T10:49:14Z</time></trkpt><trkpt lat="39.18152961888889" lon="16.301880201730604"><ele>568.0</ele><time>2026-03-27T10:49:15Z</time></trkpt><trkpt lat="39.181291197797314" lon="16.301633584781065"><ele>564.0</ele><time>2026-03-27T10:49:16Z</time></trkpt><trkpt lat="39.18105698286057" lon="16.301380765385893"><ele>560.0</ele><time>2026-03-27T10:49:17Z</time></trkpt><trkpt lat="39.18082500115933" lon="16.30112211629728"><ele>543.5</ele><time>2026-03-27T10:49:18Z</time></trkpt><trkpt lat="39.18059536499263" lon="16.3008606723983"><ele>527.0</ele><time>2026-03-27T10:49:19Z</time></trkpt><trkpt lat="39.18037086337096" lon="16.300595882853155"><ele>539.0</ele><time>2026-03-27T10:49:20Z</time></trkpt><trkpt lat="39.18014998962833" lon="16.30032669041053"><ele>551.0</ele><time>2026-03-27T10:49:21Z</time></trkpt><trkpt lat="39.179932521439575" lon="16.3000538998627"><ele>549.5</ele><time>2026-03-27T10:49:22Z</time></trkpt><trkpt lat="39.179719782987824" lon="16.29977887027988"><ele>548.0</ele><time>2026-03-27T10:49:23Z</time></trkpt><trkpt lat="39.17951158160226" lon="16.299501097522832"><ele>548.0</ele><time>2026-03-27T10:49:24Z</time></trkpt><trkpt lat="39.179305455598666" lon="16.299223167955134"><ele>548.0</ele><time>2026-03-27T10:49:25Z</time></trkpt><trkpt lat="39.17910100048437" lon="16.298944055412353"><ele>548.5</ele><time>2026-03-27T10:49:26Z</time></trkpt><trkpt lat="39.1788974423948" lon="16.298664357978243"><ele>549.0</ele><time>2026-03-27T10:49:27Z</time></trkpt><trkpt lat="39.17869260701855" lon="16.29838656001049"><ele>549.0</ele><time>2026-03-27T10:49:28Z</time></trkpt><trkpt lat="39.17849009924039" lon="16.298104100790272"><ele>549.0</ele><time>2026-03-27T10:49:29Z</time></trkpt><trkpt lat="39.178291841689834" lon="16.297814193636555"><ele>540.0</ele><time>2026-03-27T10:49:30Z</time></trkpt><trkpt lat="39.17811136536801" lon="16.297508324587206"><ele>531.0</ele><time>2026-03-27T10:49:31Z</time></trkpt><trkpt lat="39.17793388021879" lon="16.297197237597015"><ele>526.5</ele><time>2026-03-27T10:49:32Z</time></trkpt><trkpt lat="39.17775866918209" lon="16.296886534551078"><ele>522.0</ele><time>2026-03-27T10:49:33Z</time></trkpt><trkpt lat="39.17758287491126" lon="16.29657544967698"><ele>525.0</ele><time>2026-03-27T10:49:34Z</time></trkpt><trkpt lat="39.17740785352983" lon="16.296265475525765"><ele>528.0</ele><time>2026-03-27T10:49:35Z</time></trkpt><trkpt lat="39.17723608402223" lon="16.29595782358138"><ele>528.0</ele><time>2026-03-27T10:49:36Z</time></trkpt><trkpt lat="39.1770653103478" lon="16.295656921717825"><ele>528.0</ele><time>2026-03-27T10:49:37Z</time></trkpt><trkpt lat="39.17688804065239" lon="16.295370075742053"><ele>533.0</ele><time>2026-03-27T10:49:38Z</time></trkpt><trkpt lat="39.17670137378925" lon="16.29510018180201"><ele>538.0</ele><time>2026-03-27T10:49:39Z</time></trkpt><trkpt lat="39.176501423965306" lon="16.29485742595995"><ele>549.5</ele><time>2026-03-27T10:49:40Z</time></trkpt><trkpt lat="39.1762933178886" lon="16.294645518267266"><ele>561.0</ele><time>2026-03-27T10:49:41Z</time></trkpt><trkpt lat="39.17607615721398" lon="16.29445840516857"><ele>561.0</ele><time>2026-03-27T10:49:42Z</time></trkpt><trkpt lat="39.17584788053875" lon="16.294292365071104"><ele>561.0</ele><time>2026-03-27T10:49:43Z</time></trkpt><trkpt lat="39.17561461730335" lon="16.29415357080749"><ele>561.5</ele><time>2026-03-27T10:49:44Z</time></trkpt><trkpt lat="39.17537664134155" lon="16.294042138697296"><ele>562.0</ele><time>2026-03-27T10:49:45Z</time></trkpt><trkpt lat="39.17513684645134" lon="16.293915707778805"><ele>562.0</ele><time>2026-03-27T10:49:46Z</time></trkpt><trkpt lat="39.17489162501189" lon="16.293786377179934"><ele>562.0</ele><time>2026-03-27T10:49:47Z</time></trkpt><trkpt lat="39.1746193240609" lon="16.293648865840716"><ele>557.0</ele><time>2026-03-27T10:49:48Z</time></trkpt><trkpt lat="39.17428302817343" lon="16.293683742776754"><ele>552.0</ele><time>2026-03-27T10:49:49Z</time></trkpt><trkpt lat="39.17400867936038" lon="16.29365686860156"><ele>550.0</ele><time>2026-03-27T10:49:50Z</time></trkpt><trkpt lat="39.173735636828084" lon="16.29364762804299"><ele>548.0</ele><time>2026-03-27T10:49:51Z</time></trkpt><trkpt lat="39.1734702362465" lon="16.293630246674027"><ele>548.0</ele><time>2026-03-27T10:49:52Z</time></trkpt><trkpt lat="39.1732068503911" lon="16.293638490088732"><ele>548.0</ele><time>2026-03-27T10:49:53Z</time></trkpt><trkpt lat="39.172953609891465" lon="16.293605927617428"><ele>548.5</ele><time>2026-03-27T10:49:54Z</time></trkpt><trkpt lat="39.17270753489114" lon="16.29354105750227"><ele>549.0</ele><time>2026-03-27T10:49:55Z</time></trkpt><trkpt lat="39.17245534818572" lon="16.29346935787564"><ele>539.5</ele><time>2026-03-27T10:49:56Z</time></trkpt><trkpt lat="39.17218006207003" lon="16.293419131857473"><ele>530.0</ele><time>2026-03-27T10:49:57Z</time></trkpt><trkpt lat="39.17194255928583" lon="16.293362982851363"><ele>530.0</ele><time>2026-03-27T10:49:58Z</time></trkpt><trkpt lat="39.17173066631582" lon="16.293156156736693"><ele>530.0</ele><time>2026-03-27T10:49:59Z</time></trkpt><trkpt lat="39.171578912794864" lon="16.29290225029593"><ele>527.0</ele><time>2026-03-27T10:50:00Z</time></trkpt><trkpt lat="39.17135996255476" lon="16.29274009474085"><ele>524.0</ele><time>2026-03-27T10:50:01Z</time></trkpt><trkpt lat="39.17115681470923" lon="16.29261200173398"><ele>524.0</ele><time>2026-03-27T10:50:02Z</time></trkpt><trkpt lat="39.17095170555401" lon="16.292509533450875"><ele>524.0</ele><time>2026-03-27T10:50:03Z</time></trkpt><trkpt lat="39.17073207133939" lon="16.292418991727338"><ele>523.0</ele><time>2026-03-27T10:50:04Z</time></trkpt><trkpt lat="39.170506593870115" lon="16.292337231296276"><ele>522.0</ele><time>2026-03-27T10:50:05Z</time></trkpt><trkpt lat="39.17027728634084" lon="16.292282318441575"><ele>522.0</ele><time>2026-03-27T10:50:06Z</time></trkpt><trkpt lat="39.17005401922221" lon="16.29225992963933"><ele>522.0</ele><time>2026-03-27T10:50:07Z</time></trkpt><trkpt lat="39.169827716440004" lon="16.292271029223365"><ele>527.5</ele><time>2026-03-27T10:50:08Z</time></trkpt><trkpt lat="39.16959753328081" lon="16.29232285775074"><ele>533.0</ele><time>2026-03-27T10:50:09Z</time></trkpt><trkpt lat="39.16937211341654" lon="16.2924056615359"><ele>533.0</ele><time>2026-03-27T10:50:10Z</time></trkpt><trkpt lat="39.169151207899006" lon="16.29251510276058"><ele>533.0</ele><time>2026-03-27T10:50:11Z</time></trkpt><trkpt lat="39.168933144006175" lon="16.292645867478715"><ele>536.5</ele><time>2026-03-27T10:50:12Z</time></trkpt><trkpt lat="39.16871668646878" lon="16.292772196244517"><ele>540.0</ele><time>2026-03-27T10:50:13Z</time></trkpt><trkpt lat="39.16851382885599" lon="16.292896346815596"><ele>540.0</ele><time>2026-03-27T10:50:14Z</time></trkpt><trkpt lat="39.1683114501218" lon="16.29299436309923"><ele>540.0</ele><time>2026-03-27T10:50:15Z</time></trkpt><trkpt lat="39.1681031971909" lon="16.293080309801447"><ele>540.0</ele><time>2026-03-27T10:50:16Z</time></trkpt><trkpt lat="39.16789162711858" lon="16.293142284040083"><ele>529.0</ele><time>2026-03-27T10:50:17Z</time></trkpt><trkpt lat="39.16768048896813" lon="16.293176222670787"><ele>518.0</ele><time>2026-03-27T10:50:18Z</time></trkpt><trkpt lat="39.16747016723756" lon="16.29318876511696"><ele>507.0</ele><time>2026-03-27T10:50:19Z</time></trkpt><trkpt lat="39.167254273504255" lon="16.2931826028852"><ele>504.66666666666663</ele><time>2026-03-27T10:50:20Z</time></trkpt><trkpt lat="39.1670342767979" lon="16.293154580797314"><ele>502.3333333333333</ele><time>2026-03-27T10:50:21Z</time></trkpt><trkpt lat="39.166815481938" lon="16.29310066833201"><ele>500.0</ele><time>2026-03-27T10:50:22Z</time></trkpt><trkpt lat="39.166611113118165" lon="16.29302406185484"><ele>501.66666666666663</ele><time>2026-03-27T10:50:23Z</time></trkpt><trkpt lat="39.166423484040514" lon="16.29293051204445"><ele>503.33333333333337</ele><time>2026-03-27T10:50:24Z</time></trkpt><trkpt lat="39.166244296359444" lon="16.29282190078109"><ele>505.0</ele><time>2026-03-27T10:50:25Z</time></trkpt><trkpt lat="39.16607205683282" lon="16.292696643838553"><ele>505.0</ele><time>2026-03-27T10:50:26Z</time></trkpt><trkpt lat="39.1659034988817" lon="16.29254919183101"><ele>505.0</ele><time>2026-03-27T10:50:27Z</time></trkpt><trkpt lat="39.165741223321724" lon="16.29238477673187"><ele>505.0</ele><time>2026-03-27T10:50:28Z</time></trkpt><trkpt lat="39.16558531494819" lon="16.2922058990119"><ele>504.0</ele><time>2026-03-27T10:50:29Z</time></trkpt><trkpt lat="39.16543859662729" lon="16.292008996215152"><ele>503.0</ele><time>2026-03-27T10:50:30Z</time></trkpt><trkpt lat="39.165295395040495" lon="16.291794318006186"><ele>502.0</ele><time>2026-03-27T10:50:31Z</time></trkpt><trkpt lat="39.165150520482925" lon="16.29157209899749"><ele>508.5</ele><time>2026-03-27T10:50:32Z</time></trkpt><trkpt lat="39.16500349980128" lon="16.29134729784973"><ele>515.0</ele><time>2026-03-27T10:50:33Z</time></trkpt><trkpt lat="39.164853966511046" lon="16.29112059782651"><ele>515.0</ele><time>2026-03-27T10:50:34Z</time></trkpt><trkpt lat="39.16470156148008" lon="16.29088913628367"><ele>515.0</ele><time>2026-03-27T10:50:35Z</time></trkpt><trkpt lat="39.16454151894168" lon="16.290661238848088"><ele>506.5</ele><time>2026-03-27T10:50:36Z</time></trkpt><trkpt lat="39.16439155241965" lon="16.290426232537836"><ele>498.0</ele><time>2026-03-27T10:50:37Z</time></trkpt><trkpt lat="39.16423597244314" lon="16.290214353632386"><ele>498.0</ele><time>2026-03-27T10:50:38Z</time></trkpt><trkpt lat="39.1640572482048" lon="16.289946116959182"><ele>498.0</ele><time>2026-03-27T10:50:39Z</time></trkpt><trkpt lat="39.16388379990467" lon="16.289619281182443"><ele>478.0</ele><time>2026-03-27T10:50:40Z</time></trkpt><trkpt lat="39.163738363378904" lon="16.289318267415855"><ele>458.0</ele><time>2026-03-27T10:50:41Z</time></trkpt><trkpt lat="39.163594476340705" lon="16.28903941057463"><ele>468.5</ele><time>2026-03-27T10:50:42Z</time></trkpt><trkpt lat="39.16345997599903" lon="16.288781242649975"><ele>479.0</ele><time>2026-03-27T10:50:43Z</time></trkpt><trkpt lat="39.163318423085784" lon="16.2885085325067"><ele>473.5</ele><time>2026-03-27T10:50:44Z</time></trkpt><trkpt lat="39.163165609169965" lon="16.288253590854094"><ele>468.0</ele><time>2026-03-27T10:50:45Z</time></trkpt><trkpt lat="39.162995808870114" lon="16.28801662067593"><ele>479.5</ele><time>2026-03-27T10:50:46Z</time></trkpt><trkpt lat="39.16280719426596" lon="16.287800766121997"><ele>491.0</ele><time>2026-03-27T10:50:47Z</time></trkpt><trkpt lat="39.162603935109885" lon="16.287598460055268"><ele>491.0</ele><time>2026-03-27T10:50:48Z</time></trkpt><trkpt lat="39.16238893507989" lon="16.2874137963021"><ele>491.0</ele><time>2026-03-27T10:50:49Z</time></trkpt><trkpt lat="39.16215503139586" lon="16.287265132950274"><ele>496.0</ele><time>2026-03-27T10:50:50Z</time></trkpt><trkpt lat="39.161916390631205" lon="16.28712350012755"><ele>501.0</ele><time>2026-03-27T10:50:51Z</time></trkpt><trkpt lat="39.161675059194856" lon="16.287010331411206"><ele>495.0</ele><time>2026-03-27T10:50:52Z</time></trkpt><trkpt lat="39.161430504740146" lon="16.286928794931"><ele>489.0</ele><time>2026-03-27T10:50:53Z</time></trkpt><trkpt lat="39.161194055955825" lon="16.286878834263305"><ele>489.0</ele><time>2026-03-27T10:50:54Z</time></trkpt><trkpt lat="39.16095586668313" lon="16.286836926800397"><ele>489.0</ele><time>2026-03-27T10:50:55Z</time></trkpt><trkpt lat="39.160714790723866" lon="16.286792055826616"><ele>485.5</ele><time>2026-03-27T10:50:56Z</time></trkpt><trkpt lat="39.16048193305212" lon="16.28674301348211"><ele>482.0</ele><time>2026-03-27T10:50:57Z</time></trkpt><trkpt lat="39.16026009511766" lon="16.286690659641867"><ele>482.0</ele><time>2026-03-27T10:50:58Z</time></trkpt><trkpt lat="39.160046586236994" lon="16.286646757026677"><ele>482.0</ele><time>2026-03-27T10:50:59Z</time></trkpt><trkpt lat="39.15984556708537" lon="16.286616774649822"><ele>482.0</ele><time>2026-03-27T10:51:00Z</time></trkpt><trkpt lat="39.15965764841041" lon="16.286599431466815"><ele>481.0</ele><time>2026-03-27T10:51:01Z</time></trkpt><trkpt lat="39.15947513042457" lon="16.286598557076793"><ele>480.0</ele><time>2026-03-27T10:51:02Z</time></trkpt><trkpt lat="39.15929963401554" lon="16.286610951862002"><ele>479.0</ele><time>2026-03-27T10:51:03Z</time></trkpt><trkpt lat="39.15912874287441" lon="16.286633044258597"><ele>480.0</ele><time>2026-03-27T10:51:04Z</time></trkpt><trkpt lat="39.15896397179732" lon="16.286665526681478"><ele>481.0</ele><time>2026-03-27T10:51:05Z</time></trkpt><trkpt lat="39.15880980339539" lon="16.286708247775486"><ele>482.0</ele><time>2026-03-27T10:51:06Z</time></trkpt><trkpt lat="39.15866610916495" lon="16.286757154036472"><ele>482.0</ele><time>2026-03-27T10:51:07Z</time></trkpt><trkpt lat="39.158537188808374" lon="16.28680546816471"><ele>482.0</ele><time>2026-03-27T10:51:08Z</time></trkpt><trkpt lat="39.158425569742214" lon="16.28685361792276"><ele>482.0</ele><time>2026-03-27T10:51:09Z</time></trkpt><trkpt lat="39.15831672351355" lon="16.286904809661486"><ele>482.0</ele><time>2026-03-27T10:51:10Z</time></trkpt><trkpt lat="39.15820135696352" lon="16.286967473226753"><ele>480.75</ele><time>2026-03-27T10:51:11Z</time></trkpt><trkpt lat="39.15808886073545" lon="16.287035938708218"><ele>479.5</ele><time>2026-03-27T10:51:12Z</time></trkpt><trkpt lat="39.15797257211745" lon="16.287112291561048"><ele>478.25</ele><time>2026-03-27T10:51:13Z</time></trkpt><trkpt lat="39.15785109391048" lon="16.287197973893228"><ele>477.0</ele><time>2026-03-27T10:51:14Z</time></trkpt><trkpt lat="39.157723615965594" lon="16.287291141640626"><ele>477.0</ele><time>2026-03-27T10:51:15Z</time></trkpt><trkpt lat="39.157590357951115" lon="16.287390879709342"><ele>477.0</ele><time>2026-03-27T10:51:16Z</time></trkpt><trkpt lat="39.15745483918676" lon="16.28748928421301"><ele>477.0</ele><time>2026-03-27T10:51:17Z</time></trkpt><trkpt lat="39.15732205180344" lon="16.287583855142202"><ele>482.5</ele><time>2026-03-27T10:51:18Z</time></trkpt><trkpt lat="39.15719449092024" lon="16.28767354456375"><ele>488.0</ele><time>2026-03-27T10:51:19Z</time></trkpt><trkpt lat="39.15706452466945" lon="16.287760335751614"><ele>493.5</ele><time>2026-03-27T10:51:20Z</time></trkpt><trkpt lat="39.156927652077705" lon="16.287850161044705"><ele>499.0</ele><time>2026-03-27T10:51:21Z</time></trkpt><trkpt lat="39.15677977298673" lon="16.28792825323152"><ele>499.0</ele><time>2026-03-27T10:51:22Z</time></trkpt><trkpt lat="39.156637762720514" lon="16.287994312418995"><ele>499.0</ele><time>2026-03-27T10:51:23Z</time></trkpt><trkpt lat="39.15650276827887" lon="16.28804490444372"><ele>499.0</ele><time>2026-03-27T10:51:24Z</time></trkpt><trkpt lat="39.156366992230154" lon="16.28809926183762"><ele>499.0</ele><time>2026-03-27T10:51:25Z</time></trkpt><trkpt lat="39.15623146179084" lon="16.28815523739363"><ele>494.5</ele><time>2026-03-27T10:51:26Z</time></trkpt><trkpt lat="39.1561049770475" lon="16.288216518936878"><ele>490.0</ele><time>2026-03-27T10:51:27Z</time></trkpt><trkpt lat="39.15596614630049" lon="16.288243042804208"><ele>485.5</ele><time>2026-03-27T10:51:28.068Z</time></trkpt><trkpt lat="39.15582625133819" lon="16.288253816588178"><ele>481.0</ele><time>2026-03-27T10:51:29.069Z</time></trkpt><trkpt lat="39.15470147886434" lon="16.287924838526266"><ele>469.33333333333337</ele><time>2026-03-27T10:51:36Z</time></trkpt><trkpt lat="39.15456123755573" lon="16.287868632152684"><ele>457.66666666666663</ele><time>2026-03-27T10:51:37Z</time></trkpt><trkpt lat="39.154402600048535" lon="16.28774987004541"><ele>446.0</ele><time>2026-03-27T10:51:38Z</time></trkpt><trkpt lat="39.15429004459123" lon="16.287662331655696"><ele>446.0</ele><time>2026-03-27T10:51:39Z</time></trkpt><trkpt lat="39.15418913437361" lon="16.287592364408823"><ele>446.0</ele><time>2026-03-27T10:51:40Z</time></trkpt><trkpt lat="39.154071070091895" lon="16.28749636372538"><ele>446.0</ele><time>2026-03-27T10:51:41Z</time></trkpt><trkpt lat="39.15395820807104" lon="16.28736708050891"><ele>446.0</ele><time>2026-03-27T10:51:42Z</time></trkpt><trkpt lat="39.15385750136092" lon="16.28723944722254"><ele>450.75</ele><time>2026-03-27T10:51:43Z</time></trkpt><trkpt lat="39.15374628064473" lon="16.2871260707006"><ele>455.5</ele><time>2026-03-27T10:51:44Z</time></trkpt><trkpt lat="39.153633915166445" lon="16.28700355575375"><ele>460.25</ele><time>2026-03-27T10:51:45Z</time></trkpt><trkpt lat="39.15353342659216" lon="16.28686046098948"><ele>465.0</ele><time>2026-03-27T10:51:46Z</time></trkpt><trkpt lat="39.15343578325301" lon="16.28670634772801"><ele>465.0</ele><time>2026-03-27T10:51:47Z</time></trkpt><trkpt lat="39.15334285443803" lon="16.286551784438313"><ele>465.0</ele><time>2026-03-27T10:51:48Z</time></trkpt><trkpt lat="39.153255511992086" lon="16.286420639387572"><ele>465.0</ele><time>2026-03-27T10:51:49Z</time></trkpt><trkpt lat="39.15316366334588" lon="16.286279496910723"><ele>465.0</ele><time>2026-03-27T10:51:50Z</time></trkpt><trkpt lat="39.15307695493648" lon="16.286137895745604"><ele>462.0</ele><time>2026-03-27T10:51:51Z</time></trkpt><trkpt lat="39.153029912990476" lon="16.285972831568113"><ele>459.0</ele><time>2026-03-27T10:51:52Z</time></trkpt><trkpt lat="39.15295791828105" lon="16.28578197191655"><ele>456.0</ele><time>2026-03-27T10:51:53Z</time></trkpt><trkpt lat="39.15289796371124" lon="16.28562574626329"><ele>453.0</ele><time>2026-03-27T10:51:54Z</time></trkpt><trkpt lat="39.152839320278275" lon="16.28547335732348"><ele>451.25</ele><time>2026-03-27T10:51:55Z</time></trkpt><trkpt lat="39.152776503524294" lon="16.285316976264145"><ele>449.5</ele><time>2026-03-27T10:51:56Z</time></trkpt><trkpt lat="39.15270142632808" lon="16.28514800458312"><ele>447.75</ele><time>2026-03-27T10:51:57Z</time></trkpt><trkpt lat="39.15262072075613" lon="16.284986712311678"><ele>446.0</ele><time>2026-03-27T10:51:58Z</time></trkpt><trkpt lat="39.15252775990057" lon="16.284826856096846"><ele>447.0</ele><time>2026-03-27T10:51:59Z</time></trkpt><trkpt lat="39.15242960773307" lon="16.284676783432243"><ele>448.0</ele><time>2026-03-27T10:52:00Z</time></trkpt><trkpt lat="39.15232825542067" lon="16.284532247114917"><ele>449.0</ele><time>2026-03-27T10:52:01Z</time></trkpt><trkpt lat="39.15210043438124" lon="16.284250746454248"><ele>437.66666666666663</ele><time>2026-03-27T10:52:02Z</time></trkpt><trkpt lat="39.15197844739618" lon="16.284134458285365"><ele>426.33333333333337</ele><time>2026-03-27T10:52:04Z</time></trkpt><trkpt lat="39.15183629421805" lon="16.284009830773204"><ele>415.0</ele><time>2026-03-27T10:52:05Z</time></trkpt><trkpt lat="39.15171816764231" lon="16.283880078804128"><ele>413.0</ele><time>2026-03-27T10:52:06Z</time></trkpt><trkpt lat="39.1515759313884" lon="16.283753239440816"><ele>411.0</ele><time>2026-03-27T10:52:07Z</time></trkpt><trkpt lat="39.15142255370409" lon="16.283656375288917"><ele>409.0</ele><time>2026-03-27T10:52:08Z</time></trkpt><trkpt lat="39.15126592941382" lon="16.283563167468788"><ele>395.33333333333337</ele><time>2026-03-27T10:52:09Z</time></trkpt><trkpt lat="39.15110187996899" lon="16.28348426184879"><ele>381.6666666666667</ele><time>2026-03-27T10:52:10Z</time></trkpt><trkpt lat="39.15094335325523" lon="16.283404354265752"><ele>368.0</ele><time>2026-03-27T10:52:11Z</time></trkpt><trkpt lat="39.15078801350528" lon="16.28333588992165"><ele>353.33333333333337</ele><time>2026-03-27T10:52:12Z</time></trkpt><trkpt lat="39.15063070644602" lon="16.283257906190055"><ele>338.6666666666667</ele><time>2026-03-27T10:52:13Z</time></trkpt><trkpt lat="39.15047332137617" lon="16.283177715854503"><ele>324.0</ele><time>2026-03-27T10:52:14Z</time></trkpt><trkpt lat="39.15031341243685" lon="16.283099588772096"><ele>317.3333333333333</ele><time>2026-03-27T10:52:15Z</time></trkpt><trkpt lat="39.15014933235117" lon="16.283020746614604"><ele>310.66666666666663</ele><time>2026-03-27T10:52:16Z</time></trkpt><trkpt lat="39.14998338082926" lon="16.28294166232515"><ele>304.0</ele><time>2026-03-27T10:52:17Z</time></trkpt><trkpt lat="39.14981583780604" lon="16.282863330495054"><ele>300.66666666666663</ele><time>2026-03-27T10:52:18Z</time></trkpt><trkpt lat="39.14964895316323" lon="16.28278416872386"><ele>297.3333333333333</ele><time>2026-03-27T10:52:19Z</time></trkpt><trkpt lat="39.1494780368479" lon="16.282703586021988"><ele>294.0</ele><time>2026-03-27T10:52:20Z</time></trkpt><trkpt lat="39.14930735832429" lon="16.28262255025941"><ele>294.0</ele><time>2026-03-27T10:52:21Z</time></trkpt><trkpt lat="39.14913601564157" lon="16.282539483252506"><ele>294.0</ele><time>2026-03-27T10:52:22Z</time></trkpt><trkpt lat="39.148966579736715" lon="16.282456467381564"><ele>294.0</ele><time>2026-03-27T10:52:23Z</time></trkpt><trkpt lat="39.14879819021391" lon="16.28237525052808"><ele>304.6666666666667</ele><time>2026-03-27T10:52:24Z</time></trkpt><trkpt lat="39.148628432654185" lon="16.28229381996486"><ele>315.33333333333337</ele><time>2026-03-27T10:52:25Z</time></trkpt><trkpt lat="39.14845772153922" lon="16.282212616052252"><ele>326.0</ele><time>2026-03-27T10:52:26Z</time></trkpt><trkpt lat="39.14828389453896" lon="16.282125817995304"><ele>350.0</ele><time>2026-03-27T10:52:27Z</time></trkpt><trkpt lat="39.14811111617459" lon="16.282029115864304"><ele>374.0</ele><time>2026-03-27T10:52:28Z</time></trkpt><trkpt lat="39.147938402512025" lon="16.281914646961525"><ele>398.0</ele><time>2026-03-27T10:52:29Z</time></trkpt><trkpt lat="39.147765202376114" lon="16.281778144986948"><ele>398.0</ele><time>2026-03-27T10:52:30Z</time></trkpt><trkpt lat="39.1475972788433" lon="16.281621070502762"><ele>398.0</ele><time>2026-03-27T10:52:31Z</time></trkpt><trkpt lat="39.14743608636841" lon="16.281448700500633"><ele>398.0</ele><time>2026-03-27T10:52:32Z</time></trkpt><trkpt lat="39.14728363281978" lon="16.28127120208276"><ele>401.0</ele><time>2026-03-27T10:52:33Z</time></trkpt><trkpt lat="39.147144835124514" lon="16.28108481263709"><ele>404.0</ele><time>2026-03-27T10:52:34Z</time></trkpt><trkpt lat="39.14700919193589" lon="16.280881639077446"><ele>407.0</ele><time>2026-03-27T10:52:35Z</time></trkpt><trkpt lat="39.14688517194656" lon="16.280664491310564"><ele>407.66666666666663</ele><time>2026-03-27T10:52:36Z</time></trkpt><trkpt lat="39.14677073217515" lon="16.28043628417316"><ele>408.33333333333337</ele><time>2026-03-27T10:52:37Z</time></trkpt><trkpt lat="39.1466621482639" lon="16.280197878738303"><ele>409.0</ele><time>2026-03-27T10:52:38Z</time></trkpt><trkpt lat="39.14655544181558" lon="16.27996048419378"><ele>408.0</ele><time>2026-03-27T10:52:39Z</time></trkpt><trkpt lat="39.146446917201594" lon="16.279716510335376"><ele>407.0</ele><time>2026-03-27T10:52:40Z</time></trkpt><trkpt lat="39.14633188594616" lon="16.2794715080981"><ele>406.0</ele><time>2026-03-27T10:52:41Z</time></trkpt><trkpt lat="39.14621342266299" lon="16.27922632724125"><ele>406.0</ele><time>2026-03-27T10:52:42Z</time></trkpt><trkpt lat="39.146094286740635" lon="16.27897764281902"><ele>406.0</ele><time>2026-03-27T10:52:43Z</time></trkpt><trkpt lat="39.14597349167042" lon="16.278726371684833"><ele>412.6666666666667</ele><time>2026-03-27T10:52:44Z</time></trkpt><trkpt lat="39.145855226040815" lon="16.27847612991902"><ele>419.33333333333337</ele><time>2026-03-27T10:52:45Z</time></trkpt><trkpt lat="39.1457456602493" lon="16.278232320672302"><ele>426.0</ele><time>2026-03-27T10:52:46Z</time></trkpt><trkpt lat="39.14564018117572" lon="16.27799121765019"><ele>429.66666666666663</ele><time>2026-03-27T10:52:47Z</time></trkpt><trkpt lat="39.14553477985995" lon="16.27774787926578"><ele>433.3333333333333</ele><time>2026-03-27T10:52:48Z</time></trkpt><trkpt lat="39.14543205743325" lon="16.277508877761445"><ele>437.0</ele><time>2026-03-27T10:52:49Z</time></trkpt><trkpt lat="39.14533086327925" lon="16.27727321014676"><ele>453.3333333333333</ele><time>2026-03-27T10:52:50Z</time></trkpt><trkpt lat="39.145228207033114" lon="16.27703426168301"><ele>469.66666666666663</ele><time>2026-03-27T10:52:51Z</time></trkpt><trkpt lat="39.14512386519182" lon="16.276793032943566"><ele>486.0</ele><time>2026-03-27T10:52:52Z</time></trkpt><trkpt lat="39.14501559289249" lon="16.27654889713119"><ele>496.0</ele><time>2026-03-27T10:52:53Z</time></trkpt><trkpt lat="39.14490332044984" lon="16.276305144282997"><ele>506.0</ele><time>2026-03-27T10:52:54Z</time></trkpt><trkpt lat="39.14478204419965" lon="16.276070374049088"><ele>516.0</ele><time>2026-03-27T10:52:55Z</time></trkpt><trkpt lat="39.14464938634713" lon="16.27584975618066"><ele>495.33333333333337</ele><time>2026-03-27T10:52:56Z</time></trkpt><trkpt lat="39.14448837286195" lon="16.275659465826294"><ele>474.6666666666667</ele><time>2026-03-27T10:52:57Z</time></trkpt><trkpt lat="39.144329591659464" lon="16.27546504440185"><ele>454.0</ele><time>2026-03-27T10:52:58Z</time></trkpt><trkpt lat="39.14415042052709" lon="16.27527213263718"><ele>423.0</ele><time>2026-03-27T10:52:59.07Z</time></trkpt><trkpt lat="39.1439787040255" lon="16.275112405096742"><ele>392.0</ele><time>2026-03-27T10:53:00.028Z</time></trkpt><trkpt lat="39.143160536902414" lon="16.271321322774018"><ele>527.0</ele><time>2026-03-27T10:53:06Z</time></trkpt><trkpt lat="39.14278989629281" lon="16.271650008051026"><ele>527.0</ele><time>2026-03-27T10:53:08Z</time></trkpt><trkpt lat="39.14254966398675" lon="16.271618597242504"><ele>527.0</ele><time>2026-03-27T10:53:09Z</time></trkpt><trkpt lat="39.142300356582346" lon="16.271607030549085"><ele>533.0</ele><time>2026-03-27T10:53:10Z</time></trkpt><trkpt lat="39.14207897594768" lon="16.271599646998848"><ele>539.0</ele><time>2026-03-27T10:53:11Z</time></trkpt><trkpt lat="39.141831367692696" lon="16.271605493768444"><ele>536.0</ele><time>2026-03-27T10:53:12Z</time></trkpt><trkpt lat="39.14145223011058" lon="16.271579474907256"><ele>533.0</ele><time>2026-03-27T10:53:13Z</time></trkpt><trkpt lat="39.14111324550056" lon="16.274466737687455"><ele>493.66666666666663</ele><time>2026-03-27T10:53:14Z</time></trkpt><trkpt lat="39.14090907470397" lon="16.274500000447695"><ele>454.33333333333337</ele><time>2026-03-27T10:53:15Z</time></trkpt><trkpt lat="39.14070653519069" lon="16.27452767952952"><ele>415.0</ele><time>2026-03-27T10:53:16Z</time></trkpt><trkpt lat="39.14049117715078" lon="16.274555899883566"><ele>413.0</ele><time>2026-03-27T10:53:17Z</time></trkpt><trkpt lat="39.14027820930207" lon="16.27456957339377"><ele>411.0</ele><time>2026-03-27T10:53:18Z</time></trkpt><trkpt lat="39.14007490277756" lon="16.27457405254553"><ele>409.0</ele><time>2026-03-27T10:53:19Z</time></trkpt><trkpt lat="39.13987162881979" lon="16.274565543653974"><ele>400.6666666666667</ele><time>2026-03-27T10:53:20Z</time></trkpt><trkpt lat="39.139670237185385" lon="16.274544744801005"><ele>392.33333333333337</ele><time>2026-03-27T10:53:21Z</time></trkpt><trkpt lat="39.13946925246778" lon="16.274504441355887"><ele>384.0</ele><time>2026-03-27T10:53:22Z</time></trkpt><trkpt lat="39.13927405098973" lon="16.274450795070397"><ele>384.0</ele><time>2026-03-27T10:53:23Z</time></trkpt><trkpt lat="39.13908556420415" lon="16.27437756173602"><ele>384.0</ele><time>2026-03-27T10:53:24Z</time></trkpt><trkpt lat="39.138913739800586" lon="16.274297848519492"><ele>384.0</ele><time>2026-03-27T10:53:25Z</time></trkpt><trkpt lat="39.13873845158015" lon="16.274200994349986"><ele>379.6666666666667</ele><time>2026-03-27T10:53:26Z</time></trkpt><trkpt lat="39.138563208778514" lon="16.274096574810816"><ele>375.33333333333337</ele><time>2026-03-27T10:53:27Z</time></trkpt><trkpt lat="39.13838203440746" lon="16.273986167262265"><ele>371.0</ele><time>2026-03-27T10:53:28Z</time></trkpt><trkpt lat="39.13820904833154" lon="16.273871960174077"><ele>371.0</ele><time>2026-03-27T10:53:29Z</time></trkpt><trkpt lat="39.13803319097718" lon="16.273765279795313"><ele>371.0</ele><time>2026-03-27T10:53:30Z</time></trkpt><trkpt lat="39.13785734140093" lon="16.27366070016248"><ele>371.0</ele><time>2026-03-27T10:53:31Z</time></trkpt><trkpt lat="39.13768583645973" lon="16.273557214363567"><ele>371.0</ele><time>2026-03-27T10:53:32Z</time></trkpt><trkpt lat="39.13751764443918" lon="16.273457244394468"><ele>371.0</ele><time>2026-03-27T10:53:33Z</time></trkpt><trkpt lat="39.13735375016473" lon="16.2733623164198"><ele>371.0</ele><time>2026-03-27T10:53:34Z</time></trkpt><trkpt lat="39.13718874994402" lon="16.273255219573066"><ele>358.6666666666667</ele><time>2026-03-27T10:53:35Z</time></trkpt><trkpt lat="39.13700811091108" lon="16.273158960197758"><ele>346.3333333333333</ele><time>2026-03-27T10:53:36Z</time></trkpt><trkpt lat="39.13682282908196" lon="16.273057941595443"><ele>334.0</ele><time>2026-03-27T10:53:37Z</time></trkpt><trkpt lat="39.13663573708821" lon="16.272942547530853"><ele>340.3333333333333</ele><time>2026-03-27T10:53:38Z</time></trkpt><trkpt lat="39.13643789793612" lon="16.272827764518624"><ele>346.6666666666667</ele><time>2026-03-27T10:53:39Z</time></trkpt><trkpt lat="39.13624491456605" lon="16.272716689237548"><ele>353.0</ele><time>2026-03-27T10:53:40Z</time></trkpt><trkpt lat="39.13605514250182" lon="16.27260450345147"><ele>353.0</ele><time>2026-03-27T10:53:41Z</time></trkpt><trkpt lat="39.13586953081897" lon="16.27249834315711"><ele>353.0</ele><time>2026-03-27T10:53:42Z</time></trkpt><trkpt lat="39.13568468859507" lon="16.272390503678043"><ele>353.0</ele><time>2026-03-27T10:53:43Z</time></trkpt><trkpt lat="39.135504352507866" lon="16.272285859699263"><ele>360.33333333333337</ele><time>2026-03-27T10:53:44Z</time></trkpt><trkpt lat="39.135321109951754" lon="16.272181795814124"><ele>367.6666666666667</ele><time>2026-03-27T10:53:45Z</time></trkpt><trkpt lat="39.13514826287885" lon="16.27207977306554"><ele>375.0</ele><time>2026-03-27T10:53:46Z</time></trkpt><trkpt lat="39.13498153627339" lon="16.2719687742157"><ele>367.6666666666667</ele><time>2026-03-27T10:53:47Z</time></trkpt><trkpt lat="39.134811719789624" lon="16.27184964644787"><ele>360.33333333333337</ele><time>2026-03-27T10:53:48Z</time></trkpt><trkpt lat="39.13464876868044" lon="16.271708109159192"><ele>353.0</ele><time>2026-03-27T10:53:49Z</time></trkpt><trkpt lat="39.13448795634617" lon="16.271557981238473"><ele>357.0</ele><time>2026-03-27T10:53:50Z</time></trkpt><trkpt lat="39.134326651104715" lon="16.271385013399268"><ele>361.0</ele><time>2026-03-27T10:53:51Z</time></trkpt><trkpt lat="39.13416928736053" lon="16.271200845471885"><ele>365.0</ele><time>2026-03-27T10:53:52Z</time></trkpt><trkpt lat="39.13401459596921" lon="16.2710081849623"><ele>358.0</ele><time>2026-03-27T10:53:53Z</time></trkpt><trkpt lat="39.133862100794225" lon="16.270803994723824"><ele>351.0</ele><time>2026-03-27T10:53:54Z</time></trkpt><trkpt lat="39.133708201007984" lon="16.27059986909122"><ele>344.0</ele><time>2026-03-27T10:53:55Z</time></trkpt><trkpt lat="39.13355060984782" lon="16.270391193657385"><ele>344.0</ele><time>2026-03-27T10:53:56Z</time></trkpt><trkpt lat="39.133397124951344" lon="16.27020048316844"><ele>344.0</ele><time>2026-03-27T10:53:57Z</time></trkpt><trkpt lat="39.13323913908546" lon="16.27001872479476"><ele>344.0</ele><time>2026-03-27T10:53:58Z</time></trkpt><trkpt lat="39.13308226516011" lon="16.269849028817042"><ele>345.6666666666667</ele><time>2026-03-27T10:53:59Z</time></trkpt><trkpt lat="39.13290558470068" lon="16.26969606606326"><ele>347.3333333333333</ele><time>2026-03-27T10:54:00Z</time></trkpt><trkpt lat="39.13273212159599" lon="16.269570979754747"><ele>349.0</ele><time>2026-03-27T10:54:01Z</time></trkpt><trkpt lat="39.13255290257248" lon="16.269463611900736"><ele>350.0</ele><time>2026-03-27T10:54:02Z</time></trkpt><trkpt lat="39.132370907822256" lon="16.26937075220004"><ele>351.0</ele><time>2026-03-27T10:54:03Z</time></trkpt><trkpt lat="39.13218336643984" lon="16.269276009339798"><ele>352.0</ele><time>2026-03-27T10:54:04Z</time></trkpt><trkpt lat="39.131994774456885" lon="16.269173714153528"><ele>352.0</ele><time>2026-03-27T10:54:05Z</time></trkpt><trkpt lat="39.13181068315402" lon="16.269066443755428"><ele>352.0</ele><time>2026-03-27T10:54:06Z</time></trkpt><trkpt lat="39.13162952099012" lon="16.268945775353384"><ele>352.0</ele><time>2026-03-27T10:54:07Z</time></trkpt><trkpt lat="39.13146278801279" lon="16.268814919656037"><ele>350.3333333333333</ele><time>2026-03-27T10:54:08Z</time></trkpt><trkpt lat="39.13131200130937" lon="16.26866611762136"><ele>348.6666666666667</ele><time>2026-03-27T10:54:09Z</time></trkpt><trkpt lat="39.13116238135858" lon="16.268499175652487"><ele>347.0</ele><time>2026-03-27T10:54:10Z</time></trkpt><trkpt lat="39.13101834882838" lon="16.268318004068092"><ele>347.0</ele><time>2026-03-27T10:54:11Z</time></trkpt><trkpt lat="39.1308845488608" lon="16.268120739784386"><ele>347.0</ele><time>2026-03-27T10:54:12Z</time></trkpt><trkpt lat="39.130756916981355" lon="16.267917213408147"><ele>347.0</ele><time>2026-03-27T10:54:13Z</time></trkpt><trkpt lat="39.13064003482748" lon="16.26771413847466"><ele>348.0</ele><time>2026-03-27T10:54:14Z</time></trkpt><trkpt lat="39.130525660685464" lon="16.267515121695475"><ele>349.0</ele><time>2026-03-27T10:54:15Z</time></trkpt><trkpt lat="39.130411039888095" lon="16.2673275324671"><ele>350.0</ele><time>2026-03-27T10:54:16Z</time></trkpt><trkpt lat="39.130294856925026" lon="16.26715350401225"><ele>350.0</ele><time>2026-03-27T10:54:17Z</time></trkpt><trkpt lat="39.13017289957632" lon="16.266989628339097"><ele>350.0</ele><time>2026-03-27T10:54:18Z</time></trkpt><trkpt lat="39.130046317827876" lon="16.266826192125897"><ele>350.0</ele><time>2026-03-27T10:54:19Z</time></trkpt><trkpt lat="39.12990446558045" lon="16.26666950071744"><ele>354.6666666666667</ele><time>2026-03-27T10:54:20Z</time></trkpt><trkpt lat="39.129752796656035" lon="16.266521657800528"><ele>359.3333333333333</ele><time>2026-03-27T10:54:21Z</time></trkpt><trkpt lat="39.12958880662676" lon="16.266387203828177"><ele>364.0</ele><time>2026-03-27T10:54:22Z</time></trkpt><trkpt lat="39.12942213444105" lon="16.266272247363315"><ele>364.0</ele><time>2026-03-27T10:54:23Z</time></trkpt><trkpt lat="39.12925030130915" lon="16.26616990287689"><ele>364.0</ele><time>2026-03-27T10:54:24Z</time></trkpt><trkpt lat="39.129073693281796" lon="16.26607631334684"><ele>364.0</ele><time>2026-03-27T10:54:25Z</time></trkpt><trkpt lat="39.128890342129786" lon="16.26598866024957"><ele>356.0</ele><time>2026-03-27T10:54:26Z</time></trkpt><trkpt lat="39.128710564689726" lon="16.265913903094315"><ele>348.0</ele><time>2026-03-27T10:54:27Z</time></trkpt><trkpt lat="39.12853930860575" lon="16.265842092224084"><ele>340.0</ele><time>2026-03-27T10:54:28Z</time></trkpt><trkpt lat="39.12837638218677" lon="16.265771012770568"><ele>342.0</ele><time>2026-03-27T10:54:29Z</time></trkpt><trkpt lat="39.12821661805702" lon="16.26570007454747"><ele>344.0</ele><time>2026-03-27T10:54:30Z</time></trkpt><trkpt lat="39.128062525163095" lon="16.265626887476472"><ele>346.0</ele><time>2026-03-27T10:54:31Z</time></trkpt><trkpt lat="39.12791622955809" lon="16.265560777546806"><ele>346.0</ele><time>2026-03-27T10:54:32Z</time></trkpt><trkpt lat="39.12777152512074" lon="16.265486283945947"><ele>346.0</ele><time>2026-03-27T10:54:33Z</time></trkpt><trkpt lat="39.127632467189876" lon="16.265407647541046"><ele>346.0</ele><time>2026-03-27T10:54:34Z</time></trkpt><trkpt lat="39.12749093701072" lon="16.265329671284995"><ele>339.3333333333333</ele><time>2026-03-27T10:54:35Z</time></trkpt><trkpt lat="39.1273515066663" lon="16.265240798338148"><ele>332.6666666666667</ele><time>2026-03-27T10:54:36Z</time></trkpt><trkpt lat="39.12721150291819" lon="16.265146740081622"><ele>326.0</ele><time>2026-03-27T10:54:37Z</time></trkpt><trkpt lat="39.127073155190246" lon="16.265044244188058"><ele>326.0</ele><time>2026-03-27T10:54:38Z</time></trkpt><trkpt lat="39.126942295728604" lon="16.264936114743637"><ele>326.0</ele><time>2026-03-27T10:54:39Z</time></trkpt><trkpt lat="39.126816176105436" lon="16.264814310890962"><ele>326.0</ele><time>2026-03-27T10:54:40Z</time></trkpt><trkpt lat="39.126698727275205" lon="16.264681073580725"><ele>323.6666666666667</ele><time>2026-03-27T10:54:41Z</time></trkpt><trkpt lat="39.12658270429815" lon="16.26452924410517"><ele>321.3333333333333</ele><time>2026-03-27T10:54:42Z</time></trkpt><trkpt lat="39.12647544927002" lon="16.264376455019217"><ele>319.0</ele><time>2026-03-27T10:54:43Z</time></trkpt><trkpt lat="39.12637940861361" lon="16.264218470823973"><ele>319.0</ele><time>2026-03-27T10:54:44Z</time></trkpt><trkpt lat="39.12628658333121" lon="16.264049274307283"><ele>319.0</ele><time>2026-03-27T10:54:45Z</time></trkpt><trkpt lat="39.12620803776681" lon="16.263867705353142"><ele>319.0</ele><time>2026-03-27T10:54:46Z</time></trkpt><trkpt lat="39.126134641677" lon="16.263675418842006"><ele>321.66666666666663</ele><time>2026-03-27T10:54:47Z</time></trkpt><trkpt lat="39.12607006400127" lon="16.263478069251423"><ele>324.3333333333333</ele><time>2026-03-27T10:54:48Z</time></trkpt><trkpt lat="39.126012359003006" lon="16.263266485315537"><ele>327.0</ele><time>2026-03-27T10:54:49Z</time></trkpt><trkpt lat="39.12596186679299" lon="16.26305312991003"><ele>332.0</ele><time>2026-03-27T10:54:50Z</time></trkpt><trkpt lat="39.12591882026525" lon="16.262832522810704"><ele>337.0</ele><time>2026-03-27T10:54:51Z</time></trkpt><trkpt lat="39.12588194115368" lon="16.2626106540588"><ele>342.0</ele><time>2026-03-27T10:54:52Z</time></trkpt><trkpt lat="39.12585148006483" lon="16.26239149082145"><ele>346.0</ele><time>2026-03-27T10:54:53Z</time></trkpt><trkpt lat="39.125815673574635" lon="16.262174324109406"><ele>350.0</ele><time>2026-03-27T10:54:54Z</time></trkpt><trkpt lat="39.125772964718344" lon="16.261959000955034"><ele>354.0</ele><time>2026-03-27T10:54:55Z</time></trkpt><trkpt lat="39.12572856844099" lon="16.261741118823764"><ele>343.5</ele><time>2026-03-27T10:54:56Z</time></trkpt><trkpt lat="39.125695301968534" lon="16.26154279195294"><ele>333.0</ele><time>2026-03-27T10:54:57Z</time></trkpt><trkpt lat="39.125672785574714" lon="16.261394399754025"><ele>322.5</ele><time>2026-03-27T10:54:58Z</time></trkpt><trkpt lat="39.12564403135575" lon="16.261225511172405"><ele>312.0</ele><time>2026-03-27T10:54:59Z</time></trkpt><trkpt lat="39.125602216875905" lon="16.261035535320605"><ele>311.3333333333333</ele><time>2026-03-27T10:55:00Z</time></trkpt><trkpt lat="39.12556212202047" lon="16.260842014926048"><ele>310.66666666666663</ele><time>2026-03-27T10:55:01Z</time></trkpt><trkpt lat="39.12549877969737" lon="16.260689477529993"><ele>310.0</ele><time>2026-03-27T10:55:02Z</time></trkpt><trkpt lat="39.12544810587524" lon="16.26048255495577"><ele>310.0</ele><time>2026-03-27T10:55:03Z</time></trkpt><trkpt lat="39.125371038493334" lon="16.260329578488403"><ele>310.0</ele><time>2026-03-27T10:55:04Z</time></trkpt><trkpt lat="39.12527479672183" lon="16.260135320980854"><ele>310.0</ele><time>2026-03-27T10:55:05Z</time></trkpt><trkpt lat="39.12516451403456" lon="16.25993640734894"><ele>310.0</ele><time>2026-03-27T10:55:06Z</time></trkpt><trkpt lat="39.12505151283152" lon="16.259728034112662"><ele>310.0</ele><time>2026-03-27T10:55:07Z</time></trkpt><trkpt lat="39.12493840190869" lon="16.259520295335964"><ele>310.0</ele><time>2026-03-27T10:55:08Z</time></trkpt><trkpt lat="39.124819271497884" lon="16.259303701802462"><ele>310.0</ele><time>2026-03-27T10:55:09Z</time></trkpt><trkpt lat="39.12469897397014" lon="16.25907408733192"><ele>310.0</ele><time>2026-03-27T10:55:10Z</time></trkpt><trkpt lat="39.12457697595287" lon="16.258840655294833"><ele>310.0</ele><time>2026-03-27T10:55:11Z</time></trkpt><trkpt lat="39.12445098437027" lon="16.258601547586938"><ele>314.0</ele><time>2026-03-27T10:55:12Z</time></trkpt><trkpt lat="39.1243229221766" lon="16.258362844950366"><ele>318.0</ele><time>2026-03-27T10:55:13Z</time></trkpt><trkpt lat="39.124187250256284" lon="16.258121394583544"><ele>315.0</ele><time>2026-03-27T10:55:14Z</time></trkpt><trkpt lat="39.12403714177165" lon="16.257883861263906"><ele>312.0</ele><time>2026-03-27T10:55:15Z</time></trkpt><trkpt lat="39.12387256006112" lon="16.25765862590087"><ele>312.0</ele><time>2026-03-27T10:55:16Z</time></trkpt><trkpt lat="39.123696011544084" lon="16.257450357423515"><ele>312.0</ele><time>2026-03-27T10:55:17Z</time></trkpt><trkpt lat="39.123511696421886" lon="16.25724463343559"><ele>315.0</ele><time>2026-03-27T10:55:18Z</time></trkpt><trkpt lat="39.12332131090681" lon="16.257053239421943"><ele>318.0</ele><time>2026-03-27T10:55:19Z</time></trkpt><trkpt lat="39.12312067178959" lon="16.256883615239524"><ele>303.5</ele><time>2026-03-27T10:55:20Z</time></trkpt><trkpt lat="39.12291053712453" lon="16.25673120200332"><ele>289.0</ele><time>2026-03-27T10:55:21Z</time></trkpt><trkpt lat="39.12269548877115" lon="16.25658686575275"><ele>291.0</ele><time>2026-03-27T10:55:22Z</time></trkpt><trkpt lat="39.122483078284205" lon="16.256444271697625"><ele>293.0</ele><time>2026-03-27T10:55:23Z</time></trkpt><trkpt lat="39.1222743095151" lon="16.25631626375587"><ele>293.0</ele><time>2026-03-27T10:55:24Z</time></trkpt><trkpt lat="39.122056510079595" lon="16.2562198031272"><ele>293.0</ele><time>2026-03-27T10:55:25Z</time></trkpt><trkpt lat="39.121836563391675" lon="16.25615087998514"><ele>293.0</ele><time>2026-03-27T10:55:26Z</time></trkpt><trkpt lat="39.121611850850535" lon="16.256092908927368"><ele>293.0</ele><time>2026-03-27T10:55:27Z</time></trkpt><trkpt lat="39.121381404244566" lon="16.256041406489224"><ele>299.5</ele><time>2026-03-27T10:55:28Z</time></trkpt><trkpt lat="39.121145540455245" lon="16.256006123556233"><ele>306.0</ele><time>2026-03-27T10:55:29Z</time></trkpt><trkpt lat="39.12090689428602" lon="16.25598295442027"><ele>306.5</ele><time>2026-03-27T10:55:30Z</time></trkpt><trkpt lat="39.12066492610134" lon="16.255974796465505"><ele>307.0</ele><time>2026-03-27T10:55:31Z</time></trkpt><trkpt lat="39.120422202178894" lon="16.25598345521257"><ele>307.0</ele><time>2026-03-27T10:55:32Z</time></trkpt><trkpt lat="39.120180153623444" lon="16.25599338646201"><ele>307.0</ele><time>2026-03-27T10:55:33Z</time></trkpt><trkpt lat="39.11993582723964" lon="16.25599768051852"><ele>304.0</ele><time>2026-03-27T10:55:34Z</time></trkpt><trkpt lat="39.11969513042204" lon="16.2559922196553"><ele>301.0</ele><time>2026-03-27T10:55:35Z</time></trkpt><trkpt lat="39.11945169271226" lon="16.25596924904905"><ele>301.0</ele><time>2026-03-27T10:55:36Z</time></trkpt><trkpt lat="39.11921003246223" lon="16.255928476172347"><ele>301.0</ele><time>2026-03-27T10:55:37Z</time></trkpt><trkpt lat="39.11897269808741" lon="16.25587265308041"><ele>291.5</ele><time>2026-03-27T10:55:38Z</time></trkpt><trkpt lat="39.11874546477137" lon="16.255805903098842"><ele>282.0</ele><time>2026-03-27T10:55:39Z</time></trkpt><trkpt lat="39.11853067910049" lon="16.255729343088614"><ele>282.0</ele><time>2026-03-27T10:55:40Z</time></trkpt><trkpt lat="39.11832268660398" lon="16.25564171237518"><ele>282.0</ele><time>2026-03-27T10:55:41Z</time></trkpt><trkpt lat="39.118120499829" lon="16.25555062645033"><ele>282.0</ele><time>2026-03-27T10:55:42Z</time></trkpt><trkpt lat="39.11791470692933" lon="16.25546275498529"><ele>283.0</ele><time>2026-03-27T10:55:43Z</time></trkpt><trkpt lat="39.117700498591745" lon="16.255388289277743"><ele>284.0</ele><time>2026-03-27T10:55:44Z</time></trkpt><trkpt lat="39.11747748356247" lon="16.255336574752945"><ele>285.0</ele><time>2026-03-27T10:55:45Z</time></trkpt><trkpt lat="39.117247512484866" lon="16.255307111799077"><ele>290.0</ele><time>2026-03-27T10:55:46Z</time></trkpt><trkpt lat="39.11701124736111" lon="16.255293312447154"><ele>295.0</ele><time>2026-03-27T10:55:47Z</time></trkpt><trkpt lat="39.11676816636864" lon="16.255292216669947"><ele>295.0</ele><time>2026-03-27T10:55:48Z</time></trkpt><trkpt lat="39.11651960585959" lon="16.255293347993735"><ele>295.0</ele><time>2026-03-27T10:55:49Z</time></trkpt><trkpt lat="39.116270713641775" lon="16.25528944145576"><ele>295.0</ele><time>2026-03-27T10:55:50Z</time></trkpt><trkpt lat="39.11601717671002" lon="16.255281927158737"><ele>295.0</ele><time>2026-03-27T10:55:51Z</time></trkpt><trkpt lat="39.11576577907749" lon="16.255271501542946"><ele>291.5</ele><time>2026-03-27T10:55:52Z</time></trkpt><trkpt lat="39.115523207395086" lon="16.255260797967875"><ele>288.0</ele><time>2026-03-27T10:55:53Z</time></trkpt><trkpt lat="39.11528286865519" lon="16.255253272554167"><ele>288.0</ele><time>2026-03-27T10:55:54Z</time></trkpt><trkpt lat="39.11504223978088" lon="16.25524500360975"><ele>288.0</ele><time>2026-03-27T10:55:55Z</time></trkpt><trkpt lat="39.114798477635276" lon="16.25523795899544"><ele>283.0</ele><time>2026-03-27T10:55:56Z</time></trkpt><trkpt lat="39.11456043597384" lon="16.255214490298883"><ele>278.0</ele><time>2026-03-27T10:55:57Z</time></trkpt><trkpt lat="39.114324843225646" lon="16.25517492274689"><ele>278.0</ele><time>2026-03-27T10:55:58Z</time></trkpt><trkpt lat="39.11409296458516" lon="16.255118508182157"><ele>278.0</ele><time>2026-03-27T10:55:59Z</time></trkpt><trkpt lat="39.113876582036205" lon="16.255044262640826"><ele>266.0</ele><time>2026-03-27T10:56:00Z</time></trkpt><trkpt lat="39.11366664950044" lon="16.254949963829564"><ele>254.0</ele><time>2026-03-27T10:56:01Z</time></trkpt><trkpt lat="39.11345587881591" lon="16.254838239578365"><ele>256.5</ele><time>2026-03-27T10:56:02Z</time></trkpt><trkpt lat="39.11324648659498" lon="16.2547139104132"><ele>259.0</ele><time>2026-03-27T10:56:03Z</time></trkpt><trkpt lat="39.11303943224255" lon="16.25457983478744"><ele>259.0</ele><time>2026-03-27T10:56:04Z</time></trkpt><trkpt lat="39.1128341871863" lon="16.25443794298043"><ele>259.0</ele><time>2026-03-27T10:56:05Z</time></trkpt><trkpt lat="39.11262875508059" lon="16.25428538801544"><ele>259.0</ele><time>2026-03-27T10:56:06Z</time></trkpt><trkpt lat="39.11242129970095" lon="16.254134850971084"><ele>259.0</ele><time>2026-03-27T10:56:07Z</time></trkpt><trkpt lat="39.11221261875343" lon="16.253987253539616"><ele>263.0</ele><time>2026-03-27T10:56:08Z</time></trkpt><trkpt lat="39.11200683393515" lon="16.25383555859314"><ele>267.0</ele><time>2026-03-27T10:56:09Z</time></trkpt><trkpt lat="39.111815433382255" lon="16.253676796014492"><ele>267.0</ele><time>2026-03-27T10:56:10Z</time></trkpt><trkpt lat="39.1116334617163" lon="16.25350496025453"><ele>267.0</ele><time>2026-03-27T10:56:11Z</time></trkpt><trkpt lat="39.111462238901964" lon="16.253314401786458"><ele>256.5</ele><time>2026-03-27T10:56:12Z</time></trkpt><trkpt lat="39.111301197571144" lon="16.253109509715724"><ele>246.0</ele><time>2026-03-27T10:56:13Z</time></trkpt><trkpt lat="39.111143276971" lon="16.25289583249192"><ele>246.0</ele><time>2026-03-27T10:56:14Z</time></trkpt><trkpt lat="39.1109835076087" lon="16.252676816733604"><ele>246.0</ele><time>2026-03-27T10:56:15Z</time></trkpt><trkpt lat="39.110822172985465" lon="16.252453715275657"><ele>239.5</ele><time>2026-03-27T10:56:16Z</time></trkpt><trkpt lat="39.110659091237984" lon="16.252227652216337"><ele>233.0</ele><time>2026-03-27T10:56:17Z</time></trkpt><trkpt lat="39.11049041874468" lon="16.252006196749342"><ele>233.0</ele><time>2026-03-27T10:56:18Z</time></trkpt><trkpt lat="39.11031244850677" lon="16.25179782390457"><ele>233.0</ele><time>2026-03-27T10:56:19Z</time></trkpt><trkpt lat="39.11012600721912" lon="16.251606643143344"><ele>238.0</ele><time>2026-03-27T10:56:20Z</time></trkpt><trkpt lat="39.109930440091155" lon="16.251438041410005"><ele>243.0</ele><time>2026-03-27T10:56:21Z</time></trkpt><trkpt lat="39.10972931455468" lon="16.25129273802462"><ele>246.0</ele><time>2026-03-27T10:56:22Z</time></trkpt><trkpt lat="39.10952353459459" lon="16.251165023783948"><ele>249.0</ele><time>2026-03-27T10:56:23Z</time></trkpt><trkpt lat="39.10931481761215" lon="16.25104987386478"><ele>249.0</ele><time>2026-03-27T10:56:24Z</time></trkpt><trkpt lat="39.109102548016345" lon="16.25093688728414"><ele>249.0</ele><time>2026-03-27T10:56:25Z</time></trkpt><trkpt lat="39.10888540724456" lon="16.250820023912265"><ele>250.0</ele><time>2026-03-27T10:56:26Z</time></trkpt><trkpt lat="39.10866629619781" lon="16.250701676217062"><ele>251.0</ele><time>2026-03-27T10:56:27Z</time></trkpt><trkpt lat="39.10844721077679" lon="16.250582984867947"><ele>246.0</ele><time>2026-03-27T10:56:28Z</time></trkpt><trkpt lat="39.10822451372888" lon="16.250462415316285"><ele>241.0</ele><time>2026-03-27T10:56:29Z</time></trkpt><trkpt lat="39.10800487869728" lon="16.2503438374249"><ele>241.0</ele><time>2026-03-27T10:56:30Z</time></trkpt><trkpt lat="39.107791482864606" lon="16.25022888637332"><ele>241.0</ele><time>2026-03-27T10:56:31Z</time></trkpt><trkpt lat="39.10757369324844" lon="16.250114163161044"><ele>235.5</ele><time>2026-03-27T10:56:32Z</time></trkpt><trkpt lat="39.107352898477174" lon="16.24999751320841"><ele>230.0</ele><time>2026-03-27T10:56:33Z</time></trkpt><trkpt lat="39.10713217733959" lon="16.249879108460973"><ele>233.0</ele><time>2026-03-27T10:56:34Z</time></trkpt><trkpt lat="39.106911180922936" lon="16.24975366447183"><ele>236.0</ele><time>2026-03-27T10:56:35Z</time></trkpt><trkpt lat="39.10669352301405" lon="16.249616165054892"><ele>230.5</ele><time>2026-03-27T10:56:36Z</time></trkpt><trkpt lat="39.10648081311236" lon="16.249465086213522"><ele>225.0</ele><time>2026-03-27T10:56:37Z</time></trkpt><trkpt lat="39.106271375101386" lon="16.24930342137834"><ele>225.0</ele><time>2026-03-27T10:56:38Z</time></trkpt><trkpt lat="39.10606373552717" lon="16.249136494732426"><ele>225.0</ele><time>2026-03-27T10:56:39Z</time></trkpt><trkpt lat="39.105859902628985" lon="16.24895901205386"><ele>220.5</ele><time>2026-03-27T10:56:40Z</time></trkpt><trkpt lat="39.10566593911151" lon="16.24877253866733"><ele>216.0</ele><time>2026-03-27T10:56:41Z</time></trkpt><trkpt lat="39.105481041035404" lon="16.248576451041878"><ele>216.0</ele><time>2026-03-27T10:56:42Z</time></trkpt><trkpt lat="39.10530582599993" lon="16.248372404883302"><ele>216.0</ele><time>2026-03-27T10:56:43Z</time></trkpt><trkpt lat="39.105141036379536" lon="16.248155215619732"><ele>214.5</ele><time>2026-03-27T10:56:44Z</time></trkpt><trkpt lat="39.104986087540894" lon="16.24792173547986"><ele>213.0</ele><time>2026-03-27T10:56:45Z</time></trkpt><trkpt lat="39.10484410850661" lon="16.247672465455747"><ele>209.5</ele><time>2026-03-27T10:56:46Z</time></trkpt><trkpt lat="39.104702967768034" lon="16.247417594828324"><ele>206.0</ele><time>2026-03-27T10:56:47Z</time></trkpt><trkpt lat="39.10455675892606" lon="16.247150258822593"><ele>202.0</ele><time>2026-03-27T10:56:48Z</time></trkpt><trkpt lat="39.104409992104344" lon="16.246887316805037"><ele>198.0</ele><time>2026-03-27T10:56:49Z</time></trkpt><trkpt lat="39.10426181140065" lon="16.246619952373226"><ele>190.5</ele><time>2026-03-27T10:56:50Z</time></trkpt><trkpt lat="39.104113460245415" lon="16.24634803285578"><ele>183.0</ele><time>2026-03-27T10:56:51Z</time></trkpt><trkpt lat="39.103964329875325" lon="16.24607166163852"><ele>183.0</ele><time>2026-03-27T10:56:52Z</time></trkpt><trkpt lat="39.103809133651716" lon="16.24579609787449"><ele>183.0</ele><time>2026-03-27T10:56:53Z</time></trkpt><trkpt lat="39.10364188521565" lon="16.245527825744276"><ele>181.5</ele><time>2026-03-27T10:56:54Z</time></trkpt><trkpt lat="39.10346482942806" lon="16.24526803242546"><ele>180.0</ele><time>2026-03-27T10:56:55Z</time></trkpt><trkpt lat="39.103279121939366" lon="16.245010502184297"><ele>185.5</ele><time>2026-03-27T10:56:56Z</time></trkpt><trkpt lat="39.10308907254769" lon="16.244758003727636"><ele>191.0</ele><time>2026-03-27T10:56:57Z</time></trkpt><trkpt lat="39.10289993334637" lon="16.244504254334302"><ele>191.0</ele><time>2026-03-27T10:56:58Z</time></trkpt><trkpt lat="39.10271194313428" lon="16.244245646737962"><ele>191.0</ele><time>2026-03-27T10:56:59Z</time></trkpt><trkpt lat="39.102526517945684" lon="16.243985501311723"><ele>199.5</ele><time>2026-03-27T10:57:00Z</time></trkpt><trkpt lat="39.10234266986651" lon="16.243722569794183"><ele>208.0</ele><time>2026-03-27T10:57:01Z</time></trkpt><trkpt lat="39.10215972041001" lon="16.243458088079887"><ele>208.0</ele><time>2026-03-27T10:57:02Z</time></trkpt><trkpt lat="39.10197820486084" lon="16.24319513720015"><ele>208.0</ele><time>2026-03-27T10:57:03Z</time></trkpt><trkpt lat="39.10179799039583" lon="16.242928537973654"><ele>215.5</ele><time>2026-03-27T10:57:04Z</time></trkpt><trkpt lat="39.10161906788539" lon="16.242659876360694"><ele>223.0</ele><time>2026-03-27T10:57:05Z</time></trkpt><trkpt lat="39.10144015509561" lon="16.24238797914725"><ele>227.5</ele><time>2026-03-27T10:57:06Z</time></trkpt><trkpt lat="39.10126078783033" lon="16.242115217021716"><ele>232.0</ele><time>2026-03-27T10:57:07Z</time></trkpt><trkpt lat="39.10108067447781" lon="16.241841118815604"><ele>232.0</ele><time>2026-03-27T10:57:08Z</time></trkpt><trkpt lat="39.10090147256316" lon="16.24156769332075"><ele>232.0</ele><time>2026-03-27T10:57:09Z</time></trkpt><trkpt lat="39.10072632424556" lon="16.24129776628985"><ele>235.0</ele><time>2026-03-27T10:57:10Z</time></trkpt><trkpt lat="39.10055667093002" lon="16.2410323781005"><ele>238.0</ele><time>2026-03-27T10:57:11Z</time></trkpt><trkpt lat="39.10037903085345" lon="16.240752712163893"><ele>253.5</ele><time>2026-03-27T10:57:12.069Z</time></trkpt><trkpt lat="39.10021797857709" lon="16.24050043521421"><ele>269.0</ele><time>2026-03-27T10:57:13.066Z</time></trkpt><trkpt lat="39.10005737696664" lon="16.24025289286074"><ele>254.5</ele><time>2026-03-27T10:57:14.069Z</time></trkpt><trkpt lat="39.09989753310512" lon="16.240015358352082"><ele>240.0</ele><time>2026-03-27T10:57:15.042Z</time></trkpt><trkpt lat="39.09973179726909" lon="16.23977393844091"><ele>172.0</ele><time>2026-03-27T10:57:16.036Z</time></trkpt><trkpt lat="39.09671305505809" lon="16.236614892278283"><ele>171.0</ele><time>2026-03-27T10:57:29Z</time></trkpt><trkpt lat="39.09650348044199" lon="16.236362983283755"><ele>170.0</ele><time>2026-03-27T10:57:30Z</time></trkpt><trkpt lat="39.096290643039865" lon="16.23611115039947"><ele>170.0</ele><time>2026-03-27T10:57:31Z</time></trkpt><trkpt lat="39.09608830964372" lon="16.235857149161372"><ele>170.0</ele><time>2026-03-27T10:57:32Z</time></trkpt><trkpt lat="39.09588392063997" lon="16.235607593087117"><ele>170.0</ele><time>2026-03-27T10:57:33Z</time></trkpt><trkpt lat="39.095673157204324" lon="16.23534625290322"><ele>170.0</ele><time>2026-03-27T10:57:34Z</time></trkpt><trkpt lat="39.09551374899885" lon="16.23512456144357"><ele>170.0</ele><time>2026-03-27T10:57:35Z</time></trkpt><trkpt lat="39.095324127864956" lon="16.234867688229148"><ele>170.0</ele><time>2026-03-27T10:57:36Z</time></trkpt><trkpt lat="39.09512517037807" lon="16.234630543266"><ele>170.0</ele><time>2026-03-27T10:57:37Z</time></trkpt><trkpt lat="39.09491043643322" lon="16.234409686206128"><ele>170.0</ele><time>2026-03-27T10:57:38Z</time></trkpt><trkpt lat="39.09469072656005" lon="16.23420390201694"><ele>170.0</ele><time>2026-03-27T10:57:39Z</time></trkpt><trkpt lat="39.09446363131766" lon="16.23400470406532"><ele>170.0</ele><time>2026-03-27T10:57:40Z</time></trkpt><trkpt lat="39.094240083467824" lon="16.233810609302143"><ele>166.5</ele><time>2026-03-27T10:57:41Z</time></trkpt><trkpt lat="39.09400845354166" lon="16.233624427687584"><ele>163.0</ele><time>2026-03-27T10:57:42Z</time></trkpt><trkpt lat="39.09377561778857" lon="16.23344203189088"><ele>163.0</ele><time>2026-03-27T10:57:43Z</time></trkpt><trkpt lat="39.093539612701825" lon="16.233273967693442"><ele>163.0</ele><time>2026-03-27T10:57:44Z</time></trkpt><trkpt lat="39.09330925673595" lon="16.233098999806742"><ele>161.0</ele><time>2026-03-27T10:57:45Z</time></trkpt><trkpt lat="39.09308045277988" lon="16.23292458174246"><ele>159.0</ele><time>2026-03-27T10:57:46Z</time></trkpt><trkpt lat="39.09286077544186" lon="16.23273568785176"><ele>159.0</ele><time>2026-03-27T10:57:47Z</time></trkpt><trkpt lat="39.092637930671536" lon="16.232544457806565"><ele>159.0</ele><time>2026-03-27T10:57:48Z</time></trkpt><trkpt lat="39.09241970278449" lon="16.232339159576103"><ele>159.5</ele><time>2026-03-27T10:57:49Z</time></trkpt><trkpt lat="39.09220154837584" lon="16.232128343450448"><ele>160.0</ele><time>2026-03-27T10:57:50Z</time></trkpt><trkpt lat="39.091990275274114" lon="16.231902688479153"><ele>160.0</ele><time>2026-03-27T10:57:51Z</time></trkpt><trkpt lat="39.09178657376999" lon="16.231663201910877"><ele>160.0</ele><time>2026-03-27T10:57:52Z</time></trkpt><trkpt lat="39.091594403688994" lon="16.23140736006264"><ele>158.0</ele><time>2026-03-27T10:57:53Z</time></trkpt><trkpt lat="39.09140740510543" lon="16.231144836226036"><ele>156.0</ele><time>2026-03-27T10:57:54Z</time></trkpt><trkpt lat="39.09123098315049" lon="16.2308668322629"><ele>155.5</ele><time>2026-03-27T10:57:55Z</time></trkpt><trkpt lat="39.091058673616544" lon="16.23058179563347"><ele>155.0</ele><time>2026-03-27T10:57:56Z</time></trkpt><trkpt lat="39.090900097159455" lon="16.230271908398635"><ele>156.0</ele><time>2026-03-27T10:57:57Z</time></trkpt><trkpt lat="39.090741445351355" lon="16.229960940892564"><ele>157.0</ele><time>2026-03-27T10:57:58Z</time></trkpt><trkpt lat="39.090589825754925" lon="16.229642923591058"><ele>157.0</ele><time>2026-03-27T10:57:59Z</time></trkpt><trkpt lat="39.09044772983204" lon="16.229313354217002"><ele>157.0</ele><time>2026-03-27T10:58:00Z</time></trkpt><trkpt lat="39.09031534823212" lon="16.22897380181161"><ele>157.5</ele><time>2026-03-27T10:58:01Z</time></trkpt><trkpt lat="39.09019404208263" lon="16.228624596194667"><ele>158.0</ele><time>2026-03-27T10:58:02Z</time></trkpt><trkpt lat="39.09008158531218" lon="16.228262779680446"><ele>157.5</ele><time>2026-03-27T10:58:03Z</time></trkpt><trkpt lat="39.089979835402126" lon="16.227897196143118"><ele>157.0</ele><time>2026-03-27T10:58:04Z</time></trkpt><trkpt lat="39.08988767115938" lon="16.227524076491278"><ele>154.5</ele><time>2026-03-27T10:58:05Z</time></trkpt><trkpt lat="39.0898020623378" lon="16.22714674629107"><ele>152.0</ele><time>2026-03-27T10:58:06Z</time></trkpt><trkpt lat="39.08972041808624" lon="16.22676761641747"><ele>152.0</ele><time>2026-03-27T10:58:07Z</time></trkpt><trkpt lat="39.08963712623155" lon="16.22639318239808"><ele>152.0</ele><time>2026-03-27T10:58:08Z</time></trkpt><trkpt lat="39.08955109069974" lon="16.226021762890458"><ele>152.0</ele><time>2026-03-27T10:58:09Z</time></trkpt><trkpt lat="39.08945675255804" lon="16.225652036319886"><ele>152.0</ele><time>2026-03-27T10:58:10Z</time></trkpt><trkpt lat="39.089352916382936" lon="16.225285445822827"><ele>152.0</ele><time>2026-03-27T10:58:11Z</time></trkpt><trkpt lat="39.08923349103393" lon="16.22492908780432"><ele>152.0</ele><time>2026-03-27T10:58:12Z</time></trkpt><trkpt lat="39.0890982339415" lon="16.224581907365337"><ele>150.5</ele><time>2026-03-27T10:58:13Z</time></trkpt><trkpt lat="39.088952467674766" lon="16.224245567215462"><ele>149.0</ele><time>2026-03-27T10:58:14Z</time></trkpt><trkpt lat="39.088792949010084" lon="16.223916364660838"><ele>148.5</ele><time>2026-03-27T10:58:15Z</time></trkpt><trkpt lat="39.08862226062916" lon="16.22359818589506"><ele>148.0</ele><time>2026-03-27T10:58:16Z</time></trkpt><trkpt lat="39.088441147544934" lon="16.223289847423835"><ele>146.0</ele><time>2026-03-27T10:58:17Z</time></trkpt><trkpt lat="39.08824998800147" lon="16.22298961003254"><ele>144.0</ele><time>2026-03-27T10:58:18Z</time></trkpt><trkpt lat="39.08804680378217" lon="16.222700991218062"><ele>144.0</ele><time>2026-03-27T10:58:19Z</time></trkpt><trkpt lat="39.087834558571245" lon="16.222426613079985"><ele>144.0</ele><time>2026-03-27T10:58:20Z</time></trkpt><trkpt lat="39.08761238157765" lon="16.222161740979672"><ele>151.0</ele><time>2026-03-27T10:58:21Z</time></trkpt><trkpt lat="39.08739183329036" lon="16.22190096265626"><ele>158.0</ele><time>2026-03-27T10:58:22Z</time></trkpt><trkpt lat="39.08717104621533" lon="16.221638540086175"><ele>153.5</ele><time>2026-03-27T10:58:23Z</time></trkpt><trkpt lat="39.08695300656449" lon="16.221375145553555"><ele>149.0</ele><time>2026-03-27T10:58:24Z</time></trkpt><trkpt lat="39.08673357782694" lon="16.22110944583998"><ele>147.5</ele><time>2026-03-27T10:58:25Z</time></trkpt><trkpt lat="39.086515935589595" lon="16.22084915322684"><ele>146.0</ele><time>2026-03-27T10:58:26Z</time></trkpt><trkpt lat="39.08629717537904" lon="16.22058914384515"><ele>146.0</ele><time>2026-03-27T10:58:27Z</time></trkpt><trkpt lat="39.0860773725362" lon="16.22033212967988"><ele>146.0</ele><time>2026-03-27T10:58:28Z</time></trkpt><trkpt lat="39.0858561656769" lon="16.22007331493532"><ele>145.0</ele><time>2026-03-27T10:58:29Z</time></trkpt><trkpt lat="39.08563623169873" lon="16.219814555389647"><ele>144.0</ele><time>2026-03-27T10:58:30Z</time></trkpt><trkpt lat="39.085419481392776" lon="16.219557709941945"><ele>144.0</ele><time>2026-03-27T10:58:31Z</time></trkpt><trkpt lat="39.085201595151524" lon="16.21929826202632"><ele>144.0</ele><time>2026-03-27T10:58:32Z</time></trkpt><trkpt lat="39.08498677938526" lon="16.21904144048914"><ele>143.5</ele><time>2026-03-27T10:58:33Z</time></trkpt><trkpt lat="39.084768770307896" lon="16.218781493003412"><ele>143.0</ele><time>2026-03-27T10:58:34Z</time></trkpt><trkpt lat="39.084550750107226" lon="16.21851544386951"><ele>143.0</ele><time>2026-03-27T10:58:35Z</time></trkpt><trkpt lat="39.08433877074613" lon="16.218244262233146"><ele>143.0</ele><time>2026-03-27T10:58:36Z</time></trkpt><trkpt lat="39.08413206875757" lon="16.217964791655245"><ele>144.0</ele><time>2026-03-27T10:58:37Z</time></trkpt><trkpt lat="39.083930420061776" lon="16.217678992945576"><ele>145.0</ele><time>2026-03-27T10:58:38Z</time></trkpt><trkpt lat="39.08373337533586" lon="16.217385843899105"><ele>143.5</ele><time>2026-03-27T10:58:39Z</time></trkpt><trkpt lat="39.08354373025465" lon="16.217090013514568"><ele>142.0</ele><time>2026-03-27T10:58:40Z</time></trkpt><trkpt lat="39.08335829344725" lon="16.216792150627512"><ele>149.5</ele><time>2026-03-27T10:58:41Z</time></trkpt><trkpt lat="39.08317816816515" lon="16.21648828616607"><ele>157.0</ele><time>2026-03-27T10:58:42Z</time></trkpt><trkpt lat="39.08300228592741" lon="16.21618187885942"><ele>157.0</ele><time>2026-03-27T10:58:43Z</time></trkpt><trkpt lat="39.08283051043733" lon="16.215867564608978"><ele>157.0</ele><time>2026-03-27T10:58:44Z</time></trkpt><trkpt lat="39.082661668524516" lon="16.215547350114353"><ele>151.5</ele><time>2026-03-27T10:58:45Z</time></trkpt><trkpt lat="39.08249989788046" lon="16.21522405594172"><ele>146.0</ele><time>2026-03-27T10:58:46Z</time></trkpt><trkpt lat="39.082345906888975" lon="16.21488984948998"><ele>150.0</ele><time>2026-03-27T10:58:47Z</time></trkpt><trkpt lat="39.08220213062403" lon="16.214550884633482"><ele>154.0</ele><time>2026-03-27T10:58:48Z</time></trkpt><trkpt lat="39.08206046098752" lon="16.21420699424735"><ele>150.0</ele><time>2026-03-27T10:58:49Z</time></trkpt><trkpt lat="39.08192428499887" lon="16.213862922048712"><ele>146.0</ele><time>2026-03-27T10:58:50Z</time></trkpt><trkpt lat="39.081792319123934" lon="16.2135132683352"><ele>146.0</ele><time>2026-03-27T10:58:51Z</time></trkpt><trkpt lat="39.081668803595306" lon="16.2131593775021"><ele>146.0</ele><time>2026-03-27T10:58:52Z</time></trkpt><trkpt lat="39.08155095807974" lon="16.21280483238402"><ele>153.0</ele><time>2026-03-27T10:58:53Z</time></trkpt><trkpt lat="39.08143458770269" lon="16.212440184002975"><ele>160.0</ele><time>2026-03-27T10:58:54Z</time></trkpt><trkpt lat="39.08132570927816" lon="16.212077487310335"><ele>160.0</ele><time>2026-03-27T10:58:55Z</time></trkpt><trkpt lat="39.081225719838194" lon="16.211709806928454"><ele>160.0</ele><time>2026-03-27T10:58:56Z</time></trkpt><trkpt lat="39.081131719622256" lon="16.211338944857506"><ele>156.5</ele><time>2026-03-27T10:58:57Z</time></trkpt><trkpt lat="39.08104387376354" lon="16.210962824973517"><ele>153.0</ele><time>2026-03-27T10:58:58Z</time></trkpt><trkpt lat="39.08096315349929" lon="16.21058565677903"><ele>149.5</ele><time>2026-03-27T10:58:59Z</time></trkpt><trkpt lat="39.08088492927852" lon="16.210206563138648"><ele>146.0</ele><time>2026-03-27T10:59:00Z</time></trkpt><trkpt lat="39.080806662048786" lon="16.209826059126424"><ele>158.0</ele><time>2026-03-27T10:59:01Z</time></trkpt><trkpt lat="39.08072977766816" lon="16.20944981421314"><ele>170.0</ele><time>2026-03-27T10:59:02Z</time></trkpt><trkpt lat="39.08065367637264" lon="16.209077083393844"><ele>166.5</ele><time>2026-03-27T10:59:03Z</time></trkpt><trkpt lat="39.08057925581667" lon="16.208708671455643"><ele>163.0</ele><time>2026-03-27T10:59:04Z</time></trkpt><trkpt lat="39.08050349142778" lon="16.208334236927"><ele>153.5</ele><time>2026-03-27T10:59:05Z</time></trkpt><trkpt lat="39.08042906211529" lon="16.207954768137494"><ele>144.0</ele><time>2026-03-27T10:59:06Z</time></trkpt><trkpt lat="39.080354983414885" lon="16.207573655277773"><ele>140.0</ele><time>2026-03-27T10:59:07Z</time></trkpt><trkpt lat="39.080282686451284" lon="16.207189611040892"><ele>136.0</ele><time>2026-03-27T10:59:08Z</time></trkpt><trkpt lat="39.08021647276332" lon="16.206808758516342"><ele>134.0</ele><time>2026-03-27T10:59:09Z</time></trkpt><trkpt lat="39.0801614768542" lon="16.20642742453732"><ele>132.0</ele><time>2026-03-27T10:59:10Z</time></trkpt><trkpt lat="39.08012145554788" lon="16.20604532592517"><ele>132.0</ele><time>2026-03-27T10:59:11Z</time></trkpt><trkpt lat="39.08010042539703" lon="16.205666265036932"><ele>132.0</ele><time>2026-03-27T10:59:12Z</time></trkpt><trkpt lat="39.08009366529484" lon="16.205288011363365"><ele>130.5</ele><time>2026-03-27T10:59:13Z</time></trkpt><trkpt lat="39.08010341413535" lon="16.204908142909876"><ele>129.0</ele><time>2026-03-27T10:59:14Z</time></trkpt><trkpt lat="39.08012608593893" lon="16.204534371133246"><ele>129.0</ele><time>2026-03-27T10:59:15Z</time></trkpt><trkpt lat="39.08016055453148" lon="16.204167770382067"><ele>129.0</ele><time>2026-03-27T10:59:16Z</time></trkpt><trkpt lat="39.080205371925864" lon="16.203803072954553"><ele>132.5</ele><time>2026-03-27T10:59:17Z</time></trkpt><trkpt lat="39.08026114056234" lon="16.203437766433744"><ele>136.0</ele><time>2026-03-27T10:59:18Z</time></trkpt><trkpt lat="39.08032657680416" lon="16.20307324260463"><ele>140.0</ele><time>2026-03-27T10:59:19Z</time></trkpt><trkpt lat="39.080398139684114" lon="16.202707740581985"><ele>144.0</ele><time>2026-03-27T10:59:20Z</time></trkpt><trkpt lat="39.08047065142095" lon="16.202341282883967"><ele>144.5</ele><time>2026-03-27T10:59:21Z</time></trkpt><trkpt lat="39.08053885474059" lon="16.201976257202123"><ele>145.0</ele><time>2026-03-27T10:59:22Z</time></trkpt><trkpt lat="39.0806009250682" lon="16.201633381281287"><ele>145.0</ele><time>2026-03-27T10:59:23Z</time></trkpt><trkpt lat="39.08065321434983" lon="16.201288403640284"><ele>145.0</ele><time>2026-03-27T10:59:24Z</time></trkpt><trkpt lat="39.0806952638387" lon="16.20092909855189"><ele>143.5</ele><time>2026-03-27T10:59:25Z</time></trkpt><trkpt lat="39.08072580391639" lon="16.200557316223716"><ele>142.0</ele><time>2026-03-27T10:59:26Z</time></trkpt><trkpt lat="39.08074596535562" lon="16.200183986396123"><ele>142.0</ele><time>2026-03-27T10:59:27Z</time></trkpt><trkpt lat="39.0807476443569" lon="16.199806922094574"><ele>142.0</ele><time>2026-03-27T10:59:28Z</time></trkpt><trkpt lat="39.080737502221574" lon="16.199432272643765"><ele>142.0</ele><time>2026-03-27T10:59:29Z</time></trkpt><trkpt lat="39.080710566197546" lon="16.19905678891876"><ele>142.0</ele><time>2026-03-27T10:59:30Z</time></trkpt><trkpt lat="39.08067293413994" lon="16.19867883554191"><ele>138.5</ele><time>2026-03-27T10:59:31Z</time></trkpt><trkpt lat="39.08062516581551" lon="16.19830249669574"><ele>135.0</ele><time>2026-03-27T10:59:32Z</time></trkpt><trkpt lat="39.08056044172467" lon="16.197936225582186"><ele>131.0</ele><time>2026-03-27T10:59:33Z</time></trkpt><trkpt lat="39.08048667892078" lon="16.197581977136785"><ele>127.0</ele><time>2026-03-27T10:59:34Z</time></trkpt><trkpt lat="39.08040146730897" lon="16.197232443609"><ele>123.0</ele><time>2026-03-27T10:59:35Z</time></trkpt><trkpt lat="39.08030333384622" lon="16.196887551859472"><ele>119.0</ele><time>2026-03-27T10:59:36Z</time></trkpt><trkpt lat="39.080188410181336" lon="16.19654850458945"><ele>117.5</ele><time>2026-03-27T10:59:37Z</time></trkpt><trkpt lat="39.08006204016913" lon="16.19621609087136"><ele>116.0</ele><time>2026-03-27T10:59:38Z</time></trkpt><trkpt lat="39.0799270172861" lon="16.195894788051735"><ele>119.0</ele><time>2026-03-27T10:59:39Z</time></trkpt><trkpt lat="39.079781987223356" lon="16.19557996323924"><ele>122.0</ele><time>2026-03-27T10:59:40Z</time></trkpt><trkpt lat="39.07962302368735" lon="16.19527471811558"><ele>122.0</ele><time>2026-03-27T10:59:41Z</time></trkpt><trkpt lat="39.07945123607222" lon="16.194968741969653"><ele>122.0</ele><time>2026-03-27T10:59:42Z</time></trkpt><trkpt lat="39.079266957711255" lon="16.194669133697527"><ele>119.0</ele><time>2026-03-27T10:59:43Z</time></trkpt><trkpt lat="39.07907326014396" lon="16.194380486026635"><ele>116.0</ele><time>2026-03-27T10:59:44Z</time></trkpt><trkpt lat="39.078867448467406" lon="16.194101666050713"><ele>112.5</ele><time>2026-03-27T10:59:45Z</time></trkpt><trkpt lat="39.07865326208603" lon="16.193836867709223"><ele>109.0</ele><time>2026-03-27T10:59:46Z</time></trkpt><trkpt lat="39.07842698108934" lon="16.193584292853814"><ele>110.0</ele><time>2026-03-27T10:59:47Z</time></trkpt><trkpt lat="39.078191118177536" lon="16.19334380073119"><ele>111.0</ele><time>2026-03-27T10:59:48Z</time></trkpt><trkpt lat="39.077947236701235" lon="16.193111204171085"><ele>111.0</ele><time>2026-03-27T10:59:49Z</time></trkpt><trkpt lat="39.07769921358045" lon="16.1928909835075"><ele>111.0</ele><time>2026-03-27T10:59:50Z</time></trkpt><trkpt lat="39.077450073112814" lon="16.192676563510133"><ele>111.5</ele><time>2026-03-27T10:59:51Z</time></trkpt><trkpt lat="39.07720174497456" lon="16.19246094629587"><ele>112.0</ele><time>2026-03-27T10:59:52Z</time></trkpt><trkpt lat="39.07695924171274" lon="16.19224742247166"><ele>112.0</ele><time>2026-03-27T10:59:53Z</time></trkpt><trkpt lat="39.076724423201554" lon="16.19203900076903"><ele>112.0</ele><time>2026-03-27T10:59:54Z</time></trkpt><trkpt lat="39.07648379759253" lon="16.19183019489473"><ele>110.0</ele><time>2026-03-27T10:59:55Z</time></trkpt><trkpt lat="39.07624456317568" lon="16.191622779090153"><ele>108.0</ele><time>2026-03-27T10:59:56Z</time></trkpt><trkpt lat="39.07600614473858" lon="16.191416529057804"><ele>112.0</ele><time>2026-03-27T10:59:57Z</time></trkpt><trkpt lat="39.07576783801898" lon="16.19121490552478"><ele>116.0</ele><time>2026-03-27T10:59:58Z</time></trkpt><trkpt lat="39.07552932995821" lon="16.191020144079424"><ele>116.0</ele><time>2026-03-27T10:59:59Z</time></trkpt><trkpt lat="39.07528294941081" lon="16.190836735190626"><ele>116.0</ele><time>2026-03-27T11:00:00Z</time></trkpt><trkpt lat="39.07503817176562" lon="16.190664164780458"><ele>113.0</ele><time>2026-03-27T11:00:01Z</time></trkpt><trkpt lat="39.07479314689874" lon="16.19049994098339"><ele>110.0</ele><time>2026-03-27T11:00:02Z</time></trkpt><trkpt lat="39.07454522068391" lon="16.19034685973114"><ele>110.0</ele><time>2026-03-27T11:00:03Z</time></trkpt><trkpt lat="39.0743031350452" lon="16.190202372052976"><ele>110.0</ele><time>2026-03-27T11:00:04Z</time></trkpt><trkpt lat="39.07407193365306" lon="16.190068042902347"><ele>108.5</ele><time>2026-03-27T11:00:05Z</time></trkpt><trkpt lat="39.0738517170347" lon="16.189935845590455"><ele>107.0</ele><time>2026-03-27T11:00:06Z</time></trkpt><trkpt lat="39.07364955578223" lon="16.189801209425173"><ele>107.0</ele><time>2026-03-27T11:00:07Z</time></trkpt><trkpt lat="39.07345333233533" lon="16.189644694879416"><ele>107.0</ele><time>2026-03-27T11:00:08Z</time></trkpt><trkpt lat="39.07327262300479" lon="16.189455156447096"><ele>121.0</ele><time>2026-03-27T11:00:09Z</time></trkpt><trkpt lat="39.07310613743218" lon="16.189241002263373"><ele>135.0</ele><time>2026-03-27T11:00:10Z</time></trkpt><trkpt lat="39.07294584577131" lon="16.18900927608354"><ele>126.5</ele><time>2026-03-27T11:00:11Z</time></trkpt><trkpt lat="39.072790930470916" lon="16.188762188622928"><ele>118.0</ele><time>2026-03-27T11:00:12Z</time></trkpt><trkpt lat="39.072643991111896" lon="16.188503667849357"><ele>118.0</ele><time>2026-03-27T11:00:13Z</time></trkpt><trkpt lat="39.07249878828999" lon="16.18823977908644"><ele>118.0</ele><time>2026-03-27T11:00:14Z</time></trkpt><trkpt lat="39.07234816618952" lon="16.187976854397974"><ele>129.0</ele><time>2026-03-27T11:00:15Z</time></trkpt><trkpt lat="39.07219420754495" lon="16.187720514999263"><ele>140.0</ele><time>2026-03-27T11:00:16Z</time></trkpt><trkpt lat="39.072034078750825" lon="16.187478192244836"><ele>134.33333333333331</ele><time>2026-03-27T11:00:17Z</time></trkpt><trkpt lat="39.07186815092087" lon="16.187267738719065"><ele>128.66666666666666</ele><time>2026-03-27T11:00:18Z</time></trkpt><trkpt lat="39.07169995209144" lon="16.187094851649686"><ele>123.0</ele><time>2026-03-27T11:00:19Z</time></trkpt><trkpt lat="39.071526250564354" lon="16.186945830473285"><ele>123.0</ele><time>2026-03-27T11:00:20Z</time></trkpt><trkpt lat="39.071344457019855" lon="16.186813438253232"><ele>123.0</ele><time>2026-03-27T11:00:21Z</time></trkpt><trkpt lat="39.07115526037017" lon="16.186696310581624"><ele>123.0</ele><time>2026-03-27T11:00:22Z</time></trkpt><trkpt lat="39.070960810588254" lon="16.18659927688216"><ele>125.0</ele><time>2026-03-27T11:00:23Z</time></trkpt><trkpt lat="39.07075713661907" lon="16.186515484331302"><ele>127.0</ele><time>2026-03-27T11:00:24Z</time></trkpt><trkpt lat="39.070518883512186" lon="16.186439278854625"><ele>116.0</ele><time>2026-03-27T11:00:25Z</time></trkpt><trkpt lat="39.07027734883447" lon="16.186390638969804"><ele>105.0</ele><time>2026-03-27T11:00:26Z</time></trkpt><trkpt lat="39.07003885795075" lon="16.186305711586364"><ele>110.0</ele><time>2026-03-27T11:00:27Z</time></trkpt><trkpt lat="39.069808915258136" lon="16.186229908583723"><ele>115.0</ele><time>2026-03-27T11:00:28Z</time></trkpt><trkpt lat="39.069585654959226" lon="16.186139524483945"><ele>115.0</ele><time>2026-03-27T11:00:29Z</time></trkpt><trkpt lat="39.06936402398798" lon="16.18602718832853"><ele>115.0</ele><time>2026-03-27T11:00:30Z</time></trkpt><trkpt lat="39.06914690122431" lon="16.18589295229651"><ele>118.5</ele><time>2026-03-27T11:00:31Z</time></trkpt><trkpt lat="39.06894570101848" lon="16.185726129252007"><ele>122.0</ele><time>2026-03-27T11:00:32Z</time></trkpt><trkpt lat="39.06875695038009" lon="16.185530854257824"><ele>122.0</ele><time>2026-03-27T11:00:33Z</time></trkpt><trkpt lat="39.068584974740936" lon="16.185321872946517"><ele>122.0</ele><time>2026-03-27T11:00:34Z</time></trkpt><trkpt lat="39.06842688390392" lon="16.18509747130408"><ele>122.0</ele><time>2026-03-27T11:00:35Z</time></trkpt><trkpt lat="39.068282413955124" lon="16.184854925245215"><ele>122.0</ele><time>2026-03-27T11:00:36Z</time></trkpt><trkpt lat="39.06815643484727" lon="16.184596575867918"><ele>126.5</ele><time>2026-03-27T11:00:37Z</time></trkpt><trkpt lat="39.06804831859216" lon="16.184320632461556"><ele>131.0</ele><time>2026-03-27T11:00:38Z</time></trkpt><trkpt lat="39.06795856033111" lon="16.184031872105823"><ele>134.5</ele><time>2026-03-27T11:00:39Z</time></trkpt><trkpt lat="39.067882766050126" lon="16.183734545554618"><ele>138.0</ele><time>2026-03-27T11:00:40Z</time></trkpt><trkpt lat="39.06781255019805" lon="16.18343474652526"><ele>134.5</ele><time>2026-03-27T11:00:41Z</time></trkpt><trkpt lat="39.067740325826584" lon="16.183132399359142"><ele>131.0</ele><time>2026-03-27T11:00:42Z</time></trkpt><trkpt lat="39.06766453991047" lon="16.182833581968858"><ele>131.0</ele><time>2026-03-27T11:00:43Z</time></trkpt><trkpt lat="39.067577191301915" lon="16.182541699786825"><ele>131.0</ele><time>2026-03-27T11:00:44Z</time></trkpt><trkpt lat="39.067473673979194" lon="16.1822704766965"><ele>129.5</ele><time>2026-03-27T11:00:45Z</time></trkpt><trkpt lat="39.067355873185406" lon="16.182013211678047"><ele>128.0</ele><time>2026-03-27T11:00:46Z</time></trkpt><trkpt lat="39.06722294869343" lon="16.18176861295002"><ele>128.0</ele><time>2026-03-27T11:00:47Z</time></trkpt><trkpt lat="39.067073039623565" lon="16.181541721169744"><ele>128.0</ele><time>2026-03-27T11:00:48Z</time></trkpt><trkpt lat="39.06691151122826" lon="16.181335494293435"><ele>126.0</ele><time>2026-03-27T11:00:49Z</time></trkpt><trkpt lat="39.06674372937898" lon="16.181131621184257"><ele>124.0</ele><time>2026-03-27T11:00:50Z</time></trkpt><trkpt lat="39.06657010740077" lon="16.180927630711498"><ele>124.0</ele><time>2026-03-27T11:00:51Z</time></trkpt><trkpt lat="39.06639404813816" lon="16.18071903940491"><ele>124.0</ele><time>2026-03-27T11:00:52Z</time></trkpt><trkpt lat="39.066217330835045" lon="16.180508118889637"><ele>124.5</ele><time>2026-03-27T11:00:53Z</time></trkpt><trkpt lat="39.066038277158896" lon="16.180296232709647"><ele>125.0</ele><time>2026-03-27T11:00:54Z</time></trkpt><trkpt lat="39.065858258698306" lon="16.18008141271064"><ele>128.5</ele><time>2026-03-27T11:00:55Z</time></trkpt><trkpt lat="39.06568310051525" lon="16.179863166434675"><ele>132.0</ele><time>2026-03-27T11:00:56Z</time></trkpt><trkpt lat="39.06551395642492" lon="16.179639114306372"><ele>132.0</ele><time>2026-03-27T11:00:57Z</time></trkpt><trkpt lat="39.06534995969515" lon="16.179410073911544"><ele>132.0</ele><time>2026-03-27T11:00:58Z</time></trkpt><trkpt lat="39.06518921722036" lon="16.17917259689164"><ele>130.0</ele><time>2026-03-27T11:00:59Z</time></trkpt><trkpt lat="39.06503329614619" lon="16.17892516964711"><ele>128.0</ele><time>2026-03-27T11:01:00Z</time></trkpt><trkpt lat="39.064883477491" lon="16.178666191894223"><ele>133.0</ele><time>2026-03-27T11:01:01Z</time></trkpt><trkpt lat="39.06474020071776" lon="16.178395150864652"><ele>138.0</ele><time>2026-03-27T11:01:02Z</time></trkpt><trkpt lat="39.06460491354902" lon="16.178114272540455"><ele>138.0</ele><time>2026-03-27T11:01:03Z</time></trkpt><trkpt lat="39.06447866228332" lon="16.17782853135131"><ele>138.0</ele><time>2026-03-27T11:01:04Z</time></trkpt><trkpt lat="39.06435915413965" lon="16.17753421385425"><ele>138.5</ele><time>2026-03-27T11:01:05Z</time></trkpt><trkpt lat="39.06424877685916" lon="16.177231192184983"><ele>139.0</ele><time>2026-03-27T11:01:06Z</time></trkpt><trkpt lat="39.06414931616002" lon="16.176918549938755"><ele>144.0</ele><time>2026-03-27T11:01:07Z</time></trkpt><trkpt lat="39.06405382232991" lon="16.17660081595092"><ele>149.0</ele><time>2026-03-27T11:01:08Z</time></trkpt><trkpt lat="39.06396234095268" lon="16.17628358217949"><ele>149.0</ele><time>2026-03-27T11:01:09Z</time></trkpt><trkpt lat="39.06386992666591" lon="16.17595900272138"><ele>149.0</ele><time>2026-03-27T11:01:10Z</time></trkpt><trkpt lat="39.06377429150815" lon="16.175630549603774"><ele>148.0</ele><time>2026-03-27T11:01:11Z</time></trkpt><trkpt lat="39.06367636882143" lon="16.175299520091084"><ele>147.0</ele><time>2026-03-27T11:01:12Z</time></trkpt><trkpt lat="39.06357522875584" lon="16.174972513492552"><ele>146.0</ele><time>2026-03-27T11:01:13Z</time></trkpt><trkpt lat="39.06346971695701" lon="16.174648003593965"><ele>145.0</ele><time>2026-03-27T11:01:14Z</time></trkpt><trkpt lat="39.063361824807224" lon="16.174326509816286"><ele>151.5</ele><time>2026-03-27T11:01:15Z</time></trkpt><trkpt lat="39.063246697818094" lon="16.174006008569293"><ele>158.0</ele><time>2026-03-27T11:01:16Z</time></trkpt><trkpt lat="39.06312697330668" lon="16.1736878867865"><ele>158.0</ele><time>2026-03-27T11:01:17Z</time></trkpt><trkpt lat="39.06300466632499" lon="16.173372323854668"><ele>158.0</ele><time>2026-03-27T11:01:18Z</time></trkpt><trkpt lat="39.06287920245894" lon="16.173054910820603"><ele>155.0</ele><time>2026-03-27T11:01:19Z</time></trkpt><trkpt lat="39.06275691423227" lon="16.172733906432555"><ele>152.0</ele><time>2026-03-27T11:01:20Z</time></trkpt><trkpt lat="39.06263747819965" lon="16.172413525805588"><ele>147.0</ele><time>2026-03-27T11:01:21Z</time></trkpt><trkpt lat="39.0625229573554" lon="16.172093503302385"><ele>142.0</ele><time>2026-03-27T11:01:22Z</time></trkpt><trkpt lat="39.062414874094976" lon="16.171766993363132"><ele>152.0</ele><time>2026-03-27T11:01:23Z</time></trkpt><trkpt lat="39.06231458821364" lon="16.171441141325545"><ele>162.0</ele><time>2026-03-27T11:01:24Z</time></trkpt><trkpt lat="39.062226517539834" lon="16.171112802757452"><ele>162.0</ele><time>2026-03-27T11:01:25Z</time></trkpt><trkpt lat="39.06215059534776" lon="16.170782279057644"><ele>162.0</ele><time>2026-03-27T11:01:26Z</time></trkpt><trkpt lat="39.062085353505736" lon="16.170450570004224"><ele>162.0</ele><time>2026-03-27T11:01:27Z</time></trkpt><trkpt lat="39.062029023982596" lon="16.170116334243005"><ele>162.0</ele><time>2026-03-27T11:01:28Z</time></trkpt><trkpt lat="39.06197489193072" lon="16.16978521073832"><ele>161.0</ele><time>2026-03-27T11:01:29Z</time></trkpt><trkpt lat="39.061927512450616" lon="16.169449571364343"><ele>160.0</ele><time>2026-03-27T11:01:30Z</time></trkpt><trkpt lat="39.06188110471702" lon="16.169112652798464"><ele>158.0</ele><time>2026-03-27T11:01:31Z</time></trkpt><trkpt lat="39.061824445669906" lon="16.168777533207106"><ele>156.0</ele><time>2026-03-27T11:01:32Z</time></trkpt><trkpt lat="39.061757683443545" lon="16.168443905326036"><ele>152.0</ele><time>2026-03-27T11:01:33Z</time></trkpt><trkpt lat="39.06168099456816" lon="16.168111801742782"><ele>148.0</ele><time>2026-03-27T11:01:34Z</time></trkpt><trkpt lat="39.061591209055074" lon="16.167780652930873"><ele>153.5</ele><time>2026-03-27T11:01:35Z</time></trkpt><trkpt lat="39.06148836899904" lon="16.167452243773024"><ele>159.0</ele><time>2026-03-27T11:01:36Z</time></trkpt><trkpt lat="39.06137199334426" lon="16.16712370986422"><ele>159.0</ele><time>2026-03-27T11:01:37Z</time></trkpt><trkpt lat="39.06124405996866" lon="16.16679821679919"><ele>159.0</ele><time>2026-03-27T11:01:38Z</time></trkpt><trkpt lat="39.06110728253847" lon="16.16647337301639"><ele>155.0</ele><time>2026-03-27T11:01:39Z</time></trkpt><trkpt lat="39.06096726840399" lon="16.166150798166658"><ele>151.0</ele><time>2026-03-27T11:01:40Z</time></trkpt><trkpt lat="39.06082420446623" lon="16.16582655681354"><ele>156.5</ele><time>2026-03-27T11:01:41Z</time></trkpt><trkpt lat="39.06068176892089" lon="16.165496784049555"><ele>162.0</ele><time>2026-03-27T11:01:42Z</time></trkpt><trkpt lat="39.06054702925098" lon="16.165161563729704"><ele>158.0</ele><time>2026-03-27T11:01:43Z</time></trkpt><trkpt lat="39.060421756446395" lon="16.164821320702668"><ele>154.0</ele><time>2026-03-27T11:01:44Z</time></trkpt><trkpt lat="39.060307492167055" lon="16.164476262585435"><ele>154.0</ele><time>2026-03-27T11:01:45Z</time></trkpt><trkpt lat="39.060201462504025" lon="16.16412714378144"><ele>154.0</ele><time>2026-03-27T11:01:46Z</time></trkpt><trkpt lat="39.060095712980896" lon="16.163776533132307"><ele>152.5</ele><time>2026-03-27T11:01:47Z</time></trkpt><trkpt lat="39.05999064523056" lon="16.163428038667313"><ele>151.0</ele><time>2026-03-27T11:01:48Z</time></trkpt><trkpt lat="39.05988378251939" lon="16.16307957367022"><ele>160.0</ele><time>2026-03-27T11:01:49Z</time></trkpt><trkpt lat="39.059776934140274" lon="16.162727941957424"><ele>169.0</ele><time>2026-03-27T11:01:50Z</time></trkpt><trkpt lat="39.05966917869046" lon="16.162377011996963"><ele>164.0</ele><time>2026-03-27T11:01:51Z</time></trkpt><trkpt lat="39.05956515829657" lon="16.162027438586303"><ele>159.0</ele><time>2026-03-27T11:01:52Z</time></trkpt><trkpt lat="39.059463398644176" lon="16.161678539981832"><ele>152.0</ele><time>2026-03-27T11:01:53Z</time></trkpt><trkpt lat="39.05936207422175" lon="16.161329900302196"><ele>145.0</ele><time>2026-03-27T11:01:54Z</time></trkpt><trkpt lat="39.059260993877565" lon="16.160975160776335"><ele>146.0</ele><time>2026-03-27T11:01:55Z</time></trkpt><trkpt lat="39.059159337967436" lon="16.160618484270316"><ele>147.0</ele><time>2026-03-27T11:01:56Z</time></trkpt><trkpt lat="39.059056992812565" lon="16.160261243507236"><ele>147.0</ele><time>2026-03-27T11:01:57Z</time></trkpt><trkpt lat="39.058953936853136" lon="16.15990344245996"><ele>147.0</ele><time>2026-03-27T11:01:58Z</time></trkpt><trkpt lat="39.05885055952624" lon="16.15955002188093"><ele>147.5</ele><time>2026-03-27T11:01:59Z</time></trkpt><trkpt lat="39.058746083034" lon="16.15920068060166"><ele>148.0</ele><time>2026-03-27T11:02:00Z</time></trkpt><trkpt lat="39.058636574091665" lon="16.15885747697465"><ele>148.0</ele><time>2026-03-27T11:02:01Z</time></trkpt><trkpt lat="39.058519614028555" lon="16.158520880018884"><ele>148.0</ele><time>2026-03-27T11:02:02Z</time></trkpt><trkpt lat="39.05839130719798" lon="16.158194863710616"><ele>155.0</ele><time>2026-03-27T11:02:03Z</time></trkpt><trkpt lat="39.05825041839114" lon="16.157874693465143"><ele>162.0</ele><time>2026-03-27T11:02:04Z</time></trkpt><trkpt lat="39.058096986407506" lon="16.157563452319202"><ele>155.0</ele><time>2026-03-27T11:02:05Z</time></trkpt><trkpt lat="39.05793276662366" lon="16.157256997374574"><ele>148.0</ele><time>2026-03-27T11:02:06Z</time></trkpt><trkpt lat="39.05775843987967" lon="16.156958100685188"><ele>148.0</ele><time>2026-03-27T11:02:07Z</time></trkpt><trkpt lat="39.05757366237169" lon="16.156668224523372"><ele>148.0</ele><time>2026-03-27T11:02:08Z</time></trkpt><trkpt lat="39.05737802014381" lon="16.156388278919163"><ele>153.0</ele><time>2026-03-27T11:02:09Z</time></trkpt><trkpt lat="39.0571725127397" lon="16.156115110653573"><ele>158.0</ele><time>2026-03-27T11:02:10Z</time></trkpt><trkpt lat="39.05695479982229" lon="16.15585130400111"><ele>154.5</ele><time>2026-03-27T11:02:11Z</time></trkpt><trkpt lat="39.056722867605764" lon="16.155603791961695"><ele>151.0</ele><time>2026-03-27T11:02:12Z</time></trkpt><trkpt lat="39.05647973351303" lon="16.1553703700178"><ele>150.5</ele><time>2026-03-27T11:02:13Z</time></trkpt><trkpt lat="39.056225658092295" lon="16.155151242371264"><ele>150.0</ele><time>2026-03-27T11:02:14Z</time></trkpt><trkpt lat="39.055961510392635" lon="16.154948962998507"><ele>148.0</ele><time>2026-03-27T11:02:15Z</time></trkpt><trkpt lat="39.05569116723194" lon="16.1547606306859"><ele>146.0</ele><time>2026-03-27T11:02:16Z</time></trkpt><trkpt lat="39.0554144387094" lon="16.154583841431457"><ele>146.0</ele><time>2026-03-27T11:02:17Z</time></trkpt><trkpt lat="39.05513625258339" lon="16.15440767378561"><ele>146.0</ele><time>2026-03-27T11:02:18Z</time></trkpt><trkpt lat="39.05485697673606" lon="16.154233798815525"><ele>144.0</ele><time>2026-03-27T11:02:19Z</time></trkpt><trkpt lat="39.05457774676439" lon="16.15406188460473"><ele>142.0</ele><time>2026-03-27T11:02:20Z</time></trkpt><trkpt lat="39.05429970439335" lon="16.153891258901247"><ele>147.5</ele><time>2026-03-27T11:02:21Z</time></trkpt><trkpt lat="39.054023620322184" lon="16.153719266025604"><ele>153.0</ele><time>2026-03-27T11:02:22Z</time></trkpt><trkpt lat="39.053749264873815" lon="16.15354642499088"><ele>153.0</ele><time>2026-03-27T11:02:23Z</time></trkpt><trkpt lat="39.053474666879765" lon="16.153374422907937"><ele>153.0</ele><time>2026-03-27T11:02:24Z</time></trkpt><trkpt lat="39.05320267767323" lon="16.15320415322173"><ele>149.5</ele><time>2026-03-27T11:02:25Z</time></trkpt><trkpt lat="39.052932662332736" lon="16.153037276217365"><ele>146.0</ele><time>2026-03-27T11:02:26Z</time></trkpt><trkpt lat="39.052662616458" lon="16.152873076815997"><ele>145.5</ele><time>2026-03-27T11:02:27Z</time></trkpt><trkpt lat="39.05239288526748" lon="16.152707916032856"><ele>145.0</ele><time>2026-03-27T11:02:28Z</time></trkpt><trkpt lat="39.05212271590866" lon="16.152542353327267"><ele>148.0</ele><time>2026-03-27T11:02:29Z</time></trkpt><trkpt lat="39.051853535083296" lon="16.152373016207452"><ele>151.0</ele><time>2026-03-27T11:02:30Z</time></trkpt><trkpt lat="39.05158754635431" lon="16.152195785979494"><ele>151.0</ele><time>2026-03-27T11:02:31Z</time></trkpt><trkpt lat="39.05132545002599" lon="16.152012048913328"><ele>151.0</ele><time>2026-03-27T11:02:32Z</time></trkpt><trkpt lat="39.05106723288722" lon="16.151818571153996"><ele>151.0</ele><time>2026-03-27T11:02:33Z</time></trkpt><trkpt lat="39.05081258568676" lon="16.151617498451593"><ele>151.0</ele><time>2026-03-27T11:02:34Z</time></trkpt><trkpt lat="39.05055999881356" lon="16.151405813108923"><ele>150.5</ele><time>2026-03-27T11:02:35Z</time></trkpt><trkpt lat="39.0503121483745" lon="16.151181029899256"><ele>150.0</ele><time>2026-03-27T11:02:36Z</time></trkpt><trkpt lat="39.05007168093742" lon="16.1509468554354"><ele>151.5</ele><time>2026-03-27T11:02:37Z</time></trkpt><trkpt lat="39.04982891046775" lon="16.150711201249003"><ele>153.0</ele><time>2026-03-27T11:02:38Z</time></trkpt><trkpt lat="39.04958818654866" lon="16.150470567561587"><ele>153.0</ele><time>2026-03-27T11:02:39Z</time></trkpt><trkpt lat="39.04934684713733" lon="16.150233025388392"><ele>153.0</ele><time>2026-03-27T11:02:40Z</time></trkpt><trkpt lat="39.04910463452044" lon="16.149991926054174"><ele>153.0</ele><time>2026-03-27T11:02:41Z</time></trkpt><trkpt lat="39.04886343797714" lon="16.14974830973063"><ele>153.0</ele><time>2026-03-27T11:02:42Z</time></trkpt><trkpt lat="39.048621746906385" lon="16.149503615793613"><ele>153.0</ele><time>2026-03-27T11:02:43Z</time></trkpt><trkpt lat="39.048380623273665" lon="16.14925580282935"><ele>153.0</ele><time>2026-03-27T11:02:44Z</time></trkpt><trkpt lat="39.04813820581862" lon="16.14900873972043"><ele>152.5</ele><time>2026-03-27T11:02:45Z</time></trkpt><trkpt lat="39.047896810586074" lon="16.14876123122975"><ele>152.0</ele><time>2026-03-27T11:02:46Z</time></trkpt><trkpt lat="39.04765471129079" lon="16.1485147088793"><ele>153.5</ele><time>2026-03-27T11:02:47Z</time></trkpt><trkpt lat="39.0474080451496" lon="16.14827186289952"><ele>155.0</ele><time>2026-03-27T11:02:48Z</time></trkpt><trkpt lat="39.047155005312774" lon="16.148037318886097"><ele>150.5</ele><time>2026-03-27T11:02:49Z</time></trkpt><trkpt lat="39.0468900267548" lon="16.14782236444018"><ele>146.0</ele><time>2026-03-27T11:02:50Z</time></trkpt><trkpt lat="39.04661633011288" lon="16.14762338539604"><ele>147.5</ele><time>2026-03-27T11:02:51Z</time></trkpt><trkpt lat="39.046333217292215" lon="16.147441389557923"><ele>149.0</ele><time>2026-03-27T11:02:52Z</time></trkpt><trkpt lat="39.046046508491735" lon="16.14727380355542"><ele>151.5</ele><time>2026-03-27T11:02:53Z</time></trkpt><trkpt lat="39.045756637519084" lon="16.147116083318306"><ele>154.0</ele><time>2026-03-27T11:02:54Z</time></trkpt><trkpt lat="39.04546679286515" lon="16.14695672751054"><ele>154.0</ele><time>2026-03-27T11:02:55Z</time></trkpt><trkpt lat="39.045179162930275" lon="16.14679414895231"><ele>154.0</ele><time>2026-03-27T11:02:56Z</time></trkpt><trkpt lat="39.04489372573337" lon="16.146629231713"><ele>144.5</ele><time>2026-03-27T11:02:57Z</time></trkpt><trkpt lat="39.04461550447059" lon="16.146455821385736"><ele>135.0</ele><time>2026-03-27T11:02:58Z</time></trkpt><trkpt lat="39.04434417174114" lon="16.146271785416754"><ele>143.5</ele><time>2026-03-27T11:02:59Z</time></trkpt><trkpt lat="39.044080850220304" lon="16.14607371867135"><ele>152.0</ele><time>2026-03-27T11:03:00Z</time></trkpt><trkpt lat="39.04382982800294" lon="16.14586164545935"><ele>145.5</ele><time>2026-03-27T11:03:01Z</time></trkpt><trkpt lat="39.04358677672557" lon="16.14563609514427"><ele>139.0</ele><time>2026-03-27T11:03:02Z</time></trkpt><trkpt lat="39.04335090836166" lon="16.14539759867197"><ele>143.5</ele><time>2026-03-27T11:03:03Z</time></trkpt><trkpt lat="39.04312827917154" lon="16.14513907298046"><ele>148.0</ele><time>2026-03-27T11:03:04Z</time></trkpt><trkpt lat="39.04291598977555" lon="16.144862961196022"><ele>148.0</ele><time>2026-03-27T11:03:05Z</time></trkpt><trkpt lat="39.04271507685996" lon="16.144573608848738"><ele>148.0</ele><time>2026-03-27T11:03:06Z</time></trkpt><trkpt lat="39.04252578496794" lon="16.144271987644466"><ele>154.5</ele><time>2026-03-27T11:03:07Z</time></trkpt><trkpt lat="39.04234760196187" lon="16.143961442740103"><ele>161.0</ele><time>2026-03-27T11:03:08Z</time></trkpt><trkpt lat="39.04217728162981" lon="16.143644220383525"><ele>161.0</ele><time>2026-03-27T11:03:09Z</time></trkpt><trkpt lat="39.04201577018012" lon="16.14332017444996"><ele>161.0</ele><time>2026-03-27T11:03:10Z</time></trkpt><trkpt lat="39.041867355827115" lon="16.142984790156714"><ele>166.5</ele><time>2026-03-27T11:03:11Z</time></trkpt><trkpt lat="39.04173378022451" lon="16.142639771484646"><ele>172.0</ele><time>2026-03-27T11:03:12Z</time></trkpt><trkpt lat="39.04160570945177" lon="16.142290201986693"><ele>172.0</ele><time>2026-03-27T11:03:13Z</time></trkpt><trkpt lat="39.0414793896025" lon="16.14194444472317"><ele>172.0</ele><time>2026-03-27T11:03:14Z</time></trkpt><trkpt lat="39.041346085862486" lon="16.141602077874825"><ele>163.5</ele><time>2026-03-27T11:03:15Z</time></trkpt><trkpt lat="39.041210471068" lon="16.141278599909885"><ele>155.0</ele><time>2026-03-27T11:03:16Z</time></trkpt><trkpt lat="39.04107088889146" lon="16.140974605181686"><ele>151.5</ele><time>2026-03-27T11:03:17Z</time></trkpt><trkpt lat="39.04092145095717" lon="16.140675660215887"><ele>148.0</ele><time>2026-03-27T11:03:18Z</time></trkpt><trkpt lat="39.04076298542216" lon="16.14038839538372"><ele>148.0</ele><time>2026-03-27T11:03:19Z</time></trkpt><trkpt lat="39.04059194167586" lon="16.14011117926053"><ele>148.0</ele><time>2026-03-27T11:03:20Z</time></trkpt><trkpt lat="39.04041275187714" lon="16.139839275234635"><ele>137.0</ele><time>2026-03-27T11:03:21Z</time></trkpt><trkpt lat="39.04022803167816" lon="16.13957827309744"><ele>126.0</ele><time>2026-03-27T11:03:22Z</time></trkpt><trkpt lat="39.04003320140644" lon="16.13932539733076"><ele>127.0</ele><time>2026-03-27T11:03:23Z</time></trkpt><trkpt lat="39.0398295530954" lon="16.139085760893487"><ele>128.0</ele><time>2026-03-27T11:03:24Z</time></trkpt><trkpt lat="39.03961721469011" lon="16.13885374430634"><ele>128.0</ele><time>2026-03-27T11:03:25Z</time></trkpt><trkpt lat="39.03939957600111" lon="16.13862105876228"><ele>128.0</ele><time>2026-03-27T11:03:26Z</time></trkpt><trkpt lat="39.039177518340104" lon="16.1383877257661"><ele>130.5</ele><time>2026-03-27T11:03:27Z</time></trkpt><trkpt lat="39.03895140409788" lon="16.138152399310094"><ele>133.0</ele><time>2026-03-27T11:03:28Z</time></trkpt><trkpt lat="39.03872495841085" lon="16.1379132668312"><ele>133.0</ele><time>2026-03-27T11:03:29Z</time></trkpt><trkpt lat="39.03849779427836" lon="16.13767221895379"><ele>133.0</ele><time>2026-03-27T11:03:30Z</time></trkpt><trkpt lat="39.038266057476676" lon="16.137433402217866"><ele>130.5</ele><time>2026-03-27T11:03:31Z</time></trkpt><trkpt lat="39.038030745889074" lon="16.137204519143673"><ele>128.0</ele><time>2026-03-27T11:03:32Z</time></trkpt><trkpt lat="39.03779279787754" lon="16.136992824476167"><ele>128.0</ele><time>2026-03-27T11:03:33Z</time></trkpt><trkpt lat="39.03754891271511" lon="16.1367917770694"><ele>128.0</ele><time>2026-03-27T11:03:34Z</time></trkpt><trkpt lat="39.03729895875227" lon="16.13660146674571"><ele>124.0</ele><time>2026-03-27T11:03:35Z</time></trkpt><trkpt lat="39.0370410964487" lon="16.136420883874937"><ele>120.0</ele><time>2026-03-27T11:03:36Z</time></trkpt><trkpt lat="39.03677877199596" lon="16.136246746752885"><ele>105.5</ele><time>2026-03-27T11:03:37Z</time></trkpt><trkpt lat="39.03651333230965" lon="16.13607768185136"><ele>91.0</ele><time>2026-03-27T11:03:38Z</time></trkpt><trkpt lat="39.0362431292709" lon="16.135913963531603"><ele>91.0</ele><time>2026-03-27T11:03:39Z</time></trkpt><trkpt lat="39.035972343826536" lon="16.135750339415473"><ele>91.0</ele><time>2026-03-27T11:03:40Z</time></trkpt><trkpt lat="39.03570260354399" lon="16.135585070142103"><ele>87.5</ele><time>2026-03-27T11:03:41Z</time></trkpt><trkpt lat="39.03543396040099" lon="16.13541854590026"><ele>84.0</ele><time>2026-03-27T11:03:42Z</time></trkpt><trkpt lat="39.03517600085107" lon="16.135259490198454"><ele>97.5</ele><time>2026-03-27T11:03:43Z</time></trkpt><trkpt lat="39.03492531505538" lon="16.13510561228222"><ele>111.0</ele><time>2026-03-27T11:03:44Z</time></trkpt><trkpt lat="39.03468141523212" lon="16.13495545175935"><ele>102.5</ele><time>2026-03-27T11:03:45Z</time></trkpt><trkpt lat="39.034447452681526" lon="16.13481111330013"><ele>94.0</ele><time>2026-03-27T11:03:46Z</time></trkpt><trkpt lat="39.034221091351995" lon="16.1346715756122"><ele>106.0</ele><time>2026-03-27T11:03:47Z</time></trkpt><trkpt lat="39.03399130220228" lon="16.134528170957548"><ele>118.0</ele><time>2026-03-27T11:03:48Z</time></trkpt><trkpt lat="39.03376185213419" lon="16.134381617892835"><ele>118.0</ele><time>2026-03-27T11:03:49Z</time></trkpt><trkpt lat="39.03352962528966" lon="16.13422925255596"><ele>118.0</ele><time>2026-03-27T11:03:50Z</time></trkpt><trkpt lat="39.03329547356694" lon="16.134065547475227"><ele>114.0</ele><time>2026-03-27T11:03:51Z</time></trkpt><trkpt lat="39.033061756695346" lon="16.13389037187674"><ele>110.0</ele><time>2026-03-27T11:03:52Z</time></trkpt><trkpt lat="39.03283019261648" lon="16.13370116886446"><ele>110.0</ele><time>2026-03-27T11:03:53Z</time></trkpt><trkpt lat="39.03260508106342" lon="16.13349579448065"><ele>110.0</ele><time>2026-03-27T11:03:54Z</time></trkpt><trkpt lat="39.03238869025428" lon="16.13327268992986"><ele>109.5</ele><time>2026-03-27T11:03:55Z</time></trkpt><trkpt lat="39.03217840572628" lon="16.133034025651288"><ele>109.0</ele><time>2026-03-27T11:03:56Z</time></trkpt><trkpt lat="39.03197204170944" lon="16.13278235623598"><ele>109.0</ele><time>2026-03-27T11:03:57Z</time></trkpt><trkpt lat="39.03177322714226" lon="16.13251750708071"><ele>109.0</ele><time>2026-03-27T11:03:58Z</time></trkpt><trkpt lat="39.03157783486178" lon="16.132236983718865"><ele>116.5</ele><time>2026-03-27T11:03:59Z</time></trkpt><trkpt lat="39.03138635374776" lon="16.131951417203883"><ele>124.0</ele><time>2026-03-27T11:04:00Z</time></trkpt><trkpt lat="39.031232931355326" lon="16.131685506732456"><ele>116.5</ele><time>2026-03-27T11:04:01Z</time></trkpt><trkpt lat="39.03106685881876" lon="16.131379052666105"><ele>109.0</ele><time>2026-03-27T11:04:02Z</time></trkpt><trkpt lat="39.030906422411874" lon="16.131070168873357"><ele>112.5</ele><time>2026-03-27T11:04:03Z</time></trkpt><trkpt lat="39.03074462716951" lon="16.130761915502067"><ele>116.0</ele><time>2026-03-27T11:04:04Z</time></trkpt><trkpt lat="39.0305815593436" lon="16.130447531374205"><ele>116.0</ele><time>2026-03-27T11:04:05Z</time></trkpt><trkpt lat="39.03041320090274" lon="16.130140714141863"><ele>116.0</ele><time>2026-03-27T11:04:06Z</time></trkpt><trkpt lat="39.030242391624775" lon="16.129836612714897"><ele>109.0</ele><time>2026-03-27T11:04:07Z</time></trkpt><trkpt lat="39.03007667840144" lon="16.12952978482098"><ele>102.0</ele><time>2026-03-27T11:04:08Z</time></trkpt><trkpt lat="39.02991506352192" lon="16.12922496503132"><ele>109.0</ele><time>2026-03-27T11:04:09Z</time></trkpt><trkpt lat="39.02975066572051" lon="16.128925500645405"><ele>116.0</ele><time>2026-03-27T11:04:10Z</time></trkpt><trkpt lat="39.02958648023918" lon="16.128626489447765"><ele>116.0</ele><time>2026-03-27T11:04:11Z</time></trkpt><trkpt lat="39.02942391535681" lon="16.128349785944824"><ele>116.0</ele><time>2026-03-27T11:04:12Z</time></trkpt><trkpt lat="39.0292590395223" lon="16.128074539209187"><ele>120.5</ele><time>2026-03-27T11:04:13Z</time></trkpt><trkpt lat="39.029085880359986" lon="16.127802475008153"><ele>125.0</ele><time>2026-03-27T11:04:14Z</time></trkpt><trkpt lat="39.02890368413759" lon="16.127528724861495"><ele>119.0</ele><time>2026-03-27T11:04:15Z</time></trkpt><trkpt lat="39.02871685537631" lon="16.127256421125452"><ele>113.0</ele><time>2026-03-27T11:04:16Z</time></trkpt><trkpt lat="39.02853187176364" lon="16.126967272965235"><ele>113.0</ele><time>2026-03-27T11:04:17Z</time></trkpt><trkpt lat="39.028343593342555" lon="16.126676970246525"><ele>113.0</ele><time>2026-03-27T11:04:18Z</time></trkpt><trkpt lat="39.02815279018468" lon="16.126409110728883"><ele>124.5</ele><time>2026-03-27T11:04:19Z</time></trkpt><trkpt lat="39.02795984378087" lon="16.126130115241537"><ele>136.0</ele><time>2026-03-27T11:04:20Z</time></trkpt><trkpt lat="39.02771354362436" lon="16.12588928122394"><ele>146.0</ele><time>2026-03-27T11:04:21Z</time></trkpt><trkpt lat="39.02729535371425" lon="16.12545298768034"><ele>146.0</ele><time>2026-03-27T11:04:23Z</time></trkpt><trkpt lat="39.02707650882751" lon="16.125186237845988"><ele>146.0</ele><time>2026-03-27T11:04:24.071Z</time></trkpt><trkpt lat="39.02687016006478" lon="16.12492904062893"><ele>146.0</ele><time>2026-03-27T11:04:25.07Z</time></trkpt><trkpt lat="39.02666596592334" lon="16.12467572584435"><ele>146.0</ele><time>2026-03-27T11:04:26.064Z</time></trkpt><trkpt lat="39.02646421259355" lon="16.124415479209475"><ele>68.0</ele><time>2026-03-27T11:04:27.062Z</time></trkpt><trkpt lat="39.022322684363424" lon="16.122530037562044"><ele>57.5</ele><time>2026-03-27T11:04:41Z</time></trkpt><trkpt lat="39.02202278340909" lon="16.122379288984337"><ele>47.0</ele><time>2026-03-27T11:04:42Z</time></trkpt><trkpt lat="39.02178312166213" lon="16.12225104187758"><ele>51.0</ele><time>2026-03-27T11:04:43Z</time></trkpt><trkpt lat="39.02154027761237" lon="16.122152166646252"><ele>55.0</ele><time>2026-03-27T11:04:44Z</time></trkpt><trkpt lat="39.02128933234888" lon="16.122052430779185"><ele>55.0</ele><time>2026-03-27T11:04:45Z</time></trkpt><trkpt lat="39.02102469000898" lon="16.12196604696177"><ele>55.0</ele><time>2026-03-27T11:04:46Z</time></trkpt><trkpt lat="39.020751221396374" lon="16.12189821783497"><ele>55.5</ele><time>2026-03-27T11:04:47Z</time></trkpt><trkpt lat="39.020473890528805" lon="16.121847628938077"><ele>56.0</ele><time>2026-03-27T11:04:48Z</time></trkpt><trkpt lat="39.020188157955836" lon="16.121814600266923"><ele>56.0</ele><time>2026-03-27T11:04:49Z</time></trkpt><trkpt lat="39.01989909454173" lon="16.12179263696416"><ele>56.0</ele><time>2026-03-27T11:04:50Z</time></trkpt><trkpt lat="39.01960385507007" lon="16.12177956270628"><ele>56.0</ele><time>2026-03-27T11:04:51Z</time></trkpt><trkpt lat="39.01930836584313" lon="16.12178603839166"><ele>56.0</ele><time>2026-03-27T11:04:52Z</time></trkpt><trkpt lat="39.01901466367695" lon="16.121807201212153"><ele>55.0</ele><time>2026-03-27T11:04:53Z</time></trkpt><trkpt lat="39.01872432867849" lon="16.12184400516565"><ele>54.0</ele><time>2026-03-27T11:04:54Z</time></trkpt><trkpt lat="39.01843582703667" lon="16.121896226767955"><ele>48.5</ele><time>2026-03-27T11:04:55Z</time></trkpt><trkpt lat="39.018154337148694" lon="16.121967083091697"><ele>43.0</ele><time>2026-03-27T11:04:56Z</time></trkpt><trkpt lat="39.0178676195338" lon="16.122047984171502"><ele>43.0</ele><time>2026-03-27T11:04:57Z</time></trkpt><trkpt lat="39.0175853266666" lon="16.122147126140984"><ele>43.0</ele><time>2026-03-27T11:04:58Z</time></trkpt><trkpt lat="39.017302700597945" lon="16.12227141429032"><ele>43.5</ele><time>2026-03-27T11:04:59Z</time></trkpt><trkpt lat="39.01701949434066" lon="16.122414784836586"><ele>44.0</ele><time>2026-03-27T11:05:00Z</time></trkpt><trkpt lat="39.016740748603" lon="16.122559929993987"><ele>35.5</ele><time>2026-03-27T11:05:01Z</time></trkpt><trkpt lat="39.01646793881692" lon="16.12271545485865"><ele>27.0</ele><time>2026-03-27T11:05:02Z</time></trkpt><trkpt lat="39.016206030328206" lon="16.122869372325102"><ele>27.0</ele><time>2026-03-27T11:05:03Z</time></trkpt><trkpt lat="39.01594039720573" lon="16.12302691889396"><ele>27.0</ele><time>2026-03-27T11:05:04Z</time></trkpt><trkpt lat="39.01567339552308" lon="16.123192397262443"><ele>32.0</ele><time>2026-03-27T11:05:05Z</time></trkpt><trkpt lat="39.0154077155059" lon="16.123351213757594"><ele>37.0</ele><time>2026-03-27T11:05:06Z</time></trkpt><trkpt lat="39.01514078209626" lon="16.123501257109158"><ele>35.0</ele><time>2026-03-27T11:05:07Z</time></trkpt><trkpt lat="39.01487271480722" lon="16.1236396182379"><ele>33.0</ele><time>2026-03-27T11:05:08Z</time></trkpt><trkpt lat="39.01459743991706" lon="16.123774339047795"><ele>33.0</ele><time>2026-03-27T11:05:09Z</time></trkpt><trkpt lat="39.01431938150579" lon="16.123901579150274"><ele>33.0</ele><time>2026-03-27T11:05:10Z</time></trkpt><trkpt lat="39.014049274043835" lon="16.124015642293656"><ele>29.5</ele><time>2026-03-27T11:05:11Z</time></trkpt><trkpt lat="39.013787396199525" lon="16.12412368378428"><ele>26.0</ele><time>2026-03-27T11:05:12Z</time></trkpt><trkpt lat="39.01352063881588" lon="16.124240937892175"><ele>18.5</ele><time>2026-03-27T11:05:13Z</time></trkpt><trkpt lat="39.013257500484144" lon="16.124372209307168"><ele>11.0</ele><time>2026-03-27T11:05:14Z</time></trkpt><trkpt lat="39.01300415830138" lon="16.12451972162543"><ele>11.0</ele><time>2026-03-27T11:05:15Z</time></trkpt><trkpt lat="39.01275042654197" lon="16.124672448199302"><ele>11.0</ele><time>2026-03-27T11:05:16Z</time></trkpt><trkpt lat="39.01249959192143" lon="16.12484065129707"><ele>12.5</ele><time>2026-03-27T11:05:17Z</time></trkpt><trkpt lat="39.01225094518965" lon="16.125028084038238"><ele>14.0</ele><time>2026-03-27T11:05:18Z</time></trkpt><trkpt lat="39.012005643520475" lon="16.125230618580236"><ele>14.0</ele><time>2026-03-27T11:05:19Z</time></trkpt><trkpt lat="39.01176111763161" lon="16.125450777385744"><ele>14.0</ele><time>2026-03-27T11:05:20Z</time></trkpt><trkpt lat="39.011518177407915" lon="16.12567506472765"><ele>13.0</ele><time>2026-03-27T11:05:21Z</time></trkpt><trkpt lat="39.01127992433507" lon="16.125912584730347"><ele>12.0</ele><time>2026-03-27T11:05:22Z</time></trkpt><trkpt lat="39.01106400495068" lon="16.12616188484803"><ele>12.0</ele><time>2026-03-27T11:05:23Z</time></trkpt><trkpt lat="39.01085289303186" lon="16.12642284490454"><ele>12.0</ele><time>2026-03-27T11:05:24Z</time></trkpt><trkpt lat="39.01064791345855" lon="16.12669722459798"><ele>10.0</ele><time>2026-03-27T11:05:25Z</time></trkpt><trkpt lat="39.01045140298077" lon="16.12697657978799"><ele>8.0</ele><time>2026-03-27T11:05:26Z</time></trkpt><trkpt lat="39.01026255565336" lon="16.12726607833615"><ele>6.5</ele><time>2026-03-27T11:05:27Z</time></trkpt><trkpt lat="39.01008468134259" lon="16.12756745475327"><ele>5.0</ele><time>2026-03-27T11:05:28Z</time></trkpt><trkpt lat="39.00991393564744" lon="16.127878865596198"><ele>5.0</ele><time>2026-03-27T11:05:29Z</time></trkpt><trkpt lat="39.00975246363207" lon="16.128199011449606"><ele>5.0</ele><time>2026-03-27T11:05:30Z</time></trkpt><trkpt lat="39.0096033663311" lon="16.128526265506533"><ele>7.0</ele><time>2026-03-27T11:05:31Z</time></trkpt><trkpt lat="39.009460439505524" lon="16.128859875742833"><ele>9.0</ele><time>2026-03-27T11:05:32Z</time></trkpt><trkpt lat="39.009322603169814" lon="16.129199119660015"><ele>6.5</ele><time>2026-03-27T11:05:33Z</time></trkpt><trkpt lat="39.00918406731809" lon="16.12953802897179"><ele>4.0</ele><time>2026-03-27T11:05:34Z</time></trkpt><trkpt lat="39.00904297705838" lon="16.129874590664723"><ele>4.5</ele><time>2026-03-27T11:05:35Z</time></trkpt><trkpt lat="39.00889605932252" lon="16.13020619820041"><ele>5.0</ele><time>2026-03-27T11:05:36Z</time></trkpt><trkpt lat="39.00874092653219" lon="16.13053260225913"><ele>7.0</ele><time>2026-03-27T11:05:37Z</time></trkpt><trkpt lat="39.008575538791334" lon="16.1308502779543"><ele>9.0</ele><time>2026-03-27T11:05:38Z</time></trkpt><trkpt lat="39.00839615234994" lon="16.13115431291783"><ele>9.0</ele><time>2026-03-27T11:05:39Z</time></trkpt><trkpt lat="39.008207479790684" lon="16.131448718154502"><ele>9.0</ele><time>2026-03-27T11:05:40Z</time></trkpt><trkpt lat="39.008009734668555" lon="16.131729818166708"><ele>9.0</ele><time>2026-03-27T11:05:41Z</time></trkpt><trkpt lat="39.00780243816505" lon="16.1319961048328"><ele>9.0</ele><time>2026-03-27T11:05:42Z</time></trkpt><trkpt lat="39.00758625745521" lon="16.132250620184937"><ele>8.0</ele><time>2026-03-27T11:05:43Z</time></trkpt><trkpt lat="39.007367201706145" lon="16.132484496577582"><ele>7.0</ele><time>2026-03-27T11:05:44Z</time></trkpt><trkpt lat="39.007141096343254" lon="16.13269381591283"><ele>7.0</ele><time>2026-03-27T11:05:45Z</time></trkpt><trkpt lat="39.00691129410047" lon="16.1328958473022"><ele>7.0</ele><time>2026-03-27T11:05:46Z</time></trkpt><trkpt lat="39.00667383811597" lon="16.133090389541444"><ele>7.0</ele><time>2026-03-27T11:05:47Z</time></trkpt><trkpt lat="39.006430795424016" lon="16.133270692731365"><ele>7.0</ele><time>2026-03-27T11:05:48Z</time></trkpt><trkpt lat="39.00618393156905" lon="16.133435789206445"><ele>7.0</ele><time>2026-03-27T11:05:49Z</time></trkpt><trkpt lat="39.00592863402047" lon="16.13358390787542"><ele>7.0</ele><time>2026-03-27T11:05:50Z</time></trkpt><trkpt lat="39.005668088744535" lon="16.13371414019335"><ele>6.0</ele><time>2026-03-27T11:05:51Z</time></trkpt><trkpt lat="39.00540435736223" lon="16.1338282282141"><ele>5.0</ele><time>2026-03-27T11:05:52Z</time></trkpt><trkpt lat="39.00513974606951" lon="16.133930941000756"><ele>4.5</ele><time>2026-03-27T11:05:53Z</time></trkpt><trkpt lat="39.004873322781165" lon="16.13402318297487"><ele>4.0</ele><time>2026-03-27T11:05:54Z</time></trkpt><trkpt lat="39.004604128431986" lon="16.13410716893035"><ele>4.0</ele><time>2026-03-27T11:05:55Z</time></trkpt><trkpt lat="39.00432938698103" lon="16.134190283124177"><ele>4.0</ele><time>2026-03-27T11:05:56Z</time></trkpt><trkpt lat="39.00405602701712" lon="16.134274197317524"><ele>4.0</ele><time>2026-03-27T11:05:57Z</time></trkpt><trkpt lat="39.00377516852668" lon="16.134356924467244"><ele>4.0</ele><time>2026-03-27T11:05:58Z</time></trkpt><trkpt lat="39.00349635306856" lon="16.13443426679023"><ele>4.5</ele><time>2026-03-27T11:05:59Z</time></trkpt><trkpt lat="39.00321061482215" lon="16.13450969862612"><ele>5.0</ele><time>2026-03-27T11:06:00Z</time></trkpt><trkpt lat="39.002927981133965" lon="16.134573468522813"><ele>5.0</ele><time>2026-03-27T11:06:01Z</time></trkpt><trkpt lat="39.002638065235644" lon="16.134633199716117"><ele>5.0</ele><time>2026-03-27T11:06:02Z</time></trkpt><trkpt lat="39.002347697549524" lon="16.13469259496826"><ele>5.0</ele><time>2026-03-27T11:06:03Z</time></trkpt><trkpt lat="39.00205869440869" lon="16.13475184137412"><ele>5.0</ele><time>2026-03-27T11:06:04Z</time></trkpt><trkpt lat="39.00176586179854" lon="16.134814171825774"><ele>4.5</ele><time>2026-03-27T11:06:05Z</time></trkpt><trkpt lat="39.00147613088301" lon="16.134881533229784"><ele>4.0</ele><time>2026-03-27T11:06:06Z</time></trkpt><trkpt lat="39.00118326743227" lon="16.134952757827065"><ele>4.0</ele><time>2026-03-27T11:06:07Z</time></trkpt><trkpt lat="39.00089775029802" lon="16.135018838953897"><ele>4.0</ele><time>2026-03-27T11:06:08Z</time></trkpt><trkpt lat="39.00060257146287" lon="16.13510097788091"><ele>5.0</ele><time>2026-03-27T11:06:09Z</time></trkpt><trkpt lat="39.00031243554181" lon="16.13518459885154"><ele>6.0</ele><time>2026-03-27T11:06:10Z</time></trkpt><trkpt lat="39.00002396086061" lon="16.13526631194963"><ele>6.0</ele><time>2026-03-27T11:06:11Z</time></trkpt><trkpt lat="38.99973315110267" lon="16.135342707665785"><ele>6.0</ele><time>2026-03-27T11:06:12Z</time></trkpt><trkpt lat="38.9994430652947" lon="16.13540289367281"><ele>6.0</ele><time>2026-03-27T11:06:13Z</time></trkpt><trkpt lat="38.99915049559342" lon="16.13545854500576"><ele>6.0</ele><time>2026-03-27T11:06:14Z</time></trkpt><trkpt lat="38.99886356522032" lon="16.135522042202506"><ele>6.0</ele><time>2026-03-27T11:06:15Z</time></trkpt><trkpt lat="38.99857574670768" lon="16.135585848303464"><ele>6.0</ele><time>2026-03-27T11:06:16Z</time></trkpt><trkpt lat="38.99828870975936" lon="16.135660569762294"><ele>6.0</ele><time>2026-03-27T11:06:17Z</time></trkpt><trkpt lat="38.9980021301691" lon="16.135733916031302"><ele>6.0</ele><time>2026-03-27T11:06:18Z</time></trkpt><trkpt lat="38.997712725104805" lon="16.135805933758647"><ele>6.5</ele><time>2026-03-27T11:06:19Z</time></trkpt><trkpt lat="38.99742195477777" lon="16.135878108584357"><ele>7.0</ele><time>2026-03-27T11:06:20Z</time></trkpt><trkpt lat="38.99713106381341" lon="16.135945543944473"><ele>7.0</ele><time>2026-03-27T11:06:21Z</time></trkpt><trkpt lat="38.99684041554432" lon="16.13601134599164"><ele>7.0</ele><time>2026-03-27T11:06:22Z</time></trkpt><trkpt lat="38.99655074425946" lon="16.13607720580674"><ele>8.0</ele><time>2026-03-27T11:06:23Z</time></trkpt><trkpt lat="38.99626494445397" lon="16.13614375379247"><ele>9.0</ele><time>2026-03-27T11:06:24Z</time></trkpt><trkpt lat="38.995980108319856" lon="16.136213898485604"><ele>10.5</ele><time>2026-03-27T11:06:25Z</time></trkpt><trkpt lat="38.995696404059004" lon="16.13629666797843"><ele>12.0</ele><time>2026-03-27T11:06:26Z</time></trkpt><trkpt lat="38.99541773622282" lon="16.1363924659374"><ele>12.0</ele><time>2026-03-27T11:06:27Z</time></trkpt><trkpt lat="38.995137946172036" lon="16.136501000348172"><ele>12.0</ele><time>2026-03-27T11:06:28Z</time></trkpt><trkpt lat="38.994857353591016" lon="16.13661741510938"><ele>16.5</ele><time>2026-03-27T11:06:29Z</time></trkpt><trkpt lat="38.99457753674933" lon="16.13674052880736"><ele>21.0</ele><time>2026-03-27T11:06:30Z</time></trkpt><trkpt lat="38.994299125969" lon="16.136870922770782"><ele>21.0</ele><time>2026-03-27T11:06:31Z</time></trkpt><trkpt lat="38.99401755645226" lon="16.137009460836584"><ele>21.0</ele><time>2026-03-27T11:06:32Z</time></trkpt><trkpt lat="38.99373834962025" lon="16.13714850039068"><ele>21.0</ele><time>2026-03-27T11:06:33Z</time></trkpt><trkpt lat="38.99345531387478" lon="16.137287014374003"><ele>21.0</ele><time>2026-03-27T11:06:34Z</time></trkpt><trkpt lat="38.99317423298369" lon="16.13742461986646"><ele>19.0</ele><time>2026-03-27T11:06:35Z</time></trkpt><trkpt lat="38.992892205865864" lon="16.13756062048465"><ele>17.0</ele><time>2026-03-27T11:06:36Z</time></trkpt><trkpt lat="38.99261008091209" lon="16.137699535982556"><ele>17.0</ele><time>2026-03-27T11:06:37Z</time></trkpt><trkpt lat="38.9923280339866" lon="16.137836719106783"><ele>17.0</ele><time>2026-03-27T11:06:38Z</time></trkpt><trkpt lat="38.99204980977672" lon="16.137972135331882"><ele>17.0</ele><time>2026-03-27T11:06:39Z</time></trkpt><trkpt lat="38.99177159557863" lon="16.13810873201027"><ele>17.0</ele><time>2026-03-27T11:06:40Z</time></trkpt><trkpt lat="38.991493489691294" lon="16.13824640314901"><ele>17.5</ele><time>2026-03-27T11:06:41Z</time></trkpt><trkpt lat="38.99121392345927" lon="16.13838788636762"><ele>18.0</ele><time>2026-03-27T11:06:42Z</time></trkpt><trkpt lat="38.99093141131828" lon="16.138530858284724"><ele>16.5</ele><time>2026-03-27T11:06:43Z</time></trkpt><trkpt lat="38.990648543370376" lon="16.138669642417415"><ele>15.0</ele><time>2026-03-27T11:06:44Z</time></trkpt><trkpt lat="38.99036511029652" lon="16.138807342636063"><ele>15.0</ele><time>2026-03-27T11:06:45Z</time></trkpt><trkpt lat="38.99008424217989" lon="16.13894858324027"><ele>15.0</ele><time>2026-03-27T11:06:46Z</time></trkpt><trkpt lat="38.98980406667368" lon="16.13909636215255"><ele>19.5</ele><time>2026-03-27T11:06:47Z</time></trkpt><trkpt lat="38.98952751247266" lon="16.139251743553974"><ele>24.0</ele><time>2026-03-27T11:06:48Z</time></trkpt><trkpt lat="38.98925492689939" lon="16.13941719871475"><ele>22.5</ele><time>2026-03-27T11:06:49Z</time></trkpt><trkpt lat="38.98898675750149" lon="16.13958982540573"><ele>21.0</ele><time>2026-03-27T11:06:50Z</time></trkpt><trkpt lat="38.988722731882326" lon="16.139770131297407"><ele>26.0</ele><time>2026-03-27T11:06:51Z</time></trkpt><trkpt lat="38.98846376906352" lon="16.139961979091307"><ele>31.0</ele><time>2026-03-27T11:06:52Z</time></trkpt><trkpt lat="38.98821203000122" lon="16.140164724080446"><ele>31.0</ele><time>2026-03-27T11:06:53Z</time></trkpt><trkpt lat="38.987964383084886" lon="16.14038284576254"><ele>31.0</ele><time>2026-03-27T11:06:54Z</time></trkpt><trkpt lat="38.987721165167294" lon="16.140608233258614"><ele>34.0</ele><time>2026-03-27T11:06:55Z</time></trkpt><trkpt lat="38.98748391366976" lon="16.140841061710983"><ele>37.0</ele><time>2026-03-27T11:06:56Z</time></trkpt><trkpt lat="38.98724996735984" lon="16.141082443138913"><ele>37.0</ele><time>2026-03-27T11:06:57Z</time></trkpt><trkpt lat="38.987017878050025" lon="16.14132751496336"><ele>37.0</ele><time>2026-03-27T11:06:58Z</time></trkpt><trkpt lat="38.986786358556635" lon="16.141575894487787"><ele>34.0</ele><time>2026-03-27T11:06:59Z</time></trkpt><trkpt lat="38.98655585477571" lon="16.14182006475074"><ele>31.0</ele><time>2026-03-27T11:07:00Z</time></trkpt><trkpt lat="38.9863232127468" lon="16.142062189997276"><ele>31.0</ele><time>2026-03-27T11:07:01Z</time></trkpt><trkpt lat="38.98608813299795" lon="16.142301593349753"><ele>31.0</ele><time>2026-03-27T11:07:02Z</time></trkpt><trkpt lat="38.985846849240744" lon="16.142527149652096"><ele>30.5</ele><time>2026-03-27T11:07:03Z</time></trkpt><trkpt lat="38.98559859130772" lon="16.14274220972829"><ele>30.0</ele><time>2026-03-27T11:07:04Z</time></trkpt><trkpt lat="38.98534401797613" lon="16.142948506125883"><ele>30.0</ele><time>2026-03-27T11:07:05Z</time></trkpt><trkpt lat="38.985082675426106" lon="16.14314308943499"><ele>30.0</ele><time>2026-03-27T11:07:06Z</time></trkpt><trkpt lat="38.98481663048287" lon="16.143324691020005"><ele>30.5</ele><time>2026-03-27T11:07:07Z</time></trkpt><trkpt lat="38.984544449682886" lon="16.14349393261833"><ele>31.0</ele><time>2026-03-27T11:07:08Z</time></trkpt><trkpt lat="38.984266876825025" lon="16.14365170841676"><ele>30.0</ele><time>2026-03-27T11:07:09Z</time></trkpt><trkpt lat="38.98398448610706" lon="16.143797010699377"><ele>29.0</ele><time>2026-03-27T11:07:10Z</time></trkpt><trkpt lat="38.983697849851644" lon="16.1439304612846"><ele>29.0</ele><time>2026-03-27T11:07:11Z</time></trkpt><trkpt lat="38.98340585424356" lon="16.144047910868288"><ele>29.0</ele><time>2026-03-27T11:07:12Z</time></trkpt><trkpt lat="38.98310924634409" lon="16.14415157342397"><ele>29.0</ele><time>2026-03-27T11:07:13Z</time></trkpt><trkpt lat="38.98281007602362" lon="16.144243598557665"><ele>29.0</ele><time>2026-03-27T11:07:14Z</time></trkpt><trkpt lat="38.982506770374194" lon="16.144321281874785"><ele>27.5</ele><time>2026-03-27T11:07:15Z</time></trkpt><trkpt lat="38.98220008877044" lon="16.144381510027795"><ele>26.0</ele><time>2026-03-27T11:07:16Z</time></trkpt><trkpt lat="38.981889727436645" lon="16.144426813896846"><ele>23.5</ele><time>2026-03-27T11:07:17Z</time></trkpt><trkpt lat="38.98157793886078" lon="16.14446159025214"><ele>21.0</ele><time>2026-03-27T11:07:18Z</time></trkpt><trkpt lat="38.981266098080326" lon="16.14449226521859"><ele>21.0</ele><time>2026-03-27T11:07:19Z</time></trkpt><trkpt lat="38.980954796899205" lon="16.144522661345285"><ele>21.0</ele><time>2026-03-27T11:07:20Z</time></trkpt><trkpt lat="38.980645186012126" lon="16.14455358804119"><ele>20.5</ele><time>2026-03-27T11:07:21Z</time></trkpt><trkpt lat="38.98033493645723" lon="16.14459223174057"><ele>20.0</ele><time>2026-03-27T11:07:22Z</time></trkpt><trkpt lat="38.980027156426964" lon="16.144638715912347"><ele>19.0</ele><time>2026-03-27T11:07:23Z</time></trkpt><trkpt lat="38.97972296450197" lon="16.144698572765144"><ele>18.0</ele><time>2026-03-27T11:07:24Z</time></trkpt><trkpt lat="38.9794215032678" lon="16.144778402413912"><ele>19.0</ele><time>2026-03-27T11:07:25Z</time></trkpt><trkpt lat="38.97912279701965" lon="16.14487600704272"><ele>20.0</ele><time>2026-03-27T11:07:26Z</time></trkpt><trkpt lat="38.97883094028188" lon="16.144994484097424"><ele>24.0</ele><time>2026-03-27T11:07:27Z</time></trkpt><trkpt lat="38.97854845944245" lon="16.14513514773622"><ele>28.0</ele><time>2026-03-27T11:07:28Z</time></trkpt><trkpt lat="38.978272849594326" lon="16.145297231843912"><ele>28.0</ele><time>2026-03-27T11:07:29Z</time></trkpt><trkpt lat="38.97800481145961" lon="16.145478654328993"><ele>28.0</ele><time>2026-03-27T11:07:30Z</time></trkpt><trkpt lat="38.97774236499781" lon="16.145673758853288"><ele>28.5</ele><time>2026-03-27T11:07:31Z</time></trkpt><trkpt lat="38.97748526065279" lon="16.14588027770724"><ele>29.0</ele><time>2026-03-27T11:07:32Z</time></trkpt><trkpt lat="38.97723361646375" lon="16.146101304913298"><ele>29.0</ele><time>2026-03-27T11:07:33Z</time></trkpt><trkpt lat="38.976990324481285" lon="16.146340917864347"><ele>29.0</ele><time>2026-03-27T11:07:34Z</time></trkpt><trkpt lat="38.976755039493284" lon="16.146597363782977"><ele>27.0</ele><time>2026-03-27T11:07:35Z</time></trkpt><trkpt lat="38.97653112641368" lon="16.146871331704155"><ele>25.0</ele><time>2026-03-27T11:07:36Z</time></trkpt><trkpt lat="38.97631796842826" lon="16.14715836724219"><ele>28.5</ele><time>2026-03-27T11:07:37Z</time></trkpt><trkpt lat="38.97611644042016" lon="16.147463385419798"><ele>32.0</ele><time>2026-03-27T11:07:38Z</time></trkpt><trkpt lat="38.975924694100264" lon="16.147779865567134"><ele>32.0</ele><time>2026-03-27T11:07:39Z</time></trkpt><trkpt lat="38.97574246452934" lon="16.148108031922508"><ele>32.0</ele><time>2026-03-27T11:07:40Z</time></trkpt><trkpt lat="38.975569330577905" lon="16.148447731603024"><ele>32.0</ele><time>2026-03-27T11:07:41Z</time></trkpt><trkpt lat="38.97539908982213" lon="16.14879471219028"><ele>32.0</ele><time>2026-03-27T11:07:42Z</time></trkpt><trkpt lat="38.97522561820009" lon="16.1491430117789"><ele>32.0</ele><time>2026-03-27T11:07:43Z</time></trkpt><trkpt lat="38.97505059308347" lon="16.149488412164157"><ele>32.0</ele><time>2026-03-27T11:07:44Z</time></trkpt><trkpt lat="38.974872131328475" lon="16.149828447840704"><ele>25.0</ele><time>2026-03-27T11:07:45Z</time></trkpt><trkpt lat="38.97468738697648" lon="16.150154026940875"><ele>18.0</ele><time>2026-03-27T11:07:46Z</time></trkpt><trkpt lat="38.97449190887422" lon="16.150463259848774"><ele>18.5</ele><time>2026-03-27T11:07:47Z</time></trkpt><trkpt lat="38.97428555448489" lon="16.15075553219427"><ele>19.0</ele><time>2026-03-27T11:07:48Z</time></trkpt><trkpt lat="38.97407141514329" lon="16.15103303502453"><ele>16.0</ele><time>2026-03-27T11:07:49Z</time></trkpt><trkpt lat="38.97384915555898" lon="16.15129101736465"><ele>13.0</ele><time>2026-03-27T11:07:50Z</time></trkpt><trkpt lat="38.97362020973618" lon="16.151535130876955"><ele>13.5</ele><time>2026-03-27T11:07:51Z</time></trkpt><trkpt lat="38.973384988411716" lon="16.151757575780525"><ele>14.0</ele><time>2026-03-27T11:07:52Z</time></trkpt><trkpt lat="38.973143836556865" lon="16.151963447966544"><ele>14.0</ele><time>2026-03-27T11:07:53Z</time></trkpt><trkpt lat="38.97289459897972" lon="16.152154801823663"><ele>14.0</ele><time>2026-03-27T11:07:54Z</time></trkpt><trkpt lat="38.97263734558506" lon="16.152335695970628"><ele>15.0</ele><time>2026-03-27T11:07:55Z</time></trkpt><trkpt lat="38.972373961903386" lon="16.15250414961967"><ele>16.0</ele><time>2026-03-27T11:07:56Z</time></trkpt><trkpt lat="38.9721064834013" lon="16.15265829882103"><ele>16.0</ele><time>2026-03-27T11:07:57Z</time></trkpt><trkpt lat="38.97183512167069" lon="16.152795885283663"><ele>16.0</ele><time>2026-03-27T11:07:58Z</time></trkpt><trkpt lat="38.971559711697324" lon="16.1529183889554"><ele>14.5</ele><time>2026-03-27T11:07:59Z</time></trkpt><trkpt lat="38.971282393896104" lon="16.15303350461357"><ele>13.0</ele><time>2026-03-27T11:08:00Z</time></trkpt><trkpt lat="38.97100754499295" lon="16.15314641289986"><ele>14.5</ele><time>2026-03-27T11:08:01Z</time></trkpt><trkpt lat="38.97073540837155" lon="16.153261424790777"><ele>16.0</ele><time>2026-03-27T11:08:02Z</time></trkpt><trkpt lat="38.97046128005607" lon="16.15337644300659"><ele>16.0</ele><time>2026-03-27T11:08:03Z</time></trkpt><trkpt lat="38.97018718607406" lon="16.153490599166236"><ele>16.0</ele><time>2026-03-27T11:08:04Z</time></trkpt><trkpt lat="38.969912319086596" lon="16.15360543120271"><ele>15.5</ele><time>2026-03-27T11:08:05Z</time></trkpt><trkpt lat="38.96963712559761" lon="16.153721118210015"><ele>15.0</ele><time>2026-03-27T11:08:06Z</time></trkpt><trkpt lat="38.969361419596325" lon="16.15383641917385"><ele>15.0</ele><time>2026-03-27T11:08:07Z</time></trkpt><trkpt lat="38.969086682016524" lon="16.153955557761613"><ele>15.0</ele><time>2026-03-27T11:08:08Z</time></trkpt><trkpt lat="38.96881281259446" lon="16.154078959126778"><ele>15.0</ele><time>2026-03-27T11:08:09Z</time></trkpt><trkpt lat="38.96853902937591" lon="16.154203613622"><ele>15.0</ele><time>2026-03-27T11:08:10Z</time></trkpt><trkpt lat="38.96826278588868" lon="16.15432403797644"><ele>13.5</ele><time>2026-03-27T11:08:11Z</time></trkpt><trkpt lat="38.967983268775704" lon="16.154438628411533"><ele>12.0</ele><time>2026-03-27T11:08:12Z</time></trkpt><trkpt lat="38.96770016788226" lon="16.154548686152943"><ele>11.0</ele><time>2026-03-27T11:08:13Z</time></trkpt><trkpt lat="38.967414422637255" lon="16.15465296663825"><ele>10.0</ele><time>2026-03-27T11:08:14Z</time></trkpt><trkpt lat="38.967126014261545" lon="16.154750701526684"><ele>10.0</ele><time>2026-03-27T11:08:15Z</time></trkpt><trkpt lat="38.96683528404564" lon="16.154843851561633"><ele>10.0</ele><time>2026-03-27T11:08:16Z</time></trkpt><trkpt lat="38.966540546553425" lon="16.15493236281651"><ele>14.0</ele><time>2026-03-27T11:08:17Z</time></trkpt><trkpt lat="38.96624184807796" lon="16.155014685993645"><ele>18.0</ele><time>2026-03-27T11:08:18Z</time></trkpt><trkpt lat="38.96593895379883" lon="16.155085808901685"><ele>17.0</ele><time>2026-03-27T11:08:19Z</time></trkpt><trkpt lat="38.96563461130129" lon="16.15514405048829"><ele>16.0</ele><time>2026-03-27T11:08:20Z</time></trkpt><trkpt lat="38.965327910314855" lon="16.155188737073363"><ele>15.5</ele><time>2026-03-27T11:08:21Z</time></trkpt><trkpt lat="38.96502087924513" lon="16.15522240975847"><ele>15.0</ele><time>2026-03-27T11:08:22Z</time></trkpt><trkpt lat="38.96471476394707" lon="16.155250581785797"><ele>15.0</ele><time>2026-03-27T11:08:23Z</time></trkpt><trkpt lat="38.964408163248784" lon="16.15527535863676"><ele>15.0</ele><time>2026-03-27T11:08:24Z</time></trkpt><trkpt lat="38.96410153521951" lon="16.155296400592473"><ele>15.0</ele><time>2026-03-27T11:08:25Z</time></trkpt><trkpt lat="38.963795913247466" lon="16.155311341120036"><ele>15.0</ele><time>2026-03-27T11:08:26Z</time></trkpt><trkpt lat="38.9634899124683" lon="16.15532188021313"><ele>16.0</ele><time>2026-03-27T11:08:27Z</time></trkpt><trkpt lat="38.96318369670863" lon="16.155327863038085"><ele>17.0</ele><time>2026-03-27T11:08:28Z</time></trkpt><trkpt lat="38.96287769224948" lon="16.155333316876433"><ele>17.0</ele><time>2026-03-27T11:08:29Z</time></trkpt><trkpt lat="38.9625699900411" lon="16.155339341250652"><ele>17.0</ele><time>2026-03-27T11:08:30Z</time></trkpt><trkpt lat="38.96226176832202" lon="16.155345450364916"><ele>15.5</ele><time>2026-03-27T11:08:31Z</time></trkpt><trkpt lat="38.961956739862416" lon="16.15535075254378"><ele>14.0</ele><time>2026-03-27T11:08:32Z</time></trkpt><trkpt lat="38.96165168649362" lon="16.1553538008762"><ele>12.5</ele><time>2026-03-27T11:08:33Z</time></trkpt><trkpt lat="38.96134716492729" lon="16.155357436770704"><ele>11.0</ele><time>2026-03-27T11:08:34Z</time></trkpt><trkpt lat="38.96104204914242" lon="16.155363161277275"><ele>10.5</ele><time>2026-03-27T11:08:35Z</time></trkpt><trkpt lat="38.96073748567616" lon="16.155372057678903"><ele>10.0</ele><time>2026-03-27T11:08:36Z</time></trkpt><trkpt lat="38.96043275954459" lon="16.1553852423075"><ele>10.0</ele><time>2026-03-27T11:08:37Z</time></trkpt><trkpt lat="38.9601256942439" lon="16.155400281478475"><ele>10.0</ele><time>2026-03-27T11:08:38Z</time></trkpt><trkpt lat="38.959818960446555" lon="16.155420517923"><ele>9.5</ele><time>2026-03-27T11:08:39Z</time></trkpt><trkpt lat="38.95951076799211" lon="16.155448832093484"><ele>9.0</ele><time>2026-03-27T11:08:40Z</time></trkpt><trkpt lat="38.95920247203496" lon="16.155487322861575"><ele>8.0</ele><time>2026-03-27T11:08:41Z</time></trkpt><trkpt lat="38.95889395163414" lon="16.155534212936324"><ele>7.0</ele><time>2026-03-27T11:08:42Z</time></trkpt><trkpt lat="38.95858568942884" lon="16.155587997889572"><ele>8.0</ele><time>2026-03-27T11:08:43Z</time></trkpt><trkpt lat="38.95827921975912" lon="16.15565032164198"><ele>9.0</ele><time>2026-03-27T11:08:44Z</time></trkpt><trkpt lat="38.95797502182983" lon="16.155720287436377"><ele>11.5</ele><time>2026-03-27T11:08:45Z</time></trkpt><trkpt lat="38.957671649136614" lon="16.15579771180783"><ele>14.0</ele><time>2026-03-27T11:08:46Z</time></trkpt><trkpt lat="38.95737038165313" lon="16.15588397541609"><ele>14.0</ele><time>2026-03-27T11:08:47Z</time></trkpt><trkpt lat="38.957069803366245" lon="16.155979512121696"><ele>14.0</ele><time>2026-03-27T11:08:48Z</time></trkpt><trkpt lat="38.956773571549554" lon="16.1560844966632"><ele>15.5</ele><time>2026-03-27T11:08:49Z</time></trkpt><trkpt lat="38.956480921611195" lon="16.156198922319966"><ele>17.0</ele><time>2026-03-27T11:08:50Z</time></trkpt><trkpt lat="38.956188541369706" lon="16.156322122801804"><ele>17.0</ele><time>2026-03-27T11:08:51Z</time></trkpt><trkpt lat="38.95590090876441" lon="16.15645417551807"><ele>17.0</ele><time>2026-03-27T11:08:52Z</time></trkpt><trkpt lat="38.95561512589832" lon="16.15659493634018"><ele>22.5</ele><time>2026-03-27T11:08:53Z</time></trkpt><trkpt lat="38.95533017991153" lon="16.156741150752104"><ele>28.0</ele><time>2026-03-27T11:08:54Z</time></trkpt><trkpt lat="38.9550515336376" lon="16.15690051246997"><ele>25.5</ele><time>2026-03-27T11:08:55Z</time></trkpt><trkpt lat="38.95477619160546" lon="16.157069814119247"><ele>23.0</ele><time>2026-03-27T11:08:56Z</time></trkpt><trkpt lat="38.95450829934786" lon="16.157253812630362"><ele>24.0</ele><time>2026-03-27T11:08:57Z</time></trkpt><trkpt lat="38.954242967553284" lon="16.15745029844172"><ele>25.0</ele><time>2026-03-27T11:08:58Z</time></trkpt><trkpt lat="38.95398681308561" lon="16.157651151969162"><ele>25.0</ele><time>2026-03-27T11:08:59Z</time></trkpt><trkpt lat="38.95373795084799" lon="16.15786583992034"><ele>25.0</ele><time>2026-03-27T11:09:00Z</time></trkpt><trkpt lat="38.953498158718546" lon="16.158090904027514"><ele>29.0</ele><time>2026-03-27T11:09:01Z</time></trkpt><trkpt lat="38.9532703603378" lon="16.1583286088828"><ele>33.0</ele><time>2026-03-27T11:09:02Z</time></trkpt><trkpt lat="38.95305131599274" lon="16.15857867161226"><ele>33.0</ele><time>2026-03-27T11:09:03Z</time></trkpt><trkpt lat="38.9528401706365" lon="16.158836853903225"><ele>33.0</ele><time>2026-03-27T11:09:04Z</time></trkpt><trkpt lat="38.95263818646379" lon="16.1591036170357"><ele>33.0</ele><time>2026-03-27T11:09:05Z</time></trkpt><trkpt lat="38.9524445639055" lon="16.15938293831631"><ele>33.0</ele><time>2026-03-27T11:09:06Z</time></trkpt><trkpt lat="38.95226047655303" lon="16.159673503289905"><ele>35.5</ele><time>2026-03-27T11:09:07Z</time></trkpt><trkpt lat="38.95208730235118" lon="16.159977066721307"><ele>38.0</ele><time>2026-03-27T11:09:08Z</time></trkpt><trkpt lat="38.95192317640798" lon="16.16029573520104"><ele>38.0</ele><time>2026-03-27T11:09:09Z</time></trkpt><trkpt lat="38.95176884622759" lon="16.16063150702139"><ele>38.0</ele><time>2026-03-27T11:09:10Z</time></trkpt><trkpt lat="38.95162737702984" lon="16.16098032471189"><ele>37.5</ele><time>2026-03-27T11:09:11Z</time></trkpt><trkpt lat="38.95150016480832" lon="16.161338772410197"><ele>37.0</ele><time>2026-03-27T11:09:12Z</time></trkpt><trkpt lat="38.95138369840865" lon="16.161708626552176"><ele>37.0</ele><time>2026-03-27T11:09:13Z</time></trkpt><trkpt lat="38.95128130099662" lon="16.162091347394277"><ele>37.0</ele><time>2026-03-27T11:09:14Z</time></trkpt><trkpt lat="38.95119328347884" lon="16.162482778633372"><ele>37.0</ele><time>2026-03-27T11:09:15Z</time></trkpt><trkpt lat="38.95112374827" lon="16.162885769088884"><ele>37.0</ele><time>2026-03-27T11:09:16Z</time></trkpt><trkpt lat="38.95106942996177" lon="16.163290135059437"><ele>37.0</ele><time>2026-03-27T11:09:17Z</time></trkpt><trkpt lat="38.951023978569474" lon="16.163697935876936"><ele>37.0</ele><time>2026-03-27T11:09:18Z</time></trkpt><trkpt lat="38.950985719958084" lon="16.164110736448933"><ele>37.0</ele><time>2026-03-27T11:09:19Z</time></trkpt><trkpt lat="38.95095358235104" lon="16.16452374042049"><ele>37.0</ele><time>2026-03-27T11:09:20Z</time></trkpt><trkpt lat="38.950925178381866" lon="16.164936230535417"><ele>36.0</ele><time>2026-03-27T11:09:21Z</time></trkpt><trkpt lat="38.95090113004979" lon="16.16534659264693"><ele>35.0</ele><time>2026-03-27T11:09:22Z</time></trkpt><trkpt lat="38.95087740172388" lon="16.165753180909583"><ele>21.5</ele><time>2026-03-27T11:09:23Z</time></trkpt><trkpt lat="38.950859762473776" lon="16.16615883544086"><ele>8.0</ele><time>2026-03-27T11:09:24Z</time></trkpt><trkpt lat="38.95084255227769" lon="16.166562233629243"><ele>8.0</ele><time>2026-03-27T11:09:25Z</time></trkpt><trkpt lat="38.95082238717915" lon="16.166962528168792"><ele>8.0</ele><time>2026-03-27T11:09:26Z</time></trkpt><trkpt lat="38.950802768334455" lon="16.16736387235871"><ele>8.0</ele><time>2026-03-27T11:09:27Z</time></trkpt><trkpt lat="38.95078427036356" lon="16.167762610157556"><ele>8.0</ele><time>2026-03-27T11:09:28Z</time></trkpt><trkpt lat="38.95076527625932" lon="16.168160238388662"><ele>7.0</ele><time>2026-03-27T11:09:29Z</time></trkpt><trkpt lat="38.95074613451949" lon="16.168552859039757"><ele>6.0</ele><time>2026-03-27T11:09:30Z</time></trkpt><trkpt lat="38.95072795289334" lon="16.168943503621655"><ele>6.5</ele><time>2026-03-27T11:09:31Z</time></trkpt><trkpt lat="38.950705780562515" lon="16.16933030271289"><ele>7.0</ele><time>2026-03-27T11:09:32Z</time></trkpt><trkpt lat="38.950677554937016" lon="16.169715071398837"><ele>7.5</ele><time>2026-03-27T11:09:33Z</time></trkpt><trkpt lat="38.950646839652016" lon="16.170094401858453"><ele>8.0</ele><time>2026-03-27T11:09:34Z</time></trkpt><trkpt lat="38.95061985725457" lon="16.170474303293734"><ele>8.0</ele><time>2026-03-27T11:09:35Z</time></trkpt><trkpt lat="38.95059697476493" lon="16.170851960508447"><ele>8.0</ele><time>2026-03-27T11:09:36Z</time></trkpt><trkpt lat="38.9505737104989" lon="16.171228320644918"><ele>9.0</ele><time>2026-03-27T11:09:37Z</time></trkpt><trkpt lat="38.950549932885565" lon="16.17160558407705"><ele>10.0</ele><time>2026-03-27T11:09:38Z</time></trkpt><trkpt lat="38.95052942139564" lon="16.17198090199211"><ele>10.0</ele><time>2026-03-27T11:09:39Z</time></trkpt><trkpt lat="38.950511965314" lon="16.172355668095783"><ele>10.0</ele><time>2026-03-27T11:09:40Z</time></trkpt><trkpt lat="38.95049502676307" lon="16.17272629860321"><ele>11.5</ele><time>2026-03-27T11:09:41Z</time></trkpt><trkpt lat="38.950477461331744" lon="16.173092422927073"><ele>13.0</ele><time>2026-03-27T11:09:42Z</time></trkpt><trkpt lat="38.95046006253445" lon="16.173456831330746"><ele>14.0</ele><time>2026-03-27T11:09:43Z</time></trkpt><trkpt lat="38.95044524129345" lon="16.173824837797895"><ele>15.0</ele><time>2026-03-27T11:09:44Z</time></trkpt><trkpt lat="38.950431021179995" lon="16.174197246199018"><ele>15.0</ele><time>2026-03-27T11:09:45Z</time></trkpt><trkpt lat="38.95041574809733" lon="16.174570771357796"><ele>15.0</ele><time>2026-03-27T11:09:46Z</time></trkpt><trkpt lat="38.95040182014029" lon="16.174942867985227"><ele>16.5</ele><time>2026-03-27T11:09:47Z</time></trkpt><trkpt lat="38.9503894517121" lon="16.17531733793668"><ele>18.0</ele><time>2026-03-27T11:09:48Z</time></trkpt><trkpt lat="38.950374473267" lon="16.175694593755427"><ele>18.5</ele><time>2026-03-27T11:09:49Z</time></trkpt><trkpt lat="38.95035259874682" lon="16.176074712967534"><ele>19.0</ele><time>2026-03-27T11:09:50Z</time></trkpt><trkpt lat="38.95032225704646" lon="16.176455051167267"><ele>20.5</ele><time>2026-03-27T11:09:51Z</time></trkpt><trkpt lat="38.950282818779385" lon="16.176835780596395"><ele>22.0</ele><time>2026-03-27T11:09:52Z</time></trkpt><trkpt lat="38.95023632879141" lon="16.17721566409746"><ele>22.0</ele><time>2026-03-27T11:09:53Z</time></trkpt><trkpt lat="38.950184468222005" lon="16.177591646658687"><ele>22.0</ele><time>2026-03-27T11:09:54Z</time></trkpt><trkpt lat="38.950128187937864" lon="16.17796552444499"><ele>22.0</ele><time>2026-03-27T11:09:55Z</time></trkpt><trkpt lat="38.95006828892579" lon="16.178337638839015"><ele>22.0</ele><time>2026-03-27T11:09:56Z</time></trkpt><trkpt lat="38.95000346915652" lon="16.178707715966347"><ele>16.0</ele><time>2026-03-27T11:09:57Z</time></trkpt><trkpt lat="38.94993365849715" lon="16.179079271891116"><ele>10.0</ele><time>2026-03-27T11:09:58Z</time></trkpt><trkpt lat="38.94985916832135" lon="16.179448471826525"><ele>10.0</ele><time>2026-03-27T11:09:59Z</time></trkpt><trkpt lat="38.94977827151847" lon="16.179820032505486"><ele>10.0</ele><time>2026-03-27T11:10:00Z</time></trkpt><trkpt lat="38.9496906903615" lon="16.180191420975614"><ele>10.0</ele><time>2026-03-27T11:10:01Z</time></trkpt><trkpt lat="38.94959719483762" lon="16.18056253395095"><ele>10.0</ele><time>2026-03-27T11:10:02Z</time></trkpt><trkpt lat="38.94949696064011" lon="16.180933415078457"><ele>10.0</ele><time>2026-03-27T11:10:03Z</time></trkpt><trkpt lat="38.94938899930626" lon="16.18129946855146"><ele>10.0</ele><time>2026-03-27T11:10:04Z</time></trkpt><trkpt lat="38.94927434177197" lon="16.18165971124593"><ele>6.5</ele><time>2026-03-27T11:10:05Z</time></trkpt><trkpt lat="38.949154645323254" lon="16.182016373981288"><ele>3.0</ele><time>2026-03-27T11:10:06Z</time></trkpt><trkpt lat="38.94903024648429" lon="16.182367164744495"><ele>3.0</ele><time>2026-03-27T11:10:07Z</time></trkpt><trkpt lat="38.94890029759667" lon="16.1827125864374"><ele>3.0</ele><time>2026-03-27T11:10:08Z</time></trkpt><trkpt lat="38.94876479948475" lon="16.183052097806847"><ele>3.0</ele><time>2026-03-27T11:10:09Z</time></trkpt><trkpt lat="38.948623037591126" lon="16.18338661796889"><ele>3.0</ele><time>2026-03-27T11:10:10Z</time></trkpt><trkpt lat="38.94847556431376" lon="16.18371437541214"><ele>2.5</ele><time>2026-03-27T11:10:11Z</time></trkpt><trkpt lat="38.948324016573196" lon="16.184040254784453"><ele>2.0</ele><time>2026-03-27T11:10:12Z</time></trkpt><trkpt lat="38.9481669338471" lon="16.18436182143446"><ele>2.0</ele><time>2026-03-27T11:10:13Z</time></trkpt><trkpt lat="38.94800403406354" lon="16.18468233911555"><ele>2.0</ele><time>2026-03-27T11:10:14Z</time></trkpt><trkpt lat="38.94783591510498" lon="16.184997123025912"><ele>2.0</ele><time>2026-03-27T11:10:15Z</time></trkpt><trkpt lat="38.94766037215161" lon="16.18530741097661"><ele>2.0</ele><time>2026-03-27T11:10:16Z</time></trkpt><trkpt lat="38.94747577677396" lon="16.185614583684956"><ele>2.0</ele><time>2026-03-27T11:10:17Z</time></trkpt><trkpt lat="38.94729202322816" lon="16.185915330237727"><ele>2.0</ele><time>2026-03-27T11:10:18Z</time></trkpt><trkpt lat="38.94709326261717" lon="16.18620449656011"><ele>2.0</ele><time>2026-03-27T11:10:19Z</time></trkpt><trkpt lat="38.94688930837031" lon="16.186485953889203"><ele>2.0</ele><time>2026-03-27T11:10:20Z</time></trkpt><trkpt lat="38.9466862555259" lon="16.186771655703286"><ele>2.0</ele><time>2026-03-27T11:10:21Z</time></trkpt><trkpt lat="38.94648563893874" lon="16.187059972396337"><ele>2.0</ele><time>2026-03-27T11:10:22Z</time></trkpt><trkpt lat="38.94628930231085" lon="16.187347027781936"><ele>1.5</ele><time>2026-03-27T11:10:23Z</time></trkpt><trkpt lat="38.94609456995807" lon="16.18763676715103"><ele>1.0</ele><time>2026-03-27T11:10:24Z</time></trkpt><trkpt lat="38.94589995782215" lon="16.187929250313523"><ele>1.5</ele><time>2026-03-27T11:10:25Z</time></trkpt><trkpt lat="38.945703123499094" lon="16.188224762254215"><ele>2.0</ele><time>2026-03-27T11:10:26Z</time></trkpt><trkpt lat="38.94550749945277" lon="16.188524602643444"><ele>2.0</ele><time>2026-03-27T11:10:27Z</time></trkpt><trkpt lat="38.945312615473654" lon="16.18882569591381"><ele>2.0</ele><time>2026-03-27T11:10:28Z</time></trkpt><trkpt lat="38.94512130885486" lon="16.189128653160783"><ele>1.5</ele><time>2026-03-27T11:10:29Z</time></trkpt><trkpt lat="38.944930299992684" lon="16.18943425607142"><ele>1.0</ele><time>2026-03-27T11:10:30Z</time></trkpt><trkpt lat="38.94473735100263" lon="16.1897395096824"><ele>1.5</ele><time>2026-03-27T11:10:31Z</time></trkpt><trkpt lat="38.944545207128634" lon="16.19004686290194"><ele>2.0</ele><time>2026-03-27T11:10:32Z</time></trkpt><trkpt lat="38.94435817603404" lon="16.190357277318096"><ele>2.0</ele><time>2026-03-27T11:10:33Z</time></trkpt><trkpt lat="38.94417959277789" lon="16.190673831461027"><ele>2.0</ele><time>2026-03-27T11:10:34Z</time></trkpt><trkpt lat="38.944008182888226" lon="16.190996273980534"><ele>2.0</ele><time>2026-03-27T11:10:35Z</time></trkpt><trkpt lat="38.94384238256691" lon="16.191323980087915"><ele>2.0</ele><time>2026-03-27T11:10:36Z</time></trkpt><trkpt lat="38.943681676030046" lon="16.19165476369125"><ele>2.0</ele><time>2026-03-27T11:10:37Z</time></trkpt><trkpt lat="38.94352354654018" lon="16.191987097946832"><ele>2.0</ele><time>2026-03-27T11:10:38Z</time></trkpt><trkpt lat="38.94336759451994" lon="16.192322689904337"><ele>1.5</ele><time>2026-03-27T11:10:39Z</time></trkpt><trkpt lat="38.94321415914963" lon="16.192664476539626"><ele>1.0</ele><time>2026-03-27T11:10:40Z</time></trkpt><trkpt lat="38.94306576755684" lon="16.193012030885782"><ele>1.0</ele><time>2026-03-27T11:10:41Z</time></trkpt><trkpt lat="38.94292433169104" lon="16.19336449443657"><ele>1.0</ele><time>2026-03-27T11:10:42Z</time></trkpt><trkpt lat="38.94278908861751" lon="16.19372065020805"><ele>1.5</ele><time>2026-03-27T11:10:43Z</time></trkpt><trkpt lat="38.942655995415166" lon="16.194081884141994"><ele>2.0</ele><time>2026-03-27T11:10:44Z</time></trkpt><trkpt lat="38.9425279822909" lon="16.194450812377287"><ele>2.0</ele><time>2026-03-27T11:10:45Z</time></trkpt><trkpt lat="38.942405291580904" lon="16.19482147772945"><ele>2.0</ele><time>2026-03-27T11:10:46Z</time></trkpt><trkpt lat="38.94228963461513" lon="16.195194126490847"><ele>2.0</ele><time>2026-03-27T11:10:47Z</time></trkpt><trkpt lat="38.94218094919748" lon="16.195571136431248"><ele>2.0</ele><time>2026-03-27T11:10:48Z</time></trkpt><trkpt lat="38.94207344005713" lon="16.195948102391622"><ele>2.0</ele><time>2026-03-27T11:10:49Z</time></trkpt><trkpt lat="38.94196749616295" lon="16.196323906556945"><ele>2.0</ele><time>2026-03-27T11:10:50Z</time></trkpt><trkpt lat="38.94186288282061" lon="16.1967013389966"><ele>1.5</ele><time>2026-03-27T11:10:51Z</time></trkpt><trkpt lat="38.94175740340079" lon="16.19707496507559"><ele>1.0</ele><time>2026-03-27T11:10:52Z</time></trkpt><trkpt lat="38.9416466487894" lon="16.19744490296062"><ele>2.0</ele><time>2026-03-27T11:10:53Z</time></trkpt><trkpt lat="38.94152968438123" lon="16.197812845049725"><ele>3.0</ele><time>2026-03-27T11:10:54Z</time></trkpt><trkpt lat="38.9414152516376" lon="16.19817862736045"><ele>3.0</ele><time>2026-03-27T11:10:55Z</time></trkpt><trkpt lat="38.94130688487291" lon="16.198545443776766"><ele>3.0</ele><time>2026-03-27T11:10:56Z</time></trkpt><trkpt lat="38.941201851590435" lon="16.198915700507417"><ele>2.5</ele><time>2026-03-27T11:10:57Z</time></trkpt><trkpt lat="38.94109604907042" lon="16.19928640809379"><ele>2.0</ele><time>2026-03-27T11:10:58Z</time></trkpt><trkpt lat="38.94098825339551" lon="16.199658152743616"><ele>2.0</ele><time>2026-03-27T11:10:59Z</time></trkpt><trkpt lat="38.940880660177214" lon="16.200027820334633"><ele>2.0</ele><time>2026-03-27T11:11:00Z</time></trkpt><trkpt lat="38.9407715014671" lon="16.200396306384512"><ele>2.5</ele><time>2026-03-27T11:11:01Z</time></trkpt><trkpt lat="38.940659509891155" lon="16.200760813714403"><ele>3.0</ele><time>2026-03-27T11:11:02Z</time></trkpt><trkpt lat="38.94054327426005" lon="16.201124576500707"><ele>3.0</ele><time>2026-03-27T11:11:03Z</time></trkpt><trkpt lat="38.94042743198316" lon="16.201483102250503"><ele>3.0</ele><time>2026-03-27T11:11:04Z</time></trkpt><trkpt lat="38.940313181911584" lon="16.2018436482511"><ele>3.0</ele><time>2026-03-27T11:11:05Z</time></trkpt><trkpt lat="38.94019884413234" lon="16.202201955813898"><ele>3.0</ele><time>2026-03-27T11:11:06Z</time></trkpt><trkpt lat="38.940082423742076" lon="16.2025601823495"><ele>3.0</ele><time>2026-03-27T11:11:07Z</time></trkpt><trkpt lat="38.93996507446496" lon="16.202918707295193"><ele>3.0</ele><time>2026-03-27T11:11:08Z</time></trkpt><trkpt lat="38.93984576139417" lon="16.203276769210028"><ele>3.5</ele><time>2026-03-27T11:11:09Z</time></trkpt><trkpt lat="38.93972326593685" lon="16.203639343954396"><ele>4.0</ele><time>2026-03-27T11:11:10Z</time></trkpt><trkpt lat="38.93959902964872" lon="16.2040005488962"><ele>4.0</ele><time>2026-03-27T11:11:11Z</time></trkpt><trkpt lat="38.93947621465941" lon="16.204358771769073"><ele>4.0</ele><time>2026-03-27T11:11:12Z</time></trkpt><trkpt lat="38.93935258524183" lon="16.204714185258815"><ele>4.0</ele><time>2026-03-27T11:11:13Z</time></trkpt><trkpt lat="38.93922990923184" lon="16.205068465767734"><ele>4.0</ele><time>2026-03-27T11:11:14Z</time></trkpt><trkpt lat="38.93910944637519" lon="16.205422421471262"><ele>5.5</ele><time>2026-03-27T11:11:15Z</time></trkpt><trkpt lat="38.93899003518236" lon="16.205773744469614"><ele>7.0</ele><time>2026-03-27T11:11:16Z</time></trkpt><trkpt lat="38.93887052903106" lon="16.206123541044736"><ele>7.0</ele><time>2026-03-27T11:11:17Z</time></trkpt><trkpt lat="38.93875184529795" lon="16.206473759176927"><ele>7.0</ele><time>2026-03-27T11:11:18Z</time></trkpt><trkpt lat="38.938631843580374" lon="16.206821696814025"><ele>7.0</ele><time>2026-03-27T11:11:19Z</time></trkpt><trkpt lat="38.938513349511204" lon="16.20716613064291"><ele>7.0</ele><time>2026-03-27T11:11:20Z</time></trkpt><trkpt lat="38.93839449827455" lon="16.20751861490793"><ele>7.0</ele><time>2026-03-27T11:11:21Z</time></trkpt><trkpt lat="38.93827701581295" lon="16.207871979885308"><ele>7.0</ele><time>2026-03-27T11:11:22Z</time></trkpt><trkpt lat="38.93815823978478" lon="16.2082248129591"><ele>5.5</ele><time>2026-03-27T11:11:23Z</time></trkpt><trkpt lat="38.93803613808633" lon="16.208577316400476"><ele>4.0</ele><time>2026-03-27T11:11:24Z</time></trkpt><trkpt lat="38.937913657918706" lon="16.208932982113453"><ele>4.5</ele><time>2026-03-27T11:11:25Z</time></trkpt><trkpt lat="38.937790351000224" lon="16.209289425261883"><ele>5.0</ele><time>2026-03-27T11:11:26Z</time></trkpt><trkpt lat="38.93766816062661" lon="16.209646629970518"><ele>4.0</ele><time>2026-03-27T11:11:27Z</time></trkpt><trkpt lat="38.937543558662334" lon="16.210006900574463"><ele>3.0</ele><time>2026-03-27T11:11:28Z</time></trkpt><trkpt lat="38.93741850538698" lon="16.210371387658274"><ele>3.0</ele><time>2026-03-27T11:11:29Z</time></trkpt><trkpt lat="38.93729288695752" lon="16.210736556785786"><ele>3.0</ele><time>2026-03-27T11:11:30Z</time></trkpt><trkpt lat="38.937168873114054" lon="16.21109988539326"><ele>3.0</ele><time>2026-03-27T11:11:31Z</time></trkpt><trkpt lat="38.93704484212504" lon="16.211464116127914"><ele>3.0</ele><time>2026-03-27T11:11:32Z</time></trkpt><trkpt lat="38.93692146360779" lon="16.211827562300932"><ele>3.0</ele><time>2026-03-27T11:11:33Z</time></trkpt><trkpt lat="38.93679744223829" lon="16.212192106424006"><ele>3.0</ele><time>2026-03-27T11:11:34Z</time></trkpt><trkpt lat="38.936674007266454" lon="16.212555877036852"><ele>2.0</ele><time>2026-03-27T11:11:35Z</time></trkpt><trkpt lat="38.93655016518091" lon="16.212918554256643"><ele>1.0</ele><time>2026-03-27T11:11:36Z</time></trkpt><trkpt lat="38.93642481859337" lon="16.213281783383366"><ele>1.0</ele><time>2026-03-27T11:11:37Z</time></trkpt><trkpt lat="38.936301126933635" lon="16.213644089055453"><ele>1.0</ele><time>2026-03-27T11:11:38Z</time></trkpt><trkpt lat="38.9361785483502" lon="16.214007755445092"><ele>1.5</ele><time>2026-03-27T11:11:39Z</time></trkpt><trkpt lat="38.93605570162506" lon="16.21436543028574"><ele>2.0</ele><time>2026-03-27T11:11:40Z</time></trkpt><trkpt lat="38.93593455482524" lon="16.214720118426023"><ele>2.5</ele><time>2026-03-27T11:11:41Z</time></trkpt><trkpt lat="38.93581544185548" lon="16.21507290094767"><ele>3.0</ele><time>2026-03-27T11:11:42Z</time></trkpt><trkpt lat="38.9356951574532" lon="16.2154272621865"><ele>3.5</ele><time>2026-03-27T11:11:43Z</time></trkpt><trkpt lat="38.935573642697285" lon="16.215785740437234"><ele>4.0</ele><time>2026-03-27T11:11:44Z</time></trkpt><trkpt lat="38.93544931097255" lon="16.216149157081436"><ele>4.5</ele><time>2026-03-27T11:11:45Z</time></trkpt><trkpt lat="38.93532364260376" lon="16.216516843463026"><ele>5.0</ele><time>2026-03-27T11:11:46Z</time></trkpt><trkpt lat="38.93519608818108" lon="16.216887130606136"><ele>5.0</ele><time>2026-03-27T11:11:47Z</time></trkpt><trkpt lat="38.9350677826395" lon="16.217259087602464"><ele>5.0</ele><time>2026-03-27T11:11:48Z</time></trkpt><trkpt lat="38.93494193596906" lon="16.21762398222294"><ele>4.5</ele><time>2026-03-27T11:11:49Z</time></trkpt><trkpt lat="38.93481878408885" lon="16.217986100543126"><ele>4.0</ele><time>2026-03-27T11:11:50Z</time></trkpt><trkpt lat="38.934697282398794" lon="16.21834317169481"><ele>4.0</ele><time>2026-03-27T11:11:51Z</time></trkpt><trkpt lat="38.93457613741046" lon="16.218704018599208"><ele>4.0</ele><time>2026-03-27T11:11:52Z</time></trkpt><trkpt lat="38.93445442064292" lon="16.219062549670756"><ele>4.5</ele><time>2026-03-27T11:11:53Z</time></trkpt><trkpt lat="38.9343322749336" lon="16.219421917516097"><ele>5.0</ele><time>2026-03-27T11:11:54Z</time></trkpt><trkpt lat="38.93420854286838" lon="16.219781860518346"><ele>5.5</ele><time>2026-03-27T11:11:55Z</time></trkpt><trkpt lat="38.934084362104834" lon="16.22014107825725"><ele>6.0</ele><time>2026-03-27T11:11:56Z</time></trkpt><trkpt lat="38.9339608897826" lon="16.220498095990727"><ele>6.0</ele><time>2026-03-27T11:11:57Z</time></trkpt><trkpt lat="38.93383829513909" lon="16.220858757040585"><ele>6.0</ele><time>2026-03-27T11:11:58Z</time></trkpt><trkpt lat="38.93371344924616" lon="16.22122120742647"><ele>6.0</ele><time>2026-03-27T11:11:59Z</time></trkpt><trkpt lat="38.933592006328986" lon="16.22158553720171"><ele>6.0</ele><time>2026-03-27T11:12:00Z</time></trkpt><trkpt lat="38.9334758754917" lon="16.221949832035747"><ele>6.5</ele><time>2026-03-27T11:12:01Z</time></trkpt><trkpt lat="38.93336336790502" lon="16.222312334032733"><ele>7.0</ele><time>2026-03-27T11:12:02Z</time></trkpt><trkpt lat="38.93325004017913" lon="16.222677787262533"><ele>7.0</ele><time>2026-03-27T11:12:03Z</time></trkpt><trkpt lat="38.93313407730651" lon="16.223045460670246"><ele>7.0</ele><time>2026-03-27T11:12:04Z</time></trkpt><trkpt lat="38.93301750881456" lon="16.223409644654076"><ele>7.0</ele><time>2026-03-27T11:12:05Z</time></trkpt><trkpt lat="38.93290070268" lon="16.223774542788863"><ele>7.0</ele><time>2026-03-27T11:12:06Z</time></trkpt><trkpt lat="38.93278481202688" lon="16.22414185795528"><ele>6.5</ele><time>2026-03-27T11:12:07Z</time></trkpt><trkpt lat="38.93266877697829" lon="16.2245065433726"><ele>6.0</ele><time>2026-03-27T11:12:08Z</time></trkpt><trkpt lat="38.93255408681371" lon="16.224872434820643"><ele>7.5</ele><time>2026-03-27T11:12:09Z</time></trkpt><trkpt lat="38.93244068346089" lon="16.22523840830606"><ele>9.0</ele><time>2026-03-27T11:12:10Z</time></trkpt><trkpt lat="38.932327790374806" lon="16.22560660073745"><ele>10.0</ele><time>2026-03-27T11:12:11Z</time></trkpt><trkpt lat="38.93221696068561" lon="16.22597486958008"><ele>11.0</ele><time>2026-03-27T11:12:12Z</time></trkpt><trkpt lat="38.93211098953974" lon="16.226345175965932"><ele>11.0</ele><time>2026-03-27T11:12:13Z</time></trkpt><trkpt lat="38.93200711875313" lon="16.226715937458074"><ele>11.0</ele><time>2026-03-27T11:12:14Z</time></trkpt><trkpt lat="38.9319034648524" lon="16.227087385911588"><ele>11.5</ele><time>2026-03-27T11:12:15Z</time></trkpt><trkpt lat="38.931799370007404" lon="16.227458138391285"><ele>12.0</ele><time>2026-03-27T11:12:16Z</time></trkpt><trkpt lat="38.93169491258193" lon="16.22782643299377"><ele>12.5</ele><time>2026-03-27T11:12:17Z</time></trkpt><trkpt lat="38.93159299427716" lon="16.228195419287225"><ele>13.0</ele><time>2026-03-27T11:12:18Z</time></trkpt><trkpt lat="38.93149515613732" lon="16.22856416297082"><ele>13.0</ele><time>2026-03-27T11:12:19Z</time></trkpt><trkpt lat="38.931401276895684" lon="16.228933750810807"><ele>13.0</ele><time>2026-03-27T11:12:20Z</time></trkpt><trkpt lat="38.931308765948486" lon="16.2293037156678"><ele>13.5</ele><time>2026-03-27T11:12:21Z</time></trkpt><trkpt lat="38.931219439813276" lon="16.22967368477169"><ele>14.0</ele><time>2026-03-27T11:12:22Z</time></trkpt><trkpt lat="38.9311324794023" lon="16.23004477623959"><ele>15.0</ele><time>2026-03-27T11:12:23Z</time></trkpt><trkpt lat="38.93104644463278" lon="16.230418202905998"><ele>16.0</ele><time>2026-03-27T11:12:24Z</time></trkpt><trkpt lat="38.93096051572627" lon="16.230792006157543"><ele>15.5</ele><time>2026-03-27T11:12:25Z</time></trkpt><trkpt lat="38.930871114216856" lon="16.23116455836541"><ele>15.0</ele><time>2026-03-27T11:12:26Z</time></trkpt><trkpt lat="38.930785287756535" lon="16.231531374999946"><ele>16.0</ele><time>2026-03-27T11:12:27Z</time></trkpt><trkpt lat="38.9306972354521" lon="16.231899061304784"><ele>17.0</ele><time>2026-03-27T11:12:28Z</time></trkpt><trkpt lat="38.93061122498439" lon="16.232271719444178"><ele>17.5</ele><time>2026-03-27T11:12:29Z</time></trkpt><trkpt lat="38.93052992895891" lon="16.232645549268945"><ele>18.0</ele><time>2026-03-27T11:12:30Z</time></trkpt><trkpt lat="38.93045290142787" lon="16.233019732974014"><ele>19.0</ele><time>2026-03-27T11:12:31Z</time></trkpt><trkpt lat="38.93037982597094" lon="16.233401671447997"><ele>20.0</ele><time>2026-03-27T11:12:32Z</time></trkpt><trkpt lat="38.93030372806413" lon="16.233783932187816"><ele>20.0</ele><time>2026-03-27T11:12:33Z</time></trkpt><trkpt lat="38.93022622366165" lon="16.2341715168198"><ele>20.0</ele><time>2026-03-27T11:12:34Z</time></trkpt><trkpt lat="38.930146343740205" lon="16.234565874023055"><ele>20.5</ele><time>2026-03-27T11:12:35Z</time></trkpt><trkpt lat="38.930062793470846" lon="16.234958777349977"><ele>21.0</ele><time>2026-03-27T11:12:36Z</time></trkpt><trkpt lat="38.929984263455395" lon="16.235345415062145"><ele>21.5</ele><time>2026-03-27T11:12:37Z</time></trkpt><trkpt lat="38.929904388715755" lon="16.235727179259083"><ele>22.0</ele><time>2026-03-27T11:12:38Z</time></trkpt><trkpt lat="38.92981909441353" lon="16.236108376903996"><ele>23.5</ele><time>2026-03-27T11:12:39Z</time></trkpt><trkpt lat="38.92972715556631" lon="16.23649212175143"><ele>25.0</ele><time>2026-03-27T11:12:40Z</time></trkpt><trkpt lat="38.92964089365821" lon="16.236870064185677"><ele>25.0</ele><time>2026-03-27T11:12:41Z</time></trkpt><trkpt lat="38.92955689063632" lon="16.237248508674966"><ele>25.0</ele><time>2026-03-27T11:12:42Z</time></trkpt><trkpt lat="38.92947086686131" lon="16.237622337654816"><ele>25.0</ele><time>2026-03-27T11:12:43Z</time></trkpt><trkpt lat="38.9293828549163" lon="16.237998098410817"><ele>25.0</ele><time>2026-03-27T11:12:44Z</time></trkpt><trkpt lat="38.929296357953106" lon="16.238376799549723"><ele>25.0</ele><time>2026-03-27T11:12:45Z</time></trkpt><trkpt lat="38.92920604527198" lon="16.238753508507987"><ele>25.0</ele><time>2026-03-27T11:12:46Z</time></trkpt><trkpt lat="38.929113714852576" lon="16.23912829037116"><ele>25.5</ele><time>2026-03-27T11:12:47Z</time></trkpt><trkpt lat="38.92901409162559" lon="16.239499510242858"><ele>26.0</ele><time>2026-03-27T11:12:48Z</time></trkpt><trkpt lat="38.928917545951386" lon="16.239870976639207"><ele>26.0</ele><time>2026-03-27T11:12:49Z</time></trkpt><trkpt lat="38.92882312978157" lon="16.240243399447433"><ele>26.0</ele><time>2026-03-27T11:12:50Z</time></trkpt><trkpt lat="38.928730346922194" lon="16.240618351099528"><ele>27.0</ele><time>2026-03-27T11:12:51Z</time></trkpt><trkpt lat="38.92863738451013" lon="16.24099772101891"><ele>28.0</ele><time>2026-03-27T11:12:52Z</time></trkpt><trkpt lat="38.9285442508025" lon="16.24137882919647"><ele>27.5</ele><time>2026-03-27T11:12:53Z</time></trkpt><trkpt lat="38.92844943987084" lon="16.24176337605585"><ele>27.0</ele><time>2026-03-27T11:12:54Z</time></trkpt><trkpt lat="38.92834845492823" lon="16.242144903892545"><ele>28.0</ele><time>2026-03-27T11:12:55Z</time></trkpt><trkpt lat="38.92824171676018" lon="16.24252480497127"><ele>29.0</ele><time>2026-03-27T11:12:56Z</time></trkpt><trkpt lat="38.92813476923634" lon="16.24290459511573"><ele>29.5</ele><time>2026-03-27T11:12:57Z</time></trkpt><trkpt lat="38.92803179477376" lon="16.243286237494047"><ele>30.0</ele><time>2026-03-27T11:12:58Z</time></trkpt><trkpt lat="38.92792845789899" lon="16.243665525548003"><ele>30.5</ele><time>2026-03-27T11:12:59Z</time></trkpt><trkpt lat="38.92782532962572" lon="16.244044420628104"><ele>31.0</ele><time>2026-03-27T11:13:00Z</time></trkpt><trkpt lat="38.92772120844615" lon="16.244423300884197"><ele>31.5</ele><time>2026-03-27T11:13:01Z</time></trkpt><trkpt lat="38.92761481066814" lon="16.244796270423162"><ele>32.0</ele><time>2026-03-27T11:13:02Z</time></trkpt><trkpt lat="38.92750750025771" lon="16.24516878677833"><ele>31.0</ele><time>2026-03-27T11:13:03Z</time></trkpt><trkpt lat="38.927398936775226" lon="16.245540355816324"><ele>30.0</ele><time>2026-03-27T11:13:04Z</time></trkpt><trkpt lat="38.92729077837948" lon="16.24590896153458"><ele>29.5</ele><time>2026-03-27T11:13:05Z</time></trkpt><trkpt lat="38.927183656978045" lon="16.246278799473988"><ele>29.0</ele><time>2026-03-27T11:13:06Z</time></trkpt><trkpt lat="38.92707831508755" lon="16.24665156327798"><ele>29.0</ele><time>2026-03-27T11:13:07Z</time></trkpt><trkpt lat="38.9269739895683" lon="16.247022082470078"><ele>29.0</ele><time>2026-03-27T11:13:08Z</time></trkpt><trkpt lat="38.926869716002734" lon="16.247396493386525"><ele>29.5</ele><time>2026-03-27T11:13:09Z</time></trkpt><trkpt lat="38.926765916253416" lon="16.24777342848009"><ele>30.0</ele><time>2026-03-27T11:13:10Z</time></trkpt><trkpt lat="38.92666094392696" lon="16.248144108284126"><ele>30.5</ele><time>2026-03-27T11:13:11Z</time></trkpt><trkpt lat="38.92655566203184" lon="16.248519581611802"><ele>31.0</ele><time>2026-03-27T11:13:12Z</time></trkpt><trkpt lat="38.92645112975132" lon="16.248894461882358"><ele>32.5</ele><time>2026-03-27T11:13:13Z</time></trkpt><trkpt lat="38.92634335840745" lon="16.249271302479116"><ele>34.0</ele><time>2026-03-27T11:13:14Z</time></trkpt><trkpt lat="38.92623684549623" lon="16.249648049981342"><ele>35.0</ele><time>2026-03-27T11:13:15Z</time></trkpt><trkpt lat="38.92612947081577" lon="16.25002377645838"><ele>36.0</ele><time>2026-03-27T11:13:16Z</time></trkpt><trkpt lat="38.9260216610887" lon="16.25039909232169"><ele>36.5</ele><time>2026-03-27T11:13:17Z</time></trkpt><trkpt lat="38.92591390029726" lon="16.250772880822353"><ele>37.0</ele><time>2026-03-27T11:13:18Z</time></trkpt><trkpt lat="38.92581172903782" lon="16.251144184887032"><ele>37.5</ele><time>2026-03-27T11:13:19Z</time></trkpt><trkpt lat="38.92569966325162" lon="16.251509945448262"><ele>38.0</ele><time>2026-03-27T11:13:20Z</time></trkpt><trkpt lat="38.92558982323179" lon="16.25188250563681"><ele>38.0</ele><time>2026-03-27T11:13:21Z</time></trkpt><trkpt lat="38.92547819040025" lon="16.252248944353276"><ele>38.0</ele><time>2026-03-27T11:13:22Z</time></trkpt><trkpt lat="38.925365981373346" lon="16.252615779758713"><ele>37.5</ele><time>2026-03-27T11:13:23Z</time></trkpt><trkpt lat="38.925255876885586" lon="16.252982409583183"><ele>37.0</ele><time>2026-03-27T11:13:24Z</time></trkpt><trkpt lat="38.92514813764362" lon="16.253352649874916"><ele>36.0</ele><time>2026-03-27T11:13:25Z</time></trkpt><trkpt lat="38.92504443135661" lon="16.25372486425657"><ele>35.0</ele><time>2026-03-27T11:13:26Z</time></trkpt><trkpt lat="38.92493856647153" lon="16.25409685668192"><ele>35.0</ele><time>2026-03-27T11:13:27Z</time></trkpt><trkpt lat="38.92483266841289" lon="16.25446824098513"><ele>35.0</ele><time>2026-03-27T11:13:28Z</time></trkpt><trkpt lat="38.92472565939566" lon="16.25483937425215"><ele>35.0</ele><time>2026-03-27T11:13:29Z</time></trkpt><trkpt lat="38.92462186083979" lon="16.25521106142718"><ele>35.0</ele><time>2026-03-27T11:13:30Z</time></trkpt><trkpt lat="38.92451591191567" lon="16.255583672967617"><ele>34.5</ele><time>2026-03-27T11:13:31Z</time></trkpt><trkpt lat="38.92440722303327" lon="16.255951088755204"><ele>34.0</ele><time>2026-03-27T11:13:32Z</time></trkpt><trkpt lat="38.924304585267635" lon="16.25632240213916"><ele>31.5</ele><time>2026-03-27T11:13:33Z</time></trkpt><trkpt lat="38.924196046509486" lon="16.2566901194313"><ele>29.0</ele><time>2026-03-27T11:13:34Z</time></trkpt><trkpt lat="38.924087625491346" lon="16.257055319945447"><ele>29.5</ele><time>2026-03-27T11:13:35Z</time></trkpt><trkpt lat="38.92397794049815" lon="16.25742524066271"><ele>30.0</ele><time>2026-03-27T11:13:36Z</time></trkpt><trkpt lat="38.9238648631196" lon="16.257793301035385"><ele>31.0</ele><time>2026-03-27T11:13:37Z</time></trkpt><trkpt lat="38.923740013562494" lon="16.258164041963877"><ele>32.0</ele><time>2026-03-27T11:13:38Z</time></trkpt><trkpt lat="38.92360947725338" lon="16.25852891500902"><ele>32.0</ele><time>2026-03-27T11:13:39Z</time></trkpt><trkpt lat="38.923464102161795" lon="16.258883248213046"><ele>32.0</ele><time>2026-03-27T11:13:40Z</time></trkpt><trkpt lat="38.92330235339147" lon="16.259229535655145"><ele>31.5</ele><time>2026-03-27T11:13:41Z</time></trkpt><trkpt lat="38.92312844792811" lon="16.259568388294344"><ele>31.0</ele><time>2026-03-27T11:13:42Z</time></trkpt><trkpt lat="38.92294714634011" lon="16.25990068487204"><ele>32.0</ele><time>2026-03-27T11:13:43Z</time></trkpt><trkpt lat="38.92276096629246" lon="16.260227320401533"><ele>33.0</ele><time>2026-03-27T11:13:44Z</time></trkpt><trkpt lat="38.92256548532292" lon="16.260550881344585"><ele>31.0</ele><time>2026-03-27T11:13:45Z</time></trkpt><trkpt lat="38.92236513188682" lon="16.260863724481332"><ele>29.0</ele><time>2026-03-27T11:13:46Z</time></trkpt><trkpt lat="38.92215614924226" lon="16.261168404195466"><ele>29.5</ele><time>2026-03-27T11:13:47Z</time></trkpt><trkpt lat="38.921939192908695" lon="16.261462938549197"><ele>30.0</ele><time>2026-03-27T11:13:48Z</time></trkpt><trkpt lat="38.921713886317" lon="16.26174746102533"><ele>30.0</ele><time>2026-03-27T11:13:49Z</time></trkpt><trkpt lat="38.92148086089882" lon="16.262021281451933"><ele>30.0</ele><time>2026-03-27T11:13:50Z</time></trkpt><trkpt lat="38.92123885254975" lon="16.26227969019353"><ele>29.5</ele><time>2026-03-27T11:13:51Z</time></trkpt><trkpt lat="38.92099104871056" lon="16.26252499212318"><ele>29.0</ele><time>2026-03-27T11:13:52Z</time></trkpt><trkpt lat="38.92073568145878" lon="16.26276221303554"><ele>29.0</ele><time>2026-03-27T11:13:53Z</time></trkpt><trkpt lat="38.920478046841" lon="16.262992343596018"><ele>29.0</ele><time>2026-03-27T11:13:54Z</time></trkpt><trkpt lat="38.92021674330908" lon="16.263223251475708"><ele>28.5</ele><time>2026-03-27T11:13:55Z</time></trkpt><trkpt lat="38.919955225912474" lon="16.26345349536995"><ele>28.0</ele><time>2026-03-27T11:13:56Z</time></trkpt><trkpt lat="38.919692546308134" lon="16.263683799936423"><ele>28.0</ele><time>2026-03-27T11:13:57Z</time></trkpt><trkpt lat="38.91942877403377" lon="16.26391302815108"><ele>28.0</ele><time>2026-03-27T11:13:58Z</time></trkpt><trkpt lat="38.91916243695617" lon="16.26413924065692"><ele>28.0</ele><time>2026-03-27T11:13:59Z</time></trkpt><trkpt lat="38.9188965120169" lon="16.264364487138046"><ele>28.0</ele><time>2026-03-27T11:14:00Z</time></trkpt><trkpt lat="38.91862976211398" lon="16.264589529573584"><ele>27.5</ele><time>2026-03-27T11:14:01Z</time></trkpt><trkpt lat="38.918359907666456" lon="16.264816031392254"><ele>27.0</ele><time>2026-03-27T11:14:02Z</time></trkpt><trkpt lat="38.918098365567346" lon="16.26503782744343"><ele>27.0</ele><time>2026-03-27T11:14:03Z</time></trkpt><trkpt lat="38.917834255969154" lon="16.265259642412364"><ele>27.0</ele><time>2026-03-27T11:14:04Z</time></trkpt><trkpt lat="38.91757004761046" lon="16.2654841909836"><ele>28.0</ele><time>2026-03-27T11:14:05Z</time></trkpt><trkpt lat="38.917309572782536" lon="16.26570479894894"><ele>29.0</ele><time>2026-03-27T11:14:06Z</time></trkpt><trkpt lat="38.91705037652124" lon="16.265930480778632"><ele>29.0</ele><time>2026-03-27T11:14:07Z</time></trkpt><trkpt lat="38.916788521348984" lon="16.266156618088203"><ele>29.0</ele><time>2026-03-27T11:14:08Z</time></trkpt><trkpt lat="38.91653198639677" lon="16.266383009406795"><ele>29.5</ele><time>2026-03-27T11:14:09Z</time></trkpt><trkpt lat="38.91627267735788" lon="16.266603607253405"><ele>30.0</ele><time>2026-03-27T11:14:10Z</time></trkpt><trkpt lat="38.91601265570206" lon="16.266829217235976"><ele>29.0</ele><time>2026-03-27T11:14:11Z</time></trkpt><trkpt lat="38.91575581527882" lon="16.267046029778694"><ele>28.0</ele><time>2026-03-27T11:14:12Z</time></trkpt><trkpt lat="38.91549686910061" lon="16.267261792325925"><ele>28.0</ele><time>2026-03-27T11:14:13Z</time></trkpt><trkpt lat="38.91524204418354" lon="16.267479088926052"><ele>28.0</ele><time>2026-03-27T11:14:14Z</time></trkpt><trkpt lat="38.9149864696675" lon="16.267701326776713"><ele>27.5</ele><time>2026-03-27T11:14:15Z</time></trkpt><trkpt lat="38.91473125731221" lon="16.26792461957561"><ele>27.0</ele><time>2026-03-27T11:14:16Z</time></trkpt><trkpt lat="38.91447762875567" lon="16.268144278971747"><ele>26.5</ele><time>2026-03-27T11:14:17Z</time></trkpt><trkpt lat="38.91422327317341" lon="16.268364415708763"><ele>26.0</ele><time>2026-03-27T11:14:18Z</time></trkpt><trkpt lat="38.91396783919579" lon="16.268582973451387"><ele>26.0</ele><time>2026-03-27T11:14:19Z</time></trkpt><trkpt lat="38.91371157662864" lon="16.268801390647756"><ele>26.0</ele><time>2026-03-27T11:14:20Z</time></trkpt><trkpt lat="38.91345794806468" lon="16.26902045465196"><ele>26.0</ele><time>2026-03-27T11:14:21Z</time></trkpt><trkpt lat="38.91320708696901" lon="16.26924107423675"><ele>26.0</ele><time>2026-03-27T11:14:22Z</time></trkpt><trkpt lat="38.91295709267473" lon="16.269460312526643"><ele>26.0</ele><time>2026-03-27T11:14:23Z</time></trkpt><trkpt lat="38.91270762087507" lon="16.269679854538413"><ele>26.0</ele><time>2026-03-27T11:14:24Z</time></trkpt><trkpt lat="38.91245796882037" lon="16.26989815409404"><ele>25.0</ele><time>2026-03-27T11:14:25Z</time></trkpt><trkpt lat="38.91221050622076" lon="16.270112508760697"><ele>24.0</ele><time>2026-03-27T11:14:26Z</time></trkpt><trkpt lat="38.91196386074784" lon="16.270329621112385"><ele>23.5</ele><time>2026-03-27T11:14:27Z</time></trkpt><trkpt lat="38.911717815529684" lon="16.270546727223678"><ele>23.0</ele><time>2026-03-27T11:14:28Z</time></trkpt><trkpt lat="38.91147120473163" lon="16.270763027853445"><ele>24.0</ele><time>2026-03-27T11:14:29Z</time></trkpt><trkpt lat="38.91122505269472" lon="16.270976537428748"><ele>25.0</ele><time>2026-03-27T11:14:30Z</time></trkpt><trkpt lat="38.910977575683475" lon="16.2711877016956"><ele>25.0</ele><time>2026-03-27T11:14:31Z</time></trkpt><trkpt lat="38.91072985049713" lon="16.271400064716"><ele>25.0</ele><time>2026-03-27T11:14:32Z</time></trkpt><trkpt lat="38.910483541126105" lon="16.27161346416154"><ele>25.0</ele><time>2026-03-27T11:14:33Z</time></trkpt><trkpt lat="38.9102389245103" lon="16.271825168756667"><ele>25.0</ele><time>2026-03-27T11:14:34Z</time></trkpt><trkpt lat="38.90999247192488" lon="16.27203903781427"><ele>25.0</ele><time>2026-03-27T11:14:35Z</time></trkpt><trkpt lat="38.90974682315208" lon="16.272252415369284"><ele>25.0</ele><time>2026-03-27T11:14:36Z</time></trkpt><trkpt lat="38.90950271621911" lon="16.272465808120504"><ele>25.0</ele><time>2026-03-27T11:14:37Z</time></trkpt><trkpt lat="38.90925450853615" lon="16.272684513463076"><ele>25.0</ele><time>2026-03-27T11:14:38Z</time></trkpt><trkpt lat="38.909004341106865" lon="16.272904432467467"><ele>25.5</ele><time>2026-03-27T11:14:39Z</time></trkpt><trkpt lat="38.90874960142341" lon="16.273123105735472"><ele>26.0</ele><time>2026-03-27T11:14:40Z</time></trkpt><trkpt lat="38.90849226366851" lon="16.273345963174055"><ele>25.5</ele><time>2026-03-27T11:14:41Z</time></trkpt><trkpt lat="38.90823272588845" lon="16.273569295569647"><ele>25.0</ele><time>2026-03-27T11:14:42Z</time></trkpt><trkpt lat="38.90797830135465" lon="16.273788362713326"><ele>25.5</ele><time>2026-03-27T11:14:43Z</time></trkpt><trkpt lat="38.9077223690813" lon="16.274012113294138"><ele>26.0</ele><time>2026-03-27T11:14:44Z</time></trkpt><trkpt lat="38.907470305468834" lon="16.2742312876044"><ele>26.0</ele><time>2026-03-27T11:14:45Z</time></trkpt><trkpt lat="38.90721539776088" lon="16.274451243945222"><ele>26.0</ele><time>2026-03-27T11:14:46Z</time></trkpt><trkpt lat="38.90696126186011" lon="16.274670311173832"><ele>24.5</ele><time>2026-03-27T11:14:47Z</time></trkpt><trkpt lat="38.90670993559081" lon="16.274893199129927"><ele>23.0</ele><time>2026-03-27T11:14:48Z</time></trkpt><trkpt lat="38.90645746508442" lon="16.2751129770501"><ele>23.0</ele><time>2026-03-27T11:14:49Z</time></trkpt><trkpt lat="38.906202815382315" lon="16.27533196661782"><ele>23.0</ele><time>2026-03-27T11:14:50Z</time></trkpt><trkpt lat="38.905952223167525" lon="16.275551534999657"><ele>22.0</ele><time>2026-03-27T11:14:51Z</time></trkpt><trkpt lat="38.905699198741175" lon="16.275772516121826"><ele>21.0</ele><time>2026-03-27T11:14:52Z</time></trkpt><trkpt lat="38.90544845404931" lon="16.275993511529176"><ele>21.0</ele><time>2026-03-27T11:14:53Z</time></trkpt><trkpt lat="38.9051954956172" lon="16.27621312752081"><ele>21.0</ele><time>2026-03-27T11:14:54Z</time></trkpt><trkpt lat="38.904940224027904" lon="16.276428483175657"><ele>21.0</ele><time>2026-03-27T11:14:55Z</time></trkpt><trkpt lat="38.90468252422741" lon="16.27663365092149"><ele>21.0</ele><time>2026-03-27T11:14:56Z</time></trkpt><trkpt lat="38.90441979527866" lon="16.276829090219312"><ele>21.0</ele><time>2026-03-27T11:14:57Z</time></trkpt><trkpt lat="38.90415032972257" lon="16.277006218558192"><ele>21.0</ele><time>2026-03-27T11:14:58Z</time></trkpt><trkpt lat="38.903876171112685" lon="16.277169250347484"><ele>20.0</ele><time>2026-03-27T11:14:59Z</time></trkpt><trkpt lat="38.90359708709369" lon="16.277318849144137"><ele>19.0</ele><time>2026-03-27T11:15:00Z</time></trkpt><trkpt lat="38.903313159633825" lon="16.277455428018456"><ele>19.0</ele><time>2026-03-27T11:15:01Z</time></trkpt><trkpt lat="38.90302673839973" lon="16.277585269656196"><ele>19.0</ele><time>2026-03-27T11:15:02Z</time></trkpt><trkpt lat="38.90273874355113" lon="16.277706209349816"><ele>19.0</ele><time>2026-03-27T11:15:03Z</time></trkpt><trkpt lat="38.90244851749704" lon="16.277815997192114"><ele>19.0</ele><time>2026-03-27T11:15:04Z</time></trkpt><trkpt lat="38.90215329353991" lon="16.277912359481437"><ele>19.0</ele><time>2026-03-27T11:15:05Z</time></trkpt><trkpt lat="38.901859190154774" lon="16.27799209248528"><ele>19.0</ele><time>2026-03-27T11:15:06Z</time></trkpt><trkpt lat="38.90156303103887" lon="16.27806102135807"><ele>19.0</ele><time>2026-03-27T11:15:07Z</time></trkpt><trkpt lat="38.90126668437732" lon="16.278116789153085"><ele>19.0</ele><time>2026-03-27T11:15:08Z</time></trkpt><trkpt lat="38.90096996074552" lon="16.27816472272871"><ele>19.5</ele><time>2026-03-27T11:15:09Z</time></trkpt><trkpt lat="38.900673858701765" lon="16.278210102214302"><ele>20.0</ele><time>2026-03-27T11:15:10Z</time></trkpt><trkpt lat="38.90038125665886" lon="16.278253094877318"><ele>20.0</ele><time>2026-03-27T11:15:11Z</time></trkpt><trkpt lat="38.900085696956786" lon="16.278295550614015"><ele>20.0</ele><time>2026-03-27T11:15:12Z</time></trkpt><trkpt lat="38.89979084264359" lon="16.2783382912568"><ele>19.5</ele><time>2026-03-27T11:15:13Z</time></trkpt><trkpt lat="38.89949566685259" lon="16.278386289909083"><ele>19.0</ele><time>2026-03-27T11:15:14Z</time></trkpt><trkpt lat="38.89920073637332" lon="16.278434367509504"><ele>18.5</ele><time>2026-03-27T11:15:15Z</time></trkpt><trkpt lat="38.89890651779355" lon="16.27848008894331"><ele>18.0</ele><time>2026-03-27T11:15:16Z</time></trkpt><trkpt lat="38.89861192646079" lon="16.27852335204531"><ele>19.0</ele><time>2026-03-27T11:15:17Z</time></trkpt><trkpt lat="38.89831555682798" lon="16.278566328260982"><ele>20.0</ele><time>2026-03-27T11:15:18Z</time></trkpt><trkpt lat="38.89801936902051" lon="16.278609586091843"><ele>20.0</ele><time>2026-03-27T11:15:19Z</time></trkpt><trkpt lat="38.89772247858758" lon="16.27865342366206"><ele>20.0</ele><time>2026-03-27T11:15:20Z</time></trkpt><trkpt lat="38.8974269732781" lon="16.278700371183135"><ele>19.5</ele><time>2026-03-27T11:15:21Z</time></trkpt><trkpt lat="38.89713072610896" lon="16.278746990680542"><ele>19.0</ele><time>2026-03-27T11:15:22Z</time></trkpt><trkpt lat="38.89683300752135" lon="16.278792061908042"><ele>18.5</ele><time>2026-03-27T11:15:23Z</time></trkpt><trkpt lat="38.89653642169836" lon="16.27883672710164"><ele>18.0</ele><time>2026-03-27T11:15:24Z</time></trkpt><trkpt lat="38.89624066331974" lon="16.278880851896396"><ele>18.0</ele><time>2026-03-27T11:15:25Z</time></trkpt><trkpt lat="38.89594366672702" lon="16.278927540131615"><ele>18.0</ele><time>2026-03-27T11:15:26Z</time></trkpt><trkpt lat="38.895649072000154" lon="16.278975438448693"><ele>18.0</ele><time>2026-03-27T11:15:27Z</time></trkpt><trkpt lat="38.89535509694293" lon="16.279022742356553"><ele>18.0</ele><time>2026-03-27T11:15:28Z</time></trkpt><trkpt lat="38.89506197429137" lon="16.279070169527515"><ele>18.0</ele><time>2026-03-27T11:15:29Z</time></trkpt><trkpt lat="38.89476942555637" lon="16.279115435537665"><ele>18.0</ele><time>2026-03-27T11:15:30Z</time></trkpt><trkpt lat="38.894476812865484" lon="16.27915996088014"><ele>18.5</ele><time>2026-03-27T11:15:31Z</time></trkpt><trkpt lat="38.89418395700278" lon="16.279201300769582"><ele>19.0</ele><time>2026-03-27T11:15:32Z</time></trkpt><trkpt lat="38.893891952572964" lon="16.27924078912651"><ele>19.0</ele><time>2026-03-27T11:15:33Z</time></trkpt><trkpt lat="38.89359924011429" lon="16.279283140649476"><ele>19.0</ele><time>2026-03-27T11:15:34Z</time></trkpt><trkpt lat="38.89330726718215" lon="16.27932734898534"><ele>19.5</ele><time>2026-03-27T11:15:35Z</time></trkpt><trkpt lat="38.89301771547349" lon="16.27937132328906"><ele>20.0</ele><time>2026-03-27T11:15:36Z</time></trkpt><trkpt lat="38.89272848446467" lon="16.2794161674169"><ele>20.0</ele><time>2026-03-27T11:15:37Z</time></trkpt><trkpt lat="38.89243916791785" lon="16.279462647296967"><ele>20.0</ele><time>2026-03-27T11:15:38Z</time></trkpt><trkpt lat="38.89215008026201" lon="16.279508204804728"><ele>20.0</ele><time>2026-03-27T11:15:39Z</time></trkpt><trkpt lat="38.89186215460666" lon="16.279553766626993"><ele>20.0</ele><time>2026-03-27T11:15:40Z</time></trkpt><trkpt lat="38.8915745269955" lon="16.279597863082284"><ele>20.0</ele><time>2026-03-27T11:15:41Z</time></trkpt><trkpt lat="38.891285642801144" lon="16.27964047989514"><ele>20.0</ele><time>2026-03-27T11:15:42Z</time></trkpt><trkpt lat="38.890997195066745" lon="16.279683961138446"><ele>19.5</ele><time>2026-03-27T11:15:43Z</time></trkpt><trkpt lat="38.89070950134445" lon="16.279727588465516"><ele>19.0</ele><time>2026-03-27T11:15:44Z</time></trkpt><trkpt lat="38.890421537049946" lon="16.27977339600606"><ele>19.0</ele><time>2026-03-27T11:15:45Z</time></trkpt><trkpt lat="38.89013365101189" lon="16.279817208735196"><ele>19.0</ele><time>2026-03-27T11:15:46Z</time></trkpt><trkpt lat="38.88984465654258" lon="16.279860345552034"><ele>19.0</ele><time>2026-03-27T11:15:47Z</time></trkpt><trkpt lat="38.88955500974668" lon="16.2799034145463"><ele>19.0</ele><time>2026-03-27T11:15:48Z</time></trkpt><trkpt lat="38.88926342300906" lon="16.279948207805997"><ele>19.5</ele><time>2026-03-27T11:15:49Z</time></trkpt><trkpt lat="38.888970319493374" lon="16.279992867864614"><ele>20.0</ele><time>2026-03-27T11:15:50Z</time></trkpt><trkpt lat="38.88867424315136" lon="16.280037512198334"><ele>20.0</ele><time>2026-03-27T11:15:51Z</time></trkpt><trkpt lat="38.88837739722778" lon="16.280082872442527"><ele>20.0</ele><time>2026-03-27T11:15:52Z</time></trkpt><trkpt lat="38.88807978286088" lon="16.280128916513124"><ele>20.0</ele><time>2026-03-27T11:15:53Z</time></trkpt><trkpt lat="38.887779771384395" lon="16.28017553422291"><ele>20.0</ele><time>2026-03-27T11:15:54Z</time></trkpt><trkpt lat="38.887479263216804" lon="16.280222082471525"><ele>19.5</ele><time>2026-03-27T11:15:55Z</time></trkpt><trkpt lat="38.887177054856" lon="16.280269098176625"><ele>19.0</ele><time>2026-03-27T11:15:56Z</time></trkpt><trkpt lat="38.886875615103165" lon="16.280316109912885"><ele>20.0</ele><time>2026-03-27T11:15:57Z</time></trkpt><trkpt lat="38.88657408634681" lon="16.280360192058524"><ele>21.0</ele><time>2026-03-27T11:15:58Z</time></trkpt><trkpt lat="38.88627142407947" lon="16.28040667586266"><ele>21.0</ele><time>2026-03-27T11:15:59Z</time></trkpt><trkpt lat="38.88596986045311" lon="16.280452204273185"><ele>21.0</ele><time>2026-03-27T11:16:00Z</time></trkpt><trkpt lat="38.885668450529806" lon="16.28049696804697"><ele>20.0</ele><time>2026-03-27T11:16:01Z</time></trkpt><trkpt lat="38.885367126924805" lon="16.280542762685407"><ele>19.0</ele><time>2026-03-27T11:16:02Z</time></trkpt><trkpt lat="38.88506650919896" lon="16.28058832782746"><ele>19.0</ele><time>2026-03-27T11:16:03Z</time></trkpt><trkpt lat="38.88476660018616" lon="16.28063239461092"><ele>19.0</ele><time>2026-03-27T11:16:04Z</time></trkpt><trkpt lat="38.88446772730858" lon="16.280676830895796"><ele>18.5</ele><time>2026-03-27T11:16:05Z</time></trkpt><trkpt lat="38.88416956434183" lon="16.280721329148932"><ele>18.0</ele><time>2026-03-27T11:16:06Z</time></trkpt><trkpt lat="38.88387253349057" lon="16.280767138273045"><ele>18.0</ele><time>2026-03-27T11:16:07Z</time></trkpt><trkpt lat="38.8835776510252" lon="16.28081270333887"><ele>18.0</ele><time>2026-03-27T11:16:08Z</time></trkpt><trkpt lat="38.883281999294894" lon="16.280858636844506"><ele>19.0</ele><time>2026-03-27T11:16:09Z</time></trkpt><trkpt lat="38.8829873023578" lon="16.280905813419494"><ele>20.0</ele><time>2026-03-27T11:16:10Z</time></trkpt><trkpt lat="38.882694119581664" lon="16.28095364064118"><ele>19.5</ele><time>2026-03-27T11:16:11Z</time></trkpt><trkpt lat="38.88240146911972" lon="16.281001239130873"><ele>19.0</ele><time>2026-03-27T11:16:12Z</time></trkpt><trkpt lat="38.88210686234838" lon="16.28104528916428"><ele>19.0</ele><time>2026-03-27T11:16:13Z</time></trkpt><trkpt lat="38.88181121685096" lon="16.281088732458855"><ele>19.0</ele><time>2026-03-27T11:16:14Z</time></trkpt><trkpt lat="38.881512641472746" lon="16.281131721922108"><ele>19.0</ele><time>2026-03-27T11:16:15Z</time></trkpt><trkpt lat="38.88121275034289" lon="16.28117257953473"><ele>19.0</ele><time>2026-03-27T11:16:16Z</time></trkpt><trkpt lat="38.880913014704966" lon="16.281211964584596"><ele>19.0</ele><time>2026-03-27T11:16:17Z</time></trkpt><trkpt lat="38.88061160721267" lon="16.281248508916864"><ele>19.0</ele><time>2026-03-27T11:16:18Z</time></trkpt><trkpt lat="38.88030917884067" lon="16.281276070986927"><ele>19.0</ele><time>2026-03-27T11:16:19Z</time></trkpt><trkpt lat="38.88000431143915" lon="16.281297626296304"><ele>19.0</ele><time>2026-03-27T11:16:20Z</time></trkpt><trkpt lat="38.87969947135028" lon="16.28131101570486"><ele>19.0</ele><time>2026-03-27T11:16:21Z</time></trkpt><trkpt lat="38.87939326086366" lon="16.281318546198772"><ele>19.0</ele><time>2026-03-27T11:16:22Z</time></trkpt><trkpt lat="38.87908843132972" lon="16.281323256011593"><ele>19.5</ele><time>2026-03-27T11:16:23Z</time></trkpt><trkpt lat="38.87878455015896" lon="16.281330855193705"><ele>20.0</ele><time>2026-03-27T11:16:24Z</time></trkpt><trkpt lat="38.8784806575354" lon="16.28134062694152"><ele>20.0</ele><time>2026-03-27T11:16:25Z</time></trkpt><trkpt lat="38.878176621840666" lon="16.281348805637883"><ele>20.0</ele><time>2026-03-27T11:16:26Z</time></trkpt><trkpt lat="38.877873537458306" lon="16.281357000559044"><ele>20.0</ele><time>2026-03-27T11:16:27Z</time></trkpt><trkpt lat="38.8775706286479" lon="16.281363897697187"><ele>20.0</ele><time>2026-03-27T11:16:28Z</time></trkpt><trkpt lat="38.877268746235245" lon="16.281370444098524"><ele>20.0</ele><time>2026-03-27T11:16:29Z</time></trkpt><trkpt lat="38.87696793548076" lon="16.281378154086056"><ele>20.0</ele><time>2026-03-27T11:16:30Z</time></trkpt><trkpt lat="38.876668603666296" lon="16.281385861386855"><ele>19.5</ele><time>2026-03-27T11:16:31Z</time></trkpt><trkpt lat="38.87637304472521" lon="16.281392144882453"><ele>19.0</ele><time>2026-03-27T11:16:32Z</time></trkpt><trkpt lat="38.87607800305709" lon="16.2813969598395"><ele>19.0</ele><time>2026-03-27T11:16:33Z</time></trkpt><trkpt lat="38.875782522159966" lon="16.2814012724907"><ele>19.0</ele><time>2026-03-27T11:16:34Z</time></trkpt><trkpt lat="38.87548745222104" lon="16.28140641117845"><ele>19.0</ele><time>2026-03-27T11:16:35Z</time></trkpt><trkpt lat="38.87519370323903" lon="16.281412212318244"><ele>19.0</ele><time>2026-03-27T11:16:36Z</time></trkpt><trkpt lat="38.874899027574706" lon="16.28141993423043"><ele>21.0</ele><time>2026-03-27T11:16:37Z</time></trkpt><trkpt lat="38.87460390425436" lon="16.281429337119437"><ele>23.0</ele><time>2026-03-27T11:16:38Z</time></trkpt><trkpt lat="38.87430987334509" lon="16.28143949325298"><ele>25.0</ele><time>2026-03-27T11:16:39Z</time></trkpt><trkpt lat="38.87401637323996" lon="16.28144386727379"><ele>27.0</ele><time>2026-03-27T11:16:40Z</time></trkpt><trkpt lat="38.87372426191356" lon="16.28145258627563"><ele>27.0</ele><time>2026-03-27T11:16:41Z</time></trkpt><trkpt lat="38.87342873451088" lon="16.281458101539595"><ele>27.0</ele><time>2026-03-27T11:16:42Z</time></trkpt><trkpt lat="38.873133273976535" lon="16.281463709027083"><ele>27.0</ele><time>2026-03-27T11:16:43Z</time></trkpt><trkpt lat="38.87283932777316" lon="16.28146751896682"><ele>27.0</ele><time>2026-03-27T11:16:44Z</time></trkpt><trkpt lat="38.87254314923254" lon="16.281472634811212"><ele>28.0</ele><time>2026-03-27T11:16:45Z</time></trkpt><trkpt lat="38.87224809032313" lon="16.281477765896785"><ele>29.0</ele><time>2026-03-27T11:16:46Z</time></trkpt><trkpt lat="38.871953536208586" lon="16.281486485646823"><ele>29.5</ele><time>2026-03-27T11:16:47Z</time></trkpt><trkpt lat="38.87166057152295" lon="16.281495847648742"><ele>30.0</ele><time>2026-03-27T11:16:48Z</time></trkpt><trkpt lat="38.87136588196766" lon="16.281502858546176"><ele>30.0</ele><time>2026-03-27T11:16:49Z</time></trkpt><trkpt lat="38.87107169732892" lon="16.281506923603736"><ele>30.0</ele><time>2026-03-27T11:16:50Z</time></trkpt><trkpt lat="38.87077739161323" lon="16.281501872649905"><ele>31.5</ele><time>2026-03-27T11:16:51Z</time></trkpt><trkpt lat="38.87048349280161" lon="16.281489367147575"><ele>33.0</ele><time>2026-03-27T11:16:52Z</time></trkpt><trkpt lat="38.87018870468982" lon="16.281465509621444"><ele>32.5</ele><time>2026-03-27T11:16:53Z</time></trkpt><trkpt lat="38.86989685515266" lon="16.281427286065313"><ele>32.0</ele><time>2026-03-27T11:16:54Z</time></trkpt><trkpt lat="38.86960667492387" lon="16.281368446023247"><ele>32.0</ele><time>2026-03-27T11:16:55Z</time></trkpt><trkpt lat="38.869319734963284" lon="16.281293157283564"><ele>32.0</ele><time>2026-03-27T11:16:56Z</time></trkpt><trkpt lat="38.86903659908158" lon="16.281198514027555"><ele>31.5</ele><time>2026-03-27T11:16:57Z</time></trkpt><trkpt lat="38.868756832923864" lon="16.281088496686547"><ele>31.0</ele><time>2026-03-27T11:16:58Z</time></trkpt><trkpt lat="38.86848308623851" lon="16.280963255148706"><ele>30.5</ele><time>2026-03-27T11:16:59Z</time></trkpt><trkpt lat="38.86821520853512" lon="16.28082302054071"><ele>30.0</ele><time>2026-03-27T11:17:00Z</time></trkpt><trkpt lat="38.86795379718145" lon="16.28066359921484"><ele>30.0</ele><time>2026-03-27T11:17:01Z</time></trkpt><trkpt lat="38.86769807473206" lon="16.28049508792743"><ele>30.0</ele><time>2026-03-27T11:17:02Z</time></trkpt><trkpt lat="38.86744635047866" lon="16.280313148779456"><ele>30.0</ele><time>2026-03-27T11:17:03Z</time></trkpt><trkpt lat="38.8672027235042" lon="16.280119471727012"><ele>30.0</ele><time>2026-03-27T11:17:04Z</time></trkpt><trkpt lat="38.86696594889818" lon="16.27991110365209"><ele>30.5</ele><time>2026-03-27T11:17:05Z</time></trkpt><trkpt lat="38.866734718870646" lon="16.2796888802967"><ele>31.0</ele><time>2026-03-27T11:17:06Z</time></trkpt><trkpt lat="38.86650242694501" lon="16.27946620743121"><ele>31.0</ele><time>2026-03-27T11:17:07Z</time></trkpt><trkpt lat="38.866272541555105" lon="16.279232116653734"><ele>31.0</ele><time>2026-03-27T11:17:08Z</time></trkpt><trkpt lat="38.86604185927691" lon="16.278998755184592"><ele>30.5</ele><time>2026-03-27T11:17:09Z</time></trkpt><trkpt lat="38.865812198363564" lon="16.278763584346883"><ele>30.0</ele><time>2026-03-27T11:17:10Z</time></trkpt><trkpt lat="38.865583861394704" lon="16.278528252442"><ele>30.0</ele><time>2026-03-27T11:17:11Z</time></trkpt><trkpt lat="38.865353285089725" lon="16.278293846876117"><ele>30.0</ele><time>2026-03-27T11:17:12Z</time></trkpt><trkpt lat="38.865118662895235" lon="16.278059036151454"><ele>29.5</ele><time>2026-03-27T11:17:13Z</time></trkpt><trkpt lat="38.864882793872994" lon="16.277827391425415"><ele>29.0</ele><time>2026-03-27T11:17:14Z</time></trkpt><trkpt lat="38.864644316360405" lon="16.277598760925745"><ele>29.0</ele><time>2026-03-27T11:17:15Z</time></trkpt><trkpt lat="38.86440115000645" lon="16.277374977964698"><ele>29.0</ele><time>2026-03-27T11:17:16Z</time></trkpt><trkpt lat="38.86415281072826" lon="16.277154840256493"><ele>27.5</ele><time>2026-03-27T11:17:17Z</time></trkpt><trkpt lat="38.86389917143792" lon="16.276939215903"><ele>26.0</ele><time>2026-03-27T11:17:18Z</time></trkpt><trkpt lat="38.863638553396555" lon="16.276733859406693"><ele>25.5</ele><time>2026-03-27T11:17:19Z</time></trkpt><trkpt lat="38.86337040769739" lon="16.27653931943565"><ele>25.0</ele><time>2026-03-27T11:17:20Z</time></trkpt><trkpt lat="38.863097167140296" lon="16.276358548184316"><ele>24.5</ele><time>2026-03-27T11:17:21Z</time></trkpt><trkpt lat="38.862819147521684" lon="16.27619148490651"><ele>24.0</ele><time>2026-03-27T11:17:22Z</time></trkpt><trkpt lat="38.86253554686947" lon="16.276035933296853"><ele>22.5</ele><time>2026-03-27T11:17:23Z</time></trkpt><trkpt lat="38.862248917454885" lon="16.275892310742137"><ele>21.0</ele><time>2026-03-27T11:17:24Z</time></trkpt><trkpt lat="38.86195881797225" lon="16.27576051022527"><ele>19.5</ele><time>2026-03-27T11:17:25Z</time></trkpt><trkpt lat="38.861665578773604" lon="16.275639445842856"><ele>18.0</ele><time>2026-03-27T11:17:26Z</time></trkpt><trkpt lat="38.86136951161875" lon="16.275530023702267"><ele>17.5</ele><time>2026-03-27T11:17:27Z</time></trkpt><trkpt lat="38.86107370044568" lon="16.27542990141425"><ele>17.0</ele><time>2026-03-27T11:17:28Z</time></trkpt><trkpt lat="38.860776265398634" lon="16.27533851906062"><ele>17.0</ele><time>2026-03-27T11:17:29Z</time></trkpt><trkpt lat="38.86047895624972" lon="16.27525416019234"><ele>17.0</ele><time>2026-03-27T11:17:30Z</time></trkpt><trkpt lat="38.860182302755774" lon="16.27517494251652"><ele>18.0</ele><time>2026-03-27T11:17:31Z</time></trkpt><trkpt lat="38.85988403176746" lon="16.27509567413842"><ele>19.0</ele><time>2026-03-27T11:17:32Z</time></trkpt><trkpt lat="38.85958385593133" lon="16.27501639864037"><ele>19.0</ele><time>2026-03-27T11:17:33Z</time></trkpt><trkpt lat="38.85928532907837" lon="16.274934918039875"><ele>19.0</ele><time>2026-03-27T11:17:34Z</time></trkpt><trkpt lat="38.858989656508" lon="16.274850746992332"><ele>18.0</ele><time>2026-03-27T11:17:35Z</time></trkpt><trkpt lat="38.85869712925268" lon="16.274759217228283"><ele>17.0</ele><time>2026-03-27T11:17:36Z</time></trkpt><trkpt lat="38.85840748114945" lon="16.27466077938736"><ele>17.0</ele><time>2026-03-27T11:17:37Z</time></trkpt><trkpt lat="38.85812018490348" lon="16.2745491758013"><ele>17.0</ele><time>2026-03-27T11:17:38Z</time></trkpt><trkpt lat="38.85783441840288" lon="16.274426498321017"><ele>16.5</ele><time>2026-03-27T11:17:39Z</time></trkpt><trkpt lat="38.85755181399863" lon="16.27429072645868"><ele>16.0</ele><time>2026-03-27T11:17:40Z</time></trkpt><trkpt lat="38.85727194767187" lon="16.274144151532035"><ele>16.0</ele><time>2026-03-27T11:17:41Z</time></trkpt><trkpt lat="38.85699495904254" lon="16.273984790026102"><ele>16.0</ele><time>2026-03-27T11:17:42Z</time></trkpt><trkpt lat="38.85672326795625" lon="16.27381273808575"><ele>16.5</ele><time>2026-03-27T11:17:43Z</time></trkpt><trkpt lat="38.85645565192078" lon="16.27362946736063"><ele>17.0</ele><time>2026-03-27T11:17:44Z</time></trkpt><trkpt lat="38.85619066712602" lon="16.273435238497804"><ele>18.0</ele><time>2026-03-27T11:17:45Z</time></trkpt><trkpt lat="38.855929506002134" lon="16.273233541911022"><ele>19.0</ele><time>2026-03-27T11:17:46Z</time></trkpt><trkpt lat="38.85567078870313" lon="16.27303062916206"><ele>19.5</ele><time>2026-03-27T11:17:47Z</time></trkpt><trkpt lat="38.85541233307606" lon="16.272826160123202"><ele>20.0</ele><time>2026-03-27T11:17:48Z</time></trkpt><trkpt lat="38.85515397980338" lon="16.27262017704131"><ele>20.5</ele><time>2026-03-27T11:17:49Z</time></trkpt><trkpt lat="38.85489538374442" lon="16.27241562953629"><ele>21.0</ele><time>2026-03-27T11:17:50Z</time></trkpt><trkpt lat="38.85463874208417" lon="16.272209805235"><ele>21.0</ele><time>2026-03-27T11:17:51Z</time></trkpt><trkpt lat="38.854383088431526" lon="16.271999097048614"><ele>21.0</ele><time>2026-03-27T11:17:52Z</time></trkpt><trkpt lat="38.854127565384125" lon="16.271788486984246"><ele>21.0</ele><time>2026-03-27T11:17:53Z</time></trkpt><trkpt lat="38.85387195027766" lon="16.27157886315551"><ele>21.0</ele><time>2026-03-27T11:17:54Z</time></trkpt><trkpt lat="38.85361470911362" lon="16.271368244011853"><ele>21.0</ele><time>2026-03-27T11:17:55Z</time></trkpt><trkpt lat="38.85335727264291" lon="16.271156342824522"><ele>21.0</ele><time>2026-03-27T11:17:56Z</time></trkpt><trkpt lat="38.85310105681649" lon="16.27094573955506"><ele>21.0</ele><time>2026-03-27T11:17:57Z</time></trkpt><trkpt lat="38.85284467263489" lon="16.270735787898996"><ele>21.0</ele><time>2026-03-27T11:17:58Z</time></trkpt><trkpt lat="38.852586960550646" lon="16.270526088764772"><ele>22.0</ele><time>2026-03-27T11:17:59Z</time></trkpt><trkpt lat="38.852330345175496" lon="16.270318534279657"><ele>23.0</ele><time>2026-03-27T11:18:00Z</time></trkpt><trkpt lat="38.852074320195314" lon="16.270110307354305"><ele>23.0</ele><time>2026-03-27T11:18:01Z</time></trkpt><trkpt lat="38.85181750590607" lon="16.269902546903815"><ele>23.0</ele><time>2026-03-27T11:18:02Z</time></trkpt><trkpt lat="38.85156099460417" lon="16.26969499623172"><ele>21.5</ele><time>2026-03-27T11:18:03Z</time></trkpt><trkpt lat="38.85130498573586" lon="16.26948609501405"><ele>20.0</ele><time>2026-03-27T11:18:04Z</time></trkpt><trkpt lat="38.85104792431852" lon="16.269278637324124"><ele>20.5</ele><time>2026-03-27T11:18:05Z</time></trkpt><trkpt lat="38.85079386291181" lon="16.26907574697967"><ele>21.0</ele><time>2026-03-27T11:18:06Z</time></trkpt><trkpt lat="38.85053990513432" lon="16.26887733654409"><ele>21.0</ele><time>2026-03-27T11:18:07Z</time></trkpt><trkpt lat="38.850287179783855" lon="16.268677476882345"><ele>21.0</ele><time>2026-03-27T11:18:08Z</time></trkpt><trkpt lat="38.85003537652796" lon="16.268476735018826"><ele>21.5</ele><time>2026-03-27T11:18:09Z</time></trkpt><trkpt lat="38.84978542946776" lon="16.26827530932729"><ele>22.0</ele><time>2026-03-27T11:18:10Z</time></trkpt><trkpt lat="38.8495388710261" lon="16.26807257309058"><ele>23.0</ele><time>2026-03-27T11:18:11Z</time></trkpt><trkpt lat="38.84929193602578" lon="16.267871295639367"><ele>24.0</ele><time>2026-03-27T11:18:12Z</time></trkpt><trkpt lat="38.84904611682497" lon="16.26767027823438"><ele>24.0</ele><time>2026-03-27T11:18:13Z</time></trkpt><trkpt lat="38.848801104737085" lon="16.267468759898172"><ele>24.0</ele><time>2026-03-27T11:18:14Z</time></trkpt><trkpt lat="38.84855615022728" lon="16.26726525038681"><ele>24.5</ele><time>2026-03-27T11:18:15Z</time></trkpt><trkpt lat="38.84831218180319" lon="16.267061348642972"><ele>25.0</ele><time>2026-03-27T11:18:16Z</time></trkpt><trkpt lat="38.84806850103146" lon="16.266858603551082"><ele>25.0</ele><time>2026-03-27T11:18:17Z</time></trkpt><trkpt lat="38.847823069439904" lon="16.266657499077464"><ele>25.0</ele><time>2026-03-27T11:18:18Z</time></trkpt><trkpt lat="38.847574571365534" lon="16.266456859500376"><ele>25.5</ele><time>2026-03-27T11:18:19Z</time></trkpt><trkpt lat="38.84732694508184" lon="16.26625718008085"><ele>26.0</ele><time>2026-03-27T11:18:20Z</time></trkpt><trkpt lat="38.847078828180976" lon="16.266056884956377"><ele>26.0</ele><time>2026-03-27T11:18:21Z</time></trkpt><trkpt lat="38.846827475267844" lon="16.26585665116646"><ele>26.0</ele><time>2026-03-27T11:18:22Z</time></trkpt><trkpt lat="38.84657259953749" lon="16.26565790301403"><ele>27.0</ele><time>2026-03-27T11:18:23Z</time></trkpt><trkpt lat="38.84631617663633" lon="16.26546010730098"><ele>28.0</ele><time>2026-03-27T11:18:24Z</time></trkpt><trkpt lat="38.846056404709095" lon="16.265265913790138"><ele>27.5</ele><time>2026-03-27T11:18:25Z</time></trkpt><trkpt lat="38.8457917999" lon="16.265078016333543"><ele>27.0</ele><time>2026-03-27T11:18:26Z</time></trkpt><trkpt lat="38.845523924749436" lon="16.26489966974239"><ele>27.0</ele><time>2026-03-27T11:18:27Z</time></trkpt><trkpt lat="38.84525311175333" lon="16.264727653973228"><ele>27.0</ele><time>2026-03-27T11:18:28Z</time></trkpt><trkpt lat="38.84498098359659" lon="16.264559229225938"><ele>28.0</ele><time>2026-03-27T11:18:29Z</time></trkpt><trkpt lat="38.8447074502878" lon="16.26439513595737"><ele>29.0</ele><time>2026-03-27T11:18:30Z</time></trkpt><trkpt lat="38.844431062834424" lon="16.26423454605681"><ele>28.5</ele><time>2026-03-27T11:18:31Z</time></trkpt><trkpt lat="38.84415428830781" lon="16.26407932198796"><ele>28.0</ele><time>2026-03-27T11:18:32Z</time></trkpt><trkpt lat="38.8438745813886" lon="16.263929905734177"><ele>27.5</ele><time>2026-03-27T11:18:33Z</time></trkpt><trkpt lat="38.84359391620736" lon="16.263786385039857"><ele>27.0</ele><time>2026-03-27T11:18:34Z</time></trkpt><trkpt lat="38.843312381797844" lon="16.26364471762373"><ele>28.0</ele><time>2026-03-27T11:18:35Z</time></trkpt><trkpt lat="38.84303075300443" lon="16.263505273210743"><ele>29.0</ele><time>2026-03-27T11:18:36Z</time></trkpt><trkpt lat="38.84274748361319" lon="16.263366890959727"><ele>29.5</ele><time>2026-03-27T11:18:37Z</time></trkpt><trkpt lat="38.842464476219575" lon="16.26322901667812"><ele>30.0</ele><time>2026-03-27T11:18:37.999Z</time></trkpt><trkpt lat="38.842182149290835" lon="16.263091465126156"><ele>30.0</ele><time>2026-03-27T11:18:38.999Z</time></trkpt><trkpt lat="38.84190095715778" lon="16.26295470305539"><ele>30.0</ele><time>2026-03-27T11:18:39.999Z</time></trkpt><trkpt lat="38.841620067644406" lon="16.262815551919157"><ele>31.0</ele><time>2026-03-27T11:18:40.999Z</time></trkpt><trkpt lat="38.84134057655341" lon="16.262674164499433"><ele>32.0</ele><time>2026-03-27T11:18:42Z</time></trkpt><trkpt lat="38.84106254923287" lon="16.262530213949162"><ele>32.0</ele><time>2026-03-27T11:18:43Z</time></trkpt><trkpt lat="38.84078534811663" lon="16.262381508101708"><ele>32.0</ele><time>2026-03-27T11:18:44Z</time></trkpt><trkpt lat="38.84051001377314" lon="16.262226604455673"><ele>31.0</ele><time>2026-03-27T11:18:45Z</time></trkpt><trkpt lat="38.840237288191254" lon="16.262063300252027"><ele>30.0</ele><time>2026-03-27T11:18:46Z</time></trkpt><trkpt lat="38.839967560706775" lon="16.261891670734475"><ele>33.0</ele><time>2026-03-27T11:18:47Z</time></trkpt><trkpt lat="38.83970082111139" lon="16.261712917927593"><ele>36.0</ele><time>2026-03-27T11:18:48Z</time></trkpt><trkpt lat="38.83943741798554" lon="16.2615260668141"><ele>34.0</ele><time>2026-03-27T11:18:49Z</time></trkpt><trkpt lat="38.83917528197037" lon="16.26133613580498"><ele>32.0</ele><time>2026-03-27T11:18:50Z</time></trkpt><trkpt lat="38.83891533021813" lon="16.261138153108956"><ele>32.0</ele><time>2026-03-27T11:18:51Z</time></trkpt><trkpt lat="38.838655213364774" lon="16.260936934779515"><ele>32.0</ele><time>2026-03-27T11:18:52Z</time></trkpt><trkpt lat="38.83839643800234" lon="16.26073251600632"><ele>31.0</ele><time>2026-03-27T11:18:53Z</time></trkpt><trkpt lat="38.83814030577664" lon="16.260526119938625"><ele>30.0</ele><time>2026-03-27T11:18:54Z</time></trkpt><trkpt lat="38.83788672756899" lon="16.260316667887675"><ele>30.0</ele><time>2026-03-27T11:18:55Z</time></trkpt><trkpt lat="38.837638082964254" lon="16.260102150218653"><ele>30.0</ele><time>2026-03-27T11:18:56Z</time></trkpt><trkpt lat="38.837390500174386" lon="16.259887736024446"><ele>28.5</ele><time>2026-03-27T11:18:57Z</time></trkpt><trkpt lat="38.83714215088216" lon="16.259673412817573"><ele>27.0</ele><time>2026-03-27T11:18:58Z</time></trkpt><trkpt lat="38.83689471220609" lon="16.259460933854474"><ele>28.0</ele><time>2026-03-27T11:18:59Z</time></trkpt><trkpt lat="38.836647625017655" lon="16.25925154589724"><ele>29.0</ele><time>2026-03-27T11:19:00Z</time></trkpt><trkpt lat="38.8363984797525" lon="16.25904808291425"><ele>29.0</ele><time>2026-03-27T11:19:01Z</time></trkpt><trkpt lat="38.836145811690244" lon="16.258849552410467"><ele>29.0</ele><time>2026-03-27T11:19:02Z</time></trkpt><trkpt lat="38.83589114012053" lon="16.25865445438883"><ele>29.0</ele><time>2026-03-27T11:19:03Z</time></trkpt><trkpt lat="38.83563460692372" lon="16.258465649172376"><ele>29.0</ele><time>2026-03-27T11:19:04Z</time></trkpt><trkpt lat="38.8353751321536" lon="16.258279908001096"><ele>29.0</ele><time>2026-03-27T11:19:05Z</time></trkpt><trkpt lat="38.835113747888734" lon="16.25810029968259"><ele>29.0</ele><time>2026-03-27T11:19:06Z</time></trkpt><trkpt lat="38.83485347992362" lon="16.25792232758414"><ele>29.0</ele><time>2026-03-27T11:19:07Z</time></trkpt><trkpt lat="38.834592043047856" lon="16.257744855163985"><ele>29.0</ele><time>2026-03-27T11:19:08Z</time></trkpt><trkpt lat="38.83433250534354" lon="16.257568737126718"><ele>29.0</ele><time>2026-03-27T11:19:09Z</time></trkpt><trkpt lat="38.834071827536434" lon="16.257390317795988"><ele>29.0</ele><time>2026-03-27T11:19:10Z</time></trkpt><trkpt lat="38.83381203803161" lon="16.257212991145902"><ele>28.5</ele><time>2026-03-27T11:19:11Z</time></trkpt><trkpt lat="38.833552169403454" lon="16.25703948083678"><ele>28.0</ele><time>2026-03-27T11:19:12Z</time></trkpt><trkpt lat="38.83329254931877" lon="16.25686542523618"><ele>27.0</ele><time>2026-03-27T11:19:13Z</time></trkpt><trkpt lat="38.833034608021826" lon="16.256692258272093"><ele>26.0</ele><time>2026-03-27T11:19:14Z</time></trkpt><trkpt lat="38.832777778863374" lon="16.256513110463246"><ele>26.0</ele><time>2026-03-27T11:19:15Z</time></trkpt><trkpt lat="38.83252120228148" lon="16.256323846829414"><ele>26.0</ele><time>2026-03-27T11:19:16Z</time></trkpt><trkpt lat="38.83226123723967" lon="16.25613239972276"><ele>26.0</ele><time>2026-03-27T11:19:17Z</time></trkpt><trkpt lat="38.831997993113845" lon="16.255944431044043"><ele>26.0</ele><time>2026-03-27T11:19:18Z</time></trkpt><trkpt lat="38.831730659063275" lon="16.25575996146213"><ele>25.5</ele><time>2026-03-27T11:19:19Z</time></trkpt><trkpt lat="38.83146081643021" lon="16.255575829192562"><ele>25.0</ele><time>2026-03-27T11:19:20Z</time></trkpt><trkpt lat="38.831191025407286" lon="16.25538910501928"><ele>25.5</ele><time>2026-03-27T11:19:21Z</time></trkpt><trkpt lat="38.83091966267164" lon="16.255201874481404"><ele>26.0</ele><time>2026-03-27T11:19:22Z</time></trkpt><trkpt lat="38.830648838381826" lon="16.255015731855373"><ele>26.0</ele><time>2026-03-27T11:19:23Z</time></trkpt><trkpt lat="38.830375017143545" lon="16.254830701022563"><ele>26.0</ele><time>2026-03-27T11:19:24Z</time></trkpt><trkpt lat="38.83010329584582" lon="16.254645309933363"><ele>25.5</ele><time>2026-03-27T11:19:25Z</time></trkpt><trkpt lat="38.82983158668607" lon="16.254460746617067"><ele>25.0</ele><time>2026-03-27T11:19:26Z</time></trkpt><trkpt lat="38.82956015920666" lon="16.254279894244643"><ele>26.5</ele><time>2026-03-27T11:19:27Z</time></trkpt><trkpt lat="38.829289923001426" lon="16.254097762590227"><ele>28.0</ele><time>2026-03-27T11:19:28Z</time></trkpt><trkpt lat="38.82902229626303" lon="16.253909440482627"><ele>25.0</ele><time>2026-03-27T11:19:29Z</time></trkpt><trkpt lat="38.8287562439222" lon="16.253713451246917"><ele>22.0</ele><time>2026-03-27T11:19:30Z</time></trkpt><trkpt lat="38.82849137750667" lon="16.25351524572404"><ele>22.5</ele><time>2026-03-27T11:19:31Z</time></trkpt><trkpt lat="38.82822601748998" lon="16.253315040558803"><ele>23.0</ele><time>2026-03-27T11:19:32Z</time></trkpt><trkpt lat="38.8279633337835" lon="16.253109447810118"><ele>22.0</ele><time>2026-03-27T11:19:33Z</time></trkpt><trkpt lat="38.827702356384194" lon="16.25289871444987"><ele>21.0</ele><time>2026-03-27T11:19:34Z</time></trkpt><trkpt lat="38.827442239878266" lon="16.252683491406852"><ele>20.0</ele><time>2026-03-27T11:19:35Z</time></trkpt><trkpt lat="38.82718523073777" lon="16.252461642037144"><ele>19.0</ele><time>2026-03-27T11:19:36Z</time></trkpt><trkpt lat="38.82693096464021" lon="16.252235946693467"><ele>20.0</ele><time>2026-03-27T11:19:37Z</time></trkpt><trkpt lat="38.82667970700795" lon="16.252007639903066"><ele>21.0</ele><time>2026-03-27T11:19:38Z</time></trkpt><trkpt lat="38.82643217253925" lon="16.251774770452574"><ele>21.0</ele><time>2026-03-27T11:19:39Z</time></trkpt><trkpt lat="38.82618926055294" lon="16.251536095517597"><ele>21.0</ele><time>2026-03-27T11:19:40Z</time></trkpt><trkpt lat="38.825951085480256" lon="16.251290741680528"><ele>20.0</ele><time>2026-03-27T11:19:41Z</time></trkpt><trkpt lat="38.82571802171969" lon="16.251038027962593"><ele>19.0</ele><time>2026-03-27T11:19:42Z</time></trkpt><trkpt lat="38.82549362181598" lon="16.250776578458222"><ele>19.0</ele><time>2026-03-27T11:19:43Z</time></trkpt><trkpt lat="38.82527371421135" lon="16.250511223651504"><ele>19.0</ele><time>2026-03-27T11:19:44Z</time></trkpt><trkpt lat="38.82505745040547" lon="16.250240799007763"><ele>19.0</ele><time>2026-03-27T11:19:45Z</time></trkpt><trkpt lat="38.82484607259544" lon="16.249964272313704"><ele>19.0</ele><time>2026-03-27T11:19:46Z</time></trkpt><trkpt lat="38.82464284213416" lon="16.249678851472826"><ele>18.5</ele><time>2026-03-27T11:19:47Z</time></trkpt><trkpt lat="38.82444476437371" lon="16.249387940098035"><ele>18.0</ele><time>2026-03-27T11:19:48Z</time></trkpt><trkpt lat="38.824251767365986" lon="16.249089305718787"><ele>18.5</ele><time>2026-03-27T11:19:49Z</time></trkpt><trkpt lat="38.824065584988425" lon="16.248782844962054"><ele>19.0</ele><time>2026-03-27T11:19:50Z</time></trkpt><trkpt lat="38.823886558889065" lon="16.248468226326025"><ele>19.0</ele><time>2026-03-27T11:19:51Z</time></trkpt><trkpt lat="38.823717107693795" lon="16.248143968840463"><ele>19.0</ele><time>2026-03-27T11:19:52Z</time></trkpt><trkpt lat="38.8235528587081" lon="16.247813888245478"><ele>19.0</ele><time>2026-03-27T11:19:53Z</time></trkpt><trkpt lat="38.82339241192591" lon="16.24748013591974"><ele>19.0</ele><time>2026-03-27T11:19:54Z</time></trkpt><trkpt lat="38.82323786640841" lon="16.24714445631765"><ele>19.5</ele><time>2026-03-27T11:19:55Z</time></trkpt><trkpt lat="38.82308536355883" lon="16.246804869490585"><ele>20.0</ele><time>2026-03-27T11:19:56Z</time></trkpt><trkpt lat="38.822933899606724" lon="16.246465151672606"><ele>20.0</ele><time>2026-03-27T11:19:57Z</time></trkpt><trkpt lat="38.82278342265208" lon="16.24612396898072"><ele>20.0</ele><time>2026-03-27T11:19:58Z</time></trkpt><trkpt lat="38.82263331968379" lon="16.24578069394286"><ele>20.0</ele><time>2026-03-27T11:19:59Z</time></trkpt><trkpt lat="38.82248379033088" lon="16.245434965310665"><ele>20.0</ele><time>2026-03-27T11:20:00Z</time></trkpt><trkpt lat="38.82233581469801" lon="16.24508723345204"><ele>20.0</ele><time>2026-03-27T11:20:01Z</time></trkpt><trkpt lat="38.82219154084216" lon="16.244738407151825"><ele>20.0</ele><time>2026-03-27T11:20:02Z</time></trkpt><trkpt lat="38.82204948647498" lon="16.24438791454582"><ele>20.0</ele><time>2026-03-27T11:20:03Z</time></trkpt><trkpt lat="38.82190715501834" lon="16.244039242039445"><ele>20.0</ele><time>2026-03-27T11:20:04Z</time></trkpt><trkpt lat="38.821762802456284" lon="16.243691384912704"><ele>21.0</ele><time>2026-03-27T11:20:05Z</time></trkpt><trkpt lat="38.82162042055287" lon="16.24334446869108"><ele>22.0</ele><time>2026-03-27T11:20:06Z</time></trkpt><trkpt lat="38.82147536192133" lon="16.24300138134508"><ele>22.0</ele><time>2026-03-27T11:20:07Z</time></trkpt><trkpt lat="38.82132739586042" lon="16.242668827519704"><ele>22.0</ele><time>2026-03-27T11:20:08Z</time></trkpt><trkpt lat="38.82117177328698" lon="16.24232856028873"><ele>21.0</ele><time>2026-03-27T11:20:09Z</time></trkpt><trkpt lat="38.82101473022266" lon="16.241991637592495"><ele>20.0</ele><time>2026-03-27T11:20:10Z</time></trkpt><trkpt lat="38.8208511695852" lon="16.241663111517667"><ele>19.5</ele><time>2026-03-27T11:20:11Z</time></trkpt><trkpt lat="38.82068334894302" lon="16.24133805449116"><ele>19.0</ele><time>2026-03-27T11:20:12Z</time></trkpt><trkpt lat="38.820511492637095" lon="16.24101838220882"><ele>19.0</ele><time>2026-03-27T11:20:13Z</time></trkpt><trkpt lat="38.82033353281315" lon="16.24070468522482"><ele>19.0</ele><time>2026-03-27T11:20:14Z</time></trkpt><trkpt lat="38.82014920145623" lon="16.240392364156847"><ele>17.5</ele><time>2026-03-27T11:20:15Z</time></trkpt><trkpt lat="38.8199596825342" lon="16.240083303934025"><ele>16.0</ele><time>2026-03-27T11:20:16Z</time></trkpt><trkpt lat="38.81976366720543" lon="16.23977962083051"><ele>15.5</ele><time>2026-03-27T11:20:17Z</time></trkpt><trkpt lat="38.81955936528208" lon="16.23948301712867"><ele>15.0</ele><time>2026-03-27T11:20:18Z</time></trkpt><trkpt lat="38.819346320673084" lon="16.239194564587347"><ele>14.5</ele><time>2026-03-27T11:20:19Z</time></trkpt><trkpt lat="38.8191253028032" lon="16.238914423813174"><ele>14.0</ele><time>2026-03-27T11:20:20Z</time></trkpt><trkpt lat="38.81889962405669" lon="16.23864076006522"><ele>14.0</ele><time>2026-03-27T11:20:21Z</time></trkpt><trkpt lat="38.81866966935292" lon="16.238371990334635"><ele>14.0</ele><time>2026-03-27T11:20:22Z</time></trkpt><trkpt lat="38.818433770583425" lon="16.23811071694024"><ele>15.5</ele><time>2026-03-27T11:20:23Z</time></trkpt><trkpt lat="38.81819201049871" lon="16.237858875555496"><ele>17.0</ele><time>2026-03-27T11:20:24Z</time></trkpt><trkpt lat="38.81794537951399" lon="16.23761889928653"><ele>17.0</ele><time>2026-03-27T11:20:25Z</time></trkpt><trkpt lat="38.817693919061604" lon="16.237392203551266"><ele>17.0</ele><time>2026-03-27T11:20:26Z</time></trkpt><trkpt lat="38.81743690999374" lon="16.237176083770553"><ele>17.5</ele><time>2026-03-27T11:20:27Z</time></trkpt><trkpt lat="38.81717524069939" lon="16.236968164469918"><ele>18.0</ele><time>2026-03-27T11:20:28Z</time></trkpt><trkpt lat="38.81690943010759" lon="16.236768664258108"><ele>19.5</ele><time>2026-03-27T11:20:29Z</time></trkpt><trkpt lat="38.81664116459456" lon="16.236573295554912"><ele>21.0</ele><time>2026-03-27T11:20:30Z</time></trkpt><trkpt lat="38.81636773859552" lon="16.23638588613602"><ele>20.0</ele><time>2026-03-27T11:20:31Z</time></trkpt><trkpt lat="38.81608884166305" lon="16.23620756047734"><ele>19.0</ele><time>2026-03-27T11:20:32Z</time></trkpt><trkpt lat="38.815803165184434" lon="16.236036619052438"><ele>19.0</ele><time>2026-03-27T11:20:33Z</time></trkpt><trkpt lat="38.81551211914619" lon="16.235868769502126"><ele>19.0</ele><time>2026-03-27T11:20:34Z</time></trkpt><trkpt lat="38.81521940382511" lon="16.235708449651394"><ele>16.5</ele><time>2026-03-27T11:20:35Z</time></trkpt><trkpt lat="38.814925748901125" lon="16.235559540477112"><ele>14.0</ele><time>2026-03-27T11:20:36Z</time></trkpt><trkpt lat="38.81463231341334" lon="16.235414768028694"><ele>14.0</ele><time>2026-03-27T11:20:37Z</time></trkpt><trkpt lat="38.81433741072863" lon="16.235272493482082"><ele>14.0</ele><time>2026-03-27T11:20:38Z</time></trkpt><trkpt lat="38.814044719111116" lon="16.235134062951694"><ele>16.0</ele><time>2026-03-27T11:20:39Z</time></trkpt><trkpt lat="38.81375249277982" lon="16.2350001630521"><ele>18.0</ele><time>2026-03-27T11:20:40Z</time></trkpt><trkpt lat="38.813461489538604" lon="16.234867031917986"><ele>14.5</ele><time>2026-03-27T11:20:41Z</time></trkpt><trkpt lat="38.81317126530244" lon="16.2347368526779"><ele>11.0</ele><time>2026-03-27T11:20:42Z</time></trkpt><trkpt lat="38.81288068367796" lon="16.23461058174372"><ele>12.0</ele><time>2026-03-27T11:20:43Z</time></trkpt><trkpt lat="38.81259006595843" lon="16.234488504947542"><ele>13.0</ele><time>2026-03-27T11:20:44Z</time></trkpt><trkpt lat="38.81230055422269" lon="16.23436559631124"><ele>13.0</ele><time>2026-03-27T11:20:45Z</time></trkpt><trkpt lat="38.81200962328717" lon="16.234239192701132"><ele>13.0</ele><time>2026-03-27T11:20:46Z</time></trkpt><trkpt lat="38.81171994992743" lon="16.234111352942907"><ele>12.5</ele><time>2026-03-27T11:20:47Z</time></trkpt><trkpt lat="38.81143105341739" lon="16.233981596095585"><ele>12.0</ele><time>2026-03-27T11:20:48Z</time></trkpt><trkpt lat="38.81114057146626" lon="16.233852249414454"><ele>14.0</ele><time>2026-03-27T11:20:49Z</time></trkpt><trkpt lat="38.810854649023106" lon="16.23372343702006"><ele>16.0</ele><time>2026-03-27T11:20:50Z</time></trkpt><trkpt lat="38.810567645350275" lon="16.23359283502922"><ele>16.0</ele><time>2026-03-27T11:20:51Z</time></trkpt><trkpt lat="38.81028125660172" lon="16.233463684603844"><ele>16.0</ele><time>2026-03-27T11:20:52Z</time></trkpt><trkpt lat="38.8099952087173" lon="16.23333486608944"><ele>16.0</ele><time>2026-03-27T11:20:53Z</time></trkpt><trkpt lat="38.80971224963753" lon="16.233203459567694"><ele>16.0</ele><time>2026-03-27T11:20:54Z</time></trkpt><trkpt lat="38.80943193196071" lon="16.233066206423636"><ele>14.5</ele><time>2026-03-27T11:20:55Z</time></trkpt><trkpt lat="38.80915382039319" lon="16.232925054302683"><ele>13.0</ele><time>2026-03-27T11:20:56Z</time></trkpt><trkpt lat="38.808875585311036" lon="16.23278628761356"><ele>13.0</ele><time>2026-03-27T11:20:57Z</time></trkpt><trkpt lat="38.80859578550026" lon="16.2326527192864"><ele>13.0</ele><time>2026-03-27T11:20:58Z</time></trkpt><trkpt lat="38.8083145293859" lon="16.232522290115952"><ele>12.0</ele><time>2026-03-27T11:20:59Z</time></trkpt><trkpt lat="38.80803300049998" lon="16.232391668099744"><ele>11.0</ele><time>2026-03-27T11:21:00Z</time></trkpt><trkpt lat="38.807751703230956" lon="16.23226293469875"><ele>12.5</ele><time>2026-03-27T11:21:01Z</time></trkpt><trkpt lat="38.80746977759678" lon="16.232133467367714"><ele>14.0</ele><time>2026-03-27T11:21:02Z</time></trkpt><trkpt lat="38.80718834496803" lon="16.232004978566597"><ele>14.0</ele><time>2026-03-27T11:21:03Z</time></trkpt><trkpt lat="38.80690648443186" lon="16.231876687237495"><ele>14.0</ele><time>2026-03-27T11:21:04Z</time></trkpt><trkpt lat="38.80662513356583" lon="16.23174815431872"><ele>16.5</ele><time>2026-03-27T11:21:05Z</time></trkpt><trkpt lat="38.8063425325817" lon="16.231619516943013"><ele>19.0</ele><time>2026-03-27T11:21:06Z</time></trkpt><trkpt lat="38.80605893241616" lon="16.231488803071375"><ele>17.5</ele><time>2026-03-27T11:21:07Z</time></trkpt><trkpt lat="38.80577496928012" lon="16.23135769368413"><ele>16.0</ele><time>2026-03-27T11:21:08Z</time></trkpt><trkpt lat="38.80549102457911" lon="16.231227315759835"><ele>16.0</ele><time>2026-03-27T11:21:09Z</time></trkpt><trkpt lat="38.80520463573065" lon="16.231096371345064"><ele>16.0</ele><time>2026-03-27T11:21:10Z</time></trkpt><trkpt lat="38.80491760916217" lon="16.230964852006792"><ele>17.0</ele><time>2026-03-27T11:21:11Z</time></trkpt><trkpt lat="38.8046288566729" lon="16.230832551411172"><ele>18.0</ele><time>2026-03-27T11:21:12Z</time></trkpt><trkpt lat="38.80433822729063" lon="16.230700542345424"><ele>16.0</ele><time>2026-03-27T11:21:13Z</time></trkpt><trkpt lat="38.8040470105612" lon="16.23056852177476"><ele>14.0</ele><time>2026-03-27T11:21:14Z</time></trkpt><trkpt lat="38.80375804838411" lon="16.230436251981583"><ele>15.0</ele><time>2026-03-27T11:21:15Z</time></trkpt><trkpt lat="38.80347007561555" lon="16.230304915884698"><ele>16.0</ele><time>2026-03-27T11:21:16Z</time></trkpt><trkpt lat="38.80318224865265" lon="16.230175533166335"><ele>16.0</ele><time>2026-03-27T11:21:17Z</time></trkpt><trkpt lat="38.80289195459671" lon="16.23004650709924"><ele>16.0</ele><time>2026-03-27T11:21:18Z</time></trkpt><trkpt lat="38.8026017293148" lon="16.229915842691813"><ele>15.0</ele><time>2026-03-27T11:21:19Z</time></trkpt><trkpt lat="38.802311189676075" lon="16.229782654417473"><ele>14.0</ele><time>2026-03-27T11:21:20Z</time></trkpt><trkpt lat="38.80202186983454" lon="16.229646986464353"><ele>15.5</ele><time>2026-03-27T11:21:21Z</time></trkpt><trkpt lat="38.8017329709264" lon="16.229509448510136"><ele>17.0</ele><time>2026-03-27T11:21:22Z</time></trkpt><trkpt lat="38.80144474028188" lon="16.22937031034525"><ele>17.0</ele><time>2026-03-27T11:21:23Z</time></trkpt><trkpt lat="38.80115931125246" lon="16.229226971071277"><ele>17.0</ele><time>2026-03-27T11:21:24Z</time></trkpt><trkpt lat="38.80087883091824" lon="16.22907566078048"><ele>14.0</ele><time>2026-03-27T11:21:25Z</time></trkpt><trkpt lat="38.80060266120432" lon="16.22891498522859"><ele>11.0</ele><time>2026-03-27T11:21:26Z</time></trkpt><trkpt lat="38.80033373279275" lon="16.228739977595062"><ele>14.5</ele><time>2026-03-27T11:21:27Z</time></trkpt><trkpt lat="38.80006736461498" lon="16.228556918541674"><ele>18.0</ele><time>2026-03-27T11:21:28Z</time></trkpt><trkpt lat="38.79980527620555" lon="16.228360570554788"><ele>18.0</ele><time>2026-03-27T11:21:29Z</time></trkpt><trkpt lat="38.799545436356716" lon="16.22815340373234"><ele>18.0</ele><time>2026-03-27T11:21:30Z</time></trkpt><trkpt lat="38.79928803781237" lon="16.227934003188356"><ele>15.5</ele><time>2026-03-27T11:21:31Z</time></trkpt><trkpt lat="38.79902801618538" lon="16.22770507460281"><ele>13.0</ele><time>2026-03-27T11:21:32Z</time></trkpt><trkpt lat="38.798773461821014" lon="16.22747460991942"><ele>13.0</ele><time>2026-03-27T11:21:33Z</time></trkpt><trkpt lat="38.79851989943661" lon="16.2272434262211"><ele>13.0</ele><time>2026-03-27T11:21:34Z</time></trkpt><trkpt lat="38.79826721744353" lon="16.22700784862806"><ele>13.0</ele><time>2026-03-27T11:21:35Z</time></trkpt><trkpt lat="38.79801355914113" lon="16.22677135859109"><ele>13.0</ele><time>2026-03-27T11:21:36Z</time></trkpt><trkpt lat="38.79775778086423" lon="16.226537734254595"><ele>13.0</ele><time>2026-03-27T11:21:37Z</time></trkpt><trkpt lat="38.79749924100302" lon="16.22630804924097"><ele>13.0</ele><time>2026-03-27T11:21:38Z</time></trkpt><trkpt lat="38.797236165574894" lon="16.226083111264916"><ele>13.0</ele><time>2026-03-27T11:21:39Z</time></trkpt><trkpt lat="38.79696812818926" lon="16.225863432469122"><ele>13.0</ele><time>2026-03-27T11:21:40Z</time></trkpt><trkpt lat="38.796695182310565" lon="16.225651664077713"><ele>12.5</ele><time>2026-03-27T11:21:41Z</time></trkpt><trkpt lat="38.79641583845086" lon="16.225447850598346"><ele>12.0</ele><time>2026-03-27T11:21:42Z</time></trkpt><trkpt lat="38.7961319958147" lon="16.225254213045357"><ele>14.5</ele><time>2026-03-27T11:21:43Z</time></trkpt><trkpt lat="38.79584235923803" lon="16.225071814141707"><ele>17.0</ele><time>2026-03-27T11:21:44Z</time></trkpt><trkpt lat="38.795546364113974" lon="16.224904544042364"><ele>15.0</ele><time>2026-03-27T11:21:45Z</time></trkpt><trkpt lat="38.795245199972335" lon="16.22475199796749"><ele>13.0</ele><time>2026-03-27T11:21:46Z</time></trkpt><trkpt lat="38.79493900272085" lon="16.224611097922462"><ele>13.0</ele><time>2026-03-27T11:21:47Z</time></trkpt><trkpt lat="38.79463032622794" lon="16.224482175502764"><ele>13.0</ele><time>2026-03-27T11:21:48Z</time></trkpt><trkpt lat="38.79431859982337" lon="16.224368251847743"><ele>13.0</ele><time>2026-03-27T11:21:49Z</time></trkpt><trkpt lat="38.79400441976865" lon="16.224267675322903"><ele>13.0</ele><time>2026-03-27T11:21:50Z</time></trkpt><trkpt lat="38.793688808683804" lon="16.22417805711235"><ele>13.5</ele><time>2026-03-27T11:21:51Z</time></trkpt><trkpt lat="38.79337588188529" lon="16.224094187097986"><ele>14.0</ele><time>2026-03-27T11:21:52Z</time></trkpt><trkpt lat="38.793064638614275" lon="16.22401493572055"><ele>12.5</ele><time>2026-03-27T11:21:53Z</time></trkpt><trkpt lat="38.79275766119154" lon="16.223935848989495"><ele>11.0</ele><time>2026-03-27T11:21:54Z</time></trkpt><trkpt lat="38.79245527288001" lon="16.223852716987242"><ele>10.5</ele><time>2026-03-27T11:21:55Z</time></trkpt><trkpt lat="38.79215601423983" lon="16.22376326164496"><ele>10.0</ele><time>2026-03-27T11:21:56Z</time></trkpt><trkpt lat="38.79185923890009" lon="16.223665869729334"><ele>10.5</ele><time>2026-03-27T11:21:57Z</time></trkpt><trkpt lat="38.791565134527495" lon="16.22356015198198"><ele>11.0</ele><time>2026-03-27T11:21:58Z</time></trkpt><trkpt lat="38.79127585910265" lon="16.223441800918263"><ele>13.0</ele><time>2026-03-27T11:21:59Z</time></trkpt><trkpt lat="38.790990307163206" lon="16.22330748654675"><ele>15.0</ele><time>2026-03-27T11:22:00Z</time></trkpt><trkpt lat="38.79070982808968" lon="16.22315901620629"><ele>13.0</ele><time>2026-03-27T11:22:01Z</time></trkpt><trkpt lat="38.7904307295779" lon="16.22299554189004"><ele>11.0</ele><time>2026-03-27T11:22:02Z</time></trkpt><trkpt lat="38.790157208056954" lon="16.22282099013398"><ele>11.0</ele><time>2026-03-27T11:22:03Z</time></trkpt><trkpt lat="38.789886102324985" lon="16.22263395921425"><ele>11.0</ele><time>2026-03-27T11:22:04Z</time></trkpt><trkpt lat="38.78962115668937" lon="16.222435598362726"><ele>11.0</ele><time>2026-03-27T11:22:05Z</time></trkpt><trkpt lat="38.78935996144504" lon="16.222226763428235"><ele>11.0</ele><time>2026-03-27T11:22:06Z</time></trkpt><trkpt lat="38.789102388590884" lon="16.22201267517095"><ele>11.0</ele><time>2026-03-27T11:22:07Z</time></trkpt><trkpt lat="38.78884476064558" lon="16.22180015676471"><ele>11.0</ele><time>2026-03-27T11:22:08Z</time></trkpt><trkpt lat="38.7885858531614" lon="16.221588583278965"><ele>9.5</ele><time>2026-03-27T11:22:09Z</time></trkpt><trkpt lat="38.788326572093844" lon="16.22137984613905"><ele>8.0</ele><time>2026-03-27T11:22:10Z</time></trkpt><trkpt lat="38.78806555403092" lon="16.221169119217677"><ele>8.0</ele><time>2026-03-27T11:22:11Z</time></trkpt><trkpt lat="38.787805176531215" lon="16.22095851304254"><ele>8.0</ele><time>2026-03-27T11:22:12Z</time></trkpt><trkpt lat="38.78754432678261" lon="16.22074701553753"><ele>8.0</ele><time>2026-03-27T11:22:13Z</time></trkpt><trkpt lat="38.787285523829766" lon="16.220536139125038"><ele>8.0</ele><time>2026-03-27T11:22:14Z</time></trkpt><trkpt lat="38.78702710514531" lon="16.220324910921324"><ele>11.5</ele><time>2026-03-27T11:22:15Z</time></trkpt><trkpt lat="38.78676986026884" lon="16.22011724490951"><ele>15.0</ele><time>2026-03-27T11:22:16Z</time></trkpt><trkpt lat="38.78651078674143" lon="16.219913501401585"><ele>13.0</ele><time>2026-03-27T11:22:17Z</time></trkpt><trkpt lat="38.78625013260388" lon="16.21971693249586"><ele>11.0</ele><time>2026-03-27T11:22:18Z</time></trkpt><trkpt lat="38.78598261081119" lon="16.21953123140329"><ele>11.0</ele><time>2026-03-27T11:22:19Z</time></trkpt><trkpt lat="38.78571091400488" lon="16.219359091946178"><ele>11.0</ele><time>2026-03-27T11:22:20Z</time></trkpt><trkpt lat="38.78543025447435" lon="16.219197808906493"><ele>13.0</ele><time>2026-03-27T11:22:21Z</time></trkpt><trkpt lat="38.78514694686749" lon="16.219048854391737"><ele>15.0</ele><time>2026-03-27T11:22:22Z</time></trkpt><trkpt lat="38.78485822086108" lon="16.218911372505467"><ele>11.0</ele><time>2026-03-27T11:22:23Z</time></trkpt><trkpt lat="38.7845666242995" lon="16.21877870260138"><ele>7.0</ele><time>2026-03-27T11:22:24Z</time></trkpt><trkpt lat="38.78427331969415" lon="16.2186514044423"><ele>7.0</ele><time>2026-03-27T11:22:25Z</time></trkpt><trkpt lat="38.78397944613158" lon="16.218528930946263"><ele>7.0</ele><time>2026-03-27T11:22:26Z</time></trkpt><trkpt lat="38.78368553845022" lon="16.218409568771847"><ele>7.5</ele><time>2026-03-27T11:22:27Z</time></trkpt><trkpt lat="38.783390040247085" lon="16.218291593110536"><ele>8.0</ele><time>2026-03-27T11:22:28Z</time></trkpt><trkpt lat="38.78309735079576" lon="16.21817499419583"><ele>8.0</ele><time>2026-03-27T11:22:29Z</time></trkpt><trkpt lat="38.782804257503834" lon="16.218058115916083"><ele>8.0</ele><time>2026-03-27T11:22:30Z</time></trkpt><trkpt lat="38.78251175902762" lon="16.21794287292739"><ele>8.0</ele><time>2026-03-27T11:22:31Z</time></trkpt><trkpt lat="38.78221921046358" lon="16.217826646193465"><ele>8.0</ele><time>2026-03-27T11:22:32Z</time></trkpt><trkpt lat="38.781927196945645" lon="16.21771229426811"><ele>7.5</ele><time>2026-03-27T11:22:33Z</time></trkpt><trkpt lat="38.781635569245026" lon="16.217601292168162"><ele>7.0</ele><time>2026-03-27T11:22:34Z</time></trkpt><trkpt lat="38.78134307859263" lon="16.21748817327461"><ele>7.0</ele><time>2026-03-27T11:22:35Z</time></trkpt><trkpt lat="38.781052205212866" lon="16.21737365888034"><ele>7.0</ele><time>2026-03-27T11:22:36Z</time></trkpt><trkpt lat="38.780761218888344" lon="16.217261868694436"><ele>6.5</ele><time>2026-03-27T11:22:37Z</time></trkpt><trkpt lat="38.78047010380437" lon="16.217149699963663"><ele>6.0</ele><time>2026-03-27T11:22:38Z</time></trkpt><trkpt lat="38.780182661632594" lon="16.217035442652147"><ele>6.0</ele><time>2026-03-27T11:22:39Z</time></trkpt><trkpt lat="38.77989630411514" lon="16.2169236848863"><ele>6.0</ele><time>2026-03-27T11:22:40Z</time></trkpt><trkpt lat="38.77960951978688" lon="16.216811793824682"><ele>6.5</ele><time>2026-03-27T11:22:41Z</time></trkpt><trkpt lat="38.779324370136145" lon="16.2167001911526"><ele>7.0</ele><time>2026-03-27T11:22:42Z</time></trkpt><trkpt lat="38.77904002063585" lon="16.21658988539302"><ele>7.0</ele><time>2026-03-27T11:22:43Z</time></trkpt><trkpt lat="38.77875622619305" lon="16.216477939963887"><ele>7.0</ele><time>2026-03-27T11:22:44Z</time></trkpt><trkpt lat="38.77847120907577" lon="16.216362894652054"><ele>7.0</ele><time>2026-03-27T11:22:45Z</time></trkpt><trkpt lat="38.77818505641577" lon="16.21624635196152"><ele>7.0</ele><time>2026-03-27T11:22:46Z</time></trkpt><trkpt lat="38.77789551546103" lon="16.216129195287554"><ele>6.5</ele><time>2026-03-27T11:22:47Z</time></trkpt><trkpt lat="38.77760435375459" lon="16.21601165233231"><ele>6.0</ele><time>2026-03-27T11:22:48Z</time></trkpt><trkpt lat="38.77731000425703" lon="16.21589161385901"><ele>6.0</ele><time>2026-03-27T11:22:49Z</time></trkpt><trkpt lat="38.777012843584" lon="16.215771866511997"><ele>6.0</ele><time>2026-03-27T11:22:50Z</time></trkpt><trkpt lat="38.776716784748665" lon="16.215651469561603"><ele>5.5</ele><time>2026-03-27T11:22:51Z</time></trkpt><trkpt lat="38.77641982087363" lon="16.215531581721716"><ele>5.0</ele><time>2026-03-27T11:22:52Z</time></trkpt><trkpt lat="38.77612386054555" lon="16.215413939435074"><ele>5.0</ele><time>2026-03-27T11:22:53Z</time></trkpt><trkpt lat="38.77582690681093" lon="16.215298294290328"><ele>5.0</ele><time>2026-03-27T11:22:54Z</time></trkpt><trkpt lat="38.77553078530414" lon="16.21518690718219"><ele>5.0</ele><time>2026-03-27T11:22:55Z</time></trkpt><trkpt lat="38.775236920043405" lon="16.215073626804987"><ele>5.0</ele><time>2026-03-27T11:22:56Z</time></trkpt><trkpt lat="38.77494514727818" lon="16.214957178516336"><ele>5.0</ele><time>2026-03-27T11:22:57Z</time></trkpt><trkpt lat="38.77465173195996" lon="16.21483987398438"><ele>5.0</ele><time>2026-03-27T11:22:58Z</time></trkpt><trkpt lat="38.774360098238695" lon="16.214723425250558"><ele>6.5</ele><time>2026-03-27T11:22:59Z</time></trkpt><trkpt lat="38.77407064620119" lon="16.214609179837915"><ele>8.0</ele><time>2026-03-27T11:23:00Z</time></trkpt><trkpt lat="38.773779623593" lon="16.2144970600642"><ele>9.0</ele><time>2026-03-27T11:23:01Z</time></trkpt><trkpt lat="38.77349240923025" lon="16.21438108860164"><ele>10.0</ele><time>2026-03-27T11:23:02Z</time></trkpt><trkpt lat="38.773214526577306" lon="16.214263250491204"><ele>10.0</ele><time>2026-03-27T11:23:03Z</time></trkpt><trkpt lat="38.772956457022296" lon="16.21413526683318"><ele>10.0</ele><time>2026-03-27T11:23:04Z</time></trkpt><trkpt lat="38.772706823382755" lon="16.21398555052943"><ele>9.0</ele><time>2026-03-27T11:23:05Z</time></trkpt><trkpt lat="38.772473010535805" lon="16.21381298753661"><ele>8.0</ele><time>2026-03-27T11:23:06Z</time></trkpt><trkpt lat="38.77225508473317" lon="16.213621885914236"><ele>8.0</ele><time>2026-03-27T11:23:07Z</time></trkpt><trkpt lat="38.77204467957516" lon="16.213417988666176"><ele>8.0</ele><time>2026-03-27T11:23:08Z</time></trkpt><trkpt lat="38.771841800636196" lon="16.21319967217416"><ele>8.0</ele><time>2026-03-27T11:23:09Z</time></trkpt><trkpt lat="38.77164991285086" lon="16.212962537804223"><ele>8.0</ele><time>2026-03-27T11:23:10Z</time></trkpt><trkpt lat="38.77147265642587" lon="16.212705510372178"><ele>8.0</ele><time>2026-03-27T11:23:11Z</time></trkpt><trkpt lat="38.771305822004216" lon="16.212431807954168"><ele>8.0</ele><time>2026-03-27T11:23:12Z</time></trkpt><trkpt lat="38.77114326620538" lon="16.212144294704498"><ele>8.0</ele><time>2026-03-27T11:23:13Z</time></trkpt><trkpt lat="38.77099072320605" lon="16.211849968303746"><ele>8.0</ele><time>2026-03-27T11:23:14Z</time></trkpt><trkpt lat="38.77083506404173" lon="16.21154864497816"><ele>8.5</ele><time>2026-03-27T11:23:15Z</time></trkpt><trkpt lat="38.77067640934985" lon="16.211248337441198"><ele>9.0</ele><time>2026-03-27T11:23:16Z</time></trkpt><trkpt lat="38.77051812368774" lon="16.21094835592074"><ele>9.0</ele><time>2026-03-27T11:23:17Z</time></trkpt><trkpt lat="38.77036114666657" lon="16.210644995760195"><ele>9.0</ele><time>2026-03-27T11:23:18Z</time></trkpt><trkpt lat="38.770202639431815" lon="16.210337477459433"><ele>10.0</ele><time>2026-03-27T11:23:19Z</time></trkpt><trkpt lat="38.77004444060291" lon="16.210031882531243"><ele>11.0</ele><time>2026-03-27T11:23:20Z</time></trkpt><trkpt lat="38.76988308417986" lon="16.209723274651697"><ele>11.0</ele><time>2026-03-27T11:23:21Z</time></trkpt><trkpt lat="38.769716826177444" lon="16.209421293813392"><ele>11.0</ele><time>2026-03-27T11:23:22Z</time></trkpt><trkpt lat="38.76954269460936" lon="16.20912781700042"><ele>14.0</ele><time>2026-03-27T11:23:23Z</time></trkpt><trkpt lat="38.76935275362342" lon="16.208845087242725"><ele>17.0</ele><time>2026-03-27T11:23:24Z</time></trkpt><trkpt lat="38.76915143343974" lon="16.20858335978626"><ele>17.0</ele><time>2026-03-27T11:23:25Z</time></trkpt><trkpt lat="38.768939264909065" lon="16.20832959469149"><ele>17.0</ele><time>2026-03-27T11:23:26Z</time></trkpt><trkpt lat="38.76873568326944" lon="16.208067204937674"><ele>20.0</ele><time>2026-03-27T11:23:27Z</time></trkpt><trkpt lat="38.76853300329012" lon="16.207806312550304"><ele>23.0</ele><time>2026-03-27T11:23:28Z</time></trkpt><trkpt lat="38.76832857523522" lon="16.207555340030908"><ele>23.0</ele><time>2026-03-27T11:23:29Z</time></trkpt><trkpt lat="38.76811622250318" lon="16.207329618913075"><ele>23.0</ele><time>2026-03-27T11:23:30Z</time></trkpt><trkpt lat="38.767889620225354" lon="16.207125300196388"><ele>26.5</ele><time>2026-03-27T11:23:31Z</time></trkpt><trkpt lat="38.76765651075509" lon="16.206930526019267"><ele>30.0</ele><time>2026-03-27T11:23:32Z</time></trkpt><trkpt lat="38.76742017693006" lon="16.206746741196532"><ele>30.0</ele><time>2026-03-27T11:23:33Z</time></trkpt><trkpt lat="38.76717786966986" lon="16.206567602006604"><ele>30.0</ele><time>2026-03-27T11:23:34Z</time></trkpt><trkpt lat="38.76693764278237" lon="16.206369893835472"><ele>28.5</ele><time>2026-03-27T11:23:35Z</time></trkpt><trkpt lat="38.76669959901283" lon="16.206168928707605"><ele>27.0</ele><time>2026-03-27T11:23:36Z</time></trkpt><trkpt lat="38.76646333058799" lon="16.20596832990949"><ele>27.0</ele><time>2026-03-27T11:23:37Z</time></trkpt><trkpt lat="38.766226524797936" lon="16.205770630073847"><ele>27.0</ele><time>2026-03-27T11:23:38Z</time></trkpt><trkpt lat="38.7659877090555" lon="16.205579003972044"><ele>26.5</ele><time>2026-03-27T11:23:39Z</time></trkpt><trkpt lat="38.765748764405394" lon="16.20540323103494"><ele>26.0</ele><time>2026-03-27T11:23:40Z</time></trkpt><trkpt lat="38.765505667502715" lon="16.2052485589563"><ele>26.0</ele><time>2026-03-27T11:23:41Z</time></trkpt><trkpt lat="38.765253745388364" lon="16.205115430870023"><ele>26.0</ele><time>2026-03-27T11:23:42Z</time></trkpt><trkpt lat="38.76499901170086" lon="16.204977980790485"><ele>22.5</ele><time>2026-03-27T11:23:43Z</time></trkpt><trkpt lat="38.76475196865829" lon="16.204825950813216"><ele>19.0</ele><time>2026-03-27T11:23:44Z</time></trkpt><trkpt lat="38.764503033365976" lon="16.204686882548195"><ele>29.5</ele><time>2026-03-27T11:23:45Z</time></trkpt><trkpt lat="38.76425244421187" lon="16.204552691173173"><ele>40.0</ele><time>2026-03-27T11:23:46Z</time></trkpt><trkpt lat="38.76400344865638" lon="16.204413678495197"><ele>40.0</ele><time>2026-03-27T11:23:47Z</time></trkpt><trkpt lat="38.76376119980159" lon="16.20427066557003"><ele>40.0</ele><time>2026-03-27T11:23:48Z</time></trkpt><trkpt lat="38.76353054435224" lon="16.204115208094105"><ele>39.0</ele><time>2026-03-27T11:23:49Z</time></trkpt><trkpt lat="38.763313510144656" lon="16.20393619387502"><ele>38.0</ele><time>2026-03-27T11:23:50Z</time></trkpt><trkpt lat="38.76311270654953" lon="16.203724669152127"><ele>38.0</ele><time>2026-03-27T11:23:51Z</time></trkpt><trkpt lat="38.76291151605133" lon="16.203503663143454"><ele>38.0</ele><time>2026-03-27T11:23:52Z</time></trkpt><trkpt lat="38.76270673244348" lon="16.20329156957859"><ele>34.5</ele><time>2026-03-27T11:23:53Z</time></trkpt><trkpt lat="38.7624922334355" lon="16.203090132720007"><ele>31.0</ele><time>2026-03-27T11:23:54Z</time></trkpt><trkpt lat="38.76226363722178" lon="16.202916433353305"><ele>31.0</ele><time>2026-03-27T11:23:55Z</time></trkpt><trkpt lat="38.76201047069492" lon="16.20278830579795"><ele>31.0</ele><time>2026-03-27T11:23:56Z</time></trkpt><trkpt lat="38.76174960481618" lon="16.20268314309698"><ele>42.5</ele><time>2026-03-27T11:23:57Z</time></trkpt><trkpt lat="38.76148431741334" lon="16.202594750433107"><ele>54.0</ele><time>2026-03-27T11:23:58Z</time></trkpt><trkpt lat="38.761207881846325" lon="16.20251441779694"><ele>62.5</ele><time>2026-03-27T11:23:59Z</time></trkpt><trkpt lat="38.760938147736404" lon="16.202432210871724"><ele>71.0</ele><time>2026-03-27T11:24:00Z</time></trkpt><trkpt lat="38.76066582460389" lon="16.20233576815254"><ele>59.5</ele><time>2026-03-27T11:24:01Z</time></trkpt><trkpt lat="38.76039423009247" lon="16.202241058401214"><ele>48.0</ele><time>2026-03-27T11:24:02Z</time></trkpt><trkpt lat="38.760117259384614" lon="16.20214193906159"><ele>48.0</ele><time>2026-03-27T11:24:03Z</time></trkpt><trkpt lat="38.75984839002098" lon="16.202044032858932"><ele>48.0</ele><time>2026-03-27T11:24:04Z</time></trkpt><trkpt lat="38.759586420280634" lon="16.20193578808461"><ele>59.5</ele><time>2026-03-27T11:24:05Z</time></trkpt><trkpt lat="38.759325325657414" lon="16.201828333488336"><ele>71.0</ele><time>2026-03-27T11:24:06Z</time></trkpt><trkpt lat="38.759075648580186" lon="16.201675070788365"><ele>71.0</ele><time>2026-03-27T11:24:07Z</time></trkpt><trkpt lat="38.75883028764584" lon="16.201535546320084"><ele>71.0</ele><time>2026-03-27T11:24:08Z</time></trkpt><trkpt lat="38.758580923532946" lon="16.20139830072142"><ele>70.0</ele><time>2026-03-27T11:24:09Z</time></trkpt><trkpt lat="38.758349846079724" lon="16.20122845369586"><ele>69.0</ele><time>2026-03-27T11:24:10Z</time></trkpt><trkpt lat="38.758115279344906" lon="16.201040823988926"><ele>69.0</ele><time>2026-03-27T11:24:11Z</time></trkpt><trkpt lat="38.75788065888961" lon="16.200861672495634"><ele>69.0</ele><time>2026-03-27T11:24:12Z</time></trkpt><trkpt lat="38.75764903824798" lon="16.200675800271355"><ele>69.0</ele><time>2026-03-27T11:24:13Z</time></trkpt><trkpt lat="38.75742859531194" lon="16.200487215891588"><ele>69.0</ele><time>2026-03-27T11:24:14Z</time></trkpt><trkpt lat="38.75721189219263" lon="16.20030141596881"><ele>69.0</ele><time>2026-03-27T11:24:15Z</time></trkpt><trkpt lat="38.75699273199215" lon="16.200118488593883"><ele>69.0</ele><time>2026-03-27T11:24:16Z</time></trkpt><trkpt lat="38.75676893756714" lon="16.199940686134052"><ele>69.0</ele><time>2026-03-27T11:24:17Z</time></trkpt><trkpt lat="38.756538607326064" lon="16.199770915780682"><ele>69.0</ele><time>2026-03-27T11:24:18Z</time></trkpt><trkpt lat="38.75630254165609" lon="16.199607603797443"><ele>69.0</ele><time>2026-03-27T11:24:19Z</time></trkpt><trkpt lat="38.756062599770466" lon="16.199446891545723"><ele>69.0</ele><time>2026-03-27T11:24:20Z</time></trkpt><trkpt lat="38.75582648106601" lon="16.199284893404634"><ele>64.5</ele><time>2026-03-27T11:24:21Z</time></trkpt><trkpt lat="38.75559949824115" lon="16.199118004483203"><ele>60.0</ele><time>2026-03-27T11:24:22Z</time></trkpt><trkpt lat="38.75538267217668" lon="16.1989342027929"><ele>73.5</ele><time>2026-03-27T11:24:23Z</time></trkpt><trkpt lat="38.75517698813915" lon="16.19872779071005"><ele>87.0</ele><time>2026-03-27T11:24:24Z</time></trkpt><trkpt lat="38.75498346377276" lon="16.198505063849414"><ele>87.0</ele><time>2026-03-27T11:24:25Z</time></trkpt><trkpt lat="38.754804968491996" lon="16.198266584092647"><ele>87.0</ele><time>2026-03-27T11:24:26Z</time></trkpt><trkpt lat="38.75463885730654" lon="16.198017884232044"><ele>81.5</ele><time>2026-03-27T11:24:27Z</time></trkpt><trkpt lat="38.75448608456961" lon="16.19775457492138"><ele>76.0</ele><time>2026-03-27T11:24:28Z</time></trkpt><trkpt lat="38.754348577665134" lon="16.1974699628032"><ele>87.5</ele><time>2026-03-27T11:24:29Z</time></trkpt><trkpt lat="38.754175857690875" lon="16.197233293493756"><ele>99.0</ele><time>2026-03-27T11:24:30Z</time></trkpt><trkpt lat="38.75412202963537" lon="16.196857933163567"><ele>99.0</ele><time>2026-03-27T11:24:31Z</time></trkpt><trkpt lat="38.75401120054972" lon="16.196553271376704"><ele>99.0</ele><time>2026-03-27T11:24:32Z</time></trkpt><trkpt lat="38.75388999758724" lon="16.196249995378256"><ele>92.5</ele><time>2026-03-27T11:24:33Z</time></trkpt><trkpt lat="38.75376467635004" lon="16.195942641547767"><ele>86.0</ele><time>2026-03-27T11:24:34Z</time></trkpt><trkpt lat="38.75363885273717" lon="16.195634771592758"><ele>95.5</ele><time>2026-03-27T11:24:35Z</time></trkpt><trkpt lat="38.75351059387747" lon="16.195327778619347"><ele>105.0</ele><time>2026-03-27T11:24:36Z</time></trkpt><trkpt lat="38.75338036696488" lon="16.195025008787113"><ele>99.5</ele><time>2026-03-27T11:24:37Z</time></trkpt><trkpt lat="38.75324659441739" lon="16.1947300228044"><ele>94.0</ele><time>2026-03-27T11:24:38Z</time></trkpt><trkpt lat="38.753094578642454" lon="16.19445491613843"><ele>94.0</ele><time>2026-03-27T11:24:39Z</time></trkpt><trkpt lat="38.7529271489628" lon="16.194196914882504"><ele>94.0</ele><time>2026-03-27T11:24:40Z</time></trkpt><trkpt lat="38.752740097741075" lon="16.193964776507272"><ele>103.0</ele><time>2026-03-27T11:24:41Z</time></trkpt><trkpt lat="38.75254826322924" lon="16.193751824373933"><ele>112.0</ele><time>2026-03-27T11:24:42Z</time></trkpt><trkpt lat="38.75235192878308" lon="16.193571636604037"><ele>112.0</ele><time>2026-03-27T11:24:43Z</time></trkpt><trkpt lat="38.75215146549739" lon="16.193410690494343"><ele>112.0</ele><time>2026-03-27T11:24:44Z</time></trkpt><trkpt lat="38.751954833678305" lon="16.193271646022183"><ele>110.66666666666667</ele><time>2026-03-27T11:24:45Z</time></trkpt><trkpt lat="38.75175964621867" lon="16.193150090675047"><ele>109.33333333333334</ele><time>2026-03-27T11:24:46Z</time></trkpt><trkpt lat="38.751558377702175" lon="16.19303311566239"><ele>108.0</ele><time>2026-03-27T11:24:47Z</time></trkpt><trkpt lat="38.7513528666387" lon="16.192919951739032"><ele>108.0</ele><time>2026-03-27T11:24:48Z</time></trkpt><trkpt lat="38.751145588057696" lon="16.192806310740526"><ele>108.0</ele><time>2026-03-27T11:24:49Z</time></trkpt><trkpt lat="38.75094398199432" lon="16.19269028374908"><ele>108.0</ele><time>2026-03-27T11:24:50Z</time></trkpt><trkpt lat="38.75074610513013" lon="16.192569203793344"><ele>110.0</ele><time>2026-03-27T11:24:51Z</time></trkpt><trkpt lat="38.75054792379059" lon="16.1924352552169"><ele>112.0</ele><time>2026-03-27T11:24:52Z</time></trkpt><trkpt lat="38.750353788322336" lon="16.192279389644153"><ele>115.0</ele><time>2026-03-27T11:24:53Z</time></trkpt><trkpt lat="38.75017311133689" lon="16.192098000940614"><ele>118.0</ele><time>2026-03-27T11:24:54Z</time></trkpt><trkpt lat="38.74999919349893" lon="16.191897931036237"><ele>118.0</ele><time>2026-03-27T11:24:55Z</time></trkpt><trkpt lat="38.74982751969827" lon="16.191686606908604"><ele>118.0</ele><time>2026-03-27T11:24:56Z</time></trkpt><trkpt lat="38.74965621265385" lon="16.191476110409226"><ele>116.0</ele><time>2026-03-27T11:24:57Z</time></trkpt><trkpt lat="38.749478533251406" lon="16.19126261735056"><ele>114.0</ele><time>2026-03-27T11:24:58Z</time></trkpt><trkpt lat="38.749301708944024" lon="16.19105133669655"><ele>117.0</ele><time>2026-03-27T11:24:59Z</time></trkpt><trkpt lat="38.74912244903652" lon="16.190842708709493"><ele>120.0</ele><time>2026-03-27T11:25:00Z</time></trkpt><trkpt lat="38.74893503093433" lon="16.190638544619606"><ele>120.0</ele><time>2026-03-27T11:25:01Z</time></trkpt><trkpt lat="38.74874332607818" lon="16.190447446552497"><ele>120.0</ele><time>2026-03-27T11:25:02Z</time></trkpt><trkpt lat="38.748552840246134" lon="16.190287866902473"><ele>122.66666666666666</ele><time>2026-03-27T11:25:03Z</time></trkpt><trkpt lat="38.748362751978156" lon="16.190152080664124"><ele>125.33333333333333</ele><time>2026-03-27T11:25:04Z</time></trkpt><trkpt lat="38.74816309970849" lon="16.190028166977168"><ele>128.0</ele><time>2026-03-27T11:25:05Z</time></trkpt><trkpt lat="38.747951621540025" lon="16.18991680433735"><ele>127.0</ele><time>2026-03-27T11:25:06Z</time></trkpt><trkpt lat="38.747729932131655" lon="16.18982138012887"><ele>126.0</ele><time>2026-03-27T11:25:07Z</time></trkpt><trkpt lat="38.74750437128828" lon="16.18974091436384"><ele>128.0</ele><time>2026-03-27T11:25:08Z</time></trkpt><trkpt lat="38.74727862723756" lon="16.189667639144385"><ele>130.0</ele><time>2026-03-27T11:25:09Z</time></trkpt><trkpt lat="38.74705779847416" lon="16.189596100904566"><ele>132.33333333333334</ele><time>2026-03-27T11:25:10Z</time></trkpt><trkpt lat="38.746847323503225" lon="16.189523901169814"><ele>134.66666666666666</ele><time>2026-03-27T11:25:11Z</time></trkpt><trkpt lat="38.74664102181936" lon="16.189452695605066"><ele>137.0</ele><time>2026-03-27T11:25:12Z</time></trkpt><trkpt lat="38.746429777813745" lon="16.189381029755232"><ele>137.0</ele><time>2026-03-27T11:25:13Z</time></trkpt><trkpt lat="38.746214069507936" lon="16.189306457508422"><ele>137.0</ele><time>2026-03-27T11:25:14Z</time></trkpt><trkpt lat="38.74599413229852" lon="16.189222428074224"><ele>141.5</ele><time>2026-03-27T11:25:15Z</time></trkpt><trkpt lat="38.74577125460892" lon="16.189128344418425"><ele>146.0</ele><time>2026-03-27T11:25:16Z</time></trkpt><trkpt lat="38.74554371510457" lon="16.189029809506195"><ele>142.5</ele><time>2026-03-27T11:25:17Z</time></trkpt><trkpt lat="38.74531172041941" lon="16.188929164971228"><ele>139.0</ele><time>2026-03-27T11:25:18Z</time></trkpt><trkpt lat="38.74507535249089" lon="16.188819780586204"><ele>139.0</ele><time>2026-03-27T11:25:19Z</time></trkpt><trkpt lat="38.74483689408425" lon="16.188702061602406"><ele>139.0</ele><time>2026-03-27T11:25:20Z</time></trkpt><trkpt lat="38.74459563040617" lon="16.18857673717524"><ele>142.5</ele><time>2026-03-27T11:25:21Z</time></trkpt><trkpt lat="38.74435403423206" lon="16.18844776392038"><ele>146.0</ele><time>2026-03-27T11:25:22Z</time></trkpt><trkpt lat="38.74411144660768" lon="16.188312684127506"><ele>141.0</ele><time>2026-03-27T11:25:23Z</time></trkpt><trkpt lat="38.74386394854045" lon="16.1881702112681"><ele>136.0</ele><time>2026-03-27T11:25:24Z</time></trkpt><trkpt lat="38.74362043594643" lon="16.188022761882625"><ele>141.5</ele><time>2026-03-27T11:25:25Z</time></trkpt><trkpt lat="38.74337246779182" lon="16.18786697169549"><ele>147.0</ele><time>2026-03-27T11:25:26Z</time></trkpt><trkpt lat="38.74312471090841" lon="16.18770161676021"><ele>147.0</ele><time>2026-03-27T11:25:27Z</time></trkpt><trkpt lat="38.74287839131388" lon="16.1875228113087"><ele>147.0</ele><time>2026-03-27T11:25:28Z</time></trkpt><trkpt lat="38.74262808006463" lon="16.187338876914698"><ele>145.5</ele><time>2026-03-27T11:25:29Z</time></trkpt><trkpt lat="38.74237489822943" lon="16.187152983705328"><ele>144.0</ele><time>2026-03-27T11:25:30Z</time></trkpt><trkpt lat="38.74212648947741" lon="16.186965214351307"><ele>144.0</ele><time>2026-03-27T11:25:31Z</time></trkpt><trkpt lat="38.74188531367802" lon="16.186784440955552"><ele>144.0</ele><time>2026-03-27T11:25:32Z</time></trkpt><trkpt lat="38.74165506945083" lon="16.18662039377176"><ele>145.0</ele><time>2026-03-27T11:25:33Z</time></trkpt><trkpt lat="38.74142439662845" lon="16.186457290041325"><ele>146.0</ele><time>2026-03-27T11:25:34Z</time></trkpt><trkpt lat="38.74119469995234" lon="16.186289758109535"><ele>154.0</ele><time>2026-03-27T11:25:35Z</time></trkpt><trkpt lat="38.74096829061959" lon="16.186124140044626"><ele>162.0</ele><time>2026-03-27T11:25:36Z</time></trkpt><trkpt lat="38.74074540688843" lon="16.185955839274392"><ele>162.0</ele><time>2026-03-27T11:25:37Z</time></trkpt><trkpt lat="38.74052911511626" lon="16.185780978602494"><ele>162.0</ele><time>2026-03-27T11:25:38Z</time></trkpt><trkpt lat="38.74032144987608" lon="16.18559323285019"><ele>165.5</ele><time>2026-03-27T11:25:39Z</time></trkpt><trkpt lat="38.74012974077657" lon="16.18539028803116"><ele>169.0</ele><time>2026-03-27T11:25:40Z</time></trkpt><trkpt lat="38.739954138321416" lon="16.185173064516142"><ele>169.0</ele><time>2026-03-27T11:25:41Z</time></trkpt><trkpt lat="38.73979376993533" lon="16.18494358543615"><ele>169.0</ele><time>2026-03-27T11:25:42Z</time></trkpt><trkpt lat="38.73964391353254" lon="16.184699648182495"><ele>173.5</ele><time>2026-03-27T11:25:43Z</time></trkpt><trkpt lat="38.739507671599796" lon="16.184442932172615"><ele>178.0</ele><time>2026-03-27T11:25:44Z</time></trkpt><trkpt lat="38.739383780708884" lon="16.184174471225866"><ele>175.5</ele><time>2026-03-27T11:25:45Z</time></trkpt><trkpt lat="38.73926669934086" lon="16.183901047394087"><ele>173.0</ele><time>2026-03-27T11:25:46Z</time></trkpt><trkpt lat="38.73915611620546" lon="16.183632694249713"><ele>173.0</ele><time>2026-03-27T11:25:47Z</time></trkpt><trkpt lat="38.73905429431091" lon="16.183366213200145"><ele>173.0</ele><time>2026-03-27T11:25:48Z</time></trkpt><trkpt lat="38.738946927169245" lon="16.183101629017884"><ele>167.0</ele><time>2026-03-27T11:25:49Z</time></trkpt><trkpt lat="38.73882779521751" lon="16.182843778765786"><ele>161.0</ele><time>2026-03-27T11:25:50Z</time></trkpt><trkpt lat="38.738699806649244" lon="16.18259567390759"><ele>161.0</ele><time>2026-03-27T11:25:51Z</time></trkpt><trkpt lat="38.738559604666875" lon="16.182364396786607"><ele>161.0</ele><time>2026-03-27T11:25:52Z</time></trkpt><trkpt lat="38.73840221812845" lon="16.182146047454516"><ele>166.5</ele><time>2026-03-27T11:25:53Z</time></trkpt><trkpt lat="38.73822742036986" lon="16.181937858741126"><ele>172.0</ele><time>2026-03-27T11:25:54Z</time></trkpt><trkpt lat="38.73803268534394" lon="16.18174411538165"><ele>172.0</ele><time>2026-03-27T11:25:55Z</time></trkpt><trkpt lat="38.73782621085319" lon="16.18156043755633"><ele>172.0</ele><time>2026-03-27T11:25:56Z</time></trkpt><trkpt lat="38.737628052794264" lon="16.181382434116962"><ele>174.0</ele><time>2026-03-27T11:25:57Z</time></trkpt><trkpt lat="38.737442696820864" lon="16.18120712788955"><ele>176.0</ele><time>2026-03-27T11:25:58Z</time></trkpt><trkpt lat="38.73726461402488" lon="16.18102415036333"><ele>176.0</ele><time>2026-03-27T11:25:59Z</time></trkpt><trkpt lat="38.73709028052923" lon="16.18082595930701"><ele>176.0</ele><time>2026-03-27T11:26:00Z</time></trkpt><trkpt lat="38.736919206662556" lon="16.180612050103377"><ele>179.5</ele><time>2026-03-27T11:26:01Z</time></trkpt><trkpt lat="38.736743927483985" lon="16.180394430465885"><ele>183.0</ele><time>2026-03-27T11:26:02Z</time></trkpt><trkpt lat="38.736568905062725" lon="16.180171256422394"><ele>183.0</ele><time>2026-03-27T11:26:03Z</time></trkpt><trkpt lat="38.73639666484798" lon="16.179939379669428"><ele>183.0</ele><time>2026-03-27T11:26:04Z</time></trkpt><trkpt lat="38.73622968717552" lon="16.17969424130377"><ele>177.5</ele><time>2026-03-27T11:26:05Z</time></trkpt><trkpt lat="38.73606353919848" lon="16.179433362768865"><ele>172.0</ele><time>2026-03-27T11:26:06Z</time></trkpt><trkpt lat="38.735901552533306" lon="16.179162019713562"><ele>179.5</ele><time>2026-03-27T11:26:07Z</time></trkpt><trkpt lat="38.73574141996358" lon="16.178876293001796"><ele>187.0</ele><time>2026-03-27T11:26:08Z</time></trkpt><trkpt lat="38.735588191336255" lon="16.178578966029953"><ele>187.0</ele><time>2026-03-27T11:26:09Z</time></trkpt><trkpt lat="38.73544582416957" lon="16.178273560101808"><ele>187.0</ele><time>2026-03-27T11:26:10Z</time></trkpt><trkpt lat="38.735310250271986" lon="16.177959673570427"><ele>193.0</ele><time>2026-03-27T11:26:11Z</time></trkpt><trkpt lat="38.73518652448842" lon="16.177639164145226"><ele>199.0</ele><time>2026-03-27T11:26:12Z</time></trkpt><trkpt lat="38.73507349449488" lon="16.177314911299376"><ele>199.0</ele><time>2026-03-27T11:26:13Z</time></trkpt><trkpt lat="38.734961370254815" lon="16.176981627823142"><ele>199.0</ele><time>2026-03-27T11:26:14Z</time></trkpt><trkpt lat="38.73485894788675" lon="16.176645684672888"><ele>191.0</ele><time>2026-03-27T11:26:15Z</time></trkpt><trkpt lat="38.73476628704194" lon="16.17630646054766"><ele>183.0</ele><time>2026-03-27T11:26:16Z</time></trkpt><trkpt lat="38.73468566284356" lon="16.17596485599927"><ele>174.5</ele><time>2026-03-27T11:26:17Z</time></trkpt><trkpt lat="38.734610822800484" lon="16.175622904104475"><ele>166.0</ele><time>2026-03-27T11:26:18Z</time></trkpt><trkpt lat="38.7345319292102" lon="16.175279959687252"><ele>166.0</ele><time>2026-03-27T11:26:19Z</time></trkpt><trkpt lat="38.73445088961854" lon="16.174940950432728"><ele>166.0</ele><time>2026-03-27T11:26:20Z</time></trkpt><trkpt lat="38.73437136038697" lon="16.174602550320834"><ele>176.5</ele><time>2026-03-27T11:26:21Z</time></trkpt><trkpt lat="38.7342909967074" lon="16.1742605920802"><ele>187.0</ele><time>2026-03-27T11:26:22Z</time></trkpt><trkpt lat="38.73420990051206" lon="16.173917601382666"><ele>187.0</ele><time>2026-03-27T11:26:23Z</time></trkpt><trkpt lat="38.734128940059634" lon="16.173573693992772"><ele>187.0</ele><time>2026-03-27T11:26:24Z</time></trkpt><trkpt lat="38.73404613191294" lon="16.173226958933185"><ele>181.5</ele><time>2026-03-27T11:26:25Z</time></trkpt><trkpt lat="38.73396326948901" lon="16.172876885317187"><ele>176.0</ele><time>2026-03-27T11:26:26Z</time></trkpt><trkpt lat="38.73387859196114" lon="16.172528814428496"><ele>170.0</ele><time>2026-03-27T11:26:27Z</time></trkpt><trkpt lat="38.733788817373885" lon="16.17218874754449"><ele>164.0</ele><time>2026-03-27T11:26:28Z</time></trkpt><trkpt lat="38.73368471232634" lon="16.17185710481632"><ele>164.0</ele><time>2026-03-27T11:26:29Z</time></trkpt><trkpt lat="38.73356999333534" lon="16.171529923963096"><ele>164.0</ele><time>2026-03-27T11:26:30Z</time></trkpt><trkpt lat="38.73345066696859" lon="16.17120797459991"><ele>164.5</ele><time>2026-03-27T11:26:31Z</time></trkpt><trkpt lat="38.73332423545225" lon="16.17088931453108"><ele>165.0</ele><time>2026-03-27T11:26:32Z</time></trkpt><trkpt lat="38.73318894655502" lon="16.170577112604654"><ele>165.0</ele><time>2026-03-27T11:26:33Z</time></trkpt><trkpt lat="38.73304549929585" lon="16.17027170568411"><ele>165.0</ele><time>2026-03-27T11:26:34Z</time></trkpt><trkpt lat="38.732889689252325" lon="16.16996879589915"><ele>160.5</ele><time>2026-03-27T11:26:35Z</time></trkpt><trkpt lat="38.73272319812275" lon="16.169670824855686"><ele>156.0</ele><time>2026-03-27T11:26:36Z</time></trkpt><trkpt lat="38.73255074615134" lon="16.16937851127001"><ele>162.0</ele><time>2026-03-27T11:26:37Z</time></trkpt><trkpt lat="38.732370271221775" lon="16.16909497290124"><ele>168.0</ele><time>2026-03-27T11:26:38Z</time></trkpt><trkpt lat="38.73217944962777" lon="16.168818429939744"><ele>168.0</ele><time>2026-03-27T11:26:39Z</time></trkpt><trkpt lat="38.731979425929495" lon="16.168548559031272"><ele>168.0</ele><time>2026-03-27T11:26:40Z</time></trkpt><trkpt lat="38.731772884151965" lon="16.168285378299814"><ele>177.5</ele><time>2026-03-27T11:26:41Z</time></trkpt><trkpt lat="38.7315565230936" lon="16.168031186545154"><ele>187.0</ele><time>2026-03-27T11:26:42Z</time></trkpt><trkpt lat="38.73132825425875" lon="16.167786678672666"><ele>187.0</ele><time>2026-03-27T11:26:43Z</time></trkpt><trkpt lat="38.73109212316328" lon="16.1675504462513"><ele>187.0</ele><time>2026-03-27T11:26:44Z</time></trkpt><trkpt lat="38.730848585284605" lon="16.16732465503686"><ele>197.5</ele><time>2026-03-27T11:26:45Z</time></trkpt><trkpt lat="38.73060233388052" lon="16.167100478436556"><ele>208.0</ele><time>2026-03-27T11:26:46Z</time></trkpt><trkpt lat="38.73035881951594" lon="16.166879710291393"><ele>212.0</ele><time>2026-03-27T11:26:47Z</time></trkpt><trkpt lat="38.73011677311709" lon="16.16665165454028"><ele>216.0</ele><time>2026-03-27T11:26:48Z</time></trkpt><trkpt lat="38.72987446595792" lon="16.166420482264616"><ele>216.0</ele><time>2026-03-27T11:26:49Z</time></trkpt><trkpt lat="38.72962994878986" lon="16.16619041682185"><ele>216.0</ele><time>2026-03-27T11:26:50Z</time></trkpt><trkpt lat="38.729382331086775" lon="16.165957905248547"><ele>219.0</ele><time>2026-03-27T11:26:51Z</time></trkpt><trkpt lat="38.72913776843288" lon="16.165722583992963"><ele>222.0</ele><time>2026-03-27T11:26:52Z</time></trkpt><trkpt lat="38.728887674104264" lon="16.16548074068097"><ele>222.0</ele><time>2026-03-27T11:26:53Z</time></trkpt><trkpt lat="38.72863627103825" lon="16.165238891990732"><ele>222.0</ele><time>2026-03-27T11:26:54Z</time></trkpt><trkpt lat="38.72838112253515" lon="16.164991676765773"><ele>225.0</ele><time>2026-03-27T11:26:55Z</time></trkpt><trkpt lat="38.72812252403237" lon="16.164750229683214"><ele>228.0</ele><time>2026-03-27T11:26:56Z</time></trkpt><trkpt lat="38.72785981764024" lon="16.164506722188783"><ele>244.0</ele><time>2026-03-27T11:26:57Z</time></trkpt><trkpt lat="38.72765952738173" lon="16.164314902420422"><ele>260.0</ele><time>2026-03-27T11:26:58Z</time></trkpt><trkpt lat="38.72740849358004" lon="16.164088283720634"><ele>245.5</ele><time>2026-03-27T11:26:59Z</time></trkpt><trkpt lat="38.727164575788905" lon="16.16386143198379"><ele>231.0</ele><time>2026-03-27T11:27:00Z</time></trkpt><trkpt lat="38.726921657359945" lon="16.163635278118715"><ele>229.5</ele><time>2026-03-27T11:27:01Z</time></trkpt><trkpt lat="38.72668352091892" lon="16.163405772801628"><ele>228.0</ele><time>2026-03-27T11:27:02Z</time></trkpt><trkpt lat="38.726438749063405" lon="16.16318543978493"><ele>228.0</ele><time>2026-03-27T11:27:03Z</time></trkpt><trkpt lat="38.72619611280723" lon="16.16295745888542"><ele>228.0</ele><time>2026-03-27T11:27:04Z</time></trkpt><trkpt lat="38.725956604790774" lon="16.162733830118256"><ele>228.0</ele><time>2026-03-27T11:27:05Z</time></trkpt><trkpt lat="38.72571976257912" lon="16.162507071353048"><ele>228.0</ele><time>2026-03-27T11:27:06Z</time></trkpt><trkpt lat="38.725482139199386" lon="16.162282907732607"><ele>228.0</ele><time>2026-03-27T11:27:07Z</time></trkpt><trkpt lat="38.72524663067112" lon="16.16206388846482"><ele>228.0</ele><time>2026-03-27T11:27:08Z</time></trkpt><trkpt lat="38.725017809015185" lon="16.16184969544199"><ele>232.0</ele><time>2026-03-27T11:27:09Z</time></trkpt><trkpt lat="38.724787621302774" lon="16.16163675256349"><ele>236.0</ele><time>2026-03-27T11:27:10Z</time></trkpt><trkpt lat="38.724557637815316" lon="16.161422353051723"><ele>254.0</ele><time>2026-03-27T11:27:11Z</time></trkpt><trkpt lat="38.72432711857335" lon="16.16121052598551"><ele>272.0</ele><time>2026-03-27T11:27:12Z</time></trkpt><trkpt lat="38.72410277081779" lon="16.161003936609248"><ele>272.0</ele><time>2026-03-27T11:27:13Z</time></trkpt><trkpt lat="38.723879190738785" lon="16.160811891698824"><ele>272.0</ele><time>2026-03-27T11:27:14Z</time></trkpt><trkpt lat="38.723659238315854" lon="16.160623243792024"><ele>273.5</ele><time>2026-03-27T11:27:15Z</time></trkpt><trkpt lat="38.723447012606144" lon="16.16043469535742"><ele>275.0</ele><time>2026-03-27T11:27:16Z</time></trkpt><trkpt lat="38.723222132709935" lon="16.160256595314213"><ele>275.0</ele><time>2026-03-27T11:27:17Z</time></trkpt><trkpt lat="38.72299510066683" lon="16.16007138921049"><ele>275.0</ele><time>2026-03-27T11:27:18Z</time></trkpt><trkpt lat="38.72276803401183" lon="16.159877100222666"><ele>276.0</ele><time>2026-03-27T11:27:19Z</time></trkpt><trkpt lat="38.72255602693081" lon="16.159679136401675"><ele>277.0</ele><time>2026-03-27T11:27:20Z</time></trkpt><trkpt lat="38.72235134282763" lon="16.159483075149698"><ele>277.0</ele><time>2026-03-27T11:27:21Z</time></trkpt><trkpt lat="38.7221473906492" lon="16.15926885538639"><ele>277.0</ele><time>2026-03-27T11:27:22Z</time></trkpt><trkpt lat="38.72194909783123" lon="16.159050811349864"><ele>281.0</ele><time>2026-03-27T11:27:23Z</time></trkpt><trkpt lat="38.72174950188223" lon="16.158825401701847"><ele>285.0</ele><time>2026-03-27T11:27:24Z</time></trkpt><trkpt lat="38.72154843219028" lon="16.158595653966913"><ele>285.0</ele><time>2026-03-27T11:27:25Z</time></trkpt><trkpt lat="38.72134871612893" lon="16.158351418703088"><ele>285.0</ele><time>2026-03-27T11:27:26Z</time></trkpt><trkpt lat="38.72114973066233" lon="16.158100381617793"><ele>291.5</ele><time>2026-03-27T11:27:27Z</time></trkpt><trkpt lat="38.72095091382048" lon="16.157845606570483"><ele>298.0</ele><time>2026-03-27T11:27:28Z</time></trkpt><trkpt lat="38.72074950709647" lon="16.157592984311364"><ele>285.0</ele><time>2026-03-27T11:27:29Z</time></trkpt><trkpt lat="38.72054667051232" lon="16.157335799030594"><ele>272.0</ele><time>2026-03-27T11:27:30Z</time></trkpt><trkpt lat="38.72034807949897" lon="16.15707635511298"><ele>293.0</ele><time>2026-03-27T11:27:31Z</time></trkpt><trkpt lat="38.72015250691799" lon="16.15680757212413"><ele>314.0</ele><time>2026-03-27T11:27:32Z</time></trkpt><trkpt lat="38.71995653156591" lon="16.15653921901535"><ele>305.0</ele><time>2026-03-27T11:27:33Z</time></trkpt><trkpt lat="38.71975630221008" lon="16.156272300286354"><ele>296.0</ele><time>2026-03-27T11:27:34Z</time></trkpt><trkpt lat="38.71955257519976" lon="16.156010143365386"><ele>294.0</ele><time>2026-03-27T11:27:35Z</time></trkpt><trkpt lat="38.71934258220246" lon="16.155758477622452"><ele>292.0</ele><time>2026-03-27T11:27:36Z</time></trkpt><trkpt lat="38.71911955326534" lon="16.155530483334328"><ele>292.0</ele><time>2026-03-27T11:27:37Z</time></trkpt><trkpt lat="38.718880178480966" lon="16.15533208916137"><ele>292.0</ele><time>2026-03-27T11:27:38Z</time></trkpt><trkpt lat="38.71862760039585" lon="16.155169322019965"><ele>301.0</ele><time>2026-03-27T11:27:39Z</time></trkpt><trkpt lat="38.71836434862904" lon="16.155035255372628"><ele>310.0</ele><time>2026-03-27T11:27:40Z</time></trkpt><trkpt lat="38.7180938605759" lon="16.154918022136297"><ele>300.0</ele><time>2026-03-27T11:27:41Z</time></trkpt><trkpt lat="38.71783272693872" lon="16.154826328113714"><ele>290.0</ele><time>2026-03-27T11:27:42Z</time></trkpt><trkpt lat="38.71756723764925" lon="16.154758622419592"><ele>290.0</ele><time>2026-03-27T11:27:43Z</time></trkpt><trkpt lat="38.717301104438164" lon="16.154707870064403"><ele>290.0</ele><time>2026-03-27T11:27:44Z</time></trkpt><trkpt lat="38.717032293058026" lon="16.154652795755794"><ele>298.0</ele><time>2026-03-27T11:27:45Z</time></trkpt><trkpt lat="38.71676501378303" lon="16.154590253742278"><ele>306.0</ele><time>2026-03-27T11:27:46Z</time></trkpt><trkpt lat="38.71649892887933" lon="16.154524429720187"><ele>306.0</ele><time>2026-03-27T11:27:47Z</time></trkpt><trkpt lat="38.716229743964846" lon="16.154459514686693"><ele>306.0</ele><time>2026-03-27T11:27:48Z</time></trkpt><trkpt lat="38.71595567010905" lon="16.15439614795285"><ele>312.5</ele><time>2026-03-27T11:27:49Z</time></trkpt><trkpt lat="38.715678767280515" lon="16.154332079891017"><ele>319.0</ele><time>2026-03-27T11:27:50Z</time></trkpt><trkpt lat="38.71540183045306" lon="16.154268703864386"><ele>323.5</ele><time>2026-03-27T11:27:51Z</time></trkpt><trkpt lat="38.715124489480175" lon="16.154206257452323"><ele>328.0</ele><time>2026-03-27T11:27:52Z</time></trkpt><trkpt lat="38.71484447657894" lon="16.154144188334314"><ele>328.0</ele><time>2026-03-27T11:27:53Z</time></trkpt><trkpt lat="38.714561681984584" lon="16.154082797180024"><ele>328.0</ele><time>2026-03-27T11:27:54Z</time></trkpt><trkpt lat="38.71427786593175" lon="16.154019870415677"><ele>326.0</ele><time>2026-03-27T11:27:55Z</time></trkpt><trkpt lat="38.7139947377984" lon="16.153963433618557"><ele>324.0</ele><time>2026-03-27T11:27:56Z</time></trkpt><trkpt lat="38.71371126572632" lon="16.153916298436837"><ele>328.0</ele><time>2026-03-27T11:27:57Z</time></trkpt><trkpt lat="38.71342659965521" lon="16.15387599593582"><ele>332.0</ele><time>2026-03-27T11:27:58Z</time></trkpt><trkpt lat="38.713136483829516" lon="16.153843810565405"><ele>332.0</ele><time>2026-03-27T11:27:59Z</time></trkpt><trkpt lat="38.71284452280144" lon="16.1538165901508"><ele>332.0</ele><time>2026-03-27T11:28:00Z</time></trkpt><trkpt lat="38.71255086684565" lon="16.15378915577632"><ele>337.0</ele><time>2026-03-27T11:28:01Z</time></trkpt><trkpt lat="38.712255772802855" lon="16.153764571842938"><ele>342.0</ele><time>2026-03-27T11:28:02Z</time></trkpt><trkpt lat="38.711958296793654" lon="16.153749525869628"><ele>351.5</ele><time>2026-03-27T11:28:03Z</time></trkpt><trkpt lat="38.71165666081875" lon="16.153742964788865"><ele>361.0</ele><time>2026-03-27T11:28:04Z</time></trkpt><trkpt lat="38.71135151014077" lon="16.153741808559275"><ele>363.5</ele><time>2026-03-27T11:28:05Z</time></trkpt><trkpt lat="38.711044679186465" lon="16.15374323692706"><ele>366.0</ele><time>2026-03-27T11:28:06Z</time></trkpt><trkpt lat="38.71073610721229" lon="16.153747645873416"><ele>366.0</ele><time>2026-03-27T11:28:07Z</time></trkpt><trkpt lat="38.710426728978476" lon="16.15374929052239"><ele>366.0</ele><time>2026-03-27T11:28:08Z</time></trkpt><trkpt lat="38.710118465244136" lon="16.153749319002188"><ele>364.0</ele><time>2026-03-27T11:28:09Z</time></trkpt><trkpt lat="38.70981140592445" lon="16.153749685059314"><ele>362.0</ele><time>2026-03-27T11:28:10Z</time></trkpt><trkpt lat="38.70950406315237" lon="16.153751204615794"><ele>362.5</ele><time>2026-03-27T11:28:11Z</time></trkpt><trkpt lat="38.70919681251652" lon="16.153754874253607"><ele>363.0</ele><time>2026-03-27T11:28:12Z</time></trkpt><trkpt lat="38.70889093125368" lon="16.15375820925517"><ele>363.0</ele><time>2026-03-27T11:28:13Z</time></trkpt><trkpt lat="38.708583688923255" lon="16.15376199282522"><ele>363.0</ele><time>2026-03-27T11:28:14Z</time></trkpt><trkpt lat="38.7082733483112" lon="16.153764489279705"><ele>364.5</ele><time>2026-03-27T11:28:15Z</time></trkpt><trkpt lat="38.707960978891045" lon="16.15376815756764"><ele>366.0</ele><time>2026-03-27T11:28:16Z</time></trkpt><trkpt lat="38.70764565969655" lon="16.15377146331159"><ele>371.0</ele><time>2026-03-27T11:28:17Z</time></trkpt><trkpt lat="38.707328005089664" lon="16.153775345495216"><ele>376.0</ele><time>2026-03-27T11:28:18Z</time></trkpt><trkpt lat="38.70700946409892" lon="16.15377329489397"><ele>376.0</ele><time>2026-03-27T11:28:19Z</time></trkpt><trkpt lat="38.70668541718429" lon="16.153775113305247"><ele>376.0</ele><time>2026-03-27T11:28:20Z</time></trkpt><trkpt lat="38.706363192939875" lon="16.153771183737344"><ele>374.0</ele><time>2026-03-27T11:28:21Z</time></trkpt><trkpt lat="38.70603800656629" lon="16.153776769039986"><ele>372.0</ele><time>2026-03-27T11:28:22Z</time></trkpt><trkpt lat="38.705713496761696" lon="16.153779683118913"><ele>372.0</ele><time>2026-03-27T11:28:23Z</time></trkpt><trkpt lat="38.705390915733815" lon="16.153784532499277"><ele>372.0</ele><time>2026-03-27T11:28:24Z</time></trkpt><trkpt lat="38.70507134840463" lon="16.153792464707553"><ele>369.5</ele><time>2026-03-27T11:28:25Z</time></trkpt><trkpt lat="38.70476292507721" lon="16.153823002581813"><ele>367.0</ele><time>2026-03-27T11:28:26Z</time></trkpt><trkpt lat="38.70447164926186" lon="16.15388873534921"><ele>368.0</ele><time>2026-03-27T11:28:27Z</time></trkpt><trkpt lat="38.70419727505797" lon="16.15397841755656"><ele>369.0</ele><time>2026-03-27T11:28:28Z</time></trkpt><trkpt lat="38.7039290196619" lon="16.154065444593403"><ele>365.5</ele><time>2026-03-27T11:28:29Z</time></trkpt><trkpt lat="38.70366864215179" lon="16.154147984691345"><ele>362.0</ele><time>2026-03-27T11:28:30Z</time></trkpt><trkpt lat="38.70341636166523" lon="16.154238097994146"><ele>360.0</ele><time>2026-03-27T11:28:31Z</time></trkpt><trkpt lat="38.703157931088" lon="16.15434785533204"><ele>358.0</ele><time>2026-03-27T11:28:32Z</time></trkpt><trkpt lat="38.70289738068552" lon="16.154478268405047"><ele>356.0</ele><time>2026-03-27T11:28:33Z</time></trkpt><trkpt lat="38.70263685241436" lon="16.15462718257847"><ele>354.0</ele><time>2026-03-27T11:28:34Z</time></trkpt><trkpt lat="38.70237790005521" lon="16.154793504577384"><ele>349.5</ele><time>2026-03-27T11:28:35Z</time></trkpt><trkpt lat="38.70212932695999" lon="16.154966389332568"><ele>345.0</ele><time>2026-03-27T11:28:36Z</time></trkpt><trkpt lat="38.70189153744271" lon="16.15512584995775"><ele>343.5</ele><time>2026-03-27T11:28:37Z</time></trkpt><trkpt lat="38.701657251855835" lon="16.155256453799247"><ele>342.0</ele><time>2026-03-27T11:28:38Z</time></trkpt><trkpt lat="38.7014212782053" lon="16.15535667746267"><ele>342.0</ele><time>2026-03-27T11:28:39Z</time></trkpt><trkpt lat="38.70117837311109" lon="16.155432676258066"><ele>342.0</ele><time>2026-03-27T11:28:40Z</time></trkpt><trkpt lat="38.70092539675835" lon="16.155494612385013"><ele>344.5</ele><time>2026-03-27T11:28:41Z</time></trkpt><trkpt lat="38.70066491180032" lon="16.155549552310593"><ele>347.0</ele><time>2026-03-27T11:28:42Z</time></trkpt><trkpt lat="38.700396922612704" lon="16.155589992780488"><ele>344.5</ele><time>2026-03-27T11:28:43Z</time></trkpt><trkpt lat="38.700123772164616" lon="16.155607790131782"><ele>342.0</ele><time>2026-03-27T11:28:44Z</time></trkpt><trkpt lat="38.69984684384675" lon="16.155601067781074"><ele>342.0</ele><time>2026-03-27T11:28:45Z</time></trkpt><trkpt lat="38.69957306556326" lon="16.155571900462245"><ele>342.0</ele><time>2026-03-27T11:28:46Z</time></trkpt><trkpt lat="38.69930338418293" lon="16.15551807159656"><ele>339.5</ele><time>2026-03-27T11:28:47Z</time></trkpt><trkpt lat="38.699036365380415" lon="16.155454590262853"><ele>337.0</ele><time>2026-03-27T11:28:48Z</time></trkpt><trkpt lat="38.698781600063185" lon="16.155397997281536"><ele>334.5</ele><time>2026-03-27T11:28:49Z</time></trkpt><trkpt lat="38.69853616548005" lon="16.15535708658314"><ele>332.0</ele><time>2026-03-27T11:28:50Z</time></trkpt><trkpt lat="38.69828825352655" lon="16.155335105936633"><ele>332.0</ele><time>2026-03-27T11:28:51Z</time></trkpt><trkpt lat="38.69803039567878" lon="16.155340751785662"><ele>332.0</ele><time>2026-03-27T11:28:52Z</time></trkpt><trkpt lat="38.69776626693882" lon="16.155363819434786"><ele>329.5</ele><time>2026-03-27T11:28:53Z</time></trkpt><trkpt lat="38.69750055929233" lon="16.155402835625335"><ele>327.0</ele><time>2026-03-27T11:28:54Z</time></trkpt><trkpt lat="38.697237939468664" lon="16.15545653304715"><ele>327.0</ele><time>2026-03-27T11:28:55Z</time></trkpt><trkpt lat="38.69698614496872" lon="16.155519739458548"><ele>327.0</ele><time>2026-03-27T11:28:56Z</time></trkpt><trkpt lat="38.69673768174054" lon="16.155590618496312"><ele>327.5</ele><time>2026-03-27T11:28:57Z</time></trkpt><trkpt lat="38.69647980374207" lon="16.1556626368072"><ele>328.0</ele><time>2026-03-27T11:28:58Z</time></trkpt><trkpt lat="38.6962098317845" lon="16.15573630281862"><ele>326.5</ele><time>2026-03-27T11:28:59Z</time></trkpt><trkpt lat="38.6959329553487" lon="16.1558116473117"><ele>325.0</ele><time>2026-03-27T11:29:00Z</time></trkpt><trkpt lat="38.69564856683664" lon="16.155890925696966"><ele>325.0</ele><time>2026-03-27T11:29:01Z</time></trkpt><trkpt lat="38.69536109544139" lon="16.155970328810174"><ele>325.0</ele><time>2026-03-27T11:29:02Z</time></trkpt><trkpt lat="38.695073656620714" lon="16.1560497952869"><ele>324.0</ele><time>2026-03-27T11:29:03Z</time></trkpt><trkpt lat="38.69478450833052" lon="16.156128443979732"><ele>323.0</ele><time>2026-03-27T11:29:04Z</time></trkpt><trkpt lat="38.694498255848416" lon="16.15620842693004"><ele>322.5</ele><time>2026-03-27T11:29:05Z</time></trkpt><trkpt lat="38.69421087890585" lon="16.156290210557437"><ele>322.0</ele><time>2026-03-27T11:29:06Z</time></trkpt><trkpt lat="38.69392196600565" lon="16.15636944095669"><ele>322.0</ele><time>2026-03-27T11:29:07Z</time></trkpt><trkpt lat="38.69362916444264" lon="16.156451020779908"><ele>322.0</ele><time>2026-03-27T11:29:08Z</time></trkpt><trkpt lat="38.693333480596685" lon="16.156533599430077"><ele>318.0</ele><time>2026-03-27T11:29:09Z</time></trkpt><trkpt lat="38.693039945840226" lon="16.156613417461248"><ele>314.0</ele><time>2026-03-27T11:29:10Z</time></trkpt><trkpt lat="38.69274581576985" lon="16.156693702055954"><ele>311.5</ele><time>2026-03-27T11:29:11Z</time></trkpt><trkpt lat="38.692448586691484" lon="16.156773804454925"><ele>309.0</ele><time>2026-03-27T11:29:12Z</time></trkpt><trkpt lat="38.69215208489625" lon="16.156855440943136"><ele>308.0</ele><time>2026-03-27T11:29:13Z</time></trkpt><trkpt lat="38.6918638671238" lon="16.15693837705888"><ele>307.0</ele><time>2026-03-27T11:29:14Z</time></trkpt><trkpt lat="38.69157784733846" lon="16.157029863107585"><ele>307.0</ele><time>2026-03-27T11:29:15Z</time></trkpt><trkpt lat="38.691294520578715" lon="16.157136316523168"><ele>307.0</ele><time>2026-03-27T11:29:16Z</time></trkpt><trkpt lat="38.691012799512066" lon="16.15725748956134"><ele>306.0</ele><time>2026-03-27T11:29:17Z</time></trkpt><trkpt lat="38.690734977918716" lon="16.157390919958242"><ele>305.0</ele><time>2026-03-27T11:29:18Z</time></trkpt><trkpt lat="38.69045764788825" lon="16.157534514371317"><ele>307.5</ele><time>2026-03-27T11:29:19Z</time></trkpt><trkpt lat="38.69018438975151" lon="16.157685253524924"><ele>310.0</ele><time>2026-03-27T11:29:20Z</time></trkpt><trkpt lat="38.689913444023574" lon="16.157847319714254"><ele>310.0</ele><time>2026-03-27T11:29:21Z</time></trkpt><trkpt lat="38.68964394890396" lon="16.158022913793488"><ele>310.0</ele><time>2026-03-27T11:29:22Z</time></trkpt><trkpt lat="38.68937998396914" lon="16.158213275435568"><ele>303.5</ele><time>2026-03-27T11:29:23Z</time></trkpt><trkpt lat="38.68912189319542" lon="16.158415510571043"><ele>297.0</ele><time>2026-03-27T11:29:24Z</time></trkpt><trkpt lat="38.688870193401435" lon="16.158633675558033"><ele>297.0</ele><time>2026-03-27T11:29:25Z</time></trkpt><trkpt lat="38.68862166129766" lon="16.158860387026607"><ele>297.0</ele><time>2026-03-27T11:29:26Z</time></trkpt><trkpt lat="38.68837930948909" lon="16.159095734509922"><ele>295.5</ele><time>2026-03-27T11:29:27Z</time></trkpt><trkpt lat="38.688137321408824" lon="16.159330185807683"><ele>294.0</ele><time>2026-03-27T11:29:28Z</time></trkpt><trkpt lat="38.687902587833946" lon="16.15955787450111"><ele>293.0</ele><time>2026-03-27T11:29:29Z</time></trkpt><trkpt lat="38.68766494044204" lon="16.159776709922024"><ele>292.0</ele><time>2026-03-27T11:29:30Z</time></trkpt><trkpt lat="38.6874280779395" lon="16.160006775367002"><ele>292.0</ele><time>2026-03-27T11:29:31Z</time></trkpt><trkpt lat="38.68719099340759" lon="16.160242760688124"><ele>292.0</ele><time>2026-03-27T11:29:32Z</time></trkpt><trkpt lat="38.6869534485525" lon="16.160486616143277"><ele>284.5</ele><time>2026-03-27T11:29:33Z</time></trkpt><trkpt lat="38.68671508024744" lon="16.160724555403597"><ele>277.0</ele><time>2026-03-27T11:29:34Z</time></trkpt><trkpt lat="38.68647672601401" lon="16.160961698877564"><ele>277.0</ele><time>2026-03-27T11:29:35Z</time></trkpt><trkpt lat="38.686238207253176" lon="16.16119634587376"><ele>277.0</ele><time>2026-03-27T11:29:36Z</time></trkpt><trkpt lat="38.68600099383598" lon="16.16143229752961"><ele>273.5</ele><time>2026-03-27T11:29:37Z</time></trkpt><trkpt lat="38.68576065083361" lon="16.161672506490028"><ele>270.0</ele><time>2026-03-27T11:29:38Z</time></trkpt><trkpt lat="38.685522458435734" lon="16.16191232268334"><ele>270.0</ele><time>2026-03-27T11:29:39Z</time></trkpt><trkpt lat="38.68529971667051" lon="16.16214098221508"><ele>270.0</ele><time>2026-03-27T11:29:40Z</time></trkpt><trkpt lat="38.68508167533675" lon="16.16236960026514"><ele>274.5</ele><time>2026-03-27T11:29:41Z</time></trkpt><trkpt lat="38.68486026870527" lon="16.16260287564137"><ele>279.0</ele><time>2026-03-27T11:29:42Z</time></trkpt><trkpt lat="38.68463696184178" lon="16.16283707469693"><ele>276.5</ele><time>2026-03-27T11:29:43Z</time></trkpt><trkpt lat="38.68441720856985" lon="16.163076329749764"><ele>274.0</ele><time>2026-03-27T11:29:44Z</time></trkpt><trkpt lat="38.68421809712616" lon="16.163315690639614"><ele>274.0</ele><time>2026-03-27T11:29:45Z</time></trkpt><trkpt lat="38.68403493536523" lon="16.163560499485765"><ele>274.0</ele><time>2026-03-27T11:29:46Z</time></trkpt><trkpt lat="38.68385950515667" lon="16.163817218551603"><ele>265.5</ele><time>2026-03-27T11:29:47Z</time></trkpt><trkpt lat="38.68369149742068" lon="16.164089345744102"><ele>257.0</ele><time>2026-03-27T11:29:48Z</time></trkpt><trkpt lat="38.68353172053283" lon="16.16437205439612"><ele>257.0</ele><time>2026-03-27T11:29:49Z</time></trkpt><trkpt lat="38.68337785599759" lon="16.164666043585132"><ele>257.0</ele><time>2026-03-27T11:29:50Z</time></trkpt><trkpt lat="38.68323061387278" lon="16.164974651894077"><ele>256.0</ele><time>2026-03-27T11:29:51Z</time></trkpt><trkpt lat="38.68308873541323" lon="16.16529850688237"><ele>255.0</ele><time>2026-03-27T11:29:52Z</time></trkpt><trkpt lat="38.682952145418874" lon="16.165631399059038"><ele>252.5</ele><time>2026-03-27T11:29:53Z</time></trkpt><trkpt lat="38.68281734829442" lon="16.16597220038505"><ele>250.0</ele><time>2026-03-27T11:29:54Z</time></trkpt><trkpt lat="38.68267986916309" lon="16.166314476953083"><ele>254.0</ele><time>2026-03-27T11:29:55Z</time></trkpt><trkpt lat="38.68253968146381" lon="16.16665830079938"><ele>258.0</ele><time>2026-03-27T11:29:56Z</time></trkpt><trkpt lat="38.68239953577033" lon="16.167005307273037"><ele>258.0</ele><time>2026-03-27T11:29:57Z</time></trkpt><trkpt lat="38.6822614070834" lon="16.167354273266962"><ele>258.0</ele><time>2026-03-27T11:29:58Z</time></trkpt><trkpt lat="38.68212372980328" lon="16.1677001901039"><ele>257.0</ele><time>2026-03-27T11:29:59Z</time></trkpt><trkpt lat="38.681986006145955" lon="16.168046000060695"><ele>256.0</ele><time>2026-03-27T11:30:00Z</time></trkpt><trkpt lat="38.68184676378015" lon="16.168392535509128"><ele>256.0</ele><time>2026-03-27T11:30:01Z</time></trkpt><trkpt lat="38.68170007128572" lon="16.168739123961956"><ele>256.0</ele><time>2026-03-27T11:30:02Z</time></trkpt><trkpt lat="38.681551504892745" lon="16.16908354884381"><ele>251.0</ele><time>2026-03-27T11:30:03Z</time></trkpt><trkpt lat="38.681400185548256" lon="16.169422667397168"><ele>246.0</ele><time>2026-03-27T11:30:04Z</time></trkpt><trkpt lat="38.68124589216841" lon="16.169755193183846"><ele>239.5</ele><time>2026-03-27T11:30:05Z</time></trkpt><trkpt lat="38.681088364398335" lon="16.170085661719064"><ele>233.0</ele><time>2026-03-27T11:30:06Z</time></trkpt><trkpt lat="38.68092494120647" lon="16.17041071738529"><ele>230.5</ele><time>2026-03-27T11:30:07Z</time></trkpt><trkpt lat="38.680754520106696" lon="16.1707318838865"><ele>228.0</ele><time>2026-03-27T11:30:08Z</time></trkpt><trkpt lat="38.68058025111897" lon="16.171053398652276"><ele>228.0</ele><time>2026-03-27T11:30:09Z</time></trkpt><trkpt lat="38.68040162230669" lon="16.17137256380468"><ele>228.0</ele><time>2026-03-27T11:30:10Z</time></trkpt><trkpt lat="38.68021811931269" lon="16.171687187075833"><ele>225.0</ele><time>2026-03-27T11:30:11Z</time></trkpt><trkpt lat="38.68002902328257" lon="16.171998434936267"><ele>222.0</ele><time>2026-03-27T11:30:12Z</time></trkpt><trkpt lat="38.67983518439887" lon="16.172306597895233"><ele>225.0</ele><time>2026-03-27T11:30:13Z</time></trkpt><trkpt lat="38.67963838820624" lon="16.172610033347617"><ele>228.0</ele><time>2026-03-27T11:30:14Z</time></trkpt><trkpt lat="38.67943910132688" lon="16.172905529493676"><ele>214.0</ele><time>2026-03-27T11:30:15Z</time></trkpt><trkpt lat="38.67923571646438" lon="16.173197536859266"><ele>200.0</ele><time>2026-03-27T11:30:16Z</time></trkpt><trkpt lat="38.679029179968694" lon="16.17348278360047"><ele>200.0</ele><time>2026-03-27T11:30:17Z</time></trkpt><trkpt lat="38.678819713306765" lon="16.173761871019156"><ele>200.0</ele><time>2026-03-27T11:30:18Z</time></trkpt><trkpt lat="38.678608437309514" lon="16.17403593119769"><ele>199.0</ele><time>2026-03-27T11:30:19Z</time></trkpt><trkpt lat="38.67839345898959" lon="16.174303796489376"><ele>198.0</ele><time>2026-03-27T11:30:20Z</time></trkpt><trkpt lat="38.67817525654498" lon="16.17456375306229"><ele>198.0</ele><time>2026-03-27T11:30:21Z</time></trkpt><trkpt lat="38.677954951018535" lon="16.17482190384885"><ele>198.0</ele><time>2026-03-27T11:30:22Z</time></trkpt><trkpt lat="38.67773655934146" lon="16.175079768601705"><ele>207.0</ele><time>2026-03-27T11:30:23Z</time></trkpt><trkpt lat="38.67751715382976" lon="16.175337850350886"><ele>216.0</ele><time>2026-03-27T11:30:24Z</time></trkpt><trkpt lat="38.677297729857884" lon="16.175591794890874"><ele>214.5</ele><time>2026-03-27T11:30:25Z</time></trkpt><trkpt lat="38.67707744605053" lon="16.1758452881588"><ele>213.0</ele><time>2026-03-27T11:30:26Z</time></trkpt><trkpt lat="38.67685393855576" lon="16.176093989715532"><ele>215.0</ele><time>2026-03-27T11:30:27Z</time></trkpt><trkpt lat="38.676625936680125" lon="16.176336658965674"><ele>217.0</ele><time>2026-03-27T11:30:28Z</time></trkpt><trkpt lat="38.67639529705748" lon="16.17658161962494"><ele>217.0</ele><time>2026-03-27T11:30:29Z</time></trkpt><trkpt lat="38.67616184914098" lon="16.17682553964552"><ele>217.0</ele><time>2026-03-27T11:30:30Z</time></trkpt><trkpt lat="38.675921784919574" lon="16.17706505539745"><ele>220.0</ele><time>2026-03-27T11:30:31Z</time></trkpt><trkpt lat="38.675676722003374" lon="16.177302598929693"><ele>223.0</ele><time>2026-03-27T11:30:32Z</time></trkpt><trkpt lat="38.675424590959345" lon="16.17753291616414"><ele>220.0</ele><time>2026-03-27T11:30:33Z</time></trkpt><trkpt lat="38.67517258133551" lon="16.177764284404457"><ele>217.0</ele><time>2026-03-27T11:30:34Z</time></trkpt><trkpt lat="38.67491962932358" lon="16.17799693868593"><ele>217.5</ele><time>2026-03-27T11:30:35Z</time></trkpt><trkpt lat="38.6746671506598" lon="16.178230639065333"><ele>218.0</ele><time>2026-03-27T11:30:36Z</time></trkpt><trkpt lat="38.674414183033214" lon="16.178461576140798"><ele>218.0</ele><time>2026-03-27T11:30:37Z</time></trkpt><trkpt lat="38.67415901745641" lon="16.17868911811401"><ele>218.0</ele><time>2026-03-27T11:30:38Z</time></trkpt><trkpt lat="38.67390382769817" lon="16.178910897087302"><ele>211.0</ele><time>2026-03-27T11:30:39Z</time></trkpt><trkpt lat="38.67364853544578" lon="16.17913402898866"><ele>204.0</ele><time>2026-03-27T11:30:40Z</time></trkpt><trkpt lat="38.67339522514139" lon="16.17935763745808"><ele>204.0</ele><time>2026-03-27T11:30:41Z</time></trkpt><trkpt lat="38.67314519475663" lon="16.179583608969004"><ele>204.0</ele><time>2026-03-27T11:30:42Z</time></trkpt><trkpt lat="38.6728978905712" lon="16.179810178301818"><ele>197.5</ele><time>2026-03-27T11:30:43Z</time></trkpt><trkpt lat="38.67265123714288" lon="16.180034455549954"><ele>191.0</ele><time>2026-03-27T11:30:44Z</time></trkpt><trkpt lat="38.67240606724204" lon="16.18025861033718"><ele>191.0</ele><time>2026-03-27T11:30:45Z</time></trkpt><trkpt lat="38.67216148100187" lon="16.180480984245612"><ele>191.0</ele><time>2026-03-27T11:30:46Z</time></trkpt><trkpt lat="38.6719236492154" lon="16.18069951425738"><ele>195.5</ele><time>2026-03-27T11:30:47Z</time></trkpt><trkpt lat="38.67169702826122" lon="16.180909003370555"><ele>200.0</ele><time>2026-03-27T11:30:48Z</time></trkpt><trkpt lat="38.671469110080416" lon="16.18111599605807"><ele>200.0</ele><time>2026-03-27T11:30:49Z</time></trkpt><trkpt lat="38.67124008782889" lon="16.18132586257159"><ele>200.0</ele><time>2026-03-27T11:30:50Z</time></trkpt><trkpt lat="38.671009433369136" lon="16.181538958058773"><ele>198.5</ele><time>2026-03-27T11:30:51Z</time></trkpt><trkpt lat="38.67077998710063" lon="16.181752611730413"><ele>197.0</ele><time>2026-03-27T11:30:52Z</time></trkpt><trkpt lat="38.67054992372457" lon="16.181969521110805"><ele>197.0</ele><time>2026-03-27T11:30:53Z</time></trkpt><trkpt lat="38.67031999886835" lon="16.182183383302895"><ele>197.0</ele><time>2026-03-27T11:30:54Z</time></trkpt><trkpt lat="38.67008970344629" lon="16.1823979005503"><ele>196.5</ele><time>2026-03-27T11:30:55Z</time></trkpt><trkpt lat="38.669856995460094" lon="16.182613287734778"><ele>196.0</ele><time>2026-03-27T11:30:56Z</time></trkpt><trkpt lat="38.66962119490595" lon="16.182830573610808"><ele>198.0</ele><time>2026-03-27T11:30:57Z</time></trkpt><trkpt lat="38.66938185066883" lon="16.1830490564802"><ele>200.0</ele><time>2026-03-27T11:30:58Z</time></trkpt><trkpt lat="38.669140605348076" lon="16.18326605809522"><ele>192.0</ele><time>2026-03-27T11:30:59Z</time></trkpt><trkpt lat="38.668894892351126" lon="16.183482801530566"><ele>184.0</ele><time>2026-03-27T11:31:00Z</time></trkpt><trkpt lat="38.668649339016916" lon="16.183690516977265"><ele>181.0</ele><time>2026-03-27T11:31:01Z</time></trkpt><trkpt lat="38.66840434584814" lon="16.183890367770065"><ele>178.0</ele><time>2026-03-27T11:31:02Z</time></trkpt><trkpt lat="38.66815945697569" lon="16.184080136295183"><ele>178.0</ele><time>2026-03-27T11:31:03Z</time></trkpt><trkpt lat="38.667912054347156" lon="16.18426193260647"><ele>178.0</ele><time>2026-03-27T11:31:04Z</time></trkpt><trkpt lat="38.6676602852589" lon="16.184436595501474"><ele>180.5</ele><time>2026-03-27T11:31:05Z</time></trkpt><trkpt lat="38.66740524944708" lon="16.184604682821885"><ele>183.0</ele><time>2026-03-27T11:31:06Z</time></trkpt><trkpt lat="38.66714449261713" lon="16.18476638446043"><ele>176.0</ele><time>2026-03-27T11:31:07Z</time></trkpt><trkpt lat="38.666879181636446" lon="16.184925205061553"><ele>169.0</ele><time>2026-03-27T11:31:08Z</time></trkpt><trkpt lat="38.66660949562716" lon="16.185078711690096"><ele>169.0</ele><time>2026-03-27T11:31:09Z</time></trkpt><trkpt lat="38.66633591994704" lon="16.185224677698095"><ele>169.0</ele><time>2026-03-27T11:31:10Z</time></trkpt><trkpt lat="38.666058743087916" lon="16.18536462751556"><ele>167.0</ele><time>2026-03-27T11:31:11Z</time></trkpt><trkpt lat="38.665780657965065" lon="16.185500908610578"><ele>165.0</ele><time>2026-03-27T11:31:12Z</time></trkpt><trkpt lat="38.66550139150794" lon="16.185633689663035"><ele>167.0</ele><time>2026-03-27T11:31:13Z</time></trkpt><trkpt lat="38.66522152746734" lon="16.185764941402184"><ele>169.0</ele><time>2026-03-27T11:31:14Z</time></trkpt><trkpt lat="38.664939604014386" lon="16.185896084423476"><ele>169.0</ele><time>2026-03-27T11:31:15Z</time></trkpt><trkpt lat="38.664656683771746" lon="16.18602884939787"><ele>169.0</ele><time>2026-03-27T11:31:16Z</time></trkpt><trkpt lat="38.66437343056724" lon="16.186162698331856"><ele>176.0</ele><time>2026-03-27T11:31:17Z</time></trkpt><trkpt lat="38.66409498362548" lon="16.18629400430783"><ele>183.0</ele><time>2026-03-27T11:31:18Z</time></trkpt><trkpt lat="38.663817496048495" lon="16.186423780019055"><ele>180.5</ele><time>2026-03-27T11:31:19Z</time></trkpt><trkpt lat="38.66354076522272" lon="16.186559667079703"><ele>178.0</ele><time>2026-03-27T11:31:20Z</time></trkpt><trkpt lat="38.663262433609056" lon="16.186694417554236"><ele>178.0</ele><time>2026-03-27T11:31:21Z</time></trkpt><trkpt lat="38.662985140826464" lon="16.186829171513516"><ele>178.0</ele><time>2026-03-27T11:31:22Z</time></trkpt><trkpt lat="38.662706965182856" lon="16.18696466632918"><ele>177.5</ele><time>2026-03-27T11:31:23Z</time></trkpt><trkpt lat="38.662427750646316" lon="16.187100428013643"><ele>177.0</ele><time>2026-03-27T11:31:24Z</time></trkpt><trkpt lat="38.662149299099326" lon="16.187235993361725"><ele>176.0</ele><time>2026-03-27T11:31:25Z</time></trkpt><trkpt lat="38.661871039464714" lon="16.18737221159421"><ele>175.0</ele><time>2026-03-27T11:31:26Z</time></trkpt><trkpt lat="38.66157819856415" lon="16.187474200165617"><ele>175.0</ele><time>2026-03-27T11:31:27Z</time></trkpt><trkpt lat="38.661291111967174" lon="16.18760447756559"><ele>175.0</ele><time>2026-03-27T11:31:28Z</time></trkpt><trkpt lat="38.66100580824675" lon="16.18773091731711"><ele>175.0</ele><time>2026-03-27T11:31:29Z</time></trkpt><trkpt lat="38.66071975353542" lon="16.18785469899554"><ele>175.0</ele><time>2026-03-27T11:31:30Z</time></trkpt><trkpt lat="38.66043362653283" lon="16.187976187938617"><ele>175.5</ele><time>2026-03-27T11:31:31Z</time></trkpt><trkpt lat="38.66014566811002" lon="16.18809391220287"><ele>176.0</ele><time>2026-03-27T11:31:32Z</time></trkpt><trkpt lat="38.65985498080192" lon="16.18820692263182"><ele>170.0</ele><time>2026-03-27T11:31:33Z</time></trkpt><trkpt lat="38.65956311978368" lon="16.18831564179859"><ele>164.0</ele><time>2026-03-27T11:31:34Z</time></trkpt><trkpt lat="38.65927525532366" lon="16.18841888865682"><ele>164.0</ele><time>2026-03-27T11:31:35Z</time></trkpt><trkpt lat="38.658985174851935" lon="16.188514616971435"><ele>164.0</ele><time>2026-03-27T11:31:36Z</time></trkpt><trkpt lat="38.6586909569894" lon="16.188604058446597"><ele>163.5</ele><time>2026-03-27T11:31:37Z</time></trkpt><trkpt lat="38.65839731837906" lon="16.18868233556097"><ele>163.0</ele><time>2026-03-27T11:31:38Z</time></trkpt><trkpt lat="38.65810133782197" lon="16.188755614875"><ele>163.0</ele><time>2026-03-27T11:31:39Z</time></trkpt><trkpt lat="38.657804382626566" lon="16.188819782824492"><ele>163.0</ele><time>2026-03-27T11:31:40Z</time></trkpt><trkpt lat="38.657509360594965" lon="16.188873986632476"><ele>169.0</ele><time>2026-03-27T11:31:41Z</time></trkpt><trkpt lat="38.65721753866287" lon="16.1889149835137"><ele>175.0</ele><time>2026-03-27T11:31:42Z</time></trkpt><trkpt lat="38.6569272858362" lon="16.188943891106437"><ele>179.5</ele><time>2026-03-27T11:31:43Z</time></trkpt><trkpt lat="38.65663749963161" lon="16.188964065559603"><ele>184.0</ele><time>2026-03-27T11:31:44Z</time></trkpt><trkpt lat="38.65634413431381" lon="16.188977197224084"><ele>194.0</ele><time>2026-03-27T11:31:45Z</time></trkpt><trkpt lat="38.656050635426794" lon="16.18898157192882"><ele>204.0</ele><time>2026-03-27T11:31:46Z</time></trkpt><trkpt lat="38.655753167679656" lon="16.18898363419494"><ele>204.0</ele><time>2026-03-27T11:31:47Z</time></trkpt><trkpt lat="38.655452806723325" lon="16.188969707828413"><ele>204.0</ele><time>2026-03-27T11:31:48Z</time></trkpt><trkpt lat="38.655150951300655" lon="16.18894781638706"><ele>220.5</ele><time>2026-03-27T11:31:49Z</time></trkpt><trkpt lat="38.65484856289541" lon="16.188911393955685"><ele>237.0</ele><time>2026-03-27T11:31:50Z</time></trkpt><trkpt lat="38.65454474747514" lon="16.188851483139533"><ele>244.5</ele><time>2026-03-27T11:31:51Z</time></trkpt><trkpt lat="38.65424153153408" lon="16.188797947207867"><ele>252.0</ele><time>2026-03-27T11:31:52Z</time></trkpt><trkpt lat="38.6539383306962" lon="16.18871530871812"><ele>252.0</ele><time>2026-03-27T11:31:53Z</time></trkpt><trkpt lat="38.653641270381776" lon="16.188666721326484"><ele>252.0</ele><time>2026-03-27T11:31:54Z</time></trkpt><trkpt lat="38.653347158032815" lon="16.188565212865036"><ele>242.5</ele><time>2026-03-27T11:31:55Z</time></trkpt><trkpt lat="38.65305109379222" lon="16.188529412399554"><ele>233.0</ele><time>2026-03-27T11:31:56Z</time></trkpt><trkpt lat="38.65276266300966" lon="16.188428700083744"><ele>216.0</ele><time>2026-03-27T11:31:57Z</time></trkpt><trkpt lat="38.65247701659898" lon="16.188316655943275"><ele>199.0</ele><time>2026-03-27T11:31:58Z</time></trkpt><trkpt lat="38.65219214427371" lon="16.188195784936692"><ele>180.0</ele><time>2026-03-27T11:31:59Z</time></trkpt><trkpt lat="38.65190166726887" lon="16.188073895908694"><ele>161.0</ele><time>2026-03-27T11:32:00Z</time></trkpt><trkpt lat="38.65161534540297" lon="16.187939006708007"><ele>161.0</ele><time>2026-03-27T11:32:01Z</time></trkpt><trkpt lat="38.65132998417845" lon="16.18779770358874"><ele>161.0</ele><time>2026-03-27T11:32:02Z</time></trkpt><trkpt lat="38.651040060040266" lon="16.187655253497066"><ele>154.5</ele><time>2026-03-27T11:32:03Z</time></trkpt><trkpt lat="38.65075054186191" lon="16.187513416853257"><ele>148.0</ele><time>2026-03-27T11:32:04Z</time></trkpt><trkpt lat="38.650524238844646" lon="16.187358029397046"><ele>147.5</ele><time>2026-03-27T11:32:05Z</time></trkpt><trkpt lat="38.65027217413239" lon="16.18719796139217"><ele>147.0</ele><time>2026-03-27T11:32:06Z</time></trkpt><trkpt lat="38.649990716890805" lon="16.187047553768434"><ele>147.0</ele><time>2026-03-27T11:32:07Z</time></trkpt><trkpt lat="38.64971564326433" lon="16.186897343576494"><ele>147.0</ele><time>2026-03-27T11:32:08Z</time></trkpt><trkpt lat="38.64944616145664" lon="16.186732246704796"><ele>147.0</ele><time>2026-03-27T11:32:09Z</time></trkpt><trkpt lat="38.649181502430096" lon="16.186563658587055"><ele>147.0</ele><time>2026-03-27T11:32:10Z</time></trkpt><trkpt lat="38.64891616377742" lon="16.186386736980634"><ele>147.0</ele><time>2026-03-27T11:32:11Z</time></trkpt><trkpt lat="38.64865059738243" lon="16.186204658410055"><ele>147.0</ele><time>2026-03-27T11:32:12Z</time></trkpt><trkpt lat="38.648388015714694" lon="16.186023002827238"><ele>145.5</ele><time>2026-03-27T11:32:13Z</time></trkpt><trkpt lat="38.64812841080473" lon="16.18583642367222"><ele>144.0</ele><time>2026-03-27T11:32:14Z</time></trkpt><trkpt lat="38.647881357512226" lon="16.18564276375234"><ele>144.0</ele><time>2026-03-27T11:32:15Z</time></trkpt><trkpt lat="38.647621253448385" lon="16.18545869185098"><ele>144.0</ele><time>2026-03-27T11:32:16Z</time></trkpt><trkpt lat="38.64735579227029" lon="16.18527359506981"><ele>144.0</ele><time>2026-03-27T11:32:17Z</time></trkpt><trkpt lat="38.64709089821476" lon="16.185089968911157"><ele>144.0</ele><time>2026-03-27T11:32:18Z</time></trkpt><trkpt lat="38.646822762253706" lon="16.18490394956507"><ele>143.0</ele><time>2026-03-27T11:32:19Z</time></trkpt><trkpt lat="38.64655335706774" lon="16.18471673883944"><ele>142.0</ele><time>2026-03-27T11:32:20Z</time></trkpt><trkpt lat="38.64628364850942" lon="16.184530827305615"><ele>141.5</ele><time>2026-03-27T11:32:21Z</time></trkpt><trkpt lat="38.64601519583281" lon="16.184346741008046"><ele>141.0</ele><time>2026-03-27T11:32:22Z</time></trkpt><trkpt lat="38.645746951762526" lon="16.184165761399495"><ele>141.0</ele><time>2026-03-27T11:32:23Z</time></trkpt><trkpt lat="38.645479161725945" lon="16.183986595570584"><ele>141.0</ele><time>2026-03-27T11:32:24Z</time></trkpt><trkpt lat="38.64521348677569" lon="16.183806783444677"><ele>141.0</ele><time>2026-03-27T11:32:25Z</time></trkpt><trkpt lat="38.644947914543934" lon="16.18362471581855"><ele>141.0</ele><time>2026-03-27T11:32:26Z</time></trkpt><trkpt lat="38.64468313181538" lon="16.183443021484727"><ele>141.0</ele><time>2026-03-27T11:32:27Z</time></trkpt><trkpt lat="38.64441922362046" lon="16.183258761773736"><ele>141.0</ele><time>2026-03-27T11:32:28Z</time></trkpt><trkpt lat="38.6441544432981" lon="16.18307196060001"><ele>141.0</ele><time>2026-03-27T11:32:29Z</time></trkpt><trkpt lat="38.64389088937522" lon="16.18288390715524"><ele>141.0</ele><time>2026-03-27T11:32:30Z</time></trkpt><trkpt lat="38.64362859001173" lon="16.18269350430845"><ele>141.0</ele><time>2026-03-27T11:32:31Z</time></trkpt><trkpt lat="38.64336883877987" lon="16.182502182875933"><ele>141.0</ele><time>2026-03-27T11:32:32Z</time></trkpt><trkpt lat="38.64311109199937" lon="16.18231067507014"><ele>141.0</ele><time>2026-03-27T11:32:33Z</time></trkpt><trkpt lat="38.64285334432386" lon="16.18211439146278"><ele>141.0</ele><time>2026-03-27T11:32:34Z</time></trkpt><trkpt lat="38.64259885485044" lon="16.181914936998858"><ele>140.0</ele><time>2026-03-27T11:32:35Z</time></trkpt><trkpt lat="38.642345653024236" lon="16.181712338177018"><ele>139.0</ele><time>2026-03-27T11:32:36Z</time></trkpt><trkpt lat="38.642093657388195" lon="16.18150525697495"><ele>138.5</ele><time>2026-03-27T11:32:37Z</time></trkpt><trkpt lat="38.64184312936967" lon="16.181296878435976"><ele>138.0</ele><time>2026-03-27T11:32:38Z</time></trkpt><trkpt lat="38.641593917024274" lon="16.181088860463113"><ele>138.0</ele><time>2026-03-27T11:32:39Z</time></trkpt><trkpt lat="38.6413477906737" lon="16.180879659242787"><ele>138.0</ele><time>2026-03-27T11:32:40Z</time></trkpt><trkpt lat="38.64110317653959" lon="16.18066157107875"><ele>138.0</ele><time>2026-03-27T11:32:41Z</time></trkpt><trkpt lat="38.640860639508496" lon="16.180443542648714"><ele>138.0</ele><time>2026-03-27T11:32:42Z</time></trkpt><trkpt lat="38.64061926679201" lon="16.180221451427396"><ele>138.0</ele><time>2026-03-27T11:32:43Z</time></trkpt><trkpt lat="38.640383697186884" lon="16.179992650628403"><ele>138.0</ele><time>2026-03-27T11:32:44Z</time></trkpt><trkpt lat="38.640143365818986" lon="16.179765633828403"><ele>137.5</ele><time>2026-03-27T11:32:45Z</time></trkpt><trkpt lat="38.63990524580866" lon="16.17953131267984"><ele>137.0</ele><time>2026-03-27T11:32:46Z</time></trkpt><trkpt lat="38.639664553850885" lon="16.179292493738906"><ele>137.5</ele><time>2026-03-27T11:32:47Z</time></trkpt><trkpt lat="38.639424916752276" lon="16.17904365756528"><ele>138.0</ele><time>2026-03-27T11:32:48Z</time></trkpt><trkpt lat="38.639185984715525" lon="16.17879341311651"><ele>137.0</ele><time>2026-03-27T11:32:49Z</time></trkpt><trkpt lat="38.63895218780629" lon="16.178538956183402"><ele>136.0</ele><time>2026-03-27T11:32:50Z</time></trkpt><trkpt lat="38.63871863514478" lon="16.178279387104322"><ele>135.5</ele><time>2026-03-27T11:32:51Z</time></trkpt><trkpt lat="38.63848870920198" lon="16.178018362335035"><ele>135.0</ele><time>2026-03-27T11:32:52Z</time></trkpt><trkpt lat="38.63826084151077" lon="16.177757854822428"><ele>135.0</ele><time>2026-03-27T11:32:53Z</time></trkpt><trkpt lat="38.63803672873288" lon="16.177498897539145"><ele>135.0</ele><time>2026-03-27T11:32:54Z</time></trkpt><trkpt lat="38.63781861473301" lon="16.177239052383914"><ele>134.5</ele><time>2026-03-27T11:32:55Z</time></trkpt><trkpt lat="38.637603639351724" lon="16.17697731833801"><ele>134.0</ele><time>2026-03-27T11:32:56Z</time></trkpt><trkpt lat="38.63738975615379" lon="16.176709896860743"><ele>133.0</ele><time>2026-03-27T11:32:57Z</time></trkpt><trkpt lat="38.63717681596552" lon="16.17643864593239"><ele>132.0</ele><time>2026-03-27T11:32:58Z</time></trkpt><trkpt lat="38.63696428123157" lon="16.17616295511693"><ele>132.0</ele><time>2026-03-27T11:32:59Z</time></trkpt><trkpt lat="38.63675485165344" lon="16.175879658220833"><ele>132.0</ele><time>2026-03-27T11:33:00Z</time></trkpt><trkpt lat="38.63654640448965" lon="16.175594171713946"><ele>132.0</ele><time>2026-03-27T11:33:01Z</time></trkpt><trkpt lat="38.6363396172517" lon="16.175305694600482"><ele>132.0</ele><time>2026-03-27T11:33:02Z</time></trkpt><trkpt lat="38.63613405832218" lon="16.175015590609746"><ele>132.0</ele><time>2026-03-27T11:33:03Z</time></trkpt><trkpt lat="38.63593227105603" lon="16.17472466392581"><ele>132.0</ele><time>2026-03-27T11:33:04Z</time></trkpt><trkpt lat="38.635736069119005" lon="16.174430226152488"><ele>132.0</ele><time>2026-03-27T11:33:05Z</time></trkpt><trkpt lat="38.635542619047534" lon="16.174134216175545"><ele>132.0</ele><time>2026-03-27T11:33:06Z</time></trkpt><trkpt lat="38.63534976737864" lon="16.1738381581748"><ele>131.5</ele><time>2026-03-27T11:33:07Z</time></trkpt><trkpt lat="38.63516017506407" lon="16.17354100948389"><ele>131.0</ele><time>2026-03-27T11:33:08Z</time></trkpt><trkpt lat="38.63497301558737" lon="16.173242935913592"><ele>131.0</ele><time>2026-03-27T11:33:09Z</time></trkpt><trkpt lat="38.634788216149396" lon="16.17294337928774"><ele>131.0</ele><time>2026-03-27T11:33:10Z</time></trkpt><trkpt lat="38.6346057267065" lon="16.172644484054533"><ele>131.5</ele><time>2026-03-27T11:33:11Z</time></trkpt><trkpt lat="38.63442616821101" lon="16.172344671242627"><ele>132.0</ele><time>2026-03-27T11:33:12Z</time></trkpt><trkpt lat="38.63424839236694" lon="16.17203915744068"><ele>132.0</ele><time>2026-03-27T11:33:13Z</time></trkpt><trkpt lat="38.63407288913354" lon="16.171728098958827"><ele>132.0</ele><time>2026-03-27T11:33:14Z</time></trkpt><trkpt lat="38.63389844146984" lon="16.171416057895513"><ele>132.0</ele><time>2026-03-27T11:33:15Z</time></trkpt><trkpt lat="38.633727018326724" lon="16.171103458723703"><ele>132.0</ele><time>2026-03-27T11:33:16Z</time></trkpt><trkpt lat="38.633554643306844" lon="16.17079050043578"><ele>130.5</ele><time>2026-03-27T11:33:17Z</time></trkpt><trkpt lat="38.6333828293927" lon="16.170480841977977"><ele>129.0</ele><time>2026-03-27T11:33:18Z</time></trkpt><trkpt lat="38.633209054084325" lon="16.170168475377622"><ele>129.0</ele><time>2026-03-27T11:33:19Z</time></trkpt><trkpt lat="38.63303639999738" lon="16.169861187488653"><ele>129.0</ele><time>2026-03-27T11:33:20Z</time></trkpt><trkpt lat="38.6328622656321" lon="16.169550857215306"><ele>129.0</ele><time>2026-03-27T11:33:21Z</time></trkpt><trkpt lat="38.63268881989854" lon="16.169239688730528"><ele>129.0</ele><time>2026-03-27T11:33:22Z</time></trkpt><trkpt lat="38.632517097987005" lon="16.168927158970288"><ele>129.0</ele><time>2026-03-27T11:33:23Z</time></trkpt><trkpt lat="38.6323500640344" lon="16.168612983360138"><ele>129.0</ele><time>2026-03-27T11:33:24Z</time></trkpt><trkpt lat="38.632185216381245" lon="16.168298018207487"><ele>129.0</ele><time>2026-03-27T11:33:25Z</time></trkpt><trkpt lat="38.63202222970574" lon="16.167985459575707"><ele>129.0</ele><time>2026-03-27T11:33:26Z</time></trkpt><trkpt lat="38.63185939823871" lon="16.167674248394636"><ele>129.0</ele><time>2026-03-27T11:33:27Z</time></trkpt><trkpt lat="38.63169352972278" lon="16.167368252169638"><ele>129.0</ele><time>2026-03-27T11:33:28Z</time></trkpt><trkpt lat="38.63151748465918" lon="16.167069884376836"><ele>129.0</ele><time>2026-03-27T11:33:29Z</time></trkpt><trkpt lat="38.63133570422407" lon="16.166779059814733"><ele>129.0</ele><time>2026-03-27T11:33:30Z</time></trkpt><trkpt lat="38.63114809648966" lon="16.166491431878093"><ele>129.5</ele><time>2026-03-27T11:33:31Z</time></trkpt><trkpt lat="38.630955692823214" lon="16.166207468791963"><ele>130.0</ele><time>2026-03-27T11:33:32Z</time></trkpt><trkpt lat="38.63076058586404" lon="16.165923966594335"><ele>129.0</ele><time>2026-03-27T11:33:33Z</time></trkpt><trkpt lat="38.630562053707685" lon="16.1656421995098"><ele>128.0</ele><time>2026-03-27T11:33:34Z</time></trkpt><trkpt lat="38.63035781724404" lon="16.165370848242755"><ele>128.0</ele><time>2026-03-27T11:33:35Z</time></trkpt><trkpt lat="38.630147324262744" lon="16.1651056811624"><ele>128.0</ele><time>2026-03-27T11:33:36Z</time></trkpt><trkpt lat="38.629932233792815" lon="16.164845176755147"><ele>126.5</ele><time>2026-03-27T11:33:37Z</time></trkpt><trkpt lat="38.62971195176584" lon="16.164589989765343"><ele>125.0</ele><time>2026-03-27T11:33:38Z</time></trkpt><trkpt lat="38.62949091214429" lon="16.16433726640761"><ele>125.5</ele><time>2026-03-27T11:33:39Z</time></trkpt><trkpt lat="38.62926461971388" lon="16.164089801730775"><ele>126.0</ele><time>2026-03-27T11:33:40Z</time></trkpt><trkpt lat="38.62903350577759" lon="16.163847825642193"><ele>125.0</ele><time>2026-03-27T11:33:41Z</time></trkpt><trkpt lat="38.62879697747522" lon="16.16361354687281"><ele>124.0</ele><time>2026-03-27T11:33:42Z</time></trkpt><trkpt lat="38.628556431982325" lon="16.163383999228067"><ele>123.0</ele><time>2026-03-27T11:33:43Z</time></trkpt><trkpt lat="38.628311918119735" lon="16.163162422416722"><ele>122.0</ele><time>2026-03-27T11:33:44Z</time></trkpt><trkpt lat="38.62806586369214" lon="16.162946577308475"><ele>122.0</ele><time>2026-03-27T11:33:45Z</time></trkpt><trkpt lat="38.62781837788492" lon="16.162734931865778"><ele>122.0</ele><time>2026-03-27T11:33:46Z</time></trkpt><trkpt lat="38.6275683634922" lon="16.1625295350961"><ele>121.5</ele><time>2026-03-27T11:33:47Z</time></trkpt><trkpt lat="38.62731401142286" lon="16.162331704356532"><ele>121.0</ele><time>2026-03-27T11:33:48Z</time></trkpt><trkpt lat="38.62705578684398" lon="16.16214179023684"><ele>121.5</ele><time>2026-03-27T11:33:49Z</time></trkpt><trkpt lat="38.626794483310775" lon="16.161958738875118"><ele>122.0</ele><time>2026-03-27T11:33:50Z</time></trkpt><trkpt lat="38.62652912428102" lon="16.161781530016352"><ele>122.0</ele><time>2026-03-27T11:33:51Z</time></trkpt><trkpt lat="38.6262608289494" lon="16.16160750939176"><ele>122.0</ele><time>2026-03-27T11:33:52Z</time></trkpt><trkpt lat="38.62599015751129" lon="16.161438856188994"><ele>121.0</ele><time>2026-03-27T11:33:53Z</time></trkpt><trkpt lat="38.6257159937147" lon="16.16127603587847"><ele>120.0</ele><time>2026-03-27T11:33:54Z</time></trkpt><trkpt lat="38.625437803545694" lon="16.161121227164386"><ele>121.5</ele><time>2026-03-27T11:33:55Z</time></trkpt><trkpt lat="38.62515568833175" lon="16.160973275318664"><ele>123.0</ele><time>2026-03-27T11:33:56Z</time></trkpt><trkpt lat="38.62486865290518" lon="16.160832088074216"><ele>121.5</ele><time>2026-03-27T11:33:57Z</time></trkpt><trkpt lat="38.624579497960596" lon="16.160697786831395"><ele>120.0</ele><time>2026-03-27T11:33:58Z</time></trkpt><trkpt lat="38.62428852992575" lon="16.160575431037604"><ele>120.0</ele><time>2026-03-27T11:33:59Z</time></trkpt><trkpt lat="38.62399681901251" lon="16.160456337075193"><ele>120.0</ele><time>2026-03-27T11:34:00Z</time></trkpt><trkpt lat="38.62370561381203" lon="16.16033869501775"><ele>122.0</ele><time>2026-03-27T11:34:01Z</time></trkpt><trkpt lat="38.62341289312475" lon="16.160226289863054"><ele>124.0</ele><time>2026-03-27T11:34:02Z</time></trkpt><trkpt lat="38.6231194340359" lon="16.160116593101687"><ele>124.0</ele><time>2026-03-27T11:34:03Z</time></trkpt><trkpt lat="38.62282617077926" lon="16.160010180617984"><ele>124.0</ele><time>2026-03-27T11:34:04Z</time></trkpt><trkpt lat="38.62253588982748" lon="16.15990331188386"><ele>121.0</ele><time>2026-03-27T11:34:05Z</time></trkpt><trkpt lat="38.62225388792566" lon="16.159801269981113"><ele>118.0</ele><time>2026-03-27T11:34:06Z</time></trkpt><trkpt lat="38.62198577143171" lon="16.1597054424358"><ele>116.0</ele><time>2026-03-27T11:34:07Z</time></trkpt><trkpt lat="38.62171711436482" lon="16.159607140694504"><ele>114.0</ele><time>2026-03-27T11:34:08Z</time></trkpt><trkpt lat="38.62145157038184" lon="16.159507279172672"><ele>114.0</ele><time>2026-03-27T11:34:09Z</time></trkpt><trkpt lat="38.621187086347454" lon="16.15940381975038"><ele>114.0</ele><time>2026-03-27T11:34:10Z</time></trkpt><trkpt lat="38.62092195112858" lon="16.159296373676867"><ele>115.0</ele><time>2026-03-27T11:34:11Z</time></trkpt><trkpt lat="38.620656722981614" lon="16.159182465013505"><ele>116.0</ele><time>2026-03-27T11:34:12Z</time></trkpt><trkpt lat="38.62039305754338" lon="16.159060680602877"><ele>116.0</ele><time>2026-03-27T11:34:13Z</time></trkpt><trkpt lat="38.62013101076106" lon="16.158933142906633"><ele>116.0</ele><time>2026-03-27T11:34:14Z</time></trkpt><trkpt lat="38.619869581822556" lon="16.158801173733817"><ele>116.0</ele><time>2026-03-27T11:34:15Z</time></trkpt><trkpt lat="38.61961151976698" lon="16.158666136691494"><ele>116.0</ele><time>2026-03-27T11:34:16Z</time></trkpt><trkpt lat="38.619356066614344" lon="16.158524689652513"><ele>116.5</ele><time>2026-03-27T11:34:17Z</time></trkpt><trkpt lat="38.61909702135494" lon="16.158380702908104"><ele>117.0</ele><time>2026-03-27T11:34:18Z</time></trkpt><trkpt lat="38.61883277901911" lon="16.15823317428049"><ele>116.0</ele><time>2026-03-27T11:34:19Z</time></trkpt><trkpt lat="38.618562406938175" lon="16.158073876172605"><ele>115.0</ele><time>2026-03-27T11:34:20Z</time></trkpt><trkpt lat="38.61829604335203" lon="16.15789838916762"><ele>115.0</ele><time>2026-03-27T11:34:21Z</time></trkpt><trkpt lat="38.61803256965199" lon="16.157710958134782"><ele>115.0</ele><time>2026-03-27T11:34:22Z</time></trkpt><trkpt lat="38.61777420232016" lon="16.157512278659436"><ele>115.5</ele><time>2026-03-27T11:34:23Z</time></trkpt><trkpt lat="38.61751931088361" lon="16.157307751552015"><ele>116.0</ele><time>2026-03-27T11:34:24Z</time></trkpt><trkpt lat="38.61726959022994" lon="16.15708915247401"><ele>116.0</ele><time>2026-03-27T11:34:25Z</time></trkpt><trkpt lat="38.61702396577514" lon="16.156861649617586"><ele>116.0</ele><time>2026-03-27T11:34:26Z</time></trkpt><trkpt lat="38.616778893140626" lon="16.156632585668056"><ele>115.0</ele><time>2026-03-27T11:34:27Z</time></trkpt><trkpt lat="38.61653870962504" lon="16.156402793478712"><ele>114.0</ele><time>2026-03-27T11:34:28Z</time></trkpt><trkpt lat="38.61629882626806" lon="16.156170323370265"><ele>114.0</ele><time>2026-03-27T11:34:29Z</time></trkpt><trkpt lat="38.61606273809733" lon="16.155935166785913"><ele>114.0</ele><time>2026-03-27T11:34:30Z</time></trkpt><trkpt lat="38.615829952178366" lon="16.155696005382392"><ele>114.0</ele><time>2026-03-27T11:34:31Z</time></trkpt><trkpt lat="38.61560023319603" lon="16.155452951735064"><ele>114.0</ele><time>2026-03-27T11:34:32Z</time></trkpt><trkpt lat="38.615372083353876" lon="16.15520861532821"><ele>115.0</ele><time>2026-03-27T11:34:33Z</time></trkpt><trkpt lat="38.61514578093096" lon="16.15496367950513"><ele>116.0</ele><time>2026-03-27T11:34:34Z</time></trkpt><trkpt lat="38.61492193965947" lon="16.15472030901069"><ele>116.0</ele><time>2026-03-27T11:34:35Z</time></trkpt><trkpt lat="38.61469842621719" lon="16.154475000040062"><ele>116.0</ele><time>2026-03-27T11:34:36Z</time></trkpt><trkpt lat="38.61447683261627" lon="16.1542272022194"><ele>115.5</ele><time>2026-03-27T11:34:37Z</time></trkpt><trkpt lat="38.61425459072442" lon="16.153981081262636"><ele>115.0</ele><time>2026-03-27T11:34:38Z</time></trkpt><trkpt lat="38.61403092920505" lon="16.153737843718588"><ele>115.0</ele><time>2026-03-27T11:34:39Z</time></trkpt><trkpt lat="38.613806004459455" lon="16.153499110397643"><ele>115.0</ele><time>2026-03-27T11:34:40Z</time></trkpt><trkpt lat="38.6135810558134" lon="16.153262544855586"><ele>114.5</ele><time>2026-03-27T11:34:41Z</time></trkpt><trkpt lat="38.61335557389757" lon="16.153027146608668"><ele>114.0</ele><time>2026-03-27T11:34:42Z</time></trkpt><trkpt lat="38.61313066239477" lon="16.152792372214442"><ele>114.0</ele><time>2026-03-27T11:34:43Z</time></trkpt><trkpt lat="38.6129063749436" lon="16.152558942826253"><ele>114.0</ele><time>2026-03-27T11:34:44Z</time></trkpt><trkpt lat="38.61267855932028" lon="16.15232815417463"><ele>113.0</ele><time>2026-03-27T11:34:45Z</time></trkpt><trkpt lat="38.612448521918125" lon="16.152097551155432"><ele>112.0</ele><time>2026-03-27T11:34:46Z</time></trkpt><trkpt lat="38.61221186104393" lon="16.151869707988876"><ele>112.5</ele><time>2026-03-27T11:34:47Z</time></trkpt><trkpt lat="38.61196759058997" lon="16.151648454597822"><ele>113.0</ele><time>2026-03-27T11:34:48Z</time></trkpt><trkpt lat="38.611715816124466" lon="16.151430896575107"><ele>111.5</ele><time>2026-03-27T11:34:49Z</time></trkpt><trkpt lat="38.611463021730884" lon="16.15121506529001"><ele>110.0</ele><time>2026-03-27T11:34:50Z</time></trkpt><trkpt lat="38.61120896812191" lon="16.151002155400953"><ele>110.0</ele><time>2026-03-27T11:34:51Z</time></trkpt><trkpt lat="38.61095262895163" lon="16.150792639247484"><ele>110.0</ele><time>2026-03-27T11:34:52Z</time></trkpt><trkpt lat="38.61069475314121" lon="16.150586610667986"><ele>110.5</ele><time>2026-03-27T11:34:53Z</time></trkpt><trkpt lat="38.61043798434167" lon="16.150381867790806"><ele>111.0</ele><time>2026-03-27T11:34:54Z</time></trkpt><trkpt lat="38.61018018380044" lon="16.1501788066783"><ele>111.0</ele><time>2026-03-27T11:34:55Z</time></trkpt><trkpt lat="38.609920886923256" lon="16.149978150412586"><ele>111.0</ele><time>2026-03-27T11:34:56Z</time></trkpt><trkpt lat="38.60966181872332" lon="16.14977651560269"><ele>112.0</ele><time>2026-03-27T11:34:57Z</time></trkpt><trkpt lat="38.60940171411447" lon="16.149572101885266"><ele>113.0</ele><time>2026-03-27T11:34:58Z</time></trkpt><trkpt lat="38.60914146025786" lon="16.149363607022625"><ele>113.0</ele><time>2026-03-27T11:34:59Z</time></trkpt><trkpt lat="38.60888010750762" lon="16.149157146841848"><ele>113.0</ele><time>2026-03-27T11:35:00Z</time></trkpt><trkpt lat="38.608616467178884" lon="16.14895387156734"><ele>115.0</ele><time>2026-03-27T11:35:01Z</time></trkpt><trkpt lat="38.608353859228274" lon="16.148755473324115"><ele>117.0</ele><time>2026-03-27T11:35:02Z</time></trkpt><trkpt lat="38.60809256814048" lon="16.148559323114743"><ele>117.0</ele><time>2026-03-27T11:35:03Z</time></trkpt><trkpt lat="38.60783400263913" lon="16.14836348656203"><ele>117.0</ele><time>2026-03-27T11:35:04Z</time></trkpt><trkpt lat="38.60757690714916" lon="16.148170009225858"><ele>119.5</ele><time>2026-03-27T11:35:05Z</time></trkpt><trkpt lat="38.607317393135624" lon="16.147978237482906"><ele>122.0</ele><time>2026-03-27T11:35:06Z</time></trkpt><trkpt lat="38.6070564357943" lon="16.147786248191906"><ele>117.0</ele><time>2026-03-27T11:35:07Z</time></trkpt><trkpt lat="38.60679502074428" lon="16.14759368958375"><ele>112.0</ele><time>2026-03-27T11:35:08Z</time></trkpt><trkpt lat="38.606532721456425" lon="16.147401879714813"><ele>114.5</ele><time>2026-03-27T11:35:09Z</time></trkpt><trkpt lat="38.606271185406435" lon="16.147206427620773"><ele>117.0</ele><time>2026-03-27T11:35:10Z</time></trkpt><trkpt lat="38.60601056684427" lon="16.14700894429079"><ele>117.0</ele><time>2026-03-27T11:35:11Z</time></trkpt><trkpt lat="38.60575139825733" lon="16.146809195367716"><ele>117.0</ele><time>2026-03-27T11:35:12Z</time></trkpt><trkpt lat="38.60549166297086" lon="16.14660487548552"><ele>116.5</ele><time>2026-03-27T11:35:13Z</time></trkpt><trkpt lat="38.605235931060655" lon="16.14638930128055"><ele>116.0</ele><time>2026-03-27T11:35:14Z</time></trkpt><trkpt lat="38.60498479290784" lon="16.14616268141801"><ele>116.0</ele><time>2026-03-27T11:35:15Z</time></trkpt><trkpt lat="38.60473670993043" lon="16.145926333282194"><ele>116.0</ele><time>2026-03-27T11:35:16Z</time></trkpt><trkpt lat="38.60449067387117" lon="16.145685890138683"><ele>113.0</ele><time>2026-03-27T11:35:17Z</time></trkpt><trkpt lat="38.60424935350595" lon="16.145439117277984"><ele>110.0</ele><time>2026-03-27T11:35:18Z</time></trkpt><trkpt lat="38.604011380010895" lon="16.145187431210726"><ele>110.0</ele><time>2026-03-27T11:35:19Z</time></trkpt><trkpt lat="38.603779242405295" lon="16.14493271947433"><ele>110.0</ele><time>2026-03-27T11:35:20Z</time></trkpt><trkpt lat="38.60354854725556" lon="16.144678993531752"><ele>110.5</ele><time>2026-03-27T11:35:21Z</time></trkpt><trkpt lat="38.603321650755234" lon="16.14442687475759"><ele>111.0</ele><time>2026-03-27T11:35:22Z</time></trkpt><trkpt lat="38.60309987027241" lon="16.14417989141557"><ele>109.5</ele><time>2026-03-27T11:35:23Z</time></trkpt><trkpt lat="38.60288010924427" lon="16.143938596619137"><ele>108.0</ele><time>2026-03-27T11:35:24Z</time></trkpt><trkpt lat="38.6026604006571" lon="16.14370370558345"><ele>108.0</ele><time>2026-03-27T11:35:25Z</time></trkpt><trkpt lat="38.60243665426312" lon="16.143473525405724"><ele>108.0</ele><time>2026-03-27T11:35:26Z</time></trkpt><trkpt lat="38.60220704992042" lon="16.143245062061393"><ele>107.5</ele><time>2026-03-27T11:35:27Z</time></trkpt><trkpt lat="38.60197245328929" lon="16.14301831570352"><ele>107.0</ele><time>2026-03-27T11:35:28Z</time></trkpt><trkpt lat="38.60173299027092" lon="16.142796676087986"><ele>107.0</ele><time>2026-03-27T11:35:29Z</time></trkpt><trkpt lat="38.60148961904259" lon="16.142580847517397"><ele>107.0</ele><time>2026-03-27T11:35:30Z</time></trkpt><trkpt lat="38.60124277997927" lon="16.142367957616834"><ele>107.5</ele><time>2026-03-27T11:35:31Z</time></trkpt><trkpt lat="38.60099056779269" lon="16.14215714664374"><ele>108.0</ele><time>2026-03-27T11:35:32Z</time></trkpt><trkpt lat="38.600733312260346" lon="16.14194852077613"><ele>108.0</ele><time>2026-03-27T11:35:33Z</time></trkpt><trkpt lat="38.60047343030703" lon="16.141741350245546"><ele>108.0</ele><time>2026-03-27T11:35:34Z</time></trkpt><trkpt lat="38.60021148330294" lon="16.141535408547764"><ele>114.0</ele><time>2026-03-27T11:35:35Z</time></trkpt><trkpt lat="38.599947387085635" lon="16.141328726353432"><ele>120.0</ele><time>2026-03-27T11:35:36Z</time></trkpt><trkpt lat="38.599684603331056" lon="16.1411216978607"><ele>121.0</ele><time>2026-03-27T11:35:37Z</time></trkpt><trkpt lat="38.599420469658774" lon="16.140913755582925"><ele>122.0</ele><time>2026-03-27T11:35:38Z</time></trkpt><trkpt lat="38.599159118506655" lon="16.140708059246123"><ele>122.0</ele><time>2026-03-27T11:35:39Z</time></trkpt><trkpt lat="38.59889782922046" lon="16.140501978693653"><ele>122.0</ele><time>2026-03-27T11:35:40Z</time></trkpt><trkpt lat="38.59863539625946" lon="16.140296674685782"><ele>117.0</ele><time>2026-03-27T11:35:41Z</time></trkpt><trkpt lat="38.598370411295015" lon="16.140092108636356"><ele>112.0</ele><time>2026-03-27T11:35:42Z</time></trkpt><trkpt lat="38.59810847593235" lon="16.139889474748216"><ele>112.5</ele><time>2026-03-27T11:35:43Z</time></trkpt><trkpt lat="38.597849677628005" lon="16.13968859988508"><ele>113.0</ele><time>2026-03-27T11:35:44Z</time></trkpt><trkpt lat="38.597591928469235" lon="16.139486420494286"><ele>113.0</ele><time>2026-03-27T11:35:45Z</time></trkpt><trkpt lat="38.59733767146967" lon="16.139285720187296"><ele>113.0</ele><time>2026-03-27T11:35:46Z</time></trkpt><trkpt lat="38.59708290462857" lon="16.139087561834078"><ele>110.5</ele><time>2026-03-27T11:35:47Z</time></trkpt><trkpt lat="38.596828891983854" lon="16.1388914323083"><ele>108.0</ele><time>2026-03-27T11:35:48Z</time></trkpt><trkpt lat="38.59657606553289" lon="16.138698824736036"><ele>108.0</ele><time>2026-03-27T11:35:49Z</time></trkpt><trkpt lat="38.596320688677935" lon="16.13851726032651"><ele>108.0</ele><time>2026-03-27T11:35:50Z</time></trkpt><trkpt lat="38.59606591391851" lon="16.138346354366792"><ele>109.0</ele><time>2026-03-27T11:35:51Z</time></trkpt><trkpt lat="38.595809572977345" lon="16.13818322764516"><ele>110.0</ele><time>2026-03-27T11:35:52Z</time></trkpt><trkpt lat="38.5955527601015" lon="16.138025355407837"><ele>106.5</ele><time>2026-03-27T11:35:53Z</time></trkpt><trkpt lat="38.59529295995125" lon="16.137875016112407"><ele>103.0</ele><time>2026-03-27T11:35:54Z</time></trkpt><trkpt lat="38.595027715390685" lon="16.137733827806247"><ele>103.0</ele><time>2026-03-27T11:35:55Z</time></trkpt><trkpt lat="38.594756972063664" lon="16.13759782901322"><ele>103.0</ele><time>2026-03-27T11:35:56Z</time></trkpt><trkpt lat="38.59448042945737" lon="16.13747014153102"><ele>103.0</ele><time>2026-03-27T11:35:57Z</time></trkpt><trkpt lat="38.5942009008685" lon="16.137353103692973"><ele>103.0</ele><time>2026-03-27T11:35:58Z</time></trkpt><trkpt lat="38.59391774618374" lon="16.13724424088762"><ele>105.0</ele><time>2026-03-27T11:35:59Z</time></trkpt><trkpt lat="38.59363097448738" lon="16.137145732877485"><ele>107.0</ele><time>2026-03-27T11:36:00Z</time></trkpt><trkpt lat="38.59334163416622" lon="16.13705839778033"><ele>107.0</ele><time>2026-03-27T11:36:01Z</time></trkpt><trkpt lat="38.59304907322866" lon="16.136979360962776"><ele>107.0</ele><time>2026-03-27T11:36:02Z</time></trkpt><trkpt lat="38.59275300202602" lon="16.13690923834613"><ele>106.0</ele><time>2026-03-27T11:36:03Z</time></trkpt><trkpt lat="38.59245638953061" lon="16.13684377370831"><ele>105.0</ele><time>2026-03-27T11:36:04Z</time></trkpt><trkpt lat="38.59215940619027" lon="16.136784675982902"><ele>104.0</ele><time>2026-03-27T11:36:05Z</time></trkpt><trkpt lat="38.59186165234677" lon="16.13672771648993"><ele>103.0</ele><time>2026-03-27T11:36:06Z</time></trkpt><trkpt lat="38.59156221422634" lon="16.136670820114507"><ele>103.0</ele><time>2026-03-27T11:36:07Z</time></trkpt><trkpt lat="38.591257700191115" lon="16.136616234150225"><ele>103.0</ele><time>2026-03-27T11:36:08Z</time></trkpt><trkpt lat="38.59095381203122" lon="16.13656031191011"><ele>110.5</ele><time>2026-03-27T11:36:09Z</time></trkpt><trkpt lat="38.59064812460352" lon="16.13650334859315"><ele>118.0</ele><time>2026-03-27T11:36:10Z</time></trkpt><trkpt lat="38.590341325415054" lon="16.13644461614719"><ele>118.0</ele><time>2026-03-27T11:36:11Z</time></trkpt><trkpt lat="38.59003315011766" lon="16.136385881632386"><ele>118.0</ele><time>2026-03-27T11:36:12Z</time></trkpt><trkpt lat="38.58972640845489" lon="16.13632922742355"><ele>113.0</ele><time>2026-03-27T11:36:13Z</time></trkpt><trkpt lat="38.589421645142345" lon="16.13626943066642"><ele>108.0</ele><time>2026-03-27T11:36:14Z</time></trkpt><trkpt lat="38.58911664082549" lon="16.136204691407592"><ele>108.0</ele><time>2026-03-27T11:36:15Z</time></trkpt><trkpt lat="38.58881300256729" lon="16.136134280470188"><ele>108.0</ele><time>2026-03-27T11:36:16Z</time></trkpt><trkpt lat="38.58851209697067" lon="16.136055609991736"><ele>106.0</ele><time>2026-03-27T11:36:17Z</time></trkpt><trkpt lat="38.5882123455868" lon="16.135971622983448"><ele>104.0</ele><time>2026-03-27T11:36:18Z</time></trkpt><trkpt lat="38.587913836107546" lon="16.135877015648497"><ele>103.5</ele><time>2026-03-27T11:36:19Z</time></trkpt><trkpt lat="38.587618096893216" lon="16.135771261945635"><ele>103.0</ele><time>2026-03-27T11:36:20Z</time></trkpt><trkpt lat="38.58732433276574" lon="16.135655010858628"><ele>107.0</ele><time>2026-03-27T11:36:21Z</time></trkpt><trkpt lat="38.587033763075176" lon="16.13552919599543"><ele>111.0</ele><time>2026-03-27T11:36:22Z</time></trkpt><trkpt lat="38.58674492149802" lon="16.135394670421064"><ele>111.0</ele><time>2026-03-27T11:36:23Z</time></trkpt><trkpt lat="38.5864579776406" lon="16.1352463395678"><ele>111.0</ele><time>2026-03-27T11:36:24Z</time></trkpt><trkpt lat="38.58617328667324" lon="16.135089217641216"><ele>113.0</ele><time>2026-03-27T11:36:25Z</time></trkpt><trkpt lat="38.58589109618224" lon="16.134923935733656"><ele>115.0</ele><time>2026-03-27T11:36:26Z</time></trkpt><trkpt lat="38.58561216487425" lon="16.134746961942156"><ele>109.5</ele><time>2026-03-27T11:36:27Z</time></trkpt><trkpt lat="38.58533681959437" lon="16.134560668080407"><ele>104.0</ele><time>2026-03-27T11:36:28Z</time></trkpt><trkpt lat="38.58506547855383" lon="16.13436871947996"><ele>104.0</ele><time>2026-03-27T11:36:29Z</time></trkpt><trkpt lat="38.58479837727407" lon="16.134168820762454"><ele>104.0</ele><time>2026-03-27T11:36:30Z</time></trkpt><trkpt lat="38.58453923567506" lon="16.133962876101602"><ele>103.0</ele><time>2026-03-27T11:36:31Z</time></trkpt><trkpt lat="38.58428533100051" lon="16.133754147784696"><ele>102.0</ele><time>2026-03-27T11:36:32Z</time></trkpt><trkpt lat="38.584036602370254" lon="16.13353815923804"><ele>102.0</ele><time>2026-03-27T11:36:33Z</time></trkpt><trkpt lat="38.58379333696812" lon="16.13331273998278"><ele>102.0</ele><time>2026-03-27T11:36:34Z</time></trkpt><trkpt lat="38.58355826007461" lon="16.133077902715442"><ele>99.5</ele><time>2026-03-27T11:36:35Z</time></trkpt><trkpt lat="38.58333070537353" lon="16.132835731925383"><ele>97.0</ele><time>2026-03-27T11:36:36Z</time></trkpt><trkpt lat="38.58310697773863" lon="16.132586134977355"><ele>97.0</ele><time>2026-03-27T11:36:37Z</time></trkpt><trkpt lat="38.58288814207347" lon="16.132330470710407"><ele>97.0</ele><time>2026-03-27T11:36:38Z</time></trkpt><trkpt lat="38.58267680271424" lon="16.13206869080123"><ele>97.0</ele><time>2026-03-27T11:36:39Z</time></trkpt><trkpt lat="38.5824696954165" lon="16.131798757434655"><ele>97.0</ele><time>2026-03-27T11:36:40Z</time></trkpt><trkpt lat="38.582267290087884" lon="16.13152648291163"><ele>97.0</ele><time>2026-03-27T11:36:41Z</time></trkpt><trkpt lat="38.58207136741461" lon="16.13124458601415"><ele>97.0</ele><time>2026-03-27T11:36:42Z</time></trkpt><trkpt lat="38.58188039367888" lon="16.130951981224"><ele>96.5</ele><time>2026-03-27T11:36:43Z</time></trkpt><trkpt lat="38.581692608810286" lon="16.130652533270958"><ele>96.0</ele><time>2026-03-27T11:36:44Z</time></trkpt><trkpt lat="38.581509953244534" lon="16.13034568164847"><ele>96.0</ele><time>2026-03-27T11:36:45Z</time></trkpt><trkpt lat="38.5813330833313" lon="16.13003320876245"><ele>96.0</ele><time>2026-03-27T11:36:46Z</time></trkpt><trkpt lat="38.581161231459035" lon="16.129715162211767"><ele>100.0</ele><time>2026-03-27T11:36:47Z</time></trkpt><trkpt lat="38.580993484474966" lon="16.12939225078556"><ele>104.0</ele><time>2026-03-27T11:36:48Z</time></trkpt><trkpt lat="38.58082840852135" lon="16.1290639565648"><ele>106.5</ele><time>2026-03-27T11:36:49Z</time></trkpt><trkpt lat="38.58066656314684" lon="16.128731769801824"><ele>109.0</ele><time>2026-03-27T11:36:50Z</time></trkpt><trkpt lat="38.58050829143666" lon="16.128398654651765"><ele>112.0</ele><time>2026-03-27T11:36:51Z</time></trkpt><trkpt lat="38.58035379628221" lon="16.128068297607204"><ele>115.0</ele><time>2026-03-27T11:36:52Z</time></trkpt><trkpt lat="38.58020342954194" lon="16.127738017446923"><ele>112.0</ele><time>2026-03-27T11:36:53Z</time></trkpt><trkpt lat="38.58005502139136" lon="16.12740978397632"><ele>109.0</ele><time>2026-03-27T11:36:54Z</time></trkpt><trkpt lat="38.57990888373779" lon="16.12708302393047"><ele>109.0</ele><time>2026-03-27T11:36:55Z</time></trkpt><trkpt lat="38.5797645603603" lon="16.126758020095707"><ele>109.0</ele><time>2026-03-27T11:36:56Z</time></trkpt><trkpt lat="38.579621349397485" lon="16.126434158856796"><ele>102.0</ele><time>2026-03-27T11:36:57Z</time></trkpt><trkpt lat="38.57947828727031" lon="16.126110060458956"><ele>95.0</ele><time>2026-03-27T11:36:58Z</time></trkpt><trkpt lat="38.57933679809952" lon="16.125787323598047"><ele>98.5</ele><time>2026-03-27T11:36:59Z</time></trkpt><trkpt lat="38.57919330883395" lon="16.12545923658768"><ele>102.0</ele><time>2026-03-27T11:37:00Z</time></trkpt><trkpt lat="38.579047095054186" lon="16.125129210058162"><ele>106.5</ele><time>2026-03-27T11:37:01Z</time></trkpt><trkpt lat="38.57890146678175" lon="16.124795576715318"><ele>111.0</ele><time>2026-03-27T11:37:02Z</time></trkpt><trkpt lat="38.57875684651986" lon="16.124460705131785"><ele>109.5</ele><time>2026-03-27T11:37:03Z</time></trkpt><trkpt lat="38.57861385521339" lon="16.12412491190886"><ele>108.0</ele><time>2026-03-27T11:37:04Z</time></trkpt><trkpt lat="38.57846797044729" lon="16.123788026439883"><ele>108.0</ele><time>2026-03-27T11:37:05Z</time></trkpt><trkpt lat="38.57832257267767" lon="16.123451623117827"><ele>108.0</ele><time>2026-03-27T11:37:06Z</time></trkpt><trkpt lat="38.578178103888796" lon="16.123114606374592"><ele>111.0</ele><time>2026-03-27T11:37:07Z</time></trkpt><trkpt lat="38.578033400222544" lon="16.12277798493726"><ele>114.0</ele><time>2026-03-27T11:37:08Z</time></trkpt><trkpt lat="38.577894147417766" lon="16.122441906789977"><ele>113.5</ele><time>2026-03-27T11:37:09Z</time></trkpt><trkpt lat="38.577756708075746" lon="16.12210615427843"><ele>113.0</ele><time>2026-03-27T11:37:10Z</time></trkpt><trkpt lat="38.577619409392994" lon="16.121769533761892"><ele>115.0</ele><time>2026-03-27T11:37:11Z</time></trkpt><trkpt lat="38.57748298619536" lon="16.12143274891371"><ele>117.0</ele><time>2026-03-27T11:37:12Z</time></trkpt><trkpt lat="38.57735221256134" lon="16.12109336041296"><ele>117.0</ele><time>2026-03-27T11:37:13Z</time></trkpt><trkpt lat="38.57723136094722" lon="16.120746362215712"><ele>117.0</ele><time>2026-03-27T11:37:14Z</time></trkpt><trkpt lat="38.57711458086536" lon="16.120395273499327"><ele>119.0</ele><time>2026-03-27T11:37:15Z</time></trkpt><trkpt lat="38.57699469407402" lon="16.120044918688837"><ele>121.0</ele><time>2026-03-27T11:37:16Z</time></trkpt><trkpt lat="38.57687797405232" lon="16.11968892448459"><ele>122.5</ele><time>2026-03-27T11:37:17Z</time></trkpt><trkpt lat="38.576754778209676" lon="16.119339235049623"><ele>124.0</ele><time>2026-03-27T11:37:18Z</time></trkpt><trkpt lat="38.57663870658652" lon="16.118986051364903"><ele>129.0</ele><time>2026-03-27T11:37:19Z</time></trkpt><trkpt lat="38.57651983921033" lon="16.118635963133706"><ele>134.0</ele><time>2026-03-27T11:37:20Z</time></trkpt><trkpt lat="38.57643019855413" lon="16.11829628168223"><ele>137.0</ele><time>2026-03-27T11:37:21Z</time></trkpt><trkpt lat="38.57632387776075" lon="16.117944358101006"><ele>140.0</ele><time>2026-03-27T11:37:22Z</time></trkpt><trkpt lat="38.57621895766336" lon="16.117593707833826"><ele>138.5</ele><time>2026-03-27T11:37:23Z</time></trkpt><trkpt lat="38.576120398390835" lon="16.117239609524198"><ele>137.0</ele><time>2026-03-27T11:37:24Z</time></trkpt><trkpt lat="38.5760268191533" lon="16.11688339797719"><ele>139.0</ele><time>2026-03-27T11:37:25Z</time></trkpt><trkpt lat="38.57593569633471" lon="16.116526607768993"><ele>141.0</ele><time>2026-03-27T11:37:26Z</time></trkpt><trkpt lat="38.575845100337084" lon="16.116169640472428"><ele>141.0</ele><time>2026-03-27T11:37:27Z</time></trkpt><trkpt lat="38.57575823724961" lon="16.11581041447414"><ele>141.0</ele><time>2026-03-27T11:37:28Z</time></trkpt><trkpt lat="38.57567441016572" lon="16.115448725646935"><ele>141.0</ele><time>2026-03-27T11:37:29Z</time></trkpt><trkpt lat="38.575595274546195" lon="16.11508600696031"><ele>141.0</ele><time>2026-03-27T11:37:30Z</time></trkpt><trkpt lat="38.57551727437707" lon="16.114723526844635"><ele>141.0</ele><time>2026-03-27T11:37:31Z</time></trkpt><trkpt lat="38.57544187487727" lon="16.114359865866607"><ele>141.0</ele><time>2026-03-27T11:37:32Z</time></trkpt><trkpt lat="38.57536821461152" lon="16.113993437344405"><ele>135.5</ele><time>2026-03-27T11:37:33Z</time></trkpt><trkpt lat="38.57529940941474" lon="16.11362399674393"><ele>130.0</ele><time>2026-03-27T11:37:34Z</time></trkpt><trkpt lat="38.57523142287484" lon="16.113252946661415"><ele>124.0</ele><time>2026-03-27T11:37:35Z</time></trkpt><trkpt lat="38.57516942578607" lon="16.112882531286004"><ele>118.0</ele><time>2026-03-27T11:37:36Z</time></trkpt><trkpt lat="38.57509313755352" lon="16.112521003803266"><ele>110.5</ele><time>2026-03-27T11:37:37Z</time></trkpt><trkpt lat="38.57503512271391" lon="16.112152427162663"><ele>103.0</ele><time>2026-03-27T11:37:38Z</time></trkpt><trkpt lat="38.57498207355312" lon="16.111795420973035"><ele>97.5</ele><time>2026-03-27T11:37:39Z</time></trkpt><trkpt lat="38.574929499299614" lon="16.111423596573676"><ele>92.0</ele><time>2026-03-27T11:37:40Z</time></trkpt><trkpt lat="38.57487354269654" lon="16.111027040963148"><ele>93.5</ele><time>2026-03-27T11:37:41Z</time></trkpt><trkpt lat="38.57479117286923" lon="16.11061635599579"><ele>95.0</ele><time>2026-03-27T11:37:42Z</time></trkpt><trkpt lat="38.574739621347355" lon="16.11025504980296"><ele>101.5</ele><time>2026-03-27T11:37:43Z</time></trkpt><trkpt lat="38.574695037682886" lon="16.10990825456785"><ele>108.0</ele><time>2026-03-27T11:37:44Z</time></trkpt><trkpt lat="38.57464995021722" lon="16.1095488346998"><ele>108.0</ele><time>2026-03-27T11:37:45Z</time></trkpt><trkpt lat="38.57461309073345" lon="16.109181074929666"><ele>108.0</ele><time>2026-03-27T11:37:46Z</time></trkpt><trkpt lat="38.57457764907819" lon="16.108819605099654"><ele>108.0</ele><time>2026-03-27T11:37:47Z</time></trkpt><trkpt lat="38.574542573939766" lon="16.10845894389276"><ele>108.0</ele><time>2026-03-27T11:37:48Z</time></trkpt><trkpt lat="38.57450689423249" lon="16.10809677821243"><ele>98.5</ele><time>2026-03-27T11:37:49Z</time></trkpt><trkpt lat="38.57447185685725" lon="16.107741951563806"><ele>89.0</ele><time>2026-03-27T11:37:50Z</time></trkpt><trkpt lat="38.574436893625524" lon="16.10738304456499"><ele>89.0</ele><time>2026-03-27T11:37:51Z</time></trkpt><trkpt lat="38.574400687097736" lon="16.10701221321619"><ele>89.0</ele><time>2026-03-27T11:37:52Z</time></trkpt><trkpt lat="38.57436411760656" lon="16.106647321038096"><ele>92.0</ele><time>2026-03-27T11:37:53Z</time></trkpt><trkpt lat="38.57433054281241" lon="16.10628521597633"><ele>95.0</ele><time>2026-03-27T11:37:54Z</time></trkpt><trkpt lat="38.574300577093474" lon="16.10592222171826"><ele>93.5</ele><time>2026-03-27T11:37:55Z</time></trkpt><trkpt lat="38.57427040257398" lon="16.10555820785107"><ele>92.0</ele><time>2026-03-27T11:37:56Z</time></trkpt><trkpt lat="38.574239318942986" lon="16.10519628528402"><ele>90.5</ele><time>2026-03-27T11:37:57Z</time></trkpt><trkpt lat="38.57420518859328" lon="16.10483426865951"><ele>89.0</ele><time>2026-03-27T11:37:58Z</time></trkpt><trkpt lat="38.574171244963914" lon="16.104471981055593"><ele>89.0</ele><time>2026-03-27T11:37:59Z</time></trkpt><trkpt lat="38.57413889485775" lon="16.104107141120085"><ele>89.0</ele><time>2026-03-27T11:38:00Z</time></trkpt><trkpt lat="38.57410766378022" lon="16.10373729131221"><ele>88.0</ele><time>2026-03-27T11:38:01Z</time></trkpt><trkpt lat="38.57407543861679" lon="16.1033621010291"><ele>87.0</ele><time>2026-03-27T11:38:02Z</time></trkpt><trkpt lat="38.57403956810964" lon="16.102979345977513"><ele>86.5</ele><time>2026-03-27T11:38:03Z</time></trkpt><trkpt lat="38.57400613227009" lon="16.102592403665852"><ele>86.0</ele><time>2026-03-27T11:38:04Z</time></trkpt><trkpt lat="38.57397296562857" lon="16.102201159663537"><ele>86.0</ele><time>2026-03-27T11:38:05Z</time></trkpt><trkpt lat="38.57393972088806" lon="16.10180775844977"><ele>86.0</ele><time>2026-03-27T11:38:06Z</time></trkpt><trkpt lat="38.57390517224366" lon="16.101416632799893"><ele>94.0</ele><time>2026-03-27T11:38:07Z</time></trkpt><trkpt lat="38.57387116383648" lon="16.10103061376959"><ele>102.0</ele><time>2026-03-27T11:38:08Z</time></trkpt><trkpt lat="38.57383403022944" lon="16.100645608110273"><ele>101.0</ele><time>2026-03-27T11:38:09Z</time></trkpt><trkpt lat="38.57379613043658" lon="16.100264249484777"><ele>100.0</ele><time>2026-03-27T11:38:10Z</time></trkpt><trkpt lat="38.57375936755497" lon="16.0998894442078"><ele>100.0</ele><time>2026-03-27T11:38:11Z</time></trkpt><trkpt lat="38.573727364621426" lon="16.099521884592107"><ele>100.0</ele><time>2026-03-27T11:38:12Z</time></trkpt><trkpt lat="38.573696425793344" lon="16.099161744707864"><ele>91.0</ele><time>2026-03-27T11:38:13Z</time></trkpt><trkpt lat="38.57366119085082" lon="16.098802613147353"><ele>82.0</ele><time>2026-03-27T11:38:14Z</time></trkpt><trkpt lat="38.57362696674059" lon="16.098443377966536"><ele>83.5</ele><time>2026-03-27T11:38:15Z</time></trkpt><trkpt lat="38.573592130419335" lon="16.09808408058033"><ele>85.0</ele><time>2026-03-27T11:38:16Z</time></trkpt><trkpt lat="38.573554157254186" lon="16.09772545087815"><ele>86.0</ele><time>2026-03-27T11:38:17Z</time></trkpt><trkpt lat="38.573511025694174" lon="16.097367462813306"><ele>87.0</ele><time>2026-03-27T11:38:18Z</time></trkpt><trkpt lat="38.5734594685821" lon="16.09700815302187"><ele>87.0</ele><time>2026-03-27T11:38:19Z</time></trkpt><trkpt lat="38.573409072974805" lon="16.096647756817532"><ele>87.0</ele><time>2026-03-27T11:38:20Z</time></trkpt><trkpt lat="38.57335084543842" lon="16.096285682036516"><ele>88.5</ele><time>2026-03-27T11:38:21Z</time></trkpt><trkpt lat="38.57328288557548" lon="16.095923110437493"><ele>90.0</ele><time>2026-03-27T11:38:22Z</time></trkpt><trkpt lat="38.573206673710004" lon="16.09555959929829"><ele>93.0</ele><time>2026-03-27T11:38:23Z</time></trkpt><trkpt lat="38.573123516905355" lon="16.09519900566796"><ele>96.0</ele><time>2026-03-27T11:38:24Z</time></trkpt><trkpt lat="38.57303142739953" lon="16.094843871829568"><ele>97.0</ele><time>2026-03-27T11:38:25Z</time></trkpt><trkpt lat="38.572930060905044" lon="16.094490671461145"><ele>98.0</ele><time>2026-03-27T11:38:26Z</time></trkpt><trkpt lat="38.572821535934935" lon="16.094140579435248"><ele>98.0</ele><time>2026-03-27T11:38:27Z</time></trkpt><trkpt lat="38.572706968552076" lon="16.09379270966771"><ele>98.0</ele><time>2026-03-27T11:38:28Z</time></trkpt><trkpt lat="38.572583420562594" lon="16.093453089393552"><ele>103.0</ele><time>2026-03-27T11:38:29Z</time></trkpt><trkpt lat="38.57245231131692" lon="16.093121806539603"><ele>108.0</ele><time>2026-03-27T11:38:30Z</time></trkpt><trkpt lat="38.57231379934202" lon="16.092795777746936"><ele>108.0</ele><time>2026-03-27T11:38:31Z</time></trkpt><trkpt lat="38.57216722027627" lon="16.09247790944648"><ele>108.0</ele><time>2026-03-27T11:38:32Z</time></trkpt><trkpt lat="38.57201462722712" lon="16.09216664846854"><ele>102.5</ele><time>2026-03-27T11:38:33Z</time></trkpt><trkpt lat="38.57185551336899" lon="16.09186117163356"><ele>97.0</ele><time>2026-03-27T11:38:34Z</time></trkpt><trkpt lat="38.571691737125114" lon="16.0915608021821"><ele>91.5</ele><time>2026-03-27T11:38:35Z</time></trkpt><trkpt lat="38.57152294752284" lon="16.091266459097366"><ele>86.0</ele><time>2026-03-27T11:38:36Z</time></trkpt><trkpt lat="38.57136208640145" lon="16.090951437076093"><ele>89.0</ele><time>2026-03-27T11:38:37Z</time></trkpt><trkpt lat="38.57115911325446" lon="16.09063749521761"><ele>92.0</ele><time>2026-03-27T11:38:38Z</time></trkpt><trkpt lat="38.57095721561267" lon="16.09035809946578"><ele>92.0</ele><time>2026-03-27T11:38:39Z</time></trkpt><trkpt lat="38.570755150212165" lon="16.09008155931224"><ele>92.0</ele><time>2026-03-27T11:38:40Z</time></trkpt><trkpt lat="38.570545888021464" lon="16.089814194935926"><ele>88.5</ele><time>2026-03-27T11:38:41Z</time></trkpt><trkpt lat="38.57033048040821" lon="16.089555748047008"><ele>85.0</ele><time>2026-03-27T11:38:42Z</time></trkpt><trkpt lat="38.57011197727493" lon="16.08930136211256"><ele>85.5</ele><time>2026-03-27T11:38:43Z</time></trkpt><trkpt lat="38.569885524601375" lon="16.08905195446269"><ele>86.0</ele><time>2026-03-27T11:38:44Z</time></trkpt><trkpt lat="38.569657490144095" lon="16.08880410204962"><ele>82.5</ele><time>2026-03-27T11:38:45Z</time></trkpt><trkpt lat="38.56942764677823" lon="16.08856017216013"><ele>79.0</ele><time>2026-03-27T11:38:46Z</time></trkpt><trkpt lat="38.56919619567968" lon="16.088317795820284"><ele>83.0</ele><time>2026-03-27T11:38:47Z</time></trkpt><trkpt lat="38.56896346285029" lon="16.088074727330312"><ele>87.0</ele><time>2026-03-27T11:38:48Z</time></trkpt><trkpt lat="38.5687305568944" lon="16.087836452304785"><ele>89.0</ele><time>2026-03-27T11:38:49Z</time></trkpt><trkpt lat="38.568497993061705" lon="16.08760373189961"><ele>91.0</ele><time>2026-03-27T11:38:50Z</time></trkpt><trkpt lat="38.568267130179386" lon="16.087374266269524"><ele>91.0</ele><time>2026-03-27T11:38:51Z</time></trkpt><trkpt lat="38.568039486291525" lon="16.087137729532355"><ele>91.0</ele><time>2026-03-27T11:38:52Z</time></trkpt><trkpt lat="38.56781964603933" lon="16.086892191863875"><ele>92.0</ele><time>2026-03-27T11:38:53Z</time></trkpt><trkpt lat="38.5676033810677" lon="16.086642516782163"><ele>93.0</ele><time>2026-03-27T11:38:54Z</time></trkpt><trkpt lat="38.56739276733884" lon="16.086385832317966"><ele>93.0</ele><time>2026-03-27T11:38:55Z</time></trkpt><trkpt lat="38.56718908254233" lon="16.086121143506336"><ele>93.0</ele><time>2026-03-27T11:38:56Z</time></trkpt><trkpt lat="38.56699161324185" lon="16.08585188097108"><ele>88.5</ele><time>2026-03-27T11:38:57Z</time></trkpt><trkpt lat="38.56679587016053" lon="16.08557637787453"><ele>84.0</ele><time>2026-03-27T11:38:58Z</time></trkpt><trkpt lat="38.566607854710554" lon="16.085291172173726"><ele>84.0</ele><time>2026-03-27T11:38:59Z</time></trkpt><trkpt lat="38.566428488950876" lon="16.084996334031445"><ele>84.0</ele><time>2026-03-27T11:39:00Z</time></trkpt><trkpt lat="38.56625197584325" lon="16.084692931992794"><ele>82.0</ele><time>2026-03-27T11:39:01Z</time></trkpt><trkpt lat="38.56608148521678" lon="16.084384669154126"><ele>80.0</ele><time>2026-03-27T11:39:02Z</time></trkpt><trkpt lat="38.565916770631986" lon="16.08406406958557"><ele>80.0</ele><time>2026-03-27T11:39:03Z</time></trkpt><trkpt lat="38.565764919294665" lon="16.083733680694166"><ele>80.0</ele><time>2026-03-27T11:39:04Z</time></trkpt><trkpt lat="38.56561696113272" lon="16.083400701735854"><ele>81.5</ele><time>2026-03-27T11:39:05Z</time></trkpt><trkpt lat="38.56546954097273" lon="16.083069952531094"><ele>83.0</ele><time>2026-03-27T11:39:06Z</time></trkpt><trkpt lat="38.56532342738422" lon="16.082739816871324"><ele>82.0</ele><time>2026-03-27T11:39:07Z</time></trkpt><trkpt lat="38.56517978685832" lon="16.08240966513577"><ele>81.0</ele><time>2026-03-27T11:39:08Z</time></trkpt><trkpt lat="38.56503606004252" lon="16.08208246080545"><ele>81.0</ele><time>2026-03-27T11:39:09Z</time></trkpt><trkpt lat="38.56489504515379" lon="16.081755188925086"><ele>81.0</ele><time>2026-03-27T11:39:10Z</time></trkpt><trkpt lat="38.56475589872462" lon="16.081430196735297"><ele>78.5</ele><time>2026-03-27T11:39:11Z</time></trkpt><trkpt lat="38.564616977459856" lon="16.08110500926743"><ele>76.0</ele><time>2026-03-27T11:39:12Z</time></trkpt><trkpt lat="38.56447988453203" lon="16.080780635972932"><ele>76.0</ele><time>2026-03-27T11:39:13Z</time></trkpt><trkpt lat="38.56434956429839" lon="16.080454471750514"><ele>76.0</ele><time>2026-03-27T11:39:14Z</time></trkpt><trkpt lat="38.56422074703097" lon="16.08012691324389"><ele>77.0</ele><time>2026-03-27T11:39:15Z</time></trkpt><trkpt lat="38.564092481857195" lon="16.079795676320707"><ele>78.0</ele><time>2026-03-27T11:39:16Z</time></trkpt><trkpt lat="38.56396864493186" lon="16.079461634872175"><ele>78.0</ele><time>2026-03-27T11:39:17Z</time></trkpt><trkpt lat="38.563849872569556" lon="16.079122122118424"><ele>78.0</ele><time>2026-03-27T11:39:18Z</time></trkpt><trkpt lat="38.56373359662236" lon="16.078782417661156"><ele>79.0</ele><time>2026-03-27T11:39:19Z</time></trkpt><trkpt lat="38.563617851397694" lon="16.078440115963215"><ele>80.0</ele><time>2026-03-27T11:39:20Z</time></trkpt><trkpt lat="38.56350149877208" lon="16.078095888971006"><ele>80.0</ele><time>2026-03-27T11:39:21Z</time></trkpt><trkpt lat="38.563386072076135" lon="16.07775213707768"><ele>80.0</ele><time>2026-03-27T11:39:22Z</time></trkpt><trkpt lat="38.563269533518714" lon="16.077408633956523"><ele>82.0</ele><time>2026-03-27T11:39:23Z</time></trkpt><trkpt lat="38.56315240348448" lon="16.077065858398495"><ele>84.0</ele><time>2026-03-27T11:39:24Z</time></trkpt><trkpt lat="38.56303037478401" lon="16.076724747256808"><ele>83.5</ele><time>2026-03-27T11:39:25Z</time></trkpt><trkpt lat="38.56290207315988" lon="16.07638990731316"><ele>83.0</ele><time>2026-03-27T11:39:26Z</time></trkpt><trkpt lat="38.56276655440596" lon="16.076060911502672"><ele>82.5</ele><time>2026-03-27T11:39:27Z</time></trkpt><trkpt lat="38.56262355678581" lon="16.07573715330739"><ele>82.0</ele><time>2026-03-27T11:39:28Z</time></trkpt><trkpt lat="38.56247193786383" lon="16.07541845363162"><ele>82.0</ele><time>2026-03-27T11:39:29Z</time></trkpt><trkpt lat="38.56231128599486" lon="16.075103340052195"><ele>82.0</ele><time>2026-03-27T11:39:30Z</time></trkpt><trkpt lat="38.562141427534186" lon="16.074792357495376"><ele>79.0</ele><time>2026-03-27T11:39:31Z</time></trkpt><trkpt lat="38.56196176361844" lon="16.07448617665231"><ele>76.0</ele><time>2026-03-27T11:39:32Z</time></trkpt><trkpt lat="38.561772207383896" lon="16.074186627479058"><ele>80.5</ele><time>2026-03-27T11:39:33Z</time></trkpt><trkpt lat="38.56157426437935" lon="16.0738952516973"><ele>85.0</ele><time>2026-03-27T11:39:34Z</time></trkpt><trkpt lat="38.56137030384021" lon="16.073610038513948"><ele>85.5</ele><time>2026-03-27T11:39:35Z</time></trkpt><trkpt lat="38.561158648724934" lon="16.07333215059284"><ele>86.0</ele><time>2026-03-27T11:39:36Z</time></trkpt><trkpt lat="38.56093709053381" lon="16.07306285005277"><ele>86.0</ele><time>2026-03-27T11:39:37Z</time></trkpt><trkpt lat="38.56070797945326" lon="16.07280356917553"><ele>86.0</ele><time>2026-03-27T11:39:38Z</time></trkpt><trkpt lat="38.56047156602073" lon="16.07255562429983"><ele>83.0</ele><time>2026-03-27T11:39:39Z</time></trkpt><trkpt lat="38.5602296814325" lon="16.072317455164622"><ele>80.0</ele><time>2026-03-27T11:39:40Z</time></trkpt><trkpt lat="38.5599813966461" lon="16.072089348756037"><ele>80.0</ele><time>2026-03-27T11:39:41Z</time></trkpt><trkpt lat="38.55972781722647" lon="16.071873842695403"><ele>80.0</ele><time>2026-03-27T11:39:42Z</time></trkpt><trkpt lat="38.55947032740116" lon="16.071672018033954"><ele>81.5</ele><time>2026-03-27T11:39:43Z</time></trkpt><trkpt lat="38.55920919803916" lon="16.071484301917593"><ele>83.0</ele><time>2026-03-27T11:39:44Z</time></trkpt><trkpt lat="38.55894501547171" lon="16.071306971514474"><ele>77.5</ele><time>2026-03-27T11:39:45Z</time></trkpt><trkpt lat="38.55867717938212" lon="16.071143707262767"><ele>72.0</ele><time>2026-03-27T11:39:46Z</time></trkpt><trkpt lat="38.558405656847185" lon="16.07099259508279"><ele>72.0</ele><time>2026-03-27T11:39:47Z</time></trkpt><trkpt lat="38.55813067429289" lon="16.070848446149043"><ele>72.0</ele><time>2026-03-27T11:39:48Z</time></trkpt><trkpt lat="38.55785438595032" lon="16.070714674068544"><ele>71.0</ele><time>2026-03-27T11:39:49Z</time></trkpt><trkpt lat="38.55757582230167" lon="16.070590833666046"><ele>70.0</ele><time>2026-03-27T11:39:50Z</time></trkpt><trkpt lat="38.55729255802365" lon="16.07048127260409"><ele>69.0</ele><time>2026-03-27T11:39:51Z</time></trkpt><trkpt lat="38.557005374216494" lon="16.070389355968203"><ele>68.0</ele><time>2026-03-27T11:39:52Z</time></trkpt><trkpt lat="38.556715383639094" lon="16.070312142691122"><ele>68.0</ele><time>2026-03-27T11:39:53Z</time></trkpt><trkpt lat="38.55642134148064" lon="16.070244092523676"><ele>68.0</ele><time>2026-03-27T11:39:54Z</time></trkpt><trkpt lat="38.55612440394609" lon="16.070188558994346"><ele>68.5</ele><time>2026-03-27T11:39:55Z</time></trkpt><trkpt lat="38.555828257285775" lon="16.070139701581013"><ele>69.0</ele><time>2026-03-27T11:39:56Z</time></trkpt><trkpt lat="38.55553024969379" lon="16.07009796492019"><ele>69.5</ele><time>2026-03-27T11:39:57Z</time></trkpt><trkpt lat="38.555229079441204" lon="16.07006050421223"><ele>70.0</ele><time>2026-03-27T11:39:58Z</time></trkpt><trkpt lat="38.55492913825115" lon="16.07002421795842"><ele>70.0</ele><time>2026-03-27T11:39:59Z</time></trkpt><trkpt lat="38.55462944456112" lon="16.06998963668828"><ele>70.0</ele><time>2026-03-27T11:40:00Z</time></trkpt><trkpt lat="38.55432751036809" lon="16.069956275259752"><ele>74.5</ele><time>2026-03-27T11:40:01Z</time></trkpt><trkpt lat="38.55402378853968" lon="16.069923699109168"><ele>79.0</ele><time>2026-03-27T11:40:02Z</time></trkpt><trkpt lat="38.553722472697935" lon="16.069887458731674"><ele>86.0</ele><time>2026-03-27T11:40:03Z</time></trkpt><trkpt lat="38.55342380474001" lon="16.069843032641902"><ele>93.0</ele><time>2026-03-27T11:40:04Z</time></trkpt><trkpt lat="38.55312897715758" lon="16.06979004597851"><ele>94.5</ele><time>2026-03-27T11:40:05Z</time></trkpt><trkpt lat="38.552835495687006" lon="16.069729160783535"><ele>96.0</ele><time>2026-03-27T11:40:06Z</time></trkpt><trkpt lat="38.55254517054047" lon="16.069654090511104"><ele>96.0</ele><time>2026-03-27T11:40:07Z</time></trkpt><trkpt lat="38.55225542631139" lon="16.06956967283203"><ele>96.0</ele><time>2026-03-27T11:40:08Z</time></trkpt><trkpt lat="38.551970555484374" lon="16.06947250918361"><ele>93.0</ele><time>2026-03-27T11:40:09Z</time></trkpt><trkpt lat="38.55168768435546" lon="16.069360186046012"><ele>90.0</ele><time>2026-03-27T11:40:10Z</time></trkpt><trkpt lat="38.551408288089455" lon="16.069231760671226"><ele>91.0</ele><time>2026-03-27T11:40:11Z</time></trkpt><trkpt lat="38.55113063726096" lon="16.069091221567547"><ele>92.0</ele><time>2026-03-27T11:40:12Z</time></trkpt><trkpt lat="38.55085535585575" lon="16.068945280003618"><ele>92.0</ele><time>2026-03-27T11:40:13Z</time></trkpt><trkpt lat="38.5505820419743" lon="16.068792300772735"><ele>92.0</ele><time>2026-03-27T11:40:14Z</time></trkpt><trkpt lat="38.55030897491838" lon="16.068633297496852"><ele>84.0</ele><time>2026-03-27T11:40:15Z</time></trkpt><trkpt lat="38.55003598934746" lon="16.068468057809955"><ele>76.0</ele><time>2026-03-27T11:40:16Z</time></trkpt><trkpt lat="38.549757511363566" lon="16.068295539212475"><ele>82.0</ele><time>2026-03-27T11:40:17Z</time></trkpt><trkpt lat="38.54947911520441" lon="16.068122527830656"><ele>88.0</ele><time>2026-03-27T11:40:18Z</time></trkpt><trkpt lat="38.54920402003945" lon="16.067948065878394"><ele>88.0</ele><time>2026-03-27T11:40:19Z</time></trkpt><trkpt lat="38.54893214420527" lon="16.06777538487464"><ele>88.0</ele><time>2026-03-27T11:40:20Z</time></trkpt><trkpt lat="38.54866093048662" lon="16.06760530170885"><ele>87.0</ele><time>2026-03-27T11:40:21Z</time></trkpt><trkpt lat="38.54839073876242" lon="16.0674349591851"><ele>86.0</ele><time>2026-03-27T11:40:22Z</time></trkpt><trkpt lat="38.548121297330596" lon="16.067263216852137"><ele>83.0</ele><time>2026-03-27T11:40:23Z</time></trkpt><trkpt lat="38.547853848489055" lon="16.067089135159133"><ele>80.0</ele><time>2026-03-27T11:40:24Z</time></trkpt><trkpt lat="38.547587168538996" lon="16.066916101103484"><ele>80.0</ele><time>2026-03-27T11:40:25Z</time></trkpt><trkpt lat="38.54732091504037" lon="16.066744133352408"><ele>80.0</ele><time>2026-03-27T11:40:26Z</time></trkpt><trkpt lat="38.54705184463418" lon="16.066576036528787"><ele>80.0</ele><time>2026-03-27T11:40:27Z</time></trkpt><trkpt lat="38.546782172872064" lon="16.066408614602985"><ele>80.0</ele><time>2026-03-27T11:40:28Z</time></trkpt><trkpt lat="38.54651378000183" lon="16.06623885409138"><ele>80.0</ele><time>2026-03-27T11:40:29Z</time></trkpt><trkpt lat="38.54624458262609" lon="16.06606861994563"><ele>80.0</ele><time>2026-03-27T11:40:30Z</time></trkpt><trkpt lat="38.54597811197921" lon="16.065896796076125"><ele>71.0</ele><time>2026-03-27T11:40:31Z</time></trkpt><trkpt lat="38.545713691248935" lon="16.065722168017423"><ele>62.0</ele><time>2026-03-27T11:40:32Z</time></trkpt><trkpt lat="38.545451023678396" lon="16.06554633531051"><ele>63.0</ele><time>2026-03-27T11:40:33Z</time></trkpt><trkpt lat="38.545191262833754" lon="16.065367286969217"><ele>64.0</ele><time>2026-03-27T11:40:34Z</time></trkpt><trkpt lat="38.5449341205335" lon="16.065184331143385"><ele>64.0</ele><time>2026-03-27T11:40:35Z</time></trkpt><trkpt lat="38.544681515712746" lon="16.06499485996497"><ele>64.0</ele><time>2026-03-27T11:40:36Z</time></trkpt><trkpt lat="38.5444320923938" lon="16.06480267566907"><ele>63.0</ele><time>2026-03-27T11:40:37Z</time></trkpt><trkpt lat="38.544185708080875" lon="16.06460766853965"><ele>62.0</ele><time>2026-03-27T11:40:38Z</time></trkpt><trkpt lat="38.54394456737412" lon="16.064410370774468"><ele>63.0</ele><time>2026-03-27T11:40:39Z</time></trkpt><trkpt lat="38.54370499632419" lon="16.064210679314325"><ele>64.0</ele><time>2026-03-27T11:40:40Z</time></trkpt><trkpt lat="38.54346753374337" lon="16.06400940705359"><ele>64.0</ele><time>2026-03-27T11:40:41Z</time></trkpt><trkpt lat="38.543231158379136" lon="16.0638039196192"><ele>64.0</ele><time>2026-03-27T11:40:42Z</time></trkpt><trkpt lat="38.54299868583781" lon="16.06359133167118"><ele>62.5</ele><time>2026-03-27T11:40:43Z</time></trkpt><trkpt lat="38.54276843374315" lon="16.0633740387737"><ele>61.0</ele><time>2026-03-27T11:40:44Z</time></trkpt><trkpt lat="38.54254093464393" lon="16.063154206156078"><ele>61.0</ele><time>2026-03-27T11:40:45Z</time></trkpt><trkpt lat="38.54231390206975" lon="16.062933766242736"><ele>61.0</ele><time>2026-03-27T11:40:46Z</time></trkpt><trkpt lat="38.542085589146396" lon="16.06271153159356"><ele>60.5</ele><time>2026-03-27T11:40:47Z</time></trkpt><trkpt lat="38.54185655478556" lon="16.062485941029294"><ele>60.0</ele><time>2026-03-27T11:40:48Z</time></trkpt><trkpt lat="38.54162539645886" lon="16.062256135902"><ele>60.0</ele><time>2026-03-27T11:40:49Z</time></trkpt><trkpt lat="38.541393497395234" lon="16.062023707592065"><ele>60.0</ele><time>2026-03-27T11:40:50Z</time></trkpt><trkpt lat="38.54116132017649" lon="16.061789954165732"><ele>59.5</ele><time>2026-03-27T11:40:51Z</time></trkpt><trkpt lat="38.54092952556528" lon="16.061558177507557"><ele>59.0</ele><time>2026-03-27T11:40:52Z</time></trkpt><trkpt lat="38.54069636025596" lon="16.061326166772204"><ele>59.0</ele><time>2026-03-27T11:40:53Z</time></trkpt><trkpt lat="38.540463426394126" lon="16.06109531264972"><ele>59.0</ele><time>2026-03-27T11:40:54Z</time></trkpt><trkpt lat="38.540230738408646" lon="16.060865473802284"><ele>58.5</ele><time>2026-03-27T11:40:55Z</time></trkpt><trkpt lat="38.53999804830272" lon="16.060635807949712"><ele>58.0</ele><time>2026-03-27T11:40:56Z</time></trkpt><trkpt lat="38.539765755509265" lon="16.060406240384207"><ele>58.5</ele><time>2026-03-27T11:40:57Z</time></trkpt><trkpt lat="38.539533699715506" lon="16.06017730776966"><ele>59.0</ele><time>2026-03-27T11:40:58Z</time></trkpt><trkpt lat="38.53929872833009" lon="16.05994681731286"><ele>59.0</ele><time>2026-03-27T11:40:59Z</time></trkpt><trkpt lat="38.539063629146" lon="16.059713617290388"><ele>59.0</ele><time>2026-03-27T11:41:00Z</time></trkpt><trkpt lat="38.5388289747058" lon="16.0594783973347"><ele>59.0</ele><time>2026-03-27T11:41:01Z</time></trkpt><trkpt lat="38.538591596442394" lon="16.059243701457067"><ele>59.0</ele><time>2026-03-27T11:41:02Z</time></trkpt><trkpt lat="38.53835411024408" lon="16.059007264127484"><ele>59.0</ele><time>2026-03-27T11:41:03Z</time></trkpt><trkpt lat="38.53811952736297" lon="16.058773595875202"><ele>59.0</ele><time>2026-03-27T11:41:04Z</time></trkpt><trkpt lat="38.53788597263232" lon="16.05854171303777"><ele>58.0</ele><time>2026-03-27T11:41:05Z</time></trkpt><trkpt lat="38.53765414974504" lon="16.058311854056324"><ele>57.0</ele><time>2026-03-27T11:41:06Z</time></trkpt><trkpt lat="38.53742300267243" lon="16.058085024125166"><ele>57.0</ele><time>2026-03-27T11:41:07Z</time></trkpt><trkpt lat="38.53719451649778" lon="16.05786155245614"><ele>57.0</ele><time>2026-03-27T11:41:08Z</time></trkpt><trkpt lat="38.53696893910726" lon="16.057638519015317"><ele>56.5</ele><time>2026-03-27T11:41:09Z</time></trkpt><trkpt lat="38.53674429516984" lon="16.057412561110702"><ele>56.0</ele><time>2026-03-27T11:41:10Z</time></trkpt><trkpt lat="38.53652162796429" lon="16.057185020333954"><ele>56.0</ele><time>2026-03-27T11:41:11Z</time></trkpt><trkpt lat="38.53630060749676" lon="16.05695531767217"><ele>56.0</ele><time>2026-03-27T11:41:12Z</time></trkpt><trkpt lat="38.536081437070585" lon="16.05672388815703"><ele>56.0</ele><time>2026-03-27T11:41:13Z</time></trkpt><trkpt lat="38.53586319895733" lon="16.05649167138031"><ele>56.0</ele><time>2026-03-27T11:41:14Z</time></trkpt><trkpt lat="38.53564806324973" lon="16.056258384026236"><ele>56.0</ele><time>2026-03-27T11:41:15Z</time></trkpt><trkpt lat="38.5354355249028" lon="16.05602462306373"><ele>56.0</ele><time>2026-03-27T11:41:16Z</time></trkpt><trkpt lat="38.53522188351849" lon="16.055792653327945"><ele>57.0</ele><time>2026-03-27T11:41:17Z</time></trkpt><trkpt lat="38.53501058747041" lon="16.055561648868334"><ele>58.0</ele><time>2026-03-27T11:41:18Z</time></trkpt><trkpt lat="38.53479928370542" lon="16.05533329471443"><ele>58.0</ele><time>2026-03-27T11:41:19Z</time></trkpt><trkpt lat="38.53458462651791" lon="16.055108497740807"><ele>58.0</ele><time>2026-03-27T11:41:20Z</time></trkpt><trkpt lat="38.534365548014094" lon="16.054879183636587"><ele>60.5</ele><time>2026-03-27T11:41:21Z</time></trkpt><trkpt lat="38.53414066078447" lon="16.05465315334502"><ele>63.0</ele><time>2026-03-27T11:41:22Z</time></trkpt><trkpt lat="38.533911952776556" lon="16.05443287867617"><ele>62.5</ele><time>2026-03-27T11:41:23Z</time></trkpt><trkpt lat="38.53367920956131" lon="16.054216749230676"><ele>62.0</ele><time>2026-03-27T11:41:24Z</time></trkpt><trkpt lat="38.533439522374614" lon="16.054006756985203"><ele>62.0</ele><time>2026-03-27T11:41:25Z</time></trkpt><trkpt lat="38.53319052215017" lon="16.053804257835306"><ele>62.0</ele><time>2026-03-27T11:41:26Z</time></trkpt><trkpt lat="38.53293609215718" lon="16.053610828191864"><ele>65.0</ele><time>2026-03-27T11:41:27Z</time></trkpt><trkpt lat="38.53267596172574" lon="16.05342947970124"><ele>68.0</ele><time>2026-03-27T11:41:28Z</time></trkpt><trkpt lat="38.53241086193782" lon="16.053260521956823"><ele>68.0</ele><time>2026-03-27T11:41:29Z</time></trkpt><trkpt lat="38.532135486918406" lon="16.053110336570782"><ele>68.0</ele><time>2026-03-27T11:41:30Z</time></trkpt><trkpt lat="38.53185567982451" lon="16.052974846002506"><ele>62.0</ele><time>2026-03-27T11:41:31Z</time></trkpt><trkpt lat="38.531574119845324" lon="16.052849059580712"><ele>56.0</ele><time>2026-03-27T11:41:32Z</time></trkpt><trkpt lat="38.53129075363704" lon="16.052730236179347"><ele>54.0</ele><time>2026-03-27T11:41:33Z</time></trkpt><trkpt lat="38.53100590468656" lon="16.052624067610953"><ele>52.0</ele><time>2026-03-27T11:41:34Z</time></trkpt><trkpt lat="38.530720109024394" lon="16.05253107775499"><ele>53.0</ele><time>2026-03-27T11:41:35Z</time></trkpt><trkpt lat="38.53043252408357" lon="16.05244840850413"><ele>54.0</ele><time>2026-03-27T11:41:36Z</time></trkpt><trkpt lat="38.530144901550365" lon="16.052379915970644"><ele>54.0</ele><time>2026-03-27T11:41:37Z</time></trkpt><trkpt lat="38.52985819341129" lon="16.05232292787858"><ele>54.0</ele><time>2026-03-27T11:41:38Z</time></trkpt><trkpt lat="38.52957254046133" lon="16.052278640126126"><ele>53.5</ele><time>2026-03-27T11:41:39Z</time></trkpt><trkpt lat="38.52928510537039" lon="16.05224562410893"><ele>53.0</ele><time>2026-03-27T11:41:40Z</time></trkpt><trkpt lat="38.52899737338563" lon="16.05222091007522"><ele>51.5</ele><time>2026-03-27T11:41:41Z</time></trkpt><trkpt lat="38.528710928373265" lon="16.052202994144572"><ele>50.0</ele><time>2026-03-27T11:41:42Z</time></trkpt><trkpt lat="38.5284232238487" lon="16.052199326351143"><ele>50.0</ele><time>2026-03-27T11:41:43Z</time></trkpt><trkpt lat="38.52813400540936" lon="16.05220718217533"><ele>50.0</ele><time>2026-03-27T11:41:44Z</time></trkpt><trkpt lat="38.5278455943033" lon="16.052226010598552"><ele>52.0</ele><time>2026-03-27T11:41:45Z</time></trkpt><trkpt lat="38.527558893596954" lon="16.052255597577407"><ele>54.0</ele><time>2026-03-27T11:41:46Z</time></trkpt><trkpt lat="38.52727342915607" lon="16.05229397197206"><ele>58.0</ele><time>2026-03-27T11:41:47Z</time></trkpt><trkpt lat="38.526988479566086" lon="16.052340232120194"><ele>62.0</ele><time>2026-03-27T11:41:48Z</time></trkpt><trkpt lat="38.52670540366761" lon="16.052391459720425"><ele>62.0</ele><time>2026-03-27T11:41:49Z</time></trkpt><trkpt lat="38.526421115459364" lon="16.052445555789213"><ele>62.0</ele><time>2026-03-27T11:41:50Z</time></trkpt><trkpt lat="38.52613720612945" lon="16.052501446915763"><ele>57.5</ele><time>2026-03-27T11:41:51Z</time></trkpt><trkpt lat="38.52585069183155" lon="16.052557581003008"><ele>53.0</ele><time>2026-03-27T11:41:52Z</time></trkpt><trkpt lat="38.52556257026388" lon="16.052613331712923"><ele>52.5</ele><time>2026-03-27T11:41:53Z</time></trkpt><trkpt lat="38.52527321403206" lon="16.052665364469057"><ele>52.0</ele><time>2026-03-27T11:41:54Z</time></trkpt><trkpt lat="38.52498310373106" lon="16.052715298873935"><ele>52.0</ele><time>2026-03-27T11:41:55Z</time></trkpt><trkpt lat="38.524692096287126" lon="16.05276090852455"><ele>52.0</ele><time>2026-03-27T11:41:56Z</time></trkpt><trkpt lat="38.52440045136673" lon="16.052803442946587"><ele>53.5</ele><time>2026-03-27T11:41:57Z</time></trkpt><trkpt lat="38.52410664835039" lon="16.052838193715836"><ele>55.0</ele><time>2026-03-27T11:41:58Z</time></trkpt><trkpt lat="38.52381509086455" lon="16.052864676663628"><ele>59.5</ele><time>2026-03-27T11:41:59Z</time></trkpt><trkpt lat="38.523522471207656" lon="16.05288088726288"><ele>64.0</ele><time>2026-03-27T11:42:00Z</time></trkpt><trkpt lat="38.52323058752312" lon="16.0528868157207"><ele>64.0</ele><time>2026-03-27T11:42:01Z</time></trkpt><trkpt lat="38.52293899208107" lon="16.05288310065187"><ele>64.0</ele><time>2026-03-27T11:42:02Z</time></trkpt><trkpt lat="38.522646213458614" lon="16.052870072170986"><ele>67.0</ele><time>2026-03-27T11:42:03Z</time></trkpt><trkpt lat="38.52235287067501" lon="16.052846188474398"><ele>70.0</ele><time>2026-03-27T11:42:04Z</time></trkpt><trkpt lat="38.52205867716648" lon="16.052812776039282"><ele>63.5</ele><time>2026-03-27T11:42:05Z</time></trkpt><trkpt lat="38.52176546995908" lon="16.052769221034243"><ele>57.0</ele><time>2026-03-27T11:42:06Z</time></trkpt><trkpt lat="38.521473738894805" lon="16.052716276858753"><ele>54.0</ele><time>2026-03-27T11:42:07Z</time></trkpt><trkpt lat="38.5211841383054" lon="16.052653838372255"><ele>51.0</ele><time>2026-03-27T11:42:08Z</time></trkpt><trkpt lat="38.5208950183799" lon="16.05258256612965"><ele>51.0</ele><time>2026-03-27T11:42:09Z</time></trkpt><trkpt lat="38.520606495111906" lon="16.05250158538016"><ele>51.0</ele><time>2026-03-27T11:42:10Z</time></trkpt><trkpt lat="38.52031549965" lon="16.052412024537993"><ele>53.5</ele><time>2026-03-27T11:42:11Z</time></trkpt><trkpt lat="38.520024244522354" lon="16.052312550697273"><ele>56.0</ele><time>2026-03-27T11:42:12Z</time></trkpt><trkpt lat="38.51973267940367" lon="16.05220514751957"><ele>53.5</ele><time>2026-03-27T11:42:13Z</time></trkpt><trkpt lat="38.51944000191812" lon="16.052091457662367"><ele>51.0</ele><time>2026-03-27T11:42:14Z</time></trkpt><trkpt lat="38.519145862361256" lon="16.051969110706604"><ele>51.0</ele><time>2026-03-27T11:42:15Z</time></trkpt><trkpt lat="38.51885246118003" lon="16.05183661388011"><ele>51.0</ele><time>2026-03-27T11:42:16Z</time></trkpt><trkpt lat="38.51855946726094" lon="16.051698648543702"><ele>60.5</ele><time>2026-03-27T11:42:17Z</time></trkpt><trkpt lat="38.518269716602624" lon="16.05155741887868"><ele>70.0</ele><time>2026-03-27T11:42:18Z</time></trkpt><trkpt lat="38.517983335240054" lon="16.05141792378115"><ele>65.5</ele><time>2026-03-27T11:42:19Z</time></trkpt><trkpt lat="38.51770327944896" lon="16.051273061623128"><ele>61.0</ele><time>2026-03-27T11:42:20Z</time></trkpt><trkpt lat="38.517426824897676" lon="16.051126384136396"><ele>61.0</ele><time>2026-03-27T11:42:21Z</time></trkpt><trkpt lat="38.51715335192654" lon="16.050980646876305"><ele>61.0</ele><time>2026-03-27T11:42:22Z</time></trkpt><trkpt lat="38.516878826572906" lon="16.050829619875064"><ele>62.0</ele><time>2026-03-27T11:42:23Z</time></trkpt><trkpt lat="38.51660266374576" lon="16.050671152796905"><ele>63.0</ele><time>2026-03-27T11:42:24Z</time></trkpt><trkpt lat="38.516326427059234" lon="16.050503115668658"><ele>58.0</ele><time>2026-03-27T11:42:25Z</time></trkpt><trkpt lat="38.516049273591484" lon="16.050328383702873"><ele>53.0</ele><time>2026-03-27T11:42:26Z</time></trkpt><trkpt lat="38.51577069482223" lon="16.050150805877585"><ele>53.0</ele><time>2026-03-27T11:42:27Z</time></trkpt><trkpt lat="38.515490372458075" lon="16.049968380352173"><ele>53.0</ele><time>2026-03-27T11:42:28Z</time></trkpt><trkpt lat="38.5152135044582" lon="16.04978105645663"><ele>51.0</ele><time>2026-03-27T11:42:29Z</time></trkpt><trkpt lat="38.51494309928458" lon="16.04959386059072"><ele>49.0</ele><time>2026-03-27T11:42:30Z</time></trkpt><trkpt lat="38.514676954955064" lon="16.049409278524042"><ele>48.5</ele><time>2026-03-27T11:42:31Z</time></trkpt><trkpt lat="38.51441465612954" lon="16.049227286444154"><ele>48.0</ele><time>2026-03-27T11:42:32Z</time></trkpt><trkpt lat="38.51415677669754" lon="16.049041310683595"><ele>47.5</ele><time>2026-03-27T11:42:33Z</time></trkpt><trkpt lat="38.51390623563098" lon="16.048851195678502"><ele>47.0</ele><time>2026-03-27T11:42:34Z</time></trkpt><trkpt lat="38.51365968131991" lon="16.04865604683274"><ele>46.5</ele><time>2026-03-27T11:42:35Z</time></trkpt><trkpt lat="38.513419859511785" lon="16.048455505075573"><ele>46.0</ele><time>2026-03-27T11:42:36Z</time></trkpt><trkpt lat="38.51318408043482" lon="16.048250075455403"><ele>46.0</ele><time>2026-03-27T11:42:37Z</time></trkpt><trkpt lat="38.512951816092496" lon="16.04804071226928"><ele>46.0</ele><time>2026-03-27T11:42:38Z</time></trkpt><trkpt lat="38.51272416622058" lon="16.04782650664214"><ele>46.0</ele><time>2026-03-27T11:42:39Z</time></trkpt><trkpt lat="38.51250107061003" lon="16.047608193955867"><ele>46.0</ele><time>2026-03-27T11:42:40Z</time></trkpt><trkpt lat="38.51228491832092" lon="16.047384695610756"><ele>46.0</ele><time>2026-03-27T11:42:41Z</time></trkpt><trkpt lat="38.51207463406893" lon="16.047158517558138"><ele>46.0</ele><time>2026-03-27T11:42:42Z</time></trkpt><trkpt lat="38.51186776458306" lon="16.046929251739183"><ele>46.0</ele><time>2026-03-27T11:42:43Z</time></trkpt><trkpt lat="38.51166630088228" lon="16.046701677087675"><ele>46.0</ele><time>2026-03-27T11:42:44Z</time></trkpt><trkpt lat="38.511463290758016" lon="16.046474199691342"><ele>45.5</ele><time>2026-03-27T11:42:45Z</time></trkpt><trkpt lat="38.51125486574861" lon="16.04624587841505"><ele>45.0</ele><time>2026-03-27T11:42:46Z</time></trkpt><trkpt lat="38.51104340743587" lon="16.046009424333622"><ele>45.0</ele><time>2026-03-27T11:42:47Z</time></trkpt><trkpt lat="38.510832939168324" lon="16.045770344626877"><ele>45.0</ele><time>2026-03-27T11:42:48Z</time></trkpt><trkpt lat="38.51062647850463" lon="16.045531593297056"><ele>45.0</ele><time>2026-03-27T11:42:49Z</time></trkpt><trkpt lat="38.51042346806804" lon="16.045283838632052"><ele>45.0</ele><time>2026-03-27T11:42:50Z</time></trkpt><trkpt lat="38.51022482988055" lon="16.045031443039967"><ele>45.0</ele><time>2026-03-27T11:42:51Z</time></trkpt><trkpt lat="38.51002967020406" lon="16.044776979190278"><ele>45.0</ele><time>2026-03-27T11:42:52Z</time></trkpt><trkpt lat="38.50983516080332" lon="16.044524503281504"><ele>45.0</ele><time>2026-03-27T11:42:53Z</time></trkpt><trkpt lat="38.509641897818064" lon="16.044269269271446"><ele>45.0</ele><time>2026-03-27T11:42:54Z</time></trkpt><trkpt lat="38.50945229160044" lon="16.0440139251799"><ele>44.5</ele><time>2026-03-27T11:42:55Z</time></trkpt><trkpt lat="38.509264300950356" lon="16.043756535072145"><ele>44.0</ele><time>2026-03-27T11:42:56Z</time></trkpt><trkpt lat="38.509081782839104" lon="16.043491580457374"><ele>43.5</ele><time>2026-03-27T11:42:57Z</time></trkpt><trkpt lat="38.50890494908126" lon="16.04322136442708"><ele>43.0</ele><time>2026-03-27T11:42:58Z</time></trkpt><trkpt lat="38.508728664837875" lon="16.042948004817088"><ele>43.0</ele><time>2026-03-27T11:42:59Z</time></trkpt><trkpt lat="38.50855109725167" lon="16.042672118120535"><ele>43.0</ele><time>2026-03-27T11:43:00Z</time></trkpt><trkpt lat="38.508374976096206" lon="16.04239646990132"><ele>43.0</ele><time>2026-03-27T11:43:01Z</time></trkpt><trkpt lat="38.508197834136496" lon="16.04212276751512"><ele>43.0</ele><time>2026-03-27T11:43:02Z</time></trkpt><trkpt lat="38.508017552359924" lon="16.04184781443034"><ele>42.5</ele><time>2026-03-27T11:43:03Z</time></trkpt><trkpt lat="38.50783883161816" lon="16.041569715112793"><ele>42.0</ele><time>2026-03-27T11:43:04Z</time></trkpt><trkpt lat="38.50766091877506" lon="16.04128610756576"><ele>42.0</ele><time>2026-03-27T11:43:05Z</time></trkpt><trkpt lat="38.507482709868526" lon="16.041000988659615"><ele>42.0</ele><time>2026-03-27T11:43:06Z</time></trkpt><trkpt lat="38.50730483219137" lon="16.040715397442373"><ele>42.0</ele><time>2026-03-27T11:43:07Z</time></trkpt><trkpt lat="38.50712717922701" lon="16.040427636593982"><ele>42.0</ele><time>2026-03-27T11:43:08Z</time></trkpt><trkpt lat="38.50695135656735" lon="16.040140698836158"><ele>41.0</ele><time>2026-03-27T11:43:09Z</time></trkpt><trkpt lat="38.50677455329157" lon="16.03985221128942"><ele>40.0</ele><time>2026-03-27T11:43:10Z</time></trkpt><trkpt lat="38.50660012381309" lon="16.039562881766052"><ele>40.0</ele><time>2026-03-27T11:43:11Z</time></trkpt><trkpt lat="38.506424421959395" lon="16.039273828744196"><ele>40.0</ele><time>2026-03-27T11:43:12Z</time></trkpt><trkpt lat="38.50625034352243" lon="16.03898381113662"><ele>40.5</ele><time>2026-03-27T11:43:13Z</time></trkpt><trkpt lat="38.5060743278251" lon="16.038692526790886"><ele>41.0</ele><time>2026-03-27T11:43:14Z</time></trkpt><trkpt lat="38.505899426482365" lon="16.038402750082252"><ele>40.5</ele><time>2026-03-27T11:43:15Z</time></trkpt><trkpt lat="38.505724390336304" lon="16.0381121636362"><ele>40.0</ele><time>2026-03-27T11:43:16Z</time></trkpt><trkpt lat="38.5055471416092" lon="16.037825403454118"><ele>40.0</ele><time>2026-03-27T11:43:17Z</time></trkpt><trkpt lat="38.505371551726746" lon="16.0375377415326"><ele>40.0</ele><time>2026-03-27T11:43:18Z</time></trkpt><trkpt lat="38.50519883952628" lon="16.037247272471497"><ele>40.0</ele><time>2026-03-27T11:43:19Z</time></trkpt><trkpt lat="38.50502463265687" lon="16.036956287533634"><ele>40.0</ele><time>2026-03-27T11:43:20Z</time></trkpt><trkpt lat="38.50485030178162" lon="16.036667379278892"><ele>40.5</ele><time>2026-03-27T11:43:21Z</time></trkpt><trkpt lat="38.50467677388479" lon="16.036379150969683"><ele>41.0</ele><time>2026-03-27T11:43:22Z</time></trkpt><trkpt lat="38.5045011210419" lon="16.036090878849286"><ele>40.0</ele><time>2026-03-27T11:43:23Z</time></trkpt><trkpt lat="38.504327358022984" lon="16.035806833127598"><ele>39.0</ele><time>2026-03-27T11:43:24Z</time></trkpt><trkpt lat="38.50415503827426" lon="16.03552123962539"><ele>39.0</ele><time>2026-03-27T11:43:25Z</time></trkpt><trkpt lat="38.50398436446648" lon="16.035237522892505"><ele>39.0</ele><time>2026-03-27T11:43:26Z</time></trkpt><trkpt lat="38.50381226105891" lon="16.03495348141928"><ele>39.5</ele><time>2026-03-27T11:43:27Z</time></trkpt><trkpt lat="38.50364232875499" lon="16.03466833733014"><ele>40.0</ele><time>2026-03-27T11:43:28Z</time></trkpt><trkpt lat="38.50346992272648" lon="16.034382669068055"><ele>39.5</ele><time>2026-03-27T11:43:29Z</time></trkpt><trkpt lat="38.50329739180083" lon="16.03409787583028"><ele>39.0</ele><time>2026-03-27T11:43:30Z</time></trkpt><trkpt lat="38.50312501023872" lon="16.0338156938937"><ele>39.0</ele><time>2026-03-27T11:43:31Z</time></trkpt><trkpt lat="38.50295275792271" lon="16.03353413788299"><ele>39.0</ele><time>2026-03-27T11:43:32Z</time></trkpt><trkpt lat="38.502780767172766" lon="16.03324953883461"><ele>40.0</ele><time>2026-03-27T11:43:33Z</time></trkpt><trkpt lat="38.50261311660413" lon="16.032960466098196"><ele>41.0</ele><time>2026-03-27T11:43:34Z</time></trkpt><trkpt lat="38.502446227275165" lon="16.0326669214105"><ele>40.0</ele><time>2026-03-27T11:43:35Z</time></trkpt><trkpt lat="38.50227860915681" lon="16.0323708650446"><ele>39.0</ele><time>2026-03-27T11:43:36Z</time></trkpt><trkpt lat="38.50211419594955" lon="16.03206892040088"><ele>39.0</ele><time>2026-03-27T11:43:37Z</time></trkpt><trkpt lat="38.50195473571535" lon="16.03176225894476"><ele>39.0</ele><time>2026-03-27T11:43:38Z</time></trkpt><trkpt lat="38.50179822125845" lon="16.03144976144023"><ele>39.0</ele><time>2026-03-27T11:43:39Z</time></trkpt><trkpt lat="38.50164798363035" lon="16.031134664400525"><ele>39.0</ele><time>2026-03-27T11:43:40Z</time></trkpt><trkpt lat="38.50150449806274" lon="16.03081337636446"><ele>38.5</ele><time>2026-03-27T11:43:41Z</time></trkpt><trkpt lat="38.501370367629946" lon="16.030487743591927"><ele>38.0</ele><time>2026-03-27T11:43:42Z</time></trkpt><trkpt lat="38.50123752126154" lon="16.03016009572784"><ele>37.0</ele><time>2026-03-27T11:43:43Z</time></trkpt><trkpt lat="38.501112230949545" lon="16.029826162932178"><ele>36.0</ele><time>2026-03-27T11:43:44Z</time></trkpt><trkpt lat="38.50099177731385" lon="16.029484162095855"><ele>37.0</ele><time>2026-03-27T11:43:45Z</time></trkpt><trkpt lat="38.50088058627729" lon="16.029139391391272"><ele>38.0</ele><time>2026-03-27T11:43:46Z</time></trkpt><trkpt lat="38.50077905142591" lon="16.028792063160445"><ele>38.0</ele><time>2026-03-27T11:43:47Z</time></trkpt><trkpt lat="38.50068188610244" lon="16.028441282378925"><ele>38.0</ele><time>2026-03-27T11:43:48Z</time></trkpt><trkpt lat="38.50058932985306" lon="16.0280895874476"><ele>37.5</ele><time>2026-03-27T11:43:49Z</time></trkpt><trkpt lat="38.50049954563788" lon="16.027735380327943"><ele>37.0</ele><time>2026-03-27T11:43:50Z</time></trkpt><trkpt lat="38.50042182848191" lon="16.027376632668453"><ele>37.0</ele><time>2026-03-27T11:43:51Z</time></trkpt><trkpt lat="38.500350822543346" lon="16.027018359704634"><ele>37.0</ele><time>2026-03-27T11:43:52Z</time></trkpt><trkpt lat="38.500279216297386" lon="16.026661098657616"><ele>36.5</ele><time>2026-03-27T11:43:53Z</time></trkpt><trkpt lat="38.5002084573246" lon="16.026305167425672"><ele>36.0</ele><time>2026-03-27T11:43:54Z</time></trkpt><trkpt lat="38.50013998584683" lon="16.025948719698956"><ele>35.5</ele><time>2026-03-27T11:43:55Z</time></trkpt><trkpt lat="38.50007277364099" lon="16.0255936998014"><ele>35.0</ele><time>2026-03-27T11:43:56Z</time></trkpt><trkpt lat="38.5000058501497" lon="16.025237788824317"><ele>35.0</ele><time>2026-03-27T11:43:57Z</time></trkpt><trkpt lat="38.49994041263296" lon="16.024881136210148"><ele>35.0</ele><time>2026-03-27T11:43:58Z</time></trkpt><trkpt lat="38.49987379139467" lon="16.02452300714253"><ele>35.0</ele><time>2026-03-27T11:43:59Z</time></trkpt><trkpt lat="38.49980705059535" lon="16.02416412635875"><ele>35.0</ele><time>2026-03-27T11:44:00Z</time></trkpt><trkpt lat="38.499740149282225" lon="16.02380635510523"><ele>35.5</ele><time>2026-03-27T11:44:01Z</time></trkpt><trkpt lat="38.49967149694135" lon="16.023447366977184"><ele>36.0</ele><time>2026-03-27T11:44:02Z</time></trkpt><trkpt lat="38.499602133300264" lon="16.02308894254984"><ele>35.0</ele><time>2026-03-27T11:44:03Z</time></trkpt><trkpt lat="38.49953084683186" lon="16.022731483309816"><ele>34.0</ele><time>2026-03-27T11:44:04Z</time></trkpt><trkpt lat="38.499459731549734" lon="16.02237852743549"><ele>33.0</ele><time>2026-03-27T11:44:05Z</time></trkpt><trkpt lat="38.49938457017893" lon="16.022032812865085"><ele>32.0</ele><time>2026-03-27T11:44:06Z</time></trkpt><trkpt lat="38.49930614199594" lon="16.021689057792017"><ele>33.0</ele><time>2026-03-27T11:44:07Z</time></trkpt><trkpt lat="38.49922623174631" lon="16.02134333795734"><ele>34.0</ele><time>2026-03-27T11:44:08Z</time></trkpt><trkpt lat="38.49914019877119" lon="16.021003629420502"><ele>34.0</ele><time>2026-03-27T11:44:09Z</time></trkpt><trkpt lat="38.499047797647236" lon="16.02066751454315"><ele>34.0</ele><time>2026-03-27T11:44:10Z</time></trkpt><trkpt lat="38.49895290418278" lon="16.02033693977"><ele>34.0</ele><time>2026-03-27T11:44:11Z</time></trkpt><trkpt lat="38.498855165960784" lon="16.020005707731396"><ele>34.0</ele><time>2026-03-27T11:44:12Z</time></trkpt><trkpt lat="38.49875332606086" lon="16.019678162490234"><ele>35.5</ele><time>2026-03-27T11:44:13Z</time></trkpt><trkpt lat="38.49864537094829" lon="16.019356678490833"><ele>37.0</ele><time>2026-03-27T11:44:14Z</time></trkpt><trkpt lat="38.49853322808869" lon="16.019036342960472"><ele>34.0</ele><time>2026-03-27T11:44:15Z</time></trkpt><trkpt lat="38.49841503932387" lon="16.018721444969213"><ele>31.0</ele><time>2026-03-27T11:44:16Z</time></trkpt><trkpt lat="38.49829288141736" lon="16.018410543206933"><ele>30.5</ele><time>2026-03-27T11:44:17Z</time></trkpt><trkpt lat="38.49816978165438" lon="16.018100774032575"><ele>30.0</ele><time>2026-03-27T11:44:18Z</time></trkpt><trkpt lat="38.498046494226436" lon="16.017796933038106"><ele>30.0</ele><time>2026-03-27T11:44:19Z</time></trkpt><trkpt lat="38.49792063707869" lon="16.01749931370586"><ele>30.0</ele><time>2026-03-27T11:44:20Z</time></trkpt><trkpt lat="38.49779086148243" lon="16.017201892229483"><ele>31.5</ele><time>2026-03-27T11:44:21Z</time></trkpt><trkpt lat="38.497658356592225" lon="16.016905853064852"><ele>33.0</ele><time>2026-03-27T11:44:22Z</time></trkpt><trkpt lat="38.49752167556208" lon="16.016613203714424"><ele>33.0</ele><time>2026-03-27T11:44:23Z</time></trkpt><trkpt lat="38.49738147075718" lon="16.01632129038283"><ele>33.0</ele><time>2026-03-27T11:44:24Z</time></trkpt><trkpt lat="38.49724015037693" lon="16.01602962047586"><ele>33.0</ele><time>2026-03-27T11:44:25Z</time></trkpt><trkpt lat="38.49709993468461" lon="16.015735709101182"><ele>33.0</ele><time>2026-03-27T11:44:26Z</time></trkpt><trkpt lat="38.496959912840126" lon="16.015440275348578"><ele>35.0</ele><time>2026-03-27T11:44:27Z</time></trkpt><trkpt lat="38.49681345206883" lon="16.015149945637507"><ele>37.0</ele><time>2026-03-27T11:44:28Z</time></trkpt><trkpt lat="38.4966562268498" lon="16.014869822585542"><ele>37.0</ele><time>2026-03-27T11:44:29Z</time></trkpt><trkpt lat="38.496491271851205" lon="16.0145990976903"><ele>37.0</ele><time>2026-03-27T11:44:30Z</time></trkpt><trkpt lat="38.49632019187598" lon="16.014336890017365"><ele>39.0</ele><time>2026-03-27T11:44:31Z</time></trkpt><trkpt lat="38.49614355714817" lon="16.01407647959676"><ele>41.0</ele><time>2026-03-27T11:44:32Z</time></trkpt><trkpt lat="38.49595852119747" lon="16.013823503484353"><ele>41.0</ele><time>2026-03-27T11:44:33Z</time></trkpt><trkpt lat="38.49576531101614" lon="16.01357856686977"><ele>41.0</ele><time>2026-03-27T11:44:34Z</time></trkpt><trkpt lat="38.49556562501264" lon="16.013341494419457"><ele>43.0</ele><time>2026-03-27T11:44:35Z</time></trkpt><trkpt lat="38.495356778356765" lon="16.0131108069366"><ele>45.0</ele><time>2026-03-27T11:44:36Z</time></trkpt><trkpt lat="38.49515170537227" lon="16.012877807084354"><ele>45.0</ele><time>2026-03-27T11:44:37Z</time></trkpt><trkpt lat="38.49494499692378" lon="16.012645418032555"><ele>45.0</ele><time>2026-03-27T11:44:38Z</time></trkpt><trkpt lat="38.49473092467869" lon="16.012418605323944"><ele>44.5</ele><time>2026-03-27T11:44:39Z</time></trkpt><trkpt lat="38.494508870657896" lon="16.01220047853645"><ele>44.0</ele><time>2026-03-27T11:44:40Z</time></trkpt><trkpt lat="38.49427979175797" lon="16.011988009488736"><ele>44.0</ele><time>2026-03-27T11:44:41Z</time></trkpt><trkpt lat="38.494044562141774" lon="16.011785251577532"><ele>44.0</ele><time>2026-03-27T11:44:42Z</time></trkpt><trkpt lat="38.49380509385646" lon="16.011590693271188"><ele>40.0</ele><time>2026-03-27T11:44:43Z</time></trkpt><trkpt lat="38.49356619513455" lon="16.01140474144165"><ele>36.0</ele><time>2026-03-27T11:44:44Z</time></trkpt><trkpt lat="38.49332290977348" lon="16.011229162779056"><ele>36.0</ele><time>2026-03-27T11:44:45Z</time></trkpt><trkpt lat="38.493075171156704" lon="16.011062007373468"><ele>36.0</ele><time>2026-03-27T11:44:46Z</time></trkpt><trkpt lat="38.49282496362838" lon="16.01089953901223"><ele>35.0</ele><time>2026-03-27T11:44:47Z</time></trkpt><trkpt lat="38.492573077027615" lon="16.010741153009306"><ele>34.0</ele><time>2026-03-27T11:44:48Z</time></trkpt><trkpt lat="38.49232122726008" lon="16.0105871687013"><ele>33.0</ele><time>2026-03-27T11:44:49Z</time></trkpt><trkpt lat="38.492067315199634" lon="16.01043405007855"><ele>32.0</ele><time>2026-03-27T11:44:50Z</time></trkpt><trkpt lat="38.49181602783697" lon="16.01028403917693"><ele>32.0</ele><time>2026-03-27T11:44:51Z</time></trkpt><trkpt lat="38.49156450751457" lon="16.010133799114417"><ele>32.0</ele><time>2026-03-27T11:44:52Z</time></trkpt><trkpt lat="38.491312948366826" lon="16.009980337670616"><ele>31.5</ele><time>2026-03-27T11:44:53Z</time></trkpt><trkpt lat="38.49106202461456" lon="16.009828324783097"><ele>31.0</ele><time>2026-03-27T11:44:54Z</time></trkpt><trkpt lat="38.490809870683535" lon="16.009676221638646"><ele>31.0</ele><time>2026-03-27T11:44:55Z</time></trkpt><trkpt lat="38.4905585617425" lon="16.009520872961314"><ele>31.0</ele><time>2026-03-27T11:44:56Z</time></trkpt><trkpt lat="38.49030915863261" lon="16.00936079318558"><ele>32.0</ele><time>2026-03-27T11:44:57Z</time></trkpt><trkpt lat="38.49006606379051" lon="16.00919181218085"><ele>33.0</ele><time>2026-03-27T11:44:58Z</time></trkpt><trkpt lat="38.48982698194991" lon="16.009013448703197"><ele>33.0</ele><time>2026-03-27T11:44:59Z</time></trkpt><trkpt lat="38.48959570451364" lon="16.00882948112713"><ele>33.0</ele><time>2026-03-27T11:45:00Z</time></trkpt><trkpt lat="38.489369035559804" lon="16.00863732064652"><ele>32.5</ele><time>2026-03-27T11:45:01Z</time></trkpt><trkpt lat="38.48914805674485" lon="16.008434912353703"><ele>32.0</ele><time>2026-03-27T11:45:02Z</time></trkpt><trkpt lat="38.48893234389528" lon="16.008228280134247"><ele>30.5</ele><time>2026-03-27T11:45:03Z</time></trkpt><trkpt lat="38.488720186699375" lon="16.0080128440038"><ele>29.0</ele><time>2026-03-27T11:45:04Z</time></trkpt><trkpt lat="38.488516256148436" lon="16.007790320738426"><ele>29.0</ele><time>2026-03-27T11:45:05Z</time></trkpt><trkpt lat="38.48832026216235" lon="16.007562014534287"><ele>29.0</ele><time>2026-03-27T11:45:06Z</time></trkpt><trkpt lat="38.488136187602876" lon="16.007323657574496"><ele>29.0</ele><time>2026-03-27T11:45:07Z</time></trkpt><trkpt lat="38.48795598233712" lon="16.00708439372255"><ele>29.0</ele><time>2026-03-27T11:45:08Z</time></trkpt><trkpt lat="38.48778029528141" lon="16.00684298512378"><ele>30.0</ele><time>2026-03-27T11:45:09Z</time></trkpt><trkpt lat="38.487607535825234" lon="16.006599303418305"><ele>31.0</ele><time>2026-03-27T11:45:10Z</time></trkpt><trkpt lat="38.48743509333787" lon="16.00635462424237"><ele>31.0</ele><time>2026-03-27T11:45:11Z</time></trkpt><trkpt lat="38.487267547878616" lon="16.00610880451896"><ele>31.0</ele><time>2026-03-27T11:45:12Z</time></trkpt><trkpt lat="38.487099644939896" lon="16.005859508069246"><ele>31.0</ele><time>2026-03-27T11:45:13Z</time></trkpt><trkpt lat="38.486933474885355" lon="16.005605104447724"><ele>31.0</ele><time>2026-03-27T11:45:14Z</time></trkpt><trkpt lat="38.486767152187205" lon="16.005345910420054"><ele>31.0</ele><time>2026-03-27T11:45:15Z</time></trkpt><trkpt lat="38.48659857211806" lon="16.005089024983256"><ele>31.0</ele><time>2026-03-27T11:45:16Z</time></trkpt><trkpt lat="38.486426435702015" lon="16.004839671769663"><ele>30.5</ele><time>2026-03-27T11:45:17Z</time></trkpt><trkpt lat="38.4862458639749" lon="16.00459715287532"><ele>30.0</ele><time>2026-03-27T11:45:18Z</time></trkpt><trkpt lat="38.48605913596656" lon="16.00436215522414"><ele>30.5</ele><time>2026-03-27T11:45:19Z</time></trkpt><trkpt lat="38.48586677698001" lon="16.004134873918446"><ele>31.0</ele><time>2026-03-27T11:45:20Z</time></trkpt><trkpt lat="38.48567033592971" lon="16.00391611557311"><ele>31.0</ele><time>2026-03-27T11:45:21Z</time></trkpt><trkpt lat="38.48546569103791" lon="16.0037049935795"><ele>31.0</ele><time>2026-03-27T11:45:22Z</time></trkpt><trkpt lat="38.48525566540029" lon="16.003502025655155"><ele>32.5</ele><time>2026-03-27T11:45:23Z</time></trkpt><trkpt lat="38.48504091147691" lon="16.00330668946653"><ele>34.0</ele><time>2026-03-27T11:45:24Z</time></trkpt><trkpt lat="38.48482081161891" lon="16.003120181837"><ele>34.0</ele><time>2026-03-27T11:45:25Z</time></trkpt><trkpt lat="38.48460014755369" lon="16.002941689863395"><ele>34.0</ele><time>2026-03-27T11:45:26Z</time></trkpt><trkpt lat="38.48437426060936" lon="16.00277212449041"><ele>36.5</ele><time>2026-03-27T11:45:27Z</time></trkpt><trkpt lat="38.484144763714994" lon="16.002615061573405"><ele>39.0</ele><time>2026-03-27T11:45:28Z</time></trkpt><trkpt lat="38.48391315137941" lon="16.00246651099094"><ele>44.0</ele><time>2026-03-27T11:45:29Z</time></trkpt><trkpt lat="38.48368026395751" lon="16.00232536779128"><ele>49.0</ele><time>2026-03-27T11:45:30Z</time></trkpt><trkpt lat="38.48344611450933" lon="16.00218826509625"><ele>49.0</ele><time>2026-03-27T11:45:31Z</time></trkpt><trkpt lat="38.48320794304346" lon="16.00206289345696"><ele>49.0</ele><time>2026-03-27T11:45:32Z</time></trkpt><trkpt lat="38.482965036204064" lon="16.00194890137942"><ele>50.0</ele><time>2026-03-27T11:45:33Z</time></trkpt><trkpt lat="38.48271900725068" lon="16.001840347516605"><ele>51.0</ele><time>2026-03-27T11:45:34Z</time></trkpt><trkpt lat="38.48246937196993" lon="16.00173639633684"><ele>52.0</ele><time>2026-03-27T11:45:35Z</time></trkpt><trkpt lat="38.48221981864041" lon="16.00164002735621"><ele>53.0</ele><time>2026-03-27T11:45:36Z</time></trkpt><trkpt lat="38.48196812961961" lon="16.00154908322654"><ele>53.0</ele><time>2026-03-27T11:45:37Z</time></trkpt><trkpt lat="38.48171410006964" lon="16.00146332295226"><ele>53.0</ele><time>2026-03-27T11:45:38Z</time></trkpt><trkpt lat="38.48145910574488" lon="16.001376494750602"><ele>49.5</ele><time>2026-03-27T11:45:39Z</time></trkpt><trkpt lat="38.48120270080528" lon="16.00129352888623"><ele>46.0</ele><time>2026-03-27T11:45:40Z</time></trkpt><trkpt lat="38.480946338578846" lon="16.001215418461808"><ele>46.0</ele><time>2026-03-27T11:45:41Z</time></trkpt><trkpt lat="38.48068925146941" lon="16.00113444906585"><ele>46.0</ele><time>2026-03-27T11:45:42Z</time></trkpt><trkpt lat="38.48043003791052" lon="16.001053515892334"><ele>42.0</ele><time>2026-03-27T11:45:43Z</time></trkpt><trkpt lat="38.480170889436344" lon="16.00097087195503"><ele>38.0</ele><time>2026-03-27T11:45:44Z</time></trkpt><trkpt lat="38.47991090178285" lon="16.000887070617182"><ele>37.0</ele><time>2026-03-27T11:45:45Z</time></trkpt><trkpt lat="38.47964949069339" lon="16.000799845629576"><ele>36.0</ele><time>2026-03-27T11:45:46Z</time></trkpt><trkpt lat="38.47939080181132" lon="16.000707928646406"><ele>34.0</ele><time>2026-03-27T11:45:47Z</time></trkpt><trkpt lat="38.479133012506566" lon="16.000611847093644"><ele>32.0</ele><time>2026-03-27T11:45:48Z</time></trkpt><trkpt lat="38.4788759066389" lon="16.000513417353172"><ele>33.5</ele><time>2026-03-27T11:45:49Z</time></trkpt><trkpt lat="38.47861907906171" lon="16.000411701177086"><ele>35.0</ele><time>2026-03-27T11:45:50Z</time></trkpt><trkpt lat="38.47836377241163" lon="16.000306563319047"><ele>35.0</ele><time>2026-03-27T11:45:51Z</time></trkpt><trkpt lat="38.478110249577696" lon="16.000194011705464"><ele>35.0</ele><time>2026-03-27T11:45:52Z</time></trkpt><trkpt lat="38.477858729254415" lon="16.0000707015813"><ele>34.5</ele><time>2026-03-27T11:45:53Z</time></trkpt><trkpt lat="38.47760944609487" lon="15.999939533259203"><ele>34.0</ele><time>2026-03-27T11:45:54Z</time></trkpt><trkpt lat="38.477362302718184" lon="15.999799493236328"><ele>34.0</ele><time>2026-03-27T11:45:55Z</time></trkpt><trkpt lat="38.477118504463824" lon="15.999654635919082"><ele>34.0</ele><time>2026-03-27T11:45:56Z</time></trkpt><trkpt lat="38.476875273531434" lon="15.99950750694152"><ele>35.0</ele><time>2026-03-27T11:45:57Z</time></trkpt><trkpt lat="38.476633661136134" lon="15.999358019390302"><ele>36.0</ele><time>2026-03-27T11:45:58Z</time></trkpt><trkpt lat="38.476394041333506" lon="15.99920242773295"><ele>34.5</ele><time>2026-03-27T11:45:59Z</time></trkpt><trkpt lat="38.47615560787776" lon="15.999040433579612"><ele>33.0</ele><time>2026-03-27T11:46:00Z</time></trkpt><trkpt lat="38.475918729738716" lon="15.998872376208663"><ele>33.0</ele><time>2026-03-27T11:46:01Z</time></trkpt><trkpt lat="38.47568533144759" lon="15.998700920175626"><ele>33.0</ele><time>2026-03-27T11:46:02Z</time></trkpt><trkpt lat="38.47545455432819" lon="15.998530857973018"><ele>34.0</ele><time>2026-03-27T11:46:03Z</time></trkpt><trkpt lat="38.475223948511996" lon="15.998360341424005"><ele>35.0</ele><time>2026-03-27T11:46:04Z</time></trkpt><trkpt lat="38.47499512932884" lon="15.998188705501335"><ele>35.5</ele><time>2026-03-27T11:46:05Z</time></trkpt><trkpt lat="38.47476641723167" lon="15.998015627970886"><ele>36.0</ele><time>2026-03-27T11:46:06Z</time></trkpt><trkpt lat="38.47453851765631" lon="15.997840984347514"><ele>35.0</ele><time>2026-03-27T11:46:07Z</time></trkpt><trkpt lat="38.47431050432532" lon="15.99766540818424"><ele>34.0</ele><time>2026-03-27T11:46:08Z</time></trkpt><trkpt lat="38.47408225122571" lon="15.997487399702543"><ele>34.0</ele><time>2026-03-27T11:46:09Z</time></trkpt><trkpt lat="38.47385259101183" lon="15.997310127661285"><ele>34.0</ele><time>2026-03-27T11:46:10Z</time></trkpt><trkpt lat="38.47362176240295" lon="15.99713434656909"><ele>34.5</ele><time>2026-03-27T11:46:11Z</time></trkpt><trkpt lat="38.473391907041645" lon="15.996956984510085"><ele>35.0</ele><time>2026-03-27T11:46:12Z</time></trkpt><trkpt lat="38.47316505299184" lon="15.996775291176368"><ele>35.5</ele><time>2026-03-27T11:46:13Z</time></trkpt><trkpt lat="38.47294419714233" lon="15.996587040891304"><ele>36.0</ele><time>2026-03-27T11:46:14Z</time></trkpt><trkpt lat="38.47272825515361" lon="15.996394161006002"><ele>36.0</ele><time>2026-03-27T11:46:15Z</time></trkpt><trkpt lat="38.47251508514293" lon="15.996193324378291"><ele>36.0</ele><time>2026-03-27T11:46:16Z</time></trkpt><trkpt lat="38.47230726279052" lon="15.99598515024079"><ele>35.0</ele><time>2026-03-27T11:46:17Z</time></trkpt><trkpt lat="38.47210370922295" lon="15.995769737310109"><ele>34.0</ele><time>2026-03-27T11:46:18Z</time></trkpt><trkpt lat="38.471901767108236" lon="15.99554835378757"><ele>34.0</ele><time>2026-03-27T11:46:19Z</time></trkpt><trkpt lat="38.471704613807866" lon="15.995323404401157"><ele>34.0</ele><time>2026-03-27T11:46:20Z</time></trkpt><trkpt lat="38.47151146696775" lon="15.9950923432953"><ele>34.0</ele><time>2026-03-27T11:46:21Z</time></trkpt><trkpt lat="38.471323513054514" lon="15.994854546315029"><ele>34.0</ele><time>2026-03-27T11:46:22Z</time></trkpt><trkpt lat="38.47114361842648" lon="15.994607808891956"><ele>33.5</ele><time>2026-03-27T11:46:23Z</time></trkpt><trkpt lat="38.47097349141057" lon="15.994353008300669"><ele>33.0</ele><time>2026-03-27T11:46:24Z</time></trkpt><trkpt lat="38.47081254193118" lon="15.994093379102823"><ele>33.0</ele><time>2026-03-27T11:46:25Z</time></trkpt><trkpt lat="38.47065247529068" lon="15.993832758498984"><ele>33.0</ele><time>2026-03-27T11:46:26Z</time></trkpt><trkpt lat="38.470501442404164" lon="15.993566934896526"><ele>32.0</ele><time>2026-03-27T11:46:27Z</time></trkpt><trkpt lat="38.47035261534085" lon="15.993301530207187"><ele>31.0</ele><time>2026-03-27T11:46:28Z</time></trkpt><trkpt lat="38.47020805943981" lon="15.993032965311563"><ele>31.0</ele><time>2026-03-27T11:46:29Z</time></trkpt><trkpt lat="38.47006702999557" lon="15.992764364565534"><ele>31.0</ele><time>2026-03-27T11:46:30Z</time></trkpt><trkpt lat="38.469927368578496" lon="15.992493015674837"><ele>32.0</ele><time>2026-03-27T11:46:31Z</time></trkpt><trkpt lat="38.469787022232815" lon="15.992221732680497"><ele>33.0</ele><time>2026-03-27T11:46:32Z</time></trkpt><trkpt lat="38.46964666492233" lon="15.991953827543114"><ele>42.5</ele><time>2026-03-27T11:46:33Z</time></trkpt><trkpt lat="38.46950477955027" lon="15.991685530101027"><ele>52.0</ele><time>2026-03-27T11:46:34Z</time></trkpt><trkpt lat="38.46936478197484" lon="15.99141668327892"><ele>55.0</ele><time>2026-03-27T11:46:35Z</time></trkpt><trkpt lat="38.46922379442812" lon="15.991148589669276"><ele>58.0</ele><time>2026-03-27T11:46:36Z</time></trkpt><trkpt lat="38.46907979363323" lon="15.990876234016818"><ele>60.0</ele><time>2026-03-27T11:46:37Z</time></trkpt><trkpt lat="38.46893283487127" lon="15.99060259524948"><ele>62.0</ele><time>2026-03-27T11:46:38Z</time></trkpt><trkpt lat="38.46878244048806" lon="15.990328411147575"><ele>61.5</ele><time>2026-03-27T11:46:39Z</time></trkpt><trkpt lat="38.468631830419916" lon="15.990053716091973"><ele>61.0</ele><time>2026-03-27T11:46:40Z</time></trkpt><trkpt lat="38.468481549348745" lon="15.989780729667636"><ele>61.0</ele><time>2026-03-27T11:46:41Z</time></trkpt><trkpt lat="38.46833207549757" lon="15.98950566343664"><ele>61.0</ele><time>2026-03-27T11:46:42Z</time></trkpt><trkpt lat="38.46817399567076" lon="15.989203676938951"><ele>60.0</ele><time>2026-03-27T11:46:43Z</time></trkpt><trkpt lat="38.467996981565534" lon="15.988915928181504"><ele>59.0</ele><time>2026-03-27T11:46:44Z</time></trkpt><trkpt lat="38.46785404434042" lon="15.988620613664779"><ele>57.0</ele><time>2026-03-27T11:46:45Z</time></trkpt><trkpt lat="38.46769804229319" lon="15.98833397127448"><ele>55.0</ele><time>2026-03-27T11:46:46Z</time></trkpt><trkpt lat="38.46754281810698" lon="15.988050897536352"><ele>55.0</ele><time>2026-03-27T11:46:47Z</time></trkpt><trkpt lat="38.467388996652616" lon="15.987765198913213"><ele>55.0</ele><time>2026-03-27T11:46:48Z</time></trkpt><trkpt lat="38.467235280067385" lon="15.987478488241333"><ele>55.5</ele><time>2026-03-27T11:46:49Z</time></trkpt><trkpt lat="38.46707940273193" lon="15.987192844674135"><ele>56.0</ele><time>2026-03-27T11:46:50Z</time></trkpt><trkpt lat="38.46692272648474" lon="15.986905255358662"><ele>56.5</ele><time>2026-03-27T11:46:51Z</time></trkpt><trkpt lat="38.46676508627029" lon="15.98661838550656"><ele>57.0</ele><time>2026-03-27T11:46:52Z</time></trkpt><trkpt lat="38.46660990043996" lon="15.986332673879579"><ele>57.0</ele><time>2026-03-27T11:46:53Z</time></trkpt><trkpt lat="38.466455519026525" lon="15.986045841784184"><ele>57.0</ele><time>2026-03-27T11:46:54Z</time></trkpt><trkpt lat="38.466301048291335" lon="15.985759373678322"><ele>59.0</ele><time>2026-03-27T11:46:55Z</time></trkpt><trkpt lat="38.46614716543407" lon="15.985475059751847"><ele>61.0</ele><time>2026-03-27T11:46:56Z</time></trkpt><trkpt lat="38.46599379489177" lon="15.985192060380731"><ele>60.0</ele><time>2026-03-27T11:46:57Z</time></trkpt><trkpt lat="38.46583961969084" lon="15.984909393895709"><ele>59.0</ele><time>2026-03-27T11:46:58Z</time></trkpt><trkpt lat="38.46568485048837" lon="15.98462517343807"><ele>59.0</ele><time>2026-03-27T11:46:59Z</time></trkpt><trkpt lat="38.465529282567644" lon="15.984339822463289"><ele>59.0</ele><time>2026-03-27T11:47:00Z</time></trkpt><trkpt lat="38.465372871400554" lon="15.984054847394457"><ele>62.5</ele><time>2026-03-27T11:47:01Z</time></trkpt><trkpt lat="38.465213836416346" lon="15.983770190339879"><ele>66.0</ele><time>2026-03-27T11:47:02Z</time></trkpt><trkpt lat="38.465051610152294" lon="15.983488079198333"><ele>63.5</ele><time>2026-03-27T11:47:03Z</time></trkpt><trkpt lat="38.46488795441392" lon="15.983208079709016"><ele>61.0</ele><time>2026-03-27T11:47:04Z</time></trkpt><trkpt lat="38.46472011399777" lon="15.982931220764849"><ele>62.0</ele><time>2026-03-27T11:47:05Z</time></trkpt><trkpt lat="38.464547341339696" lon="15.982657306118165"><ele>63.0</ele><time>2026-03-27T11:47:06Z</time></trkpt><trkpt lat="38.46436889226368" lon="15.982386483406007"><ele>63.0</ele><time>2026-03-27T11:47:07Z</time></trkpt><trkpt lat="38.46418521338339" lon="15.982118080716813"><ele>63.0</ele><time>2026-03-27T11:47:08Z</time></trkpt><trkpt lat="38.463997974696866" lon="15.981853434403648"><ele>62.0</ele><time>2026-03-27T11:47:09Z</time></trkpt><trkpt lat="38.46380630470906" lon="15.98159067455381"><ele>61.0</ele><time>2026-03-27T11:47:10Z</time></trkpt><trkpt lat="38.4636073454469" lon="15.981331448826188"><ele>62.5</ele><time>2026-03-27T11:47:11Z</time></trkpt><trkpt lat="38.46340418129992" lon="15.981079554065685"><ele>64.0</ele><time>2026-03-27T11:47:12Z</time></trkpt><trkpt lat="38.463191745217955" lon="15.980829204383685"><ele>64.0</ele><time>2026-03-27T11:47:13Z</time></trkpt><trkpt lat="38.46297952312377" lon="15.980586232774304"><ele>64.0</ele><time>2026-03-27T11:47:14Z</time></trkpt><trkpt lat="38.46277784626213" lon="15.980360431592501"><ele>65.0</ele><time>2026-03-27T11:47:15Z</time></trkpt><trkpt lat="38.46256632529059" lon="15.980121963557046"><ele>66.0</ele><time>2026-03-27T11:47:16Z</time></trkpt><trkpt lat="38.46235516450637" lon="15.979895951836008"><ele>66.0</ele><time>2026-03-27T11:47:17Z</time></trkpt><trkpt lat="38.46214205139584" lon="15.979670299663361"><ele>66.0</ele><time>2026-03-27T11:47:18Z</time></trkpt><trkpt lat="38.461929750812004" lon="15.979443371497196"><ele>66.0</ele><time>2026-03-27T11:47:19Z</time></trkpt><trkpt lat="38.46171601207436" lon="15.979217659882135"><ele>66.0</ele><time>2026-03-27T11:47:20Z</time></trkpt><trkpt lat="38.46150283033756" lon="15.97899238372476"><ele>66.0</ele><time>2026-03-27T11:47:21Z</time></trkpt><trkpt lat="38.46128876696208" lon="15.978769210737415"><ele>66.0</ele><time>2026-03-27T11:47:22Z</time></trkpt><trkpt lat="38.4610749073495" lon="15.97854629468077"><ele>66.0</ele><time>2026-03-27T11:47:23Z</time></trkpt><trkpt lat="38.46086238090054" lon="15.978321545297915"><ele>66.0</ele><time>2026-03-27T11:47:24Z</time></trkpt><trkpt lat="38.46065022041684" lon="15.978097861094433"><ele>68.0</ele><time>2026-03-27T11:47:25Z</time></trkpt><trkpt lat="38.460435068356" lon="15.977873696244625"><ele>70.0</ele><time>2026-03-27T11:47:26Z</time></trkpt><trkpt lat="38.46021976312172" lon="15.977648381234491"><ele>70.0</ele><time>2026-03-27T11:47:27Z</time></trkpt><trkpt lat="38.460002517702904" lon="15.977420655754097"><ele>70.0</ele><time>2026-03-27T11:47:28Z</time></trkpt><trkpt lat="38.45978395328632" lon="15.977189724963447"><ele>72.0</ele><time>2026-03-27T11:47:29Z</time></trkpt><trkpt lat="38.45956746237569" lon="15.976960555062016"><ele>74.0</ele><time>2026-03-27T11:47:30Z</time></trkpt><trkpt lat="38.45935261448497" lon="15.976733803716362"><ele>74.0</ele><time>2026-03-27T11:47:31Z</time></trkpt><trkpt lat="38.45913788411346" lon="15.976511324172943"><ele>74.0</ele><time>2026-03-27T11:47:32Z</time></trkpt><trkpt lat="38.45892337785772" lon="15.97628819770444"><ele>74.5</ele><time>2026-03-27T11:47:33Z</time></trkpt><trkpt lat="38.45871364077061" lon="15.976071564367006"><ele>75.0</ele><time>2026-03-27T11:47:34Z</time></trkpt><trkpt lat="38.458505869212836" lon="15.975857013495473"><ele>75.0</ele><time>2026-03-27T11:47:35Z</time></trkpt><trkpt lat="38.45827385464984" lon="15.975609200275624"><ele>75.0</ele><time>2026-03-27T11:47:36Z</time></trkpt><trkpt lat="38.45806161371937" lon="15.975385275818988"><ele>75.5</ele><time>2026-03-27T11:47:37Z</time></trkpt><trkpt lat="38.45785035351702" lon="15.975157643606526"><ele>76.0</ele><time>2026-03-27T11:47:38Z</time></trkpt><trkpt lat="38.45763643328317" lon="15.97493152015205"><ele>75.0</ele><time>2026-03-27T11:47:39Z</time></trkpt><trkpt lat="38.457423546646226" lon="15.974709340272268"><ele>74.0</ele><time>2026-03-27T11:47:40Z</time></trkpt><trkpt lat="38.45720884003704" lon="15.974487876730329"><ele>74.5</ele><time>2026-03-27T11:47:41Z</time></trkpt><trkpt lat="38.4569965575254" lon="15.974268527076616"><ele>75.0</ele><time>2026-03-27T11:47:42Z</time></trkpt><trkpt lat="38.45678177156825" lon="15.974045431232216"><ele>74.0</ele><time>2026-03-27T11:47:43Z</time></trkpt><trkpt lat="38.45656446046162" lon="15.973809025914607"><ele>73.0</ele><time>2026-03-27T11:47:44Z</time></trkpt><trkpt lat="38.45634568070892" lon="15.973579281915795"><ele>73.0</ele><time>2026-03-27T11:47:45Z</time></trkpt><trkpt lat="38.45612547886164" lon="15.973344419847216"><ele>73.0</ele><time>2026-03-27T11:47:46Z</time></trkpt><trkpt lat="38.45590212972149" lon="15.973112858307484"><ele>73.0</ele><time>2026-03-27T11:47:47Z</time></trkpt><trkpt lat="38.455683240611" lon="15.972880623528335"><ele>73.0</ele><time>2026-03-27T11:47:48Z</time></trkpt><trkpt lat="38.455461424843556" lon="15.972647702511312"><ele>72.5</ele><time>2026-03-27T11:47:49Z</time></trkpt><trkpt lat="38.455238733372084" lon="15.972407040557508"><ele>72.0</ele><time>2026-03-27T11:47:50Z</time></trkpt><trkpt lat="38.45501648323941" lon="15.97217296293556"><ele>72.0</ele><time>2026-03-27T11:47:51Z</time></trkpt><trkpt lat="38.45479452544406" lon="15.971935652733922"><ele>72.0</ele><time>2026-03-27T11:47:52Z</time></trkpt><trkpt lat="38.454568708015024" lon="15.971694021042223"><ele>70.0</ele><time>2026-03-27T11:47:53Z</time></trkpt><trkpt lat="38.454348153518616" lon="15.97145396754668"><ele>68.0</ele><time>2026-03-27T11:47:54Z</time></trkpt><trkpt lat="38.4541276883681" lon="15.97120571966777"><ele>68.0</ele><time>2026-03-27T11:47:55Z</time></trkpt><trkpt lat="38.45391532529534" lon="15.970948898175745"><ele>68.0</ele><time>2026-03-27T11:47:56Z</time></trkpt><trkpt lat="38.453703612310235" lon="15.970697354654176"><ele>68.0</ele><time>2026-03-27T11:47:57Z</time></trkpt><trkpt lat="38.453492253748465" lon="15.970438798644691"><ele>68.0</ele><time>2026-03-27T11:47:58Z</time></trkpt><trkpt lat="38.453284379868165" lon="15.97017424516598"><ele>68.0</ele><time>2026-03-27T11:47:59Z</time></trkpt><trkpt lat="38.45308007824807" lon="15.969907078494012"><ele>68.0</ele><time>2026-03-27T11:48:00Z</time></trkpt><trkpt lat="38.45287780730098" lon="15.969636411584007"><ele>69.0</ele><time>2026-03-27T11:48:01Z</time></trkpt><trkpt lat="38.45267813080771" lon="15.969362791789628"><ele>70.0</ele><time>2026-03-27T11:48:02Z</time></trkpt><trkpt lat="38.452481103589804" lon="15.969084860435903"><ele>70.0</ele><time>2026-03-27T11:48:03Z</time></trkpt><trkpt lat="38.45228619918862" lon="15.968801563866815"><ele>70.0</ele><time>2026-03-27T11:48:04Z</time></trkpt><trkpt lat="38.4520898951505" lon="15.968513538955815"><ele>68.5</ele><time>2026-03-27T11:48:05Z</time></trkpt><trkpt lat="38.45190008079658" lon="15.968224853147639"><ele>67.0</ele><time>2026-03-27T11:48:06Z</time></trkpt><trkpt lat="38.45171184080815" lon="15.967933651204119"><ele>67.0</ele><time>2026-03-27T11:48:07Z</time></trkpt><trkpt lat="38.4515272339963" lon="15.967636315754076"><ele>67.0</ele><time>2026-03-27T11:48:08Z</time></trkpt><trkpt lat="38.45134549530218" lon="15.967337788505725"><ele>67.5</ele><time>2026-03-27T11:48:09Z</time></trkpt><trkpt lat="38.45116627874085" lon="15.967034978792324"><ele>68.0</ele><time>2026-03-27T11:48:10Z</time></trkpt><trkpt lat="38.45099475316214" lon="15.966730610458088"><ele>67.5</ele><time>2026-03-27T11:48:11Z</time></trkpt><trkpt lat="38.450825929182" lon="15.966424862050928"><ele>67.0</ele><time>2026-03-27T11:48:12Z</time></trkpt><trkpt lat="38.45066249535876" lon="15.966114152141788"><ele>67.0</ele><time>2026-03-27T11:48:13Z</time></trkpt><trkpt lat="38.45050132039794" lon="15.96580655706329"><ele>67.0</ele><time>2026-03-27T11:48:14Z</time></trkpt><trkpt lat="38.45033870145386" lon="15.965493526099175"><ele>66.5</ele><time>2026-03-27T11:48:15Z</time></trkpt><trkpt lat="38.4501783720868" lon="15.965180670156617"><ele>66.0</ele><time>2026-03-27T11:48:16Z</time></trkpt><trkpt lat="38.45002021517366" lon="15.964858259521819"><ele>68.0</ele><time>2026-03-27T11:48:17Z</time></trkpt><trkpt lat="38.44986705505905" lon="15.964532703677273"><ele>70.0</ele><time>2026-03-27T11:48:18Z</time></trkpt><trkpt lat="38.4497155729637" lon="15.96420061520419"><ele>71.5</ele><time>2026-03-27T11:48:19Z</time></trkpt><trkpt lat="38.449568437055014" lon="15.963868272436933"><ele>73.0</ele><time>2026-03-27T11:48:20Z</time></trkpt><trkpt lat="38.44942299066584" lon="15.963533857255777"><ele>72.0</ele><time>2026-03-27T11:48:21Z</time></trkpt><trkpt lat="38.44928502750423" lon="15.96319559886366"><ele>71.0</ele><time>2026-03-27T11:48:22Z</time></trkpt><trkpt lat="38.44915159964126" lon="15.962852229038807"><ele>71.0</ele><time>2026-03-27T11:48:23Z</time></trkpt><trkpt lat="38.44901915218759" lon="15.962506265651133"><ele>71.0</ele><time>2026-03-27T11:48:24Z</time></trkpt><trkpt lat="38.44889264466266" lon="15.962158545463472"><ele>71.0</ele><time>2026-03-27T11:48:25Z</time></trkpt><trkpt lat="38.44876666814826" lon="15.96180530648414"><ele>71.0</ele><time>2026-03-27T11:48:26Z</time></trkpt><trkpt lat="38.4486473145331" lon="15.961450509218619"><ele>69.5</ele><time>2026-03-27T11:48:27Z</time></trkpt><trkpt lat="38.44853202884346" lon="15.961093430677133"><ele>68.0</ele><time>2026-03-27T11:48:28Z</time></trkpt><trkpt lat="38.4484194476253" lon="15.96072970674845"><ele>68.0</ele><time>2026-03-27T11:48:29Z</time></trkpt><trkpt lat="38.4483134069994" lon="15.960369447380806"><ele>68.0</ele><time>2026-03-27T11:48:30Z</time></trkpt><trkpt lat="38.448209508603355" lon="15.960008303757668"><ele>68.0</ele><time>2026-03-27T11:48:31Z</time></trkpt><trkpt lat="38.44810352372236" lon="15.959637218627801"><ele>68.0</ele><time>2026-03-27T11:48:32Z</time></trkpt><trkpt lat="38.44801443464552" lon="15.959283880560438"><ele>68.5</ele><time>2026-03-27T11:48:33Z</time></trkpt><trkpt lat="38.44791698461164" lon="15.958911272027073"><ele>69.0</ele><time>2026-03-27T11:48:34Z</time></trkpt><trkpt lat="38.44782928328518" lon="15.958549032820462"><ele>67.5</ele><time>2026-03-27T11:48:35Z</time></trkpt><trkpt lat="38.44774459810526" lon="15.958190421071954"><ele>66.0</ele><time>2026-03-27T11:48:36Z</time></trkpt><trkpt lat="38.447660760886954" lon="15.957820682598019"><ele>66.0</ele><time>2026-03-27T11:48:37Z</time></trkpt><trkpt lat="38.447577842190476" lon="15.957458234551801"><ele>66.0</ele><time>2026-03-27T11:48:38Z</time></trkpt><trkpt lat="38.447485844767066" lon="15.95709671288026"><ele>66.0</ele><time>2026-03-27T11:48:39Z</time></trkpt><trkpt lat="38.4473874709523" lon="15.956743953020071"><ele>66.0</ele><time>2026-03-27T11:48:40Z</time></trkpt><trkpt lat="38.44728061919972" lon="15.95639374752735"><ele>66.0</ele><time>2026-03-27T11:48:41Z</time></trkpt><trkpt lat="38.44716870485776" lon="15.956050770081744"><ele>66.0</ele><time>2026-03-27T11:48:42Z</time></trkpt><trkpt lat="38.447046077282955" lon="15.955711992665174"><ele>66.5</ele><time>2026-03-27T11:48:43Z</time></trkpt><trkpt lat="38.44691625926083" lon="15.955378440694428"><ele>67.0</ele><time>2026-03-27T11:48:44Z</time></trkpt><trkpt lat="38.44678075845253" lon="15.95504970499466"><ele>65.0</ele><time>2026-03-27T11:48:45Z</time></trkpt><trkpt lat="38.44663948190457" lon="15.954726320554174"><ele>63.0</ele><time>2026-03-27T11:48:46Z</time></trkpt><trkpt lat="38.44649182573794" lon="15.954408015542336"><ele>62.0</ele><time>2026-03-27T11:48:47Z</time></trkpt><trkpt lat="38.446337829421225" lon="15.954099502006626"><ele>61.0</ele><time>2026-03-27T11:48:48Z</time></trkpt><trkpt lat="38.44617722125869" lon="15.953798230835666"><ele>63.0</ele><time>2026-03-27T11:48:49Z</time></trkpt><trkpt lat="38.446015930769356" lon="15.953508363722726"><ele>65.0</ele><time>2026-03-27T11:48:50Z</time></trkpt><trkpt lat="38.44584883040571" lon="15.953225720339786"><ele>65.0</ele><time>2026-03-27T11:48:51Z</time></trkpt><trkpt lat="38.44568498542721" lon="15.952952193663306"><ele>65.0</ele><time>2026-03-27T11:48:52Z</time></trkpt><trkpt lat="38.44550653454102" lon="15.95267417378107"><ele>64.0</ele><time>2026-03-27T11:48:53Z</time></trkpt><trkpt lat="38.44532930263129" lon="15.952400701658087"><ele>63.0</ele><time>2026-03-27T11:48:54Z</time></trkpt><trkpt lat="38.445145668895385" lon="15.952136756487537"><ele>63.0</ele><time>2026-03-27T11:48:55Z</time></trkpt><trkpt lat="38.44495611950522" lon="15.95187391152489"><ele>63.0</ele><time>2026-03-27T11:48:56Z</time></trkpt><trkpt lat="38.44476566452215" lon="15.95161006912318"><ele>64.0</ele><time>2026-03-27T11:48:57Z</time></trkpt><trkpt lat="38.444570508760734" lon="15.951341540316374"><ele>65.0</ele><time>2026-03-27T11:48:58Z</time></trkpt><trkpt lat="38.44437636483" lon="15.951082429634184"><ele>64.5</ele><time>2026-03-27T11:48:59Z</time></trkpt><trkpt lat="38.44418440696744" lon="15.950823620389919"><ele>64.0</ele><time>2026-03-27T11:49:00Z</time></trkpt><trkpt lat="38.44399244144955" lon="15.950563149337484"><ele>64.0</ele><time>2026-03-27T11:49:01Z</time></trkpt><trkpt lat="38.443801577148406" lon="15.950303281321778"><ele>64.0</ele><time>2026-03-27T11:49:02Z</time></trkpt><trkpt lat="38.44361082776712" lon="15.950042049141638"><ele>63.5</ele><time>2026-03-27T11:49:03Z</time></trkpt><trkpt lat="38.443422615230325" lon="15.949783870148629"><ele>63.0</ele><time>2026-03-27T11:49:04Z</time></trkpt><trkpt lat="38.44323484466722" lon="15.949526440677854"><ele>63.0</ele><time>2026-03-27T11:49:05Z</time></trkpt><trkpt lat="38.44305034576843" lon="15.949266169438197"><ele>63.0</ele><time>2026-03-27T11:49:06Z</time></trkpt><trkpt lat="38.44286992238894" lon="15.949007674945822"><ele>62.5</ele><time>2026-03-27T11:49:07Z</time></trkpt><trkpt lat="38.44269457705381" lon="15.948747077411763"><ele>62.0</ele><time>2026-03-27T11:49:08Z</time></trkpt><trkpt lat="38.44252312087296" lon="15.948485348901839"><ele>61.5</ele><time>2026-03-27T11:49:09Z</time></trkpt><trkpt lat="38.44235481540205" lon="15.948220605350071"><ele>61.0</ele><time>2026-03-27T11:49:10Z</time></trkpt><trkpt lat="38.442190455128085" lon="15.947950481847132"><ele>61.5</ele><time>2026-03-27T11:49:11Z</time></trkpt><trkpt lat="38.44202962025502" lon="15.94767484589005"><ele>62.0</ele><time>2026-03-27T11:49:12Z</time></trkpt><trkpt lat="38.44187466232709" lon="15.947394897413824"><ele>60.5</ele><time>2026-03-27T11:49:13Z</time></trkpt><trkpt lat="38.441722801750814" lon="15.947110339603734"><ele>59.0</ele><time>2026-03-27T11:49:14Z</time></trkpt><trkpt lat="38.441579285279204" lon="15.946821505884"><ele>58.5</ele><time>2026-03-27T11:49:15Z</time></trkpt><trkpt lat="38.441446324308295" lon="15.94653318960341"><ele>58.0</ele><time>2026-03-27T11:49:16Z</time></trkpt><trkpt lat="38.44131558869063" lon="15.946247881972335"><ele>59.5</ele><time>2026-03-27T11:49:17Z</time></trkpt><trkpt lat="38.44119170988111" lon="15.945968146448035"><ele>61.0</ele><time>2026-03-27T11:49:18Z</time></trkpt><trkpt lat="38.44107778797055" lon="15.945705069500221"><ele>61.0</ele><time>2026-03-27T11:49:19Z</time></trkpt><trkpt lat="38.44096717722362" lon="15.945446803862954"><ele>61.0</ele><time>2026-03-27T11:49:20Z</time></trkpt><trkpt lat="38.44086367963483" lon="15.945199062532168"><ele>60.666666666666664</ele><time>2026-03-27T11:49:21Z</time></trkpt><trkpt lat="38.44076756347615" lon="15.944962502595022"><ele>60.33333333333333</ele><time>2026-03-27T11:49:22Z</time></trkpt><trkpt lat="38.440677372117904" lon="15.944736323405696"><ele>60.0</ele><time>2026-03-27T11:49:23Z</time></trkpt><trkpt lat="38.44059621079761" lon="15.944528085581759"><ele>60.0</ele><time>2026-03-27T11:49:24Z</time></trkpt><trkpt lat="38.44052262933903" lon="15.944330930235342"><ele>60.0</ele><time>2026-03-27T11:49:25Z</time></trkpt><trkpt lat="38.44045432135872" lon="15.944143219511398"><ele>60.0</ele><time>2026-03-27T11:49:26Z</time></trkpt><trkpt lat="38.44039526501407" lon="15.943971223109719"><ele>59.5</ele><time>2026-03-27T11:49:27Z</time></trkpt><trkpt lat="38.44035513411395" lon="15.943809994781036"><ele>59.0</ele><time>2026-03-27T11:49:28Z</time></trkpt><trkpt lat="38.440336194719784" lon="15.943655470550826"><ele>58.5</ele><time>2026-03-27T11:49:29Z</time></trkpt><trkpt lat="38.44033189325387" lon="15.943506564021186"><ele>58.0</ele><time>2026-03-27T11:49:30Z</time></trkpt><trkpt lat="38.44033318417688" lon="15.943366537992315"><ele>57.49999999999999</ele><time>2026-03-27T11:49:31Z</time></trkpt><trkpt lat="38.44033569296167" lon="15.943237657273102"><ele>57.0</ele><time>2026-03-27T11:49:32Z</time></trkpt><trkpt lat="38.44033295769158" lon="15.943117743100451"><ele>56.5</ele><time>2026-03-27T11:49:33Z</time></trkpt><trkpt lat="38.44032329218536" lon="15.943005717513772"><ele>56.0</ele><time>2026-03-27T11:49:34Z</time></trkpt><trkpt lat="38.44030617398985" lon="15.942902895826622"><ele>55.49999999999999</ele><time>2026-03-27T11:49:35Z</time></trkpt><trkpt lat="38.4402802488617" lon="15.942807042963677"><ele>55.0</ele><time>2026-03-27T11:49:36Z</time></trkpt><trkpt lat="38.44025132533072" lon="15.942722298414552"><ele>55.0</ele><time>2026-03-27T11:49:37Z</time></trkpt><trkpt lat="38.44022185117907" lon="15.942644188122351"><ele>55.0</ele><time>2026-03-27T11:49:38Z</time></trkpt><trkpt lat="38.44017126941957" lon="15.942498855627052"><ele>55.0</ele><time>2026-03-27T11:49:40Z</time></trkpt><trkpt lat="38.440116809112915" lon="15.94236773302821"><ele>55.0</ele><time>2026-03-27T11:49:42Z</time></trkpt><trkpt lat="38.44005612499997" lon="15.94225925017342"><ele>55.0</ele><time>2026-03-27T11:49:44Z</time></trkpt><trkpt lat="38.44004329305137" lon="15.942154341758492"><ele>54.99999999999999</ele><time>2026-03-27T11:49:46Z</time></trkpt><trkpt lat="38.44001158925574" lon="15.942070545601585"><ele>55.0</ele><time>2026-03-27T11:49:49Z</time></trkpt><trkpt lat="38.43998582715964" lon="15.941951780158563"><ele>55.0</ele><time>2026-03-27T11:52:45Z</time></trkpt><trkpt lat="38.439982018644294" lon="15.941867391275146"><ele>55.0</ele><time>2026-03-27T11:55:02Z</time></trkpt><trkpt lat="38.439924670663075" lon="15.941908250817074"><ele>55.0</ele><time>2026-03-27T12:00:22Z</time></trkpt><trkpt lat="38.439886938478686" lon="15.941836297265368"><ele>54.99999999999999</ele><time>2026-03-27T12:00:33Z</time></trkpt><trkpt lat="38.4398406595027" lon="15.941773834358699"><ele>55.0</ele><time>2026-03-27T12:00:34Z</time></trkpt><trkpt lat="38.43979162005117" lon="15.94171163135117"><ele>54.99999999999999</ele><time>2026-03-27T12:00:35Z</time></trkpt><trkpt lat="38.43972516629884" lon="15.94163612351461"><ele>55.0</ele><time>2026-03-27T12:00:36Z</time></trkpt><trkpt lat="38.439670963260575" lon="15.94158252130907"><ele>55.0</ele><time>2026-03-27T12:00:37Z</time></trkpt><trkpt lat="38.439594943402746" lon="15.941523181576294"><ele>55.0</ele><time>2026-03-27T12:00:38Z</time></trkpt><trkpt lat="38.43953601689815" lon="15.941471160160944"><ele>54.99999999999999</ele><time>2026-03-27T12:00:39Z</time></trkpt><trkpt lat="38.43944946124201" lon="15.941378429182043"><ele>55.0</ele><time>2026-03-27T12:00:41Z</time></trkpt><trkpt lat="38.43936107449375" lon="15.941266367043994"><ele>54.8</ele><time>2026-03-27T12:00:43Z</time></trkpt><trkpt lat="38.439345990933056" lon="15.94116136363729"><ele>54.6</ele><time>2026-03-27T12:00:44Z</time></trkpt><trkpt lat="38.43931627676042" lon="15.941070937307542"><ele>54.400000000000006</ele><time>2026-03-27T12:00:45Z</time></trkpt><trkpt lat="38.43927788991855" lon="15.940969919343983"><ele>54.2</ele><time>2026-03-27T12:00:46Z</time></trkpt><trkpt lat="38.43922610051596" lon="15.940855759952242"><ele>54.0</ele><time>2026-03-27T12:00:47Z</time></trkpt><trkpt lat="38.43916609486086" lon="15.940723952088227"><ele>53.66666666666667</ele><time>2026-03-27T12:00:48Z</time></trkpt><trkpt lat="38.43909381212875" lon="15.940575185005478"><ele>53.333333333333336</ele><time>2026-03-27T12:00:49Z</time></trkpt><trkpt lat="38.439014102371246" lon="15.94040716672306"><ele>53.0</ele><time>2026-03-27T12:00:50Z</time></trkpt><trkpt lat="38.438926807740955" lon="15.940223834668272"><ele>53.0</ele><time>2026-03-27T12:00:51Z</time></trkpt><trkpt lat="38.43883591262785" lon="15.940026862546155"><ele>53.0</ele><time>2026-03-27T12:00:52Z</time></trkpt><trkpt lat="38.438727020955916" lon="15.939798727681861"><ele>53.0</ele><time>2026-03-27T12:00:53Z</time></trkpt><trkpt lat="38.43862317441247" lon="15.939570092610763"><ele>53.333333333333336</ele><time>2026-03-27T12:00:54Z</time></trkpt><trkpt lat="38.438517858666664" lon="15.939326600126625"><ele>53.66666666666667</ele><time>2026-03-27T12:00:55Z</time></trkpt><trkpt lat="38.438400312247694" lon="15.939080742972136"><ele>54.0</ele><time>2026-03-27T12:00:56Z</time></trkpt><trkpt lat="38.43827934641036" lon="15.938829556254795"><ele>54.0</ele><time>2026-03-27T12:00:57Z</time></trkpt><trkpt lat="38.4381518512246" lon="15.93857132931092"><ele>54.0</ele><time>2026-03-27T12:00:58Z</time></trkpt><trkpt lat="38.43801824078904" lon="15.938308090765283"><ele>55.0</ele><time>2026-03-27T12:00:59Z</time></trkpt><trkpt lat="38.43787759740519" lon="15.938041280539508"><ele>56.0</ele><time>2026-03-27T12:01:00Z</time></trkpt><trkpt lat="38.43773229809869" lon="15.937774702932186"><ele>54.5</ele><time>2026-03-27T12:01:01Z</time></trkpt><trkpt lat="38.43757944104113" lon="15.93750853100474"><ele>53.0</ele><time>2026-03-27T12:01:02Z</time></trkpt><trkpt lat="38.43742031375021" lon="15.937247595617853"><ele>53.0</ele><time>2026-03-27T12:01:03Z</time></trkpt><trkpt lat="38.43725753453214" lon="15.936985725839415"><ele>53.0</ele><time>2026-03-27T12:01:04Z</time></trkpt><trkpt lat="38.437091572946606" lon="15.936725928004316"><ele>51.5</ele><time>2026-03-27T12:01:05Z</time></trkpt><trkpt lat="38.436920930650324" lon="15.936468414101366"><ele>50.0</ele><time>2026-03-27T12:01:06Z</time></trkpt><trkpt lat="38.43674774141498" lon="15.936215001719624"><ele>50.0</ele><time>2026-03-27T12:01:07Z</time></trkpt><trkpt lat="38.43657135368702" lon="15.935965369845661"><ele>50.0</ele><time>2026-03-27T12:01:08Z</time></trkpt><trkpt lat="38.436389971231904" lon="15.935715497157446"><ele>49.0</ele><time>2026-03-27T12:01:09Z</time></trkpt><trkpt lat="38.43620707414653" lon="15.935468898865539"><ele>48.0</ele><time>2026-03-27T12:01:10Z</time></trkpt><trkpt lat="38.43601748184834" lon="15.935220990314573"><ele>48.5</ele><time>2026-03-27T12:01:11Z</time></trkpt><trkpt lat="38.43582338796035" lon="15.934975897202719"><ele>49.0</ele><time>2026-03-27T12:01:12Z</time></trkpt><trkpt lat="38.435628163638434" lon="15.93473047811762"><ele>44.0</ele><time>2026-03-27T12:01:13Z</time></trkpt><trkpt lat="38.43542872731052" lon="15.934483845548568"><ele>39.0</ele><time>2026-03-27T12:01:14Z</time></trkpt><trkpt lat="38.43522845302998" lon="15.934236441065817"><ele>39.0</ele><time>2026-03-27T12:01:15Z</time></trkpt><trkpt lat="38.43502405569706" lon="15.933997694786866"><ele>39.0</ele><time>2026-03-27T12:01:16Z</time></trkpt><trkpt lat="38.43481598699276" lon="15.933760470104652"><ele>35.5</ele><time>2026-03-27T12:01:17Z</time></trkpt><trkpt lat="38.43460843909012" lon="15.933524008353118"><ele>32.0</ele><time>2026-03-27T12:01:18Z</time></trkpt><trkpt lat="38.434398248004335" lon="15.933282481776192"><ele>32.0</ele><time>2026-03-27T12:01:19Z</time></trkpt><trkpt lat="38.4341898042888" lon="15.933038837297229"><ele>32.0</ele><time>2026-03-27T12:01:20Z</time></trkpt><trkpt lat="38.4339857360321" lon="15.932793572272976"><ele>30.5</ele><time>2026-03-27T12:01:21Z</time></trkpt><trkpt lat="38.43378037209325" lon="15.93254673242995"><ele>29.0</ele><time>2026-03-27T12:01:22Z</time></trkpt><trkpt lat="38.43357657988293" lon="15.932300294868394"><ele>29.0</ele><time>2026-03-27T12:01:23Z</time></trkpt><trkpt lat="38.43337349506482" lon="15.932058912354364"><ele>29.0</ele><time>2026-03-27T12:01:24Z</time></trkpt><trkpt lat="38.433171592618905" lon="15.93182039845382"><ele>27.0</ele><time>2026-03-27T12:01:25Z</time></trkpt><trkpt lat="38.43296884632263" lon="15.931580113934796"><ele>25.0</ele><time>2026-03-27T12:01:26Z</time></trkpt><trkpt lat="38.43276660860811" lon="15.931339058394666"><ele>25.0</ele><time>2026-03-27T12:01:27Z</time></trkpt><trkpt lat="38.432564174993466" lon="15.931093615504412"><ele>25.0</ele><time>2026-03-27T12:01:28Z</time></trkpt><trkpt lat="38.43236200375113" lon="15.930848901654688"><ele>27.0</ele><time>2026-03-27T12:01:29Z</time></trkpt><trkpt lat="38.43215982720012" lon="15.930603816907961"><ele>29.0</ele><time>2026-03-27T12:01:30Z</time></trkpt><trkpt lat="38.43196028370929" lon="15.93035849998057"><ele>29.0</ele><time>2026-03-27T12:01:31Z</time></trkpt><trkpt lat="38.43176091761802" lon="15.930116980111332"><ele>29.0</ele><time>2026-03-27T12:01:32Z</time></trkpt><trkpt lat="38.43156243301685" lon="15.929879345605233"><ele>28.5</ele><time>2026-03-27T12:01:33Z</time></trkpt><trkpt lat="38.431361472378086" lon="15.929643093326407"><ele>28.0</ele><time>2026-03-27T12:01:34Z</time></trkpt><trkpt lat="38.43116374499802" lon="15.929403828517254"><ele>25.0</ele><time>2026-03-27T12:01:35Z</time></trkpt><trkpt lat="38.4309647461768" lon="15.929165502284405"><ele>22.0</ele><time>2026-03-27T12:01:36Z</time></trkpt><trkpt lat="38.43076492792126" lon="15.928921206353829"><ele>22.0</ele><time>2026-03-27T12:01:37Z</time></trkpt><trkpt lat="38.43056658530717" lon="15.928674927382414"><ele>22.0</ele><time>2026-03-27T12:01:38Z</time></trkpt><trkpt lat="38.43036874302426" lon="15.928431065211084"><ele>21.0</ele><time>2026-03-27T12:01:39Z</time></trkpt><trkpt lat="38.43016561944552" lon="15.928193108469335"><ele>20.0</ele><time>2026-03-27T12:01:40Z</time></trkpt><trkpt lat="38.429959824787694" lon="15.927962425653508"><ele>20.0</ele><time>2026-03-27T12:01:41Z</time></trkpt><trkpt lat="38.42975247650687" lon="15.927735829508197"><ele>20.0</ele><time>2026-03-27T12:01:42Z</time></trkpt><trkpt lat="38.42954530751976" lon="15.927514632391016"><ele>18.5</ele><time>2026-03-27T12:01:43Z</time></trkpt><trkpt lat="38.42933598070279" lon="15.927298683798991"><ele>17.0</ele><time>2026-03-27T12:01:44Z</time></trkpt><trkpt lat="38.42912739670661" lon="15.927088214780085"><ele>17.0</ele><time>2026-03-27T12:01:45Z</time></trkpt><trkpt lat="38.42891402836079" lon="15.926886455552216"><ele>17.0</ele><time>2026-03-27T12:01:46Z</time></trkpt><trkpt lat="38.428695463706575" lon="15.92668905222482"><ele>17.0</ele><time>2026-03-27T12:01:47Z</time></trkpt><trkpt lat="38.4284777568182" lon="15.926496048238421"><ele>17.0</ele><time>2026-03-27T12:01:48Z</time></trkpt><trkpt lat="38.42825833891633" lon="15.926303467006234"><ele>17.0</ele><time>2026-03-27T12:01:49Z</time></trkpt><trkpt lat="38.42803768785287" lon="15.92611548566505"><ele>17.0</ele><time>2026-03-27T12:01:50Z</time></trkpt><trkpt lat="38.42781399010878" lon="15.925931503629345"><ele>18.5</ele><time>2026-03-27T12:01:51Z</time></trkpt><trkpt lat="38.427583703869935" lon="15.92575250443862"><ele>20.0</ele><time>2026-03-27T12:01:52Z</time></trkpt><trkpt lat="38.427353573966414" lon="15.925578007753515"><ele>22.5</ele><time>2026-03-27T12:01:53Z</time></trkpt><trkpt lat="38.42712144841734" lon="15.925410823570727"><ele>25.0</ele><time>2026-03-27T12:01:54Z</time></trkpt><trkpt lat="38.42688801875484" lon="15.925247042669184"><ele>25.0</ele><time>2026-03-27T12:01:55Z</time></trkpt><trkpt lat="38.426653919783895" lon="15.925087927222144"><ele>25.0</ele><time>2026-03-27T12:01:56Z</time></trkpt><trkpt lat="38.42642015793298" lon="15.924933966060802"><ele>30.0</ele><time>2026-03-27T12:01:57Z</time></trkpt><trkpt lat="38.42618500849933" lon="15.924785454818418"><ele>35.0</ele><time>2026-03-27T12:01:58Z</time></trkpt><trkpt lat="38.4259493884005" lon="15.924641251870524"><ele>35.0</ele><time>2026-03-27T12:01:59Z</time></trkpt><trkpt lat="38.42571573405682" lon="15.924501394301265"><ele>35.0</ele><time>2026-03-27T12:02:00Z</time></trkpt><trkpt lat="38.425478599689136" lon="15.924368000375823"><ele>34.5</ele><time>2026-03-27T12:02:01Z</time></trkpt><trkpt lat="38.425234620003714" lon="15.924230571796851"><ele>34.0</ele><time>2026-03-27T12:02:02Z</time></trkpt><trkpt lat="38.424990513905314" lon="15.924101262792032"><ele>34.0</ele><time>2026-03-27T12:02:03Z</time></trkpt><trkpt lat="38.4247447848208" lon="15.923975157915235"><ele>34.0</ele><time>2026-03-27T12:02:04Z</time></trkpt><trkpt lat="38.424496521019144" lon="15.92385399119633"><ele>40.0</ele><time>2026-03-27T12:02:05Z</time></trkpt><trkpt lat="38.424244082318346" lon="15.923734130175653"><ele>46.0</ele><time>2026-03-27T12:02:06Z</time></trkpt><trkpt lat="38.42398810930409" lon="15.92361763406301"><ele>48.5</ele><time>2026-03-27T12:02:07Z</time></trkpt><trkpt lat="38.42372782994793" lon="15.923506773884707"><ele>51.0</ele><time>2026-03-27T12:02:08Z</time></trkpt><trkpt lat="38.42346590717911" lon="15.92339668729409"><ele>51.0</ele><time>2026-03-27T12:02:09Z</time></trkpt><trkpt lat="38.42320226876983" lon="15.923287723556703"><ele>51.0</ele><time>2026-03-27T12:02:10Z</time></trkpt><trkpt lat="38.42293637636454" lon="15.923181517799941"><ele>51.0</ele><time>2026-03-27T12:02:11Z</time></trkpt><trkpt lat="38.42267182345456" lon="15.923076809781946"><ele>51.0</ele><time>2026-03-27T12:02:12Z</time></trkpt><trkpt lat="38.422404994201386" lon="15.922973810419895"><ele>54.5</ele><time>2026-03-27T12:02:13Z</time></trkpt><trkpt lat="38.42213889464202" lon="15.922872223121312"><ele>58.0</ele><time>2026-03-27T12:02:14Z</time></trkpt><trkpt lat="38.4218720594407" lon="15.922771620082488"><ele>58.0</ele><time>2026-03-27T12:02:15Z</time></trkpt><trkpt lat="38.42161146332165" lon="15.922674731350824"><ele>58.0</ele><time>2026-03-27T12:02:16Z</time></trkpt><trkpt lat="38.42134890228681" lon="15.922575521371199"><ele>57.5</ele><time>2026-03-27T12:02:17Z</time></trkpt><trkpt lat="38.42108900896552" lon="15.922472003137091"><ele>57.0</ele><time>2026-03-27T12:02:18Z</time></trkpt><trkpt lat="38.420825864782024" lon="15.92237026201148"><ele>57.0</ele><time>2026-03-27T12:02:19Z</time></trkpt><trkpt lat="38.42056515576562" lon="15.922268986181347"><ele>57.0</ele><time>2026-03-27T12:02:20Z</time></trkpt><trkpt lat="38.42030024137012" lon="15.922169214808143"><ele>58.0</ele><time>2026-03-27T12:02:21Z</time></trkpt><trkpt lat="38.42003458728965" lon="15.922069363934895"><ele>59.0</ele><time>2026-03-27T12:02:22Z</time></trkpt><trkpt lat="38.419769039043665" lon="15.921967471363267"><ele>59.5</ele><time>2026-03-27T12:02:23Z</time></trkpt><trkpt lat="38.41950560763171" lon="15.921866939174636"><ele>60.0</ele><time>2026-03-27T12:02:24Z</time></trkpt><trkpt lat="38.41924009704078" lon="15.921768404397394"><ele>60.0</ele><time>2026-03-27T12:02:25Z</time></trkpt><trkpt lat="38.41897388246532" lon="15.921668057496433"><ele>60.0</ele><time>2026-03-27T12:02:26Z</time></trkpt><trkpt lat="38.41871016429888" lon="15.921567457541828"><ele>60.0</ele><time>2026-03-27T12:02:27Z</time></trkpt><trkpt lat="38.41844389265944" lon="15.921466815287484"><ele>60.0</ele><time>2026-03-27T12:02:28Z</time></trkpt><trkpt lat="38.41818140432275" lon="15.921366329817957"><ele>60.0</ele><time>2026-03-27T12:02:29Z</time></trkpt><trkpt lat="38.41791870807923" lon="15.921264709710263"><ele>60.0</ele><time>2026-03-27T12:02:30Z</time></trkpt><trkpt lat="38.41765386425759" lon="15.921163023203341"><ele>60.0</ele><time>2026-03-27T12:02:31Z</time></trkpt><trkpt lat="38.41739181400499" lon="15.921061536495213"><ele>60.0</ele><time>2026-03-27T12:02:32Z</time></trkpt><trkpt lat="38.417125824352915" lon="15.920959551609094"><ele>60.5</ele><time>2026-03-27T12:02:33Z</time></trkpt><trkpt lat="38.41686059519066" lon="15.920858700655971"><ele>61.0</ele><time>2026-03-27T12:02:34Z</time></trkpt><trkpt lat="38.4165950303116" lon="15.920760442158617"><ele>61.0</ele><time>2026-03-27T12:02:35Z</time></trkpt><trkpt lat="38.416327104043724" lon="15.920660646568063"><ele>61.0</ele><time>2026-03-27T12:02:36Z</time></trkpt><trkpt lat="38.41605828264407" lon="15.920559534103676"><ele>62.0</ele><time>2026-03-27T12:02:37Z</time></trkpt><trkpt lat="38.41578234374368" lon="15.920457352426325"><ele>63.0</ele><time>2026-03-27T12:02:38Z</time></trkpt><trkpt lat="38.415507123338365" lon="15.920355699442743"><ele>63.5</ele><time>2026-03-27T12:02:39Z</time></trkpt><trkpt lat="38.41523102576084" lon="15.920246648927074"><ele>64.0</ele><time>2026-03-27T12:02:40Z</time></trkpt><trkpt lat="38.41494946899814" lon="15.920127344478306"><ele>63.5</ele><time>2026-03-27T12:02:41Z</time></trkpt><trkpt lat="38.41467394660505" lon="15.92000421244621"><ele>63.0</ele><time>2026-03-27T12:02:42Z</time></trkpt><trkpt lat="38.414395978692255" lon="15.9198740418209"><ele>63.0</ele><time>2026-03-27T12:02:43Z</time></trkpt><trkpt lat="38.414123876286034" lon="15.919732415550737"><ele>63.0</ele><time>2026-03-27T12:02:44Z</time></trkpt><trkpt lat="38.4138527438843" lon="15.919584361159956"><ele>63.5</ele><time>2026-03-27T12:02:45Z</time></trkpt><trkpt lat="38.413584661186555" lon="15.919425666979397"><ele>64.0</ele><time>2026-03-27T12:02:46Z</time></trkpt><trkpt lat="38.4133244919005" lon="15.919260353546395"><ele>63.0</ele><time>2026-03-27T12:02:47Z</time></trkpt><trkpt lat="38.41306943332474" lon="15.919091421369307"><ele>62.0</ele><time>2026-03-27T12:02:48Z</time></trkpt><trkpt lat="38.41281393604937" lon="15.918916228624052"><ele>62.0</ele><time>2026-03-27T12:02:49Z</time></trkpt><trkpt lat="38.4125639113323" lon="15.918735217109383"><ele>62.0</ele><time>2026-03-27T12:02:50Z</time></trkpt><trkpt lat="38.41232445258428" lon="15.918541402188053"><ele>61.5</ele><time>2026-03-27T12:02:51Z</time></trkpt><trkpt lat="38.41208574860316" lon="15.91833992664187"><ele>61.0</ele><time>2026-03-27T12:02:52Z</time></trkpt><trkpt lat="38.41185252272827" lon="15.918128976001515"><ele>61.0</ele><time>2026-03-27T12:02:53Z</time></trkpt><trkpt lat="38.41162663465281" lon="15.917913411952535"><ele>61.0</ele><time>2026-03-27T12:02:54Z</time></trkpt><trkpt lat="38.41139739894085" lon="15.917689574315315"><ele>61.5</ele><time>2026-03-27T12:02:55Z</time></trkpt><trkpt lat="38.41117252279056" lon="15.917463991209841"><ele>62.0</ele><time>2026-03-27T12:02:56Z</time></trkpt><trkpt lat="38.41094928600613" lon="15.917230183844097"><ele>62.0</ele><time>2026-03-27T12:02:57Z</time></trkpt><trkpt lat="38.41073329437537" lon="15.916992368305221"><ele>62.0</ele><time>2026-03-27T12:02:58Z</time></trkpt><trkpt lat="38.410517504651565" lon="15.916745405264725"><ele>62.5</ele><time>2026-03-27T12:02:59Z</time></trkpt><trkpt lat="38.41030540143454" lon="15.916492296576298"><ele>63.0</ele><time>2026-03-27T12:03:00Z</time></trkpt><trkpt lat="38.4100935250608" lon="15.91623329861845"><ele>63.0</ele><time>2026-03-27T12:03:01Z</time></trkpt><trkpt lat="38.40988799272172" lon="15.915974489719764"><ele>63.0</ele><time>2026-03-27T12:03:02Z</time></trkpt><trkpt lat="38.40967576190686" lon="15.915708514584772"><ele>64.0</ele><time>2026-03-27T12:03:03Z</time></trkpt><trkpt lat="38.40945867056222" lon="15.915437029521302"><ele>65.0</ele><time>2026-03-27T12:03:04Z</time></trkpt><trkpt lat="38.409255071864635" lon="15.91517030980406"><ele>63.5</ele><time>2026-03-27T12:03:05Z</time></trkpt><trkpt lat="38.40904234549379" lon="15.914898789628618"><ele>62.0</ele><time>2026-03-27T12:03:06Z</time></trkpt><trkpt lat="38.408828938408604" lon="15.914627772137278"><ele>63.0</ele><time>2026-03-27T12:03:07Z</time></trkpt><trkpt lat="38.408616304814245" lon="15.914357606832784"><ele>64.0</ele><time>2026-03-27T12:03:08Z</time></trkpt><trkpt lat="38.4084004680986" lon="15.9140819724551"><ele>62.5</ele><time>2026-03-27T12:03:09Z</time></trkpt><trkpt lat="38.40818597461933" lon="15.913812041465482"><ele>61.0</ele><time>2026-03-27T12:03:10Z</time></trkpt><trkpt lat="38.40796756119652" lon="15.913544525666165"><ele>57.0</ele><time>2026-03-27T12:03:11Z</time></trkpt><trkpt lat="38.40774524006668" lon="15.913282642016247"><ele>53.0</ele><time>2026-03-27T12:03:12Z</time></trkpt><trkpt lat="38.407516649778486" lon="15.9130255345822"><ele>53.0</ele><time>2026-03-27T12:03:13Z</time></trkpt><trkpt lat="38.40728254131352" lon="15.912776298207996"><ele>53.0</ele><time>2026-03-27T12:03:14Z</time></trkpt><trkpt lat="38.40704222500301" lon="15.912537139115209"><ele>49.5</ele><time>2026-03-27T12:03:15Z</time></trkpt><trkpt lat="38.40679748456095" lon="15.912306217257061"><ele>46.0</ele><time>2026-03-27T12:03:16Z</time></trkpt><trkpt lat="38.40655019609698" lon="15.912080052909642"><ele>43.0</ele><time>2026-03-27T12:03:17Z</time></trkpt><trkpt lat="38.406301252002116" lon="15.911857866907585"><ele>40.0</ele><time>2026-03-27T12:03:18Z</time></trkpt><trkpt lat="38.4060500122858" lon="15.911635039247907"><ele>40.0</ele><time>2026-03-27T12:03:19Z</time></trkpt><trkpt lat="38.40580115249463" lon="15.911413170341026"><ele>40.0</ele><time>2026-03-27T12:03:20Z</time></trkpt><trkpt lat="38.40555150643941" lon="15.911189122579735"><ele>37.5</ele><time>2026-03-27T12:03:21Z</time></trkpt><trkpt lat="38.40530163208134" lon="15.910965540726904"><ele>35.0</ele><time>2026-03-27T12:03:22Z</time></trkpt><trkpt lat="38.40505043360822" lon="15.91074261986185"><ele>35.0</ele><time>2026-03-27T12:03:23Z</time></trkpt><trkpt lat="38.404799595683464" lon="15.910520590650805"><ele>35.0</ele><time>2026-03-27T12:03:24Z</time></trkpt><trkpt lat="38.4045480491665" lon="15.910299676190828"><ele>37.5</ele><time>2026-03-27T12:03:25Z</time></trkpt><trkpt lat="38.40429530583689" lon="15.910076867594265"><ele>40.0</ele><time>2026-03-27T12:03:26Z</time></trkpt><trkpt lat="38.404045161432116" lon="15.909853051416409"><ele>31.5</ele><time>2026-03-27T12:03:27Z</time></trkpt><trkpt lat="38.403797139072125" lon="15.90963249966204"><ele>23.0</ele><time>2026-03-27T12:03:28Z</time></trkpt><trkpt lat="38.4035495982469" lon="15.909415779036548"><ele>21.5</ele><time>2026-03-27T12:03:29Z</time></trkpt><trkpt lat="38.40330138868149" lon="15.909199801526709"><ele>20.0</ele><time>2026-03-27T12:03:30Z</time></trkpt><trkpt lat="38.40305711179358" lon="15.90898138927129"><ele>21.5</ele><time>2026-03-27T12:03:31Z</time></trkpt><trkpt lat="38.40281538395079" lon="15.908766031472249"><ele>23.0</ele><time>2026-03-27T12:03:32Z</time></trkpt><trkpt lat="38.40257412961796" lon="15.90855681045004"><ele>22.5</ele><time>2026-03-27T12:03:33Z</time></trkpt><trkpt lat="38.40233085360367" lon="15.908351696159032"><ele>22.0</ele><time>2026-03-27T12:03:34Z</time></trkpt><trkpt lat="38.40208749519781" lon="15.908143990092968"><ele>22.0</ele><time>2026-03-27T12:03:35Z</time></trkpt><trkpt lat="38.40184637579748" lon="15.907942513673948"><ele>22.0</ele><time>2026-03-27T12:03:36Z</time></trkpt><trkpt lat="38.40160313040794" lon="15.907752882299308"><ele>24.0</ele><time>2026-03-27T12:03:37Z</time></trkpt><trkpt lat="38.40135600332416" lon="15.90757393760608"><ele>26.0</ele><time>2026-03-27T12:03:38Z</time></trkpt><trkpt lat="38.40110044074646" lon="15.90740524341617"><ele>29.0</ele><time>2026-03-27T12:03:39Z</time></trkpt><trkpt lat="38.400840209859666" lon="15.90724706136284"><ele>32.0</ele><time>2026-03-27T12:03:40Z</time></trkpt><trkpt lat="38.40057538471963" lon="15.907108917898084"><ele>31.0</ele><time>2026-03-27T12:03:41Z</time></trkpt><trkpt lat="38.400301753565294" lon="15.906985991208696"><ele>30.0</ele><time>2026-03-27T12:03:42Z</time></trkpt><trkpt lat="38.40002759650525" lon="15.906878220161992"><ele>30.0</ele><time>2026-03-27T12:03:43Z</time></trkpt><trkpt lat="38.3997545626698" lon="15.906787131676591"><ele>30.0</ele><time>2026-03-27T12:03:44Z</time></trkpt><trkpt lat="38.39947924167651" lon="15.906705285682989"><ele>38.5</ele><time>2026-03-27T12:03:45Z</time></trkpt><trkpt lat="38.39919823155907" lon="15.906638442777"><ele>47.0</ele><time>2026-03-27T12:03:46Z</time></trkpt><trkpt lat="38.398915299136426" lon="15.906583909892028"><ele>49.0</ele><time>2026-03-27T12:03:47Z</time></trkpt><trkpt lat="38.39863068909766" lon="15.906542291862593"><ele>51.0</ele><time>2026-03-27T12:03:48Z</time></trkpt><trkpt lat="38.398344056288835" lon="15.906515052294147"><ele>51.0</ele><time>2026-03-27T12:03:49Z</time></trkpt><trkpt lat="38.39805502372267" lon="15.90649915641936"><ele>51.0</ele><time>2026-03-27T12:03:50Z</time></trkpt><trkpt lat="38.39776838150726" lon="15.906490308625964"><ele>54.5</ele><time>2026-03-27T12:03:51Z</time></trkpt><trkpt lat="38.39748080352301" lon="15.906480731570282"><ele>58.0</ele><time>2026-03-27T12:03:52Z</time></trkpt><trkpt lat="38.397197824786005" lon="15.90646690595705"><ele>54.5</ele><time>2026-03-27T12:03:53Z</time></trkpt><trkpt lat="38.39691209096193" lon="15.90644577839518"><ele>51.0</ele><time>2026-03-27T12:03:54Z</time></trkpt><trkpt lat="38.396633647232726" lon="15.906405273952387"><ele>51.0</ele><time>2026-03-27T12:03:55Z</time></trkpt><trkpt lat="38.39636117253172" lon="15.906348175247768"><ele>51.0</ele><time>2026-03-27T12:03:56Z</time></trkpt><trkpt lat="38.39609103334215" lon="15.906277889705805"><ele>47.0</ele><time>2026-03-27T12:03:57Z</time></trkpt><trkpt lat="38.39582478342259" lon="15.906193773995552"><ele>43.0</ele><time>2026-03-27T12:03:58Z</time></trkpt><trkpt lat="38.395565207977235" lon="15.906090772151979"><ele>39.0</ele><time>2026-03-27T12:03:59Z</time></trkpt><trkpt lat="38.39530938620898" lon="15.905976026191812"><ele>35.0</ele><time>2026-03-27T12:04:00Z</time></trkpt><trkpt lat="38.395055883718875" lon="15.905855916313095"><ele>43.0</ele><time>2026-03-27T12:04:01Z</time></trkpt><trkpt lat="38.394806208978316" lon="15.905733180811325"><ele>51.0</ele><time>2026-03-27T12:04:02Z</time></trkpt><trkpt lat="38.394561075420285" lon="15.905606747741746"><ele>51.0</ele><time>2026-03-27T12:04:03Z</time></trkpt><trkpt lat="38.39431762419553" lon="15.905479659990405"><ele>51.0</ele><time>2026-03-27T12:04:04Z</time></trkpt><trkpt lat="38.39407562487996" lon="15.905352665144177"><ele>51.5</ele><time>2026-03-27T12:04:05Z</time></trkpt><trkpt lat="38.393834250494955" lon="15.905224026147854"><ele>52.0</ele><time>2026-03-27T12:04:06Z</time></trkpt><trkpt lat="38.393599197556455" lon="15.905090160660478"><ele>59.0</ele><time>2026-03-27T12:04:07Z</time></trkpt><trkpt lat="38.39336496323219" lon="15.904952012501022"><ele>66.0</ele><time>2026-03-27T12:04:08Z</time></trkpt><trkpt lat="38.3931307043318" lon="15.904808745977979"><ele>61.0</ele><time>2026-03-27T12:04:09Z</time></trkpt><trkpt lat="38.392900476379026" lon="15.904657600553291"><ele>56.0</ele><time>2026-03-27T12:04:10Z</time></trkpt><trkpt lat="38.39267366969527" lon="15.904494736847244"><ele>56.0</ele><time>2026-03-27T12:04:11Z</time></trkpt><trkpt lat="38.39244995910184" lon="15.904321402266728"><ele>56.0</ele><time>2026-03-27T12:04:12Z</time></trkpt><trkpt lat="38.39223042028365" lon="15.904140478134737"><ele>63.5</ele><time>2026-03-27T12:04:13Z</time></trkpt><trkpt lat="38.392019989078904" lon="15.903946622342628"><ele>71.0</ele><time>2026-03-27T12:04:14Z</time></trkpt><trkpt lat="38.39181276822316" lon="15.90374611266453"><ele>71.0</ele><time>2026-03-27T12:04:15Z</time></trkpt><trkpt lat="38.39160944337829" lon="15.903543711890803"><ele>71.0</ele><time>2026-03-27T12:04:16Z</time></trkpt><trkpt lat="38.391408736647115" lon="15.903334674992625"><ele>77.0</ele><time>2026-03-27T12:04:17Z</time></trkpt><trkpt lat="38.39121408314131" lon="15.903118364263118"><ele>83.0</ele><time>2026-03-27T12:04:18Z</time></trkpt><trkpt lat="38.39102542839479" lon="15.90289759520079"><ele>83.0</ele><time>2026-03-27T12:04:19Z</time></trkpt><trkpt lat="38.39083719810304" lon="15.90267422210411"><ele>83.0</ele><time>2026-03-27T12:04:20Z</time></trkpt><trkpt lat="38.39064844141303" lon="15.902447995111043"><ele>85.5</ele><time>2026-03-27T12:04:21Z</time></trkpt><trkpt lat="38.390462453707414" lon="15.902219793352641"><ele>88.0</ele><time>2026-03-27T12:04:22Z</time></trkpt><trkpt lat="38.39027541308326" lon="15.90198641024034"><ele>88.0</ele><time>2026-03-27T12:04:23Z</time></trkpt><trkpt lat="38.390088514352755" lon="15.901750762414276"><ele>88.0</ele><time>2026-03-27T12:04:24Z</time></trkpt><trkpt lat="38.38990156473638" lon="15.90151595767233"><ele>87.0</ele><time>2026-03-27T12:04:25Z</time></trkpt><trkpt lat="38.389714217573705" lon="15.901285069555987"><ele>86.0</ele><time>2026-03-27T12:04:26Z</time></trkpt><trkpt lat="38.38952789071251" lon="15.90105667127905"><ele>84.0</ele><time>2026-03-27T12:04:27Z</time></trkpt><trkpt lat="38.3893423538376" lon="15.900829084338172"><ele>82.0</ele><time>2026-03-27T12:04:28Z</time></trkpt><trkpt lat="38.389158973639184" lon="15.900604408965762"><ele>82.0</ele><time>2026-03-27T12:04:29Z</time></trkpt><trkpt lat="38.38897266944074" lon="15.900376616490439"><ele>82.0</ele><time>2026-03-27T12:04:30Z</time></trkpt><trkpt lat="38.38878609699983" lon="15.900147463088796"><ele>82.0</ele><time>2026-03-27T12:04:31Z</time></trkpt><trkpt lat="38.388597434342785" lon="15.899917187359952"><ele>82.0</ele><time>2026-03-27T12:04:32Z</time></trkpt><trkpt lat="38.38840892938883" lon="15.89968303065168"><ele>82.0</ele><time>2026-03-27T12:04:33Z</time></trkpt><trkpt lat="38.38821757714569" lon="15.899444540587927"><ele>82.0</ele><time>2026-03-27T12:04:34Z</time></trkpt><trkpt lat="38.38802493629667" lon="15.899201157636947"><ele>86.5</ele><time>2026-03-27T12:04:35Z</time></trkpt><trkpt lat="38.38783061396924" lon="15.898960096106817"><ele>91.0</ele><time>2026-03-27T12:04:36Z</time></trkpt><trkpt lat="38.38763138664563" lon="15.898716165512054"><ele>91.0</ele><time>2026-03-27T12:04:37Z</time></trkpt><trkpt lat="38.387431560068244" lon="15.898471538398653"><ele>91.0</ele><time>2026-03-27T12:04:38Z</time></trkpt><trkpt lat="38.38722827667127" lon="15.898228052073161"><ele>91.0</ele><time>2026-03-27T12:04:39Z</time></trkpt><trkpt lat="38.38702470382986" lon="15.897980247846997"><ele>91.0</ele><time>2026-03-27T12:04:40Z</time></trkpt><trkpt lat="38.386822150850215" lon="15.897731373402953"><ele>97.5</ele><time>2026-03-27T12:04:41Z</time></trkpt><trkpt lat="38.38661771126197" lon="15.897481519032192"><ele>104.0</ele><time>2026-03-27T12:04:42Z</time></trkpt><trkpt lat="38.38641388456816" lon="15.897229888765791"><ele>104.0</ele><time>2026-03-27T12:04:43Z</time></trkpt><trkpt lat="38.386209968665945" lon="15.896974644113282"><ele>104.0</ele><time>2026-03-27T12:04:44Z</time></trkpt><trkpt lat="38.386012017110865" lon="15.896712179825288"><ele>104.0</ele><time>2026-03-27T12:04:45Z</time></trkpt><trkpt lat="38.385822720565635" lon="15.89643576722855"><ele>104.0</ele><time>2026-03-27T12:04:46Z</time></trkpt><trkpt lat="38.38564421757697" lon="15.896149875199095"><ele>107.5</ele><time>2026-03-27T12:04:47Z</time></trkpt><trkpt lat="38.38547652910109" lon="15.895857076045376"><ele>111.0</ele><time>2026-03-27T12:04:48Z</time></trkpt><trkpt lat="38.385317867508206" lon="15.895558104566549"><ele>111.0</ele><time>2026-03-27T12:04:49Z</time></trkpt><trkpt lat="38.385169167022454" lon="15.895251019020787"><ele>111.0</ele><time>2026-03-27T12:04:50Z</time></trkpt><trkpt lat="38.38503135576186" lon="15.894942320217266"><ele>114.5</ele><time>2026-03-27T12:04:51Z</time></trkpt><trkpt lat="38.38490318710736" lon="15.894628643954087"><ele>118.0</ele><time>2026-03-27T12:04:52Z</time></trkpt><trkpt lat="38.38478838987117" lon="15.894307561958263"><ele>118.0</ele><time>2026-03-27T12:04:53Z</time></trkpt><trkpt lat="38.38468316521702" lon="15.89398299884309"><ele>118.0</ele><time>2026-03-27T12:04:54Z</time></trkpt><trkpt lat="38.38458556425525" lon="15.893653800447998"><ele>120.0</ele><time>2026-03-27T12:04:55Z</time></trkpt><trkpt lat="38.384490746104284" lon="15.893323003395961"><ele>122.0</ele><time>2026-03-27T12:04:56Z</time></trkpt><trkpt lat="38.38439552527632" lon="15.892992974522453"><ele>122.0</ele><time>2026-03-27T12:04:57Z</time></trkpt><trkpt lat="38.38430007001697" lon="15.89266226952673"><ele>122.0</ele><time>2026-03-27T12:04:58Z</time></trkpt><trkpt lat="38.38420888515874" lon="15.892329796791337"><ele>122.5</ele><time>2026-03-27T12:04:59Z</time></trkpt><trkpt lat="38.38411743660963" lon="15.891995565042379"><ele>123.0</ele><time>2026-03-27T12:05:00Z</time></trkpt><trkpt lat="38.38402423596778" lon="15.891661524312058"><ele>123.5</ele><time>2026-03-27T12:05:01Z</time></trkpt><trkpt lat="38.38392890038465" lon="15.891329066570643"><ele>124.0</ele><time>2026-03-27T12:05:02Z</time></trkpt><trkpt lat="38.38383374338207" lon="15.890995868821658"><ele>127.0</ele><time>2026-03-27T12:05:03Z</time></trkpt><trkpt lat="38.383740110385375" lon="15.890660812082029"><ele>130.0</ele><time>2026-03-27T12:05:04Z</time></trkpt><trkpt lat="38.38365066759146" lon="15.890324290026191"><ele>132.5</ele><time>2026-03-27T12:05:05Z</time></trkpt><trkpt lat="38.38356576126845" lon="15.889987046857767"><ele>135.0</ele><time>2026-03-27T12:05:06Z</time></trkpt><trkpt lat="38.38348481814688" lon="15.889647943102402"><ele>135.0</ele><time>2026-03-27T12:05:07Z</time></trkpt><trkpt lat="38.38341124968429" lon="15.889306748853507"><ele>135.0</ele><time>2026-03-27T12:05:08Z</time></trkpt><trkpt lat="38.38334348548752" lon="15.88896451890811"><ele>136.5</ele><time>2026-03-27T12:05:09Z</time></trkpt><trkpt lat="38.38327733272218" lon="15.88861498253007"><ele>138.0</ele><time>2026-03-27T12:05:10Z</time></trkpt><trkpt lat="38.38321890620901" lon="15.888265561011837"><ele>138.5</ele><time>2026-03-27T12:05:11Z</time></trkpt><trkpt lat="38.38316888841048" lon="15.887915817488803"><ele>139.0</ele><time>2026-03-27T12:05:12Z</time></trkpt><trkpt lat="38.38312391196681" lon="15.887565114786034"><ele>141.0</ele><time>2026-03-27T12:05:13Z</time></trkpt><trkpt lat="38.383084224516004" lon="15.887215002073361"><ele>143.0</ele><time>2026-03-27T12:05:14Z</time></trkpt><trkpt lat="38.38305549415501" lon="15.88686486583838"><ele>142.5</ele><time>2026-03-27T12:05:15Z</time></trkpt><trkpt lat="38.383033234297805" lon="15.88651192348127"><ele>142.0</ele><time>2026-03-27T12:05:16Z</time></trkpt><trkpt lat="38.38301311943816" lon="15.886157864103625"><ele>143.5</ele><time>2026-03-27T12:05:17Z</time></trkpt><trkpt lat="38.382991769177174" lon="15.885805097575556"><ele>145.0</ele><time>2026-03-27T12:05:18Z</time></trkpt><trkpt lat="38.3829649169727" lon="15.885453607070959"><ele>145.0</ele><time>2026-03-27T12:05:19Z</time></trkpt><trkpt lat="38.382931253546744" lon="15.88510263158974"><ele>145.0</ele><time>2026-03-27T12:05:20Z</time></trkpt><trkpt lat="38.382896614811614" lon="15.88475001713917"><ele>147.0</ele><time>2026-03-27T12:05:21Z</time></trkpt><trkpt lat="38.38286229378492" lon="15.8843967630889"><ele>149.0</ele><time>2026-03-27T12:05:22Z</time></trkpt><trkpt lat="38.38282517708653" lon="15.884044238435274"><ele>151.0</ele><time>2026-03-27T12:05:23Z</time></trkpt><trkpt lat="38.38278788492979" lon="15.883690164333318"><ele>153.0</ele><time>2026-03-27T12:05:24Z</time></trkpt><trkpt lat="38.38274862189082" lon="15.883335385977588"><ele>155.0</ele><time>2026-03-27T12:05:25Z</time></trkpt><trkpt lat="38.38270865211623" lon="15.882977874324487"><ele>157.0</ele><time>2026-03-27T12:05:26Z</time></trkpt><trkpt lat="38.38266614802537" lon="15.882620471180893"><ele>160.0</ele><time>2026-03-27T12:05:27Z</time></trkpt><trkpt lat="38.38261986828604" lon="15.88226514908562"><ele>163.0</ele><time>2026-03-27T12:05:28Z</time></trkpt><trkpt lat="38.382567435304" lon="15.881913218911764"><ele>167.5</ele><time>2026-03-27T12:05:29Z</time></trkpt><trkpt lat="38.382507985706454" lon="15.88156371986028"><ele>172.0</ele><time>2026-03-27T12:05:30Z</time></trkpt><trkpt lat="38.382446052677835" lon="15.881216268243065"><ele>179.5</ele><time>2026-03-27T12:05:31Z</time></trkpt><trkpt lat="38.382379763328125" lon="15.880872517769658"><ele>187.0</ele><time>2026-03-27T12:05:32Z</time></trkpt><trkpt lat="38.382306719373716" lon="15.88053144706108"><ele>187.0</ele><time>2026-03-27T12:05:33Z</time></trkpt><trkpt lat="38.38222933046752" lon="15.880192979256309"><ele>187.0</ele><time>2026-03-27T12:05:34Z</time></trkpt><trkpt lat="38.38214733539147" lon="15.879855649570603"><ele>188.5</ele><time>2026-03-27T12:05:35Z</time></trkpt><trkpt lat="38.382058058822125" lon="15.879521207568107"><ele>190.0</ele><time>2026-03-27T12:05:36Z</time></trkpt><trkpt lat="38.38196133452096" lon="15.879191367440248"><ele>199.5</ele><time>2026-03-27T12:05:37Z</time></trkpt><trkpt lat="38.38185800126141" lon="15.87886396685843"><ele>209.0</ele><time>2026-03-27T12:05:38Z</time></trkpt><trkpt lat="38.381749878844126" lon="15.87853905250437"><ele>213.5</ele><time>2026-03-27T12:05:39Z</time></trkpt><trkpt lat="38.381628245897616" lon="15.878194649853052"><ele>218.0</ele><time>2026-03-27T12:05:40.07Z</time></trkpt><trkpt lat="38.381503505667055" lon="15.87787663011232"><ele>216.0</ele><time>2026-03-27T12:05:41.073Z</time></trkpt><trkpt lat="38.38137472009476" lon="15.877563293946068"><ele>214.0</ele><time>2026-03-27T12:05:42.071Z</time></trkpt><trkpt lat="38.37565050310921" lon="15.870279478087635"><ele>218.0</ele><time>2026-03-27T12:06:11Z</time></trkpt><trkpt lat="38.37540229748856" lon="15.870058542635576"><ele>222.0</ele><time>2026-03-27T12:06:12Z</time></trkpt><trkpt lat="38.37515434361346" lon="15.869854984003506"><ele>222.0</ele><time>2026-03-27T12:06:13Z</time></trkpt><trkpt lat="38.374928154041385" lon="15.86964690953317"><ele>222.0</ele><time>2026-03-27T12:06:14Z</time></trkpt><trkpt lat="38.3747032463363" lon="15.869445769695815"><ele>222.0</ele><time>2026-03-27T12:06:15Z</time></trkpt><trkpt lat="38.37447537746208" lon="15.86924711429401"><ele>222.0</ele><time>2026-03-27T12:06:16Z</time></trkpt><trkpt lat="38.37424331561006" lon="15.869043488822616"><ele>222.0</ele><time>2026-03-27T12:06:17Z</time></trkpt><trkpt lat="38.37401285035876" lon="15.868844189581232"><ele>222.0</ele><time>2026-03-27T12:06:18Z</time></trkpt><trkpt lat="38.373782725824185" lon="15.868643677145952"><ele>229.0</ele><time>2026-03-27T12:06:19Z</time></trkpt><trkpt lat="38.373551819346986" lon="15.868442041698358"><ele>236.0</ele><time>2026-03-27T12:06:20Z</time></trkpt><trkpt lat="38.37332458091433" lon="15.868239861942094"><ele>236.0</ele><time>2026-03-27T12:06:21Z</time></trkpt><trkpt lat="38.373097288847795" lon="15.86803102021759"><ele>236.0</ele><time>2026-03-27T12:06:22Z</time></trkpt><trkpt lat="38.37287272932548" lon="15.86782584936197"><ele>234.0</ele><time>2026-03-27T12:06:23Z</time></trkpt><trkpt lat="38.372645956824044" lon="15.867624893133977"><ele>232.0</ele><time>2026-03-27T12:06:24Z</time></trkpt><trkpt lat="38.37241786451442" lon="15.867426545199322"><ele>234.0</ele><time>2026-03-27T12:06:25Z</time></trkpt><trkpt lat="38.37218896676798" lon="15.867227902610148"><ele>236.0</ele><time>2026-03-27T12:06:26Z</time></trkpt><trkpt lat="38.371956374316774" lon="15.867031768478407"><ele>236.0</ele><time>2026-03-27T12:06:27Z</time></trkpt><trkpt lat="38.37172206337767" lon="15.8668379212467"><ele>236.0</ele><time>2026-03-27T12:06:28Z</time></trkpt><trkpt lat="38.37148318458195" lon="15.866649670145444"><ele>241.0</ele><time>2026-03-27T12:06:29Z</time></trkpt><trkpt lat="38.37123966333144" lon="15.866470143217311"><ele>246.0</ele><time>2026-03-27T12:06:30Z</time></trkpt><trkpt lat="38.37099542249742" lon="15.866303607650833"><ele>246.0</ele><time>2026-03-27T12:06:31Z</time></trkpt><trkpt lat="38.37074590358164" lon="15.866147868737885"><ele>246.0</ele><time>2026-03-27T12:06:32Z</time></trkpt><trkpt lat="38.370491384783534" lon="15.866010619052338"><ele>244.0</ele><time>2026-03-27T12:06:33Z</time></trkpt><trkpt lat="38.370230760207725" lon="15.865884828063763"><ele>242.0</ele><time>2026-03-27T12:06:34Z</time></trkpt><trkpt lat="38.36997289126982" lon="15.865768414557332"><ele>242.0</ele><time>2026-03-27T12:06:35Z</time></trkpt><trkpt lat="38.36970766946093" lon="15.865667572549667"><ele>242.0</ele><time>2026-03-27T12:06:36Z</time></trkpt><trkpt lat="38.36944080876515" lon="15.86557253692203"><ele>245.0</ele><time>2026-03-27T12:06:37Z</time></trkpt><trkpt lat="38.36917388351656" lon="15.86548870853341"><ele>248.0</ele><time>2026-03-27T12:06:38Z</time></trkpt><trkpt lat="38.36890417325292" lon="15.865419619639438"><ele>249.0</ele><time>2026-03-27T12:06:39Z</time></trkpt><trkpt lat="38.36863499633902" lon="15.865364433006535"><ele>250.0</ele><time>2026-03-27T12:06:40Z</time></trkpt><trkpt lat="38.36836544829015" lon="15.865318511764636"><ele>250.0</ele><time>2026-03-27T12:06:41Z</time></trkpt><trkpt lat="38.3680950775517" lon="15.865286155813612"><ele>250.0</ele><time>2026-03-27T12:06:42Z</time></trkpt><trkpt lat="38.36782557803408" lon="15.865266690444626"><ele>250.5</ele><time>2026-03-27T12:06:43Z</time></trkpt><trkpt lat="38.36756182028901" lon="15.865255291066052"><ele>251.0</ele><time>2026-03-27T12:06:44Z</time></trkpt><trkpt lat="38.36729924724805" lon="15.865245397857139"><ele>252.5</ele><time>2026-03-27T12:06:45Z</time></trkpt><trkpt lat="38.36703815057857" lon="15.865236807290769"><ele>254.0</ele><time>2026-03-27T12:06:46Z</time></trkpt><trkpt lat="38.36678112607019" lon="15.865227457093848"><ele>254.0</ele><time>2026-03-27T12:06:47Z</time></trkpt><trkpt lat="38.366520044340604" lon="15.865221061015873"><ele>254.0</ele><time>2026-03-27T12:06:48Z</time></trkpt><trkpt lat="38.366258901634524" lon="15.865221345766322"><ele>254.0</ele><time>2026-03-27T12:06:49Z</time></trkpt><trkpt lat="38.36599791684467" lon="15.865216132349802"><ele>254.0</ele><time>2026-03-27T12:06:50Z</time></trkpt><trkpt lat="38.365732050561995" lon="15.865201811489808"><ele>256.5</ele><time>2026-03-27T12:06:51Z</time></trkpt><trkpt lat="38.365464547148136" lon="15.865184003580154"><ele>259.0</ele><time>2026-03-27T12:06:52Z</time></trkpt><trkpt lat="38.36518913159283" lon="15.865172008498892"><ele>259.0</ele><time>2026-03-27T12:06:53Z</time></trkpt><trkpt lat="38.364911220320735" lon="15.86516176333507"><ele>259.0</ele><time>2026-03-27T12:06:54Z</time></trkpt><trkpt lat="38.36463106110117" lon="15.865146066628684"><ele>260.5</ele><time>2026-03-27T12:06:55Z</time></trkpt><trkpt lat="38.36434777572244" lon="15.865129490631965"><ele>262.0</ele><time>2026-03-27T12:06:56Z</time></trkpt><trkpt lat="38.36406448578413" lon="15.865116184506439"><ele>266.5</ele><time>2026-03-27T12:06:57Z</time></trkpt><trkpt lat="38.36377939560452" lon="15.865100984254445"><ele>271.0</ele><time>2026-03-27T12:06:58Z</time></trkpt><trkpt lat="38.36349363074669" lon="15.865084652438467"><ele>271.0</ele><time>2026-03-27T12:06:59Z</time></trkpt><trkpt lat="38.363209912207545" lon="15.865065010683596"><ele>271.0</ele><time>2026-03-27T12:07:00Z</time></trkpt><trkpt lat="38.36292326734387" lon="15.865052422048578"><ele>274.5</ele><time>2026-03-27T12:07:01Z</time></trkpt><trkpt lat="38.36263655863529" lon="15.86504504392453"><ele>278.0</ele><time>2026-03-27T12:07:02Z</time></trkpt><trkpt lat="38.36234960387941" lon="15.865035493298501"><ele>282.5</ele><time>2026-03-27T12:07:03Z</time></trkpt><trkpt lat="38.36206365342909" lon="15.865022795004423"><ele>287.0</ele><time>2026-03-27T12:07:04Z</time></trkpt><trkpt lat="38.36177734229641" lon="15.865010522504745"><ele>287.0</ele><time>2026-03-27T12:07:05Z</time></trkpt><trkpt lat="38.361492117049586" lon="15.864999288462673"><ele>287.0</ele><time>2026-03-27T12:07:06Z</time></trkpt><trkpt lat="38.361203548356386" lon="15.864990664291774"><ele>289.0</ele><time>2026-03-27T12:07:07Z</time></trkpt><trkpt lat="38.360918219691676" lon="15.864981367199968"><ele>291.0</ele><time>2026-03-27T12:07:08Z</time></trkpt><trkpt lat="38.36063277294834" lon="15.864975712705034"><ele>293.5</ele><time>2026-03-27T12:07:09Z</time></trkpt><trkpt lat="38.36035050012895" lon="15.864974504283849"><ele>296.0</ele><time>2026-03-27T12:07:10Z</time></trkpt><trkpt lat="38.36006776935928" lon="15.864982549125292"><ele>296.0</ele><time>2026-03-27T12:07:11Z</time></trkpt><trkpt lat="38.35978559676783" lon="15.865013459304548"><ele>296.0</ele><time>2026-03-27T12:07:12Z</time></trkpt><trkpt lat="38.35950140838328" lon="15.86504814301132"><ele>292.5</ele><time>2026-03-27T12:07:13Z</time></trkpt><trkpt lat="38.359217894938546" lon="15.86509567271862"><ele>289.0</ele><time>2026-03-27T12:07:14Z</time></trkpt><trkpt lat="38.35893659823967" lon="15.86514912259545"><ele>291.0</ele><time>2026-03-27T12:07:15Z</time></trkpt><trkpt lat="38.35865610599198" lon="15.865215061259576"><ele>293.0</ele><time>2026-03-27T12:07:16Z</time></trkpt><trkpt lat="38.35837600899672" lon="15.865294161749768"><ele>293.0</ele><time>2026-03-27T12:07:17Z</time></trkpt><trkpt lat="38.358096799491776" lon="15.865384099707429"><ele>293.0</ele><time>2026-03-27T12:07:18Z</time></trkpt><trkpt lat="38.35782016745116" lon="15.86548411640373"><ele>295.5</ele><time>2026-03-27T12:07:19Z</time></trkpt><trkpt lat="38.357547798569776" lon="15.865594199285695"><ele>298.0</ele><time>2026-03-27T12:07:20Z</time></trkpt><trkpt lat="38.35727885800827" lon="15.865717120764517"><ele>299.0</ele><time>2026-03-27T12:07:21Z</time></trkpt><trkpt lat="38.35701426912839" lon="15.865847252720487"><ele>300.0</ele><time>2026-03-27T12:07:22Z</time></trkpt><trkpt lat="38.35675281744918" lon="15.865985632679774"><ele>298.0</ele><time>2026-03-27T12:07:23Z</time></trkpt><trkpt lat="38.35649720673537" lon="15.866127390857677"><ele>296.0</ele><time>2026-03-27T12:07:24Z</time></trkpt><trkpt lat="38.356246675403426" lon="15.866280979134016"><ele>296.0</ele><time>2026-03-27T12:07:25Z</time></trkpt><trkpt lat="38.35600323738987" lon="15.866446370530452"><ele>296.0</ele><time>2026-03-27T12:07:26Z</time></trkpt><trkpt lat="38.355765511932425" lon="15.866615159406912"><ele>299.0</ele><time>2026-03-27T12:07:27Z</time></trkpt><trkpt lat="38.35552864120559" lon="15.866791654738543"><ele>302.0</ele><time>2026-03-27T12:07:28Z</time></trkpt><trkpt lat="38.35529332809968" lon="15.86697032961262"><ele>302.0</ele><time>2026-03-27T12:07:29Z</time></trkpt><trkpt lat="38.355059478068526" lon="15.867151106739026"><ele>302.0</ele><time>2026-03-27T12:07:30Z</time></trkpt><trkpt lat="38.35482784797539" lon="15.867329698569097"><ele>302.0</ele><time>2026-03-27T12:07:31Z</time></trkpt><trkpt lat="38.35459887215867" lon="15.867508920489355"><ele>302.0</ele><time>2026-03-27T12:07:32Z</time></trkpt><trkpt lat="38.354370746526705" lon="15.867687704539172"><ele>302.0</ele><time>2026-03-27T12:07:33Z</time></trkpt><trkpt lat="38.35414358077462" lon="15.867862118782302"><ele>302.0</ele><time>2026-03-27T12:07:34Z</time></trkpt><trkpt lat="38.35391896657221" lon="15.868030434391798"><ele>312.0</ele><time>2026-03-27T12:07:35Z</time></trkpt><trkpt lat="38.35369128822718" lon="15.868195049731753"><ele>322.0</ele><time>2026-03-27T12:07:36Z</time></trkpt><trkpt lat="38.35346114071602" lon="15.86835864911688"><ele>324.5</ele><time>2026-03-27T12:07:37Z</time></trkpt><trkpt lat="38.35323153461392" lon="15.868517601942763"><ele>327.0</ele><time>2026-03-27T12:07:38Z</time></trkpt><trkpt lat="38.35300150052324" lon="15.868668014138223"><ele>347.0</ele><time>2026-03-27T12:07:39Z</time></trkpt><trkpt lat="38.35276727673869" lon="15.868812397770814"><ele>367.0</ele><time>2026-03-27T12:07:40Z</time></trkpt><trkpt lat="38.35253035797412" lon="15.868950185526902"><ele>367.0</ele><time>2026-03-27T12:07:41Z</time></trkpt><trkpt lat="38.35229000499398" lon="15.869079028677206"><ele>367.0</ele><time>2026-03-27T12:07:42Z</time></trkpt><trkpt lat="38.352045794617126" lon="15.8691995432065"><ele>378.0</ele><time>2026-03-27T12:07:43Z</time></trkpt><trkpt lat="38.351797954039284" lon="15.869312184406434"><ele>389.0</ele><time>2026-03-27T12:07:44Z</time></trkpt><trkpt lat="38.35154699744356" lon="15.869414064081342"><ele>398.0</ele><time>2026-03-27T12:07:45Z</time></trkpt><trkpt lat="38.35127651227391" lon="15.869513918555793"><ele>407.0</ele><time>2026-03-27T12:07:46.067Z</time></trkpt><trkpt lat="38.34418365283446" lon="15.868408740266426"><ele>375.5</ele><time>2026-03-27T12:08:13Z</time></trkpt><trkpt lat="38.343940276290674" lon="15.868115818792997"><ele>344.0</ele><time>2026-03-27T12:08:14Z</time></trkpt><trkpt lat="38.343696837770395" lon="15.867955005037347"><ele>333.0</ele><time>2026-03-27T12:08:15Z</time></trkpt><trkpt lat="38.34343264324361" lon="15.867792987394447"><ele>322.0</ele><time>2026-03-27T12:08:16Z</time></trkpt><trkpt lat="38.34318530398379" lon="15.867636217693459"><ele>328.0</ele><time>2026-03-27T12:08:17Z</time></trkpt><trkpt lat="38.342948185052066" lon="15.86747566891803"><ele>334.0</ele><time>2026-03-27T12:08:18Z</time></trkpt><trkpt lat="38.34272270400882" lon="15.867305783993517"><ele>334.0</ele><time>2026-03-27T12:08:19Z</time></trkpt><trkpt lat="38.342495694122896" lon="15.867138925118134"><ele>334.0</ele><time>2026-03-27T12:08:20Z</time></trkpt><trkpt lat="38.34227070793418" lon="15.86696694204878"><ele>328.5</ele><time>2026-03-27T12:08:21Z</time></trkpt><trkpt lat="38.34204934437662" lon="15.866793565401549"><ele>323.0</ele><time>2026-03-27T12:08:22Z</time></trkpt><trkpt lat="38.34183127651538" lon="15.86661567882232"><ele>335.5</ele><time>2026-03-27T12:08:23Z</time></trkpt><trkpt lat="38.34160931245934" lon="15.866435596473467"><ele>348.0</ele><time>2026-03-27T12:08:24Z</time></trkpt><trkpt lat="38.341388400727396" lon="15.866256569103738"><ele>354.0</ele><time>2026-03-27T12:08:25Z</time></trkpt><trkpt lat="38.34116739355408" lon="15.866075654825954"><ele>360.0</ele><time>2026-03-27T12:08:26Z</time></trkpt><trkpt lat="38.3409451917102" lon="15.86589291426649"><ele>360.0</ele><time>2026-03-27T12:08:27Z</time></trkpt><trkpt lat="38.34072236589671" lon="15.865710062489438"><ele>360.0</ele><time>2026-03-27T12:08:28Z</time></trkpt><trkpt lat="38.34049969329127" lon="15.865526609181755"><ele>352.0</ele><time>2026-03-27T12:08:29Z</time></trkpt><trkpt lat="38.34027766646821" lon="15.865340092801015"><ele>344.0</ele><time>2026-03-27T12:08:30Z</time></trkpt><trkpt lat="38.340060110894754" lon="15.865149818417008"><ele>341.0</ele><time>2026-03-27T12:08:31Z</time></trkpt><trkpt lat="38.33984175818099" lon="15.864960695408616"><ele>338.0</ele><time>2026-03-27T12:08:32Z</time></trkpt><trkpt lat="38.33962108725714" lon="15.864773704372883"><ele>338.0</ele><time>2026-03-27T12:08:33Z</time></trkpt><trkpt lat="38.33939997482508" lon="15.8645872399322"><ele>338.0</ele><time>2026-03-27T12:08:34Z</time></trkpt><trkpt lat="38.33917958714048" lon="15.864401664744316"><ele>336.5</ele><time>2026-03-27T12:08:35Z</time></trkpt><trkpt lat="38.33895777137518" lon="15.864214751717727"><ele>335.0</ele><time>2026-03-27T12:08:36Z</time></trkpt><trkpt lat="38.338735758883075" lon="15.86403023568719"><ele>335.0</ele><time>2026-03-27T12:08:37Z</time></trkpt><trkpt lat="38.338514267477045" lon="15.863843993106588"><ele>335.0</ele><time>2026-03-27T12:08:38Z</time></trkpt><trkpt lat="38.33829363799229" lon="15.863659099329933"><ele>335.0</ele><time>2026-03-27T12:08:39Z</time></trkpt><trkpt lat="38.3380736684703" lon="15.863470645925853"><ele>335.0</ele><time>2026-03-27T12:08:40Z</time></trkpt><trkpt lat="38.33785391952821" lon="15.863278053056789"><ele>340.5</ele><time>2026-03-27T12:08:41Z</time></trkpt><trkpt lat="38.33763243293402" lon="15.863088780415794"><ele>346.0</ele><time>2026-03-27T12:08:42Z</time></trkpt><trkpt lat="38.3374113943489" lon="15.862901450371998"><ele>345.0</ele><time>2026-03-27T12:08:43Z</time></trkpt><trkpt lat="38.33718969079941" lon="15.862714400764354"><ele>344.0</ele><time>2026-03-27T12:08:44Z</time></trkpt><trkpt lat="38.3369678896962" lon="15.86252584024779"><ele>352.0</ele><time>2026-03-27T12:08:45Z</time></trkpt><trkpt lat="38.33674435473213" lon="15.86233731628856"><ele>360.0</ele><time>2026-03-27T12:08:46Z</time></trkpt><trkpt lat="38.336519791444594" lon="15.862146897651845"><ele>360.5</ele><time>2026-03-27T12:08:47Z</time></trkpt><trkpt lat="38.33629580383152" lon="15.861954289858009"><ele>361.0</ele><time>2026-03-27T12:08:48Z</time></trkpt><trkpt lat="38.33607162302719" lon="15.86176020470132"><ele>366.0</ele><time>2026-03-27T12:08:49Z</time></trkpt><trkpt lat="38.33584700077748" lon="15.861564180941803"><ele>371.0</ele><time>2026-03-27T12:08:50Z</time></trkpt><trkpt lat="38.335621141084964" lon="15.86136640100726"><ele>370.0</ele><time>2026-03-27T12:08:51Z</time></trkpt><trkpt lat="38.335395833823" lon="15.86116267793392"><ele>369.0</ele><time>2026-03-27T12:08:52Z</time></trkpt><trkpt lat="38.335173736564705" lon="15.860953334438632"><ele>375.0</ele><time>2026-03-27T12:08:53Z</time></trkpt><trkpt lat="38.33495287576155" lon="15.860735560365097"><ele>381.0</ele><time>2026-03-27T12:08:54Z</time></trkpt><trkpt lat="38.33473666450061" lon="15.860508684690116"><ele>382.0</ele><time>2026-03-27T12:08:55Z</time></trkpt><trkpt lat="38.33452790597557" lon="15.860274017418655"><ele>383.0</ele><time>2026-03-27T12:08:56Z</time></trkpt><trkpt lat="38.334323859082126" lon="15.860032375596813"><ele>383.0</ele><time>2026-03-27T12:08:57Z</time></trkpt><trkpt lat="38.33412386932501" lon="15.85978490760729"><ele>383.0</ele><time>2026-03-27T12:08:58Z</time></trkpt><trkpt lat="38.33392950231433" lon="15.859532394043141"><ele>383.5</ele><time>2026-03-27T12:08:59Z</time></trkpt><trkpt lat="38.33374193600626" lon="15.85927496263294"><ele>384.0</ele><time>2026-03-27T12:09:00Z</time></trkpt><trkpt lat="38.333558407963075" lon="15.85901248247949"><ele>384.0</ele><time>2026-03-27T12:09:01Z</time></trkpt><trkpt lat="38.333379696453505" lon="15.858746136222946"><ele>384.0</ele><time>2026-03-27T12:09:02Z</time></trkpt><trkpt lat="38.333206548243155" lon="15.858477416783561"><ele>387.5</ele><time>2026-03-27T12:09:03Z</time></trkpt><trkpt lat="38.333036421484785" lon="15.858207439902314"><ele>391.0</ele><time>2026-03-27T12:09:04Z</time></trkpt><trkpt lat="38.33287253777116" lon="15.857932043233209"><ele>391.0</ele><time>2026-03-27T12:09:05Z</time></trkpt><trkpt lat="38.33271556433489" lon="15.857643799496204"><ele>391.0</ele><time>2026-03-27T12:09:06Z</time></trkpt><trkpt lat="38.332561786739426" lon="15.8573521950869"><ele>399.5</ele><time>2026-03-27T12:09:07Z</time></trkpt><trkpt lat="38.33241120780028" lon="15.857054793853735"><ele>408.0</ele><time>2026-03-27T12:09:08Z</time></trkpt><trkpt lat="38.33226090284526" lon="15.856754940019664"><ele>412.5</ele><time>2026-03-27T12:09:09Z</time></trkpt><trkpt lat="38.3321090736933" lon="15.856453493641352"><ele>417.0</ele><time>2026-03-27T12:09:10Z</time></trkpt><trkpt lat="38.33195685837669" lon="15.856149351358761"><ele>426.5</ele><time>2026-03-27T12:09:11Z</time></trkpt><trkpt lat="38.33180544578569" lon="15.855841717735043"><ele>436.0</ele><time>2026-03-27T12:09:12Z</time></trkpt><trkpt lat="38.33164500558392" lon="15.855510441313974"><ele>436.0</ele><time>2026-03-27T12:09:13.07Z</time></trkpt><trkpt lat="38.331494433665114" lon="15.855198155199037"><ele>436.0</ele><time>2026-03-27T12:09:14.071Z</time></trkpt><trkpt lat="38.314812527222614" lon="15.8423317537075"><ele>459.5</ele><time>2026-03-27T12:10:28Z</time></trkpt><trkpt lat="38.314518266188834" lon="15.842429738208617"><ele>483.0</ele><time>2026-03-27T12:10:29Z</time></trkpt><trkpt lat="38.31421131333875" lon="15.84259468619204"><ele>483.5</ele><time>2026-03-27T12:10:30Z</time></trkpt><trkpt lat="38.313910240341684" lon="15.84269892277812"><ele>484.0</ele><time>2026-03-27T12:10:31Z</time></trkpt><trkpt lat="38.313618433603835" lon="15.842807024941509"><ele>483.0</ele><time>2026-03-27T12:10:32Z</time></trkpt><trkpt lat="38.31333424728743" lon="15.842913711149079"><ele>482.0</ele><time>2026-03-27T12:10:33Z</time></trkpt><trkpt lat="38.31304937279307" lon="15.843022112239405"><ele>480.5</ele><time>2026-03-27T12:10:34Z</time></trkpt><trkpt lat="38.31276728586074" lon="15.843136434912854"><ele>479.0</ele><time>2026-03-27T12:10:35Z</time></trkpt><trkpt lat="38.31248734318209" lon="15.843239900515945"><ele>476.5</ele><time>2026-03-27T12:10:36Z</time></trkpt><trkpt lat="38.312204085787364" lon="15.84334292413694"><ele>474.0</ele><time>2026-03-27T12:10:37Z</time></trkpt><trkpt lat="38.311921227185074" lon="15.843439484460994"><ele>475.0</ele><time>2026-03-27T12:10:38Z</time></trkpt><trkpt lat="38.31163746860078" lon="15.843532284638249"><ele>476.0</ele><time>2026-03-27T12:10:39Z</time></trkpt><trkpt lat="38.311349027960794" lon="15.84362254866247"><ele>477.0</ele><time>2026-03-27T12:10:40Z</time></trkpt><trkpt lat="38.31106144120036" lon="15.84370081725128"><ele>478.0</ele><time>2026-03-27T12:10:41Z</time></trkpt><trkpt lat="38.31076841081954" lon="15.843774175148184"><ele>479.0</ele><time>2026-03-27T12:10:42Z</time></trkpt><trkpt lat="38.3104794554885" lon="15.843845846882695"><ele>480.0</ele><time>2026-03-27T12:10:43Z</time></trkpt><trkpt lat="38.3101946035567" lon="15.843905782210784"><ele>480.0</ele><time>2026-03-27T12:10:44Z</time></trkpt><trkpt lat="38.30991736689226" lon="15.843961767060993"><ele>480.0</ele><time>2026-03-27T12:10:45Z</time></trkpt><trkpt lat="38.309636333868376" lon="15.844008396249478"><ele>480.5</ele><time>2026-03-27T12:10:46Z</time></trkpt><trkpt lat="38.309355902172435" lon="15.84404645309133"><ele>481.0</ele><time>2026-03-27T12:10:47Z</time></trkpt><trkpt lat="38.30907441957435" lon="15.844078310274702"><ele>481.0</ele><time>2026-03-27T12:10:48Z</time></trkpt><trkpt lat="38.3087955576916" lon="15.844105809593831"><ele>481.0</ele><time>2026-03-27T12:10:49Z</time></trkpt><trkpt lat="38.30853161019229" lon="15.844141465983007"><ele>481.0</ele><time>2026-03-27T12:10:50Z</time></trkpt><trkpt lat="38.30825649034011" lon="15.844156819880443"><ele>481.0</ele><time>2026-03-27T12:10:51Z</time></trkpt><trkpt lat="38.307980827639106" lon="15.844185595870469"><ele>482.0</ele><time>2026-03-27T12:10:52Z</time></trkpt><trkpt lat="38.30770416410454" lon="15.844199593463875"><ele>483.0</ele><time>2026-03-27T12:10:53Z</time></trkpt><trkpt lat="38.307425814104526" lon="15.84420003448323"><ele>484.5</ele><time>2026-03-27T12:10:54Z</time></trkpt><trkpt lat="38.30714551912524" lon="15.844194907134375"><ele>486.0</ele><time>2026-03-27T12:10:55Z</time></trkpt><trkpt lat="38.306862157954924" lon="15.844186937061334"><ele>486.0</ele><time>2026-03-27T12:10:56Z</time></trkpt><trkpt lat="38.306577897821796" lon="15.844174318863692"><ele>486.0</ele><time>2026-03-27T12:10:57Z</time></trkpt><trkpt lat="38.3062935318669" lon="15.844157684246689"><ele>487.0</ele><time>2026-03-27T12:10:58Z</time></trkpt><trkpt lat="38.30600881638225" lon="15.844136493578908"><ele>488.0</ele><time>2026-03-27T12:10:59Z</time></trkpt><trkpt lat="38.30572386834797" lon="15.84410683035576"><ele>488.5</ele><time>2026-03-27T12:11:00Z</time></trkpt><trkpt lat="38.30543710221848" lon="15.844073915585707"><ele>489.0</ele><time>2026-03-27T12:11:01Z</time></trkpt><trkpt lat="38.30514765276304" lon="15.844037125231342"><ele>489.0</ele><time>2026-03-27T12:11:02Z</time></trkpt><trkpt lat="38.304858321518644" lon="15.84399560578059"><ele>489.0</ele><time>2026-03-27T12:11:03Z</time></trkpt><trkpt lat="38.304570904260004" lon="15.843950747143438"><ele>490.5</ele><time>2026-03-27T12:11:04Z</time></trkpt><trkpt lat="38.3042869570154" lon="15.84390562836521"><ele>492.0</ele><time>2026-03-27T12:11:05Z</time></trkpt><trkpt lat="38.30400640673619" lon="15.843859541227848"><ele>495.0</ele><time>2026-03-27T12:11:06Z</time></trkpt><trkpt lat="38.3037250713987" lon="15.84381489250772"><ele>498.0</ele><time>2026-03-27T12:11:07Z</time></trkpt><trkpt lat="38.30344478759138" lon="15.843769909389438"><ele>498.0</ele><time>2026-03-27T12:11:08Z</time></trkpt><trkpt lat="38.30316111741324" lon="15.843712662877563"><ele>498.0</ele><time>2026-03-27T12:11:09Z</time></trkpt><trkpt lat="38.30288415535616" lon="15.843651951339776"><ele>499.5</ele><time>2026-03-27T12:11:10Z</time></trkpt><trkpt lat="38.302604639413424" lon="15.843586333457903"><ele>501.0</ele><time>2026-03-27T12:11:11Z</time></trkpt><trkpt lat="38.30232825023587" lon="15.843525890089403"><ele>502.0</ele><time>2026-03-27T12:11:12Z</time></trkpt><trkpt lat="38.30205111058446" lon="15.843465811054992"><ele>503.0</ele><time>2026-03-27T12:11:13Z</time></trkpt><trkpt lat="38.30177555584109" lon="15.84340641356512"><ele>501.0</ele><time>2026-03-27T12:11:14Z</time></trkpt><trkpt lat="38.30150324611321" lon="15.843346341368676"><ele>499.0</ele><time>2026-03-27T12:11:15Z</time></trkpt><trkpt lat="38.30123422679661" lon="15.843287513516904"><ele>499.0</ele><time>2026-03-27T12:11:16Z</time></trkpt><trkpt lat="38.300976914055745" lon="15.843251757422259"><ele>499.0</ele><time>2026-03-27T12:11:17Z</time></trkpt><trkpt lat="38.30071701953649" lon="15.843215013698268"><ele>510.0</ele><time>2026-03-27T12:11:18Z</time></trkpt><trkpt lat="38.30045824285698" lon="15.843181953795023"><ele>521.0</ele><time>2026-03-27T12:11:19Z</time></trkpt><trkpt lat="38.3001984158812" lon="15.843147975597391"><ele>521.0</ele><time>2026-03-27T12:11:20Z</time></trkpt><trkpt lat="38.29993715982676" lon="15.843113273139075"><ele>521.0</ele><time>2026-03-27T12:11:21Z</time></trkpt><trkpt lat="38.29966439370479" lon="15.84305120491982"><ele>492.0</ele><time>2026-03-27T12:11:22.068Z</time></trkpt><trkpt lat="38.294411913385375" lon="15.839775682168264"><ele>492.0</ele><time>2026-03-27T12:11:43Z</time></trkpt><trkpt lat="38.29419991118512" lon="15.839536834580606"><ele>492.0</ele><time>2026-03-27T12:11:44Z</time></trkpt><trkpt lat="38.29400170403096" lon="15.839299227483874"><ele>483.5</ele><time>2026-03-27T12:11:45Z</time></trkpt><trkpt lat="38.29381280979268" lon="15.839075873717173"><ele>475.0</ele><time>2026-03-27T12:11:46Z</time></trkpt><trkpt lat="38.29363430632584" lon="15.838822645532865"><ele>475.0</ele><time>2026-03-27T12:11:47Z</time></trkpt><trkpt lat="38.29345394535656" lon="15.838564994353158"><ele>475.0</ele><time>2026-03-27T12:11:48Z</time></trkpt><trkpt lat="38.29327456472032" lon="15.838305635496084"><ele>481.5</ele><time>2026-03-27T12:11:49Z</time></trkpt><trkpt lat="38.293093492460805" lon="15.838036989436636"><ele>488.0</ele><time>2026-03-27T12:11:50Z</time></trkpt><trkpt lat="38.292922453820374" lon="15.83776976242144"><ele>489.5</ele><time>2026-03-27T12:11:51Z</time></trkpt><trkpt lat="38.29272873476424" lon="15.837499841413807"><ele>491.0</ele><time>2026-03-27T12:11:52Z</time></trkpt><trkpt lat="38.29158866949524" lon="15.83588944370104"><ele>491.0</ele><time>2026-03-27T12:11:58Z</time></trkpt><trkpt lat="38.291498455907565" lon="15.835503216293365"><ele>491.0</ele><time>2026-03-27T12:11:59Z</time></trkpt><trkpt lat="38.29140502188278" lon="15.835177592544962"><ele>496.0</ele><time>2026-03-27T12:12:00Z</time></trkpt><trkpt lat="38.29126694813568" lon="15.834866265218706"><ele>501.0</ele><time>2026-03-27T12:12:01Z</time></trkpt><trkpt lat="38.29111921118375" lon="15.834558596159903"><ele>503.0</ele><time>2026-03-27T12:12:02Z</time></trkpt><trkpt lat="38.29097698698255" lon="15.834254025627736"><ele>505.0</ele><time>2026-03-27T12:12:03Z</time></trkpt><trkpt lat="38.29080492775748" lon="15.833919609217297"><ele>505.0</ele><time>2026-03-27T12:12:04Z</time></trkpt><trkpt lat="38.29063505628663" lon="15.833603085833605"><ele>505.0</ele><time>2026-03-27T12:12:05Z</time></trkpt><trkpt lat="38.2904868370893" lon="15.833315876212477"><ele>511.0</ele><time>2026-03-27T12:12:06Z</time></trkpt><trkpt lat="38.29011463643869" lon="15.832557855942257"><ele>511.0</ele><time>2026-03-27T12:12:09Z</time></trkpt><trkpt lat="38.28996841893333" lon="15.832246026779192"><ele>511.0</ele><time>2026-03-27T12:12:10Z</time></trkpt><trkpt lat="38.28409910022495" lon="15.820966496837944"><ele>516.5</ele><time>2026-03-27T12:12:46Z</time></trkpt><trkpt lat="38.28395451330305" lon="15.820694174834125"><ele>522.0</ele><time>2026-03-27T12:12:47Z</time></trkpt><trkpt lat="38.283800336013336" lon="15.820415517502624"><ele>530.0</ele><time>2026-03-27T12:12:48Z</time></trkpt><trkpt lat="38.283648242919575" lon="15.820111300264344"><ele>538.0</ele><time>2026-03-27T12:12:49Z</time></trkpt><trkpt lat="38.28112789896483" lon="15.816252723273017"><ele>501.5</ele><time>2026-03-27T12:13:03Z</time></trkpt><trkpt lat="38.28092055342297" lon="15.816018265864717"><ele>465.0</ele><time>2026-03-27T12:13:04Z</time></trkpt><trkpt lat="38.28066004675007" lon="15.815788461520253"><ele>490.0</ele><time>2026-03-27T12:13:05Z</time></trkpt><trkpt lat="38.28045922073947" lon="15.815596455349619"><ele>515.0</ele><time>2026-03-27T12:13:06Z</time></trkpt><trkpt lat="38.28025036987297" lon="15.815396525560113"><ele>515.0</ele><time>2026-03-27T12:13:07Z</time></trkpt><trkpt lat="38.28003143348651" lon="15.815183331438082"><ele>515.0</ele><time>2026-03-27T12:13:08Z</time></trkpt><trkpt lat="38.27699350139604" lon="15.813188142690054"><ele>533.0</ele><time>2026-03-27T12:13:16.176Z</time></trkpt><trkpt lat="38.27634415934969" lon="15.81280116827569"><ele>534.0</ele><time>2026-03-27T12:13:17.171Z</time></trkpt><trkpt lat="38.275708245860685" lon="15.812365833563268"><ele>534.0</ele><time>2026-03-27T12:13:18.174Z</time></trkpt><trkpt lat="38.27510952301147" lon="15.811855255956376"><ele>533.0</ele><time>2026-03-27T12:13:19.175Z</time></trkpt><trkpt lat="38.274551327068785" lon="15.811282877961002"><ele>523.0</ele><time>2026-03-27T12:13:20.172Z</time></trkpt><trkpt lat="38.27403394045736" lon="15.810643867201634"><ele>514.0</ele><time>2026-03-27T12:13:21.174Z</time></trkpt><trkpt lat="38.273565464483774" lon="15.809947643569528"><ele>483.0</ele><time>2026-03-27T12:13:22.176Z</time></trkpt><trkpt lat="38.27315490065096" lon="15.809196791038085"><ele>464.0</ele><time>2026-03-27T12:13:23.175Z</time></trkpt><trkpt lat="38.272799422240055" lon="15.808402053320417"><ele>422.0</ele><time>2026-03-27T12:13:24.175Z</time></trkpt><trkpt lat="38.2725031002856" lon="15.807573205222873"><ele>422.0</ele><time>2026-03-27T12:13:25.171Z</time></trkpt><trkpt lat="38.27236543607729" lon="15.80693533060831"><ele>386.0</ele><time>2026-03-27T12:13:46Z</time></trkpt><trkpt lat="38.272271830197006" lon="15.806634291594097"><ele>350.0</ele><time>2026-03-27T12:13:47Z</time></trkpt><trkpt lat="38.27213569599482" lon="15.806265598302238"><ele>334.5</ele><time>2026-03-27T12:13:48Z</time></trkpt><trkpt lat="38.27202708059286" lon="15.805930463206932"><ele>319.0</ele><time>2026-03-27T12:13:49Z</time></trkpt><trkpt lat="38.27192301941353" lon="15.805600292973907"><ele>319.0</ele><time>2026-03-27T12:13:50Z</time></trkpt><trkpt lat="38.27182267918869" lon="15.805292167687345"><ele>319.0</ele><time>2026-03-27T12:13:51Z</time></trkpt><trkpt lat="38.27172409313627" lon="15.804985418286648"><ele>304.0</ele><time>2026-03-27T12:13:52Z</time></trkpt><trkpt lat="38.271629704842084" lon="15.804673905111505"><ele>289.0</ele><time>2026-03-27T12:13:53Z</time></trkpt><trkpt lat="38.271539647806534" lon="15.804367948935708"><ele>266.5</ele><time>2026-03-27T12:13:54Z</time></trkpt><trkpt lat="38.271443996134124" lon="15.804060634779411"><ele>244.0</ele><time>2026-03-27T12:13:55Z</time></trkpt><trkpt lat="38.271360603248844" lon="15.803756346325585"><ele>216.5</ele><time>2026-03-27T12:13:56Z</time></trkpt><trkpt lat="38.271269394450115" lon="15.80344881899161"><ele>189.0</ele><time>2026-03-27T12:13:57Z</time></trkpt><trkpt lat="38.271174428660444" lon="15.803143205990905"><ele>189.0</ele><time>2026-03-27T12:13:58Z</time></trkpt><trkpt lat="38.27108332565862" lon="15.802838399497185"><ele>189.0</ele><time>2026-03-27T12:13:59Z</time></trkpt><trkpt lat="38.27099186961949" lon="15.802535235760914"><ele>194.5</ele><time>2026-03-27T12:14:00Z</time></trkpt><trkpt lat="38.27089889608913" lon="15.802224617065628"><ele>200.0</ele><time>2026-03-27T12:14:01Z</time></trkpt><trkpt lat="38.27080791018696" lon="15.801914316711342"><ele>220.0</ele><time>2026-03-27T12:14:02Z</time></trkpt><trkpt lat="38.27071555603773" lon="15.801599726950075"><ele>240.0</ele><time>2026-03-27T12:14:03Z</time></trkpt><trkpt lat="38.27062203116371" lon="15.801285532988258"><ele>260.5</ele><time>2026-03-27T12:14:04Z</time></trkpt><trkpt lat="38.270528004163126" lon="15.800970259634072"><ele>281.0</ele><time>2026-03-27T12:14:05Z</time></trkpt><trkpt lat="38.270437726937345" lon="15.800665678767993"><ele>281.0</ele><time>2026-03-27T12:14:06Z</time></trkpt><trkpt lat="38.27035594631276" lon="15.80035435643532"><ele>281.0</ele><time>2026-03-27T12:14:07Z</time></trkpt><trkpt lat="38.27026529323373" lon="15.800054441685331"><ele>330.0</ele><time>2026-03-27T12:14:08Z</time></trkpt><trkpt lat="38.270202337573494" lon="15.799757474369011"><ele>379.0</ele><time>2026-03-27T12:14:09Z</time></trkpt><trkpt lat="38.27011987543768" lon="15.799464158586098"><ele>394.0</ele><time>2026-03-27T12:14:10Z</time></trkpt><trkpt lat="38.27004078353329" lon="15.79916858934853"><ele>409.0</ele><time>2026-03-27T12:14:11Z</time></trkpt><trkpt lat="38.269970995958204" lon="15.79887013724056"><ele>409.0</ele><time>2026-03-27T12:14:12Z</time></trkpt><trkpt lat="38.269907904749516" lon="15.798577430094321"><ele>409.0</ele><time>2026-03-27T12:14:13Z</time></trkpt><trkpt lat="38.26984617779578" lon="15.79826864452689"><ele>426.5</ele><time>2026-03-27T12:14:14Z</time></trkpt><trkpt lat="38.26978172207408" lon="15.797951041171258"><ele>444.0</ele><time>2026-03-27T12:14:15Z</time></trkpt><trkpt lat="38.269709924679475" lon="15.797635491254077"><ele>476.0</ele><time>2026-03-27T12:14:16Z</time></trkpt><trkpt lat="38.26963554712452" lon="15.797325391386618"><ele>508.0</ele><time>2026-03-27T12:14:17Z</time></trkpt><trkpt lat="38.269564438620904" lon="15.797015264612856"><ele>518.0</ele><time>2026-03-27T12:14:18Z</time></trkpt><trkpt lat="38.2695241191379" lon="15.796693792652388"><ele>528.0</ele><time>2026-03-27T12:14:19Z</time></trkpt><trkpt lat="38.26947914216259" lon="15.796372268476262"><ele>528.0</ele><time>2026-03-27T12:14:20Z</time></trkpt><trkpt lat="38.269426692869054" lon="15.79602872745543"><ele>528.0</ele><time>2026-03-27T12:14:21.075Z</time></trkpt><trkpt lat="38.269375991871144" lon="15.795709418086467"><ele>531.0</ele><time>2026-03-27T12:14:22.071Z</time></trkpt><trkpt lat="38.26932396056002" lon="15.795387182746676"><ele>534.0</ele><time>2026-03-27T12:14:23.067Z</time></trkpt><trkpt lat="38.26926985246156" lon="15.795063416859046"><ele>528.0</ele><time>2026-03-27T12:14:24.064Z</time></trkpt><trkpt lat="38.268746293599115" lon="15.792561191948623"><ele>524.0</ele><time>2026-03-27T12:14:27.175Z</time></trkpt><trkpt lat="38.26847925682405" lon="15.791712143831951"><ele>522.0</ele><time>2026-03-27T12:14:28.175Z</time></trkpt><trkpt lat="38.26818205901679" lon="15.79087936548374"><ele>531.0</ele><time>2026-03-27T12:14:29.175Z</time></trkpt><trkpt lat="38.267860186280416" lon="15.790062680371165"><ele>518.0</ele><time>2026-03-27T12:14:30.174Z</time></trkpt><trkpt lat="38.267502069337915" lon="15.78927068937443"><ele>488.0</ele><time>2026-03-27T12:14:31.173Z</time></trkpt><trkpt lat="38.2671259198928" lon="15.78849352337168"><ele>488.0</ele><time>2026-03-27T12:14:32.171Z</time></trkpt><trkpt lat="38.26673627201718" lon="15.787719310887878"><ele>457.5</ele><time>2026-03-27T12:14:33.175Z</time></trkpt><trkpt lat="38.2665504" lon="15.7873535"><ele>427.0</ele><time>2026-03-27T12:14:34.174Z</time></trkpt><trkpt lat="38.26555139033946" lon="15.785420611776944"><ele>401.0</ele><time>2026-03-27T12:14:53Z</time></trkpt><trkpt lat="38.26538013347683" lon="15.785138671839"><ele>375.0</ele><time>2026-03-27T12:14:54Z</time></trkpt><trkpt lat="38.265218197394326" lon="15.78483497676737"><ele>375.0</ele><time>2026-03-27T12:14:55Z</time></trkpt><trkpt lat="38.26503424863274" lon="15.784508759149281"><ele>375.0</ele><time>2026-03-27T12:14:56Z</time></trkpt><trkpt lat="38.26488663032264" lon="15.784187783190559"><ele>408.5</ele><time>2026-03-27T12:14:57Z</time></trkpt><trkpt lat="38.2647299522996" lon="15.783870158105632"><ele>442.0</ele><time>2026-03-27T12:14:58Z</time></trkpt><trkpt lat="38.2645775753426" lon="15.783556643510497"><ele>457.0</ele><time>2026-03-27T12:14:59Z</time></trkpt><trkpt lat="38.264423665268076" lon="15.783238562751082"><ele>472.0</ele><time>2026-03-27T12:15:00Z</time></trkpt><trkpt lat="38.26426625326152" lon="15.782914164028616"><ele>474.0</ele><time>2026-03-27T12:15:01Z</time></trkpt><trkpt lat="38.26411421577992" lon="15.782598824408167"><ele>476.0</ele><time>2026-03-27T12:15:02Z</time></trkpt><trkpt lat="38.26395401799219" lon="15.782257850988836"><ele>470.0</ele><time>2026-03-27T12:15:03.069Z</time></trkpt><trkpt lat="38.263829777590175" lon="15.781917960706787"><ele>464.0</ele><time>2026-03-27T12:15:04.07Z</time></trkpt><trkpt lat="38.263688487013894" lon="15.781595282732951"><ele>464.0</ele><time>2026-03-27T12:15:05.059Z</time></trkpt><trkpt lat="38.26354703792971" lon="15.7812703375279"><ele>464.0</ele><time>2026-03-27T12:15:06.056Z</time></trkpt><trkpt lat="38.26340547709993" lon="15.780943961791033"><ele>442.0</ele><time>2026-03-27T12:15:07.059Z</time></trkpt><trkpt lat="38.26326591178979" lon="15.78062877096463"><ele>420.0</ele><time>2026-03-27T12:15:08.042Z</time></trkpt><trkpt lat="38.26312277109132" lon="15.780311548601425"><ele>341.0</ele><time>2026-03-27T12:15:09.034Z</time></trkpt><trkpt lat="38.26221755607487" lon="15.779007741170075"><ele>341.0</ele><time>2026-03-27T12:15:14Z</time></trkpt><trkpt lat="38.26208959486495" lon="15.778753269165996"><ele>341.0</ele><time>2026-03-27T12:15:15Z</time></trkpt><trkpt lat="38.26195164675767" lon="15.778471185432625"><ele>343.0</ele><time>2026-03-27T12:15:16Z</time></trkpt><trkpt lat="38.26180578808983" lon="15.77823072505933"><ele>345.0</ele><time>2026-03-27T12:15:17Z</time></trkpt><trkpt lat="38.26164527911003" lon="15.77796605982329"><ele>345.0</ele><time>2026-03-27T12:15:18Z</time></trkpt><trkpt lat="38.26149432361143" lon="15.777711561079268"><ele>345.0</ele><time>2026-03-27T12:15:19Z</time></trkpt><trkpt lat="38.26134376415318" lon="15.777460199911054"><ele>370.0</ele><time>2026-03-27T12:15:20Z</time></trkpt><trkpt lat="38.261190607202856" lon="15.777211381463955"><ele>395.0</ele><time>2026-03-27T12:15:21Z</time></trkpt><trkpt lat="38.26104002001909" lon="15.776956731501866"><ele>391.0</ele><time>2026-03-27T12:15:22Z</time></trkpt><trkpt lat="38.26088933213902" lon="15.776706919880885"><ele>387.0</ele><time>2026-03-27T12:15:23Z</time></trkpt><trkpt lat="38.260735471767724" lon="15.776456746617017"><ele>409.5</ele><time>2026-03-27T12:15:24Z</time></trkpt><trkpt lat="38.260573769841315" lon="15.776194062855005"><ele>432.0</ele><time>2026-03-27T12:15:25.061Z</time></trkpt><trkpt lat="38.260421349720325" lon="15.775943884676868"><ele>432.0</ele><time>2026-03-27T12:15:26.05Z</time></trkpt><trkpt lat="38.26026910644523" lon="15.775689046955318"><ele>432.0</ele><time>2026-03-27T12:15:27.051Z</time></trkpt><trkpt lat="38.2556235567704" lon="15.76949072472819"><ele>334.5</ele><time>2026-03-27T12:15:52Z</time></trkpt><trkpt lat="38.255470543138685" lon="15.769219585583972"><ele>237.0</ele><time>2026-03-27T12:15:53Z</time></trkpt><trkpt lat="38.2553247262895" lon="15.768932605515822"><ele>237.0</ele><time>2026-03-27T12:15:54Z</time></trkpt><trkpt lat="38.25518669676342" lon="15.768658731420075"><ele>237.0</ele><time>2026-03-27T12:15:55Z</time></trkpt><trkpt lat="38.25506866442064" lon="15.768387750190433"><ele>226.5</ele><time>2026-03-27T12:15:56Z</time></trkpt><trkpt lat="38.25493286253307" lon="15.768081076795635"><ele>216.0</ele><time>2026-03-27T12:15:57Z</time></trkpt><trkpt lat="38.25481215432927" lon="15.767782474771124"><ele>204.5</ele><time>2026-03-27T12:15:58Z</time></trkpt><trkpt lat="38.25469028741025" lon="15.767473433279932"><ele>193.0</ele><time>2026-03-27T12:15:59Z</time></trkpt><trkpt lat="38.254573312221275" lon="15.767166317139143"><ele>211.0</ele><time>2026-03-27T12:16:00Z</time></trkpt><trkpt lat="38.25446022735231" lon="15.766858360088984"><ele>229.0</ele><time>2026-03-27T12:16:01Z</time></trkpt><trkpt lat="38.25435200988743" lon="15.766555580897744"><ele>229.0</ele><time>2026-03-27T12:16:02Z</time></trkpt><trkpt lat="38.25425204976002" lon="15.766263162879993"><ele>229.0</ele><time>2026-03-27T12:16:03Z</time></trkpt><trkpt lat="38.25415767835829" lon="15.76597110564838"><ele>242.0</ele><time>2026-03-27T12:16:04Z</time></trkpt><trkpt lat="38.25406593661782" lon="15.765668481292225"><ele>255.0</ele><time>2026-03-27T12:16:05Z</time></trkpt><trkpt lat="38.25397872655411" lon="15.765362148723785"><ele>291.0</ele><time>2026-03-27T12:16:06Z</time></trkpt><trkpt lat="38.253899847908734" lon="15.765052300776972"><ele>327.0</ele><time>2026-03-27T12:16:07Z</time></trkpt><trkpt lat="38.25382419348613" lon="15.764738139472097"><ele>327.0</ele><time>2026-03-27T12:16:08Z</time></trkpt><trkpt lat="38.25375033640702" lon="15.764418333343578"><ele>327.0</ele><time>2026-03-27T12:16:09Z</time></trkpt><trkpt lat="38.25367950712637" lon="15.764098312892115"><ele>340.5</ele><time>2026-03-27T12:16:10Z</time></trkpt><trkpt lat="38.25361094727995" lon="15.763783497928715"><ele>354.0</ele><time>2026-03-27T12:16:11Z</time></trkpt><trkpt lat="38.25353958697201" lon="15.763471364694396"><ele>360.0</ele><time>2026-03-27T12:16:12Z</time></trkpt><trkpt lat="38.25346438778504" lon="15.763149762622827"><ele>366.0</ele><time>2026-03-27T12:16:13Z</time></trkpt><trkpt lat="38.25338614186291" lon="15.76281412468388"><ele>377.0</ele><time>2026-03-27T12:16:14.071Z</time></trkpt><trkpt lat="38.253312830010465" lon="15.762498711942753"><ele>388.0</ele><time>2026-03-27T12:16:15.061Z</time></trkpt><trkpt lat="38.253238280038126" lon="15.76218387169671"><ele>406.5</ele><time>2026-03-27T12:16:16.062Z</time></trkpt><trkpt lat="38.253195479200535" lon="15.76186201773216"><ele>425.0</ele><time>2026-03-27T12:16:17.063Z</time></trkpt><trkpt lat="38.25315057930013" lon="15.761543117783033"><ele>448.0</ele><time>2026-03-27T12:16:18.058Z</time></trkpt><trkpt lat="38.25289689644695" lon="15.758988580415544"><ele>424.0</ele><time>2026-03-27T12:16:21.176Z</time></trkpt><trkpt lat="38.252782209092295" lon="15.758088783407636"><ele>399.0</ele><time>2026-03-27T12:16:22.173Z</time></trkpt><trkpt lat="38.25266537213134" lon="15.75718551348256"><ele>376.0</ele><time>2026-03-27T12:16:23.174Z</time></trkpt><trkpt lat="38.25254661235565" lon="15.75628276226402"><ele>368.0</ele><time>2026-03-27T12:16:24.176Z</time></trkpt><trkpt lat="38.25242563746776" lon="15.755383202811329"><ele>379.0</ele><time>2026-03-27T12:16:25.174Z</time></trkpt><trkpt lat="38.25229753461565" lon="15.754472576176553"><ele>423.0</ele><time>2026-03-27T12:16:26.186Z</time></trkpt><trkpt lat="38.25216542153607" lon="15.753583975054902"><ele>401.0</ele><time>2026-03-27T12:16:27.176Z</time></trkpt><trkpt lat="38.2520317028477" lon="15.75268586673454"><ele>378.0</ele><time>2026-03-27T12:16:28.176Z</time></trkpt><trkpt lat="38.25189516844633" lon="15.751789786174044"><ele>370.0</ele><time>2026-03-27T12:16:29.174Z</time></trkpt><trkpt lat="38.25175597265632" lon="15.750891712704115"><ele>365.0</ele><time>2026-03-27T12:16:30.176Z</time></trkpt><trkpt lat="38.251614251326934" lon="15.749996745137636"><ele>349.0</ele><time>2026-03-27T12:16:31.174Z</time></trkpt><trkpt lat="38.2514715023037" lon="15.749099731635626"><ele>303.0</ele><time>2026-03-27T12:16:32.176Z</time></trkpt><trkpt lat="38.25132790405235" lon="15.748205434512656"><ele>271.0</ele><time>2026-03-27T12:16:33.174Z</time></trkpt><trkpt lat="38.25118048134995" lon="15.747312017804253"><ele>245.0</ele><time>2026-03-27T12:16:34.173Z</time></trkpt><trkpt lat="38.251033099749534" lon="15.74641641477578"><ele>178.0</ele><time>2026-03-27T12:16:35.174Z</time></trkpt><trkpt lat="38.25081045684919" lon="15.745042740317897"><ele>178.0</ele><time>2026-03-27T12:17:04Z</time></trkpt><trkpt lat="38.25077364584298" lon="15.744722492635292"><ele>178.0</ele><time>2026-03-27T12:17:05Z</time></trkpt><trkpt lat="38.25071581438972" lon="15.74441955532477"><ele>174.0</ele><time>2026-03-27T12:17:06Z</time></trkpt><trkpt lat="38.25067279345592" lon="15.744126910785905"><ele>170.0</ele><time>2026-03-27T12:17:07Z</time></trkpt><trkpt lat="38.25062149645882" lon="15.743827594150938"><ele>184.5</ele><time>2026-03-27T12:17:08Z</time></trkpt><trkpt lat="38.25057212065068" lon="15.743526280181273"><ele>199.0</ele><time>2026-03-27T12:17:09Z</time></trkpt><trkpt lat="38.250520149461096" lon="15.743220026343499"><ele>199.0</ele><time>2026-03-27T12:17:10Z</time></trkpt><trkpt lat="38.25046988108653" lon="15.74291045218718"><ele>199.0</ele><time>2026-03-27T12:17:11Z</time></trkpt><trkpt lat="38.25041554406335" lon="15.742598428951874"><ele>233.0</ele><time>2026-03-27T12:17:12Z</time></trkpt><trkpt lat="38.250359819217714" lon="15.742281763494184"><ele>267.0</ele><time>2026-03-27T12:17:13Z</time></trkpt><trkpt lat="38.250303328816806" lon="15.741960114803183"><ele>291.0</ele><time>2026-03-27T12:17:14Z</time></trkpt><trkpt lat="38.25024481745093" lon="15.74163412088959"><ele>315.0</ele><time>2026-03-27T12:17:15Z</time></trkpt><trkpt lat="38.250185136093585" lon="15.741302341152446"><ele>321.5</ele><time>2026-03-27T12:17:16Z</time></trkpt><trkpt lat="38.25012427778375" lon="15.740963414452583"><ele>328.0</ele><time>2026-03-27T12:17:17Z</time></trkpt><trkpt lat="38.25005801949451" lon="15.7405988801291"><ele>328.0</ele><time>2026-03-27T12:17:18.063Z</time></trkpt><trkpt lat="38.24999444504642" lon="15.740254433037546"><ele>328.0</ele><time>2026-03-27T12:17:19.06Z</time></trkpt><trkpt lat="38.24992842305258" lon="15.739904450240564"><ele>317.5</ele><time>2026-03-27T12:17:20.062Z</time></trkpt><trkpt lat="38.2498615859003" lon="15.739553309837808"><ele>307.0</ele><time>2026-03-27T12:17:21.061Z</time></trkpt><trkpt lat="38.24877767862506" lon="15.732229272510988"><ele>227.5</ele><time>2026-03-27T12:17:42Z</time></trkpt><trkpt lat="38.24872654104329" lon="15.731803541180408"><ele>148.0</ele><time>2026-03-27T12:17:43Z</time></trkpt><trkpt lat="38.24871014487223" lon="15.731478629312475"><ele>148.0</ele><time>2026-03-27T12:17:44Z</time></trkpt><trkpt lat="38.24868711952285" lon="15.731132448432295"><ele>148.0</ele><time>2026-03-27T12:17:45Z</time></trkpt><trkpt lat="38.24867205040781" lon="15.730779931979255"><ele>157.5</ele><time>2026-03-27T12:17:46Z</time></trkpt><trkpt lat="38.24866140804485" lon="15.730419614688353"><ele>167.0</ele><time>2026-03-27T12:17:47.001Z</time></trkpt><trkpt lat="38.24864934888331" lon="15.730068457088244"><ele>166.0</ele><time>2026-03-27T12:17:48Z</time></trkpt><trkpt lat="38.24863915361334" lon="15.729708875476671"><ele>165.0</ele><time>2026-03-27T12:17:49Z</time></trkpt><trkpt lat="38.24863297570844" lon="15.729355556290733"><ele>165.0</ele><time>2026-03-27T12:17:50Z</time></trkpt><trkpt lat="38.248623517062306" lon="15.728997277446018"><ele>165.0</ele><time>2026-03-27T12:17:51Z</time></trkpt><trkpt lat="38.24861523875408" lon="15.728643641312884"><ele>161.5</ele><time>2026-03-27T12:17:52Z</time></trkpt><trkpt lat="38.24860894702671" lon="15.728291603351629"><ele>158.0</ele><time>2026-03-27T12:17:53Z</time></trkpt><trkpt lat="38.248602227223685" lon="15.727943972974204"><ele>149.5</ele><time>2026-03-27T12:17:54Z</time></trkpt><trkpt lat="38.248595358982" lon="15.727590932192577"><ele>141.0</ele><time>2026-03-27T12:17:55Z</time></trkpt><trkpt lat="38.24858978222266" lon="15.727242204068936"><ele>138.0</ele><time>2026-03-27T12:17:56Z</time></trkpt><trkpt lat="38.2485831934605" lon="15.726893461845027"><ele>135.0</ele><time>2026-03-27T12:17:57Z</time></trkpt><trkpt lat="38.24857505933499" lon="15.726543099378256"><ele>135.0</ele><time>2026-03-27T12:17:58Z</time></trkpt><trkpt lat="38.24856703086388" lon="15.726191160365234"><ele>135.0</ele><time>2026-03-27T12:17:59Z</time></trkpt><trkpt lat="38.2485596288535" lon="15.725837394064955"><ele>144.5</ele><time>2026-03-27T12:18:00Z</time></trkpt><trkpt lat="38.248553101809115" lon="15.725477222678185"><ele>154.0</ele><time>2026-03-27T12:18:01Z</time></trkpt><trkpt lat="38.24854514303499" lon="15.725114117775286"><ele>155.0</ele><time>2026-03-27T12:18:02Z</time></trkpt><trkpt lat="38.24853764220049" lon="15.724748415769156"><ele>156.0</ele><time>2026-03-27T12:18:03Z</time></trkpt><trkpt lat="38.24853394054521" lon="15.724379452941331"><ele>153.0</ele><time>2026-03-27T12:18:04Z</time></trkpt><trkpt lat="38.24853220690709" lon="15.724009690702916"><ele>150.0</ele><time>2026-03-27T12:18:05Z</time></trkpt><trkpt lat="38.24853369894531" lon="15.72363989561603"><ele>149.5</ele><time>2026-03-27T12:18:06Z</time></trkpt><trkpt lat="38.24853813774762" lon="15.723270784560453"><ele>149.0</ele><time>2026-03-27T12:18:07Z</time></trkpt><trkpt lat="38.24854526183574" lon="15.722904353097334"><ele>145.0</ele><time>2026-03-27T12:18:08Z</time></trkpt><trkpt lat="38.24855647740121" lon="15.722539939845209"><ele>141.0</ele><time>2026-03-27T12:18:09Z</time></trkpt><trkpt lat="38.2485716165341" lon="15.722176840029014"><ele>141.5</ele><time>2026-03-27T12:18:10Z</time></trkpt><trkpt lat="38.24858648331159" lon="15.721814438669464"><ele>142.0</ele><time>2026-03-27T12:18:11Z</time></trkpt><trkpt lat="38.248599735867344" lon="15.721449772364181"><ele>142.0</ele><time>2026-03-27T12:18:12Z</time></trkpt><trkpt lat="38.24861002021274" lon="15.72108752690389"><ele>142.0</ele><time>2026-03-27T12:18:13Z</time></trkpt><trkpt lat="38.2486183566791" lon="15.720723266867719"><ele>144.5</ele><time>2026-03-27T12:18:14Z</time></trkpt><trkpt lat="38.24862450519416" lon="15.720362133543427"><ele>147.0</ele><time>2026-03-27T12:18:15Z</time></trkpt><trkpt lat="38.248629428643774" lon="15.720002377543587"><ele>147.0</ele><time>2026-03-27T12:18:16Z</time></trkpt><trkpt lat="38.248635871261044" lon="15.719643718717759"><ele>147.0</ele><time>2026-03-27T12:18:17Z</time></trkpt><trkpt lat="38.24864366521945" lon="15.719285581964911"><ele>148.5</ele><time>2026-03-27T12:18:18Z</time></trkpt><trkpt lat="38.248652388248615" lon="15.718929637525507"><ele>150.0</ele><time>2026-03-27T12:18:19Z</time></trkpt><trkpt lat="38.248660328265046" lon="15.718575791721383"><ele>152.0</ele><time>2026-03-27T12:18:20Z</time></trkpt><trkpt lat="38.24866664128695" lon="15.718221932602784"><ele>154.0</ele><time>2026-03-27T12:18:21Z</time></trkpt><trkpt lat="38.248668825875974" lon="15.717868281492557"><ele>157.5</ele><time>2026-03-27T12:18:22Z</time></trkpt><trkpt lat="38.24866470470237" lon="15.717513691030327"><ele>161.0</ele><time>2026-03-27T12:18:23Z</time></trkpt><trkpt lat="38.248653137740654" lon="15.717159194201319"><ele>158.0</ele><time>2026-03-27T12:18:24Z</time></trkpt><trkpt lat="38.24863215664444" lon="15.716804509958981"><ele>155.0</ele><time>2026-03-27T12:18:25Z</time></trkpt><trkpt lat="38.24860190902194" lon="15.716447260690005"><ele>155.0</ele><time>2026-03-27T12:18:26Z</time></trkpt><trkpt lat="38.248566325677686" lon="15.71609364489599"><ele>155.0</ele><time>2026-03-27T12:18:27Z</time></trkpt><trkpt lat="38.24852801359566" lon="15.715743218220284"><ele>143.0</ele><time>2026-03-27T12:18:28Z</time></trkpt><trkpt lat="38.24848933246291" lon="15.715399589695554"><ele>131.0</ele><time>2026-03-27T12:18:29Z</time></trkpt><trkpt lat="38.248446164072085" lon="15.71505615104528"><ele>122.0</ele><time>2026-03-27T12:18:30Z</time></trkpt><trkpt lat="38.24840006027968" lon="15.714715723584696"><ele>113.0</ele><time>2026-03-27T12:18:31Z</time></trkpt><trkpt lat="38.248357673882104" lon="15.714377181547444"><ele>113.0</ele><time>2026-03-27T12:18:32Z</time></trkpt><trkpt lat="38.24831742147507" lon="15.71404230965435"><ele>113.0</ele><time>2026-03-27T12:18:33Z</time></trkpt><trkpt lat="38.24827576564936" lon="15.713704224424287"><ele>125.0</ele><time>2026-03-27T12:18:34Z</time></trkpt><trkpt lat="38.24823290846165" lon="15.713366207889022"><ele>137.0</ele><time>2026-03-27T12:18:35Z</time></trkpt><trkpt lat="38.24819014383767" lon="15.713028324175797"><ele>142.0</ele><time>2026-03-27T12:18:36Z</time></trkpt><trkpt lat="38.24814876999165" lon="15.712686730314621"><ele>147.0</ele><time>2026-03-27T12:18:37Z</time></trkpt><trkpt lat="38.248104373371426" lon="15.712344227004012"><ele>170.0</ele><time>2026-03-27T12:18:38Z</time></trkpt><trkpt lat="38.248058146213396" lon="15.71199873442237"><ele>193.0</ele><time>2026-03-27T12:18:39Z</time></trkpt><trkpt lat="38.24801207366013" lon="15.711649833904982"><ele>197.5</ele><time>2026-03-27T12:18:40Z</time></trkpt><trkpt lat="38.24796721402062" lon="15.711297539177068"><ele>202.0</ele><time>2026-03-27T12:18:41Z</time></trkpt><trkpt lat="38.247920216822806" lon="15.710918443275528"><ele>202.0</ele><time>2026-03-27T12:18:42.074Z</time></trkpt><trkpt lat="38.247876269092814" lon="15.710563852797907"><ele>202.0</ele><time>2026-03-27T12:18:43.073Z</time></trkpt><trkpt lat="38.247834268355746" lon="15.710210077665128"><ele>184.0</ele><time>2026-03-27T12:18:44.067Z</time></trkpt><trkpt lat="38.24779578431539" lon="15.709876782153657"><ele>166.0</ele><time>2026-03-27T12:18:45Z</time></trkpt><trkpt lat="38.24773697273562" lon="15.709568853258405"><ele>170.5</ele><time>2026-03-27T12:18:46Z</time></trkpt><trkpt lat="38.24771657447054" lon="15.709217527342288"><ele>175.0</ele><time>2026-03-27T12:18:47Z</time></trkpt><trkpt lat="38.24769061653936" lon="15.70883911523797"><ele>129.0</ele><time>2026-03-27T12:18:48Z</time></trkpt><trkpt lat="38.24475585927159" lon="15.689278265815076"><ele>129.0</ele><time>2026-03-27T12:19:44Z</time></trkpt><trkpt lat="38.24463658002986" lon="15.688965925917133"><ele>129.0</ele><time>2026-03-27T12:19:45Z</time></trkpt><trkpt lat="38.244544161309605" lon="15.688683525765605"><ele>139.0</ele><time>2026-03-27T12:19:46Z</time></trkpt><trkpt lat="38.244456171339" lon="15.688388937888556"><ele>149.0</ele><time>2026-03-27T12:19:47Z</time></trkpt><trkpt lat="38.24432506606663" lon="15.688093597783094"><ele>149.0</ele><time>2026-03-27T12:19:48Z</time></trkpt><trkpt lat="38.244206485506346" lon="15.68779072298238"><ele>149.0</ele><time>2026-03-27T12:19:49Z</time></trkpt><trkpt lat="38.244085371365685" lon="15.687483574880739"><ele>144.0</ele><time>2026-03-27T12:19:50Z</time></trkpt><trkpt lat="38.240385096486406" lon="15.68114896318776"><ele>133.5</ele><time>2026-03-27T12:20:12.001Z</time></trkpt><trkpt lat="38.240119780845745" lon="15.680925544855564"><ele>123.0</ele><time>2026-03-27T12:20:13.001Z</time></trkpt><trkpt lat="38.23987659535644" lon="15.680712768078598"><ele>119.5</ele><time>2026-03-27T12:20:14.001Z</time></trkpt><trkpt lat="38.239642373303425" lon="15.680500109651483"><ele>116.0</ele><time>2026-03-27T12:20:15.001Z</time></trkpt><trkpt lat="38.23940232168873" lon="15.680299097747234"><ele>111.0</ele><time>2026-03-27T12:20:16.001Z</time></trkpt><trkpt lat="38.239155929677736" lon="15.680095889377657"><ele>106.0</ele><time>2026-03-27T12:20:17.001Z</time></trkpt><trkpt lat="38.23891294330105" lon="15.679885573579668"><ele>106.0</ele><time>2026-03-27T12:20:18.001Z</time></trkpt><trkpt lat="38.23867127387672" lon="15.679673272934945"><ele>106.0</ele><time>2026-03-27T12:20:19.001Z</time></trkpt><trkpt lat="38.23843546567294" lon="15.679454341092217"><ele>104.5</ele><time>2026-03-27T12:20:20.001Z</time></trkpt><trkpt lat="38.238207918314664" lon="15.679228831141215"><ele>103.0</ele><time>2026-03-27T12:20:21.001Z</time></trkpt><trkpt lat="38.23798886947783" lon="15.678993511011198"><ele>111.0</ele><time>2026-03-27T12:20:22.001Z</time></trkpt><trkpt lat="38.23777478851308" lon="15.678750576732694"><ele>119.0</ele><time>2026-03-27T12:20:23.001Z</time></trkpt><trkpt lat="38.23757345857924" lon="15.678491338191842"><ele>119.0</ele><time>2026-03-27T12:20:24.001Z</time></trkpt><trkpt lat="38.23737945040947" lon="15.67822151804823"><ele>119.0</ele><time>2026-03-27T12:20:25.001Z</time></trkpt><trkpt lat="38.237195924766034" lon="15.677940677664617"><ele>121.0</ele><time>2026-03-27T12:20:26.001Z</time></trkpt><trkpt lat="38.237023678418254" lon="15.6776518062245"><ele>123.0</ele><time>2026-03-27T12:20:27.001Z</time></trkpt><trkpt lat="38.236860124971436" lon="15.677356546777778"><ele>123.0</ele><time>2026-03-27T12:20:28.001Z</time></trkpt><trkpt lat="38.236703036671905" lon="15.677057187863335"><ele>123.0</ele><time>2026-03-27T12:20:29.001Z</time></trkpt><trkpt lat="38.236552290791785" lon="15.676751109826297"><ele>123.0</ele><time>2026-03-27T12:20:30.001Z</time></trkpt><trkpt lat="38.23640796551124" lon="15.676438997827297"><ele>123.0</ele><time>2026-03-27T12:20:31.001Z</time></trkpt><trkpt lat="38.23626520285191" lon="15.676125740188475"><ele>112.0</ele><time>2026-03-27T12:20:32.001Z</time></trkpt><trkpt lat="38.236122494308866" lon="15.675811247255828"><ele>101.0</ele><time>2026-03-27T12:20:33.001Z</time></trkpt><trkpt lat="38.23598075551272" lon="15.675495450023778"><ele>103.5</ele><time>2026-03-27T12:20:34.001Z</time></trkpt><trkpt lat="38.23583997819495" lon="15.675177828193592"><ele>106.0</ele><time>2026-03-27T12:20:35.001Z</time></trkpt><trkpt lat="38.235698683990734" lon="15.674861188997916"><ele>114.0</ele><time>2026-03-27T12:20:36.001Z</time></trkpt><trkpt lat="38.23555826226693" lon="15.674544118254255"><ele>122.0</ele><time>2026-03-27T12:20:37.001Z</time></trkpt><trkpt lat="38.23541976540182" lon="15.674225139853064"><ele>122.0</ele><time>2026-03-27T12:20:38.001Z</time></trkpt><trkpt lat="38.23528095789132" lon="15.673906000306165"><ele>122.0</ele><time>2026-03-27T12:20:39.001Z</time></trkpt><trkpt lat="38.23514122377499" lon="15.6735850694383"><ele>115.0</ele><time>2026-03-27T12:20:40.001Z</time></trkpt><trkpt lat="38.23500198503901" lon="15.67326761466624"><ele>108.0</ele><time>2026-03-27T12:20:41.001Z</time></trkpt><trkpt lat="38.23486215626283" lon="15.672949802998437"><ele>117.0</ele><time>2026-03-27T12:20:42.001Z</time></trkpt><trkpt lat="38.234722372580634" lon="15.672630894898578"><ele>126.0</ele><time>2026-03-27T12:20:43.001Z</time></trkpt><trkpt lat="38.23458462356847" lon="15.672315318223962"><ele>126.0</ele><time>2026-03-27T12:20:44.001Z</time></trkpt><trkpt lat="38.2344464995312" lon="15.671994898974189"><ele>126.0</ele><time>2026-03-27T12:20:45.001Z</time></trkpt><trkpt lat="38.23430719406648" lon="15.671671842853113"><ele>121.5</ele><time>2026-03-27T12:20:46.001Z</time></trkpt><trkpt lat="38.23417125282313" lon="15.671347650754598"><ele>117.0</ele><time>2026-03-27T12:20:47.001Z</time></trkpt><trkpt lat="38.234038035229105" lon="15.671018971479697"><ele>121.0</ele><time>2026-03-27T12:20:48.001Z</time></trkpt><trkpt lat="38.2339072909963" lon="15.670683927514382"><ele>125.0</ele><time>2026-03-27T12:20:49.001Z</time></trkpt><trkpt lat="38.233783815159676" lon="15.670339770409724"><ele>119.0</ele><time>2026-03-27T12:20:50.001Z</time></trkpt><trkpt lat="38.23366274185472" lon="15.669993236501249"><ele>113.0</ele><time>2026-03-27T12:20:51.001Z</time></trkpt><trkpt lat="38.2335442051151" lon="15.66964294891997"><ele>109.5</ele><time>2026-03-27T12:20:52.001Z</time></trkpt><trkpt lat="38.233425648355656" lon="15.669287018871126"><ele>106.0</ele><time>2026-03-27T12:20:53.001Z</time></trkpt><trkpt lat="38.23330572572118" lon="15.668933615304402"><ele>107.5</ele><time>2026-03-27T12:20:54.001Z</time></trkpt><trkpt lat="38.233185219156645" lon="15.668582195369561"><ele>109.0</ele><time>2026-03-27T12:20:55.001Z</time></trkpt><trkpt lat="38.23306695238668" lon="15.668234229188942"><ele>109.0</ele><time>2026-03-27T12:20:56.001Z</time></trkpt><trkpt lat="38.232951600375486" lon="15.667892438332245"><ele>109.0</ele><time>2026-03-27T12:20:57.001Z</time></trkpt><trkpt lat="38.2328375544147" lon="15.667552055722947"><ele>108.0</ele><time>2026-03-27T12:20:58.001Z</time></trkpt><trkpt lat="38.23272664066643" lon="15.66722339677598"><ele>107.0</ele><time>2026-03-27T12:20:59.001Z</time></trkpt><trkpt lat="38.232617495638905" lon="15.666905858866206"><ele>105.0</ele><time>2026-03-27T12:21:00.001Z</time></trkpt><trkpt lat="38.23251031810281" lon="15.666588769494249"><ele>103.0</ele><time>2026-03-27T12:21:01.001Z</time></trkpt><trkpt lat="38.232405816583245" lon="15.666273527059735"><ele>105.5</ele><time>2026-03-27T12:21:02.001Z</time></trkpt><trkpt lat="38.23230149900367" lon="15.66595638792828"><ele>108.0</ele><time>2026-03-27T12:21:03.001Z</time></trkpt><trkpt lat="38.232196805328485" lon="15.66563654703695"><ele>108.0</ele><time>2026-03-27T12:21:04.001Z</time></trkpt><trkpt lat="38.23209198403204" lon="15.66531863362287"><ele>108.0</ele><time>2026-03-27T12:21:05.001Z</time></trkpt><trkpt lat="38.23199139269334" lon="15.66500603499196"><ele>103.0</ele><time>2026-03-27T12:21:06.001Z</time></trkpt><trkpt lat="38.231894036882025" lon="15.664697334690688"><ele>98.0</ele><time>2026-03-27T12:21:07.001Z</time></trkpt><trkpt lat="38.23180147418508" lon="15.664391044190822"><ele>95.0</ele><time>2026-03-27T12:21:08.001Z</time></trkpt><trkpt lat="38.23171062418137" lon="15.664081632695058"><ele>92.0</ele><time>2026-03-27T12:21:09.001Z</time></trkpt><trkpt lat="38.231622257346395" lon="15.663775884124362"><ele>89.0</ele><time>2026-03-27T12:21:10.001Z</time></trkpt><trkpt lat="38.2315368118855" lon="15.663473292352602"><ele>86.0</ele><time>2026-03-27T12:21:11.001Z</time></trkpt><trkpt lat="38.23145152779187" lon="15.663170194244358"><ele>96.5</ele><time>2026-03-27T12:21:12.001Z</time></trkpt><trkpt lat="38.2313674923082" lon="15.662870587347319"><ele>107.0</ele><time>2026-03-27T12:21:13.001Z</time></trkpt><trkpt lat="38.23129158595271" lon="15.662589735070156"><ele>107.0</ele><time>2026-03-27T12:21:14.001Z</time></trkpt><trkpt lat="38.2312195601953" lon="15.662330811082315"><ele>107.0</ele><time>2026-03-27T12:21:15.001Z</time></trkpt><trkpt lat="38.231148535544975" lon="15.6620755619219"><ele>107.0</ele><time>2026-03-27T12:21:16.001Z</time></trkpt><trkpt lat="38.23107511601486" lon="15.661816648971163"><ele>103.66666666666666</ele><time>2026-03-27T12:21:17.001Z</time></trkpt><trkpt lat="38.23099955516698" lon="15.661554659994165"><ele>100.33333333333334</ele><time>2026-03-27T12:21:18.001Z</time></trkpt><trkpt lat="38.23092351079552" lon="15.661288083516189"><ele>97.0</ele><time>2026-03-27T12:21:19.001Z</time></trkpt><trkpt lat="38.230843753620206" lon="15.661008623085085"><ele>94.5</ele><time>2026-03-27T12:21:20.001Z</time></trkpt><trkpt lat="38.2307619702335" lon="15.660726988060988"><ele>92.0</ele><time>2026-03-27T12:21:21.001Z</time></trkpt><trkpt lat="38.23067850049776" lon="15.66044338452183"><ele>98.5</ele><time>2026-03-27T12:21:22.001Z</time></trkpt><trkpt lat="38.23059465971298" lon="15.66016005409119"><ele>105.0</ele><time>2026-03-27T12:21:23.001Z</time></trkpt><trkpt lat="38.23051280657991" lon="15.659886650586916"><ele>105.0</ele><time>2026-03-27T12:21:24.001Z</time></trkpt><trkpt lat="38.230433974174815" lon="15.659628299382993"><ele>105.0</ele><time>2026-03-27T12:21:25.001Z</time></trkpt><trkpt lat="38.23035913350915" lon="15.659382473623781"><ele>105.0</ele><time>2026-03-27T12:21:26.001Z</time></trkpt><trkpt lat="38.23028482260817" lon="15.659138088710005"><ele>103.0</ele><time>2026-03-27T12:21:27.001Z</time></trkpt><trkpt lat="38.23020616702717" lon="15.658885086874283"><ele>101.0</ele><time>2026-03-27T12:21:28.001Z</time></trkpt><trkpt lat="38.23012526220251" lon="15.658630245468224"><ele>99.0</ele><time>2026-03-27T12:21:29.001Z</time></trkpt><trkpt lat="38.230044122092586" lon="15.65837368521579"><ele>97.66666666666667</ele><time>2026-03-27T12:21:30.001Z</time></trkpt><trkpt lat="38.22996223409997" lon="15.658117087359926"><ele>96.33333333333334</ele><time>2026-03-27T12:21:31.001Z</time></trkpt><trkpt lat="38.22987916368754" lon="15.65786271409147"><ele>95.0</ele><time>2026-03-27T12:21:32.001Z</time></trkpt><trkpt lat="38.229801902096575" lon="15.657623786476728"><ele>102.66666666666667</ele><time>2026-03-27T12:21:33.001Z</time></trkpt><trkpt lat="38.22973182727053" lon="15.657397610110607"><ele>110.33333333333334</ele><time>2026-03-27T12:21:34.001Z</time></trkpt><trkpt lat="38.229666616939795" lon="15.657176867105246"><ele>118.0</ele><time>2026-03-27T12:21:35.001Z</time></trkpt><trkpt lat="38.22960069480279" lon="15.656953100899111"><ele>115.33333333333334</ele><time>2026-03-27T12:21:36.001Z</time></trkpt><trkpt lat="38.229534405339685" lon="15.656730675592515"><ele>112.66666666666666</ele><time>2026-03-27T12:21:37.001Z</time></trkpt><trkpt lat="38.229469642779996" lon="15.656521584921167"><ele>110.0</ele><time>2026-03-27T12:21:38.001Z</time></trkpt><trkpt lat="38.22940691995459" lon="15.656322699221606"><ele>110.0</ele><time>2026-03-27T12:21:39.001Z</time></trkpt><trkpt lat="38.229345329340376" lon="15.656127068228619"><ele>110.0</ele><time>2026-03-27T12:21:40.001Z</time></trkpt><trkpt lat="38.2292860216441" lon="15.655935669025212"><ele>110.0</ele><time>2026-03-27T12:21:41.001Z</time></trkpt><trkpt lat="38.229226051380536" lon="15.65574093772834"><ele>108.33333333333333</ele><time>2026-03-27T12:21:42.001Z</time></trkpt><trkpt lat="38.22916414536772" lon="15.6555435123683"><ele>106.66666666666666</ele><time>2026-03-27T12:21:43.001Z</time></trkpt><trkpt lat="38.22910143743587" lon="15.655344876078665"><ele>105.0</ele><time>2026-03-27T12:21:44.001Z</time></trkpt><trkpt lat="38.22904231961544" lon="15.655147765403326"><ele>102.0</ele><time>2026-03-27T12:21:45.001Z</time></trkpt><trkpt lat="38.22898792609653" lon="15.654959507817315"><ele>99.0</ele><time>2026-03-27T12:21:46.001Z</time></trkpt><trkpt lat="38.22893889208645" lon="15.654777717444274"><ele>96.0</ele><time>2026-03-27T12:21:47.001Z</time></trkpt><trkpt lat="38.22889434738397" lon="15.654604272713025"><ele>103.0</ele><time>2026-03-27T12:21:48.001Z</time></trkpt><trkpt lat="38.228853828280165" lon="15.654430646748745"><ele>110.0</ele><time>2026-03-27T12:21:49.001Z</time></trkpt><trkpt lat="38.22881317870441" lon="15.654240538391301"><ele>117.0</ele><time>2026-03-27T12:21:50.001Z</time></trkpt><trkpt lat="38.2287722263886" lon="15.654036560094363"><ele>117.0</ele><time>2026-03-27T12:21:51.001Z</time></trkpt><trkpt lat="38.22873000932248" lon="15.653820390438865"><ele>117.0</ele><time>2026-03-27T12:21:52.001Z</time></trkpt><trkpt lat="38.22869250303841" lon="15.653589939622474"><ele>117.0</ele><time>2026-03-27T12:21:53.001Z</time></trkpt><trkpt lat="38.22866269074829" lon="15.653347925337322"><ele>115.0</ele><time>2026-03-27T12:21:54.001Z</time></trkpt><trkpt lat="38.22863703815238" lon="15.653100237078277"><ele>113.0</ele><time>2026-03-27T12:21:55.001Z</time></trkpt><trkpt lat="38.228608891040246" lon="15.652844764773786"><ele>111.0</ele><time>2026-03-27T12:21:56.001Z</time></trkpt><trkpt lat="38.228581787258285" lon="15.652591097691548"><ele>110.0</ele><time>2026-03-27T12:21:57.001Z</time></trkpt><trkpt lat="38.22855717495919" lon="15.652343692604122"><ele>109.0</ele><time>2026-03-27T12:21:58.001Z</time></trkpt><trkpt lat="38.22853450223688" lon="15.652093723223718"><ele>108.0</ele><time>2026-03-27T12:21:59.001Z</time></trkpt><trkpt lat="38.22851409294451" lon="15.651839178774333"><ele>106.0</ele><time>2026-03-27T12:22:00.001Z</time></trkpt><trkpt lat="38.22849482354476" lon="15.651583253560416"><ele>104.0</ele><time>2026-03-27T12:22:01.001Z</time></trkpt><trkpt lat="38.2284761077576" lon="15.651327441825782"><ele>102.0</ele><time>2026-03-27T12:22:02.001Z</time></trkpt><trkpt lat="38.22845768034298" lon="15.651070500540909"><ele>102.0</ele><time>2026-03-27T12:22:03.001Z</time></trkpt><trkpt lat="38.22843891636636" lon="15.650811049870681"><ele>102.0</ele><time>2026-03-27T12:22:04.001Z</time></trkpt><trkpt lat="38.22842198934525" lon="15.650548894477021"><ele>102.0</ele><time>2026-03-27T12:22:05.001Z</time></trkpt><trkpt lat="38.22840379996983" lon="15.65028489439981"><ele>101.66666666666666</ele><time>2026-03-27T12:22:06.001Z</time></trkpt><trkpt lat="38.22838448396063" lon="15.650029526266467"><ele>101.33333333333333</ele><time>2026-03-27T12:22:07.001Z</time></trkpt><trkpt lat="38.22836650300522" lon="15.649785410484622"><ele>101.0</ele><time>2026-03-27T12:22:08.001Z</time></trkpt><trkpt lat="38.228348648116" lon="15.649548012466031"><ele>102.0</ele><time>2026-03-27T12:22:09.001Z</time></trkpt><trkpt lat="38.22833231289777" lon="15.6493218278637"><ele>103.0</ele><time>2026-03-27T12:22:10.001Z</time></trkpt><trkpt lat="38.2283170740495" lon="15.649100947215837"><ele>104.0</ele><time>2026-03-27T12:22:11.001Z</time></trkpt><trkpt lat="38.2283019063336" lon="15.648876579776763"><ele>104.0</ele><time>2026-03-27T12:22:12.001Z</time></trkpt><trkpt lat="38.22828714398698" lon="15.64864509936217"><ele>104.0</ele><time>2026-03-27T12:22:13.001Z</time></trkpt><trkpt lat="38.228272336676824" lon="15.64841542756844"><ele>104.0</ele><time>2026-03-27T12:22:14.001Z</time></trkpt><trkpt lat="38.22825648545451" lon="15.648193323161545"><ele>104.0</ele><time>2026-03-27T12:22:15.001Z</time></trkpt><trkpt lat="38.22824241952453" lon="15.647981670310337"><ele>104.0</ele><time>2026-03-27T12:22:16.001Z</time></trkpt><trkpt lat="38.22821546270317" lon="15.647771930290626"><ele>104.0</ele><time>2026-03-27T12:22:17.001Z</time></trkpt><trkpt lat="38.22819159259031" lon="15.647584098967702"><ele>103.33333333333333</ele><time>2026-03-27T12:22:18.001Z</time></trkpt><trkpt lat="38.228153851763125" lon="15.64739635627451"><ele>102.66666666666666</ele><time>2026-03-27T12:22:19.001Z</time></trkpt><trkpt lat="38.228105007157474" lon="15.647208202856334"><ele>102.0</ele><time>2026-03-27T12:22:20.001Z</time></trkpt><trkpt lat="38.22804534159118" lon="15.64702575878419"><ele>103.33333333333334</ele><time>2026-03-27T12:22:21.001Z</time></trkpt><trkpt lat="38.227975725242224" lon="15.646840525095836"><ele>104.66666666666667</ele><time>2026-03-27T12:22:22.001Z</time></trkpt><trkpt lat="38.22790024680141" lon="15.646653968076192"><ele>106.0</ele><time>2026-03-27T12:22:23.001Z</time></trkpt><trkpt lat="38.22781225135526" lon="15.646469130810726"><ele>106.0</ele><time>2026-03-27T12:22:24.001Z</time></trkpt><trkpt lat="38.227715574319845" lon="15.646288209744803"><ele>106.0</ele><time>2026-03-27T12:22:25.001Z</time></trkpt><trkpt lat="38.22760997774522" lon="15.6461129154795"><ele>106.0</ele><time>2026-03-27T12:22:26.001Z</time></trkpt><trkpt lat="38.22749342466501" lon="15.645947293765822"><ele>107.33333333333334</ele><time>2026-03-27T12:22:27.001Z</time></trkpt><trkpt lat="38.227365964839834" lon="15.645791507757268"><ele>108.66666666666666</ele><time>2026-03-27T12:22:28.001Z</time></trkpt><trkpt lat="38.22723082075391" lon="15.645646810964866"><ele>110.0</ele><time>2026-03-27T12:22:29.001Z</time></trkpt><trkpt lat="38.22709561097146" lon="15.645517913643697"><ele>110.0</ele><time>2026-03-27T12:22:30.001Z</time></trkpt><trkpt lat="38.22695835593783" lon="15.645400704199561"><ele>110.0</ele><time>2026-03-27T12:22:31.001Z</time></trkpt><trkpt lat="38.22681057008777" lon="15.64529289408002"><ele>110.0</ele><time>2026-03-27T12:22:32.001Z</time></trkpt><trkpt lat="38.22665486143242" lon="15.645195981650073"><ele>109.0</ele><time>2026-03-27T12:22:33.001Z</time></trkpt><trkpt lat="38.22649009763337" lon="15.64511085786097"><ele>108.0</ele><time>2026-03-27T12:22:34.001Z</time></trkpt><trkpt lat="38.226317347077924" lon="15.645038213147803"><ele>107.0</ele><time>2026-03-27T12:22:35.001Z</time></trkpt><trkpt lat="38.22613780776827" lon="15.644979625134543"><ele>107.0</ele><time>2026-03-27T12:22:36.001Z</time></trkpt><trkpt lat="38.22594949942964" lon="15.644934336153094"><ele>107.0</ele><time>2026-03-27T12:22:37.001Z</time></trkpt><trkpt lat="38.2257577080258" lon="15.644906968818184"><ele>107.0</ele><time>2026-03-27T12:22:38.001Z</time></trkpt><trkpt lat="38.22556022734045" lon="15.64489811846195"><ele>105.33333333333333</ele><time>2026-03-27T12:22:39Z</time></trkpt><trkpt lat="38.22536350318923" lon="15.644906758431128"><ele>103.66666666666666</ele><time>2026-03-27T12:22:40Z</time></trkpt><trkpt lat="38.225172969973" lon="15.644927729784259"><ele>102.0</ele><time>2026-03-27T12:22:41Z</time></trkpt><trkpt lat="38.22498766041381" lon="15.644965875930756"><ele>98.33333333333333</ele><time>2026-03-27T12:22:42Z</time></trkpt><trkpt lat="38.224809113156454" lon="15.64501974831516"><ele>94.66666666666666</ele><time>2026-03-27T12:22:43Z</time></trkpt><trkpt lat="38.224638698421785" lon="15.645086494375368"><ele>91.0</ele><time>2026-03-27T12:22:44Z</time></trkpt><trkpt lat="38.22447712947989" lon="15.645166335617567"><ele>91.0</ele><time>2026-03-27T12:22:45Z</time></trkpt><trkpt lat="38.224323145616914" lon="15.64525751863785"><ele>91.0</ele><time>2026-03-27T12:22:46Z</time></trkpt><trkpt lat="38.224177952408695" lon="15.645355227763876"><ele>91.0</ele><time>2026-03-27T12:22:47Z</time></trkpt><trkpt lat="38.22403952039958" lon="15.64545907174448"><ele>91.66666666666666</ele><time>2026-03-27T12:22:48Z</time></trkpt><trkpt lat="38.22390596337348" lon="15.645574749483822"><ele>92.33333333333333</ele><time>2026-03-27T12:22:49Z</time></trkpt><trkpt lat="38.223771423720414" lon="15.645705692086882"><ele>93.0</ele><time>2026-03-27T12:22:50Z</time></trkpt><trkpt lat="38.2236358512704" lon="15.645839231582494"><ele>93.0</ele><time>2026-03-27T12:22:51Z</time></trkpt><trkpt lat="38.223504336025385" lon="15.6459693313347"><ele>93.0</ele><time>2026-03-27T12:22:52Z</time></trkpt><trkpt lat="38.223378061534916" lon="15.646095984960686"><ele>93.0</ele><time>2026-03-27T12:22:53Z</time></trkpt><trkpt lat="38.22325424416953" lon="15.646220491583248"><ele>92.5</ele><time>2026-03-27T12:22:54Z</time></trkpt><trkpt lat="38.2231352264609" lon="15.646336306684855"><ele>92.0</ele><time>2026-03-27T12:22:55Z</time></trkpt><trkpt lat="38.223023509584664" lon="15.646446449615718"><ele>91.5</ele><time>2026-03-27T12:22:56Z</time></trkpt><trkpt lat="38.22291631893917" lon="15.646554553111505"><ele>91.0</ele><time>2026-03-27T12:22:57Z</time></trkpt><trkpt lat="38.22280808137125" lon="15.646663532748988"><ele>91.0</ele><time>2026-03-27T12:22:58Z</time></trkpt><trkpt lat="38.222693998151264" lon="15.646775772680467"><ele>91.0</ele><time>2026-03-27T12:22:59Z</time></trkpt><trkpt lat="38.222573279849115" lon="15.64689024998064"><ele>91.0</ele><time>2026-03-27T12:23:00Z</time></trkpt><trkpt lat="38.22244870684692" lon="15.64700237163591"><ele>91.0</ele><time>2026-03-27T12:23:01Z</time></trkpt><trkpt lat="38.222325185595516" lon="15.647106286984004"><ele>90.5</ele><time>2026-03-27T12:23:02Z</time></trkpt><trkpt lat="38.22219923132761" lon="15.647201401762201"><ele>90.0</ele><time>2026-03-27T12:23:03Z</time></trkpt><trkpt lat="38.22207438631503" lon="15.647286999840903"><ele>89.5</ele><time>2026-03-27T12:23:04Z</time></trkpt><trkpt lat="38.22195162681768" lon="15.647359266304866"><ele>89.0</ele><time>2026-03-27T12:23:05Z</time></trkpt><trkpt lat="38.221828809746704" lon="15.647422181686355"><ele>89.0</ele><time>2026-03-27T12:23:06Z</time></trkpt><trkpt lat="38.2217008573192" lon="15.647475221911456"><ele>89.0</ele><time>2026-03-27T12:23:07Z</time></trkpt><trkpt lat="38.22156714318534" lon="15.647519794936978"><ele>89.0</ele><time>2026-03-27T12:23:08Z</time></trkpt><trkpt lat="38.221427613995715" lon="15.647557097537392"><ele>89.0</ele><time>2026-03-27T12:23:09Z</time></trkpt><trkpt lat="38.22128225730959" lon="15.64758882453747"><ele>88.25</ele><time>2026-03-27T12:23:10Z</time></trkpt><trkpt lat="38.2211385871953" lon="15.647609539793466"><ele>87.5</ele><time>2026-03-27T12:23:11Z</time></trkpt><trkpt lat="38.22099483697378" lon="15.647623647751058"><ele>86.75</ele><time>2026-03-27T12:23:12Z</time></trkpt><trkpt lat="38.220848116193125" lon="15.647635539890038"><ele>86.0</ele><time>2026-03-27T12:23:13Z</time></trkpt><trkpt lat="38.22068572041138" lon="15.64764362324002"><ele>83.66666666666667</ele><time>2026-03-27T12:23:14Z</time></trkpt><trkpt lat="38.220505217961346" lon="15.647652671702886"><ele>81.33333333333333</ele><time>2026-03-27T12:23:15Z</time></trkpt><trkpt lat="38.22031406137863" lon="15.647663862584132"><ele>79.0</ele><time>2026-03-27T12:23:16Z</time></trkpt><trkpt lat="38.220110395682866" lon="15.647678046215699"><ele>79.0</ele><time>2026-03-27T12:23:17Z</time></trkpt><trkpt lat="38.219891278994574" lon="15.647696353184212"><ele>79.0</ele><time>2026-03-27T12:23:18Z</time></trkpt><trkpt lat="38.2196597680522" lon="15.647713146677757"><ele>85.5</ele><time>2026-03-27T12:23:19Z</time></trkpt><trkpt lat="38.21942537722571" lon="15.647723896630318"><ele>92.0</ele><time>2026-03-27T12:23:20Z</time></trkpt><trkpt lat="38.21918155800574" lon="15.647735570061856"><ele>97.0</ele><time>2026-03-27T12:23:21Z</time></trkpt><trkpt lat="38.21893337585892" lon="15.647750815014273"><ele>102.0</ele><time>2026-03-27T12:23:22Z</time></trkpt><trkpt lat="38.21869053472538" lon="15.647767525387978"><ele>102.0</ele><time>2026-03-27T12:23:23Z</time></trkpt><trkpt lat="38.21845980878257" lon="15.647778987971078"><ele>102.0</ele><time>2026-03-27T12:23:24Z</time></trkpt><trkpt lat="38.21822637165208" lon="15.64777024219516"><ele>103.0</ele><time>2026-03-27T12:23:25Z</time></trkpt><trkpt lat="38.21800238459689" lon="15.647780558646987"><ele>104.0</ele><time>2026-03-27T12:23:26Z</time></trkpt><trkpt lat="38.21777943168723" lon="15.647790677911003"><ele>105.0</ele><time>2026-03-27T12:23:27Z</time></trkpt><trkpt lat="38.217560185834" lon="15.647795403460588"><ele>105.0</ele><time>2026-03-27T12:23:28Z</time></trkpt><trkpt lat="38.21733325541719" lon="15.647791070504702"><ele>105.0</ele><time>2026-03-27T12:23:29Z</time></trkpt><trkpt lat="38.217113289951286" lon="15.647784022837099"><ele>105.0</ele><time>2026-03-27T12:23:30Z</time></trkpt><trkpt lat="38.21689212967887" lon="15.647770872164541"><ele>105.0</ele><time>2026-03-27T12:23:31Z</time></trkpt><trkpt lat="38.216672658179654" lon="15.647746511788641"><ele>105.0</ele><time>2026-03-27T12:23:32Z</time></trkpt><trkpt lat="38.21645770366579" lon="15.647716528304096"><ele>105.0</ele><time>2026-03-27T12:23:33Z</time></trkpt><trkpt lat="38.21625255709726" lon="15.6476835283452"><ele>104.66666666666666</ele><time>2026-03-27T12:23:34Z</time></trkpt><trkpt lat="38.21603980971513" lon="15.647639744537186"><ele>104.33333333333333</ele><time>2026-03-27T12:23:35Z</time></trkpt><trkpt lat="38.2158168214802" lon="15.64759737159631"><ele>104.0</ele><time>2026-03-27T12:23:36Z</time></trkpt><trkpt lat="38.21559764425464" lon="15.647525532897388"><ele>103.33333333333333</ele><time>2026-03-27T12:23:37Z</time></trkpt><trkpt lat="38.215396145914106" lon="15.647450558544412"><ele>102.66666666666666</ele><time>2026-03-27T12:23:38Z</time></trkpt><trkpt lat="38.215204785921514" lon="15.647375575329011"><ele>102.0</ele><time>2026-03-27T12:23:39Z</time></trkpt><trkpt lat="38.215016961365635" lon="15.64730209690252"><ele>102.0</ele><time>2026-03-27T12:23:40Z</time></trkpt><trkpt lat="38.21483774029759" lon="15.647225755238198"><ele>102.0</ele><time>2026-03-27T12:23:41Z</time></trkpt><trkpt lat="38.21465583324522" lon="15.647142451736547"><ele>102.0</ele><time>2026-03-27T12:23:42Z</time></trkpt><trkpt lat="38.214462434902906" lon="15.647046809843333"><ele>98.33333333333333</ele><time>2026-03-27T12:23:43Z</time></trkpt><trkpt lat="38.214266245156765" lon="15.646942120724782"><ele>94.66666666666666</ele><time>2026-03-27T12:23:44Z</time></trkpt><trkpt lat="38.21406821308965" lon="15.646828259170668"><ele>91.0</ele><time>2026-03-27T12:23:45Z</time></trkpt><trkpt lat="38.213868265733964" lon="15.646706233717198"><ele>87.0</ele><time>2026-03-27T12:23:46Z</time></trkpt><trkpt lat="38.21367484704113" lon="15.646579643188494"><ele>83.0</ele><time>2026-03-27T12:23:47Z</time></trkpt><trkpt lat="38.21348339721847" lon="15.646446505050498"><ele>79.0</ele><time>2026-03-27T12:23:48Z</time></trkpt><trkpt lat="38.21329220881641" lon="15.646305419809318"><ele>79.66666666666666</ele><time>2026-03-27T12:23:49Z</time></trkpt><trkpt lat="38.213102181380826" lon="15.646158716235107"><ele>80.33333333333333</ele><time>2026-03-27T12:23:50Z</time></trkpt><trkpt lat="38.21291439446632" lon="15.646004645942032"><ele>81.0</ele><time>2026-03-27T12:23:51Z</time></trkpt><trkpt lat="38.212733634811975" lon="15.645841749147536"><ele>81.0</ele><time>2026-03-27T12:23:52Z</time></trkpt><trkpt lat="38.21256760553906" lon="15.645680274654937"><ele>81.0</ele><time>2026-03-27T12:23:53Z</time></trkpt><trkpt lat="38.212407301755654" lon="15.645517072721194"><ele>81.0</ele><time>2026-03-27T12:23:54Z</time></trkpt><trkpt lat="38.21225421143057" lon="15.645355344522029"><ele>81.66666666666667</ele><time>2026-03-27T12:23:55Z</time></trkpt><trkpt lat="38.212107264870646" lon="15.645195887940854"><ele>82.33333333333334</ele><time>2026-03-27T12:23:56Z</time></trkpt><trkpt lat="38.21195686669593" lon="15.645029154203307"><ele>83.0</ele><time>2026-03-27T12:23:57Z</time></trkpt><trkpt lat="38.21180178592432" lon="15.644858701333456"><ele>83.0</ele><time>2026-03-27T12:23:58Z</time></trkpt><trkpt lat="38.211644099206076" lon="15.644686587425777"><ele>83.0</ele><time>2026-03-27T12:23:59Z</time></trkpt><trkpt lat="38.21148445147055" lon="15.644511706233068"><ele>83.0</ele><time>2026-03-27T12:24:00Z</time></trkpt><trkpt lat="38.211324334675815" lon="15.64433570969987"><ele>82.66666666666667</ele><time>2026-03-27T12:24:01Z</time></trkpt><trkpt lat="38.2111606652286" lon="15.644158863426776"><ele>82.33333333333333</ele><time>2026-03-27T12:24:02Z</time></trkpt><trkpt lat="38.210998680588055" lon="15.643984765309794"><ele>82.0</ele><time>2026-03-27T12:24:03Z</time></trkpt><trkpt lat="38.21084389721221" lon="15.643818680238756"><ele>82.0</ele><time>2026-03-27T12:24:04Z</time></trkpt><trkpt lat="38.210694104026096" lon="15.643655923944614"><ele>82.0</ele><time>2026-03-27T12:24:05.001Z</time></trkpt><trkpt lat="38.21054756590311" lon="15.64349666383354"><ele>82.0</ele><time>2026-03-27T12:24:06.001Z</time></trkpt><trkpt lat="38.21039963140351" lon="15.643334266857558"><ele>79.33333333333333</ele><time>2026-03-27T12:24:07.001Z</time></trkpt><trkpt lat="38.21024725638885" lon="15.643166073538689"><ele>76.66666666666667</ele><time>2026-03-27T12:24:08.001Z</time></trkpt><trkpt lat="38.210089060930905" lon="15.642992569835807"><ele>74.0</ele><time>2026-03-27T12:24:09.001Z</time></trkpt><trkpt lat="38.209929786439965" lon="15.642818906220342"><ele>71.0</ele><time>2026-03-27T12:24:10.001Z</time></trkpt><trkpt lat="38.209769335466866" lon="15.642645835943632"><ele>68.0</ele><time>2026-03-27T12:24:11.001Z</time></trkpt><trkpt lat="38.20961111695533" lon="15.642473507963626"><ele>65.0</ele><time>2026-03-27T12:24:12.001Z</time></trkpt><trkpt lat="38.2094545470367" lon="15.64230144249282"><ele>65.0</ele><time>2026-03-27T12:24:13.001Z</time></trkpt><trkpt lat="38.20930082073121" lon="15.642132625557785"><ele>65.0</ele><time>2026-03-27T12:24:14.001Z</time></trkpt><trkpt lat="38.20915149024216" lon="15.641971807542982"><ele>65.0</ele><time>2026-03-27T12:24:15.001Z</time></trkpt><trkpt lat="38.20899993176337" lon="15.641812344196914"><ele>62.0</ele><time>2026-03-27T12:24:16.001Z</time></trkpt><trkpt lat="38.208842084495664" lon="15.641654930430597"><ele>59.0</ele><time>2026-03-27T12:24:17.001Z</time></trkpt><trkpt lat="38.20867436636093" lon="15.641503872632496"><ele>56.0</ele><time>2026-03-27T12:24:18.001Z</time></trkpt><trkpt lat="38.208494373228554" lon="15.641367346970771"><ele>56.0</ele><time>2026-03-27T12:24:19.001Z</time></trkpt><trkpt lat="38.20830530853359" lon="15.641249257340947"><ele>56.0</ele><time>2026-03-27T12:24:20.001Z</time></trkpt><trkpt lat="38.208107286636256" lon="15.641149998130308"><ele>56.0</ele><time>2026-03-27T12:24:21.001Z</time></trkpt><trkpt lat="38.20790950537804" lon="15.64107345909802"><ele>55.0</ele><time>2026-03-27T12:24:22.001Z</time></trkpt><trkpt lat="38.207713895693054" lon="15.641016821014935"><ele>54.0</ele><time>2026-03-27T12:24:23.001Z</time></trkpt><trkpt lat="38.20751394804725" lon="15.640976197744704"><ele>53.0</ele><time>2026-03-27T12:24:24.001Z</time></trkpt><trkpt lat="38.207308393524805" lon="15.640945161680218"><ele>53.0</ele><time>2026-03-27T12:24:25.001Z</time></trkpt><trkpt lat="38.20710923993828" lon="15.640917734853721"><ele>53.0</ele><time>2026-03-27T12:24:26.001Z</time></trkpt><trkpt lat="38.20691452427968" lon="15.640887568829683"><ele>53.0</ele><time>2026-03-27T12:24:27.001Z</time></trkpt><trkpt lat="38.20672483492166" lon="15.640852037061398"><ele>53.0</ele><time>2026-03-27T12:24:28.001Z</time></trkpt><trkpt lat="38.20653167522079" lon="15.640810295468041"><ele>53.0</ele><time>2026-03-27T12:24:29.001Z</time></trkpt><trkpt lat="38.206333086112615" lon="15.640758294109528"><ele>53.0</ele><time>2026-03-27T12:24:30.001Z</time></trkpt><trkpt lat="38.20612851934319" lon="15.640692558573223"><ele>53.0</ele><time>2026-03-27T12:24:31.001Z</time></trkpt><trkpt lat="38.20591859711995" lon="15.64061283895042"><ele>53.0</ele><time>2026-03-27T12:24:32.001Z</time></trkpt><trkpt lat="38.205707769440004" lon="15.640523009851448"><ele>53.0</ele><time>2026-03-27T12:24:33.001Z</time></trkpt><trkpt lat="38.20551026322392" lon="15.640423714258821"><ele>53.0</ele><time>2026-03-27T12:24:34.001Z</time></trkpt><trkpt lat="38.205328710644096" lon="15.640312742964495"><ele>53.0</ele><time>2026-03-27T12:24:35.001Z</time></trkpt><trkpt lat="38.205178970689005" lon="15.640198998561543"><ele>53.0</ele><time>2026-03-27T12:24:36.001Z</time></trkpt><trkpt lat="38.20506794278739" lon="15.640083733422667"><ele>51.75</ele><time>2026-03-27T12:24:37.001Z</time></trkpt><trkpt lat="38.204993561164" lon="15.63995976874079"><ele>50.5</ele><time>2026-03-27T12:24:38.001Z</time></trkpt><trkpt lat="38.204936980240866" lon="15.639825377391912"><ele>49.25</ele><time>2026-03-27T12:24:39.001Z</time></trkpt><trkpt lat="38.20490318221483" lon="15.639679408184477"><ele>48.0</ele><time>2026-03-27T12:24:40.001Z</time></trkpt><trkpt lat="38.2048859549761" lon="15.639522877526689"><ele>46.25</ele><time>2026-03-27T12:24:41Z</time></trkpt><trkpt lat="38.20488711997865" lon="15.639350331892857"><ele>44.5</ele><time>2026-03-27T12:24:42Z</time></trkpt><trkpt lat="38.20489955368212" lon="15.639168798325093"><ele>42.75</ele><time>2026-03-27T12:24:43Z</time></trkpt><trkpt lat="38.20491883419555" lon="15.638979542873185"><ele>41.0</ele><time>2026-03-27T12:24:44Z</time></trkpt><trkpt lat="38.20493567917963" lon="15.638793826940034"><ele>41.0</ele><time>2026-03-27T12:24:45Z</time></trkpt><trkpt lat="38.20494067174779" lon="15.638623556327783"><ele>41.0</ele><time>2026-03-27T12:24:46Z</time></trkpt><trkpt lat="38.20493394861837" lon="15.638461466196226"><ele>41.0</ele><time>2026-03-27T12:24:47Z</time></trkpt><trkpt lat="38.20491960971669" lon="15.63829734384276"><ele>41.0</ele><time>2026-03-27T12:24:48Z</time></trkpt><trkpt lat="38.204901851767666" lon="15.638133803071057"><ele>41.0</ele><time>2026-03-27T12:24:49Z</time></trkpt><trkpt lat="38.20488549091327" lon="15.637977325553878"><ele>41.0</ele><time>2026-03-27T12:24:50Z</time></trkpt><trkpt lat="38.20487161122235" lon="15.637832166796652"><ele>41.0</ele><time>2026-03-27T12:24:51Z</time></trkpt><trkpt lat="38.204857021914236" lon="15.637699308350822"><ele>41.0</ele><time>2026-03-27T12:24:52Z</time></trkpt><trkpt lat="38.20484501054887" lon="15.637580813686768"><ele>41.0</ele><time>2026-03-27T12:24:53Z</time></trkpt><trkpt lat="38.20483785372162" lon="15.63747111497023"><ele>40.5</ele><time>2026-03-27T12:24:54Z</time></trkpt><trkpt lat="38.204840903202026" lon="15.637365373914216"><ele>40.0</ele><time>2026-03-27T12:24:55Z</time></trkpt><trkpt lat="38.20486067154059" lon="15.63726650532976"><ele>39.5</ele><time>2026-03-27T12:24:56Z</time></trkpt><trkpt lat="38.20489485392291" lon="15.63717309056269"><ele>39.0</ele><time>2026-03-27T12:24:57Z</time></trkpt><trkpt lat="38.204940378886796" lon="15.637088664779121"><ele>38.5</ele><time>2026-03-27T12:24:58Z</time></trkpt><trkpt lat="38.20499084898779" lon="15.63701327736022"><ele>38.0</ele><time>2026-03-27T12:24:59Z</time></trkpt><trkpt lat="38.20505329052451" lon="15.636941066932064"><ele>34.4</ele><time>2026-03-27T12:25:00Z</time></trkpt><trkpt lat="38.205134064941035" lon="15.636873636031618"><ele>30.799999999999997</ele><time>2026-03-27T12:25:01Z</time></trkpt><trkpt lat="38.205225210154936" lon="15.636830783634483"><ele>27.2</ele><time>2026-03-27T12:25:02Z</time></trkpt><trkpt lat="38.20531355693013" lon="15.636813207116255"><ele>23.6</ele><time>2026-03-27T12:25:03Z</time></trkpt><trkpt lat="38.205405944743625" lon="15.63680287967869"><ele>20.0</ele><time>2026-03-27T12:25:04Z</time></trkpt><trkpt lat="38.20550046122663" lon="15.636793929373018"><ele>20.0</ele><time>2026-03-27T12:25:05Z</time></trkpt><trkpt lat="38.20558789682503" lon="15.636785757321945"><ele>20.0</ele><time>2026-03-27T12:25:06Z</time></trkpt><trkpt lat="38.20567402949755" lon="15.636778213764595"><ele>20.0</ele><time>2026-03-27T12:25:07Z</time></trkpt><trkpt lat="38.205749368993025" lon="15.636768234016104"><ele>20.0</ele><time>2026-03-27T12:25:08Z</time></trkpt><trkpt lat="38.2058185605883" lon="15.63675754560211"><ele>20.0</ele><time>2026-03-27T12:25:09Z</time></trkpt><trkpt lat="38.20588590592314" lon="15.636747156465072"><ele>20.0</ele><time>2026-03-27T12:25:10Z</time></trkpt><trkpt lat="38.205951616767585" lon="15.636733524783633"><ele>19.833333333333336</ele><time>2026-03-27T12:25:11Z</time></trkpt><trkpt lat="38.206021044537444" lon="15.636711307323523"><ele>19.666666666666668</ele><time>2026-03-27T12:25:12Z</time></trkpt><trkpt lat="38.20609254698308" lon="15.636676190807576"><ele>19.5</ele><time>2026-03-27T12:25:13Z</time></trkpt><trkpt lat="38.20615810411072" lon="15.636622139723045"><ele>19.333333333333332</ele><time>2026-03-27T12:25:14Z</time></trkpt><trkpt lat="38.206216824168024" lon="15.636557970819938"><ele>19.166666666666664</ele><time>2026-03-27T12:25:15Z</time></trkpt><trkpt lat="38.20626389558048" lon="15.636486819347521"><ele>19.0</ele><time>2026-03-27T12:25:16Z</time></trkpt><trkpt lat="38.206311971859755" lon="15.636406445807085"><ele>19.0</ele><time>2026-03-27T12:25:17Z</time></trkpt><trkpt lat="38.20636748013151" lon="15.636312873511388"><ele>19.0</ele><time>2026-03-27T12:25:18Z</time></trkpt><trkpt lat="38.20642252863044" lon="15.636223585583702"><ele>19.0</ele><time>2026-03-27T12:25:19Z</time></trkpt><trkpt lat="38.20647731792926" lon="15.636138052780908"><ele>19.0</ele><time>2026-03-27T12:25:20Z</time></trkpt><trkpt lat="38.206527542457586" lon="15.636058855211822"><ele>19.0</ele><time>2026-03-27T12:25:21Z</time></trkpt><trkpt lat="38.20657194617688" lon="15.63598828790904"><ele>19.0</ele><time>2026-03-27T12:25:22Z</time></trkpt><trkpt lat="38.2066132986938" lon="15.635923287739384"><ele>18.0</ele><time>2026-03-27T12:25:23Z</time></trkpt><trkpt lat="38.206658844167954" lon="15.635853530297851"><ele>17.0</ele><time>2026-03-27T12:25:24Z</time></trkpt><trkpt lat="38.2067163768792" lon="15.635770950242714"><ele>16.0</ele><time>2026-03-27T12:25:25Z</time></trkpt><trkpt lat="38.20678020358229" lon="15.635686354590913"><ele>15.0</ele><time>2026-03-27T12:25:26Z</time></trkpt><trkpt lat="38.20684484008844" lon="15.635612552015843"><ele>13.999999999999998</ele><time>2026-03-27T12:25:27Z</time></trkpt><trkpt lat="38.20691836082106" lon="15.635547008561508"><ele>13.0</ele><time>2026-03-27T12:25:28Z</time></trkpt><trkpt lat="38.206998709789744" lon="15.635487426980486"><ele>13.0</ele><time>2026-03-27T12:25:29Z</time></trkpt><trkpt lat="38.20708522061154" lon="15.635435414249503"><ele>13.0</ele><time>2026-03-27T12:25:30Z</time></trkpt><trkpt lat="38.20717805348041" lon="15.635395736831025"><ele>13.0</ele><time>2026-03-27T12:25:31Z</time></trkpt><trkpt lat="38.207277737914005" lon="15.63536915234722"><ele>13.0</ele><time>2026-03-27T12:25:32Z</time></trkpt><trkpt lat="38.20738605958127" lon="15.635353509312377"><ele>13.0</ele><time>2026-03-27T12:25:33Z</time></trkpt><trkpt lat="38.207496103562576" lon="15.635354492959596"><ele>13.25</ele><time>2026-03-27T12:25:34Z</time></trkpt><trkpt lat="38.20761294611926" lon="15.635363714065262"><ele>13.5</ele><time>2026-03-27T12:25:35Z</time></trkpt><trkpt lat="38.207736424219" lon="15.635377037881687"><ele>13.75</ele><time>2026-03-27T12:25:36Z</time></trkpt><trkpt lat="38.20786427983134" lon="15.635392195856081"><ele>14.0</ele><time>2026-03-27T12:25:37Z</time></trkpt><trkpt lat="38.20799670495822" lon="15.635408540699462"><ele>14.0</ele><time>2026-03-27T12:25:38Z</time></trkpt><trkpt lat="38.20811941768361" lon="15.635426849267025"><ele>14.0</ele><time>2026-03-27T12:25:39Z</time></trkpt><trkpt lat="38.208241302479315" lon="15.635444228569332"><ele>14.0</ele><time>2026-03-27T12:25:40Z</time></trkpt><trkpt lat="38.208358872653875" lon="15.635458161318871"><ele>14.0</ele><time>2026-03-27T12:25:41Z</time></trkpt><trkpt lat="38.20847200253486" lon="15.635469731930925"><ele>13.799999999999999</ele><time>2026-03-27T12:25:42Z</time></trkpt><trkpt lat="38.208583459413184" lon="15.635480710467343"><ele>13.599999999999998</ele><time>2026-03-27T12:25:43Z</time></trkpt><trkpt lat="38.20869519220214" lon="15.635491479942752"><ele>13.4</ele><time>2026-03-27T12:25:44Z</time></trkpt><trkpt lat="38.208799557268556" lon="15.63550067619615"><ele>13.2</ele><time>2026-03-27T12:25:45Z</time></trkpt><trkpt lat="38.20889817237258" lon="15.635508825443178"><ele>13.0</ele><time>2026-03-27T12:25:46Z</time></trkpt><trkpt lat="38.20899732292041" lon="15.635516531944202"><ele>13.0</ele><time>2026-03-27T12:25:47Z</time></trkpt><trkpt lat="38.20909974254146" lon="15.635524680892926"><ele>13.0</ele><time>2026-03-27T12:25:48Z</time></trkpt><trkpt lat="38.209203897134685" lon="15.635531833210168"><ele>13.0</ele><time>2026-03-27T12:25:49Z</time></trkpt><trkpt lat="38.20930854099703" lon="15.635540944186884"><ele>13.0</ele><time>2026-03-27T12:25:50Z</time></trkpt><trkpt lat="38.20941599877827" lon="15.635550311557047"><ele>13.0</ele><time>2026-03-27T12:25:51Z</time></trkpt><trkpt lat="38.209530677029264" lon="15.635557678086306"><ele>13.0</ele><time>2026-03-27T12:25:52Z</time></trkpt><trkpt lat="38.20965562854246" lon="15.635562197366257"><ele>13.0</ele><time>2026-03-27T12:25:53Z</time></trkpt><trkpt lat="38.20978239660881" lon="15.635565078513894"><ele>13.0</ele><time>2026-03-27T12:25:54Z</time></trkpt><trkpt lat="38.20991357067374" lon="15.635561493403598"><ele>13.0</ele><time>2026-03-27T12:25:55Z</time></trkpt><trkpt lat="38.210041890548354" lon="15.63555324617196"><ele>13.25</ele><time>2026-03-27T12:25:56Z</time></trkpt><trkpt lat="38.21017416354745" lon="15.635542579446804"><ele>13.5</ele><time>2026-03-27T12:25:57Z</time></trkpt><trkpt lat="38.210307085711854" lon="15.635533002440352"><ele>13.75</ele><time>2026-03-27T12:25:58Z</time></trkpt><trkpt lat="38.21044251400519" lon="15.635522662078019"><ele>14.0</ele><time>2026-03-27T12:25:59Z</time></trkpt><trkpt lat="38.210575022693774" lon="15.635514192129548"><ele>13.5</ele><time>2026-03-27T12:26:00Z</time></trkpt><trkpt lat="38.21071035862824" lon="15.635505786142156"><ele>13.0</ele><time>2026-03-27T12:26:01Z</time></trkpt><trkpt lat="38.21085112777983" lon="15.635497076007328"><ele>12.5</ele><time>2026-03-27T12:26:02Z</time></trkpt><trkpt lat="38.210996518182654" lon="15.635490288087176"><ele>12.0</ele><time>2026-03-27T12:26:03Z</time></trkpt><trkpt lat="38.21114625977508" lon="15.635486885203857"><ele>12.0</ele><time>2026-03-27T12:26:04Z</time></trkpt><trkpt lat="38.211297630664134" lon="15.635484218397538"><ele>12.0</ele><time>2026-03-27T12:26:05Z</time></trkpt><trkpt lat="38.21145293372734" lon="15.63547928358453"><ele>12.0</ele><time>2026-03-27T12:26:06Z</time></trkpt><trkpt lat="38.211612004911714" lon="15.635473354806699"><ele>10.666666666666666</ele><time>2026-03-27T12:26:07Z</time></trkpt><trkpt lat="38.21176791121335" lon="15.635468083717615"><ele>9.333333333333332</ele><time>2026-03-27T12:26:08Z</time></trkpt><trkpt lat="38.211922802634135" lon="15.635459533554084"><ele>8.0</ele><time>2026-03-27T12:26:09Z</time></trkpt><trkpt lat="38.2120738063396" lon="15.635450673347588"><ele>8.0</ele><time>2026-03-27T12:26:10Z</time></trkpt><trkpt lat="38.21222126731165" lon="15.635441734762752"><ele>8.0</ele><time>2026-03-27T12:26:11.001Z</time></trkpt><trkpt lat="38.21236765229643" lon="15.635433660335632"><ele>8.0</ele><time>2026-03-27T12:26:12.001Z</time></trkpt><trkpt lat="38.21251622292794" lon="15.635425665012498"><ele>8.0</ele><time>2026-03-27T12:26:13.001Z</time></trkpt><trkpt lat="38.21265714713154" lon="15.635417892067062"><ele>8.0</ele><time>2026-03-27T12:26:14.001Z</time></trkpt><trkpt lat="38.212792454928945" lon="15.635407488365066"><ele>8.0</ele><time>2026-03-27T12:26:15.001Z</time></trkpt><trkpt lat="38.21292732985826" lon="15.635395048854532"><ele>8.0</ele><time>2026-03-27T12:26:16.001Z</time></trkpt><trkpt lat="38.21306230335687" lon="15.635384672938232"><ele>8.0</ele><time>2026-03-27T12:26:17.001Z</time></trkpt><trkpt lat="38.21319021619629" lon="15.635378082381218"><ele>8.0</ele><time>2026-03-27T12:26:18.001Z</time></trkpt><trkpt lat="38.21331232851909" lon="15.635371322189936"><ele>8.0</ele><time>2026-03-27T12:26:19.001Z</time></trkpt><trkpt lat="38.21343138273301" lon="15.635364084843369"><ele>8.0</ele><time>2026-03-27T12:26:20.001Z</time></trkpt><trkpt lat="38.213547840786276" lon="15.635356699893926"><ele>8.0</ele><time>2026-03-27T12:26:21.001Z</time></trkpt><trkpt lat="38.213661525248746" lon="15.635353965851467"><ele>7.999999999999999</ele><time>2026-03-27T12:26:22.001Z</time></trkpt><trkpt lat="38.21376935987625" lon="15.63534149352476"><ele>8.0</ele><time>2026-03-27T12:26:23.001Z</time></trkpt><trkpt lat="38.21386332774114" lon="15.63538881192898"><ele>8.0</ele><time>2026-03-27T12:26:24.001Z</time></trkpt><trkpt lat="38.21393760539854" lon="15.635422938172196"><ele>8.0</ele><time>2026-03-27T12:26:25.001Z</time></trkpt><trkpt lat="38.21399440185089" lon="15.635460766069071"><ele>7.999999999999999</ele><time>2026-03-27T12:26:26.001Z</time></trkpt><trkpt lat="38.214042373819176" lon="15.635513909148251"><ele>8.0</ele><time>2026-03-27T12:26:27.001Z</time></trkpt><trkpt lat="38.21412517447027" lon="15.63547184793549"><ele>7.75</ele><time>2026-03-27T12:26:28.001Z</time></trkpt><trkpt lat="38.21414032365349" lon="15.635710952218826"><ele>7.5</ele><time>2026-03-27T12:26:30.001Z</time></trkpt><trkpt lat="38.21415473765143" lon="15.635841440891816"><ele>7.25</ele><time>2026-03-27T12:26:32.001Z</time></trkpt><trkpt lat="38.2141574650261" lon="15.635971965267444"><ele>7.0</ele><time>2026-03-27T12:26:34.001Z</time></trkpt><trkpt lat="38.214169747141156" lon="15.636130357299502"><ele>7.6</ele><time>2026-03-27T12:26:36.001Z</time></trkpt><trkpt lat="38.214193859647644" lon="15.636282888287658"><ele>8.2</ele><time>2026-03-27T12:26:38.001Z</time></trkpt><trkpt lat="38.214209593940495" lon="15.636365815985041"><ele>8.8</ele><time>2026-03-27T12:26:39.001Z</time></trkpt><trkpt lat="38.214229593528685" lon="15.636447470473513"><ele>9.4</ele><time>2026-03-27T12:26:40.001Z</time></trkpt><trkpt lat="38.2142895455187" lon="15.63656309726487"><ele>10.0</ele><time>2026-03-27T12:26:42.001Z</time></trkpt><trkpt lat="38.21435364148811" lon="15.636642114966246"><ele>10.0</ele><time>2026-03-27T12:26:44.001Z</time></trkpt><trkpt lat="38.214438819098085" lon="15.63670525357796"><ele>10.0</ele><time>2026-03-27T12:26:46.001Z</time></trkpt><trkpt lat="38.21453816002721" lon="15.636727530820325"><ele>10.0</ele><time>2026-03-27T12:26:48.001Z</time></trkpt><trkpt lat="38.21463658435814" lon="15.636718264673435"><ele>10.0</ele><time>2026-03-27T12:26:50Z</time></trkpt><trkpt lat="38.214736155585776" lon="15.636697819289802"><ele>10.0</ele><time>2026-03-27T12:26:52Z</time></trkpt><trkpt lat="38.214831298179824" lon="15.636689119373342"><ele>10.428571428571429</ele><time>2026-03-27T12:26:54Z</time></trkpt><trkpt lat="38.21492365310428" lon="15.636689242007998"><ele>10.857142857142858</ele><time>2026-03-27T12:26:56Z</time></trkpt><trkpt lat="38.214993463542044" lon="15.636684817394581"><ele>11.285714285714285</ele><time>2026-03-27T12:26:58Z</time></trkpt><trkpt lat="38.21506057558586" lon="15.636678154241432"><ele>11.714285714285715</ele><time>2026-03-27T12:27:00Z</time></trkpt><trkpt lat="38.21514184188956" lon="15.636669500229441"><ele>12.142857142857144</ele><time>2026-03-27T12:27:03Z</time></trkpt><trkpt lat="38.21520637948396" lon="15.636664303057543"><ele>12.571428571428571</ele><time>2026-03-27T12:27:07Z</time></trkpt><trkpt lat="38.21527894220545" lon="15.636655855653872"><ele>13.0</ele><time>2026-03-27T12:28:16.001Z</time></trkpt><trkpt lat="38.2153445583596" lon="15.636652505027282"><ele>12.999999999999998</ele><time>2026-03-27T12:28:23.001Z</time></trkpt><trkpt lat="38.2154286780704" lon="15.636651492414595"><ele>13.0</ele><time>2026-03-27T12:28:25.001Z</time></trkpt><trkpt lat="38.215507990608735" lon="15.636647944374275"><ele>13.0</ele><time>2026-03-27T12:28:27.001Z</time></trkpt><trkpt lat="38.21557941239566" lon="15.636644313054122"><ele>13.0</ele><time>2026-03-27T12:28:29.001Z</time></trkpt><trkpt lat="38.215664688138276" lon="15.636644627211675"><ele>12.999999999999998</ele><time>2026-03-27T12:28:32.001Z</time></trkpt><trkpt lat="38.215752353869625" lon="15.636705212948288"><ele>13.0</ele><time>2026-03-27T12:29:14Z</time></trkpt><trkpt lat="38.215850060285376" lon="15.636771239349443"><ele>13.0</ele><time>2026-03-27T12:29:16Z</time></trkpt><trkpt lat="38.21593074137509" lon="15.63674901012051"><ele>13.0</ele><time>2026-03-27T12:29:18Z</time></trkpt><trkpt lat="38.21600009706649" lon="15.636747662240717"><ele>13.0</ele><time>2026-03-27T12:32:14Z</time></trkpt><trkpt lat="38.216052343702025" lon="15.636678406546245"><ele>13.0</ele><time>2026-03-27T12:32:17Z</time></trkpt><trkpt lat="38.21608223609278" lon="15.636592575684475"><ele>13.0</ele><time>2026-03-27T12:32:19Z</time></trkpt><trkpt lat="38.21607725402507" lon="15.636508940576851"><ele>13.0</ele><time>2026-03-27T12:32:21Z</time></trkpt><trkpt lat="38.21603143274792" lon="15.636449356402343"><ele>13.0</ele><time>2026-03-27T12:32:23Z</time></trkpt><trkpt lat="38.21597251988649" lon="15.636403540207008"><ele>12.999999999999998</ele><time>2026-03-27T12:32:25Z</time></trkpt><trkpt lat="38.21590665537376" lon="15.636381846022488"><ele>13.0</ele><time>2026-03-27T12:32:27Z</time></trkpt><trkpt lat="38.21584332161343" lon="15.636386815086817"><ele>13.0</ele><time>2026-03-27T12:32:31Z</time></trkpt><trkpt lat="38.215771826630075" lon="15.636395758561015"><ele>13.0</ele><time>2026-03-27T12:37:51Z</time></trkpt><trkpt lat="38.21566936415257" lon="15.636396751066323"><ele>12.999999999999998</ele><time>2026-03-27T12:37:54Z</time></trkpt><trkpt lat="38.21556764632917" lon="15.636400888740441"><ele>13.0</ele><time>2026-03-27T12:37:56Z</time></trkpt><trkpt lat="38.21544084994542" lon="15.636388801094494"><ele>12.999999999999998</ele><time>2026-03-27T12:37:58Z</time></trkpt><trkpt lat="38.21536581722619" lon="15.636396461797679"><ele>13.0</ele><time>2026-03-27T12:37:59Z</time></trkpt><trkpt lat="38.21528414996439" lon="15.636403506355263"><ele>13.0</ele><time>2026-03-27T12:38:00Z</time></trkpt><trkpt lat="38.21520009114509" lon="15.636408305893713"><ele>13.0</ele><time>2026-03-27T12:38:01Z</time></trkpt><trkpt lat="38.215119801715566" lon="15.636413841374308"><ele>12.999999999999998</ele><time>2026-03-27T12:38:02Z</time></trkpt><trkpt lat="38.21504794805586" lon="15.636419522174053"><ele>13.0</ele><time>2026-03-27T12:38:03Z</time></trkpt><trkpt lat="38.214978322613085" lon="15.636425127352545"><ele>12.999999999999998</ele><time>2026-03-27T12:38:04Z</time></trkpt><trkpt lat="38.21490982093638" lon="15.63642962074464"><ele>13.0</ele><time>2026-03-27T12:38:05Z</time></trkpt><trkpt lat="38.21484131944234" lon="15.636433133775736"><ele>13.0</ele><time>2026-03-27T12:38:06Z</time></trkpt><trkpt lat="38.21477677455429" lon="15.63646009411294"><ele>13.0</ele><time>2026-03-27T12:38:07Z</time></trkpt><trkpt lat="38.21465959888762" lon="15.636475869971523"><ele>12.999999999999998</ele><time>2026-03-27T12:38:09Z</time></trkpt><trkpt lat="38.214576800759204" lon="15.63647713775664"><ele>13.0</ele><time>2026-03-27T12:38:11Z</time></trkpt><trkpt lat="38.21451287439772" lon="15.636457579315394"><ele>12.499999999999998</ele><time>2026-03-27T12:38:13Z</time></trkpt><trkpt lat="38.21444147660154" lon="15.636407813249377"><ele>12.0</ele><time>2026-03-27T12:38:15Z</time></trkpt><trkpt lat="38.214384582763856" lon="15.636344509179052"><ele>11.5</ele><time>2026-03-27T12:38:17Z</time></trkpt><trkpt lat="38.21437589180218" lon="15.636230482868513"><ele>11.0</ele><time>2026-03-27T12:38:26Z</time></trkpt><trkpt lat="38.21442682515455" lon="15.636168408877369"><ele>10.5</ele><time>2026-03-27T12:38:28Z</time></trkpt><trkpt lat="38.21451753105832" lon="15.636124864057262"><ele>10.0</ele><time>2026-03-27T12:38:31Z</time></trkpt><trkpt lat="38.214565191728326" lon="15.636188083845923"><ele>10.0</ele><time>2026-03-27T12:38:32Z</time></trkpt><trkpt lat="38.214669467891206" lon="15.636279855567508"><ele>10.0</ele><time>2026-03-27T12:38:34Z</time></trkpt><trkpt lat="38.21473567343852" lon="15.636323651743458"><ele>10.0</ele><time>2026-03-27T12:38:35Z</time></trkpt><trkpt lat="38.21481839936616" lon="15.636342205569402"><ele>10.0</ele><time>2026-03-27T12:38:36Z</time></trkpt><trkpt lat="38.21490680171743" lon="15.636346444984731"><ele>10.0</ele><time>2026-03-27T12:38:37Z</time></trkpt><trkpt lat="38.21500288698022" lon="15.636341890484484"><ele>10.6</ele><time>2026-03-27T12:38:38Z</time></trkpt><trkpt lat="38.215094234552126" lon="15.636337201580275"><ele>11.2</ele><time>2026-03-27T12:38:39Z</time></trkpt><trkpt lat="38.215186762223226" lon="15.636331773850273"><ele>11.8</ele><time>2026-03-27T12:38:40Z</time></trkpt><trkpt lat="38.215280877757934" lon="15.63632874657889"><ele>12.4</ele><time>2026-03-27T12:38:41Z</time></trkpt><trkpt lat="38.21537719132195" lon="15.636327266345953"><ele>13.0</ele><time>2026-03-27T12:38:42Z</time></trkpt><trkpt lat="38.21547481834402" lon="15.636325674049946"><ele>12.999999999999998</ele><time>2026-03-27T12:38:43Z</time></trkpt><trkpt lat="38.21556583159446" lon="15.636321811344217"><ele>13.0</ele><time>2026-03-27T12:38:44Z</time></trkpt><trkpt lat="38.21564915284008" lon="15.636317440371887"><ele>13.0</ele><time>2026-03-27T12:38:45Z</time></trkpt><trkpt lat="38.21572627794744" lon="15.636312201936915"><ele>13.0</ele><time>2026-03-27T12:38:46Z</time></trkpt><trkpt lat="38.21579718218646" lon="15.63630763929203"><ele>12.999999999999998</ele><time>2026-03-27T12:38:47Z</time></trkpt><trkpt lat="38.21586436685167" lon="15.63630284146934"><ele>13.0</ele><time>2026-03-27T12:38:48Z</time></trkpt><trkpt lat="38.21592870105621" lon="15.63629740582929"><ele>13.0</ele><time>2026-03-27T12:38:49Z</time></trkpt><trkpt lat="38.21599800474641" lon="15.63629628282699"><ele>13.0</ele><time>2026-03-27T12:38:50Z</time></trkpt><trkpt lat="38.21606498254171" lon="15.636295044099144"><ele>13.0</ele><time>2026-03-27T12:38:51Z</time></trkpt><trkpt lat="38.216131509190845" lon="15.636294674799746"><ele>13.0</ele><time>2026-03-27T12:38:52Z</time></trkpt><trkpt lat="38.21620321456713" lon="15.636288044071815"><ele>13.0</ele><time>2026-03-27T12:38:53Z</time></trkpt><trkpt lat="38.21627590603987" lon="15.636283053215932"><ele>13.0</ele><time>2026-03-27T12:38:54Z</time></trkpt><trkpt lat="38.21634188523142" lon="15.636277673918308"><ele>13.0</ele><time>2026-03-27T12:38:55Z</time></trkpt><trkpt lat="38.216432759453276" lon="15.636270237482169"><ele>13.499999999999998</ele><time>2026-03-27T12:38:57Z</time></trkpt><trkpt lat="38.21651405249508" lon="15.636266257552487"><ele>14.0</ele><time>2026-03-27T12:39:00Z</time></trkpt><trkpt lat="38.21659702902904" lon="15.636254369882732"><ele>14.5</ele><time>2026-03-27T12:39:03Z</time></trkpt><trkpt lat="38.2166630641666" lon="15.636254841323948"><ele>15.0</ele><time>2026-03-27T12:39:07Z</time></trkpt><trkpt lat="38.216724087244536" lon="15.636232553148714"><ele>15.499999999999998</ele><time>2026-03-27T12:39:09Z</time></trkpt><trkpt lat="38.2168077527999" lon="15.636158953139756"><ele>16.0</ele><time>2026-03-27T12:39:11Z</time></trkpt><trkpt lat="38.21679495587931" lon="15.636068612495775"><ele>16.0</ele><time>2026-03-27T12:39:13Z</time></trkpt><trkpt lat="38.216794863651906" lon="15.635963381879161"><ele>16.0</ele><time>2026-03-27T12:39:15Z</time></trkpt><trkpt lat="38.216791036569596" lon="15.635849290914564"><ele>16.0</ele><time>2026-03-27T12:39:17Z</time></trkpt><trkpt lat="38.21678939651641" lon="15.63572561385003"><ele>16.0</ele><time>2026-03-27T12:39:19Z</time></trkpt><trkpt lat="38.2167876197698" lon="15.635594461731717"><ele>16.0</ele><time>2026-03-27T12:39:21Z</time></trkpt><trkpt lat="38.21678518499476" lon="15.635485751732569"><ele>15.999999999999998</ele><time>2026-03-27T12:39:23Z</time></trkpt><trkpt lat="38.21678448664396" lon="15.63537830634403"><ele>16.0</ele><time>2026-03-27T12:39:25Z</time></trkpt><trkpt lat="38.21679311720555" lon="15.635266074495995"><ele>16.0</ele><time>2026-03-27T12:39:27Z</time></trkpt><trkpt lat="38.21681502535459" lon="15.635163667327841"><ele>16.0</ele><time>2026-03-27T12:39:29Z</time></trkpt><trkpt lat="38.216851372540766" lon="15.635075114988458"><ele>15.999999999999998</ele><time>2026-03-27T12:39:31Z</time></trkpt><trkpt lat="38.216927010253144" lon="15.63500003510383"><ele>16.0</ele><time>2026-03-27T12:39:33Z</time></trkpt><trkpt lat="38.21702644411389" lon="15.634951940034734"><ele>15.8</ele><time>2026-03-27T12:39:35Z</time></trkpt><trkpt lat="38.21711149599835" lon="15.634935066783536"><ele>15.600000000000001</ele><time>2026-03-27T12:39:37Z</time></trkpt><trkpt lat="38.21719856137292" lon="15.634931166921271"><ele>15.4</ele><time>2026-03-27T12:39:40Z</time></trkpt><trkpt lat="38.21727669439184" lon="15.634955529301582"><ele>15.2</ele><time>2026-03-27T12:39:43Z</time></trkpt><trkpt lat="38.21735717404009" lon="15.634967104856088"><ele>15.0</ele><time>2026-03-27T12:39:46Z</time></trkpt><trkpt lat="38.21738611491364" lon="15.634823072266375"><ele>15.0</ele><time>2026-03-27T12:39:48Z</time></trkpt><trkpt lat="38.21738456946011" lon="15.63471223296907"><ele>15.0</ele><time>2026-03-27T12:39:50Z</time></trkpt><trkpt lat="38.217382098007114" lon="15.634605538578443"><ele>15.0</ele><time>2026-03-27T12:39:52Z</time></trkpt><trkpt lat="38.217379930814374" lon="15.634494614094402"><ele>15.0</ele><time>2026-03-27T12:39:54Z</time></trkpt><trkpt lat="38.21737499464064" lon="15.634371910460542"><ele>15.0</ele><time>2026-03-27T12:39:56Z</time></trkpt><trkpt lat="38.217370457058216" lon="15.634227444320707"><ele>13.833333333333334</ele><time>2026-03-27T12:39:58Z</time></trkpt><trkpt lat="38.2173635721235" lon="15.634121151969579"><ele>12.666666666666666</ele><time>2026-03-27T12:40:00Z</time></trkpt><trkpt lat="38.21737629762678" lon="15.634025142372463"><ele>11.5</ele><time>2026-03-27T12:40:03Z</time></trkpt><trkpt lat="38.21735633318626" lon="15.63391527306451"><ele>10.333333333333332</ele><time>2026-03-27T12:40:06Z</time></trkpt><trkpt lat="38.217371679511885" lon="15.633817256091449"><ele>9.166666666666666</ele><time>2026-03-27T12:40:08Z</time></trkpt><trkpt lat="38.21745012203206" lon="15.63380282517702"><ele>8.0</ele><time>2026-03-27T12:40:11Z</time></trkpt><trkpt lat="38.2175481531342" lon="15.63381711846106"><ele>7.999999999999999</ele><time>2026-03-27T12:40:13Z</time></trkpt><trkpt lat="38.21765808941585" lon="15.633813851271249"><ele>8.0</ele><time>2026-03-27T12:40:15Z</time></trkpt><trkpt lat="38.217724634169215" lon="15.633812811508527"><ele>8.0</ele><time>2026-03-27T12:40:16Z</time></trkpt><trkpt lat="38.21779793667106" lon="15.633811666156552"><ele>8.0</ele><time>2026-03-27T12:40:17Z</time></trkpt><trkpt lat="38.21787409686378" lon="15.633810476153965"><ele>7.999999999999999</ele><time>2026-03-27T12:40:18Z</time></trkpt><trkpt lat="38.2179532983859" lon="15.633806288865896"><ele>8.0</ele><time>2026-03-27T12:40:19Z</time></trkpt><trkpt lat="38.21803521287453" lon="15.633800713225892"><ele>8.0</ele><time>2026-03-27T12:40:20Z</time></trkpt><trkpt lat="38.218113235757755" lon="15.633795515635535"><ele>7.999999999999999</ele><time>2026-03-27T12:40:21Z</time></trkpt><trkpt lat="38.21818267116198" lon="15.633791293946496"><ele>8.0</ele><time>2026-03-27T12:40:22Z</time></trkpt><trkpt lat="38.21825156517353" lon="15.633787727046437"><ele>8.0</ele><time>2026-03-27T12:40:23Z</time></trkpt><trkpt lat="38.2183211053104" lon="15.633786824079403"><ele>7.999999999999999</ele><time>2026-03-27T12:40:24Z</time></trkpt><trkpt lat="38.21839725370664" lon="15.63378620997883"><ele>8.0</ele><time>2026-03-27T12:40:25Z</time></trkpt><trkpt lat="38.218481617595224" lon="15.633786828273603"><ele>8.0</ele><time>2026-03-27T12:40:26Z</time></trkpt><trkpt lat="38.218573512258914" lon="15.63378802921973"><ele>7.833333333333333</ele><time>2026-03-27T12:40:27Z</time></trkpt><trkpt lat="38.21866916933618" lon="15.633789149165946"><ele>7.666666666666666</ele><time>2026-03-27T12:40:28Z</time></trkpt><trkpt lat="38.21876280175138" lon="15.633790086184229"><ele>7.5</ele><time>2026-03-27T12:40:29Z</time></trkpt><trkpt lat="38.21885400100877" lon="15.633790998853383"><ele>7.333333333333334</ele><time>2026-03-27T12:40:30Z</time></trkpt><trkpt lat="38.21894015958651" lon="15.63379129928001"><ele>7.166666666666667</ele><time>2026-03-27T12:40:31Z</time></trkpt><trkpt lat="38.21901815620683" lon="15.633791076340735"><ele>7.0</ele><time>2026-03-27T12:40:32Z</time></trkpt><trkpt lat="38.21909138001824" lon="15.633790865753815"><ele>7.000000000000001</ele><time>2026-03-27T12:40:33Z</time></trkpt><trkpt lat="38.21916223389778" lon="15.6337906619816"><ele>7.0</ele><time>2026-03-27T12:40:34Z</time></trkpt><trkpt lat="38.219239565192844" lon="15.633790439580858"><ele>7.0</ele><time>2026-03-27T12:40:35Z</time></trkpt><trkpt lat="38.219321737142494" lon="15.633790203258284"><ele>7.0</ele><time>2026-03-27T12:40:36Z</time></trkpt><trkpt lat="38.2193997912095" lon="15.63379011350601"><ele>7.000000000000001</ele><time>2026-03-27T12:40:37Z</time></trkpt><trkpt lat="38.21947520176748" lon="15.63379051584854"><ele>7.0</ele><time>2026-03-27T12:40:38Z</time></trkpt><trkpt lat="38.21954821208336" lon="15.633790905384233"><ele>7.0</ele><time>2026-03-27T12:40:39Z</time></trkpt><trkpt lat="38.21961928264653" lon="15.633791284571855"><ele>7.0</ele><time>2026-03-27T12:40:40Z</time></trkpt><trkpt lat="38.21968699094544" lon="15.633792143734773"><ele>7.0</ele><time>2026-03-27T12:40:41Z</time></trkpt><trkpt lat="38.21975271286002" lon="15.633793285960946"><ele>7.0</ele><time>2026-03-27T12:40:42Z</time></trkpt><trkpt lat="38.219818772519965" lon="15.633794434053243"><ele>7.0</ele><time>2026-03-27T12:40:43Z</time></trkpt><trkpt lat="38.21988423313594" lon="15.633795571730868"><ele>7.0</ele><time>2026-03-27T12:40:44Z</time></trkpt><trkpt lat="38.21995132289776" lon="15.633794986408434"><ele>7.0</ele><time>2026-03-27T12:40:45Z</time></trkpt><trkpt lat="38.22002085739947" lon="15.633795414655898"><ele>7.000000000000001</ele><time>2026-03-27T12:40:46Z</time></trkpt><trkpt lat="38.220094561032866" lon="15.63379586857897"><ele>7.0</ele><time>2026-03-27T12:40:47Z</time></trkpt><trkpt lat="38.2201711670884" lon="15.633796340378407"><ele>7.0</ele><time>2026-03-27T12:40:48Z</time></trkpt><trkpt lat="38.220249915148905" lon="15.633795926762007"><ele>7.0</ele><time>2026-03-27T12:40:49Z</time></trkpt><trkpt lat="38.22032287150631" lon="15.633791349926424"><ele>7.000000000000001</ele><time>2026-03-27T12:40:50Z</time></trkpt><trkpt lat="38.22040385585193" lon="15.633778085378903"><ele>7.0</ele><time>2026-03-27T12:40:51Z</time></trkpt><trkpt lat="38.22041036315507" lon="15.633570479761435"><ele>6.333333333333334</ele><time>2026-03-27T12:40:52Z</time></trkpt><trkpt lat="38.22049388361393" lon="15.633496194012176"><ele>5.666666666666667</ele><time>2026-03-27T12:40:54Z</time></trkpt><trkpt lat="38.220563307885406" lon="15.633434927554399"><ele>5.0</ele><time>2026-03-27T12:40:56Z</time></trkpt><trkpt lat="38.2206547344078" lon="15.633373249610916"><ele>4.333333333333334</ele><time>2026-03-27T12:40:58Z</time></trkpt><trkpt lat="38.220724856941644" lon="15.633341107839444"><ele>3.666666666666667</ele><time>2026-03-27T12:41:00Z</time></trkpt><trkpt lat="38.22079819363605" lon="15.633319401174308"><ele>3.0</ele><time>2026-03-27T12:41:03Z</time></trkpt><trkpt lat="38.22086214203416" lon="15.633315336437933"><ele>2.9999999999999996</ele><time>2026-03-27T12:41:23Z</time></trkpt><trkpt lat="38.22093872369076" lon="15.633317895122186"><ele>3.0</ele><time>2026-03-27T12:50:35Z</time></trkpt><trkpt lat="38.221010589468456" lon="15.63330427110624"><ele>3.0</ele><time>2026-03-27T12:50:40Z</time></trkpt><trkpt lat="38.221073871682904" lon="15.633301731127663"><ele>3.0</ele><time>2026-03-27T12:50:51Z</time></trkpt><trkpt lat="38.22114997352433" lon="15.63329563039067"><ele>3.0</ele><time>2026-03-27T12:50:54Z</time></trkpt><trkpt lat="38.221238165892174" lon="15.633285830798483"><ele>2.9999999999999996</ele><time>2026-03-27T12:50:57Z</time></trkpt><trkpt lat="38.22130243217911" lon="15.63327905356457"><ele>3.0</ele><time>2026-03-27T12:50:59Z</time></trkpt><trkpt lat="38.2213742614371" lon="15.633272809712523"><ele>3.3333333333333335</ele><time>2026-03-27T12:51:01Z</time></trkpt><trkpt lat="38.2214974438036" lon="15.63325553273655"><ele>3.666666666666667</ele><time>2026-03-27T12:51:03Z</time></trkpt><trkpt lat="38.22156208588222" lon="15.63324896844186"><ele>4.0</ele><time>2026-03-27T12:51:04Z</time></trkpt><trkpt lat="38.22165539738372" lon="15.633242130386106"><ele>4.333333333333334</ele><time>2026-03-27T12:51:06Z</time></trkpt><trkpt lat="38.22172477833987" lon="15.633207546575413"><ele>4.666666666666667</ele><time>2026-03-27T12:56:46Z</time></trkpt><trkpt lat="38.221797850332" lon="15.633201021762236"><ele>5.0</ele><time>2026-03-27T12:56:51Z</time></trkpt><trkpt lat="38.22187531803909" lon="15.633200586068991"><ele>5.0</ele><time>2026-03-27T12:57:17Z</time></trkpt><trkpt lat="38.221937937489734" lon="15.633191349490888"><ele>5.0</ele><time>2026-03-27T12:57:24Z</time></trkpt><trkpt lat="38.22200488749426" lon="15.633181129555142"><ele>5.0</ele><time>2026-03-27T12:57:46Z</time></trkpt><trkpt lat="38.222076647105865" lon="15.633179504469656"><ele>5.0</ele><time>2026-03-27T12:57:54.999Z</time></trkpt><trkpt lat="38.22214623925612" lon="15.6331768444138"><ele>5.0</ele><time>2026-03-27T12:58:04.999Z</time></trkpt><trkpt lat="38.22221840933757" lon="15.633169207826018"><ele>5.0</ele><time>2026-03-27T12:58:14.999Z</time></trkpt><trkpt lat="38.22228708416758" lon="15.633155908343976"><ele>5.0</ele><time>2026-03-27T12:58:20.999Z</time></trkpt><trkpt lat="38.22234981780946" lon="15.633146512775108"><ele>5.0</ele><time>2026-03-27T12:58:26.999Z</time></trkpt><trkpt lat="38.22242018327063" lon="15.633150511912158"><ele>5.0</ele><time>2026-03-27T12:59:03.999Z</time></trkpt><trkpt lat="38.22248600367199" lon="15.633138362269728"><ele>5.0</ele><time>2026-03-27T12:59:11.999Z</time></trkpt><trkpt lat="38.22254343628346" lon="15.633104622447977"><ele>5.0</ele><time>2026-03-27T12:59:16.999Z</time></trkpt><trkpt lat="38.22259918273192" lon="15.633019792384804"><ele>5.0</ele><time>2026-03-27T12:59:21.999Z</time></trkpt><trkpt lat="38.2226456172096" lon="15.632958331524238"><ele>5.0</ele><time>2026-03-27T12:59:25.999Z</time></trkpt><trkpt lat="38.222708334818684" lon="15.632890949472383"><ele>5.0</ele><time>2026-03-27T12:59:34.999Z</time></trkpt><trkpt lat="38.22276090183766" lon="15.632845324259819"><ele>5.0</ele><time>2026-03-27T12:59:38.999Z</time></trkpt><trkpt lat="38.22281599584779" lon="15.632800599605872"><ele>5.0</ele><time>2026-03-27T12:59:43.999Z</time></trkpt><trkpt lat="38.222759638152894" lon="15.632757427577385"><ele>5.0</ele><time>2026-03-27T12:59:54.999Z</time></trkpt><trkpt lat="38.22270611100909" lon="15.632817934569154"><ele>5.0</ele><time>2026-03-27T12:59:56.999Z</time></trkpt><trkpt lat="38.222630905680056" lon="15.632898155642193"><ele>5.0</ele><time>2026-03-27T12:59:58.999Z</time></trkpt><trkpt lat="38.2225724059828" lon="15.632986357679401"><ele>5.0</ele><time>2026-03-27T13:00:01.999Z</time></trkpt><trkpt lat="38.22250101079415" lon="15.632997461699693"><ele>5.0</ele><time>2026-03-27T13:00:07.999Z</time></trkpt><trkpt lat="38.22244911991128" lon="15.633089028786719"><ele>5.0</ele><time>2026-03-27T13:01:00.999Z</time></trkpt><trkpt lat="38.222428982836554" lon="15.633177203142186"><ele>5.0</ele><time>2026-03-27T13:01:51.999Z</time></trkpt><trkpt lat="38.222377782759644" lon="15.63323439517113"><ele>5.0</ele><time>2026-03-27T13:02:12Z</time></trkpt><trkpt lat="38.22231447221135" lon="15.633237553235396"><ele>5.0</ele><time>2026-03-27T13:03:53.999Z</time></trkpt><trkpt lat="38.22230100086333" lon="15.633151957063532"><ele>5.0</ele><time>2026-03-27T13:04:03Z</time></trkpt><trkpt lat="38.22233268947436" lon="15.633082118767604"><ele>5.0</ele><time>2026-03-27T13:04:06Z</time></trkpt><trkpt lat="38.222394181851755" lon="15.633055604228328"><ele>5.0</ele><time>2026-03-27T13:04:20Z</time></trkpt><trkpt lat="38.22245939097229" lon="15.63301737057155"><ele>5.0</ele><time>2026-03-27T13:04:28Z</time></trkpt><trkpt lat="38.22250593135428" lon="15.63294690834977"><ele>5.0</ele><time>2026-03-27T13:04:37Z</time></trkpt><trkpt lat="38.22260714522668" lon="15.632921434605443"><ele>5.0</ele><time>2026-03-27T13:04:53Z</time></trkpt><trkpt lat="38.222653706788336" lon="15.632837651716265"><ele>5.0</ele><time>2026-03-27T13:05:01Z</time></trkpt><trkpt lat="38.22261870910057" lon="15.632975205687476"><ele>5.0</ele><time>2026-03-27T13:05:07Z</time></trkpt><trkpt lat="38.22255604617365" lon="15.633032376647833"><ele>5.0</ele><time>2026-03-27T13:05:10Z</time></trkpt><trkpt lat="38.222488780360685" lon="15.633026260365737"><ele>5.0</ele><time>2026-03-27T13:05:14Z</time></trkpt><trkpt lat="38.2225222121675" lon="15.632944450947306"><ele>5.0</ele><time>2026-03-27T13:05:27Z</time></trkpt><trkpt lat="38.222569425479975" lon="15.632880827523179"><ele>5.0</ele><time>2026-03-27T13:05:33Z</time></trkpt><trkpt lat="38.22264796065855" lon="15.63283210998319"><ele>5.0</ele><time>2026-03-27T13:05:36.999Z</time></trkpt><trkpt lat="38.222684216842936" lon="15.632917605084526"><ele>5.0</ele><time>2026-03-27T13:05:42.999Z</time></trkpt><trkpt lat="38.2227759310853" lon="15.632834275897052"><ele>4.2</ele><time>2026-03-27T13:05:47.999Z</time></trkpt><trkpt lat="38.222782453024024" lon="15.632737151888113"><ele>3.4</ele><time>2026-03-27T13:05:51.999Z</time></trkpt><trkpt lat="38.22284416782863" lon="15.63261555401119"><ele>2.6</ele><time>2026-03-27T13:05:52.999Z</time></trkpt><trkpt lat="38.22287599029683" lon="15.632537640585994"><ele>1.8</ele><time>2026-03-27T13:06:02.05Z</time></trkpt><trkpt lat="38.22285597246409" lon="15.632427740931732"><ele>1.0</ele><time>2026-03-27T13:06:06.035Z</time></trkpt><trkpt lat="38.22299503650105" lon="15.632164301720408"><ele>0.0</ele><time>2026-03-27T13:06:19.663Z</time></trkpt><trkpt lat="38.22376298898775" lon="15.612285258304306"><ele>0.0</ele><time>2026-03-27T13:11:02.998Z</time></trkpt><trkpt lat="38.22371986606152" lon="15.611928187426873"><ele>0.0</ele><time>2026-03-27T13:11:04.998Z</time></trkpt><trkpt lat="38.22370714203276" lon="15.611842123066916"><ele>0.0</ele><time>2026-03-27T13:11:05.998Z</time></trkpt><trkpt lat="38.22369639925642" lon="15.611757829202958"><ele>0.0</ele><time>2026-03-27T13:11:06.998Z</time></trkpt><trkpt lat="38.22367417357097" lon="15.611604989723816"><ele>0.0</ele><time>2026-03-27T13:11:09.001Z</time></trkpt><trkpt lat="38.223660249319956" lon="15.611446882113134"><ele>0.0</ele><time>2026-03-27T13:11:11.001Z</time></trkpt><trkpt lat="38.223633466862644" lon="15.611302404436387"><ele>0.0</ele><time>2026-03-27T13:11:13.001Z</time></trkpt><trkpt lat="38.22361292711556" lon="15.611153209762158"><ele>0.0</ele><time>2026-03-27T13:11:15.001Z</time></trkpt><trkpt lat="38.223591419405395" lon="15.611002275799606"><ele>0.0</ele><time>2026-03-27T13:11:17.001Z</time></trkpt><trkpt lat="38.2235724991274" lon="15.610848414587032"><ele>0.0</ele><time>2026-03-27T13:11:19.001Z</time></trkpt><trkpt lat="38.22355369340451" lon="15.610698467704962"><ele>0.0</ele><time>2026-03-27T13:11:21Z</time></trkpt><trkpt lat="38.22354265487929" lon="15.610618942289422"><ele>0.0</ele><time>2026-03-27T13:11:22Z</time></trkpt><trkpt lat="38.22352511403497" lon="15.610473206985096"><ele>0.0</ele><time>2026-03-27T13:11:24Z</time></trkpt><trkpt lat="38.2235423462921" lon="15.610338438072974"><ele>0.0</ele><time>2026-03-27T13:11:26Z</time></trkpt><trkpt lat="38.22353726250382" lon="15.61025643959083"><ele>0.0</ele><time>2026-03-27T13:11:27Z</time></trkpt><trkpt lat="38.22351908198585" lon="15.610103764252905"><ele>0.0</ele><time>2026-03-27T13:11:29Z</time></trkpt><trkpt lat="38.22348778160319" lon="15.609969000633331"><ele>0.0</ele><time>2026-03-27T13:11:31Z</time></trkpt><trkpt lat="38.22347177546852" lon="15.609821023563214"><ele>0.0</ele><time>2026-03-27T13:11:33Z</time></trkpt><trkpt lat="38.22345146068638" lon="15.609680373118863"><ele>0.0</ele><time>2026-03-27T13:11:35Z</time></trkpt><trkpt lat="38.223433342444665" lon="15.609545637351992"><ele>0.0</ele><time>2026-03-27T13:11:37Z</time></trkpt><trkpt lat="38.22341909444954" lon="15.609409791915716"><ele>0.0</ele><time>2026-03-27T13:11:39Z</time></trkpt><trkpt lat="38.22340158035485" lon="15.609285222639453"><ele>0.0</ele><time>2026-03-27T13:11:41Z</time></trkpt><trkpt lat="38.223385140067414" lon="15.609170963607667"><ele>0.0</ele><time>2026-03-27T13:11:43Z</time></trkpt><trkpt lat="38.2233645893039" lon="15.609072026925247"><ele>0.0</ele><time>2026-03-27T13:11:46Z</time></trkpt><trkpt lat="38.2233287280206" lon="15.608907153878224"><ele>0.0</ele><time>2026-03-27T13:11:47Z</time></trkpt><trkpt lat="38.223307533437776" lon="15.608755362917051"><ele>0.0</ele><time>2026-03-27T13:11:49Z</time></trkpt><trkpt lat="38.223283290335715" lon="15.60860936365928"><ele>0.0</ele><time>2026-03-27T13:11:51Z</time></trkpt><trkpt lat="38.22325888526644" lon="15.608465056678188"><ele>0.0</ele><time>2026-03-27T13:11:53Z</time></trkpt><trkpt lat="38.223238525009855" lon="15.608316734154531"><ele>0.0</ele><time>2026-03-27T13:11:55Z</time></trkpt><trkpt lat="38.223211323044865" lon="15.608168668285757"><ele>0.0</ele><time>2026-03-27T13:11:57Z</time></trkpt><trkpt lat="38.22318125629963" lon="15.608019728841509"><ele>0.0</ele><time>2026-03-27T13:11:59Z</time></trkpt><trkpt lat="38.22315608275499" lon="15.607871979334206"><ele>0.0</ele><time>2026-03-27T13:12:01Z</time></trkpt><trkpt lat="38.22312964546589" lon="15.607725539258917"><ele>0.0</ele><time>2026-03-27T13:12:03Z</time></trkpt><trkpt lat="38.22312440745021" lon="15.607591252637551"><ele>0.0</ele><time>2026-03-27T13:12:04.999Z</time></trkpt><trkpt lat="38.22309492620393" lon="15.607441316203603"><ele>0.0</ele><time>2026-03-27T13:12:06.999Z</time></trkpt><trkpt lat="38.22306973260727" lon="15.60729642514812"><ele>0.0</ele><time>2026-03-27T13:12:08.999Z</time></trkpt><trkpt lat="38.22304091501468" lon="15.607153187278755"><ele>0.0</ele><time>2026-03-27T13:12:10.999Z</time></trkpt><trkpt lat="38.22301664476097" lon="15.60700266311174"><ele>0.0</ele><time>2026-03-27T13:12:12.999Z</time></trkpt><trkpt lat="38.222987450281856" lon="15.606856984703741"><ele>0.0</ele><time>2026-03-27T13:12:14.999Z</time></trkpt><trkpt lat="38.22296130160201" lon="15.606715173843524"><ele>0.0</ele><time>2026-03-27T13:12:16.999Z</time></trkpt><trkpt lat="38.22293694869298" lon="15.606561212317258"><ele>0.0</ele><time>2026-03-27T13:12:18.999Z</time></trkpt><trkpt lat="38.222904503890646" lon="15.60641647466056"><ele>0.0</ele><time>2026-03-27T13:12:20.999Z</time></trkpt><trkpt lat="38.22287806879428" lon="15.606269614551351"><ele>0.0</ele><time>2026-03-27T13:12:22.999Z</time></trkpt><trkpt lat="38.22284929818863" lon="15.606125964888376"><ele>0.0</ele><time>2026-03-27T13:12:24.999Z</time></trkpt><trkpt lat="38.222820017660545" lon="15.6059808912734"><ele>0.0</ele><time>2026-03-27T13:12:26.999Z</time></trkpt><trkpt lat="38.22279334145835" lon="15.605834826619981"><ele>0.0</ele><time>2026-03-27T13:12:28.999Z</time></trkpt><trkpt lat="38.22276547930981" lon="15.605687308385601"><ele>0.0</ele><time>2026-03-27T13:12:30.999Z</time></trkpt><trkpt lat="38.22273459266084" lon="15.605539771701563"><ele>0.0</ele><time>2026-03-27T13:12:32.999Z</time></trkpt><trkpt lat="38.22270218929697" lon="15.605395676444761"><ele>0.0</ele><time>2026-03-27T13:12:34.999Z</time></trkpt><trkpt lat="38.22267451610199" lon="15.605249493493698"><ele>0.0</ele><time>2026-03-27T13:12:36.999Z</time></trkpt><trkpt lat="38.22265068255638" lon="15.605106058726804"><ele>0.0</ele><time>2026-03-27T13:12:38.999Z</time></trkpt><trkpt lat="38.22263197525128" lon="15.604962409062672"><ele>0.0</ele><time>2026-03-27T13:12:40.999Z</time></trkpt><trkpt lat="38.22260063692095" lon="15.604821150098683"><ele>0.0</ele><time>2026-03-27T13:12:42.999Z</time></trkpt><trkpt lat="38.222574380821136" lon="15.604672953300184"><ele>0.0</ele><time>2026-03-27T13:12:44.999Z</time></trkpt><trkpt lat="38.222551609857426" lon="15.604524833549561"><ele>0.0</ele><time>2026-03-27T13:12:46.999Z</time></trkpt><trkpt lat="38.22252751278285" lon="15.60437713289147"><ele>0.0</ele><time>2026-03-27T13:12:48.999Z</time></trkpt><trkpt lat="38.22249929592275" lon="15.604230671758188"><ele>0.0</ele><time>2026-03-27T13:12:50.999Z</time></trkpt><trkpt lat="38.222469964997316" lon="15.604078829030342"><ele>0.0</ele><time>2026-03-27T13:12:52.999Z</time></trkpt><trkpt lat="38.22245166510539" lon="15.604001923509928"><ele>0.0</ele><time>2026-03-27T13:12:53.999Z</time></trkpt><trkpt lat="38.22243933700032" lon="15.60392331131345"><ele>0.0</ele><time>2026-03-27T13:12:54.999Z</time></trkpt><trkpt lat="38.2224142448898" lon="15.603775528221302"><ele>0.0</ele><time>2026-03-27T13:12:56.999Z</time></trkpt><trkpt lat="38.222390511263654" lon="15.60362753849839"><ele>0.0</ele><time>2026-03-27T13:12:58.999Z</time></trkpt><trkpt lat="38.222366190010554" lon="15.60348025774035"><ele>0.0</ele><time>2026-03-27T13:13:00.999Z</time></trkpt><trkpt lat="38.22234195963104" lon="15.603331934982815"><ele>0.0</ele><time>2026-03-27T13:13:02.999Z</time></trkpt><trkpt lat="38.222317988340784" lon="15.603182504025817"><ele>0.0</ele><time>2026-03-27T13:13:04.999Z</time></trkpt><trkpt lat="38.222296354979854" lon="15.603035137282873"><ele>0.0</ele><time>2026-03-27T13:13:06.999Z</time></trkpt><trkpt lat="38.22227075693034" lon="15.60288862153424"><ele>0.0</ele><time>2026-03-27T13:13:08.999Z</time></trkpt><trkpt lat="38.222246400661646" lon="15.602742354094527"><ele>0.0</ele><time>2026-03-27T13:13:10.999Z</time></trkpt><trkpt lat="38.22222120290388" lon="15.602593287860627"><ele>0.0</ele><time>2026-03-27T13:13:12.999Z</time></trkpt><trkpt lat="38.22220560045425" lon="15.602514416774921"><ele>0.0</ele><time>2026-03-27T13:13:13.999Z</time></trkpt><trkpt lat="38.222193232984225" lon="15.602431939281535"><ele>0.0</ele><time>2026-03-27T13:13:15Z</time></trkpt><trkpt lat="38.22218011614342" lon="15.602352567175826"><ele>0.0</ele><time>2026-03-27T13:13:16Z</time></trkpt><trkpt lat="38.222168293302154" lon="15.60227126812397"><ele>0.0</ele><time>2026-03-27T13:13:17Z</time></trkpt><trkpt lat="38.22214356662962" lon="15.60211122477802"><ele>0.0</ele><time>2026-03-27T13:13:19Z</time></trkpt><trkpt lat="38.222128930419814" lon="15.602027774284762"><ele>0.0</ele><time>2026-03-27T13:13:20Z</time></trkpt><trkpt lat="38.22211487246658" lon="15.601946479960459"><ele>0.0</ele><time>2026-03-27T13:13:21Z</time></trkpt><trkpt lat="38.22209320040034" lon="15.601801235750107"><ele>0.0</ele><time>2026-03-27T13:13:23Z</time></trkpt><trkpt lat="38.22206207409113" lon="15.601658684359881"><ele>0.0</ele><time>2026-03-27T13:13:25Z</time></trkpt><trkpt lat="38.2220350164829" lon="15.601508887172319"><ele>0.0</ele><time>2026-03-27T13:13:27Z</time></trkpt><trkpt lat="38.22200879158397" lon="15.601363463252545"><ele>0.0</ele><time>2026-03-27T13:13:29Z</time></trkpt><trkpt lat="38.22198280093506" lon="15.601215897292299"><ele>0.0</ele><time>2026-03-27T13:13:31Z</time></trkpt><trkpt lat="38.22195542994763" lon="15.601073285552399"><ele>0.0</ele><time>2026-03-27T13:13:33Z</time></trkpt><trkpt lat="38.22192808099465" lon="15.600926929751154"><ele>0.0</ele><time>2026-03-27T13:13:35Z</time></trkpt><trkpt lat="38.22189885778733" lon="15.60077857890301"><ele>0.0</ele><time>2026-03-27T13:13:37Z</time></trkpt><trkpt lat="38.22187350634893" lon="15.600631205483277"><ele>0.0</ele><time>2026-03-27T13:13:39Z</time></trkpt><trkpt lat="38.221847364940245" lon="15.600483087626651"><ele>0.0</ele><time>2026-03-27T13:13:41Z</time></trkpt><trkpt lat="38.221818651650196" lon="15.600336192296622"><ele>0.0</ele><time>2026-03-27T13:13:43Z</time></trkpt><trkpt lat="38.22179334500218" lon="15.60018928391867"><ele>0.0</ele><time>2026-03-27T13:13:45Z</time></trkpt><trkpt lat="38.22176371224517" lon="15.600045124850896"><ele>0.0</ele><time>2026-03-27T13:13:47Z</time></trkpt><trkpt lat="38.22173727754093" lon="15.599895377308156"><ele>0.0</ele><time>2026-03-27T13:13:49Z</time></trkpt><trkpt lat="38.2217109938894" lon="15.599744965661541"><ele>0.0</ele><time>2026-03-27T13:13:51Z</time></trkpt><trkpt lat="38.22168342305164" lon="15.599596930649964"><ele>0.0</ele><time>2026-03-27T13:13:53Z</time></trkpt><trkpt lat="38.221655705918366" lon="15.599453955143446"><ele>0.0</ele><time>2026-03-27T13:13:55Z</time></trkpt><trkpt lat="38.221628101098865" lon="15.599303737507336"><ele>0.0</ele><time>2026-03-27T13:13:57Z</time></trkpt><trkpt lat="38.22160065372652" lon="15.599154093634459"><ele>0.0</ele><time>2026-03-27T13:13:59Z</time></trkpt><trkpt lat="38.2215735599343" lon="15.599006142798222"><ele>0.0</ele><time>2026-03-27T13:14:00.999Z</time></trkpt><trkpt lat="38.22154592895971" lon="15.598858457239325"><ele>0.0</ele><time>2026-03-27T13:14:02.999Z</time></trkpt><trkpt lat="38.22151783695087" lon="15.598709364514647"><ele>0.0</ele><time>2026-03-27T13:14:04.999Z</time></trkpt><trkpt lat="38.22149042788464" lon="15.598560896986449"><ele>0.0</ele><time>2026-03-27T13:14:06.999Z</time></trkpt><trkpt lat="38.22145930028757" lon="15.598414219724582"><ele>0.0</ele><time>2026-03-27T13:14:08.999Z</time></trkpt><trkpt lat="38.22142820159505" lon="15.598268743265285"><ele>0.0</ele><time>2026-03-27T13:14:10.999Z</time></trkpt><trkpt lat="38.22139762175532" lon="15.598121718317449"><ele>0.0</ele><time>2026-03-27T13:14:12.999Z</time></trkpt><trkpt lat="38.221369117183315" lon="15.597975931326333"><ele>0.0</ele><time>2026-03-27T13:14:14.999Z</time></trkpt><trkpt lat="38.22133691134151" lon="15.597832637690692"><ele>0.0</ele><time>2026-03-27T13:14:16.999Z</time></trkpt><trkpt lat="38.22130674046824" lon="15.597688520072923"><ele>0.0</ele><time>2026-03-27T13:14:18.999Z</time></trkpt><trkpt lat="38.22127240233413" lon="15.59753985536199"><ele>0.0</ele><time>2026-03-27T13:14:20.999Z</time></trkpt><trkpt lat="38.22124071786074" lon="15.597397051905014"><ele>0.0</ele><time>2026-03-27T13:14:22.999Z</time></trkpt><trkpt lat="38.2212079817641" lon="15.597246931141642"><ele>0.0</ele><time>2026-03-27T13:14:24.999Z</time></trkpt><trkpt lat="38.22117353603255" lon="15.597101913869464"><ele>0.0</ele><time>2026-03-27T13:14:26.999Z</time></trkpt><trkpt lat="38.221139617578835" lon="15.596954182371851"><ele>0.0</ele><time>2026-03-27T13:14:28.999Z</time></trkpt><trkpt lat="38.22110578332032" lon="15.59680846381948"><ele>0.0</ele><time>2026-03-27T13:14:30.999Z</time></trkpt><trkpt lat="38.22107237445204" lon="15.596663430264297"><ele>0.0</ele><time>2026-03-27T13:14:32.999Z</time></trkpt><trkpt lat="38.22103855761344" lon="15.59651792215538"><ele>0.0</ele><time>2026-03-27T13:14:34.999Z</time></trkpt><trkpt lat="38.22100569824632" lon="15.596373034626227"><ele>0.0</ele><time>2026-03-27T13:14:36.999Z</time></trkpt><trkpt lat="38.22097132773624" lon="15.596228010258413"><ele>0.0</ele><time>2026-03-27T13:14:38.999Z</time></trkpt><trkpt lat="38.22093920156999" lon="15.596079999400002"><ele>0.0</ele><time>2026-03-27T13:14:40.999Z</time></trkpt><trkpt lat="38.22090872791805" lon="15.59593675514408"><ele>0.0</ele><time>2026-03-27T13:14:42.999Z</time></trkpt><trkpt lat="38.22087895476332" lon="15.59579110579286"><ele>0.0</ele><time>2026-03-27T13:14:44.999Z</time></trkpt><trkpt lat="38.220849392589436" lon="15.59565152757872"><ele>0.0</ele><time>2026-03-27T13:14:46.999Z</time></trkpt><trkpt lat="38.2208205320139" lon="15.59550422392921"><ele>0.0</ele><time>2026-03-27T13:14:48.999Z</time></trkpt><trkpt lat="38.22078997045916" lon="15.595359711480398"><ele>0.0</ele><time>2026-03-27T13:14:50.999Z</time></trkpt><trkpt lat="38.22076515523432" lon="15.595216348652023"><ele>0.0</ele><time>2026-03-27T13:14:52.999Z</time></trkpt><trkpt lat="38.220735938501406" lon="15.595065431932905"><ele>0.0</ele><time>2026-03-27T13:14:54.999Z</time></trkpt><trkpt lat="38.220706462764106" lon="15.5949175129916"><ele>0.0</ele><time>2026-03-27T13:14:56.999Z</time></trkpt><trkpt lat="38.22067911769869" lon="15.594774072132067"><ele>0.0</ele><time>2026-03-27T13:14:58.999Z</time></trkpt><trkpt lat="38.2206500943666" lon="15.594632478127787"><ele>0.0</ele><time>2026-03-27T13:15:00.999Z</time></trkpt><trkpt lat="38.22062481317972" lon="15.594486607102375"><ele>0.0</ele><time>2026-03-27T13:15:02.999Z</time></trkpt><trkpt lat="38.22059629856129" lon="15.594343949027335"><ele>0.0</ele><time>2026-03-27T13:15:04.999Z</time></trkpt><trkpt lat="38.220569601876065" lon="15.594200629370158"><ele>0.0</ele><time>2026-03-27T13:15:06.999Z</time></trkpt><trkpt lat="38.22054240729551" lon="15.59405588896964"><ele>0.0</ele><time>2026-03-27T13:15:08.999Z</time></trkpt><trkpt lat="38.220514613758844" lon="15.593911371957427"><ele>0.0</ele><time>2026-03-27T13:15:10.999Z</time></trkpt><trkpt lat="38.22048692147024" lon="15.593767123579703"><ele>0.0</ele><time>2026-03-27T13:15:12.999Z</time></trkpt><trkpt lat="38.220460510268694" lon="15.59362296612179"><ele>0.0</ele><time>2026-03-27T13:15:14.999Z</time></trkpt><trkpt lat="38.22043483088334" lon="15.593477874386878"><ele>0.0</ele><time>2026-03-27T13:15:16.999Z</time></trkpt><trkpt lat="38.220407237770296" lon="15.593330531790288"><ele>0.0</ele><time>2026-03-27T13:15:18.999Z</time></trkpt><trkpt lat="38.22037867273027" lon="15.593185005125669"><ele>0.0</ele><time>2026-03-27T13:15:21Z</time></trkpt><trkpt lat="38.2203523592453" lon="15.593038208971087"><ele>0.0</ele><time>2026-03-27T13:15:23Z</time></trkpt><trkpt lat="38.22032513317703" lon="15.592891596002664"><ele>0.0</ele><time>2026-03-27T13:15:25Z</time></trkpt><trkpt lat="38.220297921873254" lon="15.592745863527993"><ele>0.0</ele><time>2026-03-27T13:15:27Z</time></trkpt><trkpt lat="38.22026903519504" lon="15.592601454198753"><ele>0.0</ele><time>2026-03-27T13:15:29Z</time></trkpt><trkpt lat="38.22024360913098" lon="15.592457029291518"><ele>0.0</ele><time>2026-03-27T13:15:31Z</time></trkpt><trkpt lat="38.22021841704444" lon="15.59230928991937"><ele>0.0</ele><time>2026-03-27T13:15:33Z</time></trkpt><trkpt lat="38.220190907120354" lon="15.592162764944211"><ele>0.0</ele><time>2026-03-27T13:15:35Z</time></trkpt><trkpt lat="38.22016318484555" lon="15.592017818520807"><ele>0.0</ele><time>2026-03-27T13:15:37Z</time></trkpt><trkpt lat="38.22013558719443" lon="15.591872300212303"><ele>0.0</ele><time>2026-03-27T13:15:39Z</time></trkpt><trkpt lat="38.2201073599385" lon="15.591726199045397"><ele>0.0</ele><time>2026-03-27T13:15:41Z</time></trkpt><trkpt lat="38.220079517362805" lon="15.591581326638515"><ele>0.0</ele><time>2026-03-27T13:15:43Z</time></trkpt><trkpt lat="38.22005161374347" lon="15.591436378444763"><ele>0.0</ele><time>2026-03-27T13:15:45Z</time></trkpt><trkpt lat="38.2200229060071" lon="15.59129258822114"><ele>0.0</ele><time>2026-03-27T13:15:47Z</time></trkpt><trkpt lat="38.219997000599" lon="15.591145372814234"><ele>0.0</ele><time>2026-03-27T13:15:49Z</time></trkpt><trkpt lat="38.21996884690042" lon="15.590999518532039"><ele>0.0</ele><time>2026-03-27T13:15:51Z</time></trkpt><trkpt lat="38.219940780435124" lon="15.590853007009263"><ele>0.0</ele><time>2026-03-27T13:15:53Z</time></trkpt><trkpt lat="38.219911986622066" lon="15.590704833817352"><ele>0.0</ele><time>2026-03-27T13:15:55Z</time></trkpt><trkpt lat="38.21988353794042" lon="15.59055743207758"><ele>0.0</ele><time>2026-03-27T13:15:57Z</time></trkpt><trkpt lat="38.21985676162574" lon="15.590411135302514"><ele>0.0</ele><time>2026-03-27T13:15:59Z</time></trkpt><trkpt lat="38.2198279425082" lon="15.590263291233711"><ele>0.0</ele><time>2026-03-27T13:16:01Z</time></trkpt><trkpt lat="38.21979880315176" lon="15.590116557474891"><ele>0.0</ele><time>2026-03-27T13:16:03Z</time></trkpt><trkpt lat="38.21977147092866" lon="15.589968185361691"><ele>0.0</ele><time>2026-03-27T13:16:05Z</time></trkpt><trkpt lat="38.219745803017766" lon="15.589821963922033"><ele>0.0</ele><time>2026-03-27T13:16:07Z</time></trkpt><trkpt lat="38.219710882090354" lon="15.589676019068031"><ele>0.0</ele><time>2026-03-27T13:16:09Z</time></trkpt><trkpt lat="38.21968016278207" lon="15.589529918554998"><ele>0.0</ele><time>2026-03-27T13:16:11Z</time></trkpt><trkpt lat="38.21966154691686" lon="15.589386654379348"><ele>0.0</ele><time>2026-03-27T13:16:13Z</time></trkpt><trkpt lat="38.219639639789925" lon="15.589306995654919"><ele>0.0</ele><time>2026-03-27T13:16:14Z</time></trkpt><trkpt lat="38.219604739280456" lon="15.589156595243429"><ele>0.0</ele><time>2026-03-27T13:16:16Z</time></trkpt><trkpt lat="38.219577226013186" lon="15.589011306649404"><ele>0.0</ele><time>2026-03-27T13:16:18Z</time></trkpt><trkpt lat="38.21953965988194" lon="15.588864802774998"><ele>0.0</ele><time>2026-03-27T13:16:19.999Z</time></trkpt><trkpt lat="38.21950857777855" lon="15.588719126404815"><ele>0.0</ele><time>2026-03-27T13:16:21.999Z</time></trkpt><trkpt lat="38.2194747923301" lon="15.588574054375078"><ele>0.0</ele><time>2026-03-27T13:16:23.999Z</time></trkpt><trkpt lat="38.219440839511705" lon="15.588427635083972"><ele>0.0</ele><time>2026-03-27T13:16:25.999Z</time></trkpt><trkpt lat="38.219405256114506" lon="15.588281939552894"><ele>0.0</ele><time>2026-03-27T13:16:27.999Z</time></trkpt><trkpt lat="38.219371857347866" lon="15.58813376580958"><ele>0.0</ele><time>2026-03-27T13:16:29.999Z</time></trkpt><trkpt lat="38.21934005670947" lon="15.587986959716474"><ele>0.0</ele><time>2026-03-27T13:16:31.999Z</time></trkpt><trkpt lat="38.219302868325364" lon="15.587841019390105"><ele>0.0</ele><time>2026-03-27T13:16:33.999Z</time></trkpt><trkpt lat="38.219267613241236" lon="15.587696490074762"><ele>0.0</ele><time>2026-03-27T13:16:35.999Z</time></trkpt><trkpt lat="38.219232981845245" lon="15.58755580525687"><ele>0.0</ele><time>2026-03-27T13:16:37.999Z</time></trkpt><trkpt lat="38.21919782500889" lon="15.587409370382224"><ele>0.0</ele><time>2026-03-27T13:16:39.999Z</time></trkpt><trkpt lat="38.21916069838472" lon="15.587264950525508"><ele>0.0</ele><time>2026-03-27T13:16:41.999Z</time></trkpt><trkpt lat="38.219122475586985" lon="15.587122205920386"><ele>0.0</ele><time>2026-03-27T13:16:43.999Z</time></trkpt><trkpt lat="38.219083103073146" lon="15.58697883099356"><ele>0.0</ele><time>2026-03-27T13:16:45.999Z</time></trkpt><trkpt lat="38.2190460817484" lon="15.58683538439615"><ele>0.0</ele><time>2026-03-27T13:16:47.999Z</time></trkpt><trkpt lat="38.21900882410055" lon="15.586690700343377"><ele>0.0</ele><time>2026-03-27T13:16:49.999Z</time></trkpt><trkpt lat="38.218969616423735" lon="15.586546815824645"><ele>0.0</ele><time>2026-03-27T13:16:51.999Z</time></trkpt><trkpt lat="38.218928938892816" lon="15.586403392906513"><ele>0.0</ele><time>2026-03-27T13:16:53.999Z</time></trkpt><trkpt lat="38.21889020291894" lon="15.586260083175288"><ele>0.0</ele><time>2026-03-27T13:16:55.999Z</time></trkpt><trkpt lat="38.21885179416575" lon="15.586116198117043"><ele>0.0</ele><time>2026-03-27T13:16:57.999Z</time></trkpt><trkpt lat="38.218812822515666" lon="15.585972618743892"><ele>0.0</ele><time>2026-03-27T13:16:59.999Z</time></trkpt><trkpt lat="38.218773137393335" lon="15.58582723872157"><ele>0.0</ele><time>2026-03-27T13:17:01.999Z</time></trkpt><trkpt lat="38.218738288062916" lon="15.585687270832864"><ele>0.0</ele><time>2026-03-27T13:17:03.999Z</time></trkpt><trkpt lat="38.21869733321963" lon="15.585541588600405"><ele>0.0</ele><time>2026-03-27T13:17:05.999Z</time></trkpt><trkpt lat="38.218657674370704" lon="15.585399509892342"><ele>0.0</ele><time>2026-03-27T13:17:07.999Z</time></trkpt><trkpt lat="38.21861840830167" lon="15.585255933955377"><ele>0.0</ele><time>2026-03-27T13:17:09.999Z</time></trkpt><trkpt lat="38.218580652171944" lon="15.585112527362197"><ele>0.0</ele><time>2026-03-27T13:17:11.999Z</time></trkpt><trkpt lat="38.21854226908867" lon="15.584969551989689"><ele>0.0</ele><time>2026-03-27T13:17:13.999Z</time></trkpt><trkpt lat="38.21850349223415" lon="15.584826562377698"><ele>0.0</ele><time>2026-03-27T13:17:15.999Z</time></trkpt><trkpt lat="38.21846652645787" lon="15.584684606728219"><ele>0.0</ele><time>2026-03-27T13:17:17.999Z</time></trkpt><trkpt lat="38.21843016406659" lon="15.584540183086744"><ele>0.0</ele><time>2026-03-27T13:17:19.999Z</time></trkpt><trkpt lat="38.21839100155133" lon="15.584398989095055"><ele>0.0</ele><time>2026-03-27T13:17:21.999Z</time></trkpt><trkpt lat="38.218352912986724" lon="15.584255758854855"><ele>0.0</ele><time>2026-03-27T13:17:23.999Z</time></trkpt><trkpt lat="38.2183168162434" lon="15.584109996960423"><ele>0.0</ele><time>2026-03-27T13:17:26Z</time></trkpt><trkpt lat="38.21828038406724" lon="15.583964794348185"><ele>0.0</ele><time>2026-03-27T13:17:28Z</time></trkpt><trkpt lat="38.2182418138818" lon="15.583820205938569"><ele>0.0</ele><time>2026-03-27T13:17:30Z</time></trkpt><trkpt lat="38.218205034055856" lon="15.583675521581185"><ele>0.0</ele><time>2026-03-27T13:17:32Z</time></trkpt><trkpt lat="38.218174129126965" lon="15.583519240908636"><ele>0.0</ele><time>2026-03-27T13:17:34Z</time></trkpt><trkpt lat="38.21813498939194" lon="15.58336810836246"><ele>0.0</ele><time>2026-03-27T13:17:36Z</time></trkpt><trkpt lat="38.218117805039896" lon="15.583290593421319"><ele>0.0</ele><time>2026-03-27T13:17:37Z</time></trkpt><trkpt lat="38.21808173471794" lon="15.583143476109678"><ele>0.0</ele><time>2026-03-27T13:17:39Z</time></trkpt><trkpt lat="38.21804633979858" lon="15.58299371842553"><ele>0.0</ele><time>2026-03-27T13:17:41Z</time></trkpt><trkpt lat="38.218026694844276" lon="15.582917483376354"><ele>0.0</ele><time>2026-03-27T13:17:42Z</time></trkpt><trkpt lat="38.2180061185038" lon="15.582837108127725"><ele>0.0</ele><time>2026-03-27T13:17:43Z</time></trkpt><trkpt lat="38.2179686209279" lon="15.582680943044796"><ele>0.0</ele><time>2026-03-27T13:17:45Z</time></trkpt><trkpt lat="38.21792049580197" lon="15.582529876456457"><ele>0.0</ele><time>2026-03-27T13:17:47Z</time></trkpt><trkpt lat="38.21786990390699" lon="15.582404046492186"><ele>0.0</ele><time>2026-03-27T13:17:49Z</time></trkpt><trkpt lat="38.217821226889775" lon="15.582273994673214"><ele>0.0</ele><time>2026-03-27T13:17:51Z</time></trkpt><trkpt lat="38.21777122385611" lon="15.582130927481625"><ele>0.0</ele><time>2026-03-27T13:17:53Z</time></trkpt><trkpt lat="38.21772289664215" lon="15.581981173052238"><ele>0.0</ele><time>2026-03-27T13:17:55Z</time></trkpt><trkpt lat="38.21766933707637" lon="15.581843362675414"><ele>0.0</ele><time>2026-03-27T13:17:57Z</time></trkpt><trkpt lat="38.21764305840405" lon="15.581754692807507"><ele>0.0</ele><time>2026-03-27T13:17:58Z</time></trkpt><trkpt lat="38.21761789399878" lon="15.581617892297157"><ele>0.0</ele><time>2026-03-27T13:18:00Z</time></trkpt><trkpt lat="38.21758194350463" lon="15.581490236986605"><ele>0.0</ele><time>2026-03-27T13:18:02Z</time></trkpt><trkpt lat="38.21756527600632" lon="15.5813510622049"><ele>0.0</ele><time>2026-03-27T13:18:04Z</time></trkpt><trkpt lat="38.21753020307939" lon="15.581271571339235"><ele>0.0</ele><time>2026-03-27T13:18:05Z</time></trkpt><trkpt lat="38.21756464779645" lon="15.581194040244918"><ele>0.0</ele><time>2026-03-27T13:18:11Z</time></trkpt><trkpt lat="38.217435814214035" lon="15.581084254220661"><ele>0.0</ele><time>2026-03-27T13:18:17Z</time></trkpt><trkpt lat="38.21749883026525" lon="15.581015293511557"><ele>0.0</ele><time>2026-03-27T13:18:18Z</time></trkpt><trkpt lat="38.21750943033162" lon="15.58093283990976"><ele>0.0</ele><time>2026-03-27T13:18:21Z</time></trkpt><trkpt lat="38.21726133625748" lon="15.58047049006529"><ele>0.0</ele><time>2026-03-27T13:18:23Z</time></trkpt><trkpt lat="38.21744187766581" lon="15.580419626649642"><ele>0.0</ele><time>2026-03-27T13:18:24Z</time></trkpt><trkpt lat="38.21751699543155" lon="15.5806274414208"><ele>0.0</ele><time>2026-03-27T13:18:25.072Z</time></trkpt><trkpt lat="38.210297352016894" lon="15.561198233277981"><ele>3.0</ele><time>2026-03-27T13:25:59.129Z</time></trkpt><trkpt lat="38.21050114354682" lon="15.561596700249202"><ele>6.0</ele><time>2026-03-27T13:27:41.995Z</time></trkpt><trkpt lat="38.21042328149956" lon="15.561296485389873"><ele>6.0</ele><time>2026-03-27T13:27:42.995Z</time></trkpt><trkpt lat="38.21034121626969" lon="15.561249844467323"><ele>6.0</ele><time>2026-03-27T13:27:45.995Z</time></trkpt><trkpt lat="38.21030341564062" lon="15.561154804304293"><ele>6.0</ele><time>2026-03-27T13:27:49.002Z</time></trkpt><trkpt lat="38.21026557153288" lon="15.561084405101633"><ele>6.0</ele><time>2026-03-27T13:27:52.002Z</time></trkpt><trkpt lat="38.2103521332261" lon="15.56112273857538"><ele>6.0</ele><time>2026-03-27T13:27:59.001Z</time></trkpt><trkpt lat="38.21022622495382" lon="15.56078232913749"><ele>6.6</ele><time>2026-03-27T13:28:06.001Z</time></trkpt><trkpt lat="38.21017520212102" lon="15.560734154406274"><ele>7.199999999999999</ele><time>2026-03-27T13:28:08Z</time></trkpt><trkpt lat="38.210061971065294" lon="15.56070701077519"><ele>7.800000000000001</ele><time>2026-03-27T13:28:10Z</time></trkpt><trkpt lat="38.20997364018385" lon="15.560700107139253"><ele>8.4</ele><time>2026-03-27T13:28:12Z</time></trkpt><trkpt lat="38.209873771586686" lon="15.560702878792883"><ele>9.0</ele><time>2026-03-27T13:28:14Z</time></trkpt><trkpt lat="38.209780188121094" lon="15.560716699797215"><ele>9.000000000000002</ele><time>2026-03-27T13:28:16Z</time></trkpt><trkpt lat="38.209700075710096" lon="15.56073220389094"><ele>9.0</ele><time>2026-03-27T13:28:18Z</time></trkpt><trkpt lat="38.20964046924139" lon="15.560761986450636"><ele>9.0</ele><time>2026-03-27T13:28:20Z</time></trkpt><trkpt lat="38.20958200243052" lon="15.560793985142798"><ele>9.0</ele><time>2026-03-27T13:28:22Z</time></trkpt><trkpt lat="38.2095799401448" lon="15.560883961235023"><ele>9.0</ele><time>2026-03-27T13:28:26Z</time></trkpt><trkpt lat="38.209586954071405" lon="15.560968202608576"><ele>9.000000000000002</ele><time>2026-03-27T13:28:31Z</time></trkpt><trkpt lat="38.20960224998815" lon="15.561055793290578"><ele>9.0</ele><time>2026-03-27T13:28:40.999Z</time></trkpt><trkpt lat="38.20954078517823" lon="15.561119295615773"><ele>9.0</ele><time>2026-03-27T13:29:04.999Z</time></trkpt><trkpt lat="38.20944672023604" lon="15.561138754099387"><ele>9.0</ele><time>2026-03-27T13:29:07.999Z</time></trkpt><trkpt lat="38.20937996706955" lon="15.56115223951399"><ele>9.0</ele><time>2026-03-27T13:29:09.999Z</time></trkpt><trkpt lat="38.20930327588783" lon="15.561172465460704"><ele>9.0</ele><time>2026-03-27T13:29:12.999Z</time></trkpt><trkpt lat="38.20921762197742" lon="15.561194118032786"><ele>9.0</ele><time>2026-03-27T13:29:15.999Z</time></trkpt><trkpt lat="38.20913647676616" lon="15.561212243866311"><ele>9.0</ele><time>2026-03-27T13:29:17.999Z</time></trkpt><trkpt lat="38.20904351511711" lon="15.561227412893134"><ele>8.666666666666666</ele><time>2026-03-27T13:29:19.999Z</time></trkpt><trkpt lat="38.208960349239184" lon="15.561249809028228"><ele>8.333333333333334</ele><time>2026-03-27T13:29:21.999Z</time></trkpt><trkpt lat="38.20887327007726" lon="15.561270385175437"><ele>8.0</ele><time>2026-03-27T13:29:23.999Z</time></trkpt><trkpt lat="38.208790622242404" lon="15.56129718580484"><ele>7.666666666666667</ele><time>2026-03-27T13:29:25.999Z</time></trkpt><trkpt lat="38.20870571504315" lon="15.561318711420197"><ele>7.333333333333334</ele><time>2026-03-27T13:29:27.999Z</time></trkpt><trkpt lat="38.20860463903563" lon="15.561347297691265"><ele>7.0</ele><time>2026-03-27T13:29:29.999Z</time></trkpt><trkpt lat="38.208512672967835" lon="15.561368884665516"><ele>7.000000000000001</ele><time>2026-03-27T13:29:31.999Z</time></trkpt><trkpt lat="38.20843701591561" lon="15.561384905802509"><ele>7.0</ele><time>2026-03-27T13:29:33.999Z</time></trkpt><trkpt lat="38.208372463065636" lon="15.561396932010002"><ele>7.0</ele><time>2026-03-27T13:29:35.999Z</time></trkpt><trkpt lat="38.208285766426144" lon="15.56142055040784"><ele>7.0</ele><time>2026-03-27T13:29:38.999Z</time></trkpt><trkpt lat="38.208207478921686" lon="15.561441246940173"><ele>7.000000000000001</ele><time>2026-03-27T13:29:40.999Z</time></trkpt><trkpt lat="38.20813497816706" lon="15.561453740656882"><ele>7.0</ele><time>2026-03-27T13:29:42.999Z</time></trkpt><trkpt lat="38.208065276962365" lon="15.561468138317974"><ele>7.333333333333334</ele><time>2026-03-27T13:29:44.999Z</time></trkpt><trkpt lat="38.20799272360741" lon="15.561489164797644"><ele>7.666666666666667</ele><time>2026-03-27T13:29:46.998Z</time></trkpt><trkpt lat="38.207909036118195" lon="15.561514887591912"><ele>8.0</ele><time>2026-03-27T13:29:48.998Z</time></trkpt><trkpt lat="38.20784185103224" lon="15.561535564971944"><ele>8.333333333333334</ele><time>2026-03-27T13:29:50.998Z</time></trkpt><trkpt lat="38.20776635195291" lon="15.561556059811437"><ele>8.666666666666666</ele><time>2026-03-27T13:29:53Z</time></trkpt><trkpt lat="38.20768663779233" lon="15.561577871310538"><ele>9.0</ele><time>2026-03-27T13:29:55Z</time></trkpt><trkpt lat="38.20760147411662" lon="15.561599416422425"><ele>9.0</ele><time>2026-03-27T13:29:57Z</time></trkpt><trkpt lat="38.2074959589244" lon="15.561627252336695"><ele>9.0</ele><time>2026-03-27T13:29:59Z</time></trkpt><trkpt lat="38.20742907392795" lon="15.561649935739478"><ele>9.0</ele><time>2026-03-27T13:30:00Z</time></trkpt><trkpt lat="38.20736365879576" lon="15.561667803237203"><ele>9.0</ele><time>2026-03-27T13:30:01Z</time></trkpt><trkpt lat="38.207293151527395" lon="15.561699509633234"><ele>9.0</ele><time>2026-03-27T13:30:02Z</time></trkpt><trkpt lat="38.20723612656541" lon="15.561737693343577"><ele>9.0</ele><time>2026-03-27T13:30:03Z</time></trkpt><trkpt lat="38.207187107531134" lon="15.561797525292656"><ele>8.833333333333334</ele><time>2026-03-27T13:30:04Z</time></trkpt><trkpt lat="38.20713829540541" lon="15.561862376294915"><ele>8.666666666666666</ele><time>2026-03-27T13:30:05Z</time></trkpt><trkpt lat="38.20708884274503" lon="15.561924916249763"><ele>8.5</ele><time>2026-03-27T13:30:06Z</time></trkpt><trkpt lat="38.207035979868095" lon="15.561974988248004"><ele>8.333333333333332</ele><time>2026-03-27T13:30:07Z</time></trkpt><trkpt lat="38.20692813105074" lon="15.562043322407314"><ele>8.166666666666666</ele><time>2026-03-27T13:30:09Z</time></trkpt><trkpt lat="38.20681903615221" lon="15.562073424410704"><ele>8.0</ele><time>2026-03-27T13:30:11Z</time></trkpt><trkpt lat="38.20672740764694" lon="15.562105754082056"><ele>7.833333333333333</ele><time>2026-03-27T13:30:13Z</time></trkpt><trkpt lat="38.206666075075695" lon="15.562134087176242"><ele>7.666666666666666</ele><time>2026-03-27T13:30:15Z</time></trkpt><trkpt lat="38.20659337399715" lon="15.562160488532605"><ele>7.5</ele><time>2026-03-27T13:30:26.999Z</time></trkpt><trkpt lat="38.20651613454069" lon="15.562181809699679"><ele>7.333333333333334</ele><time>2026-03-27T13:30:28.999Z</time></trkpt><trkpt lat="38.20642745603162" lon="15.562189994529882"><ele>7.166666666666667</ele><time>2026-03-27T13:30:30.999Z</time></trkpt><trkpt lat="38.206323881075036" lon="15.56217389891719"><ele>7.0</ele><time>2026-03-27T13:30:32.999Z</time></trkpt><trkpt lat="38.206224343807484" lon="15.562157335855597"><ele>7.000000000000001</ele><time>2026-03-27T13:30:34.999Z</time></trkpt><trkpt lat="38.20614067650323" lon="15.56214454846231"><ele>7.0</ele><time>2026-03-27T13:30:36.999Z</time></trkpt><trkpt lat="38.206050244699995" lon="15.56212877161944"><ele>7.0</ele><time>2026-03-27T13:30:38.999Z</time></trkpt><trkpt lat="38.2059621863768" lon="15.562112771940503"><ele>7.0</ele><time>2026-03-27T13:30:40.999Z</time></trkpt><trkpt lat="38.20589123303287" lon="15.56209064310367"><ele>7.000000000000001</ele><time>2026-03-27T13:30:42.999Z</time></trkpt><trkpt lat="38.20582598610477" lon="15.562048697077415"><ele>7.0</ele><time>2026-03-27T13:30:44.999Z</time></trkpt><trkpt lat="38.205816297262785" lon="15.561922233530709"><ele>7.3999999999999995</ele><time>2026-03-27T13:30:46.999Z</time></trkpt><trkpt lat="38.20583855756617" lon="15.561816165571917"><ele>7.799999999999999</ele><time>2026-03-27T13:30:48.999Z</time></trkpt><trkpt lat="38.205868530110514" lon="15.561690008387682"><ele>8.2</ele><time>2026-03-27T13:30:50.999Z</time></trkpt><trkpt lat="38.20590520222154" lon="15.561552331828494"><ele>8.6</ele><time>2026-03-27T13:30:52.999Z</time></trkpt><trkpt lat="38.2059564193816" lon="15.561437064419177"><ele>9.0</ele><time>2026-03-27T13:30:54.999Z</time></trkpt><trkpt lat="38.20598947824521" lon="15.561305114290647"><ele>10.166666666666666</ele><time>2026-03-27T13:30:56.999Z</time></trkpt><trkpt lat="38.20602495391774" lon="15.561158957001679"><ele>11.333333333333332</ele><time>2026-03-27T13:30:58.999Z</time></trkpt><trkpt lat="38.20604345296323" lon="15.561076994563445"><ele>12.5</ele><time>2026-03-27T13:30:59.999Z</time></trkpt><trkpt lat="38.206060114088" lon="15.560995699222799"><ele>13.666666666666666</ele><time>2026-03-27T13:31:00.999Z</time></trkpt><trkpt lat="38.206075114131735" lon="15.56091777973863"><ele>14.833333333333332</ele><time>2026-03-27T13:31:01.999Z</time></trkpt><trkpt lat="38.20609079953837" lon="15.56083502515465"><ele>16.0</ele><time>2026-03-27T13:31:02.999Z</time></trkpt><trkpt lat="38.206108203336946" lon="15.560745473693338"><ele>15.999999999999998</ele><time>2026-03-27T13:31:03.999Z</time></trkpt><trkpt lat="38.20612618600852" lon="15.560650766347901"><ele>16.0</ele><time>2026-03-27T13:31:04.999Z</time></trkpt><trkpt lat="38.20614533361637" lon="15.56055889723354"><ele>16.0</ele><time>2026-03-27T13:31:05.999Z</time></trkpt><trkpt lat="38.20616490434098" lon="15.56047806426523"><ele>16.0</ele><time>2026-03-27T13:31:06.999Z</time></trkpt><trkpt lat="38.20620264106028" lon="15.5603317530448"><ele>15.999999999999998</ele><time>2026-03-27T13:31:08.999Z</time></trkpt><trkpt lat="38.20623198119283" lon="15.560212326712888"><ele>16.0</ele><time>2026-03-27T13:31:10.999Z</time></trkpt><trkpt lat="38.206264513995" lon="15.56008379991211"><ele>17.166666666666664</ele><time>2026-03-27T13:31:12.999Z</time></trkpt><trkpt lat="38.206285561245444" lon="15.560004721734682"><ele>18.333333333333332</ele><time>2026-03-27T13:31:13.999Z</time></trkpt><trkpt lat="38.20631157160594" lon="15.559919391537559"><ele>19.5</ele><time>2026-03-27T13:31:14.999Z</time></trkpt><trkpt lat="38.2063376412132" lon="15.559824015685919"><ele>20.666666666666668</ele><time>2026-03-27T13:31:15.999Z</time></trkpt><trkpt lat="38.206360443928816" lon="15.559723213857229"><ele>21.833333333333336</ele><time>2026-03-27T13:31:16.999Z</time></trkpt><trkpt lat="38.206382172855946" lon="15.559619342603272"><ele>23.0</ele><time>2026-03-27T13:31:17.999Z</time></trkpt><trkpt lat="38.206397354659764" lon="15.559528546391649"><ele>22.714285714285715</ele><time>2026-03-27T13:31:18.999Z</time></trkpt><trkpt lat="38.20641158488234" lon="15.5594493801151"><ele>22.428571428571427</ele><time>2026-03-27T13:31:19.999Z</time></trkpt><trkpt lat="38.20644750407182" lon="15.55932408678467"><ele>22.142857142857142</ele><time>2026-03-27T13:31:21.999Z</time></trkpt><trkpt lat="38.206474652431574" lon="15.559250395556392"><ele>21.857142857142858</ele><time>2026-03-27T13:31:23.999Z</time></trkpt><trkpt lat="38.2065008149617" lon="15.559166672068995"><ele>21.57142857142857</ele><time>2026-03-27T13:31:26.999Z</time></trkpt><trkpt lat="38.20650084824771" lon="15.559078887517673"><ele>21.285714285714285</ele><time>2026-03-27T13:32:05.999Z</time></trkpt><trkpt lat="38.20652219547624" lon="15.558993026286625"><ele>21.0</ele><time>2026-03-27T13:32:07.999Z</time></trkpt><trkpt lat="38.206542904110734" lon="15.558894958183238"><ele>21.0</ele><time>2026-03-27T13:32:10.999Z</time></trkpt><trkpt lat="38.206564304127205" lon="15.55880349294171"><ele>21.0</ele><time>2026-03-27T13:32:12.999Z</time></trkpt><trkpt lat="38.20659883649013" lon="15.558676055857088"><ele>21.0</ele><time>2026-03-27T13:32:14.999Z</time></trkpt><trkpt lat="38.206632900866765" lon="15.55856651171381"><ele>21.0</ele><time>2026-03-27T13:32:16.999Z</time></trkpt><trkpt lat="38.20663701375774" lon="15.558429797676904"><ele>21.0</ele><time>2026-03-27T13:32:18.999Z</time></trkpt><trkpt lat="38.20669676819558" lon="15.558362284315555"><ele>21.5</ele><time>2026-03-27T13:32:20.999Z</time></trkpt><trkpt lat="38.20651683743474" lon="15.558191653563236"><ele>22.0</ele><time>2026-03-27T13:32:23.999Z</time></trkpt><trkpt lat="38.206412888054345" lon="15.558194731324052"><ele>22.5</ele><time>2026-03-27T13:32:25.999Z</time></trkpt><trkpt lat="38.20634260210529" lon="15.558185034814661"><ele>23.0</ele><time>2026-03-27T13:32:26.999Z</time></trkpt><trkpt lat="38.20627628483702" lon="15.558178071513778"><ele>23.666666666666668</ele><time>2026-03-27T13:32:27.999Z</time></trkpt><trkpt lat="38.20615832926653" lon="15.558164659643575"><ele>24.333333333333336</ele><time>2026-03-27T13:32:29.999Z</time></trkpt><trkpt lat="38.20609317789845" lon="15.5581553324851"><ele>25.0</ele><time>2026-03-27T13:32:30.999Z</time></trkpt><trkpt lat="38.20602056910763" lon="15.558144597967424"><ele>25.666666666666668</ele><time>2026-03-27T13:32:31.999Z</time></trkpt><trkpt lat="38.205941559306396" lon="15.55813479560036"><ele>26.333333333333332</ele><time>2026-03-27T13:32:32.999Z</time></trkpt><trkpt lat="38.20586447164132" lon="15.558126984752752"><ele>27.0</ele><time>2026-03-27T13:32:33.999Z</time></trkpt><trkpt lat="38.2057955947411" lon="15.558119806829096"><ele>27.0</ele><time>2026-03-27T13:32:34.999Z</time></trkpt><trkpt lat="38.20572822048554" lon="15.558114233705103"><ele>27.0</ele><time>2026-03-27T13:32:35.999Z</time></trkpt><trkpt lat="38.205654783062116" lon="15.55810737712754"><ele>27.0</ele><time>2026-03-27T13:32:36.999Z</time></trkpt><trkpt lat="38.20557642813229" lon="15.558099085217407"><ele>27.0</ele><time>2026-03-27T13:32:37.999Z</time></trkpt><trkpt lat="38.20548713383813" lon="15.558094620136108"><ele>27.0</ele><time>2026-03-27T13:32:38.999Z</time></trkpt><trkpt lat="38.205391039173385" lon="15.558091923333498"><ele>27.0</ele><time>2026-03-27T13:32:39.999Z</time></trkpt><trkpt lat="38.205294073734244" lon="15.558086908297275"><ele>27.0</ele><time>2026-03-27T13:32:40.999Z</time></trkpt><trkpt lat="38.205212073644546" lon="15.558077653702243"><ele>27.0</ele><time>2026-03-27T13:32:41.999Z</time></trkpt><trkpt lat="38.205141539787924" lon="15.558068315684807"><ele>27.0</ele><time>2026-03-27T13:32:42.999Z</time></trkpt><trkpt lat="38.20502524684945" lon="15.558055974008322"><ele>27.0</ele><time>2026-03-27T13:32:44.999Z</time></trkpt><trkpt lat="38.204928809010724" lon="15.558045692674018"><ele>27.0</ele><time>2026-03-27T13:32:46.999Z</time></trkpt><trkpt lat="38.20486139058472" lon="15.558040973590675"><ele>27.0</ele><time>2026-03-27T13:32:48.999Z</time></trkpt><trkpt lat="38.20479329327307" lon="15.558024231354668"><ele>26.6</ele><time>2026-03-27T13:33:25.999Z</time></trkpt><trkpt lat="38.20471806830351" lon="15.5580066443396"><ele>26.200000000000003</ele><time>2026-03-27T13:33:27.999Z</time></trkpt><trkpt lat="38.20459559833748" lon="15.557997435984888"><ele>25.8</ele><time>2026-03-27T13:33:29.999Z</time></trkpt><trkpt lat="38.20451823348115" lon="15.55798907227734"><ele>25.4</ele><time>2026-03-27T13:33:30.999Z</time></trkpt><trkpt lat="38.20443046433021" lon="15.557979624650002"><ele>25.0</ele><time>2026-03-27T13:33:31.999Z</time></trkpt><trkpt lat="38.204334546848436" lon="15.557971182960932"><ele>25.000000000000004</ele><time>2026-03-27T13:33:32.999Z</time></trkpt><trkpt lat="38.2042437303768" lon="15.557961760018848"><ele>25.0</ele><time>2026-03-27T13:33:33.999Z</time></trkpt><trkpt lat="38.204155143201895" lon="15.557946929316586"><ele>25.0</ele><time>2026-03-27T13:33:34.999Z</time></trkpt><trkpt lat="38.20406365107668" lon="15.557931647190728"><ele>25.0</ele><time>2026-03-27T13:33:35.999Z</time></trkpt><trkpt lat="38.20398178193313" lon="15.557920463365523"><ele>25.000000000000004</ele><time>2026-03-27T13:33:36.999Z</time></trkpt><trkpt lat="38.20390022986872" lon="15.557910939269549"><ele>25.0</ele><time>2026-03-27T13:33:37.999Z</time></trkpt><trkpt lat="38.20381346824043" lon="15.55790057350197"><ele>25.2</ele><time>2026-03-27T13:33:38.999Z</time></trkpt><trkpt lat="38.2037173610487" lon="15.557890538964283"><ele>25.4</ele><time>2026-03-27T13:33:39.998Z</time></trkpt><trkpt lat="38.2036138201941" lon="15.55787705444627"><ele>25.6</ele><time>2026-03-27T13:33:40.998Z</time></trkpt><trkpt lat="38.20350455298982" lon="15.557864096020298"><ele>25.8</ele><time>2026-03-27T13:33:41.998Z</time></trkpt><trkpt lat="38.20339656667045" lon="15.557851375187514"><ele>26.0</ele><time>2026-03-27T13:33:42.998Z</time></trkpt><trkpt lat="38.20328354002169" lon="15.557838406762967"><ele>26.0</ele><time>2026-03-27T13:33:43.998Z</time></trkpt><trkpt lat="38.20317408189202" lon="15.557824022368388"><ele>26.0</ele><time>2026-03-27T13:33:44.998Z</time></trkpt><trkpt lat="38.20306991337777" lon="15.557812493344782"><ele>26.0</ele><time>2026-03-27T13:33:45.998Z</time></trkpt><trkpt lat="38.20297244178968" lon="15.557801375441"><ele>26.0</ele><time>2026-03-27T13:33:46.998Z</time></trkpt><trkpt lat="38.20287698051416" lon="15.557791037378468"><ele>26.0</ele><time>2026-03-27T13:33:47.998Z</time></trkpt><trkpt lat="38.20278043053053" lon="15.557781925148296"><ele>26.4</ele><time>2026-03-27T13:33:48.998Z</time></trkpt><trkpt lat="38.202678094017" lon="15.557772859372621"><ele>26.8</ele><time>2026-03-27T13:33:49.998Z</time></trkpt><trkpt lat="38.20257127691954" lon="15.557761458415987"><ele>27.199999999999996</ele><time>2026-03-27T13:33:50.998Z</time></trkpt><trkpt lat="38.202459729965085" lon="15.557748536089925"><ele>27.599999999999998</ele><time>2026-03-27T13:33:51.998Z</time></trkpt><trkpt lat="38.2023439180084" lon="15.557736740481046"><ele>28.0</ele><time>2026-03-27T13:33:52.998Z</time></trkpt><trkpt lat="38.20222212702544" lon="15.557724507863593"><ele>26.75</ele><time>2026-03-27T13:33:53.998Z</time></trkpt><trkpt lat="38.20209715688404" lon="15.557712525840419"><ele>25.5</ele><time>2026-03-27T13:33:54.998Z</time></trkpt><trkpt lat="38.20196978814916" lon="15.557699075978185"><ele>24.25</ele><time>2026-03-27T13:33:55.998Z</time></trkpt><trkpt lat="38.201842753700035" lon="15.55768580305996"><ele>23.0</ele><time>2026-03-27T13:33:56.998Z</time></trkpt><trkpt lat="38.201719981097945" lon="15.557674195652337"><ele>23.0</ele><time>2026-03-27T13:33:57.998Z</time></trkpt><trkpt lat="38.20159750941213" lon="15.557663169891706"><ele>23.0</ele><time>2026-03-27T13:33:58.998Z</time></trkpt><trkpt lat="38.20147973697215" lon="15.557651572731093"><ele>23.0</ele><time>2026-03-27T13:33:59.998Z</time></trkpt><trkpt lat="38.201375905518596" lon="15.557639549387147"><ele>23.0</ele><time>2026-03-27T13:34:00.998Z</time></trkpt><trkpt lat="38.20127925593072" lon="15.55762877889894"><ele>23.0</ele><time>2026-03-27T13:34:01.999Z</time></trkpt><trkpt lat="38.201187906581914" lon="15.55762107329787"><ele>22.599999999999998</ele><time>2026-03-27T13:34:02.999Z</time></trkpt><trkpt lat="38.20110188315631" lon="15.55761323082758"><ele>22.2</ele><time>2026-03-27T13:34:03.999Z</time></trkpt><trkpt lat="38.201015959071015" lon="15.557603292490866"><ele>21.8</ele><time>2026-03-27T13:34:04.999Z</time></trkpt><trkpt lat="38.20092730700726" lon="15.557595180387564"><ele>21.4</ele><time>2026-03-27T13:34:05.999Z</time></trkpt><trkpt lat="38.20083186880161" lon="15.557583994596675"><ele>21.0</ele><time>2026-03-27T13:34:06.999Z</time></trkpt><trkpt lat="38.20073134296972" lon="15.557573352036494"><ele>19.8</ele><time>2026-03-27T13:34:07.999Z</time></trkpt><trkpt lat="38.20062306336632" lon="15.557563095010924"><ele>18.6</ele><time>2026-03-27T13:34:08.999Z</time></trkpt><trkpt lat="38.20051185620947" lon="15.557552976123425"><ele>17.4</ele><time>2026-03-27T13:34:09.999Z</time></trkpt><trkpt lat="38.20040461386593" lon="15.557544570302195"><ele>16.2</ele><time>2026-03-27T13:34:10.999Z</time></trkpt><trkpt lat="38.2003073925151" lon="15.557533838438909"><ele>15.0</ele><time>2026-03-27T13:34:11.999Z</time></trkpt><trkpt lat="38.2002131681805" lon="15.557523607105677"><ele>15.0</ele><time>2026-03-27T13:34:12.999Z</time></trkpt><trkpt lat="38.20011491046696" lon="15.55751308796383"><ele>15.0</ele><time>2026-03-27T13:34:13.999Z</time></trkpt><trkpt lat="38.20001276728583" lon="15.557502567978398"><ele>15.0</ele><time>2026-03-27T13:34:14.999Z</time></trkpt><trkpt lat="38.19991631392177" lon="15.557492787848632"><ele>15.0</ele><time>2026-03-27T13:34:15.999Z</time></trkpt><trkpt lat="38.199825831502054" lon="15.557481295715816"><ele>15.0</ele><time>2026-03-27T13:34:16.999Z</time></trkpt><trkpt lat="38.19973414906385" lon="15.55746935753501"><ele>14.2</ele><time>2026-03-27T13:34:17.999Z</time></trkpt><trkpt lat="38.1996379538165" lon="15.557452414565942"><ele>13.4</ele><time>2026-03-27T13:34:18.999Z</time></trkpt><trkpt lat="38.19954793364977" lon="15.557436201008613"><ele>12.600000000000001</ele><time>2026-03-27T13:34:19.999Z</time></trkpt><trkpt lat="38.199455041648314" lon="15.557421804156471"><ele>11.8</ele><time>2026-03-27T13:34:20.999Z</time></trkpt><trkpt lat="38.19936337918203" lon="15.557410300144777"><ele>11.0</ele><time>2026-03-27T13:34:21.999Z</time></trkpt><trkpt lat="38.19927491491954" lon="15.557400640224571"><ele>11.0</ele><time>2026-03-27T13:34:22.999Z</time></trkpt><trkpt lat="38.19919540490664" lon="15.557391426672066"><ele>11.0</ele><time>2026-03-27T13:34:23.999Z</time></trkpt><trkpt lat="38.19911716005897" lon="15.55738238115356"><ele>11.0</ele><time>2026-03-27T13:34:24.999Z</time></trkpt><trkpt lat="38.19904182120215" lon="15.557368522135265"><ele>11.0</ele><time>2026-03-27T13:34:25.999Z</time></trkpt><trkpt lat="38.198970794662394" lon="15.557379267998275"><ele>11.0</ele><time>2026-03-27T13:34:26.999Z</time></trkpt><trkpt lat="38.19890531522509" lon="15.557372080964939"><ele>11.0</ele><time>2026-03-27T13:34:27.999Z</time></trkpt><trkpt lat="38.198789982839855" lon="15.557360438079455"><ele>10.600000000000001</ele><time>2026-03-27T13:34:29.999Z</time></trkpt><trkpt lat="38.19868655992784" lon="15.557349688347928"><ele>10.200000000000001</ele><time>2026-03-27T13:34:31.999Z</time></trkpt><trkpt lat="38.19863700546589" lon="15.55722908343928"><ele>9.8</ele><time>2026-03-27T13:34:32.999Z</time></trkpt><trkpt lat="38.19857874622367" lon="15.557163281197113"><ele>9.4</ele><time>2026-03-27T13:34:34.999Z</time></trkpt><trkpt lat="38.1984998778263" lon="15.55712495320468"><ele>9.0</ele><time>2026-03-27T13:34:36.999Z</time></trkpt><trkpt lat="38.19840137067846" lon="15.55707263956567"><ele>9.6</ele><time>2026-03-27T13:34:38.999Z</time></trkpt><trkpt lat="38.19829889634323" lon="15.557009129942294"><ele>10.2</ele><time>2026-03-27T13:34:40.999Z</time></trkpt><trkpt lat="38.19819721249022" lon="15.556951513825464"><ele>10.799999999999999</ele><time>2026-03-27T13:34:42.999Z</time></trkpt><trkpt lat="38.19810005032533" lon="15.556899450955768"><ele>11.4</ele><time>2026-03-27T13:34:44.999Z</time></trkpt><trkpt lat="38.19803236193046" lon="15.556844668167134"><ele>12.0</ele><time>2026-03-27T13:34:46.999Z</time></trkpt><trkpt lat="38.197960457208836" lon="15.556808493138353"><ele>12.166666666666666</ele><time>2026-03-27T13:34:49.999Z</time></trkpt><trkpt lat="38.19789841681639" lon="15.556768395467335"><ele>12.333333333333332</ele><time>2026-03-27T13:34:52.999Z</time></trkpt><trkpt lat="38.197836625573146" lon="15.556736089534589"><ele>12.5</ele><time>2026-03-27T13:34:56.999Z</time></trkpt><trkpt lat="38.19777705470266" lon="15.556690015507083"><ele>12.666666666666666</ele><time>2026-03-27T13:35:04.999Z</time></trkpt><trkpt lat="38.19770271367525" lon="15.556645021367556"><ele>12.833333333333332</ele><time>2026-03-27T13:35:06.999Z</time></trkpt><trkpt lat="38.19762028700307" lon="15.556595459734151"><ele>13.0</ele><time>2026-03-27T13:35:08.999Z</time></trkpt><trkpt lat="38.197523342404544" lon="15.556537168771237"><ele>13.0</ele><time>2026-03-27T13:35:10.999Z</time></trkpt><trkpt lat="38.197464217904454" lon="15.556501618304674"><ele>13.0</ele><time>2026-03-27T13:35:11.999Z</time></trkpt><trkpt lat="38.19736350762128" lon="15.556441062865396"><ele>13.0</ele><time>2026-03-27T13:35:13.999Z</time></trkpt><trkpt lat="38.19728046396127" lon="15.556355941399962"><ele>13.0</ele><time>2026-03-27T13:35:15.999Z</time></trkpt><trkpt lat="38.19719620985609" lon="15.556304863476962"><ele>13.0</ele><time>2026-03-27T13:35:17.999Z</time></trkpt><trkpt lat="38.19709388821324" lon="15.556242832326882"><ele>13.428571428571427</ele><time>2026-03-27T13:35:19.999Z</time></trkpt><trkpt lat="38.197030483413414" lon="15.556204394012125"><ele>13.857142857142858</ele><time>2026-03-27T13:35:20.999Z</time></trkpt><trkpt lat="38.196960983620265" lon="15.556162260660672"><ele>14.285714285714285</ele><time>2026-03-27T13:35:21.999Z</time></trkpt><trkpt lat="38.19689880373704" lon="15.556124123016518"><ele>14.714285714285714</ele><time>2026-03-27T13:35:22.999Z</time></trkpt><trkpt lat="38.196841687205904" lon="15.55608890827025"><ele>15.142857142857142</ele><time>2026-03-27T13:35:23.999Z</time></trkpt><trkpt lat="38.19677882367632" lon="15.556050144991936"><ele>15.571428571428571</ele><time>2026-03-27T13:35:24.999Z</time></trkpt><trkpt lat="38.19670766284076" lon="15.556006265374856"><ele>16.0</ele><time>2026-03-27T13:35:25.999Z</time></trkpt><trkpt lat="38.19663209728418" lon="15.55595965472991"><ele>15.8</ele><time>2026-03-27T13:35:26.999Z</time></trkpt><trkpt lat="38.196544044455884" lon="15.555905320110455"><ele>15.600000000000001</ele><time>2026-03-27T13:35:27.999Z</time></trkpt><trkpt lat="38.196455235389216" lon="15.555850518763211"><ele>15.4</ele><time>2026-03-27T13:35:28.999Z</time></trkpt><trkpt lat="38.196371676450156" lon="15.555798957229689"><ele>15.2</ele><time>2026-03-27T13:35:29.999Z</time></trkpt><trkpt lat="38.19629250751124" lon="15.555750103972667"><ele>15.0</ele><time>2026-03-27T13:35:30.999Z</time></trkpt><trkpt lat="38.19621995051596" lon="15.555704995656113"><ele>15.0</ele><time>2026-03-27T13:35:31.999Z</time></trkpt><trkpt lat="38.19614649380045" lon="15.55565947891369"><ele>15.0</ele><time>2026-03-27T13:35:32.999Z</time></trkpt><trkpt lat="38.19607707892434" lon="15.555616466605022"><ele>15.0</ele><time>2026-03-27T13:35:33.999Z</time></trkpt><trkpt lat="38.1960060805644" lon="15.555572473176763"><ele>15.0</ele><time>2026-03-27T13:35:34.999Z</time></trkpt><trkpt lat="38.195937996513955" lon="15.55553030806412"><ele>15.0</ele><time>2026-03-27T13:35:35.999Z</time></trkpt><trkpt lat="38.195842834323685" lon="15.555471384616958"><ele>15.0</ele><time>2026-03-27T13:35:37.999Z</time></trkpt><trkpt lat="38.195724922699284" lon="15.55539837390136"><ele>15.4</ele><time>2026-03-27T13:35:39.999Z</time></trkpt><trkpt lat="38.195626377176" lon="15.55533735435729"><ele>15.8</ele><time>2026-03-27T13:35:41.999Z</time></trkpt><trkpt lat="38.19552751657309" lon="15.555276140695755"><ele>16.2</ele><time>2026-03-27T13:35:43.999Z</time></trkpt><trkpt lat="38.19546973904898" lon="15.555241434308059"><ele>16.6</ele><time>2026-03-27T13:35:44.999Z</time></trkpt><trkpt lat="38.19535134911385" lon="15.555169635415405"><ele>17.0</ele><time>2026-03-27T13:35:46.999Z</time></trkpt><trkpt lat="38.19523628525496" lon="15.555099853652987"><ele>17.0</ele><time>2026-03-27T13:35:48.999Z</time></trkpt><trkpt lat="38.19515967745861" lon="15.55505392507279"><ele>17.0</ele><time>2026-03-27T13:35:49.998Z</time></trkpt><trkpt lat="38.19506958134088" lon="15.55500018011944"><ele>17.0</ele><time>2026-03-27T13:35:50.998Z</time></trkpt><trkpt lat="38.19499043164096" lon="15.554952288699505"><ele>17.0</ele><time>2026-03-27T13:35:51.998Z</time></trkpt><trkpt lat="38.194914593706606" lon="15.554905047828157"><ele>17.0</ele><time>2026-03-27T13:35:52.998Z</time></trkpt><trkpt lat="38.19484273140865" lon="15.554860283496595"><ele>17.0</ele><time>2026-03-27T13:35:53.998Z</time></trkpt><trkpt lat="38.1947679505444" lon="15.554813701120015"><ele>17.166666666666668</ele><time>2026-03-27T13:35:54.998Z</time></trkpt><trkpt lat="38.19469124725262" lon="15.554765921212361"><ele>17.333333333333336</ele><time>2026-03-27T13:35:55.998Z</time></trkpt><trkpt lat="38.19460891871414" lon="15.554714637256533"><ele>17.5</ele><time>2026-03-27T13:35:56.998Z</time></trkpt><trkpt lat="38.194530995900934" lon="15.554666097493703"><ele>17.666666666666668</ele><time>2026-03-27T13:35:57.998Z</time></trkpt><trkpt lat="38.194463604694285" lon="15.554623706432414"><ele>17.833333333333332</ele><time>2026-03-27T13:35:58.998Z</time></trkpt><trkpt lat="38.19440178294112" lon="15.554584895713196"><ele>18.0</ele><time>2026-03-27T13:35:59.998Z</time></trkpt><trkpt lat="38.194289742491165" lon="15.554514558407364"><ele>18.0</ele><time>2026-03-27T13:36:01.998Z</time></trkpt><trkpt lat="38.19423192164482" lon="15.554478259356305"><ele>18.0</ele><time>2026-03-27T13:36:02.998Z</time></trkpt><trkpt lat="38.194149594175215" lon="15.5544265754385"><ele>18.0</ele><time>2026-03-27T13:36:04.998Z</time></trkpt><trkpt lat="38.19408307372267" lon="15.554385596692967"><ele>18.0</ele><time>2026-03-27T13:36:07.999Z</time></trkpt><trkpt lat="38.19401850744637" lon="15.55434583163417"><ele>18.0</ele><time>2026-03-27T13:36:10.999Z</time></trkpt><trkpt lat="38.193924558221156" lon="15.554287970184907"><ele>18.0</ele><time>2026-03-27T13:36:12.999Z</time></trkpt><trkpt lat="38.193852527764584" lon="15.554243607421279"><ele>17.6</ele><time>2026-03-27T13:36:13.999Z</time></trkpt><trkpt lat="38.1937689587317" lon="15.554193912219363"><ele>17.200000000000003</ele><time>2026-03-27T13:36:14.999Z</time></trkpt><trkpt lat="38.19367878497343" lon="15.554139465317496"><ele>16.8</ele><time>2026-03-27T13:36:15.999Z</time></trkpt><trkpt lat="38.193590444072306" lon="15.554086042438646"><ele>16.400000000000002</ele><time>2026-03-27T13:36:16.999Z</time></trkpt><trkpt lat="38.193502523700914" lon="15.554032839950239"><ele>16.0</ele><time>2026-03-27T13:36:17.999Z</time></trkpt><trkpt lat="38.19340760262607" lon="15.553975368785174"><ele>16.0</ele><time>2026-03-27T13:36:18.999Z</time></trkpt><trkpt lat="38.193316597889364" lon="15.553920268783887"><ele>16.0</ele><time>2026-03-27T13:36:19.999Z</time></trkpt><trkpt lat="38.193236245088016" lon="15.553870866631451"><ele>16.0</ele><time>2026-03-27T13:36:20.999Z</time></trkpt><trkpt lat="38.19314924384905" lon="15.553817386817643"><ele>16.0</ele><time>2026-03-27T13:36:21.999Z</time></trkpt><trkpt lat="38.193055974826414" lon="15.55376028879895"><ele>16.0</ele><time>2026-03-27T13:36:22.999Z</time></trkpt><trkpt lat="38.19295418007651" lon="15.553697971413893"><ele>16.75</ele><time>2026-03-27T13:36:23.999Z</time></trkpt><trkpt lat="38.19284538579895" lon="15.55363136908124"><ele>17.5</ele><time>2026-03-27T13:36:24.999Z</time></trkpt><trkpt lat="38.192741662918145" lon="15.553568177607293"><ele>18.25</ele><time>2026-03-27T13:36:25.999Z</time></trkpt><trkpt lat="38.19263900443473" lon="15.553506244281106"><ele>19.0</ele><time>2026-03-27T13:36:26.999Z</time></trkpt><trkpt lat="38.19253483279734" lon="15.553443397902361"><ele>19.0</ele><time>2026-03-27T13:36:27.999Z</time></trkpt><trkpt lat="38.19242815438218" lon="15.55337770342498"><ele>19.0</ele><time>2026-03-27T13:36:28.999Z</time></trkpt><trkpt lat="38.19231641770268" lon="15.553309962376094"><ele>19.0</ele><time>2026-03-27T13:36:29.999Z</time></trkpt><trkpt lat="38.19219210942333" lon="15.553273076838307"><ele>19.0</ele><time>2026-03-27T13:36:30.999Z</time></trkpt><trkpt lat="38.192073669132746" lon="15.553205162607156"><ele>19.25</ele><time>2026-03-27T13:36:31.999Z</time></trkpt><trkpt lat="38.19195548321703" lon="15.553134257696584"><ele>19.5</ele><time>2026-03-27T13:36:32.999Z</time></trkpt><trkpt lat="38.19184155004139" lon="15.553065863396775"><ele>19.75</ele><time>2026-03-27T13:36:33.999Z</time></trkpt><trkpt lat="38.191734285096175" lon="15.552999401442202"><ele>20.0</ele><time>2026-03-27T13:36:34.999Z</time></trkpt><trkpt lat="38.19163070605171" lon="15.552937019301142"><ele>20.0</ele><time>2026-03-27T13:36:35.999Z</time></trkpt><trkpt lat="38.19152869206385" lon="15.552875260775972"><ele>20.0</ele><time>2026-03-27T13:36:36.999Z</time></trkpt><trkpt lat="38.191428220958024" lon="15.55281289142717"><ele>20.0</ele><time>2026-03-27T13:36:37.999Z</time></trkpt><trkpt lat="38.19132041162691" lon="15.552750268998734"><ele>20.0</ele><time>2026-03-27T13:36:38.999Z</time></trkpt><trkpt lat="38.191218213610725" lon="15.552687931976292"><ele>21.0</ele><time>2026-03-27T13:36:39.999Z</time></trkpt><trkpt lat="38.191127094820466" lon="15.552630126653494"><ele>22.0</ele><time>2026-03-27T13:36:40.999Z</time></trkpt><trkpt lat="38.1910448104134" lon="15.55258059983181"><ele>23.0</ele><time>2026-03-27T13:36:41.999Z</time></trkpt><trkpt lat="38.19096987478089" lon="15.552533375905858"><ele>24.0</ele><time>2026-03-27T13:36:42.999Z</time></trkpt><trkpt lat="38.190907269174" lon="15.552495713323445"><ele>24.999999999999996</ele><time>2026-03-27T13:36:43.999Z</time></trkpt><trkpt lat="38.190849814368136" lon="15.552459507885748"><ele>26.0</ele><time>2026-03-27T13:36:44.999Z</time></trkpt><trkpt lat="38.19076201257866" lon="15.552403410429957"><ele>25.999999999999996</ele><time>2026-03-27T13:36:46.999Z</time></trkpt><trkpt lat="38.19070390078193" lon="15.552365903349887"><ele>26.0</ele><time>2026-03-27T13:36:48.999Z</time></trkpt><trkpt lat="38.19065144909166" lon="15.552310948361207"><ele>26.0</ele><time>2026-03-27T13:37:04.999Z</time></trkpt><trkpt lat="38.19059184896455" lon="15.55227303099716"><ele>26.0</ele><time>2026-03-27T13:37:06.999Z</time></trkpt><trkpt lat="38.19051840021035" lon="15.552226304000879"><ele>25.999999999999996</ele><time>2026-03-27T13:37:08.999Z</time></trkpt><trkpt lat="38.19044042299187" lon="15.552178838943895"><ele>26.0</ele><time>2026-03-27T13:37:10.999Z</time></trkpt><trkpt lat="38.190358453882936" lon="15.552148389552116"><ele>25.6</ele><time>2026-03-27T13:37:12.999Z</time></trkpt><trkpt lat="38.190278665951205" lon="15.552079761407473"><ele>25.200000000000003</ele><time>2026-03-27T13:37:14.999Z</time></trkpt><trkpt lat="38.19019668980594" lon="15.552029787229172"><ele>24.799999999999997</ele><time>2026-03-27T13:37:16.999Z</time></trkpt><trkpt lat="38.1900967533109" lon="15.55198242114149"><ele>24.4</ele><time>2026-03-27T13:37:18.999Z</time></trkpt><trkpt lat="38.189999268275464" lon="15.551920806836947"><ele>24.0</ele><time>2026-03-27T13:37:20.999Z</time></trkpt><trkpt lat="38.18993656879988" lon="15.551879743574249"><ele>23.833333333333332</ele><time>2026-03-27T13:37:22.999Z</time></trkpt><trkpt lat="38.18985699531087" lon="15.551826944493198"><ele>23.666666666666668</ele><time>2026-03-27T13:37:25.999Z</time></trkpt><trkpt lat="38.18979965713064" lon="15.551789499353653"><ele>23.5</ele><time>2026-03-27T13:37:28.999Z</time></trkpt><trkpt lat="38.18974179482103" lon="15.551730982902248"><ele>23.333333333333336</ele><time>2026-03-27T13:38:29.999Z</time></trkpt><trkpt lat="38.18966032749794" lon="15.551681817453145"><ele>23.166666666666668</ele><time>2026-03-27T13:38:31.999Z</time></trkpt><trkpt lat="38.18956868698914" lon="15.551628127382843"><ele>23.0</ele><time>2026-03-27T13:38:33.999Z</time></trkpt><trkpt lat="38.18948376391578" lon="15.551577584665239"><ele>23.0</ele><time>2026-03-27T13:38:35.999Z</time></trkpt><trkpt lat="38.189416405792116" lon="15.551538208941123"><ele>23.0</ele><time>2026-03-27T13:38:38.999Z</time></trkpt><trkpt lat="38.189345743502855" lon="15.551469998451617"><ele>23.0</ele><time>2026-03-27T13:38:41.999Z</time></trkpt><trkpt lat="38.18925734255419" lon="15.551443988906529"><ele>23.0</ele><time>2026-03-27T13:38:43.999Z</time></trkpt><trkpt lat="38.189184134505894" lon="15.551413530084918"><ele>23.0</ele><time>2026-03-27T13:38:46.999Z</time></trkpt><trkpt lat="38.189104160353146" lon="15.551405398552182"><ele>23.0</ele><time>2026-03-27T13:39:45.999Z</time></trkpt><trkpt lat="38.18905701584263" lon="15.55148050143184"><ele>23.0</ele><time>2026-03-27T13:39:48.999Z</time></trkpt><trkpt lat="38.189023199013086" lon="15.551377177034045"><ele>23.0</ele><time>2026-03-27T13:45:58.999Z</time></trkpt><trkpt lat="38.18893550967778" lon="15.5513661268298"><ele>23.0</ele><time>2026-03-27T13:46:01.999Z</time></trkpt><trkpt lat="38.18886172340064" lon="15.551432706102963"><ele>23.0</ele><time>2026-03-27T13:46:04.999Z</time></trkpt><trkpt lat="38.18893224106688" lon="15.551533420311847"><ele>23.0</ele><time>2026-03-27T13:46:06.999Z</time></trkpt><trkpt lat="38.189001773806474" lon="15.551599881285746"><ele>23.0</ele><time>2026-03-27T13:46:09.999Z</time></trkpt><trkpt lat="38.18905859825261" lon="15.551658389839885"><ele>23.0</ele><time>2026-03-27T13:46:14.999Z</time></trkpt><trkpt lat="38.18912134518207" lon="15.551718943347842"><ele>23.0</ele><time>2026-03-27T13:46:48Z</time></trkpt><trkpt lat="38.189177041741736" lon="15.551774064153742"><ele>23.0</ele><time>2026-03-27T13:46:52Z</time></trkpt><trkpt lat="38.18924116643754" lon="15.551831184027305"><ele>23.0</ele><time>2026-03-27T13:46:55Z</time></trkpt><trkpt lat="38.18917724827919" lon="15.551950659329199"><ele>23.0</ele><time>2026-03-27T13:46:56Z</time></trkpt><trkpt lat="38.189132299715226" lon="15.552014100809531"><ele>22.666666666666668</ele><time>2026-03-27T13:46:57Z</time></trkpt><trkpt lat="38.189089030084496" lon="15.552085979586561"><ele>22.333333333333336</ele><time>2026-03-27T13:46:58Z</time></trkpt><trkpt lat="38.189044147001404" lon="15.552170108662393"><ele>22.0</ele><time>2026-03-27T13:46:59Z</time></trkpt><trkpt lat="38.188996730301916" lon="15.552258845888863"><ele>21.666666666666668</ele><time>2026-03-27T13:47:00Z</time></trkpt><trkpt lat="38.18894811447181" lon="15.552348705816739"><ele>21.333333333333332</ele><time>2026-03-27T13:47:01Z</time></trkpt><trkpt lat="38.18890112267482" lon="15.55243524090695"><ele>21.0</ele><time>2026-03-27T13:47:02Z</time></trkpt><trkpt lat="38.18885348861493" lon="15.55251986689284"><ele>21.5</ele><time>2026-03-27T13:47:03Z</time></trkpt><trkpt lat="38.188803584680805" lon="15.552608335998896"><ele>22.0</ele><time>2026-03-27T13:47:04Z</time></trkpt><trkpt lat="38.188751729937024" lon="15.552700332706676"><ele>22.5</ele><time>2026-03-27T13:47:05Z</time></trkpt><trkpt lat="38.188698082987145" lon="15.552793420065866"><ele>23.0</ele><time>2026-03-27T13:47:06Z</time></trkpt><trkpt lat="38.188647251669636" lon="15.552880888998201"><ele>23.5</ele><time>2026-03-27T13:47:07Z</time></trkpt><trkpt lat="38.18860035203764" lon="15.552963669749314"><ele>24.0</ele><time>2026-03-27T13:47:08Z</time></trkpt><trkpt lat="38.18856010439153" lon="15.553038575715727"><ele>24.0</ele><time>2026-03-27T13:47:09Z</time></trkpt><trkpt lat="38.18852243321578" lon="15.553108010991588"><ele>24.0</ele><time>2026-03-27T13:47:10Z</time></trkpt><trkpt lat="38.18845687854623" lon="15.553226611860229"><ele>24.0</ele><time>2026-03-27T13:47:12Z</time></trkpt><trkpt lat="38.18840564485788" lon="15.553317249964387"><ele>24.0</ele><time>2026-03-27T13:47:14Z</time></trkpt><trkpt lat="38.18836587717071" lon="15.553388082612464"><ele>24.0</ele><time>2026-03-27T13:47:16Z</time></trkpt><trkpt lat="38.1883225474779" lon="15.553470225029407"><ele>24.0</ele><time>2026-03-27T13:48:26.999Z</time></trkpt><trkpt lat="38.18829167337611" lon="15.553543394766445"><ele>24.0</ele><time>2026-03-27T13:48:29.999Z</time></trkpt><trkpt lat="38.188373439889986" lon="15.553682141783941"><ele>24.0</ele><time>2026-03-27T13:48:35.999Z</time></trkpt><trkpt lat="38.18842327854386" lon="15.553731923278429"><ele>24.0</ele><time>2026-03-27T13:48:37.999Z</time></trkpt><trkpt lat="38.188483985196015" lon="15.5537929295761"><ele>24.0</ele><time>2026-03-27T13:48:41Z</time></trkpt><trkpt lat="38.18855568908512" lon="15.553845261653636"><ele>24.0</ele><time>2026-03-27T14:12:03Z</time></trkpt><trkpt lat="38.188600000504096" lon="15.553907255773147"><ele>24.0</ele><time>2026-03-27T14:28:14.999Z</time></trkpt><trkpt lat="38.18865842650665" lon="15.553941494481432"><ele>23.799999999999997</ele><time>2026-03-27T14:28:16.999Z</time></trkpt><trkpt lat="38.18873081703811" lon="15.553996654731435"><ele>23.599999999999998</ele><time>2026-03-27T14:28:18.999Z</time></trkpt><trkpt lat="38.18883319600328" lon="15.55406789658587"><ele>23.4</ele><time>2026-03-27T14:28:20.999Z</time></trkpt><trkpt lat="38.188930585556065" lon="15.554137781801751"><ele>23.2</ele><time>2026-03-27T14:28:22.999Z</time></trkpt><trkpt lat="38.18903276273988" lon="15.554210210505115"><ele>23.0</ele><time>2026-03-27T14:28:24.999Z</time></trkpt><trkpt lat="38.18910645263607" lon="15.554284853673213"><ele>22.799999999999997</ele><time>2026-03-27T14:28:26.999Z</time></trkpt><trkpt lat="38.18918008370985" lon="15.554347309256457"><ele>22.6</ele><time>2026-03-27T14:28:29.999Z</time></trkpt><trkpt lat="38.18925983790386" lon="15.55438802505259"><ele>22.4</ele><time>2026-03-27T14:28:33Z</time></trkpt><trkpt lat="38.18933970131921" lon="15.554429789883528"><ele>22.200000000000003</ele><time>2026-03-27T14:28:39Z</time></trkpt><trkpt lat="38.18943116746154" lon="15.554497583668931"><ele>22.0</ele><time>2026-03-27T14:28:41Z</time></trkpt><trkpt lat="38.189529016146004" lon="15.55457053064393"><ele>22.0</ele><time>2026-03-27T14:28:43Z</time></trkpt><trkpt lat="38.18960689269452" lon="15.554631139590105"><ele>22.0</ele><time>2026-03-27T14:28:45Z</time></trkpt><trkpt lat="38.18971315309225" lon="15.554711791940768"><ele>22.0</ele><time>2026-03-27T14:28:47Z</time></trkpt><trkpt lat="38.189812504535325" lon="15.554792303194706"><ele>22.0</ele><time>2026-03-27T14:28:49Z</time></trkpt><trkpt lat="38.18991844121076" lon="15.554874459631575"><ele>21.666666666666664</ele><time>2026-03-27T14:28:51Z</time></trkpt><trkpt lat="38.18997336296961" lon="15.55491519037073"><ele>21.333333333333332</ele><time>2026-03-27T14:28:52Z</time></trkpt><trkpt lat="38.19007636598927" lon="15.55499181091818"><ele>21.0</ele><time>2026-03-27T14:28:54Z</time></trkpt><trkpt lat="38.19013127712494" lon="15.555036404908874"><ele>20.666666666666668</ele><time>2026-03-27T14:28:55Z</time></trkpt><trkpt lat="38.19023210199785" lon="15.555113805428672"><ele>20.333333333333336</ele><time>2026-03-27T14:28:57Z</time></trkpt><trkpt lat="38.19029193947314" lon="15.555164662573278"><ele>20.0</ele><time>2026-03-27T14:28:59Z</time></trkpt><trkpt lat="38.190350360667146" lon="15.555217377905306"><ele>20.0</ele><time>2026-03-27T14:29:02Z</time></trkpt><trkpt lat="38.19040764516645" lon="15.555112150285115"><ele>20.0</ele><time>2026-03-27T14:29:04Z</time></trkpt><trkpt lat="38.19047101335001" lon="15.555009251063248"><ele>20.0</ele><time>2026-03-27T14:29:06Z</time></trkpt><trkpt lat="38.19053539673348" lon="15.554883224258294"><ele>20.0</ele><time>2026-03-27T14:29:08Z</time></trkpt><trkpt lat="38.1905698114757" lon="15.554813312931119"><ele>20.0</ele><time>2026-03-27T14:29:09Z</time></trkpt><trkpt lat="38.190607772129255" lon="15.554732401738043"><ele>20.0</ele><time>2026-03-27T14:29:10Z</time></trkpt><trkpt lat="38.19065047913318" lon="15.554649138771696"><ele>20.0</ele><time>2026-03-27T14:29:11Z</time></trkpt><trkpt lat="38.19068112258912" lon="15.554574262152434"><ele>20.0</ele><time>2026-03-27T14:29:12Z</time></trkpt><trkpt lat="38.190733044861894" lon="15.554465785243528"><ele>20.0</ele><time>2026-03-27T14:29:14Z</time></trkpt><trkpt lat="38.190772696244316" lon="15.554380217626678"><ele>20.0</ele><time>2026-03-27T14:29:16Z</time></trkpt><trkpt lat="38.19081307650591" lon="15.55428843876981"><ele>20.0</ele><time>2026-03-27T14:29:19Z</time></trkpt><trkpt lat="38.19086741368119" lon="15.554191932630001"><ele>20.428571428571427</ele><time>2026-03-27T14:29:21Z</time></trkpt><trkpt lat="38.19090472042381" lon="15.554123018772867"><ele>20.857142857142858</ele><time>2026-03-27T14:29:22Z</time></trkpt><trkpt lat="38.190944857671305" lon="15.554039729156164"><ele>21.285714285714285</ele><time>2026-03-27T14:29:23Z</time></trkpt><trkpt lat="38.19098635413003" lon="15.55395528264408"><ele>21.714285714285715</ele><time>2026-03-27T14:29:24Z</time></trkpt><trkpt lat="38.19102619535502" lon="15.553872066852964"><ele>22.142857142857142</ele><time>2026-03-27T14:29:25Z</time></trkpt><trkpt lat="38.19106352366597" lon="15.553794507076738"><ele>22.571428571428573</ele><time>2026-03-27T14:29:26Z</time></trkpt><trkpt lat="38.19109819987638" lon="15.553727382618048"><ele>23.0</ele><time>2026-03-27T14:29:27Z</time></trkpt><trkpt lat="38.191150596927926" lon="15.55362581386234"><ele>23.166666666666668</ele><time>2026-03-27T14:29:29Z</time></trkpt><trkpt lat="38.19118403358483" lon="15.553556523837615"><ele>23.333333333333336</ele><time>2026-03-27T14:29:31Z</time></trkpt><trkpt lat="38.191230874291534" lon="15.553467038153196"><ele>23.5</ele><time>2026-03-27T14:29:33Z</time></trkpt><trkpt lat="38.191304993504254" lon="15.553326642995843"><ele>23.666666666666668</ele><time>2026-03-27T14:29:35Z</time></trkpt><trkpt lat="38.1913480980601" lon="15.553247380032092"><ele>23.833333333333332</ele><time>2026-03-27T14:29:35.999Z</time></trkpt><trkpt lat="38.191382987799365" lon="15.553178068616567"><ele>24.0</ele><time>2026-03-27T14:29:36.999Z</time></trkpt><trkpt lat="38.19143794317096" lon="15.553067337539176"><ele>24.0</ele><time>2026-03-27T14:29:38.999Z</time></trkpt><trkpt lat="38.19147900612573" lon="15.552983687178916"><ele>24.0</ele><time>2026-03-27T14:29:41.999Z</time></trkpt><trkpt lat="38.191506495802884" lon="15.552905374245038"><ele>24.0</ele><time>2026-03-27T14:29:48.999Z</time></trkpt><trkpt lat="38.19143816768904" lon="15.552792439045088"><ele>24.0</ele><time>2026-03-27T14:29:55.999Z</time></trkpt><trkpt lat="38.1913274659394" lon="15.552730052383318"><ele>24.0</ele><time>2026-03-27T14:29:57.999Z</time></trkpt><trkpt lat="38.19124132973484" lon="15.552675466381524"><ele>24.333333333333332</ele><time>2026-03-27T14:29:59.999Z</time></trkpt><trkpt lat="38.19117292486788" lon="15.552640129121913"><ele>24.666666666666664</ele><time>2026-03-27T14:30:02.999Z</time></trkpt><trkpt lat="38.19108126539114" lon="15.552583617046269"><ele>25.0</ele><time>2026-03-27T14:30:04.999Z</time></trkpt><trkpt lat="38.19101920019184" lon="15.552543612176471"><ele>25.333333333333332</ele><time>2026-03-27T14:30:05.999Z</time></trkpt><trkpt lat="38.19094957678547" lon="15.552501126704218"><ele>25.666666666666664</ele><time>2026-03-27T14:30:06.999Z</time></trkpt><trkpt lat="38.19087751083545" lon="15.552454118305619"><ele>26.0</ele><time>2026-03-27T14:30:07.999Z</time></trkpt><trkpt lat="38.19080801843207" lon="15.55241031591232"><ele>25.999999999999996</ele><time>2026-03-27T14:30:08.999Z</time></trkpt><trkpt lat="38.190748310287056" lon="15.552376294346686"><ele>26.0</ele><time>2026-03-27T14:30:09.999Z</time></trkpt><trkpt lat="38.190656843243715" lon="15.552319825506265"><ele>26.0</ele><time>2026-03-27T14:30:11.999Z</time></trkpt><trkpt lat="38.19058224475821" lon="15.552276050821362"><ele>26.0</ele><time>2026-03-27T14:30:13.999Z</time></trkpt><trkpt lat="38.19049601537665" lon="15.552221584178836"><ele>25.999999999999996</ele><time>2026-03-27T14:30:15.999Z</time></trkpt><trkpt lat="38.19041668130139" lon="15.552177922643095"><ele>26.0</ele><time>2026-03-27T14:30:17.999Z</time></trkpt><trkpt lat="38.190344373655776" lon="15.552133782566292"><ele>25.666666666666664</ele><time>2026-03-27T14:30:19.999Z</time></trkpt><trkpt lat="38.19027701106784" lon="15.552095762757384"><ele>25.333333333333332</ele><time>2026-03-27T14:30:22.999Z</time></trkpt><trkpt lat="38.190212186762324" lon="15.55205813317329"><ele>25.0</ele><time>2026-03-27T14:30:28.999Z</time></trkpt><trkpt lat="38.19013435513328" lon="15.552013668716311"><ele>24.666666666666664</ele><time>2026-03-27T14:30:31.999Z</time></trkpt><trkpt lat="38.19007688682558" lon="15.551956753114174"><ele>24.333333333333332</ele><time>2026-03-27T14:30:33.999Z</time></trkpt><trkpt lat="38.189988820920554" lon="15.55192439851289"><ele>24.0</ele><time>2026-03-27T14:30:35.999Z</time></trkpt><trkpt lat="38.18988494291225" lon="15.551859875472356"><ele>23.833333333333332</ele><time>2026-03-27T14:30:38Z</time></trkpt><trkpt lat="38.18982555791983" lon="15.551821727527402"><ele>23.666666666666668</ele><time>2026-03-27T14:30:39Z</time></trkpt><trkpt lat="38.18976181676308" lon="15.551781834148008"><ele>23.5</ele><time>2026-03-27T14:30:40Z</time></trkpt><trkpt lat="38.18969389682738" lon="15.551739828887412"><ele>23.333333333333336</ele><time>2026-03-27T14:30:41Z</time></trkpt><trkpt lat="38.18960834967424" lon="15.551703028584878"><ele>23.166666666666668</ele><time>2026-03-27T14:30:42Z</time></trkpt><trkpt lat="38.18952289911524" lon="15.551653994143646"><ele>23.0</ele><time>2026-03-27T14:30:43Z</time></trkpt><trkpt lat="38.18944495243682" lon="15.551612520706609"><ele>23.0</ele><time>2026-03-27T14:30:44Z</time></trkpt><trkpt lat="38.18939760268564" lon="15.55153461245782"><ele>23.0</ele><time>2026-03-27T14:30:45Z</time></trkpt><trkpt lat="38.18930134685369" lon="15.551485838542757"><ele>23.0</ele><time>2026-03-27T14:30:47Z</time></trkpt><trkpt lat="38.189236854914746" lon="15.551457691768025"><ele>23.0</ele><time>2026-03-27T14:30:49Z</time></trkpt><trkpt lat="38.189160698009445" lon="15.551426588663759"><ele>23.0</ele><time>2026-03-27T14:30:52Z</time></trkpt><trkpt lat="38.18907640281735" lon="15.551394994928735"><ele>23.0</ele><time>2026-03-27T14:30:56Z</time></trkpt><trkpt lat="38.189012796360636" lon="15.55137360943536"><ele>23.166666666666668</ele><time>2026-03-27T14:30:59Z</time></trkpt><trkpt lat="38.188934792859975" lon="15.551361851941309"><ele>23.333333333333336</ele><time>2026-03-27T14:32:34.999Z</time></trkpt><trkpt lat="38.18887226983738" lon="15.551303537756523"><ele>23.5</ele><time>2026-03-27T14:32:37.999Z</time></trkpt><trkpt lat="38.18878676788725" lon="15.551292405477165"><ele>23.666666666666668</ele><time>2026-03-27T14:33:05Z</time></trkpt><trkpt lat="38.1887054687613" lon="15.551265043597517"><ele>23.833333333333332</ele><time>2026-03-27T14:33:07Z</time></trkpt><trkpt lat="38.18862826270098" lon="15.551240632359567"><ele>24.0</ele><time>2026-03-27T14:33:09Z</time></trkpt><trkpt lat="38.18856125757652" lon="15.551243584240785"><ele>24.0</ele><time>2026-03-27T14:33:11Z</time></trkpt><trkpt lat="38.18849341536885" lon="15.551221934190087"><ele>24.0</ele><time>2026-03-27T14:33:13Z</time></trkpt><trkpt lat="38.1884212434196" lon="15.551206244342644"><ele>24.0</ele><time>2026-03-27T14:33:15Z</time></trkpt><trkpt lat="38.18836507108771" lon="15.551147013734564"><ele>24.0</ele><time>2026-03-27T14:33:17Z</time></trkpt><trkpt lat="38.1882777736226" lon="15.551169271851293"><ele>24.0</ele><time>2026-03-27T14:33:19Z</time></trkpt><trkpt lat="38.188171254503736" lon="15.551140149698563"><ele>24.0</ele><time>2026-03-27T14:33:21Z</time></trkpt><trkpt lat="38.1880808436679" lon="15.551112634997432"><ele>26.0</ele><time>2026-03-27T14:33:23Z</time></trkpt><trkpt lat="38.188005317401114" lon="15.55109619903958"><ele>28.0</ele><time>2026-03-27T14:33:25Z</time></trkpt><trkpt lat="38.18790527888875" lon="15.55106808670829"><ele>30.0</ele><time>2026-03-27T14:33:27Z</time></trkpt><trkpt lat="38.18781876331495" lon="15.551046663379937"><ele>32.0</ele><time>2026-03-27T14:33:29Z</time></trkpt><trkpt lat="38.18771396048422" lon="15.551020395979906"><ele>34.0</ele><time>2026-03-27T14:33:31Z</time></trkpt><trkpt lat="38.187594578126046" lon="15.55099495009661"><ele>34.0</ele><time>2026-03-27T14:33:33Z</time></trkpt><trkpt lat="38.187530687632425" lon="15.550979318156196"><ele>34.0</ele><time>2026-03-27T14:33:34Z</time></trkpt><trkpt lat="38.18746612047901" lon="15.550965737841397"><ele>34.0</ele><time>2026-03-27T14:33:35Z</time></trkpt><trkpt lat="38.18734571127416" lon="15.550941886270047"><ele>34.0</ele><time>2026-03-27T14:33:37Z</time></trkpt><trkpt lat="38.18727591913788" lon="15.55092662025935"><ele>34.0</ele><time>2026-03-27T14:33:38Z</time></trkpt><trkpt lat="38.187206402812244" lon="15.550912717572619"><ele>34.0</ele><time>2026-03-27T14:33:39Z</time></trkpt><trkpt lat="38.18709008130181" lon="15.550883709629002"><ele>33.6</ele><time>2026-03-27T14:33:41Z</time></trkpt><trkpt lat="38.18699040968785" lon="15.55085944547639"><ele>33.2</ele><time>2026-03-27T14:33:43Z</time></trkpt><trkpt lat="38.186885508581405" lon="15.550831436541648"><ele>32.800000000000004</ele><time>2026-03-27T14:33:45Z</time></trkpt><trkpt lat="38.186778389496496" lon="15.550810257018231"><ele>32.4</ele><time>2026-03-27T14:33:46.999Z</time></trkpt><trkpt lat="38.186714011277566" lon="15.550794857513598"><ele>32.0</ele><time>2026-03-27T14:33:48.999Z</time></trkpt><trkpt lat="38.18663921452558" lon="15.550775470064018"><ele>31.999999999999996</ele><time>2026-03-27T14:33:51.999Z</time></trkpt><trkpt lat="38.18656196261867" lon="15.550743095823181"><ele>32.0</ele><time>2026-03-27T14:33:53.999Z</time></trkpt><trkpt lat="38.186556507990794" lon="15.550660421085626"><ele>32.0</ele><time>2026-03-27T14:33:55.999Z</time></trkpt><trkpt lat="38.18651215885727" lon="15.550543078400096"><ele>32.0</ele><time>2026-03-27T14:33:57.999Z</time></trkpt><trkpt lat="38.18647832032735" lon="15.550435406681737"><ele>31.999999999999996</ele><time>2026-03-27T14:33:59.999Z</time></trkpt><trkpt lat="38.18640393096989" lon="15.550336981958688"><ele>32.0</ele><time>2026-03-27T14:34:01.999Z</time></trkpt><trkpt lat="38.186320581139846" lon="15.550278589881012"><ele>32.5</ele><time>2026-03-27T14:34:03.999Z</time></trkpt><trkpt lat="38.18622841329584" lon="15.550258620113372"><ele>33.0</ele><time>2026-03-27T14:34:05.999Z</time></trkpt><trkpt lat="38.18616072017369" lon="15.550245099296992"><ele>33.5</ele><time>2026-03-27T14:34:07.999Z</time></trkpt><trkpt lat="38.18609976955986" lon="15.550218685172567"><ele>34.0</ele><time>2026-03-27T14:34:09.999Z</time></trkpt><trkpt lat="38.186092901433305" lon="15.550103407140185"><ele>34.5</ele><time>2026-03-27T14:34:10.999Z</time></trkpt><trkpt lat="38.18607997220275" lon="15.550016746079892"><ele>35.0</ele><time>2026-03-27T14:34:11.999Z</time></trkpt><trkpt lat="38.18606940838048" lon="15.54991873906649"><ele>35.0</ele><time>2026-03-27T14:34:12.999Z</time></trkpt><trkpt lat="38.18605424334675" lon="15.549736557104035"><ele>35.0</ele><time>2026-03-27T14:34:14.999Z</time></trkpt><trkpt lat="38.18603855512984" lon="15.549645239970117"><ele>35.0</ele><time>2026-03-27T14:34:15.999Z</time></trkpt><trkpt lat="38.186023904153245" lon="15.549559792906972"><ele>35.0</ele><time>2026-03-27T14:34:16.999Z</time></trkpt><trkpt lat="38.186005834927535" lon="15.549470729889894"><ele>35.0</ele><time>2026-03-27T14:34:17.999Z</time></trkpt><trkpt lat="38.18598872294931" lon="15.549366322069398"><ele>35.0</ele><time>2026-03-27T14:34:18.999Z</time></trkpt><trkpt lat="38.1859703367522" lon="15.549267803245753"><ele>35.83333333333333</ele><time>2026-03-27T14:34:19.999Z</time></trkpt><trkpt lat="38.185950893543776" lon="15.549169920306744"><ele>36.666666666666664</ele><time>2026-03-27T14:34:20.999Z</time></trkpt><trkpt lat="38.185931655625375" lon="15.549066416771039"><ele>37.5</ele><time>2026-03-27T14:34:21.999Z</time></trkpt><trkpt lat="38.185916766100746" lon="15.548957906508885"><ele>38.333333333333336</ele><time>2026-03-27T14:34:22.999Z</time></trkpt><trkpt lat="38.18589184878657" lon="15.548853838564266"><ele>39.16666666666667</ele><time>2026-03-27T14:34:23.999Z</time></trkpt><trkpt lat="38.185879204240216" lon="15.548759350531263"><ele>40.0</ele><time>2026-03-27T14:34:24.999Z</time></trkpt><trkpt lat="38.18586022638787" lon="15.548650826551189"><ele>41.0</ele><time>2026-03-27T14:34:25.999Z</time></trkpt><trkpt lat="38.185842247534495" lon="15.548543643523221"><ele>42.0</ele><time>2026-03-27T14:34:26.999Z</time></trkpt><trkpt lat="38.185817125736804" lon="15.548433969729881"><ele>43.0</ele><time>2026-03-27T14:34:27.999Z</time></trkpt><trkpt lat="38.18579805919777" lon="15.548321249699699"><ele>44.0</ele><time>2026-03-27T14:34:28.999Z</time></trkpt><trkpt lat="38.18577958070223" lon="15.548198474116697"><ele>45.0</ele><time>2026-03-27T14:34:29.999Z</time></trkpt><trkpt lat="38.185753770346395" lon="15.54807265487806"><ele>45.0</ele><time>2026-03-27T14:34:30.999Z</time></trkpt><trkpt lat="38.18572342542611" lon="15.547941001005112"><ele>45.0</ele><time>2026-03-27T14:34:31.999Z</time></trkpt><trkpt lat="38.18569050947664" lon="15.547828121010117"><ele>45.0</ele><time>2026-03-27T14:34:32.999Z</time></trkpt><trkpt lat="38.18567669734984" lon="15.547723172765858"><ele>45.0</ele><time>2026-03-27T14:34:33.999Z</time></trkpt><trkpt lat="38.1856602362459" lon="15.547638522839398"><ele>45.0</ele><time>2026-03-27T14:34:34.999Z</time></trkpt><trkpt lat="38.18563765787629" lon="15.547516380678058"><ele>44.2</ele><time>2026-03-27T14:34:36.999Z</time></trkpt><trkpt lat="38.18561558339968" lon="15.547384144013531"><ele>43.4</ele><time>2026-03-27T14:34:38.999Z</time></trkpt><trkpt lat="38.185589918878755" lon="15.547283153859155"><ele>42.599999999999994</ele><time>2026-03-27T14:34:39.999Z</time></trkpt><trkpt lat="38.1855796812032" lon="15.54717172892149"><ele>41.8</ele><time>2026-03-27T14:34:40.999Z</time></trkpt><trkpt lat="38.18554360863054" lon="15.54704947063751"><ele>41.0</ele><time>2026-03-27T14:34:41.999Z</time></trkpt><trkpt lat="38.18552630252202" lon="15.546942281680534"><ele>41.0</ele><time>2026-03-27T14:34:42.999Z</time></trkpt><trkpt lat="38.185523802876894" lon="15.546843451709394"><ele>41.0</ele><time>2026-03-27T14:34:43.999Z</time></trkpt><trkpt lat="38.18550795502329" lon="15.546752676949726"><ele>41.0</ele><time>2026-03-27T14:34:44.999Z</time></trkpt><trkpt lat="38.185489330069245" lon="15.546654751879993"><ele>41.0</ele><time>2026-03-27T14:34:45.999Z</time></trkpt><trkpt lat="38.18546774297426" lon="15.546539006506567"><ele>41.0</ele><time>2026-03-27T14:34:46.999Z</time></trkpt><trkpt lat="38.18544747593632" lon="15.546430338878674"><ele>41.0</ele><time>2026-03-27T14:34:47.999Z</time></trkpt><trkpt lat="38.18541853360027" lon="15.5463161488994"><ele>41.599999999999994</ele><time>2026-03-27T14:34:48.999Z</time></trkpt><trkpt lat="38.1853919090081" lon="15.54619176879652"><ele>42.2</ele><time>2026-03-27T14:34:50Z</time></trkpt><trkpt lat="38.18537729168246" lon="15.546057891066775"><ele>42.8</ele><time>2026-03-27T14:34:51Z</time></trkpt><trkpt lat="38.18535175468394" lon="15.545922556030705"><ele>43.400000000000006</ele><time>2026-03-27T14:34:52Z</time></trkpt><trkpt lat="38.18531583933183" lon="15.545787131026907"><ele>44.0</ele><time>2026-03-27T14:34:53Z</time></trkpt><trkpt lat="38.185284753749286" lon="15.545645102674154"><ele>44.0</ele><time>2026-03-27T14:34:54Z</time></trkpt><trkpt lat="38.18526205322763" lon="15.545498761482518"><ele>44.0</ele><time>2026-03-27T14:34:55Z</time></trkpt><trkpt lat="38.18523096554912" lon="15.54535094341988"><ele>44.0</ele><time>2026-03-27T14:34:56Z</time></trkpt><trkpt lat="38.185203834885755" lon="15.545197948165013"><ele>44.0</ele><time>2026-03-27T14:34:57Z</time></trkpt><trkpt lat="38.18517982644463" lon="15.545060348646507"><ele>44.400000000000006</ele><time>2026-03-27T14:34:58Z</time></trkpt><trkpt lat="38.18515433725325" lon="15.544929637757425"><ele>44.8</ele><time>2026-03-27T14:34:59Z</time></trkpt><trkpt lat="38.18512863591689" lon="15.54479982198411"><ele>45.2</ele><time>2026-03-27T14:35:00Z</time></trkpt><trkpt lat="38.185105102023115" lon="15.544664028369588"><ele>45.599999999999994</ele><time>2026-03-27T14:35:01Z</time></trkpt><trkpt lat="38.185088033412406" lon="15.544521790342433"><ele>46.0</ele><time>2026-03-27T14:35:02Z</time></trkpt><trkpt lat="38.18507742909248" lon="15.54437653678947"><ele>47.0</ele><time>2026-03-27T14:35:03Z</time></trkpt><trkpt lat="38.185069049936835" lon="15.544223731364678"><ele>48.0</ele><time>2026-03-27T14:35:04Z</time></trkpt><trkpt lat="38.18505925469933" lon="15.54407472964157"><ele>49.0</ele><time>2026-03-27T14:35:05Z</time></trkpt><trkpt lat="38.18505145250992" lon="15.543941474194245"><ele>50.0</ele><time>2026-03-27T14:35:06Z</time></trkpt><trkpt lat="38.18504485170965" lon="15.543819675799606"><ele>51.0</ele><time>2026-03-27T14:35:07Z</time></trkpt><trkpt lat="38.1850385335154" lon="15.54369326175771"><ele>51.199999999999996</ele><time>2026-03-27T14:35:08Z</time></trkpt><trkpt lat="38.18503192253386" lon="15.543558529984892"><ele>51.4</ele><time>2026-03-27T14:35:09Z</time></trkpt><trkpt lat="38.18502375045319" lon="15.543417272031784"><ele>51.6</ele><time>2026-03-27T14:35:10Z</time></trkpt><trkpt lat="38.18502194784064" lon="15.543275818769825"><ele>51.8</ele><time>2026-03-27T14:35:11Z</time></trkpt><trkpt lat="38.185023705564774" lon="15.543147668580069"><ele>52.0</ele><time>2026-03-27T14:35:12Z</time></trkpt><trkpt lat="38.18503309464823" lon="15.543026210765877"><ele>52.0</ele><time>2026-03-27T14:35:13Z</time></trkpt><trkpt lat="38.185051376722335" lon="15.542895728217998"><ele>52.0</ele><time>2026-03-27T14:35:14Z</time></trkpt><trkpt lat="38.185066170769325" lon="15.542767296460347"><ele>52.0</ele><time>2026-03-27T14:35:15Z</time></trkpt><trkpt lat="38.18508055977648" lon="15.542649177499923"><ele>52.0</ele><time>2026-03-27T14:35:16Z</time></trkpt><trkpt lat="38.18509327668545" lon="15.542534839004391"><ele>52.0</ele><time>2026-03-27T14:35:17Z</time></trkpt><trkpt lat="38.18510503460148" lon="15.542426121025677"><ele>52.400000000000006</ele><time>2026-03-27T14:35:18Z</time></trkpt><trkpt lat="38.18511174660684" lon="15.54232066837534"><ele>52.800000000000004</ele><time>2026-03-27T14:35:19Z</time></trkpt><trkpt lat="38.18511544334421" lon="15.542222872655506"><ele>53.2</ele><time>2026-03-27T14:35:20Z</time></trkpt><trkpt lat="38.185111320371604" lon="15.542079376243983"><ele>53.6</ele><time>2026-03-27T14:35:21Z</time></trkpt><trkpt lat="38.18511020800321" lon="15.541905152922002"><ele>54.0</ele><time>2026-03-27T14:35:23Z</time></trkpt><trkpt lat="38.1851055468274" lon="15.541819097852569"><ele>55.2</ele><time>2026-03-27T14:35:24Z</time></trkpt><trkpt lat="38.185098883539844" lon="15.541679330145463"><ele>56.400000000000006</ele><time>2026-03-27T14:35:26Z</time></trkpt><trkpt lat="38.18509497821031" lon="15.541555526270141"><ele>57.6</ele><time>2026-03-27T14:35:28Z</time></trkpt><trkpt lat="38.18508133791634" lon="15.541433920749835"><ele>58.8</ele><time>2026-03-27T14:35:30Z</time></trkpt><trkpt lat="38.185062712856706" lon="15.541293708071382"><ele>60.0</ele><time>2026-03-27T14:35:32Z</time></trkpt><trkpt lat="38.18505069954832" lon="15.541159568082811"><ele>60.2</ele><time>2026-03-27T14:35:34Z</time></trkpt><trkpt lat="38.18504074746843" lon="15.541059618826173"><ele>60.4</ele><time>2026-03-27T14:35:36Z</time></trkpt><trkpt lat="38.18507554100124" lon="15.540946896199994"><ele>60.599999999999994</ele><time>2026-03-27T14:35:38Z</time></trkpt><trkpt lat="38.18511098828878" lon="15.540878332029632"><ele>60.8</ele><time>2026-03-27T14:35:39Z</time></trkpt><trkpt lat="38.185191903265455" lon="15.540776701496766"><ele>61.0</ele><time>2026-03-27T14:35:41Z</time></trkpt><trkpt lat="38.185261002712856" lon="15.5406869837413"><ele>61.0</ele><time>2026-03-27T14:35:43Z</time></trkpt><trkpt lat="38.18533377983206" lon="15.54057963374756"><ele>60.99999999999999</ele><time>2026-03-27T14:35:45Z</time></trkpt><trkpt lat="38.18541550501796" lon="15.54049374705402"><ele>60.99999999999999</ele><time>2026-03-27T14:35:46.999Z</time></trkpt><trkpt lat="38.1854744669784" lon="15.540439897802903"><ele>61.0</ele><time>2026-03-27T14:35:48.999Z</time></trkpt><trkpt lat="38.1855606792783" lon="15.540313755198168"><ele>61.0</ele><time>2026-03-27T14:35:50.999Z</time></trkpt><trkpt lat="38.18558769900871" lon="15.540216617146777"><ele>60.85714285714285</ele><time>2026-03-27T14:35:52.999Z</time></trkpt><trkpt lat="38.185623180643304" lon="15.54011794191901"><ele>60.71428571428571</ele><time>2026-03-27T14:35:54.999Z</time></trkpt><trkpt lat="38.18565652876098" lon="15.540005099380112"><ele>60.57142857142857</ele><time>2026-03-27T14:35:56.999Z</time></trkpt><trkpt lat="38.18569217752393" lon="15.539926520986734"><ele>60.42857142857142</ele><time>2026-03-27T14:35:58.999Z</time></trkpt><trkpt lat="38.18573588250833" lon="15.539864823179014"><ele>60.28571428571428</ele><time>2026-03-27T14:36:01.999Z</time></trkpt><trkpt lat="38.185774821092316" lon="15.5397966380503"><ele>60.142857142857146</ele><time>2026-03-27T14:37:10Z</time></trkpt><trkpt lat="38.18581494285819" lon="15.539732002833693"><ele>60.0</ele><time>2026-03-27T14:37:12Z</time></trkpt><trkpt lat="38.1858509917179" lon="15.539656870151266"><ele>61.166666666666664</ele><time>2026-03-27T14:37:14Z</time></trkpt><trkpt lat="38.18590048460831" lon="15.539567399260328"><ele>62.33333333333333</ele><time>2026-03-27T14:37:16Z</time></trkpt><trkpt lat="38.18595007009206" lon="15.539487098437847"><ele>63.5</ele><time>2026-03-27T14:37:19Z</time></trkpt><trkpt lat="38.18599109171734" lon="15.539417565051439"><ele>64.66666666666666</ele><time>2026-03-27T14:37:22Z</time></trkpt><trkpt lat="38.186020199762254" lon="15.539327778408417"><ele>65.83333333333333</ele><time>2026-03-27T14:38:55.999Z</time></trkpt><trkpt lat="38.186074380562005" lon="15.539244742699255"><ele>67.0</ele><time>2026-03-27T14:38:57.999Z</time></trkpt><trkpt lat="38.18615138448399" lon="15.53909325328789"><ele>67.0</ele><time>2026-03-27T14:38:59.999Z</time></trkpt><trkpt lat="38.18612386872813" lon="15.538922127745261"><ele>67.0</ele><time>2026-03-27T14:39:00.999Z</time></trkpt><trkpt lat="38.18617820614065" lon="15.53879197251636"><ele>67.0</ele><time>2026-03-27T14:39:02Z</time></trkpt><trkpt lat="38.18623527029066" lon="15.53864935101094"><ele>67.0</ele><time>2026-03-27T14:39:03Z</time></trkpt><trkpt lat="38.1862934860636" lon="15.538496084972184"><ele>67.75</ele><time>2026-03-27T14:39:04Z</time></trkpt><trkpt lat="38.18635479112034" lon="15.538334784870848"><ele>68.5</ele><time>2026-03-27T14:39:05Z</time></trkpt><trkpt lat="38.18641772270556" lon="15.538165979317078"><ele>69.25</ele><time>2026-03-27T14:39:06Z</time></trkpt><trkpt lat="38.18648023792742" lon="15.537992506618675"><ele>70.0</ele><time>2026-03-27T14:39:07Z</time></trkpt><trkpt lat="38.18654262701662" lon="15.537815889227073"><ele>70.75</ele><time>2026-03-27T14:39:08Z</time></trkpt><trkpt lat="38.186601587151834" lon="15.537643301047764"><ele>71.5</ele><time>2026-03-27T14:39:09Z</time></trkpt><trkpt lat="38.18665584267919" lon="15.537469405910555"><ele>72.25</ele><time>2026-03-27T14:39:10Z</time></trkpt><trkpt lat="38.18670650743228" lon="15.537292162563615"><ele>73.0</ele><time>2026-03-27T14:39:11Z</time></trkpt><trkpt lat="38.18684188294181" lon="15.537148575373166"><ele>73.33333333333333</ele><time>2026-03-27T14:39:12Z</time></trkpt><trkpt lat="38.18679780719374" lon="15.536925801291781"><ele>73.66666666666667</ele><time>2026-03-27T14:39:13Z</time></trkpt><trkpt lat="38.18683857378011" lon="15.536738814184261"><ele>74.0</ele><time>2026-03-27T14:39:14Z</time></trkpt><trkpt lat="38.18688088243655" lon="15.536552637497838"><ele>74.0</ele><time>2026-03-27T14:39:15Z</time></trkpt><trkpt lat="38.18692126875659" lon="15.536369730676741"><ele>74.0</ele><time>2026-03-27T14:39:16Z</time></trkpt><trkpt lat="38.18695980742877" lon="15.536186828686613"><ele>74.0</ele><time>2026-03-27T14:39:17Z</time></trkpt><trkpt lat="38.1869959458731" lon="15.536001495630762"><ele>74.0</ele><time>2026-03-27T14:39:18Z</time></trkpt><trkpt lat="38.18702928904572" lon="15.535814474996593"><ele>74.5</ele><time>2026-03-27T14:39:19Z</time></trkpt><trkpt lat="38.1870563680645" lon="15.535629775485365"><ele>75.0</ele><time>2026-03-27T14:39:20Z</time></trkpt><trkpt lat="38.18707626607209" lon="15.535456607234725"><ele>75.5</ele><time>2026-03-27T14:39:21Z</time></trkpt><trkpt lat="38.1870915128962" lon="15.535295400885518"><ele>76.0</ele><time>2026-03-27T14:39:22Z</time></trkpt><trkpt lat="38.18710487196526" lon="15.535130953228528"><ele>76.25</ele><time>2026-03-27T14:39:23Z</time></trkpt><trkpt lat="38.18711786739908" lon="15.534963496844517"><ele>76.5</ele><time>2026-03-27T14:39:24Z</time></trkpt><trkpt lat="38.187132825095425" lon="15.534809391259145"><ele>76.75</ele><time>2026-03-27T14:39:25Z</time></trkpt><trkpt lat="38.18714674829979" lon="15.534669852783571"><ele>77.0</ele><time>2026-03-27T14:39:26Z</time></trkpt><trkpt lat="38.187158590513064" lon="15.534549199750154"><ele>77.5</ele><time>2026-03-27T14:39:27Z</time></trkpt><trkpt lat="38.18716744105541" lon="15.53444835091085"><ele>78.0</ele><time>2026-03-27T14:39:28Z</time></trkpt><trkpt lat="38.187173092632115" lon="15.534366668143788"><ele>78.5</ele><time>2026-03-27T14:39:29Z</time></trkpt><trkpt lat="38.18716427788356" lon="15.53419996702819"><ele>79.0</ele><time>2026-03-27T14:39:31Z</time></trkpt><trkpt lat="38.18715813586806" lon="15.534119498762328"><ele>79.5</ele><time>2026-03-27T14:39:32Z</time></trkpt><trkpt lat="38.18716664606394" lon="15.534021421169815"><ele>80.0</ele><time>2026-03-27T14:39:34Z</time></trkpt><trkpt lat="38.18717430765891" lon="15.533914444119205"><ele>80.0</ele><time>2026-03-27T14:39:39Z</time></trkpt><trkpt lat="38.18717806250618" lon="15.533807737490246"><ele>80.0</ele><time>2026-03-27T14:39:41Z</time></trkpt><trkpt lat="38.1871892688748" lon="15.533682867134798"><ele>80.0</ele><time>2026-03-27T14:39:43Z</time></trkpt><trkpt lat="38.187215483879484" lon="15.533543133885223"><ele>80.0</ele><time>2026-03-27T14:39:45Z</time></trkpt><trkpt lat="38.1872442089421" lon="15.533395786954056"><ele>80.0</ele><time>2026-03-27T14:39:47Z</time></trkpt><trkpt lat="38.18726222696724" lon="15.533315338431509"><ele>80.6</ele><time>2026-03-27T14:39:48Z</time></trkpt><trkpt lat="38.187286965816355" lon="15.533219335243707"><ele>81.2</ele><time>2026-03-27T14:39:49Z</time></trkpt><trkpt lat="38.187322032166165" lon="15.533097322974182"><ele>81.80000000000001</ele><time>2026-03-27T14:39:50Z</time></trkpt><trkpt lat="38.1873600634306" lon="15.532956115125021"><ele>82.4</ele><time>2026-03-27T14:39:51Z</time></trkpt><trkpt lat="38.18739493403443" lon="15.532802805767288"><ele>83.0</ele><time>2026-03-27T14:39:52Z</time></trkpt><trkpt lat="38.187426188824396" lon="15.532643568830723"><ele>84.5</ele><time>2026-03-27T14:39:53Z</time></trkpt><trkpt lat="38.18745722644694" lon="15.532485964428155"><ele>86.0</ele><time>2026-03-27T14:39:54Z</time></trkpt><trkpt lat="38.18748685808169" lon="15.532337311098608"><ele>87.5</ele><time>2026-03-27T14:39:55Z</time></trkpt><trkpt lat="38.187518659634314" lon="15.532190529306469"><ele>89.0</ele><time>2026-03-27T14:39:56Z</time></trkpt><trkpt lat="38.18755080195175" lon="15.532039420739435"><ele>89.75</ele><time>2026-03-27T14:39:57Z</time></trkpt><trkpt lat="38.18758529582635" lon="15.531885323666538"><ele>90.5</ele><time>2026-03-27T14:39:58Z</time></trkpt><trkpt lat="38.18762042001619" lon="15.531729301346488"><ele>91.25</ele><time>2026-03-27T14:39:59Z</time></trkpt><trkpt lat="38.18765481750731" lon="15.531572175412318"><ele>92.0</ele><time>2026-03-27T14:40:00Z</time></trkpt><trkpt lat="38.187686840144" lon="15.531420371591276"><ele>92.0</ele><time>2026-03-27T14:40:01Z</time></trkpt><trkpt lat="38.187716572589" lon="15.531265275472554"><ele>92.0</ele><time>2026-03-27T14:40:02Z</time></trkpt><trkpt lat="38.18774434944079" lon="15.531107557299887"><ele>92.0</ele><time>2026-03-27T14:40:03Z</time></trkpt><trkpt lat="38.18777436022877" lon="15.530949947954838"><ele>92.0</ele><time>2026-03-27T14:40:04Z</time></trkpt><trkpt lat="38.1878053831921" lon="15.53078538560596"><ele>92.25</ele><time>2026-03-27T14:40:05Z</time></trkpt><trkpt lat="38.187838071241615" lon="15.530609886590662"><ele>92.5</ele><time>2026-03-27T14:40:06Z</time></trkpt><trkpt lat="38.1878706144749" lon="15.530426069491217"><ele>92.75</ele><time>2026-03-27T14:40:07Z</time></trkpt><trkpt lat="38.18790496083989" lon="15.530237265696064"><ele>93.0</ele><time>2026-03-27T14:40:08Z</time></trkpt><trkpt lat="38.18794034297187" lon="15.530047369641412"><ele>93.33333333333333</ele><time>2026-03-27T14:40:09Z</time></trkpt><trkpt lat="38.187980758729765" lon="15.529849587767986"><ele>93.66666666666666</ele><time>2026-03-27T14:40:10Z</time></trkpt><trkpt lat="38.18802502411443" lon="15.529650162556694"><ele>94.0</ele><time>2026-03-27T14:40:11Z</time></trkpt><trkpt lat="38.188066816680276" lon="15.529455062495988"><ele>95.0</ele><time>2026-03-27T14:40:12Z</time></trkpt><trkpt lat="38.18809928640226" lon="15.529273043939376"><ele>96.0</ele><time>2026-03-27T14:40:13Z</time></trkpt><trkpt lat="38.18812353066023" lon="15.52910191285063"><ele>97.0</ele><time>2026-03-27T14:40:14Z</time></trkpt><trkpt lat="38.188142955071896" lon="15.528952709833428"><ele>98.0</ele><time>2026-03-27T14:40:15Z</time></trkpt><trkpt lat="38.18815930276929" lon="15.528821961133605"><ele>99.49999999999999</ele><time>2026-03-27T14:40:16Z</time></trkpt><trkpt lat="38.1881747715046" lon="15.528702385934292"><ele>101.0</ele><time>2026-03-27T14:40:17Z</time></trkpt><trkpt lat="38.18818737594004" lon="15.528600265916209"><ele>102.5</ele><time>2026-03-27T14:40:18Z</time></trkpt><trkpt lat="38.188196758984304" lon="15.528514175619813"><ele>104.0</ele><time>2026-03-27T14:40:19Z</time></trkpt><trkpt lat="38.18821568281387" lon="15.528383576026206"><ele>105.49999999999999</ele><time>2026-03-27T14:40:21Z</time></trkpt><trkpt lat="38.18821879550198" lon="15.528301151488236"><ele>107.0</ele><time>2026-03-27T14:40:22.999Z</time></trkpt><trkpt lat="38.18822410669925" lon="15.528188307836093"><ele>107.0</ele><time>2026-03-27T14:41:39Z</time></trkpt><trkpt lat="38.18824444048637" lon="15.5280382545823"><ele>106.99999999999999</ele><time>2026-03-27T14:41:41Z</time></trkpt><trkpt lat="38.18825841809191" lon="15.527939207210654"><ele>106.99999999999999</ele><time>2026-03-27T14:41:42Z</time></trkpt><trkpt lat="38.18827712349848" lon="15.52782551601535"><ele>107.0</ele><time>2026-03-27T14:41:43Z</time></trkpt><trkpt lat="38.188301675954435" lon="15.527704010660207"><ele>107.0</ele><time>2026-03-27T14:41:44Z</time></trkpt><trkpt lat="38.18833121814288" lon="15.527577639802292"><ele>106.6</ele><time>2026-03-27T14:41:45Z</time></trkpt><trkpt lat="38.18836345900209" lon="15.527452428799496"><ele>106.19999999999999</ele><time>2026-03-27T14:41:46Z</time></trkpt><trkpt lat="38.18839399075738" lon="15.527340156874955"><ele>105.8</ele><time>2026-03-27T14:41:47Z</time></trkpt><trkpt lat="38.18842981858105" lon="15.527225573806492"><ele>105.4</ele><time>2026-03-27T14:41:48Z</time></trkpt><trkpt lat="38.188474622303424" lon="15.527109754480989"><ele>105.0</ele><time>2026-03-27T14:41:49Z</time></trkpt><trkpt lat="38.1885235507134" lon="15.526986552786692"><ele>106.5</ele><time>2026-03-27T14:41:50Z</time></trkpt><trkpt lat="38.188577886307456" lon="15.526858212043877"><ele>108.0</ele><time>2026-03-27T14:41:51Z</time></trkpt><trkpt lat="38.18863698381297" lon="15.526726434351286"><ele>109.5</ele><time>2026-03-27T14:41:52Z</time></trkpt><trkpt lat="38.1886949071116" lon="15.526601091504"><ele>111.0</ele><time>2026-03-27T14:41:53Z</time></trkpt><trkpt lat="38.188752648227" lon="15.526479969553785"><ele>111.0</ele><time>2026-03-27T14:41:54Z</time></trkpt><trkpt lat="38.18881148625401" lon="15.52635369092617"><ele>111.0</ele><time>2026-03-27T14:41:55Z</time></trkpt><trkpt lat="38.18887495449991" lon="15.526222938630722"><ele>111.0</ele><time>2026-03-27T14:41:56Z</time></trkpt><trkpt lat="38.18893417906935" lon="15.526099810701323"><ele>111.0</ele><time>2026-03-27T14:41:57Z</time></trkpt><trkpt lat="38.188984617898235" lon="15.525990157524074"><ele>111.0</ele><time>2026-03-27T14:41:58Z</time></trkpt><trkpt lat="38.18902465689519" lon="15.525890296246295"><ele>111.16666666666667</ele><time>2026-03-27T14:41:59Z</time></trkpt><trkpt lat="38.1890470560763" lon="15.525788869192175"><ele>111.33333333333334</ele><time>2026-03-27T14:42:00Z</time></trkpt><trkpt lat="38.189048002367066" lon="15.52568707115165"><ele>111.5</ele><time>2026-03-27T14:42:01Z</time></trkpt><trkpt lat="38.18902835153402" lon="15.52559075058441"><ele>111.66666666666667</ele><time>2026-03-27T14:42:02Z</time></trkpt><trkpt lat="38.188986956541406" lon="15.525499956637669"><ele>111.83333333333334</ele><time>2026-03-27T14:42:03Z</time></trkpt><trkpt lat="38.18892374719726" lon="15.525418635202366"><ele>112.0</ele><time>2026-03-27T14:42:04Z</time></trkpt><trkpt lat="38.188838743391315" lon="15.525336338417926"><ele>113.75</ele><time>2026-03-27T14:42:05Z</time></trkpt><trkpt lat="38.18873749656117" lon="15.525249775877084"><ele>115.5</ele><time>2026-03-27T14:42:06Z</time></trkpt><trkpt lat="38.188628673550255" lon="15.525163635103654"><ele>117.25</ele><time>2026-03-27T14:42:07Z</time></trkpt><trkpt lat="38.18850975931451" lon="15.525087474295256"><ele>119.0</ele><time>2026-03-27T14:42:08Z</time></trkpt><trkpt lat="38.188381627166194" lon="15.52502558498416"><ele>119.0</ele><time>2026-03-27T14:42:09Z</time></trkpt><trkpt lat="38.18824642998488" lon="15.524981754159636"><ele>119.0</ele><time>2026-03-27T14:42:10Z</time></trkpt><trkpt lat="38.188106641517656" lon="15.524957898551266"><ele>119.0</ele><time>2026-03-27T14:42:11Z</time></trkpt><trkpt lat="38.18796368096506" lon="15.524950295185798"><ele>119.0</ele><time>2026-03-27T14:42:12Z</time></trkpt><trkpt lat="38.18782165397496" lon="15.524962691650483"><ele>122.0</ele><time>2026-03-27T14:42:13Z</time></trkpt><trkpt lat="38.18769038699226" lon="15.524992139321451"><ele>125.0</ele><time>2026-03-27T14:42:14Z</time></trkpt><trkpt lat="38.18756569544475" lon="15.525032093163091"><ele>128.0</ele><time>2026-03-27T14:42:15Z</time></trkpt><trkpt lat="38.18744415309866" lon="15.525081319173815"><ele>131.0</ele><time>2026-03-27T14:42:16Z</time></trkpt><trkpt lat="38.18732124399997" lon="15.525104526976218"><ele>131.0</ele><time>2026-03-27T14:42:17Z</time></trkpt><trkpt lat="38.18721594292585" lon="15.525217021740742"><ele>131.0</ele><time>2026-03-27T14:42:18Z</time></trkpt><trkpt lat="38.1871087354297" lon="15.525311581926275"><ele>131.0</ele><time>2026-03-27T14:42:19Z</time></trkpt><trkpt lat="38.187009197633394" lon="15.525421012815402"><ele>131.0</ele><time>2026-03-27T14:42:20Z</time></trkpt><trkpt lat="38.18691350901688" lon="15.525535858938026"><ele>131.0</ele><time>2026-03-27T14:42:21Z</time></trkpt><trkpt lat="38.18681971640337" lon="15.525648058219213"><ele>131.0</ele><time>2026-03-27T14:42:22Z</time></trkpt><trkpt lat="38.1867222807538" lon="15.52574977205793"><ele>131.0</ele><time>2026-03-27T14:42:23Z</time></trkpt><trkpt lat="38.18662500324403" lon="15.52583278760196"><ele>131.0</ele><time>2026-03-27T14:42:24Z</time></trkpt><trkpt lat="38.186525611696084" lon="15.525883754309024"><ele>132.2</ele><time>2026-03-27T14:42:25Z</time></trkpt><trkpt lat="38.18642399382331" lon="15.525902713476455"><ele>133.39999999999998</ele><time>2026-03-27T14:42:26Z</time></trkpt><trkpt lat="38.186322937005045" lon="15.525887456492447"><ele>134.6</ele><time>2026-03-27T14:42:26.999Z</time></trkpt><trkpt lat="38.18621875688883" lon="15.525848183859235"><ele>135.79999999999998</ele><time>2026-03-27T14:42:27.999Z</time></trkpt><trkpt lat="38.18611174269889" lon="15.525786182935503"><ele>137.0</ele><time>2026-03-27T14:42:28.999Z</time></trkpt><trkpt lat="38.185996863277644" lon="15.525709037561215"><ele>137.0</ele><time>2026-03-27T14:42:29.999Z</time></trkpt><trkpt lat="38.18587603690468" lon="15.525620920942846"><ele>137.0</ele><time>2026-03-27T14:42:30.999Z</time></trkpt><trkpt lat="38.18574616508586" lon="15.525525870864795"><ele>137.0</ele><time>2026-03-27T14:42:31.999Z</time></trkpt><trkpt lat="38.18560421051916" lon="15.525429527280261"><ele>139.33333333333331</ele><time>2026-03-27T14:42:32.999Z</time></trkpt><trkpt lat="38.18544731055133" lon="15.52533251453653"><ele>141.66666666666666</ele><time>2026-03-27T14:42:33.999Z</time></trkpt><trkpt lat="38.185275454744925" lon="15.52524506572675"><ele>144.0</ele><time>2026-03-27T14:42:34.999Z</time></trkpt><trkpt lat="38.18509085473591" lon="15.525162323647633"><ele>144.0</ele><time>2026-03-27T14:42:35.999Z</time></trkpt><trkpt lat="38.184899086741005" lon="15.525088399285497"><ele>144.0</ele><time>2026-03-27T14:42:36.999Z</time></trkpt><trkpt lat="38.184702163909826" lon="15.525025059427564"><ele>144.0</ele><time>2026-03-27T14:42:37.999Z</time></trkpt><trkpt lat="38.18450295537352" lon="15.524969138456399"><ele>148.33333333333334</ele><time>2026-03-27T14:42:38.999Z</time></trkpt><trkpt lat="38.18429904712065" lon="15.524918945053612"><ele>152.66666666666669</ele><time>2026-03-27T14:42:39.999Z</time></trkpt><trkpt lat="38.18409259557499" lon="15.524877735550984"><ele>157.0</ele><time>2026-03-27T14:42:40.999Z</time></trkpt><trkpt lat="38.18388618472138" lon="15.524846900335701"><ele>163.0</ele><time>2026-03-27T14:42:41.999Z</time></trkpt><trkpt lat="38.18368356374379" lon="15.524831058660762"><ele>169.0</ele><time>2026-03-27T14:42:42.999Z</time></trkpt><trkpt lat="38.18348447427877" lon="15.524825797318037"><ele>175.0</ele><time>2026-03-27T14:42:43.999Z</time></trkpt><trkpt lat="38.18328490835381" lon="15.524832783762513"><ele>183.66666666666669</ele><time>2026-03-27T14:42:44.999Z</time></trkpt><trkpt lat="38.183084550647806" lon="15.524847620104019"><ele>192.33333333333334</ele><time>2026-03-27T14:42:45.999Z</time></trkpt><trkpt lat="38.18288360993453" lon="15.524872056197752"><ele>201.0</ele><time>2026-03-27T14:42:46.999Z</time></trkpt><trkpt lat="38.18261323359366" lon="15.524887997865568"><ele>201.0</ele><time>2026-03-27T14:42:47.999Z</time></trkpt><trkpt lat="38.182407244014435" lon="15.524923077102672"><ele>201.0</ele><time>2026-03-27T14:42:48.999Z</time></trkpt><trkpt lat="38.182197234553996" lon="15.52495753666591"><ele>201.0</ele><time>2026-03-27T14:42:50.072Z</time></trkpt><trkpt lat="38.180269125420814" lon="15.525042344388147"><ele>178.0</ele><time>2026-03-27T14:42:58.999Z</time></trkpt><trkpt lat="38.1800402039796" lon="15.525038203139468"><ele>155.0</ele><time>2026-03-27T14:42:59.999Z</time></trkpt><trkpt lat="38.179774813727626" lon="15.525094851508923"><ele>150.0</ele><time>2026-03-27T14:43:00.999Z</time></trkpt><trkpt lat="38.17955299783837" lon="15.525049773660172"><ele>145.0</ele><time>2026-03-27T14:43:01.999Z</time></trkpt><trkpt lat="38.17932047095597" lon="15.524991954893991"><ele>145.0</ele><time>2026-03-27T14:43:02.999Z</time></trkpt><trkpt lat="38.17909408285335" lon="15.524924642799101"><ele>145.0</ele><time>2026-03-27T14:43:03.999Z</time></trkpt><trkpt lat="38.178887651209536" lon="15.524858080807258"><ele>145.0</ele><time>2026-03-27T14:43:04.999Z</time></trkpt><trkpt lat="38.178664042161" lon="15.524768665856302"><ele>148.0</ele><time>2026-03-27T14:43:05.999Z</time></trkpt><trkpt lat="38.17844663021717" lon="15.52466734719296"><ele>151.0</ele><time>2026-03-27T14:43:06.999Z</time></trkpt><trkpt lat="38.17823451647609" lon="15.524553005937952"><ele>167.5</ele><time>2026-03-27T14:43:07.999Z</time></trkpt><trkpt lat="38.178027442114214" lon="15.524426861201116"><ele>184.0</ele><time>2026-03-27T14:43:08.999Z</time></trkpt><trkpt lat="38.17782302345408" lon="15.524288203323877"><ele>184.0</ele><time>2026-03-27T14:43:09.999Z</time></trkpt><trkpt lat="38.17762191557762" lon="15.524136293693056"><ele>184.0</ele><time>2026-03-27T14:43:10.999Z</time></trkpt><trkpt lat="38.17742540688415" lon="15.523972505206505"><ele>164.5</ele><time>2026-03-27T14:43:11.999Z</time></trkpt><trkpt lat="38.1772385499147" lon="15.523797464995752"><ele>145.0</ele><time>2026-03-27T14:43:12.999Z</time></trkpt><trkpt lat="38.177062356428344" lon="15.523615460453826"><ele>141.66666666666669</ele><time>2026-03-27T14:43:14Z</time></trkpt><trkpt lat="38.17689538170295" lon="15.52342628851936"><ele>138.33333333333334</ele><time>2026-03-27T14:43:15Z</time></trkpt><trkpt lat="38.176737221206714" lon="15.523229968634572"><ele>135.0</ele><time>2026-03-27T14:43:16Z</time></trkpt><trkpt lat="38.17656337801663" lon="15.52302434836472"><ele>124.5</ele><time>2026-03-27T14:43:17Z</time></trkpt><trkpt lat="38.17639047157617" lon="15.522785881873721"><ele>114.0</ele><time>2026-03-27T14:43:18Z</time></trkpt><trkpt lat="38.176241456868276" lon="15.522541951520715"><ele>114.0</ele><time>2026-03-27T14:43:19Z</time></trkpt><trkpt lat="38.17610501589665" lon="15.52229666420759"><ele>114.0</ele><time>2026-03-27T14:43:20Z</time></trkpt><trkpt lat="38.175976308706055" lon="15.52204644945311"><ele>116.5</ele><time>2026-03-27T14:43:21Z</time></trkpt><trkpt lat="38.17585148141025" lon="15.521790540017518"><ele>119.0</ele><time>2026-03-27T14:43:22Z</time></trkpt><trkpt lat="38.17572684898544" lon="15.521534230752215"><ele>120.0</ele><time>2026-03-27T14:43:23Z</time></trkpt><trkpt lat="38.17559674988868" lon="15.521274394366676"><ele>121.0</ele><time>2026-03-27T14:43:24Z</time></trkpt><trkpt lat="38.17546432588605" lon="15.52100885208498"><ele>121.0</ele><time>2026-03-27T14:43:25Z</time></trkpt><trkpt lat="38.17533386323041" lon="15.520746731572451"><ele>121.0</ele><time>2026-03-27T14:43:26Z</time></trkpt><trkpt lat="38.17520599597679" lon="15.520495101608388"><ele>124.5</ele><time>2026-03-27T14:43:27Z</time></trkpt><trkpt lat="38.175083258848524" lon="15.520251080019266"><ele>128.0</ele><time>2026-03-27T14:43:28Z</time></trkpt><trkpt lat="38.17495954477722" lon="15.52000777168825"><ele>128.0</ele><time>2026-03-27T14:43:29Z</time></trkpt><trkpt lat="38.17483601883926" lon="15.519763040492121"><ele>128.0</ele><time>2026-03-27T14:43:30Z</time></trkpt><trkpt lat="38.17471475770189" lon="15.519521416819009"><ele>130.0</ele><time>2026-03-27T14:43:31Z</time></trkpt><trkpt lat="38.17459529455533" lon="15.519286019214325"><ele>132.0</ele><time>2026-03-27T14:43:32Z</time></trkpt><trkpt lat="38.174477049913214" lon="15.519054954073683"><ele>134.0</ele><time>2026-03-27T14:43:33Z</time></trkpt><trkpt lat="38.17435821022842" lon="15.518824386066429"><ele>135.0</ele><time>2026-03-27T14:43:34Z</time></trkpt><trkpt lat="38.17423677848168" lon="15.51859602435692"><ele>136.0</ele><time>2026-03-27T14:43:35Z</time></trkpt><trkpt lat="38.17410876634226" lon="15.518369828141864"><ele>137.0</ele><time>2026-03-27T14:43:36Z</time></trkpt><trkpt lat="38.17397592830917" lon="15.518150125457812"><ele>137.0</ele><time>2026-03-27T14:43:37Z</time></trkpt><trkpt lat="38.17383485871814" lon="15.517938192131215"><ele>137.0</ele><time>2026-03-27T14:43:38Z</time></trkpt><trkpt lat="38.1736846904044" lon="15.517735092323164"><ele>137.0</ele><time>2026-03-27T14:43:39Z</time></trkpt><trkpt lat="38.17352531727088" lon="15.517536718309612"><ele>139.0</ele><time>2026-03-27T14:43:40Z</time></trkpt><trkpt lat="38.173363893408144" lon="15.517348666097739"><ele>141.0</ele><time>2026-03-27T14:43:41Z</time></trkpt><trkpt lat="38.17320583431461" lon="15.517175750512086"><ele>143.0</ele><time>2026-03-27T14:43:42Z</time></trkpt><trkpt lat="38.17305043107846" lon="15.517015106371653"><ele>143.33333333333331</ele><time>2026-03-27T14:43:43Z</time></trkpt><trkpt lat="38.17289457679063" lon="15.516867171220316"><ele>143.66666666666666</ele><time>2026-03-27T14:43:44Z</time></trkpt><trkpt lat="38.17274167263219" lon="15.516732494176422"><ele>144.0</ele><time>2026-03-27T14:43:45Z</time></trkpt><trkpt lat="38.17259373116429" lon="15.516612003980686"><ele>144.0</ele><time>2026-03-27T14:43:46Z</time></trkpt><trkpt lat="38.172446731059495" lon="15.51650256779918"><ele>144.0</ele><time>2026-03-27T14:43:47Z</time></trkpt><trkpt lat="38.17229254171337" lon="15.516396132326065"><ele>144.0</ele><time>2026-03-27T14:43:48Z</time></trkpt><trkpt lat="38.17212928578804" lon="15.516290036547474"><ele>146.0</ele><time>2026-03-27T14:43:49Z</time></trkpt><trkpt lat="38.1719553469513" lon="15.516186162683413"><ele>148.0</ele><time>2026-03-27T14:43:50Z</time></trkpt><trkpt lat="38.171773170309244" lon="15.516085100205336"><ele>150.0</ele><time>2026-03-27T14:43:51Z</time></trkpt><trkpt lat="38.17158153909596" lon="15.515989264261473"><ele>152.33333333333334</ele><time>2026-03-27T14:43:52Z</time></trkpt><trkpt lat="38.17137591632411" lon="15.515902773665667"><ele>154.66666666666669</ele><time>2026-03-27T14:43:53Z</time></trkpt><trkpt lat="38.17116269346099" lon="15.51582145130165"><ele>157.0</ele><time>2026-03-27T14:43:54Z</time></trkpt><trkpt lat="38.17094258619108" lon="15.515749024030047"><ele>157.0</ele><time>2026-03-27T14:43:54.999Z</time></trkpt><trkpt lat="38.17071620647471" lon="15.515685492085202"><ele>157.0</ele><time>2026-03-27T14:43:55.999Z</time></trkpt><trkpt lat="38.17048224090585" lon="15.515632683374282"><ele>164.0</ele><time>2026-03-27T14:43:56.999Z</time></trkpt><trkpt lat="38.170242011235715" lon="15.515583518776227"><ele>171.0</ele><time>2026-03-27T14:43:57.999Z</time></trkpt><trkpt lat="38.16999606005919" lon="15.515533902890141"><ele>175.5</ele><time>2026-03-27T14:43:58.999Z</time></trkpt><trkpt lat="38.16974932128008" lon="15.51547841430693"><ele>180.0</ele><time>2026-03-27T14:43:59.999Z</time></trkpt><trkpt lat="38.169501897882924" lon="15.515419213940708"><ele>184.5</ele><time>2026-03-27T14:44:00.999Z</time></trkpt><trkpt lat="38.16925360942115" lon="15.515360367280127"><ele>189.0</ele><time>2026-03-27T14:44:01.999Z</time></trkpt><trkpt lat="38.16900471267454" lon="15.515301493386687"><ele>198.0</ele><time>2026-03-27T14:44:02.999Z</time></trkpt><trkpt lat="38.16875826983072" lon="15.515243807845339"><ele>207.0</ele><time>2026-03-27T14:44:03.999Z</time></trkpt><trkpt lat="38.16851172545346" lon="15.515185594524533"><ele>207.0</ele><time>2026-03-27T14:44:04.999Z</time></trkpt><trkpt lat="38.16826296023852" lon="15.515126405665915"><ele>207.0</ele><time>2026-03-27T14:44:05.999Z</time></trkpt><trkpt lat="38.16801244718582" lon="15.515068760482126"><ele>217.0</ele><time>2026-03-27T14:44:06.999Z</time></trkpt><trkpt lat="38.16775887528115" lon="15.515011448481562"><ele>227.0</ele><time>2026-03-27T14:44:07.999Z</time></trkpt><trkpt lat="38.16750614716566" lon="15.514955164695778"><ele>220.0</ele><time>2026-03-27T14:44:08.999Z</time></trkpt><trkpt lat="38.16725115764654" lon="15.514899837876007"><ele>213.0</ele><time>2026-03-27T14:44:09.999Z</time></trkpt><trkpt lat="38.16704977979034" lon="15.514852455135935"><ele>213.0</ele><time>2026-03-27T14:44:10.999Z</time></trkpt><trkpt lat="38.16681320903665" lon="15.514805852307262"><ele>213.0</ele><time>2026-03-27T14:44:11.999Z</time></trkpt><trkpt lat="38.166601095847646" lon="15.514766283544585"><ele>203.0</ele><time>2026-03-27T14:44:12.999Z</time></trkpt><trkpt lat="38.16637706916091" lon="15.51473138699653"><ele>193.0</ele><time>2026-03-27T14:44:13.999Z</time></trkpt><trkpt lat="38.16615565521955" lon="15.514700556861325"><ele>183.0</ele><time>2026-03-27T14:44:14.999Z</time></trkpt><trkpt lat="38.165932216840055" lon="15.514667761513905"><ele>183.0</ele><time>2026-03-27T14:44:15.999Z</time></trkpt><trkpt lat="38.165713484237244" lon="15.51465225652253"><ele>183.0</ele><time>2026-03-27T14:44:16.999Z</time></trkpt><trkpt lat="38.16548663272509" lon="15.514637214833998"><ele>183.0</ele><time>2026-03-27T14:44:17.999Z</time></trkpt><trkpt lat="38.16525571836945" lon="15.514625793821576"><ele>174.0</ele><time>2026-03-27T14:44:18.999Z</time></trkpt><trkpt lat="38.165024559756546" lon="15.514618904719532"><ele>165.0</ele><time>2026-03-27T14:44:19.999Z</time></trkpt><trkpt lat="38.16478530398709" lon="15.51461324936436"><ele>160.5</ele><time>2026-03-27T14:44:20.999Z</time></trkpt><trkpt lat="38.16449009287274" lon="15.514718392707625"><ele>156.0</ele><time>2026-03-27T14:44:21.999Z</time></trkpt><trkpt lat="38.16425755022452" lon="15.514626775932188"><ele>154.0</ele><time>2026-03-27T14:44:22.999Z</time></trkpt><trkpt lat="38.16400433988271" lon="15.51463157912761"><ele>152.0</ele><time>2026-03-27T14:44:23.999Z</time></trkpt><trkpt lat="38.16374155584726" lon="15.51462447449323"><ele>152.0</ele><time>2026-03-27T14:44:24.999Z</time></trkpt><trkpt lat="38.16348165962738" lon="15.51462443113772"><ele>152.0</ele><time>2026-03-27T14:44:25.999Z</time></trkpt><trkpt lat="38.16321932985199" lon="15.514621082651441"><ele>148.0</ele><time>2026-03-27T14:44:26.999Z</time></trkpt><trkpt lat="38.162948950304155" lon="15.514621800360239"><ele>144.0</ele><time>2026-03-27T14:44:27.999Z</time></trkpt><trkpt lat="38.162671357589936" lon="15.51462133581752"><ele>144.0</ele><time>2026-03-27T14:44:28.999Z</time></trkpt><trkpt lat="38.162397738547064" lon="15.514607176221622"><ele>144.0</ele><time>2026-03-27T14:44:29.999Z</time></trkpt><trkpt lat="38.162136312009785" lon="15.514594465469"><ele>141.5</ele><time>2026-03-27T14:44:30.999Z</time></trkpt><trkpt lat="38.16188188911125" lon="15.514583902102935"><ele>139.0</ele><time>2026-03-27T14:44:31.999Z</time></trkpt><trkpt lat="38.16163879240007" lon="15.514574727292633"><ele>144.0</ele><time>2026-03-27T14:44:32.999Z</time></trkpt><trkpt lat="38.161403332679114" lon="15.514563432924712"><ele>149.0</ele><time>2026-03-27T14:44:33.999Z</time></trkpt><trkpt lat="38.161170435053805" lon="15.514544213083559"><ele>149.0</ele><time>2026-03-27T14:44:34.999Z</time></trkpt><trkpt lat="38.16093102662957" lon="15.514516641319565"><ele>149.0</ele><time>2026-03-27T14:44:35.999Z</time></trkpt><trkpt lat="38.160685329802014" lon="15.514482587988157"><ele>145.5</ele><time>2026-03-27T14:44:36.999Z</time></trkpt><trkpt lat="38.16043751759575" lon="15.514440467699998"><ele>142.0</ele><time>2026-03-27T14:44:37.999Z</time></trkpt><trkpt lat="38.16018550849223" lon="15.514388705723169"><ele>142.0</ele><time>2026-03-27T14:44:38.999Z</time></trkpt><trkpt lat="38.1599325204397" lon="15.514326191828994"><ele>142.0</ele><time>2026-03-27T14:44:39.999Z</time></trkpt><trkpt lat="38.159674813928426" lon="15.514248407806862"><ele>134.5</ele><time>2026-03-27T14:44:40.999Z</time></trkpt><trkpt lat="38.159416036824496" lon="15.51415841644141"><ele>127.0</ele><time>2026-03-27T14:44:41.999Z</time></trkpt><trkpt lat="38.159158463229005" lon="15.514062374956067"><ele>124.0</ele><time>2026-03-27T14:44:42.999Z</time></trkpt><trkpt lat="38.15890419604779" lon="15.51395631057449"><ele>121.0</ele><time>2026-03-27T14:44:43.999Z</time></trkpt><trkpt lat="38.15865460190151" lon="15.513840830065043"><ele>126.0</ele><time>2026-03-27T14:44:44.999Z</time></trkpt><trkpt lat="38.158407024739084" lon="15.513714417633855"><ele>131.0</ele><time>2026-03-27T14:44:45.999Z</time></trkpt><trkpt lat="38.158162090766126" lon="15.513582473189235"><ele>131.5</ele><time>2026-03-27T14:44:46.999Z</time></trkpt><trkpt lat="38.15791698404961" lon="15.51344487000901"><ele>132.0</ele><time>2026-03-27T14:44:47.999Z</time></trkpt><trkpt lat="38.15767282595133" lon="15.513301734941018"><ele>132.0</ele><time>2026-03-27T14:44:48.999Z</time></trkpt><trkpt lat="38.15742822384076" lon="15.513154445123712"><ele>132.0</ele><time>2026-03-27T14:44:49.999Z</time></trkpt><trkpt lat="38.15718352756164" lon="15.513002682448345"><ele>134.0</ele><time>2026-03-27T14:44:50.999Z</time></trkpt><trkpt lat="38.15693606871367" lon="15.512847335638204"><ele>136.0</ele><time>2026-03-27T14:44:51.999Z</time></trkpt><trkpt lat="38.156688126204855" lon="15.512692226729756"><ele>131.5</ele><time>2026-03-27T14:44:52.999Z</time></trkpt><trkpt lat="38.15643850158928" lon="15.512539394127794"><ele>127.0</ele><time>2026-03-27T14:44:53.999Z</time></trkpt><trkpt lat="38.15618671406137" lon="15.512384967402838"><ele>127.0</ele><time>2026-03-27T14:44:54.999Z</time></trkpt><trkpt lat="38.155933324932846" lon="15.512230025879747"><ele>127.0</ele><time>2026-03-27T14:44:55.999Z</time></trkpt><trkpt lat="38.15567951017955" lon="15.512076940123249"><ele>128.5</ele><time>2026-03-27T14:44:56.999Z</time></trkpt><trkpt lat="38.15542576352252" lon="15.511924743775618"><ele>130.0</ele><time>2026-03-27T14:44:57.999Z</time></trkpt><trkpt lat="38.155175125096775" lon="15.5117740842911"><ele>130.0</ele><time>2026-03-27T14:44:58.999Z</time></trkpt><trkpt lat="38.15492443930255" lon="15.511623677251722"><ele>130.0</ele><time>2026-03-27T14:44:59.999Z</time></trkpt><trkpt lat="38.154674806894604" lon="15.511474372660627"><ele>131.0</ele><time>2026-03-27T14:45:00.999Z</time></trkpt><trkpt lat="38.154427358314415" lon="15.511325555531796"><ele>132.0</ele><time>2026-03-27T14:45:01.999Z</time></trkpt><trkpt lat="38.154180615997106" lon="15.511176901700539"><ele>127.5</ele><time>2026-03-27T14:45:02.999Z</time></trkpt><trkpt lat="38.15393308168514" lon="15.511031062877201"><ele>123.0</ele><time>2026-03-27T14:45:03.999Z</time></trkpt><trkpt lat="38.15369085571239" lon="15.51089273258662"><ele>123.0</ele><time>2026-03-27T14:45:04.999Z</time></trkpt><trkpt lat="38.153455210752135" lon="15.510763675209317"><ele>123.0</ele><time>2026-03-27T14:45:05.999Z</time></trkpt><trkpt lat="38.153214326385665" lon="15.510640779866408"><ele>119.0</ele><time>2026-03-27T14:45:06.999Z</time></trkpt><trkpt lat="38.1529671786572" lon="15.510525520458154"><ele>115.0</ele><time>2026-03-27T14:45:07.999Z</time></trkpt><trkpt lat="38.15272214119849" lon="15.510424326562376"><ele>114.5</ele><time>2026-03-27T14:45:08.999Z</time></trkpt><trkpt lat="38.15248191428776" lon="15.510343445869987"><ele>114.0</ele><time>2026-03-27T14:45:09.999Z</time></trkpt><trkpt lat="38.15224146103596" lon="15.510282700493493"><ele>111.5</ele><time>2026-03-27T14:45:10.999Z</time></trkpt><trkpt lat="38.15200508426109" lon="15.51024340085821"><ele>109.0</ele><time>2026-03-27T14:45:11.999Z</time></trkpt><trkpt lat="38.15177789352092" lon="15.51023517632048"><ele>109.0</ele><time>2026-03-27T14:45:12.999Z</time></trkpt><trkpt lat="38.15154488660374" lon="15.510238491794937"><ele>109.0</ele><time>2026-03-27T14:45:13.999Z</time></trkpt><trkpt lat="38.15130794166807" lon="15.510254867757784"><ele>106.0</ele><time>2026-03-27T14:45:14.999Z</time></trkpt><trkpt lat="38.151071226869426" lon="15.510292979986618"><ele>103.0</ele><time>2026-03-27T14:45:15.999Z</time></trkpt><trkpt lat="38.150834926788086" lon="15.51034772950671"><ele>101.0</ele><time>2026-03-27T14:45:16.999Z</time></trkpt><trkpt lat="38.15059908646706" lon="15.51042916234824"><ele>99.0</ele><time>2026-03-27T14:45:17.999Z</time></trkpt><trkpt lat="38.1503656444637" lon="15.510522907301706"><ele>99.0</ele><time>2026-03-27T14:45:18.999Z</time></trkpt><trkpt lat="38.150144167020805" lon="15.510638048403761"><ele>99.0</ele><time>2026-03-27T14:45:20Z</time></trkpt><trkpt lat="38.14993707769814" lon="15.510761615667484"><ele>98.5</ele><time>2026-03-27T14:45:21Z</time></trkpt><trkpt lat="38.14972212449945" lon="15.510906962800052"><ele>98.0</ele><time>2026-03-27T14:45:22Z</time></trkpt><trkpt lat="38.14952159839727" lon="15.511069923160486"><ele>95.5</ele><time>2026-03-27T14:45:23Z</time></trkpt><trkpt lat="38.14932076518236" lon="15.51124342888651"><ele>93.0</ele><time>2026-03-27T14:45:24Z</time></trkpt><trkpt lat="38.14912432356933" lon="15.511443578152807"><ele>96.5</ele><time>2026-03-27T14:45:25Z</time></trkpt><trkpt lat="38.14893805604611" lon="15.511662062896855"><ele>100.0</ele><time>2026-03-27T14:45:26Z</time></trkpt><trkpt lat="38.148766260603004" lon="15.511911072350257"><ele>98.5</ele><time>2026-03-27T14:45:27Z</time></trkpt><trkpt lat="38.14860389993623" lon="15.512166281089367"><ele>97.0</ele><time>2026-03-27T14:45:28Z</time></trkpt><trkpt lat="38.14846076867559" lon="15.512415698761648"><ele>97.0</ele><time>2026-03-27T14:45:29Z</time></trkpt><trkpt lat="38.148310998316326" lon="15.512679993729801"><ele>97.0</ele><time>2026-03-27T14:45:30Z</time></trkpt><trkpt lat="38.14818594290042" lon="15.512952758191428"><ele>101.5</ele><time>2026-03-27T14:45:31Z</time></trkpt><trkpt lat="38.148063530130315" lon="15.513225720740332"><ele>106.0</ele><time>2026-03-27T14:45:32Z</time></trkpt><trkpt lat="38.147940710256734" lon="15.513503345649456"><ele>99.0</ele><time>2026-03-27T14:45:33Z</time></trkpt><trkpt lat="38.14781509906144" lon="15.513780559183164"><ele>92.0</ele><time>2026-03-27T14:45:34Z</time></trkpt><trkpt lat="38.14769396864924" lon="15.514057780922823"><ele>92.0</ele><time>2026-03-27T14:45:35Z</time></trkpt><trkpt lat="38.14757294524038" lon="15.514325296299694"><ele>92.0</ele><time>2026-03-27T14:45:36Z</time></trkpt><trkpt lat="38.14745827118016" lon="15.51458110726938"><ele>87.5</ele><time>2026-03-27T14:45:37Z</time></trkpt><trkpt lat="38.14734669698936" lon="15.514838183559627"><ele>83.0</ele><time>2026-03-27T14:45:38Z</time></trkpt><trkpt lat="38.14722862562647" lon="15.515102717140545"><ele>83.0</ele><time>2026-03-27T14:45:39Z</time></trkpt><trkpt lat="38.14710633356761" lon="15.515366604745939"><ele>83.0</ele><time>2026-03-27T14:45:40Z</time></trkpt><trkpt lat="38.146980404553766" lon="15.51562989315965"><ele>79.5</ele><time>2026-03-27T14:45:41Z</time></trkpt><trkpt lat="38.146848853543155" lon="15.51588826938146"><ele>76.0</ele><time>2026-03-27T14:45:42Z</time></trkpt><trkpt lat="38.146701435252126" lon="15.516134132853427"><ele>81.0</ele><time>2026-03-27T14:45:43Z</time></trkpt><trkpt lat="38.14654110277714" lon="15.516375176020976"><ele>86.0</ele><time>2026-03-27T14:45:44Z</time></trkpt><trkpt lat="38.14636609489871" lon="15.516604214544031"><ele>86.0</ele><time>2026-03-27T14:45:45Z</time></trkpt><trkpt lat="38.14618506924461" lon="15.516821807694251"><ele>86.0</ele><time>2026-03-27T14:45:46Z</time></trkpt><trkpt lat="38.14598752817645" lon="15.517023995580342"><ele>80.0</ele><time>2026-03-27T14:45:47Z</time></trkpt><trkpt lat="38.14577811489818" lon="15.51720779799309"><ele>74.0</ele><time>2026-03-27T14:45:48Z</time></trkpt><trkpt lat="38.1455521021238" lon="15.517377824965093"><ele>74.0</ele><time>2026-03-27T14:45:49Z</time></trkpt><trkpt lat="38.14532052471692" lon="15.517530305145106"><ele>74.0</ele><time>2026-03-27T14:45:50Z</time></trkpt><trkpt lat="38.14508515393816" lon="15.517671239025049"><ele>69.5</ele><time>2026-03-27T14:45:51Z</time></trkpt><trkpt lat="38.14485787185158" lon="15.517790789273175"><ele>65.0</ele><time>2026-03-27T14:45:52Z</time></trkpt><trkpt lat="38.14462182824964" lon="15.517878943973765"><ele>61.5</ele><time>2026-03-27T14:45:53Z</time></trkpt><trkpt lat="38.14439277841192" lon="15.517962121651726"><ele>58.0</ele><time>2026-03-27T14:45:54Z</time></trkpt><trkpt lat="38.14416936031201" lon="15.518025506534576"><ele>58.0</ele><time>2026-03-27T14:45:55Z</time></trkpt><trkpt lat="38.14395818040906" lon="15.518125683366417"><ele>58.0</ele><time>2026-03-27T14:45:56Z</time></trkpt><trkpt lat="38.14371046700209" lon="15.518103525060674"><ele>58.0</ele><time>2026-03-27T14:45:57Z</time></trkpt><trkpt lat="38.14348075924628" lon="15.518119606752645"><ele>58.0</ele><time>2026-03-27T14:45:58Z</time></trkpt><trkpt lat="38.14324964716821" lon="15.518121504758199"><ele>55.5</ele><time>2026-03-27T14:45:59Z</time></trkpt><trkpt lat="38.143014854437915" lon="15.518112133691885"><ele>53.0</ele><time>2026-03-27T14:46:00Z</time></trkpt><trkpt lat="38.14278565786076" lon="15.518089717828673"><ele>53.0</ele><time>2026-03-27T14:46:01Z</time></trkpt><trkpt lat="38.14256293688636" lon="15.518073446062076"><ele>53.0</ele><time>2026-03-27T14:46:02Z</time></trkpt><trkpt lat="38.14234795147198" lon="15.518059143390577"><ele>53.0</ele><time>2026-03-27T14:46:03Z</time></trkpt><trkpt lat="38.14213487538312" lon="15.518051635342971"><ele>52.66666666666667</ele><time>2026-03-27T14:46:04Z</time></trkpt><trkpt lat="38.14191968000718" lon="15.518042840644336"><ele>52.33333333333333</ele><time>2026-03-27T14:46:05Z</time></trkpt><trkpt lat="38.14169949318456" lon="15.518040540837626"><ele>52.0</ele><time>2026-03-27T14:46:06Z</time></trkpt><trkpt lat="38.14147544701203" lon="15.518049458514158"><ele>51.0</ele><time>2026-03-27T14:46:07Z</time></trkpt><trkpt lat="38.14124869112648" lon="15.518069569569658"><ele>50.0</ele><time>2026-03-27T14:46:08Z</time></trkpt><trkpt lat="38.14101733969552" lon="15.51810650520863"><ele>50.0</ele><time>2026-03-27T14:46:09Z</time></trkpt><trkpt lat="38.14078190933081" lon="15.518161039479672"><ele>50.0</ele><time>2026-03-27T14:46:10Z</time></trkpt><trkpt lat="38.14055566095663" lon="15.518234243774621"><ele>51.0</ele><time>2026-03-27T14:46:11Z</time></trkpt><trkpt lat="38.140339727353854" lon="15.51832119546087"><ele>52.0</ele><time>2026-03-27T14:46:12Z</time></trkpt><trkpt lat="38.140123947594304" lon="15.518421858758783"><ele>52.0</ele><time>2026-03-27T14:46:13Z</time></trkpt><trkpt lat="38.13990548767314" lon="15.518534390081998"><ele>52.0</ele><time>2026-03-27T14:46:14Z</time></trkpt><trkpt lat="38.139687647386616" lon="15.518658670968442"><ele>48.0</ele><time>2026-03-27T14:46:15Z</time></trkpt><trkpt lat="38.13947212726532" lon="15.51879779091273"><ele>44.0</ele><time>2026-03-27T14:46:16Z</time></trkpt><trkpt lat="38.13926085201582" lon="15.51894173596937"><ele>42.5</ele><time>2026-03-27T14:46:17Z</time></trkpt><trkpt lat="38.1390473844964" lon="15.519088869490222"><ele>41.0</ele><time>2026-03-27T14:46:18Z</time></trkpt><trkpt lat="38.13883394301307" lon="15.51923443248758"><ele>41.0</ele><time>2026-03-27T14:46:19Z</time></trkpt><trkpt lat="38.138617963818824" lon="15.519382331074551"><ele>41.0</ele><time>2026-03-27T14:46:20Z</time></trkpt><trkpt lat="38.13840171339922" lon="15.519527101883238"><ele>39.5</ele><time>2026-03-27T14:46:21Z</time></trkpt><trkpt lat="38.13817773678349" lon="15.519661260664872"><ele>38.0</ele><time>2026-03-27T14:46:22Z</time></trkpt><trkpt lat="38.13794896966521" lon="15.519775600406417"><ele>38.0</ele><time>2026-03-27T14:46:23Z</time></trkpt><trkpt lat="38.137716658468136" lon="15.51987268027799"><ele>38.0</ele><time>2026-03-27T14:46:24Z</time></trkpt><trkpt lat="38.13748189954888" lon="15.519955245107578"><ele>36.0</ele><time>2026-03-27T14:46:25Z</time></trkpt><trkpt lat="38.137247523764124" lon="15.520021720242287"><ele>34.0</ele><time>2026-03-27T14:46:26Z</time></trkpt><trkpt lat="38.1370129680411" lon="15.520065946940386"><ele>34.0</ele><time>2026-03-27T14:46:27Z</time></trkpt><trkpt lat="38.13677546838708" lon="15.520102661159749"><ele>34.0</ele><time>2026-03-27T14:46:28Z</time></trkpt><trkpt lat="38.13653575980528" lon="15.520122360920816"><ele>34.0</ele><time>2026-03-27T14:46:29Z</time></trkpt><trkpt lat="38.13629544641025" lon="15.520123258309322"><ele>34.0</ele><time>2026-03-27T14:46:30Z</time></trkpt><trkpt lat="38.13605423802656" lon="15.520109990422256"><ele>34.0</ele><time>2026-03-27T14:46:31Z</time></trkpt><trkpt lat="38.13580741569934" lon="15.52009027720676"><ele>34.0</ele><time>2026-03-27T14:46:32Z</time></trkpt><trkpt lat="38.13555785392265" lon="15.520063038605553"><ele>34.0</ele><time>2026-03-27T14:46:33Z</time></trkpt><trkpt lat="38.13530510328923" lon="15.520041659199443"><ele>34.0</ele><time>2026-03-27T14:46:34Z</time></trkpt><trkpt lat="38.135050527346046" lon="15.520021132787765"><ele>34.0</ele><time>2026-03-27T14:46:35Z</time></trkpt><trkpt lat="38.13479555005849" lon="15.519995484083578"><ele>34.0</ele><time>2026-03-27T14:46:36Z</time></trkpt><trkpt lat="38.1345430492286" lon="15.519968313304018"><ele>34.0</ele><time>2026-03-27T14:46:37Z</time></trkpt><trkpt lat="38.134286451978504" lon="15.519945229585803"><ele>34.0</ele><time>2026-03-27T14:46:38Z</time></trkpt><trkpt lat="38.13402700120694" lon="15.519919921761401"><ele>33.5</ele><time>2026-03-27T14:46:39Z</time></trkpt><trkpt lat="38.133766426695864" lon="15.519891744988623"><ele>33.0</ele><time>2026-03-27T14:46:40Z</time></trkpt><trkpt lat="38.133504803823975" lon="15.519867089342917"><ele>33.0</ele><time>2026-03-27T14:46:41Z</time></trkpt><trkpt lat="38.13324026698399" lon="15.519841229740475"><ele>33.0</ele><time>2026-03-27T14:46:42Z</time></trkpt><trkpt lat="38.132972087602155" lon="15.519812919724012"><ele>29.5</ele><time>2026-03-27T14:46:43Z</time></trkpt><trkpt lat="38.13270068061085" lon="15.519774065812994"><ele>26.0</ele><time>2026-03-27T14:46:44Z</time></trkpt><trkpt lat="38.13242723903958" lon="15.519720484004084"><ele>24.5</ele><time>2026-03-27T14:46:45Z</time></trkpt><trkpt lat="38.132155159836934" lon="15.519656762928557"><ele>23.0</ele><time>2026-03-27T14:46:46Z</time></trkpt><trkpt lat="38.13188434500508" lon="15.519587194880648"><ele>27.5</ele><time>2026-03-27T14:46:46.999Z</time></trkpt><trkpt lat="38.13161298978007" lon="15.519516234893937"><ele>32.0</ele><time>2026-03-27T14:46:47.999Z</time></trkpt><trkpt lat="38.13134263393791" lon="15.519440249037617"><ele>32.0</ele><time>2026-03-27T14:46:48.999Z</time></trkpt><trkpt lat="38.13107452722488" lon="15.519361867680747"><ele>32.0</ele><time>2026-03-27T14:46:49.999Z</time></trkpt><trkpt lat="38.1308103624892" lon="15.519286848274241"><ele>29.5</ele><time>2026-03-27T14:46:50.999Z</time></trkpt><trkpt lat="38.13054656428719" lon="15.519215150175814"><ele>27.0</ele><time>2026-03-27T14:46:51.999Z</time></trkpt><trkpt lat="38.13028634556057" lon="15.519143950941128"><ele>27.0</ele><time>2026-03-27T14:46:52.999Z</time></trkpt><trkpt lat="38.130026389167085" lon="15.51907292855236"><ele>27.0</ele><time>2026-03-27T14:46:53.999Z</time></trkpt><trkpt lat="38.129770842149696" lon="15.51900072464697"><ele>26.0</ele><time>2026-03-27T14:46:54.999Z</time></trkpt><trkpt lat="38.12951689431585" lon="15.518927820837042"><ele>25.0</ele><time>2026-03-27T14:46:55.999Z</time></trkpt><trkpt lat="38.129267159634225" lon="15.518849667501257"><ele>23.5</ele><time>2026-03-27T14:46:56.999Z</time></trkpt><trkpt lat="38.12901543193482" lon="15.51876986984555"><ele>22.0</ele><time>2026-03-27T14:46:57.999Z</time></trkpt><trkpt lat="38.12876425590966" lon="15.518686896913449"><ele>25.5</ele><time>2026-03-27T14:46:58.999Z</time></trkpt><trkpt lat="38.12851316720013" lon="15.518593856498308"><ele>29.0</ele><time>2026-03-27T14:46:59.999Z</time></trkpt><trkpt lat="38.128262306981206" lon="15.518486579299761"><ele>24.0</ele><time>2026-03-27T14:47:00.999Z</time></trkpt><trkpt lat="38.1280200118226" lon="15.518375158384643"><ele>19.0</ele><time>2026-03-27T14:47:01.999Z</time></trkpt><trkpt lat="38.12780020399368" lon="15.518258615968012"><ele>19.0</ele><time>2026-03-27T14:47:02.999Z</time></trkpt><trkpt lat="38.1275916746772" lon="15.518142819736589"><ele>19.0</ele><time>2026-03-27T14:47:03.999Z</time></trkpt><trkpt lat="38.127383857614554" lon="15.5180170113103"><ele>22.333333333333332</ele><time>2026-03-27T14:47:04.999Z</time></trkpt><trkpt lat="38.12717773338807" lon="15.517892705757909"><ele>25.666666666666664</ele><time>2026-03-27T14:47:05.999Z</time></trkpt><trkpt lat="38.1269797917085" lon="15.517777289484341"><ele>29.0</ele><time>2026-03-27T14:47:06.999Z</time></trkpt><trkpt lat="38.12679654764476" lon="15.51767162923943"><ele>29.0</ele><time>2026-03-27T14:47:07.999Z</time></trkpt><trkpt lat="38.126621283200784" lon="15.517572204001677"><ele>29.0</ele><time>2026-03-27T14:47:08.999Z</time></trkpt><trkpt lat="38.126453454704226" lon="15.517481392830149"><ele>29.0</ele><time>2026-03-27T14:47:09.999Z</time></trkpt><trkpt lat="38.126291709008434" lon="15.51739978492715"><ele>27.0</ele><time>2026-03-27T14:47:10.999Z</time></trkpt><trkpt lat="38.1261357520791" lon="15.517330578945018"><ele>25.0</ele><time>2026-03-27T14:47:11.999Z</time></trkpt><trkpt lat="38.125982125462116" lon="15.517264991678045"><ele>23.0</ele><time>2026-03-27T14:47:12.999Z</time></trkpt><trkpt lat="38.12583582940401" lon="15.517200253197293"><ele>23.0</ele><time>2026-03-27T14:47:13.999Z</time></trkpt><trkpt lat="38.12570414031244" lon="15.517138555750252"><ele>23.0</ele><time>2026-03-27T14:47:14.999Z</time></trkpt><trkpt lat="38.12559246488143" lon="15.517063692332679"><ele>23.0</ele><time>2026-03-27T14:47:15.999Z</time></trkpt><trkpt lat="38.12548507271715" lon="15.517000481003182"><ele>23.0</ele><time>2026-03-27T14:47:16.999Z</time></trkpt><trkpt lat="38.12538445527562" lon="15.51694125729824"><ele>23.799999999999997</ele><time>2026-03-27T14:47:17.999Z</time></trkpt><trkpt lat="38.12528687636676" lon="15.516883822092849"><ele>24.6</ele><time>2026-03-27T14:47:18.999Z</time></trkpt><trkpt lat="38.12518837157243" lon="15.516825841885442"><ele>25.400000000000002</ele><time>2026-03-27T14:47:19.999Z</time></trkpt><trkpt lat="38.12509190302658" lon="15.516769060221879"><ele>26.200000000000003</ele><time>2026-03-27T14:47:20.999Z</time></trkpt><trkpt lat="38.12501285987255" lon="15.516722405080714"><ele>27.0</ele><time>2026-03-27T14:47:21.999Z</time></trkpt><trkpt lat="38.1249515311151" lon="15.516686026242237"><ele>26.8</ele><time>2026-03-27T14:47:22.999Z</time></trkpt><trkpt lat="38.124844627682585" lon="15.516622228710252"><ele>26.6</ele><time>2026-03-27T14:47:24.999Z</time></trkpt><trkpt lat="38.1247399734097" lon="15.516559092807146"><ele>26.400000000000002</ele><time>2026-03-27T14:47:27Z</time></trkpt><trkpt lat="38.12464786001444" lon="15.516504857000058"><ele>26.200000000000003</ele><time>2026-03-27T14:47:29Z</time></trkpt><trkpt lat="38.124588404979455" lon="15.516470115437812"><ele>26.0</ele><time>2026-03-27T14:47:30Z</time></trkpt><trkpt lat="38.12450608392667" lon="15.516417612389294"><ele>26.0</ele><time>2026-03-27T14:47:31Z</time></trkpt><trkpt lat="38.124422807782246" lon="15.516361994619682"><ele>26.0</ele><time>2026-03-27T14:47:32Z</time></trkpt><trkpt lat="38.12432903743963" lon="15.516323058736697"><ele>26.0</ele><time>2026-03-27T14:47:33Z</time></trkpt><trkpt lat="38.12424012597443" lon="15.516253570625985"><ele>26.0</ele><time>2026-03-27T14:47:34Z</time></trkpt><trkpt lat="38.12415848781966" lon="15.516185970380391"><ele>26.0</ele><time>2026-03-27T14:47:35Z</time></trkpt><trkpt lat="38.12408379213916" lon="15.516118741428908"><ele>26.166666666666664</ele><time>2026-03-27T14:47:36Z</time></trkpt><trkpt lat="38.124012630973574" lon="15.516049401125331"><ele>26.333333333333332</ele><time>2026-03-27T14:47:37Z</time></trkpt><trkpt lat="38.12394356456435" lon="15.515979997782017"><ele>26.5</ele><time>2026-03-27T14:47:38Z</time></trkpt><trkpt lat="38.1238819444499" lon="15.515919199895858"><ele>26.666666666666664</ele><time>2026-03-27T14:47:39Z</time></trkpt><trkpt lat="38.12382508206275" lon="15.515876069756532"><ele>26.833333333333332</ele><time>2026-03-27T14:47:40Z</time></trkpt><trkpt lat="38.12372803505559" lon="15.515832624423316"><ele>27.0</ele><time>2026-03-27T14:47:42Z</time></trkpt><trkpt lat="38.1236469069042" lon="15.515803717878319"><ele>27.0</ele><time>2026-03-27T14:47:44Z</time></trkpt><trkpt lat="38.12358047202252" lon="15.515781283710771"><ele>27.0</ele><time>2026-03-27T14:47:46Z</time></trkpt><trkpt lat="38.12349413448778" lon="15.515752881550844"><ele>27.0</ele><time>2026-03-27T14:47:48Z</time></trkpt><trkpt lat="38.12343064720748" lon="15.515732982388219"><ele>27.0</ele><time>2026-03-27T14:47:50Z</time></trkpt><trkpt lat="38.12335689630626" lon="15.515713533578056"><ele>27.0</ele><time>2026-03-27T14:50:23Z</time></trkpt><trkpt lat="38.12321772609391" lon="15.515682480231794"><ele>27.0</ele><time>2026-03-27T14:50:25Z</time></trkpt><trkpt lat="38.12312709077535" lon="15.515659361819871"><ele>24.75</ele><time>2026-03-27T14:50:26Z</time></trkpt><trkpt lat="38.12302188996938" lon="15.51563542926926"><ele>22.5</ele><time>2026-03-27T14:50:27Z</time></trkpt><trkpt lat="38.12290166133414" lon="15.515608966703166"><ele>20.25</ele><time>2026-03-27T14:50:28Z</time></trkpt><trkpt lat="38.12277030880291" lon="15.515579100492202"><ele>18.0</ele><time>2026-03-27T14:50:29Z</time></trkpt><trkpt lat="38.12262864111204" lon="15.515543407013562"><ele>18.0</ele><time>2026-03-27T14:50:30Z</time></trkpt><trkpt lat="38.122476844951855" lon="15.51550481517651"><ele>18.0</ele><time>2026-03-27T14:50:31Z</time></trkpt><trkpt lat="38.12231545630684" lon="15.515462705662125"><ele>18.0</ele><time>2026-03-27T14:50:32Z</time></trkpt><trkpt lat="38.122146264427414" lon="15.515419294801935"><ele>18.666666666666668</ele><time>2026-03-27T14:50:33Z</time></trkpt><trkpt lat="38.12197279514094" lon="15.515375634704727"><ele>19.333333333333336</ele><time>2026-03-27T14:50:34Z</time></trkpt><trkpt lat="38.12179405776779" lon="15.51532924780764"><ele>20.0</ele><time>2026-03-27T14:50:35Z</time></trkpt><trkpt lat="38.12161373933183" lon="15.515280054001199"><ele>19.333333333333336</ele><time>2026-03-27T14:50:36Z</time></trkpt><trkpt lat="38.12143043651896" lon="15.51522829002112"><ele>18.666666666666668</ele><time>2026-03-27T14:50:37Z</time></trkpt><trkpt lat="38.12124074263976" lon="15.515172554570587"><ele>18.0</ele><time>2026-03-27T14:50:38Z</time></trkpt><trkpt lat="38.121047109601356" lon="15.51510727045172"><ele>18.0</ele><time>2026-03-27T14:50:39Z</time></trkpt><trkpt lat="38.12085530105903" lon="15.515035110764812"><ele>18.0</ele><time>2026-03-27T14:50:40Z</time></trkpt><trkpt lat="38.1206630258536" lon="15.51495788752915"><ele>18.0</ele><time>2026-03-27T14:50:41Z</time></trkpt><trkpt lat="38.12047050069838" lon="15.51487218454753"><ele>17.333333333333332</ele><time>2026-03-27T14:50:42Z</time></trkpt><trkpt lat="38.12027699820885" lon="15.514778038077523"><ele>16.666666666666664</ele><time>2026-03-27T14:50:43Z</time></trkpt><trkpt lat="38.12008309042717" lon="15.514676558104261"><ele>16.0</ele><time>2026-03-27T14:50:44Z</time></trkpt><trkpt lat="38.11989063573067" lon="15.51456687613813"><ele>17.333333333333332</ele><time>2026-03-27T14:50:45Z</time></trkpt><trkpt lat="38.11969804586333" lon="15.514450277238325"><ele>18.666666666666668</ele><time>2026-03-27T14:50:46Z</time></trkpt><trkpt lat="38.11950831944643" lon="15.514328324280672"><ele>20.0</ele><time>2026-03-27T14:50:47Z</time></trkpt><trkpt lat="38.11931895099128" lon="15.514201793569862"><ele>20.0</ele><time>2026-03-27T14:50:48Z</time></trkpt><trkpt lat="38.11913100469111" lon="15.514075986367983"><ele>20.0</ele><time>2026-03-27T14:50:49Z</time></trkpt><trkpt lat="38.11894863792855" lon="15.513954194838131"><ele>20.0</ele><time>2026-03-27T14:50:50Z</time></trkpt><trkpt lat="38.11876231373499" lon="15.513831632773403"><ele>20.333333333333336</ele><time>2026-03-27T14:50:51Z</time></trkpt><trkpt lat="38.11857851347263" lon="15.513712824051384"><ele>20.666666666666668</ele><time>2026-03-27T14:50:52Z</time></trkpt><trkpt lat="38.118394128451335" lon="15.513592784559147"><ele>21.0</ele><time>2026-03-27T14:50:53Z</time></trkpt><trkpt lat="38.11821059987493" lon="15.513472856927637"><ele>20.333333333333332</ele><time>2026-03-27T14:50:54Z</time></trkpt><trkpt lat="38.11802683791953" lon="15.513352159950838"><ele>19.666666666666664</ele><time>2026-03-27T14:50:55Z</time></trkpt><trkpt lat="38.11784418478938" lon="15.513230677167503"><ele>19.0</ele><time>2026-03-27T14:50:56Z</time></trkpt><trkpt lat="38.11765996754676" lon="15.513109647406733"><ele>19.0</ele><time>2026-03-27T14:50:57Z</time></trkpt><trkpt lat="38.117475509752715" lon="15.512987907852676"><ele>19.0</ele><time>2026-03-27T14:50:58Z</time></trkpt><trkpt lat="38.11729003090335" lon="15.51286538203988"><ele>19.0</ele><time>2026-03-27T14:50:59Z</time></trkpt><trkpt lat="38.11710340016274" lon="15.512739677987696"><ele>18.333333333333332</ele><time>2026-03-27T14:51:00Z</time></trkpt><trkpt lat="38.11691734943235" lon="15.512614253252275"><ele>17.666666666666668</ele><time>2026-03-27T14:51:00.999Z</time></trkpt><trkpt lat="38.1167283063187" lon="15.51249087267977"><ele>17.0</ele><time>2026-03-27T14:51:01.999Z</time></trkpt><trkpt lat="38.11653385416649" lon="15.512362121556977"><ele>17.0</ele><time>2026-03-27T14:51:02.999Z</time></trkpt><trkpt lat="38.116333962019645" lon="15.512228381787803"><ele>17.0</ele><time>2026-03-27T14:51:03.999Z</time></trkpt><trkpt lat="38.116130030935274" lon="15.512091613852922"><ele>17.0</ele><time>2026-03-27T14:51:04.999Z</time></trkpt><trkpt lat="38.115923599271184" lon="15.511949432109171"><ele>17.0</ele><time>2026-03-27T14:51:05.999Z</time></trkpt><trkpt lat="38.11571827626242" lon="15.511806864527626"><ele>17.0</ele><time>2026-03-27T14:51:06.999Z</time></trkpt><trkpt lat="38.115514339981054" lon="15.51166604591818"><ele>17.0</ele><time>2026-03-27T14:51:07.999Z</time></trkpt><trkpt lat="38.11531126479213" lon="15.511523535036723"><ele>17.0</ele><time>2026-03-27T14:51:08.999Z</time></trkpt><trkpt lat="38.11510823487164" lon="15.511379952754234"><ele>17.0</ele><time>2026-03-27T14:51:09.999Z</time></trkpt><trkpt lat="38.114904140170744" lon="15.511234773807164"><ele>17.5</ele><time>2026-03-27T14:51:10.999Z</time></trkpt><trkpt lat="38.11469059585891" lon="15.511085907280163"><ele>18.0</ele><time>2026-03-27T14:51:11.999Z</time></trkpt><trkpt lat="38.11447271851658" lon="15.5109352410118"><ele>18.0</ele><time>2026-03-27T14:51:12.999Z</time></trkpt><trkpt lat="38.11429575519707" lon="15.510805189970222"><ele>18.0</ele><time>2026-03-27T14:51:13.999Z</time></trkpt><trkpt lat="38.11409348602921" lon="15.510672492665714"><ele>18.0</ele><time>2026-03-27T14:51:14.999Z</time></trkpt><trkpt lat="38.11389053972224" lon="15.510536958686924"><ele>20.0</ele><time>2026-03-27T14:51:15.999Z</time></trkpt><trkpt lat="38.11368931520988" lon="15.510399974419585"><ele>22.0</ele><time>2026-03-27T14:51:16.999Z</time></trkpt><trkpt lat="38.11348671454097" lon="15.510257402114851"><ele>22.0</ele><time>2026-03-27T14:51:17.999Z</time></trkpt><trkpt lat="38.11328361946539" lon="15.510112685599884"><ele>22.0</ele><time>2026-03-27T14:51:18.999Z</time></trkpt><trkpt lat="38.113073762581735" lon="15.50997008623068"><ele>19.0</ele><time>2026-03-27T14:51:19.999Z</time></trkpt><trkpt lat="38.11286364065541" lon="15.509826700541891"><ele>16.0</ele><time>2026-03-27T14:51:20.999Z</time></trkpt><trkpt lat="38.11265370955088" lon="15.50967457411463"><ele>17.5</ele><time>2026-03-27T14:51:21.999Z</time></trkpt><trkpt lat="38.1124410332677" lon="15.509524916991499"><ele>19.0</ele><time>2026-03-27T14:51:22.999Z</time></trkpt><trkpt lat="38.112225484141916" lon="15.509372335638707"><ele>19.0</ele><time>2026-03-27T14:51:23.999Z</time></trkpt><trkpt lat="38.112009758720134" lon="15.509220271533028"><ele>19.0</ele><time>2026-03-27T14:51:24.999Z</time></trkpt><trkpt lat="38.11179312092721" lon="15.509061257395956"><ele>19.0</ele><time>2026-03-27T14:51:25.999Z</time></trkpt><trkpt lat="38.11157812394371" lon="15.50889679066619"><ele>19.0</ele><time>2026-03-27T14:51:26.999Z</time></trkpt><trkpt lat="38.11136995546924" lon="15.508713391537896"><ele>23.0</ele><time>2026-03-27T14:51:27.999Z</time></trkpt><trkpt lat="38.11116852198008" lon="15.508513569731479"><ele>27.0</ele><time>2026-03-27T14:51:28.999Z</time></trkpt><trkpt lat="38.1109623517288" lon="15.508313442257396"><ele>27.0</ele><time>2026-03-27T14:51:29.999Z</time></trkpt><trkpt lat="38.11075428911811" lon="15.508111564721533"><ele>27.0</ele><time>2026-03-27T14:51:30.999Z</time></trkpt><trkpt lat="38.1105417239333" lon="15.507911373188904"><ele>27.5</ele><time>2026-03-27T14:51:31.999Z</time></trkpt><trkpt lat="38.11033165410189" lon="15.507711921628943"><ele>28.0</ele><time>2026-03-27T14:51:32.999Z</time></trkpt><trkpt lat="38.11012063417175" lon="15.507515705766261"><ele>21.5</ele><time>2026-03-27T14:51:33.999Z</time></trkpt><trkpt lat="38.10990778486733" lon="15.50731948875326"><ele>15.0</ele><time>2026-03-27T14:51:34.999Z</time></trkpt><trkpt lat="38.10970028589455" lon="15.507129420669107"><ele>17.5</ele><time>2026-03-27T14:51:35.999Z</time></trkpt><trkpt lat="38.109496690452964" lon="15.506934574145316"><ele>20.0</ele><time>2026-03-27T14:51:37Z</time></trkpt><trkpt lat="38.10929812204555" lon="15.506746947107558"><ele>20.0</ele><time>2026-03-27T14:51:38Z</time></trkpt><trkpt lat="38.10910356118331" lon="15.506568161837817"><ele>20.0</ele><time>2026-03-27T14:51:39Z</time></trkpt><trkpt lat="38.10890679123347" lon="15.506399653185579"><ele>20.5</ele><time>2026-03-27T14:51:40Z</time></trkpt><trkpt lat="38.10870752247697" lon="15.506246113774896"><ele>21.0</ele><time>2026-03-27T14:51:41Z</time></trkpt><trkpt lat="38.10850513593577" lon="15.506107077736827"><ele>21.0</ele><time>2026-03-27T14:51:42Z</time></trkpt><trkpt lat="38.10829755563435" lon="15.50597599766722"><ele>21.0</ele><time>2026-03-27T14:51:43Z</time></trkpt><trkpt lat="38.10809019310168" lon="15.50585714490867"><ele>21.0</ele><time>2026-03-27T14:51:44Z</time></trkpt><trkpt lat="38.10787961135602" lon="15.505748105678114"><ele>21.0</ele><time>2026-03-27T14:51:45Z</time></trkpt><trkpt lat="38.107670684206134" lon="15.505648697085787"><ele>21.0</ele><time>2026-03-27T14:51:46Z</time></trkpt><trkpt lat="38.10746130554819" lon="15.505558424015824"><ele>21.0</ele><time>2026-03-27T14:51:47Z</time></trkpt><trkpt lat="38.10725036116999" lon="15.505477481203878"><ele>21.0</ele><time>2026-03-27T14:51:48Z</time></trkpt><trkpt lat="38.10704265848468" lon="15.505400595525582"><ele>24.0</ele><time>2026-03-27T14:51:49Z</time></trkpt><trkpt lat="38.10684037609778" lon="15.505325645242161"><ele>27.0</ele><time>2026-03-27T14:51:50Z</time></trkpt><trkpt lat="38.10663760847451" lon="15.505249920737036"><ele>30.0</ele><time>2026-03-27T14:51:51Z</time></trkpt><trkpt lat="38.106436904181656" lon="15.505173377535009"><ele>30.0</ele><time>2026-03-27T14:51:52Z</time></trkpt><trkpt lat="38.10623298953679" lon="15.505094623791054"><ele>30.0</ele><time>2026-03-27T14:51:53Z</time></trkpt><trkpt lat="38.10602735500163" lon="15.50501776329293"><ele>30.0</ele><time>2026-03-27T14:51:54Z</time></trkpt><trkpt lat="38.105819691548234" lon="15.504937285732902"><ele>29.333333333333336</ele><time>2026-03-27T14:51:55Z</time></trkpt><trkpt lat="38.105610962109395" lon="15.504858831812925"><ele>28.666666666666668</ele><time>2026-03-27T14:51:56Z</time></trkpt><trkpt lat="38.10540025388156" lon="15.50478315119851"><ele>28.0</ele><time>2026-03-27T14:51:57Z</time></trkpt><trkpt lat="38.105188452814296" lon="15.504709619534617"><ele>28.0</ele><time>2026-03-27T14:51:58Z</time></trkpt><trkpt lat="38.104972229344796" lon="15.504640280894447"><ele>28.0</ele><time>2026-03-27T14:51:59Z</time></trkpt><trkpt lat="38.10475361638722" lon="15.504576060500513"><ele>28.0</ele><time>2026-03-27T14:52:00Z</time></trkpt><trkpt lat="38.10453299954035" lon="15.504523252783748"><ele>29.333333333333336</ele><time>2026-03-27T14:52:01Z</time></trkpt><trkpt lat="38.104313436468466" lon="15.504473225753264"><ele>30.666666666666664</ele><time>2026-03-27T14:52:02Z</time></trkpt><trkpt lat="38.104093591308455" lon="15.504426910046059"><ele>32.0</ele><time>2026-03-27T14:52:03Z</time></trkpt><trkpt lat="38.10387066346557" lon="15.504377993943628"><ele>32.0</ele><time>2026-03-27T14:52:04Z</time></trkpt><trkpt lat="38.1036469382012" lon="15.504326302120568"><ele>32.0</ele><time>2026-03-27T14:52:05Z</time></trkpt><trkpt lat="38.10342989099911" lon="15.504274474518091"><ele>32.0</ele><time>2026-03-27T14:52:06Z</time></trkpt><trkpt lat="38.10321867238236" lon="15.50422637653016"><ele>29.333333333333332</ele><time>2026-03-27T14:52:07Z</time></trkpt><trkpt lat="38.103014802952266" lon="15.504182491884276"><ele>26.666666666666664</ele><time>2026-03-27T14:52:08Z</time></trkpt><trkpt lat="38.102810904428786" lon="15.504141616618764"><ele>24.0</ele><time>2026-03-27T14:52:09Z</time></trkpt><trkpt lat="38.10260469373977" lon="15.504097413461919"><ele>23.0</ele><time>2026-03-27T14:52:10Z</time></trkpt><trkpt lat="38.10239617191552" lon="15.50405304976692"><ele>22.0</ele><time>2026-03-27T14:52:11Z</time></trkpt><trkpt lat="38.10218463974051" lon="15.504009906394826"><ele>21.0</ele><time>2026-03-27T14:52:12Z</time></trkpt><trkpt lat="38.10197047200965" lon="15.503964182058661"><ele>21.0</ele><time>2026-03-27T14:52:13Z</time></trkpt><trkpt lat="38.10175652499835" lon="15.503914558991953"><ele>21.0</ele><time>2026-03-27T14:52:14Z</time></trkpt><trkpt lat="38.10154754634651" lon="15.503858094457904"><ele>21.0</ele><time>2026-03-27T14:52:15Z</time></trkpt><trkpt lat="38.101344973080096" lon="15.503793587019521"><ele>26.666666666666664</ele><time>2026-03-27T14:52:16Z</time></trkpt><trkpt lat="38.10115500852426" lon="15.503719114162967"><ele>32.33333333333333</ele><time>2026-03-27T14:52:17Z</time></trkpt><trkpt lat="38.10097223772565" lon="15.503631942352262"><ele>38.0</ele><time>2026-03-27T14:52:18Z</time></trkpt><trkpt lat="38.10079558414167" lon="15.50353393564481"><ele>43.33333333333333</ele><time>2026-03-27T14:52:19Z</time></trkpt><trkpt lat="38.100620492765266" lon="15.503424830467539"><ele>48.666666666666664</ele><time>2026-03-27T14:52:20Z</time></trkpt><trkpt lat="38.10045416651199" lon="15.50331147430956"><ele>54.0</ele><time>2026-03-27T14:52:21Z</time></trkpt><trkpt lat="38.100286583507334" lon="15.503195586520595"><ele>54.0</ele><time>2026-03-27T14:52:22Z</time></trkpt><trkpt lat="38.10011982177446" lon="15.503081595964376"><ele>54.0</ele><time>2026-03-27T14:52:23Z</time></trkpt><trkpt lat="38.0999514890894" lon="15.5029576413784"><ele>54.0</ele><time>2026-03-27T14:52:24Z</time></trkpt><trkpt lat="38.099782543184794" lon="15.502848542017007"><ele>59.33333333333333</ele><time>2026-03-27T14:52:25Z</time></trkpt><trkpt lat="38.09962023890897" lon="15.502731194875288"><ele>64.66666666666666</ele><time>2026-03-27T14:52:26Z</time></trkpt><trkpt lat="38.09945964192864" lon="15.502610708424324"><ele>70.0</ele><time>2026-03-27T14:52:27Z</time></trkpt><trkpt lat="38.09929530229275" lon="15.502498004085437"><ele>70.0</ele><time>2026-03-27T14:52:28Z</time></trkpt><trkpt lat="38.099132844761854" lon="15.502381027355929"><ele>70.0</ele><time>2026-03-27T14:52:29Z</time></trkpt><trkpt lat="38.098976535887665" lon="15.502260711343517"><ele>70.0</ele><time>2026-03-27T14:52:30Z</time></trkpt><trkpt lat="38.098623024271255" lon="15.501906141220159"><ele>56.0</ele><time>2026-03-27T14:52:31Z</time></trkpt><trkpt lat="38.098437424596526" lon="15.50176234659569"><ele>42.0</ele><time>2026-03-27T14:52:32Z</time></trkpt><trkpt lat="38.09828664375388" lon="15.501623713805143"><ele>28.0</ele><time>2026-03-27T14:52:33Z</time></trkpt><trkpt lat="38.098142099438036" lon="15.501559128778363"><ele>26.666666666666668</ele><time>2026-03-27T14:52:34Z</time></trkpt><trkpt lat="38.09797341977956" lon="15.501432901148391"><ele>25.333333333333336</ele><time>2026-03-27T14:52:35Z</time></trkpt><trkpt lat="38.09779582142941" lon="15.501307855520038"><ele>24.0</ele><time>2026-03-27T14:52:36Z</time></trkpt><trkpt lat="38.097609134933904" lon="15.501192655004454"><ele>24.0</ele><time>2026-03-27T14:52:37Z</time></trkpt><trkpt lat="38.09741983690471" lon="15.501078976543235"><ele>24.0</ele><time>2026-03-27T14:52:38Z</time></trkpt><trkpt lat="38.09722493562864" lon="15.50097416179759"><ele>24.0</ele><time>2026-03-27T14:52:39Z</time></trkpt><trkpt lat="38.09702755954731" lon="15.500868139403766"><ele>23.333333333333332</ele><time>2026-03-27T14:52:40Z</time></trkpt><trkpt lat="38.09682640099966" lon="15.500771430833975"><ele>22.666666666666664</ele><time>2026-03-27T14:52:41Z</time></trkpt><trkpt lat="38.096620658219294" lon="15.500679026034481"><ele>22.0</ele><time>2026-03-27T14:52:42Z</time></trkpt><trkpt lat="38.09640991059012" lon="15.500591411931179"><ele>22.0</ele><time>2026-03-27T14:52:43Z</time></trkpt><trkpt lat="38.096201196527375" lon="15.50051326842849"><ele>22.0</ele><time>2026-03-27T14:52:44Z</time></trkpt><trkpt lat="38.09598468333955" lon="15.500437428098815"><ele>22.0</ele><time>2026-03-27T14:52:45Z</time></trkpt><trkpt lat="38.09577041485046" lon="15.500370419794498"><ele>30.0</ele><time>2026-03-27T14:52:46Z</time></trkpt><trkpt lat="38.09555277020416" lon="15.500309027315472"><ele>38.0</ele><time>2026-03-27T14:52:47Z</time></trkpt><trkpt lat="38.09533580545157" lon="15.500246909069112"><ele>46.0</ele><time>2026-03-27T14:52:48Z</time></trkpt><trkpt lat="38.09511907714647" lon="15.500184276131593"><ele>57.5</ele><time>2026-03-27T14:52:49Z</time></trkpt><trkpt lat="38.09490433967061" lon="15.500122595099626"><ele>69.0</ele><time>2026-03-27T14:52:50Z</time></trkpt><trkpt lat="38.094674276540744" lon="15.500071660132127"><ele>69.0</ele><time>2026-03-27T14:52:51Z</time></trkpt><trkpt lat="38.0944421724572" lon="15.50003420073835"><ele>69.0</ele><time>2026-03-27T14:52:52Z</time></trkpt><trkpt lat="38.094218078055086" lon="15.500006041012357"><ele>64.0</ele><time>2026-03-27T14:52:53Z</time></trkpt><trkpt lat="38.09399978737149" lon="15.499975952901027"><ele>59.0</ele><time>2026-03-27T14:52:54Z</time></trkpt><trkpt lat="38.09378468599121" lon="15.499902351874494"><ele>54.0</ele><time>2026-03-27T14:52:55Z</time></trkpt><trkpt lat="38.093561175602396" lon="15.499838219745232"><ele>54.0</ele><time>2026-03-27T14:52:56Z</time></trkpt><trkpt lat="38.093341004112766" lon="15.499774159681094"><ele>54.0</ele><time>2026-03-27T14:52:57Z</time></trkpt><trkpt lat="38.09312412833183" lon="15.499708552697337"><ele>54.0</ele><time>2026-03-27T14:52:58Z</time></trkpt><trkpt lat="38.09289719512705" lon="15.499533673659109"><ele>51.0</ele><time>2026-03-27T14:52:59Z</time></trkpt><trkpt lat="38.092684369982386" lon="15.499454664139899"><ele>48.0</ele><time>2026-03-27T14:53:00Z</time></trkpt><trkpt lat="38.092477713180344" lon="15.49934386659545"><ele>45.0</ele><time>2026-03-27T14:53:01Z</time></trkpt><trkpt lat="38.09226108768289" lon="15.499223703885837"><ele>38.0</ele><time>2026-03-27T14:53:02Z</time></trkpt><trkpt lat="38.09204335496177" lon="15.499094141911472"><ele>31.0</ele><time>2026-03-27T14:53:03Z</time></trkpt><trkpt lat="38.09183378229257" lon="15.498947639947124"><ele>31.0</ele><time>2026-03-27T14:53:04Z</time></trkpt><trkpt lat="38.091635705419385" lon="15.498802357821203"><ele>31.0</ele><time>2026-03-27T14:53:05Z</time></trkpt><trkpt lat="38.09146937507263" lon="15.498663339723725"><ele>31.0</ele><time>2026-03-27T14:53:06Z</time></trkpt><trkpt lat="38.091283057149965" lon="15.498518496600271"><ele>32.66666666666667</ele><time>2026-03-27T14:53:07Z</time></trkpt><trkpt lat="38.09109773254924" lon="15.498375851330353"><ele>34.333333333333336</ele><time>2026-03-27T14:53:08Z</time></trkpt><trkpt lat="38.09091263053622" lon="15.498235526373614"><ele>36.0</ele><time>2026-03-27T14:53:08.999Z</time></trkpt><trkpt lat="38.09072926604764" lon="15.498094699468922"><ele>39.0</ele><time>2026-03-27T14:53:09.999Z</time></trkpt><trkpt lat="38.090549096625246" lon="15.49794903252823"><ele>42.0</ele><time>2026-03-27T14:53:10.999Z</time></trkpt><trkpt lat="38.0903647202159" lon="15.49780754560179"><ele>45.0</ele><time>2026-03-27T14:53:11.999Z</time></trkpt><trkpt lat="38.09018300925884" lon="15.497664149395566"><ele>45.333333333333336</ele><time>2026-03-27T14:53:12.999Z</time></trkpt><trkpt lat="38.089999439781046" lon="15.497523907811885"><ele>45.66666666666667</ele><time>2026-03-27T14:53:13.999Z</time></trkpt><trkpt lat="38.089810657749325" lon="15.497377608458113"><ele>46.0</ele><time>2026-03-27T14:53:14.999Z</time></trkpt><trkpt lat="38.089618784692355" lon="15.49723293454472"><ele>46.0</ele><time>2026-03-27T14:53:15.999Z</time></trkpt><trkpt lat="38.08944070313198" lon="15.497109809574416"><ele>46.0</ele><time>2026-03-27T14:53:16.999Z</time></trkpt><trkpt lat="38.08925868727054" lon="15.49697391464784"><ele>46.0</ele><time>2026-03-27T14:53:17.999Z</time></trkpt><trkpt lat="38.08906649919156" lon="15.49686922068644"><ele>43.0</ele><time>2026-03-27T14:53:18.999Z</time></trkpt><trkpt lat="38.08887961091129" lon="15.496758360500777"><ele>40.0</ele><time>2026-03-27T14:53:19.999Z</time></trkpt><trkpt lat="38.08868428866124" lon="15.496642497254493"><ele>37.0</ele><time>2026-03-27T14:53:20.999Z</time></trkpt><trkpt lat="38.08848403292488" lon="15.49660512576352"><ele>37.0</ele><time>2026-03-27T14:53:21.999Z</time></trkpt><trkpt lat="38.088287506592906" lon="15.49648941371751"><ele>37.0</ele><time>2026-03-27T14:53:22.999Z</time></trkpt><trkpt lat="38.08808462794741" lon="15.49637111910941"><ele>37.0</ele><time>2026-03-27T14:53:23.999Z</time></trkpt><trkpt lat="38.08789494330759" lon="15.496279736477128"><ele>42.66666666666667</ele><time>2026-03-27T14:53:24.999Z</time></trkpt><trkpt lat="38.08770819923092" lon="15.496166299420352"><ele>48.333333333333336</ele><time>2026-03-27T14:53:25.999Z</time></trkpt><trkpt lat="38.08752063811576" lon="15.496061044436951"><ele>54.0</ele><time>2026-03-27T14:53:26.999Z</time></trkpt><trkpt lat="38.08732450553625" lon="15.495964146704498"><ele>17.0</ele><time>2026-03-27T14:53:27.999Z</time></trkpt><trkpt lat="38.08539495340382" lon="15.49542706436169"><ele>24.5</ele><time>2026-03-27T14:53:36.999Z</time></trkpt><trkpt lat="38.085184744645474" lon="15.495384157714552"><ele>32.0</ele><time>2026-03-27T14:53:37.999Z</time></trkpt><trkpt lat="38.084841846584396" lon="15.49531636542209"><ele>32.0</ele><time>2026-03-27T14:53:38.999Z</time></trkpt><trkpt lat="38.08452227460757" lon="15.495239776082107"><ele>32.0</ele><time>2026-03-27T14:53:39.999Z</time></trkpt><trkpt lat="38.084252810953544" lon="15.495191613893985"><ele>26.5</ele><time>2026-03-27T14:53:40.999Z</time></trkpt><trkpt lat="38.08401046656628" lon="15.495108515770218"><ele>21.0</ele><time>2026-03-27T14:53:41.999Z</time></trkpt><trkpt lat="38.08380424104501" lon="15.495023240884453"><ele>21.0</ele><time>2026-03-27T14:53:43Z</time></trkpt><trkpt lat="38.08359054994479" lon="15.494918963815692"><ele>21.0</ele><time>2026-03-27T14:53:44Z</time></trkpt><trkpt lat="38.08339152531605" lon="15.494807722296528"><ele>21.0</ele><time>2026-03-27T14:53:45Z</time></trkpt><trkpt lat="38.083211065775416" lon="15.494685738573295"><ele>33.33333333333333</ele><time>2026-03-27T14:53:46Z</time></trkpt><trkpt lat="38.08303637759435" lon="15.49455976909945"><ele>45.666666666666664</ele><time>2026-03-27T14:53:47Z</time></trkpt><trkpt lat="38.08287925035104" lon="15.49443896073697"><ele>58.0</ele><time>2026-03-27T14:53:48Z</time></trkpt><trkpt lat="38.08273746634978" lon="15.49431237811872"><ele>58.0</ele><time>2026-03-27T14:53:49Z</time></trkpt><trkpt lat="38.082601612358076" lon="15.494187459349394"><ele>58.0</ele><time>2026-03-27T14:53:50Z</time></trkpt><trkpt lat="38.08247556621217" lon="15.494069006423969"><ele>58.0</ele><time>2026-03-27T14:53:51Z</time></trkpt><trkpt lat="38.08234913832782" lon="15.493964978766853"><ele>56.0</ele><time>2026-03-27T14:53:52Z</time></trkpt><trkpt lat="38.08223092483322" lon="15.493855736342242"><ele>54.0</ele><time>2026-03-27T14:53:53Z</time></trkpt><trkpt lat="38.08212358471306" lon="15.49374446547877"><ele>52.0</ele><time>2026-03-27T14:53:54Z</time></trkpt><trkpt lat="38.082030701155695" lon="15.493626428183049"><ele>50.0</ele><time>2026-03-27T14:53:55.061Z</time></trkpt><trkpt lat="38.08193326381856" lon="15.493519440058467"><ele>25.0</ele><time>2026-03-27T14:53:56.056Z</time></trkpt><trkpt lat="38.08116542855811" lon="15.493067386500444"><ele>25.0</ele><time>2026-03-27T14:54:00Z</time></trkpt><trkpt lat="38.08098899129586" lon="15.492946201983022"><ele>25.0</ele><time>2026-03-27T14:54:01Z</time></trkpt><trkpt lat="38.08082801578746" lon="15.492844855874141"><ele>25.0</ele><time>2026-03-27T14:54:02Z</time></trkpt><trkpt lat="38.08066194644052" lon="15.492751494825624"><ele>36.333333333333336</ele><time>2026-03-27T14:54:03Z</time></trkpt><trkpt lat="38.08048768377828" lon="15.492666900468604"><ele>47.66666666666667</ele><time>2026-03-27T14:54:04Z</time></trkpt><trkpt lat="38.08030381029502" lon="15.492585866255252"><ele>59.0</ele><time>2026-03-27T14:54:05Z</time></trkpt><trkpt lat="38.08011517924002" lon="15.492511799282086"><ele>55.66666666666667</ele><time>2026-03-27T14:54:06Z</time></trkpt><trkpt lat="38.0799253350476" lon="15.492445186740733"><ele>52.33333333333333</ele><time>2026-03-27T14:54:07Z</time></trkpt><trkpt lat="38.07973240307634" lon="15.492386414597963"><ele>49.0</ele><time>2026-03-27T14:54:08Z</time></trkpt><trkpt lat="38.07953620659272" lon="15.492338523903339"><ele>49.0</ele><time>2026-03-27T14:54:09Z</time></trkpt><trkpt lat="38.07932796553345" lon="15.49228837993733"><ele>49.0</ele><time>2026-03-27T14:54:10Z</time></trkpt><trkpt lat="38.079125342242094" lon="15.49232003552075"><ele>49.0</ele><time>2026-03-27T14:54:11Z</time></trkpt><trkpt lat="38.078903978731766" lon="15.4923217161035"><ele>48.33333333333333</ele><time>2026-03-27T14:54:12Z</time></trkpt><trkpt lat="38.07868400576642" lon="15.492314198313949"><ele>47.666666666666664</ele><time>2026-03-27T14:54:13Z</time></trkpt><trkpt lat="38.07846359912691" lon="15.492309463317273"><ele>47.0</ele><time>2026-03-27T14:54:14Z</time></trkpt><trkpt lat="38.07824146800489" lon="15.492306738929589"><ele>40.33333333333333</ele><time>2026-03-27T14:54:15Z</time></trkpt><trkpt lat="38.078019199788415" lon="15.49230488788979"><ele>33.666666666666664</ele><time>2026-03-27T14:54:16Z</time></trkpt><trkpt lat="38.077825632040984" lon="15.492291669622075"><ele>27.0</ele><time>2026-03-27T14:54:17Z</time></trkpt><trkpt lat="38.077582461014" lon="15.49224623750357"><ele>21.5</ele><time>2026-03-27T14:54:18Z</time></trkpt><trkpt lat="38.07735488203096" lon="15.492223959982404"><ele>16.0</ele><time>2026-03-27T14:54:19Z</time></trkpt><trkpt lat="38.07713231009196" lon="15.49219556729558"><ele>16.0</ele><time>2026-03-27T14:54:20Z</time></trkpt><trkpt lat="38.07691529059509" lon="15.49215210421881"><ele>16.0</ele><time>2026-03-27T14:54:21Z</time></trkpt><trkpt lat="38.07669795668856" lon="15.492096219935238"><ele>16.0</ele><time>2026-03-27T14:54:22Z</time></trkpt><trkpt lat="38.07647877569447" lon="15.492029252979451"><ele>25.5</ele><time>2026-03-27T14:54:23Z</time></trkpt><trkpt lat="38.07626303026699" lon="15.491950835838216"><ele>35.0</ele><time>2026-03-27T14:54:24Z</time></trkpt><trkpt lat="38.07604505419288" lon="15.491860992857205"><ele>35.0</ele><time>2026-03-27T14:54:25Z</time></trkpt><trkpt lat="38.07582865934183" lon="15.491757628501087"><ele>35.0</ele><time>2026-03-27T14:54:26Z</time></trkpt><trkpt lat="38.0756141429435" lon="15.49164236679153"><ele>26.5</ele><time>2026-03-27T14:54:27Z</time></trkpt><trkpt lat="38.07540221065901" lon="15.491511333943782"><ele>18.0</ele><time>2026-03-27T14:54:28Z</time></trkpt><trkpt lat="38.07519922551249" lon="15.491373642398273"><ele>21.666666666666664</ele><time>2026-03-27T14:54:29Z</time></trkpt><trkpt lat="38.075013850087466" lon="15.491232082706816"><ele>25.333333333333332</ele><time>2026-03-27T14:54:30Z</time></trkpt><trkpt lat="38.074842448092284" lon="15.49108600613684"><ele>29.0</ele><time>2026-03-27T14:54:31Z</time></trkpt><trkpt lat="38.07468530136058" lon="15.490944337847996"><ele>29.0</ele><time>2026-03-27T14:54:32Z</time></trkpt><trkpt lat="38.07453793317286" lon="15.49080049742088"><ele>29.0</ele><time>2026-03-27T14:54:33Z</time></trkpt><trkpt lat="38.074401719474245" lon="15.490655306128902"><ele>29.0</ele><time>2026-03-27T14:54:34Z</time></trkpt><trkpt lat="38.074276038248726" lon="15.490505372751146"><ele>35.666666666666664</ele><time>2026-03-27T14:54:35Z</time></trkpt><trkpt lat="38.07415377046442" lon="15.490355450905156"><ele>42.33333333333333</ele><time>2026-03-27T14:54:36Z</time></trkpt><trkpt lat="38.07402855746339" lon="15.490211760229947"><ele>49.0</ele><time>2026-03-27T14:54:37Z</time></trkpt><trkpt lat="38.07391276401667" lon="15.490036571254633"><ele>49.0</ele><time>2026-03-27T14:54:38Z</time></trkpt><trkpt lat="38.07379641956846" lon="15.489860219846616"><ele>49.0</ele><time>2026-03-27T14:54:39Z</time></trkpt><trkpt lat="38.07367980655477" lon="15.489676680776663"><ele>49.0</ele><time>2026-03-27T14:54:40Z</time></trkpt><trkpt lat="38.07356413625836" lon="15.489488634162978"><ele>48.0</ele><time>2026-03-27T14:54:41Z</time></trkpt><trkpt lat="38.07345063209176" lon="15.489301466764624"><ele>47.0</ele><time>2026-03-27T14:54:42Z</time></trkpt><trkpt lat="38.0733397066852" lon="15.489118321887027"><ele>46.0</ele><time>2026-03-27T14:54:43Z</time></trkpt><trkpt lat="38.073231539950704" lon="15.488937330162488"><ele>50.66666666666667</ele><time>2026-03-27T14:54:44Z</time></trkpt><trkpt lat="38.07312584257419" lon="15.488758487105653"><ele>55.333333333333336</ele><time>2026-03-27T14:54:45Z</time></trkpt><trkpt lat="38.07302482327745" lon="15.488574241408127"><ele>60.0</ele><time>2026-03-27T14:54:46Z</time></trkpt><trkpt lat="38.072922102401286" lon="15.488388987638304"><ele>60.0</ele><time>2026-03-27T14:54:47Z</time></trkpt><trkpt lat="38.07281862502975" lon="15.488213533333562"><ele>60.0</ele><time>2026-03-27T14:54:48Z</time></trkpt><trkpt lat="38.07271608006841" lon="15.488036408790416"><ele>60.0</ele><time>2026-03-27T14:54:49Z</time></trkpt><trkpt lat="38.0726134063852" lon="15.487860716957922"><ele>60.0</ele><time>2026-03-27T14:54:50Z</time></trkpt><trkpt lat="38.07245773486842" lon="15.488015806373507"><ele>60.0</ele><time>2026-03-27T14:54:51Z</time></trkpt><trkpt lat="38.07235110406619" lon="15.487889732291881"><ele>60.0</ele><time>2026-03-27T14:54:52Z</time></trkpt><trkpt lat="38.072251669544166" lon="15.487779566314707"><ele>49.0</ele><time>2026-03-27T14:54:53Z</time></trkpt><trkpt lat="38.07208459790932" lon="15.48755651001691"><ele>38.0</ele><time>2026-03-27T14:54:54Z</time></trkpt><trkpt lat="38.071978706191906" lon="15.487468593599255"><ele>27.0</ele><time>2026-03-27T14:54:55Z</time></trkpt><trkpt lat="38.0718784443597" lon="15.487398785937685"><ele>27.0</ele><time>2026-03-27T14:54:56Z</time></trkpt><trkpt lat="38.07177624427841" lon="15.487291719904766"><ele>27.0</ele><time>2026-03-27T14:54:57Z</time></trkpt><trkpt lat="38.071678081146565" lon="15.487188819404516"><ele>27.0</ele><time>2026-03-27T14:54:58Z</time></trkpt><trkpt lat="38.07158155814307" lon="15.487085084786795"><ele>27.0</ele><time>2026-03-27T14:54:59Z</time></trkpt><trkpt lat="38.07148233131532" lon="15.486977075517554"><ele>25.75</ele><time>2026-03-27T14:55:00Z</time></trkpt><trkpt lat="38.0713783759957" lon="15.486864325801069"><ele>24.5</ele><time>2026-03-27T14:55:01Z</time></trkpt><trkpt lat="38.071272103156055" lon="15.486748212942208"><ele>23.25</ele><time>2026-03-27T14:55:02Z</time></trkpt><trkpt lat="38.0711619595775" lon="15.486629713892778"><ele>22.0</ele><time>2026-03-27T14:55:03Z</time></trkpt><trkpt lat="38.071050057241685" lon="15.486507697835455"><ele>22.0</ele><time>2026-03-27T14:55:04Z</time></trkpt><trkpt lat="38.07093526754756" lon="15.48638420682548"><ele>22.0</ele><time>2026-03-27T14:55:05Z</time></trkpt><trkpt lat="38.070818496977886" lon="15.486257987938806"><ele>22.0</ele><time>2026-03-27T14:55:06Z</time></trkpt><trkpt lat="38.070696610273096" lon="15.486126325753654"><ele>29.333333333333332</ele><time>2026-03-27T14:55:07Z</time></trkpt><trkpt lat="38.070574092416436" lon="15.4859993020507"><ele>36.666666666666664</ele><time>2026-03-27T14:55:08Z</time></trkpt><trkpt lat="38.07044879629202" lon="15.485862976046517"><ele>44.0</ele><time>2026-03-27T14:55:09Z</time></trkpt><trkpt lat="38.07032150180763" lon="15.485722094383455"><ele>44.0</ele><time>2026-03-27T14:55:10Z</time></trkpt><trkpt lat="38.07019198100537" lon="15.485580292122968"><ele>44.0</ele><time>2026-03-27T14:55:11Z</time></trkpt><trkpt lat="38.070058927811296" lon="15.485436512570017"><ele>44.0</ele><time>2026-03-27T14:55:12Z</time></trkpt><trkpt lat="38.06992385001175" lon="15.485293588704696"><ele>41.0</ele><time>2026-03-27T14:55:13Z</time></trkpt><trkpt lat="38.069787474516914" lon="15.4851525725983"><ele>38.0</ele><time>2026-03-27T14:55:14Z</time></trkpt><trkpt lat="38.069650563610345" lon="15.485012131343007"><ele>35.0</ele><time>2026-03-27T14:55:15Z</time></trkpt><trkpt lat="38.069513517391556" lon="15.484870305579639"><ele>35.0</ele><time>2026-03-27T14:55:16Z</time></trkpt><trkpt lat="38.06937856692208" lon="15.484714376480557"><ele>35.0</ele><time>2026-03-27T14:55:17Z</time></trkpt><trkpt lat="38.069232420351334" lon="15.48453474808912"><ele>35.0</ele><time>2026-03-27T14:55:18Z</time></trkpt><trkpt lat="38.069102136512164" lon="15.484359666599598"><ele>31.333333333333332</ele><time>2026-03-27T14:55:19Z</time></trkpt><trkpt lat="38.06896455738677" lon="15.484185854921801"><ele>27.666666666666664</ele><time>2026-03-27T14:55:19.999Z</time></trkpt><trkpt lat="38.06882676490293" lon="15.484010153163728"><ele>24.0</ele><time>2026-03-27T14:55:20.999Z</time></trkpt><trkpt lat="38.06868864984605" lon="15.483827824288973"><ele>22.333333333333332</ele><time>2026-03-27T14:55:21.999Z</time></trkpt><trkpt lat="38.06855008002702" lon="15.483639700040365"><ele>20.666666666666664</ele><time>2026-03-27T14:55:22.999Z</time></trkpt><trkpt lat="38.06841105297041" lon="15.483445953329932"><ele>19.0</ele><time>2026-03-27T14:55:23.999Z</time></trkpt><trkpt lat="38.06827035375504" lon="15.4832482528625"><ele>19.0</ele><time>2026-03-27T14:55:24.999Z</time></trkpt><trkpt lat="38.0681345886939" lon="15.48305570575152"><ele>19.0</ele><time>2026-03-27T14:55:25.999Z</time></trkpt><trkpt lat="38.06798499591438" lon="15.482855730644017"><ele>19.0</ele><time>2026-03-27T14:55:26.999Z</time></trkpt><trkpt lat="38.06784542017162" lon="15.482650560420343"><ele>20.666666666666664</ele><time>2026-03-27T14:55:27.999Z</time></trkpt><trkpt lat="38.06769517994329" lon="15.482441650836027"><ele>22.333333333333332</ele><time>2026-03-27T14:55:28.999Z</time></trkpt><trkpt lat="38.067542774649496" lon="15.482233476734487"><ele>24.0</ele><time>2026-03-27T14:55:29.999Z</time></trkpt><trkpt lat="38.06739121310011" lon="15.482024656770257"><ele>24.0</ele><time>2026-03-27T14:55:30.999Z</time></trkpt><trkpt lat="38.06724018806838" lon="15.481817583520582"><ele>24.0</ele><time>2026-03-27T14:55:31.999Z</time></trkpt><trkpt lat="38.06709178324298" lon="15.481614316936842"><ele>24.0</ele><time>2026-03-27T14:55:32.999Z</time></trkpt><trkpt lat="38.066935961644916" lon="15.481418186713883"><ele>22.666666666666668</ele><time>2026-03-27T14:55:33.999Z</time></trkpt><trkpt lat="38.066774383965985" lon="15.48123159886278"><ele>21.333333333333336</ele><time>2026-03-27T14:55:34.999Z</time></trkpt><trkpt lat="38.0666054574012" lon="15.481054192303338"><ele>20.0</ele><time>2026-03-27T14:55:35.999Z</time></trkpt><trkpt lat="38.066431911644976" lon="15.480882622347432"><ele>20.0</ele><time>2026-03-27T14:55:36.999Z</time></trkpt><trkpt lat="38.066256615049326" lon="15.480713061978552"><ele>20.0</ele><time>2026-03-27T14:55:37.999Z</time></trkpt><trkpt lat="38.06608399285775" lon="15.480540663586092"><ele>20.0</ele><time>2026-03-27T14:55:38.999Z</time></trkpt><trkpt lat="38.06591221472265" lon="15.480370094816951"><ele>20.333333333333336</ele><time>2026-03-27T14:55:39.999Z</time></trkpt><trkpt lat="38.0657416889352" lon="15.480198656160773"><ele>20.666666666666668</ele><time>2026-03-27T14:55:40.999Z</time></trkpt><trkpt lat="38.06557202749104" lon="15.480023474630308"><ele>21.0</ele><time>2026-03-27T14:55:41.999Z</time></trkpt><trkpt lat="38.065397437998755" lon="15.479839845606206"><ele>21.0</ele><time>2026-03-27T14:55:42.999Z</time></trkpt><trkpt lat="38.0652158051612" lon="15.47965436113967"><ele>21.0</ele><time>2026-03-27T14:55:43.999Z</time></trkpt><trkpt lat="38.065029414861066" lon="15.479465704474006"><ele>23.5</ele><time>2026-03-27T14:55:44.999Z</time></trkpt><trkpt lat="38.06483992307208" lon="15.47927505326564"><ele>26.0</ele><time>2026-03-27T14:55:45.999Z</time></trkpt><trkpt lat="38.06464614204069" lon="15.479081766708529"><ele>26.0</ele><time>2026-03-27T14:55:46.999Z</time></trkpt><trkpt lat="38.06445091678946" lon="15.47888630299423"><ele>26.0</ele><time>2026-03-27T14:55:48Z</time></trkpt><trkpt lat="38.064254709831914" lon="15.478687957581842"><ele>37.5</ele><time>2026-03-27T14:55:49Z</time></trkpt><trkpt lat="38.064056847234745" lon="15.478490502764883"><ele>49.0</ele><time>2026-03-27T14:55:50Z</time></trkpt><trkpt lat="38.063859147410696" lon="15.478295439113541"><ele>49.0</ele><time>2026-03-27T14:55:51Z</time></trkpt><trkpt lat="38.063662367603264" lon="15.4781031403401"><ele>49.0</ele><time>2026-03-27T14:55:52Z</time></trkpt><trkpt lat="38.063465698319696" lon="15.477915948719765"><ele>45.5</ele><time>2026-03-27T14:55:53Z</time></trkpt><trkpt lat="38.06326534598544" lon="15.477742723740265"><ele>42.0</ele><time>2026-03-27T14:55:54Z</time></trkpt><trkpt lat="38.06305669392556" lon="15.47758685672473"><ele>42.0</ele><time>2026-03-27T14:55:55Z</time></trkpt><trkpt lat="38.06284041168501" lon="15.477446989338365"><ele>42.0</ele><time>2026-03-27T14:55:56Z</time></trkpt><trkpt lat="38.06262056556214" lon="15.477316618319955"><ele>34.5</ele><time>2026-03-27T14:55:57Z</time></trkpt><trkpt lat="38.062365008710486" lon="15.47713615087961"><ele>27.0</ele><time>2026-03-27T14:55:58Z</time></trkpt><trkpt lat="38.06213531346382" lon="15.477078522589283"><ele>27.0</ele><time>2026-03-27T14:55:59Z</time></trkpt><trkpt lat="38.06188003337824" lon="15.47698053302024"><ele>27.0</ele><time>2026-03-27T14:56:00Z</time></trkpt><trkpt lat="38.06163012716498" lon="15.476882878399383"><ele>27.0</ele><time>2026-03-27T14:56:01Z</time></trkpt><trkpt lat="38.06138368553985" lon="15.476789559737872"><ele>27.0</ele><time>2026-03-27T14:56:02Z</time></trkpt><trkpt lat="38.061136013232435" lon="15.476690449172036"><ele>27.0</ele><time>2026-03-27T14:56:03Z</time></trkpt><trkpt lat="38.06088729902647" lon="15.47658188325273"><ele>27.0</ele><time>2026-03-27T14:56:04Z</time></trkpt><trkpt lat="38.060641350709" lon="15.476489256773025"><ele>30.5</ele><time>2026-03-27T14:56:05Z</time></trkpt><trkpt lat="38.06039258974658" lon="15.476391490836718"><ele>34.0</ele><time>2026-03-27T14:56:06Z</time></trkpt><trkpt lat="38.06014350507944" lon="15.476295504048817"><ele>44.0</ele><time>2026-03-27T14:56:07Z</time></trkpt><trkpt lat="38.059894796307255" lon="15.476196248589565"><ele>54.0</ele><time>2026-03-27T14:56:08Z</time></trkpt><trkpt lat="38.05964997854531" lon="15.476098069926179"><ele>54.0</ele><time>2026-03-27T14:56:09Z</time></trkpt><trkpt lat="38.05940525869387" lon="15.4760005931273"><ele>54.0</ele><time>2026-03-27T14:56:10Z</time></trkpt><trkpt lat="38.05916686807897" lon="15.47590127869454"><ele>64.5</ele><time>2026-03-27T14:56:11Z</time></trkpt><trkpt lat="38.0589305769673" lon="15.475799951435894"><ele>75.0</ele><time>2026-03-27T14:56:12Z</time></trkpt><trkpt lat="38.058693768701886" lon="15.475692859511646"><ele>75.0</ele><time>2026-03-27T14:56:13Z</time></trkpt><trkpt lat="38.058453107350005" lon="15.475576347876125"><ele>75.0</ele><time>2026-03-27T14:56:14Z</time></trkpt><trkpt lat="38.05820881564152" lon="15.475452296512886"><ele>79.0</ele><time>2026-03-27T14:56:15Z</time></trkpt><trkpt lat="38.057961275978855" lon="15.475323957609456"><ele>83.0</ele><time>2026-03-27T14:56:16Z</time></trkpt><trkpt lat="38.05771099515976" lon="15.475188684986742"><ele>83.0</ele><time>2026-03-27T14:56:17Z</time></trkpt><trkpt lat="38.057460329646965" lon="15.475048749271272"><ele>83.0</ele><time>2026-03-27T14:56:18Z</time></trkpt><trkpt lat="38.05733748017445" lon="15.474904811850456"><ele>83.0</ele><time>2026-03-27T14:56:19Z</time></trkpt><trkpt lat="38.057114610760735" lon="15.474752549302531"><ele>89.0</ele><time>2026-03-27T14:56:20Z</time></trkpt><trkpt lat="38.05689274990232" lon="15.47459750340841"><ele>95.0</ele><time>2026-03-27T14:56:21Z</time></trkpt><trkpt lat="38.05666646701232" lon="15.474443101196684"><ele>92.0</ele><time>2026-03-27T14:56:22Z</time></trkpt><trkpt lat="38.05644084258495" lon="15.474285906327559"><ele>89.0</ele><time>2026-03-27T14:56:23Z</time></trkpt><trkpt lat="38.05621245160426" lon="15.474127890308026"><ele>89.0</ele><time>2026-03-27T14:56:24Z</time></trkpt><trkpt lat="38.05598201404696" lon="15.473973995461886"><ele>89.0</ele><time>2026-03-27T14:56:25Z</time></trkpt><trkpt lat="38.0557527250161" lon="15.473818130215232"><ele>95.0</ele><time>2026-03-27T14:56:26Z</time></trkpt><trkpt lat="38.055522432084075" lon="15.473660631346572"><ele>101.0</ele><time>2026-03-27T14:56:27Z</time></trkpt><trkpt lat="38.05529270752534" lon="15.473504528438685"><ele>101.0</ele><time>2026-03-27T14:56:28Z</time></trkpt><trkpt lat="38.05506234767457" lon="15.473348993506416"><ele>101.0</ele><time>2026-03-27T14:56:29Z</time></trkpt><trkpt lat="38.05483145176415" lon="15.473191921713676"><ele>98.5</ele><time>2026-03-27T14:56:30Z</time></trkpt><trkpt lat="38.05460381386631" lon="15.47303009033282"><ele>96.0</ele><time>2026-03-27T14:56:31Z</time></trkpt><trkpt lat="38.054375113263035" lon="15.472866966857296"><ele>102.0</ele><time>2026-03-27T14:56:32Z</time></trkpt><trkpt lat="38.05414653144217" lon="15.472701451382575"><ele>108.0</ele><time>2026-03-27T14:56:33Z</time></trkpt><trkpt lat="38.05391778617941" lon="15.472535943241397"><ele>108.0</ele><time>2026-03-27T14:56:34Z</time></trkpt><trkpt lat="38.05369270469142" lon="15.472367049853057"><ele>108.0</ele><time>2026-03-27T14:56:35Z</time></trkpt><trkpt lat="38.05346929548708" lon="15.472204293125948"><ele>102.0</ele><time>2026-03-27T14:56:36Z</time></trkpt><trkpt lat="38.0532613933266" lon="15.472054376818408"><ele>96.0</ele><time>2026-03-27T14:56:37Z</time></trkpt><trkpt lat="38.05306230534759" lon="15.471905850599617"><ele>96.0</ele><time>2026-03-27T14:56:38Z</time></trkpt><trkpt lat="38.05286230385891" lon="15.471745337128926"><ele>96.0</ele><time>2026-03-27T14:56:39Z</time></trkpt><trkpt lat="38.05267256848534" lon="15.47157386559958"><ele>96.0</ele><time>2026-03-27T14:56:40Z</time></trkpt><trkpt lat="38.05249488726154" lon="15.47139789775351"><ele>96.0</ele><time>2026-03-27T14:56:41Z</time></trkpt><trkpt lat="38.052306687674005" lon="15.471211581865456"><ele>88.66666666666667</ele><time>2026-03-27T14:56:42Z</time></trkpt><trkpt lat="38.05212756561481" lon="15.47101908426853"><ele>81.33333333333334</ele><time>2026-03-27T14:56:43Z</time></trkpt><trkpt lat="38.05197594327386" lon="15.470834010471274"><ele>74.0</ele><time>2026-03-27T14:56:44Z</time></trkpt><trkpt lat="38.051811204808274" lon="15.470626201369194"><ele>69.0</ele><time>2026-03-27T14:56:45Z</time></trkpt><trkpt lat="38.05165535792618" lon="15.470414452907422"><ele>64.0</ele><time>2026-03-27T14:56:46Z</time></trkpt><trkpt lat="38.05151007252857" lon="15.470204782772722"><ele>59.0</ele><time>2026-03-27T14:56:47Z</time></trkpt><trkpt lat="38.05136137959931" lon="15.469987742121042"><ele>54.0</ele><time>2026-03-27T14:56:48Z</time></trkpt><trkpt lat="38.05121430988034" lon="15.469758438583732"><ele>49.0</ele><time>2026-03-27T14:56:49Z</time></trkpt><trkpt lat="38.05098767327417" lon="15.469497272469926"><ele>49.0</ele><time>2026-03-27T14:56:50Z</time></trkpt><trkpt lat="38.0508505908102" lon="15.46924509794995"><ele>49.0</ele><time>2026-03-27T14:56:51Z</time></trkpt><trkpt lat="38.05070986184222" lon="15.468978450351337"><ele>41.0</ele><time>2026-03-27T14:56:52Z</time></trkpt><trkpt lat="38.05057841183426" lon="15.468722592282901"><ele>33.0</ele><time>2026-03-27T14:56:53Z</time></trkpt><trkpt lat="38.05044960123992" lon="15.468460990859935"><ele>33.0</ele><time>2026-03-27T14:56:54Z</time></trkpt><trkpt lat="38.05032025794229" lon="15.468202428421337"><ele>33.0</ele><time>2026-03-27T14:56:55Z</time></trkpt><trkpt lat="38.05018268845766" lon="15.467939618500225"><ele>32.0</ele><time>2026-03-27T14:56:56Z</time></trkpt><trkpt lat="38.05004492408401" lon="15.467681035557586"><ele>31.0</ele><time>2026-03-27T14:56:57Z</time></trkpt><trkpt lat="38.04991304039427" lon="15.467432487973998"><ele>29.0</ele><time>2026-03-27T14:56:58Z</time></trkpt><trkpt lat="38.04978861910211" lon="15.467188510924563"><ele>27.0</ele><time>2026-03-27T14:56:59Z</time></trkpt><trkpt lat="38.04965799198052" lon="15.466946718260923"><ele>32.333333333333336</ele><time>2026-03-27T14:57:00Z</time></trkpt><trkpt lat="38.04951682592141" lon="15.466729002304088"><ele>37.66666666666667</ele><time>2026-03-27T14:57:01Z</time></trkpt><trkpt lat="38.04936970979617" lon="15.466527899592426"><ele>43.0</ele><time>2026-03-27T14:57:02Z</time></trkpt><trkpt lat="38.04921091714991" lon="15.466329984344455"><ele>59.0</ele><time>2026-03-27T14:57:03Z</time></trkpt><trkpt lat="38.04904396421066" lon="15.466135435171944"><ele>75.0</ele><time>2026-03-27T14:57:04Z</time></trkpt><trkpt lat="38.048871279084594" lon="15.46594338741832"><ele>75.0</ele><time>2026-03-27T14:57:05Z</time></trkpt><trkpt lat="38.048694037641425" lon="15.46575880405984"><ele>75.0</ele><time>2026-03-27T14:57:06Z</time></trkpt><trkpt lat="38.04860988733313" lon="15.465540094472892"><ele>75.0</ele><time>2026-03-27T14:57:07Z</time></trkpt><trkpt lat="38.04833478935321" lon="15.465366239390242"><ele>66.0</ele><time>2026-03-27T14:57:08Z</time></trkpt><trkpt lat="38.04815046676371" lon="15.465163053651054"><ele>57.0</ele><time>2026-03-27T14:57:09Z</time></trkpt><trkpt lat="38.04796687391948" lon="15.464958145062932"><ele>57.0</ele><time>2026-03-27T14:57:10Z</time></trkpt><trkpt lat="38.04778597281579" lon="15.464750016688793"><ele>57.0</ele><time>2026-03-27T14:57:11Z</time></trkpt><trkpt lat="38.047598736156594" lon="15.464540715124912"><ele>45.5</ele><time>2026-03-27T14:57:12Z</time></trkpt><trkpt lat="38.047415720051625" lon="15.464338596433693"><ele>34.0</ele><time>2026-03-27T14:57:13Z</time></trkpt><trkpt lat="38.04725051105306" lon="15.464159625466914"><ele>34.0</ele><time>2026-03-27T14:57:14Z</time></trkpt><trkpt lat="38.047080759798575" lon="15.46397310040125"><ele>34.0</ele><time>2026-03-27T14:57:15Z</time></trkpt><trkpt lat="38.04692455512124" lon="15.463799525159812"><ele>34.0</ele><time>2026-03-27T14:57:16Z</time></trkpt><trkpt lat="38.046771405624604" lon="15.463629267660025"><ele>30.666666666666668</ele><time>2026-03-27T14:57:17Z</time></trkpt><trkpt lat="38.046609841585074" lon="15.463450490411049"><ele>27.333333333333336</ele><time>2026-03-27T14:57:18Z</time></trkpt><trkpt lat="38.04644261231239" lon="15.463268784610628"><ele>24.0</ele><time>2026-03-27T14:57:19Z</time></trkpt><trkpt lat="38.04628174971877" lon="15.463089395947348"><ele>24.333333333333336</ele><time>2026-03-27T14:57:20Z</time></trkpt><trkpt lat="38.04612454886571" lon="15.462915881845522"><ele>24.666666666666668</ele><time>2026-03-27T14:57:21Z</time></trkpt><trkpt lat="38.045962536830544" lon="15.462740836272772"><ele>25.0</ele><time>2026-03-27T14:57:22Z</time></trkpt><trkpt lat="38.04572002345065" lon="15.462455761386394"><ele>25.5</ele><time>2026-03-27T14:57:23Z</time></trkpt><trkpt lat="38.04553995013483" lon="15.462243055719576"><ele>26.0</ele><time>2026-03-27T14:57:24Z</time></trkpt><trkpt lat="38.045379624972426" lon="15.462037663518316"><ele>26.0</ele><time>2026-03-27T14:57:25Z</time></trkpt><trkpt lat="38.04521357746932" lon="15.4618152175251"><ele>26.0</ele><time>2026-03-27T14:57:25.999Z</time></trkpt><trkpt lat="38.04504961173103" lon="15.461595527936387"><ele>22.0</ele><time>2026-03-27T14:57:26.999Z</time></trkpt><trkpt lat="38.04489081828598" lon="15.461360887582622"><ele>18.0</ele><time>2026-03-27T14:57:27.999Z</time></trkpt><trkpt lat="38.044732212641854" lon="15.461114570267794"><ele>18.0</ele><time>2026-03-27T14:57:28.999Z</time></trkpt><trkpt lat="38.04456836278589" lon="15.460876536945248"><ele>18.0</ele><time>2026-03-27T14:57:29.999Z</time></trkpt><trkpt lat="38.04440629826819" lon="15.460642320226224"><ele>17.0</ele><time>2026-03-27T14:57:30.999Z</time></trkpt><trkpt lat="38.04426975415244" lon="15.460421091205099"><ele>16.0</ele><time>2026-03-27T14:57:31.999Z</time></trkpt><trkpt lat="38.044105024544805" lon="15.460181521310664"><ele>16.0</ele><time>2026-03-27T14:57:32.999Z</time></trkpt><trkpt lat="38.043939038979154" lon="15.459942484743564"><ele>16.0</ele><time>2026-03-27T14:57:33.999Z</time></trkpt><trkpt lat="38.04377224772909" lon="15.459704300434481"><ele>21.5</ele><time>2026-03-27T14:57:34.999Z</time></trkpt><trkpt lat="38.04360337186753" lon="15.459468078753314"><ele>27.0</ele><time>2026-03-27T14:57:35.999Z</time></trkpt><trkpt lat="38.043430586057376" lon="15.459223810180127"><ele>25.0</ele><time>2026-03-27T14:57:36.999Z</time></trkpt><trkpt lat="38.043263881214635" lon="15.458981899159436"><ele>23.0</ele><time>2026-03-27T14:57:37.999Z</time></trkpt><trkpt lat="38.04310351925884" lon="15.458741705736394"><ele>23.0</ele><time>2026-03-27T14:57:38.999Z</time></trkpt><trkpt lat="38.04292711332271" lon="15.45851931450907"><ele>23.0</ele><time>2026-03-27T14:57:39.999Z</time></trkpt><trkpt lat="38.04274869956171" lon="15.458296566141293"><ele>23.0</ele><time>2026-03-27T14:57:40.999Z</time></trkpt><trkpt lat="38.04256277875936" lon="15.458083583644413"><ele>23.0</ele><time>2026-03-27T14:57:41.999Z</time></trkpt><trkpt lat="38.04237587769522" lon="15.457888727446754"><ele>21.5</ele><time>2026-03-27T14:57:42.999Z</time></trkpt><trkpt lat="38.04220335255522" lon="15.457690360631094"><ele>20.0</ele><time>2026-03-27T14:57:43.999Z</time></trkpt><trkpt lat="38.04204106869371" lon="15.457487368803939"><ele>20.0</ele><time>2026-03-27T14:57:44.999Z</time></trkpt><trkpt lat="38.04188089562945" lon="15.457282545373982"><ele>20.0</ele><time>2026-03-27T14:57:45.999Z</time></trkpt><trkpt lat="38.04171755601384" lon="15.457077829347568"><ele>19.5</ele><time>2026-03-27T14:57:46.999Z</time></trkpt><trkpt lat="38.04155750072983" lon="15.45686905679536"><ele>19.0</ele><time>2026-03-27T14:57:47.999Z</time></trkpt><trkpt lat="38.04139842146628" lon="15.456657266261791"><ele>19.0</ele><time>2026-03-27T14:57:48.999Z</time></trkpt><trkpt lat="38.041236469350956" lon="15.456447090266888"><ele>19.0</ele><time>2026-03-27T14:57:49.999Z</time></trkpt><trkpt lat="38.04107177704138" lon="15.456230111425644"><ele>18.5</ele><time>2026-03-27T14:57:50.999Z</time></trkpt><trkpt lat="38.0409177714007" lon="15.455989870119739"><ele>18.0</ele><time>2026-03-27T14:57:51.999Z</time></trkpt><trkpt lat="38.04071612209668" lon="15.455793912125053"><ele>18.0</ele><time>2026-03-27T14:57:53Z</time></trkpt><trkpt lat="38.04053051586048" lon="15.455589692270152"><ele>18.0</ele><time>2026-03-27T14:57:54Z</time></trkpt><trkpt lat="38.04034829772318" lon="15.455379125239459"><ele>20.5</ele><time>2026-03-27T14:57:55Z</time></trkpt><trkpt lat="38.04017257178527" lon="15.455160163474938"><ele>23.0</ele><time>2026-03-27T14:57:56Z</time></trkpt><trkpt lat="38.03999643532026" lon="15.454942290969857"><ele>23.0</ele><time>2026-03-27T14:57:57Z</time></trkpt><trkpt lat="38.03982011807029" lon="15.454724262717365"><ele>23.0</ele><time>2026-03-27T14:57:58Z</time></trkpt><trkpt lat="38.039644195184174" lon="15.454510409282891"><ele>23.0</ele><time>2026-03-27T14:57:59Z</time></trkpt><trkpt lat="38.03946837331634" lon="15.454294538542081"><ele>23.0</ele><time>2026-03-27T14:58:00Z</time></trkpt><trkpt lat="38.03929450157219" lon="15.45407759905745"><ele>23.5</ele><time>2026-03-27T14:58:01Z</time></trkpt><trkpt lat="38.03912024959497" lon="15.453856641983874"><ele>24.0</ele><time>2026-03-27T14:58:02Z</time></trkpt><trkpt lat="38.03894711291678" lon="15.453636967508807"><ele>24.0</ele><time>2026-03-27T14:58:03Z</time></trkpt><trkpt lat="38.038773865889695" lon="15.45341822987945"><ele>24.0</ele><time>2026-03-27T14:58:04Z</time></trkpt><trkpt lat="38.038603328408385" lon="15.453203885178954"><ele>24.0</ele><time>2026-03-27T14:58:05Z</time></trkpt><trkpt lat="38.03843069521389" lon="15.452991064632714"><ele>24.0</ele><time>2026-03-27T14:58:06Z</time></trkpt><trkpt lat="38.03825514672875" lon="15.452783378964009"><ele>24.0</ele><time>2026-03-27T14:58:07Z</time></trkpt><trkpt lat="38.03807381496994" lon="15.452585167109454"><ele>24.0</ele><time>2026-03-27T14:58:08Z</time></trkpt><trkpt lat="38.03788752239274" lon="15.452393807465167"><ele>24.0</ele><time>2026-03-27T14:58:09Z</time></trkpt><trkpt lat="38.0376976637462" lon="15.452209254633983"><ele>24.0</ele><time>2026-03-27T14:58:10Z</time></trkpt><trkpt lat="38.03750590694712" lon="15.452034350967004"><ele>26.0</ele><time>2026-03-27T14:58:11Z</time></trkpt><trkpt lat="38.037311854792684" lon="15.451865322371502"><ele>28.0</ele><time>2026-03-27T14:58:12Z</time></trkpt><trkpt lat="38.03711400514668" lon="15.45170383398864"><ele>28.0</ele><time>2026-03-27T14:58:13Z</time></trkpt><trkpt lat="38.036912081556" lon="15.451543074855723"><ele>28.0</ele><time>2026-03-27T14:58:14Z</time></trkpt><trkpt lat="38.03670701234203" lon="15.451385122835687"><ele>29.0</ele><time>2026-03-27T14:58:15Z</time></trkpt><trkpt lat="38.03650162077424" lon="15.45122152151587"><ele>30.0</ele><time>2026-03-27T14:58:16Z</time></trkpt><trkpt lat="38.03629647447578" lon="15.451057985698153"><ele>30.0</ele><time>2026-03-27T14:58:17Z</time></trkpt><trkpt lat="38.036087991702125" lon="15.450889975947483"><ele>30.0</ele><time>2026-03-27T14:58:18Z</time></trkpt><trkpt lat="38.035880102181785" lon="15.450714102570387"><ele>33.0</ele><time>2026-03-27T14:58:19Z</time></trkpt><trkpt lat="38.03567146028012" lon="15.450536164811213"><ele>36.0</ele><time>2026-03-27T14:58:20Z</time></trkpt><trkpt lat="38.035463036565126" lon="15.450350357113214"><ele>36.0</ele><time>2026-03-27T14:58:21Z</time></trkpt><trkpt lat="38.0352582612112" lon="15.450159162042793"><ele>36.0</ele><time>2026-03-27T14:58:22Z</time></trkpt><trkpt lat="38.03505366646253" lon="15.44996248180837"><ele>32.0</ele><time>2026-03-27T14:58:23Z</time></trkpt><trkpt lat="38.034850653775244" lon="15.449759091648914"><ele>28.0</ele><time>2026-03-27T14:58:24Z</time></trkpt><trkpt lat="38.034655050856756" lon="15.44954566123131"><ele>28.0</ele><time>2026-03-27T14:58:25Z</time></trkpt><trkpt lat="38.0344580645392" lon="15.449331406540027"><ele>28.0</ele><time>2026-03-27T14:58:26Z</time></trkpt><trkpt lat="38.03425306206895" lon="15.449121318444876"><ele>27.0</ele><time>2026-03-27T14:58:27Z</time></trkpt><trkpt lat="38.0340323204363" lon="15.448941101961914"><ele>26.0</ele><time>2026-03-27T14:58:28Z</time></trkpt><trkpt lat="38.033825440206726" lon="15.448740404039974"><ele>26.0</ele><time>2026-03-27T14:58:29Z</time></trkpt><trkpt lat="38.03361919105964" lon="15.448534536135847"><ele>26.0</ele><time>2026-03-27T14:58:30Z</time></trkpt><trkpt lat="38.03341249502102" lon="15.448333714355426"><ele>30.5</ele><time>2026-03-27T14:58:31Z</time></trkpt><trkpt lat="38.03320536809394" lon="15.448135642923406"><ele>35.0</ele><time>2026-03-27T14:58:32Z</time></trkpt><trkpt lat="38.032997960399086" lon="15.447945177380829"><ele>35.0</ele><time>2026-03-27T14:58:33Z</time></trkpt><trkpt lat="38.03279049816833" lon="15.447757656987504"><ele>35.0</ele><time>2026-03-27T14:58:34Z</time></trkpt><trkpt lat="38.03258377016144" lon="15.44757420765305"><ele>24.0</ele><time>2026-03-27T14:58:35Z</time></trkpt><trkpt lat="38.03238409289311" lon="15.447394455058195"><ele>13.0</ele><time>2026-03-27T14:58:36Z</time></trkpt><trkpt lat="38.032184713931784" lon="15.447213197862148"><ele>27.5</ele><time>2026-03-27T14:58:37Z</time></trkpt><trkpt lat="38.03198725534894" lon="15.447031983911593"><ele>42.0</ele><time>2026-03-27T14:58:38Z</time></trkpt><trkpt lat="38.03179199062476" lon="15.446850718640643"><ele>28.5</ele><time>2026-03-27T14:58:39Z</time></trkpt><trkpt lat="38.03160002526754" lon="15.446665386011896"><ele>15.0</ele><time>2026-03-27T14:58:40Z</time></trkpt><trkpt lat="38.031416432276814" lon="15.446481401905437"><ele>27.0</ele><time>2026-03-27T14:58:41Z</time></trkpt><trkpt lat="38.03124525815614" lon="15.446289709323903"><ele>39.0</ele><time>2026-03-27T14:58:42Z</time></trkpt><trkpt lat="38.03107782267718" lon="15.446097861055662"><ele>39.0</ele><time>2026-03-27T14:58:43Z</time></trkpt><trkpt lat="38.03092213573081" lon="15.445901699976936"><ele>39.0</ele><time>2026-03-27T14:58:44Z</time></trkpt><trkpt lat="38.030771511597564" lon="15.445699131611212"><ele>39.0</ele><time>2026-03-27T14:58:45Z</time></trkpt><trkpt lat="38.030626915546314" lon="15.445492934812982"><ele>38.333333333333336</ele><time>2026-03-27T14:58:46Z</time></trkpt><trkpt lat="38.03048799289608" lon="15.445282787203402"><ele>37.66666666666667</ele><time>2026-03-27T14:58:47Z</time></trkpt><trkpt lat="38.03035655563766" lon="15.445066809814485"><ele>37.0</ele><time>2026-03-27T14:58:48Z</time></trkpt><trkpt lat="38.030226509499464" lon="15.444841399976058"><ele>34.66666666666667</ele><time>2026-03-27T14:58:49Z</time></trkpt><trkpt lat="38.03009946253546" lon="15.444608170132284"><ele>32.333333333333336</ele><time>2026-03-27T14:58:50Z</time></trkpt><trkpt lat="38.02996812433401" lon="15.444380913185435"><ele>30.0</ele><time>2026-03-27T14:58:51Z</time></trkpt><trkpt lat="38.02983832839949" lon="15.444147258175395"><ele>30.0</ele><time>2026-03-27T14:58:52Z</time></trkpt><trkpt lat="38.029711716054244" lon="15.443910690807266"><ele>30.0</ele><time>2026-03-27T14:58:53Z</time></trkpt><trkpt lat="38.029579414910714" lon="15.443679449817312"><ele>38.66666666666667</ele><time>2026-03-27T14:58:54Z</time></trkpt><trkpt lat="38.02944715268865" lon="15.443450753536503"><ele>47.333333333333336</ele><time>2026-03-27T14:58:55Z</time></trkpt><trkpt lat="38.02931868404468" lon="15.443217647539491"><ele>56.0</ele><time>2026-03-27T14:58:56Z</time></trkpt><trkpt lat="38.02918731296652" lon="15.44299214094605"><ele>63.66666666666667</ele><time>2026-03-27T14:58:57Z</time></trkpt><trkpt lat="38.029050425316406" lon="15.442772733050328"><ele>71.33333333333333</ele><time>2026-03-27T14:58:58Z</time></trkpt><trkpt lat="38.0289096749932" lon="15.442564064303877"><ele>79.0</ele><time>2026-03-27T14:58:59Z</time></trkpt><trkpt lat="38.02876217007587" lon="15.442358082436721"><ele>79.0</ele><time>2026-03-27T14:59:00Z</time></trkpt><trkpt lat="38.028612054999044" lon="15.442146089904675"><ele>79.0</ele><time>2026-03-27T14:59:01Z</time></trkpt><trkpt lat="38.028469405931276" lon="15.441918147228186"><ele>77.0</ele><time>2026-03-27T14:59:02Z</time></trkpt><trkpt lat="38.028324931966715" lon="15.441706994796693"><ele>75.0</ele><time>2026-03-27T14:59:03Z</time></trkpt><trkpt lat="38.02817252325965" lon="15.441495694565042"><ele>73.0</ele><time>2026-03-27T14:59:04Z</time></trkpt><trkpt lat="38.02802360065202" lon="15.441281065367992"><ele>73.0</ele><time>2026-03-27T14:59:05Z</time></trkpt><trkpt lat="38.027879957878525" lon="15.441063401124815"><ele>73.0</ele><time>2026-03-27T14:59:06Z</time></trkpt><trkpt lat="38.0277361946532" lon="15.440850690300355"><ele>73.0</ele><time>2026-03-27T14:59:07Z</time></trkpt><trkpt lat="38.027246868264015" lon="15.440905839867979"><ele>66.33333333333333</ele><time>2026-03-27T14:59:08Z</time></trkpt><trkpt lat="38.02703602422734" lon="15.440827349709293"><ele>59.66666666666667</ele><time>2026-03-27T14:59:09Z</time></trkpt><trkpt lat="38.026832983096604" lon="15.440729244737843"><ele>53.0</ele><time>2026-03-27T14:59:10Z</time></trkpt><trkpt lat="38.026622712484205" lon="15.440625796685254"><ele>47.0</ele><time>2026-03-27T14:59:11Z</time></trkpt><trkpt lat="38.026408484810865" lon="15.440517966021588"><ele>41.0</ele><time>2026-03-27T14:59:12Z</time></trkpt><trkpt lat="38.02619826379883" lon="15.440404637784555"><ele>48.0</ele><time>2026-03-27T14:59:13Z</time></trkpt><trkpt lat="38.025984835209265" lon="15.440282856806132"><ele>55.0</ele><time>2026-03-27T14:59:14Z</time></trkpt><trkpt lat="38.02576789090935" lon="15.440158499270032"><ele>55.0</ele><time>2026-03-27T14:59:15Z</time></trkpt><trkpt lat="38.02554888027512" lon="15.440036080526621"><ele>55.0</ele><time>2026-03-27T14:59:16Z</time></trkpt><trkpt lat="38.02532929130523" lon="15.439910979900251"><ele>55.0</ele><time>2026-03-27T14:59:17Z</time></trkpt><trkpt lat="38.02510725061974" lon="15.4397825010982"><ele>55.0</ele><time>2026-03-27T14:59:18Z</time></trkpt><trkpt lat="38.02488560650803" lon="15.43965105794258"><ele>56.5</ele><time>2026-03-27T14:59:19Z</time></trkpt><trkpt lat="38.024660270804446" lon="15.439527001590415"><ele>58.0</ele><time>2026-03-27T14:59:20Z</time></trkpt><trkpt lat="38.024433057671544" lon="15.43940061379898"><ele>58.0</ele><time>2026-03-27T14:59:21Z</time></trkpt><trkpt lat="38.02420863073313" lon="15.439281349529713"><ele>58.0</ele><time>2026-03-27T14:59:22Z</time></trkpt><trkpt lat="38.02398054928234" lon="15.439162896311501"><ele>74.0</ele><time>2026-03-27T14:59:23Z</time></trkpt><trkpt lat="38.02375254860366" lon="15.439054536800315"><ele>90.0</ele><time>2026-03-27T14:59:24Z</time></trkpt><trkpt lat="38.023524321647" lon="15.438950288044412"><ele>103.0</ele><time>2026-03-27T14:59:25Z</time></trkpt><trkpt lat="38.02329280161852" lon="15.43884455281114"><ele>116.0</ele><time>2026-03-27T14:59:25.999Z</time></trkpt><trkpt lat="38.023059938877104" lon="15.438736067875768"><ele>129.5</ele><time>2026-03-27T14:59:26.999Z</time></trkpt><trkpt lat="38.02283154194428" lon="15.438625375127938"><ele>143.0</ele><time>2026-03-27T14:59:27.999Z</time></trkpt><trkpt lat="38.02260400475673" lon="15.438508205181593"><ele>141.0</ele><time>2026-03-27T14:59:28.999Z</time></trkpt><trkpt lat="38.02237614108827" lon="15.43839447339522"><ele>139.0</ele><time>2026-03-27T14:59:29.999Z</time></trkpt><trkpt lat="38.02214150255306" lon="15.43828224669859"><ele>139.0</ele><time>2026-03-27T14:59:30.999Z</time></trkpt><trkpt lat="38.021915050948614" lon="15.43816026798693"><ele>139.0</ele><time>2026-03-27T14:59:31.999Z</time></trkpt><trkpt lat="38.02169805811979" lon="15.438040746610364"><ele>142.5</ele><time>2026-03-27T14:59:32.999Z</time></trkpt><trkpt lat="38.02147972647778" lon="15.43792134769809"><ele>146.0</ele><time>2026-03-27T14:59:33.999Z</time></trkpt><trkpt lat="38.021229990389834" lon="15.437809408760236"><ele>146.0</ele><time>2026-03-27T14:59:34.999Z</time></trkpt><trkpt lat="38.02103704854074" lon="15.437681610332207"><ele>146.0</ele><time>2026-03-27T14:59:35.999Z</time></trkpt><trkpt lat="38.02083156988793" lon="15.437556386958555"><ele>146.0</ele><time>2026-03-27T14:59:36.999Z</time></trkpt><trkpt lat="38.02035008406925" lon="15.437790102772814"><ele>135.0</ele><time>2026-03-27T14:59:37.999Z</time></trkpt><trkpt lat="38.02012501019706" lon="15.437634097101757"><ele>124.0</ele><time>2026-03-27T14:59:38.999Z</time></trkpt><trkpt lat="38.019902476912335" lon="15.437461396533939"><ele>114.5</ele><time>2026-03-27T14:59:39.999Z</time></trkpt><trkpt lat="38.019695295215676" lon="15.43727150188092"><ele>105.0</ele><time>2026-03-27T14:59:40.999Z</time></trkpt><trkpt lat="38.01949505649137" lon="15.43707022852758"><ele>105.0</ele><time>2026-03-27T14:59:41.999Z</time></trkpt><trkpt lat="38.01929054539573" lon="15.436861764055049"><ele>105.0</ele><time>2026-03-27T14:59:42.999Z</time></trkpt><trkpt lat="38.01900730716619" lon="15.436646325892598"><ele>113.0</ele><time>2026-03-27T14:59:43.999Z</time></trkpt><trkpt lat="38.01878915650397" lon="15.436407353956355"><ele>121.0</ele><time>2026-03-27T14:59:44.999Z</time></trkpt><trkpt lat="38.018578730415705" lon="15.436185650190493"><ele>125.5</ele><time>2026-03-27T14:59:45.999Z</time></trkpt><trkpt lat="38.01836642358973" lon="15.435960929308415"><ele>130.0</ele><time>2026-03-27T14:59:46.999Z</time></trkpt><trkpt lat="38.01815618189727" lon="15.435734797633716"><ele>114.0</ele><time>2026-03-27T14:59:47.999Z</time></trkpt><trkpt lat="38.01794441548943" lon="15.43550970951914"><ele>98.0</ele><time>2026-03-27T14:59:48.999Z</time></trkpt><trkpt lat="38.01773247575591" lon="15.435275733297349"><ele>98.0</ele><time>2026-03-27T14:59:49.999Z</time></trkpt><trkpt lat="38.01751649441456" lon="15.435044241518508"><ele>98.0</ele><time>2026-03-27T14:59:50.999Z</time></trkpt><trkpt lat="38.01728608046506" lon="15.434795987347393"><ele>77.0</ele><time>2026-03-27T14:59:52.071Z</time></trkpt><trkpt lat="38.01684150004007" lon="15.434394170842035"><ele>91.5</ele><time>2026-03-27T14:59:53.999Z</time></trkpt><trkpt lat="38.016626993409325" lon="15.434164771294293"><ele>106.0</ele><time>2026-03-27T14:59:54.999Z</time></trkpt><trkpt lat="38.0164294080537" lon="15.433942186803552"><ele>114.5</ele><time>2026-03-27T14:59:55.999Z</time></trkpt><trkpt lat="38.01625049848026" lon="15.43370545644577"><ele>123.0</ele><time>2026-03-27T14:59:56.999Z</time></trkpt><trkpt lat="38.01602298521596" lon="15.433448764517559"><ele>112.0</ele><time>2026-03-27T14:59:57.999Z</time></trkpt><trkpt lat="38.014576135457006" lon="15.430893067131285"><ele>112.0</ele><time>2026-03-27T15:00:06.102Z</time></trkpt><trkpt lat="38.01436895688376" lon="15.430520366561385"><ele>112.0</ele><time>2026-03-27T15:00:07.102Z</time></trkpt><trkpt lat="38.01415693252931" lon="15.430154330721548"><ele>64.0</ele><time>2026-03-27T15:00:08.098Z</time></trkpt><trkpt lat="38.01367110580579" lon="15.42941765646787"><ele>64.0</ele><time>2026-03-27T15:00:13Z</time></trkpt><trkpt lat="38.01351565133779" lon="15.429171985582453"><ele>64.0</ele><time>2026-03-27T15:00:14Z</time></trkpt><trkpt lat="38.0133757940476" lon="15.428922086797376"><ele>60.5</ele><time>2026-03-27T15:00:15Z</time></trkpt><trkpt lat="38.01320364466306" lon="15.428695814983369"><ele>57.0</ele><time>2026-03-27T15:00:16Z</time></trkpt><trkpt lat="38.01302938126786" lon="15.428456341622327"><ele>57.0</ele><time>2026-03-27T15:00:17Z</time></trkpt><trkpt lat="38.01285048279298" lon="15.4282339521864"><ele>57.0</ele><time>2026-03-27T15:00:18Z</time></trkpt><trkpt lat="38.01269252223149" lon="15.428053452374952"><ele>67.5</ele><time>2026-03-27T15:00:19Z</time></trkpt><trkpt lat="38.01252560742998" lon="15.427853713556216"><ele>78.0</ele><time>2026-03-27T15:00:20Z</time></trkpt><trkpt lat="38.01234928919894" lon="15.427655176736181"><ele>80.5</ele><time>2026-03-27T15:00:21Z</time></trkpt><trkpt lat="38.01216805999608" lon="15.427460063066196"><ele>83.0</ele><time>2026-03-27T15:00:22Z</time></trkpt><trkpt lat="38.01198240445793" lon="15.427271920082667"><ele>78.5</ele><time>2026-03-27T15:00:23Z</time></trkpt><trkpt lat="38.01178969777413" lon="15.42706660920239"><ele>74.0</ele><time>2026-03-27T15:00:24Z</time></trkpt><trkpt lat="38.01160401379011" lon="15.426847464940167"><ele>74.0</ele><time>2026-03-27T15:00:25Z</time></trkpt><trkpt lat="38.01143363453385" lon="15.426629638196975"><ele>74.0</ele><time>2026-03-27T15:00:26Z</time></trkpt><trkpt lat="38.011231410742866" lon="15.42646558859269"><ele>67.5</ele><time>2026-03-27T15:00:27Z</time></trkpt><trkpt lat="38.01103201517827" lon="15.426283149853909"><ele>61.0</ele><time>2026-03-27T15:00:28Z</time></trkpt><trkpt lat="38.01081937204004" lon="15.42608509964689"><ele>61.0</ele><time>2026-03-27T15:00:29Z</time></trkpt><trkpt lat="38.010569094896205" lon="15.425931585432366"><ele>61.0</ele><time>2026-03-27T15:00:30Z</time></trkpt><trkpt lat="38.01033226364594" lon="15.425760716797999"><ele>61.0</ele><time>2026-03-27T15:00:31Z</time></trkpt><trkpt lat="38.010106959944565" lon="15.425590987167515"><ele>61.0</ele><time>2026-03-27T15:00:32Z</time></trkpt><trkpt lat="38.0099204651043" lon="15.425354339322249"><ele>45.5</ele><time>2026-03-27T15:00:33Z</time></trkpt><trkpt lat="38.00970671185563" lon="15.425139911625951"><ele>30.0</ele><time>2026-03-27T15:00:34Z</time></trkpt><trkpt lat="38.00950494833638" lon="15.424944974443578"><ele>30.0</ele><time>2026-03-27T15:00:35Z</time></trkpt><trkpt lat="38.00927980639788" lon="15.424730957535763"><ele>30.0</ele><time>2026-03-27T15:00:36Z</time></trkpt><trkpt lat="38.00906461917653" lon="15.424533013204403"><ele>30.0</ele><time>2026-03-27T15:00:37Z</time></trkpt><trkpt lat="38.00886076004513" lon="15.424342031994053"><ele>30.0</ele><time>2026-03-27T15:00:38Z</time></trkpt><trkpt lat="38.008665420487134" lon="15.424159199579586"><ele>30.0</ele><time>2026-03-27T15:00:39Z</time></trkpt><trkpt lat="38.008469440436954" lon="15.423980397566568"><ele>30.0</ele><time>2026-03-27T15:00:40Z</time></trkpt><trkpt lat="38.00827210150846" lon="15.42379802772422"><ele>33.5</ele><time>2026-03-27T15:00:41Z</time></trkpt><trkpt lat="38.00807808528421" lon="15.42361503958106"><ele>37.0</ele><time>2026-03-27T15:00:42Z</time></trkpt><trkpt lat="38.007880722976324" lon="15.423429308061909"><ele>37.0</ele><time>2026-03-27T15:00:43Z</time></trkpt><trkpt lat="38.0076778135996" lon="15.423241269234413"><ele>37.0</ele><time>2026-03-27T15:00:44Z</time></trkpt><trkpt lat="38.00747612472649" lon="15.423055653178942"><ele>42.0</ele><time>2026-03-27T15:00:45Z</time></trkpt><trkpt lat="38.007274662179135" lon="15.422871010757449"><ele>47.0</ele><time>2026-03-27T15:00:46Z</time></trkpt><trkpt lat="38.00707160920067" lon="15.422689635047318"><ele>47.0</ele><time>2026-03-27T15:00:47Z</time></trkpt><trkpt lat="38.00686274437497" lon="15.422511729511038"><ele>47.0</ele><time>2026-03-27T15:00:48Z</time></trkpt><trkpt lat="38.00665442040189" lon="15.42234061573604"><ele>38.5</ele><time>2026-03-27T15:00:49Z</time></trkpt><trkpt lat="38.00643850014231" lon="15.422179666599925"><ele>30.0</ele><time>2026-03-27T15:00:50Z</time></trkpt><trkpt lat="38.00621827929941" lon="15.42202410105271"><ele>28.5</ele><time>2026-03-27T15:00:51Z</time></trkpt><trkpt lat="38.005996238288034" lon="15.421871878527313"><ele>27.0</ele><time>2026-03-27T15:00:52Z</time></trkpt><trkpt lat="38.005769292907665" lon="15.421722802692688"><ele>23.0</ele><time>2026-03-27T15:00:53Z</time></trkpt><trkpt lat="38.00553663609395" lon="15.421577974907686"><ele>19.0</ele><time>2026-03-27T15:00:54Z</time></trkpt><trkpt lat="38.00530003194876" lon="15.421439792864692"><ele>20.5</ele><time>2026-03-27T15:00:55Z</time></trkpt><trkpt lat="38.00506150430996" lon="15.421301848209252"><ele>22.0</ele><time>2026-03-27T15:00:56Z</time></trkpt><trkpt lat="38.0048209269969" lon="15.421156932781292"><ele>27.5</ele><time>2026-03-27T15:00:57Z</time></trkpt><trkpt lat="38.00458568019273" lon="15.421007225258105"><ele>33.0</ele><time>2026-03-27T15:00:58Z</time></trkpt><trkpt lat="38.00434335614444" lon="15.420857854974003"><ele>33.0</ele><time>2026-03-27T15:00:59Z</time></trkpt><trkpt lat="38.00411096694379" lon="15.420716107185449"><ele>33.0</ele><time>2026-03-27T15:01:00Z</time></trkpt><trkpt lat="38.003890817958705" lon="15.420585045095077"><ele>40.0</ele><time>2026-03-27T15:01:01Z</time></trkpt><trkpt lat="38.00368185075271" lon="15.420460260976949"><ele>47.0</ele><time>2026-03-27T15:01:02Z</time></trkpt><trkpt lat="38.00346875418122" lon="15.420333356398176"><ele>40.0</ele><time>2026-03-27T15:01:03Z</time></trkpt><trkpt lat="38.00325572441649" lon="15.420198758231887"><ele>33.0</ele><time>2026-03-27T15:01:04Z</time></trkpt><trkpt lat="38.003046029763844" lon="15.420057126295982"><ele>33.0</ele><time>2026-03-27T15:01:05Z</time></trkpt><trkpt lat="38.00284948631996" lon="15.419913032014508"><ele>33.0</ele><time>2026-03-27T15:01:06Z</time></trkpt><trkpt lat="38.00266042286136" lon="15.419753451030978"><ele>31.5</ele><time>2026-03-27T15:01:07Z</time></trkpt><trkpt lat="38.002477029514004" lon="15.419574099873634"><ele>30.0</ele><time>2026-03-27T15:01:08Z</time></trkpt><trkpt lat="38.00229854195325" lon="15.419379937944147"><ele>30.0</ele><time>2026-03-27T15:01:09Z</time></trkpt><trkpt lat="38.002131189907985" lon="15.419160929417158"><ele>30.0</ele><time>2026-03-27T15:01:10Z</time></trkpt><trkpt lat="38.0019690883666" lon="15.418935609014046"><ele>34.0</ele><time>2026-03-27T15:01:11Z</time></trkpt><trkpt lat="38.001816908894845" lon="15.418700274703147"><ele>38.0</ele><time>2026-03-27T15:01:12Z</time></trkpt><trkpt lat="38.00167238078706" lon="15.418453242386953"><ele>33.0</ele><time>2026-03-27T15:01:13Z</time></trkpt><trkpt lat="38.001534551367605" lon="15.418198951130238"><ele>28.0</ele><time>2026-03-27T15:01:14Z</time></trkpt><trkpt lat="38.001407900956956" lon="15.41792879620032"><ele>28.0</ele><time>2026-03-27T15:01:15Z</time></trkpt><trkpt lat="38.00129028916264" lon="15.41764977309635"><ele>28.0</ele><time>2026-03-27T15:01:16Z</time></trkpt><trkpt lat="38.00118167094747" lon="15.41736278196364"><ele>29.5</ele><time>2026-03-27T15:01:17Z</time></trkpt><trkpt lat="38.001077475044646" lon="15.417067177617902"><ele>31.0</ele><time>2026-03-27T15:01:18Z</time></trkpt><trkpt lat="38.00097471670218" lon="15.416774962580726"><ele>31.0</ele><time>2026-03-27T15:01:19Z</time></trkpt><trkpt lat="38.000868830393856" lon="15.416478002617875"><ele>31.0</ele><time>2026-03-27T15:01:20Z</time></trkpt><trkpt lat="38.00076100957993" lon="15.416180915206853"><ele>25.0</ele><time>2026-03-27T15:01:21Z</time></trkpt><trkpt lat="38.00065337350136" lon="15.415882436687273"><ele>19.0</ele><time>2026-03-27T15:01:22Z</time></trkpt><trkpt lat="38.000539149685665" lon="15.415586071779595"><ele>20.5</ele><time>2026-03-27T15:01:23Z</time></trkpt><trkpt lat="38.000421439850115" lon="15.415291234689798"><ele>22.0</ele><time>2026-03-27T15:01:24Z</time></trkpt><trkpt lat="38.00029131199468" lon="15.414999977003754"><ele>22.0</ele><time>2026-03-27T15:01:25Z</time></trkpt><trkpt lat="38.00015124540622" lon="15.414721215355321"><ele>22.0</ele><time>2026-03-27T15:01:26Z</time></trkpt><trkpt lat="38.0000014335656" lon="15.414446313676827"><ele>21.5</ele><time>2026-03-27T15:01:27Z</time></trkpt><trkpt lat="37.99984464778237" lon="15.414178220718755"><ele>21.0</ele><time>2026-03-27T15:01:28Z</time></trkpt><trkpt lat="37.99967980606012" lon="15.413916873041542"><ele>20.0</ele><time>2026-03-27T15:01:29Z</time></trkpt><trkpt lat="37.99950292566924" lon="15.4136684175766"><ele>19.0</ele><time>2026-03-27T15:01:30Z</time></trkpt><trkpt lat="37.99932169798499" lon="15.413430426162893"><ele>19.5</ele><time>2026-03-27T15:01:31Z</time></trkpt><trkpt lat="37.99913572929393" lon="15.413198581350008"><ele>20.0</ele><time>2026-03-27T15:01:32Z</time></trkpt><trkpt lat="37.99894083257864" lon="15.412974176131417"><ele>20.5</ele><time>2026-03-27T15:01:33Z</time></trkpt><trkpt lat="37.99874101654303" lon="15.4127607466188"><ele>21.0</ele><time>2026-03-27T15:01:34Z</time></trkpt><trkpt lat="37.99853577423089" lon="15.412559025414302"><ele>21.0</ele><time>2026-03-27T15:01:35Z</time></trkpt><trkpt lat="37.99832681668291" lon="15.412368471820127"><ele>21.0</ele><time>2026-03-27T15:01:36Z</time></trkpt><trkpt lat="37.99811115140035" lon="15.412189630431591"><ele>20.5</ele><time>2026-03-27T15:01:37Z</time></trkpt><trkpt lat="37.997890183693315" lon="15.412020250867696"><ele>20.0</ele><time>2026-03-27T15:01:38Z</time></trkpt><trkpt lat="37.99766973990593" lon="15.411858369757635"><ele>21.0</ele><time>2026-03-27T15:01:39Z</time></trkpt><trkpt lat="37.99743559791106" lon="15.411705605972507"><ele>22.0</ele><time>2026-03-27T15:01:40Z</time></trkpt><trkpt lat="37.99719886726454" lon="15.411564014057301"><ele>22.0</ele><time>2026-03-27T15:01:40.999Z</time></trkpt><trkpt lat="37.99695973579444" lon="15.411439454533891"><ele>22.0</ele><time>2026-03-27T15:01:41.999Z</time></trkpt><trkpt lat="37.996712584637585" lon="15.411325527154222"><ele>21.5</ele><time>2026-03-27T15:01:42.999Z</time></trkpt><trkpt lat="37.99646320110959" lon="15.411220756830973"><ele>21.0</ele><time>2026-03-27T15:01:43.999Z</time></trkpt><trkpt lat="37.99620983799846" lon="15.411125516000924"><ele>21.0</ele><time>2026-03-27T15:01:44.999Z</time></trkpt><trkpt lat="37.99595214154057" lon="15.411041002966028"><ele>21.0</ele><time>2026-03-27T15:01:45.999Z</time></trkpt><trkpt lat="37.99569383210421" lon="15.410974328697154"><ele>22.0</ele><time>2026-03-27T15:01:46.999Z</time></trkpt><trkpt lat="37.99543345075966" lon="15.410921777941896"><ele>23.0</ele><time>2026-03-27T15:01:47.999Z</time></trkpt><trkpt lat="37.99516745334795" lon="15.410871800965047"><ele>24.0</ele><time>2026-03-27T15:01:48.999Z</time></trkpt><trkpt lat="37.994899413139905" lon="15.410823197164506"><ele>25.0</ele><time>2026-03-27T15:01:49.999Z</time></trkpt><trkpt lat="37.99462961617455" lon="15.410771360172701"><ele>25.0</ele><time>2026-03-27T15:01:50.999Z</time></trkpt><trkpt lat="37.994361699675764" lon="15.410717520679663"><ele>25.0</ele><time>2026-03-27T15:01:51.999Z</time></trkpt><trkpt lat="37.994096246397724" lon="15.410658138525541"><ele>25.5</ele><time>2026-03-27T15:01:52.999Z</time></trkpt><trkpt lat="37.99383607620448" lon="15.410587375023411"><ele>26.0</ele><time>2026-03-27T15:01:53.999Z</time></trkpt><trkpt lat="37.993582685613156" lon="15.410495463298401"><ele>30.0</ele><time>2026-03-27T15:01:54.999Z</time></trkpt><trkpt lat="37.99333286406762" lon="15.410383201792342"><ele>34.0</ele><time>2026-03-27T15:01:55.999Z</time></trkpt><trkpt lat="37.99308757452452" lon="15.410254611771872"><ele>34.0</ele><time>2026-03-27T15:01:56.999Z</time></trkpt><trkpt lat="37.99285308772075" lon="15.41010998523454"><ele>34.0</ele><time>2026-03-27T15:01:57.999Z</time></trkpt><trkpt lat="37.9926231543686" lon="15.409946171808699"><ele>33.0</ele><time>2026-03-27T15:01:58.999Z</time></trkpt><trkpt lat="37.99240661151938" lon="15.40976658622986"><ele>32.0</ele><time>2026-03-27T15:01:59.999Z</time></trkpt><trkpt lat="37.99219722262515" lon="15.409575032380593"><ele>40.0</ele><time>2026-03-27T15:02:00.999Z</time></trkpt><trkpt lat="37.99200038811449" lon="15.409368231548191"><ele>48.0</ele><time>2026-03-27T15:02:01.999Z</time></trkpt><trkpt lat="37.991815926851885" lon="15.409151494323243"><ele>46.5</ele><time>2026-03-27T15:02:02.999Z</time></trkpt><trkpt lat="37.991655313561516" lon="15.408908340808289"><ele>45.0</ele><time>2026-03-27T15:02:03.999Z</time></trkpt><trkpt lat="37.991478753242845" lon="15.40867726755033"><ele>45.0</ele><time>2026-03-27T15:02:05Z</time></trkpt><trkpt lat="37.99131459171468" lon="15.408430959818277"><ele>45.0</ele><time>2026-03-27T15:02:06Z</time></trkpt><trkpt lat="37.99115423401128" lon="15.408181805673982"><ele>44.0</ele><time>2026-03-27T15:02:07Z</time></trkpt><trkpt lat="37.9909943571833" lon="15.407936260667011"><ele>43.0</ele><time>2026-03-27T15:02:08Z</time></trkpt><trkpt lat="37.990833863540175" lon="15.407691429600822"><ele>37.0</ele><time>2026-03-27T15:02:09Z</time></trkpt><trkpt lat="37.99067470939432" lon="15.40744870509767"><ele>31.0</ele><time>2026-03-27T15:02:10Z</time></trkpt><trkpt lat="37.99051768826229" lon="15.407210642567348"><ele>31.5</ele><time>2026-03-27T15:02:11Z</time></trkpt><trkpt lat="37.99035750911641" lon="15.406973880962724"><ele>32.0</ele><time>2026-03-27T15:02:12Z</time></trkpt><trkpt lat="37.99019706534376" lon="15.406741696493246"><ele>32.0</ele><time>2026-03-27T15:02:13Z</time></trkpt><trkpt lat="37.990035506610866" lon="15.406514539505254"><ele>32.0</ele><time>2026-03-27T15:02:14Z</time></trkpt><trkpt lat="37.98986681280718" lon="15.406292921401713"><ele>40.0</ele><time>2026-03-27T15:02:15Z</time></trkpt><trkpt lat="37.989687150104324" lon="15.406079980269723"><ele>48.0</ele><time>2026-03-27T15:02:16Z</time></trkpt><trkpt lat="37.98949377485999" lon="15.405879921108658"><ele>48.0</ele><time>2026-03-27T15:02:17Z</time></trkpt><trkpt lat="37.98929644698647" lon="15.405689791043999"><ele>48.0</ele><time>2026-03-27T15:02:18Z</time></trkpt><trkpt lat="37.98908818665086" lon="15.4055078265192"><ele>56.5</ele><time>2026-03-27T15:02:19Z</time></trkpt><trkpt lat="37.98887689188621" lon="15.405328621227978"><ele>65.0</ele><time>2026-03-27T15:02:20Z</time></trkpt><trkpt lat="37.98866226633922" lon="15.405153242159157"><ele>65.0</ele><time>2026-03-27T15:02:21Z</time></trkpt><trkpt lat="37.988451614500654" lon="15.404972502608143"><ele>65.0</ele><time>2026-03-27T15:02:22Z</time></trkpt><trkpt lat="37.98824364366646" lon="15.404786895496683"><ele>58.5</ele><time>2026-03-27T15:02:23Z</time></trkpt><trkpt lat="37.988035183810176" lon="15.404601046359469"><ele>52.0</ele><time>2026-03-27T15:02:24Z</time></trkpt><trkpt lat="37.98782443294473" lon="15.404417717454399"><ele>52.0</ele><time>2026-03-27T15:02:25Z</time></trkpt><trkpt lat="37.98761630206698" lon="15.404237460199663"><ele>52.0</ele><time>2026-03-27T15:02:26Z</time></trkpt><trkpt lat="37.9874048913956" lon="15.404056048702627"><ele>51.0</ele><time>2026-03-27T15:02:27Z</time></trkpt><trkpt lat="37.987194351466506" lon="15.403873738081607"><ele>50.0</ele><time>2026-03-27T15:02:28Z</time></trkpt><trkpt lat="37.98698096172643" lon="15.403690473422213"><ele>50.0</ele><time>2026-03-27T15:02:29Z</time></trkpt><trkpt lat="37.98676752711883" lon="15.403506843481319"><ele>50.0</ele><time>2026-03-27T15:02:30Z</time></trkpt><trkpt lat="37.98655229439674" lon="15.403321081695331"><ele>52.0</ele><time>2026-03-27T15:02:31Z</time></trkpt><trkpt lat="37.98633496696147" lon="15.403133191744203"><ele>54.0</ele><time>2026-03-27T15:02:32Z</time></trkpt><trkpt lat="37.98611706756263" lon="15.402945011280215"><ele>54.0</ele><time>2026-03-27T15:02:33Z</time></trkpt><trkpt lat="37.98589563236733" lon="15.402754176023338"><ele>54.0</ele><time>2026-03-27T15:02:34Z</time></trkpt><trkpt lat="37.98567418292877" lon="15.402561738176582"><ele>45.5</ele><time>2026-03-27T15:02:35Z</time></trkpt><trkpt lat="37.98545405841596" lon="15.402369548576047"><ele>37.0</ele><time>2026-03-27T15:02:36Z</time></trkpt><trkpt lat="37.98523896638294" lon="15.402182338891809"><ele>37.5</ele><time>2026-03-27T15:02:37Z</time></trkpt><trkpt lat="37.98503110870938" lon="15.402001404814143"><ele>38.0</ele><time>2026-03-27T15:02:38Z</time></trkpt><trkpt lat="37.98483096824148" lon="15.401823224317592"><ele>38.0</ele><time>2026-03-27T15:02:39Z</time></trkpt><trkpt lat="37.98463853328253" lon="15.401649376210027"><ele>38.0</ele><time>2026-03-27T15:02:40Z</time></trkpt><trkpt lat="37.984452217042026" lon="15.401469791215026"><ele>40.5</ele><time>2026-03-27T15:02:41Z</time></trkpt><trkpt lat="37.984272216799816" lon="15.40127759795636"><ele>43.0</ele><time>2026-03-27T15:02:42Z</time></trkpt><trkpt lat="37.98409509343126" lon="15.4010769993452"><ele>43.0</ele><time>2026-03-27T15:02:43Z</time></trkpt><trkpt lat="37.98392529602088" lon="15.400868270872563"><ele>43.0</ele><time>2026-03-27T15:02:44Z</time></trkpt><trkpt lat="37.98375550632886" lon="15.400653757856668"><ele>41.5</ele><time>2026-03-27T15:02:45Z</time></trkpt><trkpt lat="37.98358484950277" lon="15.400435111067548"><ele>40.0</ele><time>2026-03-27T15:02:46Z</time></trkpt><trkpt lat="37.98341315505433" lon="15.400221979781332"><ele>32.0</ele><time>2026-03-27T15:02:47Z</time></trkpt><trkpt lat="37.98323795007091" lon="15.400004726107102"><ele>24.0</ele><time>2026-03-27T15:02:48Z</time></trkpt><trkpt lat="37.98306450853035" lon="15.399791283260674"><ele>25.0</ele><time>2026-03-27T15:02:49Z</time></trkpt><trkpt lat="37.9828863515287" lon="15.39957741731056"><ele>26.0</ele><time>2026-03-27T15:02:50Z</time></trkpt><trkpt lat="37.98271334292526" lon="15.399373801844934"><ele>26.0</ele><time>2026-03-27T15:02:51Z</time></trkpt><trkpt lat="37.982526475468134" lon="15.399167725702938"><ele>26.0</ele><time>2026-03-27T15:02:52Z</time></trkpt><trkpt lat="37.98233604179752" lon="15.398970593970569"><ele>25.0</ele><time>2026-03-27T15:02:53Z</time></trkpt><trkpt lat="37.98213599189744" lon="15.398778542177451"><ele>24.0</ele><time>2026-03-27T15:02:54Z</time></trkpt><trkpt lat="37.981928846837256" lon="15.398595316701329"><ele>24.0</ele><time>2026-03-27T15:02:55Z</time></trkpt><trkpt lat="37.98171457145264" lon="15.398415026710131"><ele>24.0</ele><time>2026-03-27T15:02:56Z</time></trkpt><trkpt lat="37.98149229828108" lon="15.398241720525682"><ele>23.0</ele><time>2026-03-27T15:02:57Z</time></trkpt><trkpt lat="37.9812640758364" lon="15.398073373855492"><ele>22.0</ele><time>2026-03-27T15:02:58Z</time></trkpt><trkpt lat="37.98103314921732" lon="15.397908052306958"><ele>20.5</ele><time>2026-03-27T15:02:59Z</time></trkpt><trkpt lat="37.98080042217975" lon="15.397741609678762"><ele>19.0</ele><time>2026-03-27T15:03:00Z</time></trkpt><trkpt lat="37.980570680142996" lon="15.397580333998683"><ele>19.0</ele><time>2026-03-27T15:03:01Z</time></trkpt><trkpt lat="37.98034142718861" lon="15.39741595571926"><ele>19.0</ele><time>2026-03-27T15:03:02Z</time></trkpt><trkpt lat="37.98011204385053" lon="15.397250456596751"><ele>20.5</ele><time>2026-03-27T15:03:03Z</time></trkpt><trkpt lat="37.97988447754878" lon="15.397082279353185"><ele>22.0</ele><time>2026-03-27T15:03:04Z</time></trkpt><trkpt lat="37.979659928182784" lon="15.396908249074064"><ele>22.0</ele><time>2026-03-27T15:03:05Z</time></trkpt><trkpt lat="37.979440107276204" lon="15.39672122044196"><ele>22.0</ele><time>2026-03-27T15:03:06Z</time></trkpt><trkpt lat="37.97922551866724" lon="15.396528022905281"><ele>25.5</ele><time>2026-03-27T15:03:07Z</time></trkpt><trkpt lat="37.97901469881614" lon="15.396325078013358"><ele>29.0</ele><time>2026-03-27T15:03:08Z</time></trkpt><trkpt lat="37.97880837704502" lon="15.396113959410336"><ele>29.0</ele><time>2026-03-27T15:03:09Z</time></trkpt><trkpt lat="37.978608949750765" lon="15.395894969163306"><ele>29.0</ele><time>2026-03-27T15:03:10Z</time></trkpt><trkpt lat="37.97841500423247" lon="15.39567016121273"><ele>38.5</ele><time>2026-03-27T15:03:11Z</time></trkpt><trkpt lat="37.97822556334864" lon="15.395441379449853"><ele>48.0</ele><time>2026-03-27T15:03:12Z</time></trkpt><trkpt lat="37.978041031488424" lon="15.395210990862788"><ele>48.0</ele><time>2026-03-27T15:03:13Z</time></trkpt><trkpt lat="37.977859697651205" lon="15.394978080244334"><ele>48.0</ele><time>2026-03-27T15:03:14Z</time></trkpt><trkpt lat="37.977678604296344" lon="15.394749122293625"><ele>48.5</ele><time>2026-03-27T15:03:15Z</time></trkpt><trkpt lat="37.977498447681434" lon="15.394523018650693"><ele>49.0</ele><time>2026-03-27T15:03:16Z</time></trkpt><trkpt lat="37.97732025549712" lon="15.39429870425474"><ele>49.0</ele><time>2026-03-27T15:03:17Z</time></trkpt><trkpt lat="37.97714544446078" lon="15.394074835858637"><ele>49.0</ele><time>2026-03-27T15:03:18Z</time></trkpt><trkpt lat="37.976967356211745" lon="15.393853899216358"><ele>52.0</ele><time>2026-03-27T15:03:19Z</time></trkpt><trkpt lat="37.97678662810523" lon="15.39363476242169"><ele>55.0</ele><time>2026-03-27T15:03:20Z</time></trkpt><trkpt lat="37.976603170168794" lon="15.393420035603567"><ele>48.0</ele><time>2026-03-27T15:03:21Z</time></trkpt><trkpt lat="37.9764128942866" lon="15.393213729044586"><ele>41.0</ele><time>2026-03-27T15:03:22Z</time></trkpt><trkpt lat="37.97621809489351" lon="15.393014985370836"><ele>41.5</ele><time>2026-03-27T15:03:23Z</time></trkpt><trkpt lat="37.976020557202744" lon="15.392819838227192"><ele>42.0</ele><time>2026-03-27T15:03:24Z</time></trkpt><trkpt lat="37.97582130459021" lon="15.392630571458238"><ele>42.0</ele><time>2026-03-27T15:03:25Z</time></trkpt><trkpt lat="37.97561742668595" lon="15.392445288032745"><ele>42.0</ele><time>2026-03-27T15:03:26Z</time></trkpt><trkpt lat="37.975410425227196" lon="15.392265013430718"><ele>46.0</ele><time>2026-03-27T15:03:27Z</time></trkpt><trkpt lat="37.975203301447536" lon="15.392086513756519"><ele>50.0</ele><time>2026-03-27T15:03:28Z</time></trkpt><trkpt lat="37.97499484436482" lon="15.391905398319565"><ele>50.0</ele><time>2026-03-27T15:03:29Z</time></trkpt><trkpt lat="37.97478582413748" lon="15.391725104130558"><ele>50.0</ele><time>2026-03-27T15:03:30Z</time></trkpt><trkpt lat="37.9745768410972" lon="15.391547500106043"><ele>50.0</ele><time>2026-03-27T15:03:31Z</time></trkpt><trkpt lat="37.97436874693481" lon="15.391372305897036"><ele>50.0</ele><time>2026-03-27T15:03:32Z</time></trkpt><trkpt lat="37.97415755666745" lon="15.391191328643343"><ele>49.0</ele><time>2026-03-27T15:03:33Z</time></trkpt><trkpt lat="37.97394481950536" lon="15.391007701627913"><ele>48.0</ele><time>2026-03-27T15:03:34Z</time></trkpt><trkpt lat="37.97373648947478" lon="15.390823200740083"><ele>48.0</ele><time>2026-03-27T15:03:35Z</time></trkpt><trkpt lat="37.97354026260222" lon="15.390634107908737"><ele>48.0</ele><time>2026-03-27T15:03:36Z</time></trkpt><trkpt lat="37.973358944447654" lon="15.390449368767824"><ele>46.333333333333336</ele><time>2026-03-27T15:03:37Z</time></trkpt><trkpt lat="37.973190323679134" lon="15.390268177643419"><ele>44.66666666666667</ele><time>2026-03-27T15:03:38Z</time></trkpt><trkpt lat="37.973037178318386" lon="15.390093390544504"><ele>43.0</ele><time>2026-03-27T15:03:39Z</time></trkpt><trkpt lat="37.97290516970902" lon="15.389936162288688"><ele>43.0</ele><time>2026-03-27T15:03:40Z</time></trkpt><trkpt lat="37.97279549277597" lon="15.389796846123243"><ele>43.0</ele><time>2026-03-27T15:03:41Z</time></trkpt><trkpt lat="37.97269143851592" lon="15.389662010643994"><ele>43.0</ele><time>2026-03-27T15:03:42Z</time></trkpt><trkpt lat="37.972596891348964" lon="15.389532914879272"><ele>43.0</ele><time>2026-03-27T15:03:43Z</time></trkpt><trkpt lat="37.972510251787725" lon="15.389401885017117"><ele>42.5</ele><time>2026-03-27T15:03:44Z</time></trkpt><trkpt lat="37.97242209562821" lon="15.389267665123809"><ele>42.0</ele><time>2026-03-27T15:03:44.999Z</time></trkpt><trkpt lat="37.97233518066259" lon="15.389131464873408"><ele>41.5</ele><time>2026-03-27T15:03:45.999Z</time></trkpt><trkpt lat="37.972250020091835" lon="15.388994095275168"><ele>41.0</ele><time>2026-03-27T15:03:46.999Z</time></trkpt><trkpt lat="37.97217077704218" lon="15.388860779927336"><ele>43.0</ele><time>2026-03-27T15:03:47.999Z</time></trkpt><trkpt lat="37.97209685011782" lon="15.388733681520465"><ele>45.0</ele><time>2026-03-27T15:03:48.999Z</time></trkpt><trkpt lat="37.97202254388142" lon="15.388601855742152"><ele>47.0</ele><time>2026-03-27T15:03:49.999Z</time></trkpt><trkpt lat="37.97194573090256" lon="15.388459422097052"><ele>49.0</ele><time>2026-03-27T15:03:50.999Z</time></trkpt><trkpt lat="37.971862364634895" lon="15.388298837309687"><ele>49.0</ele><time>2026-03-27T15:03:51.999Z</time></trkpt><trkpt lat="37.97177043678645" lon="15.388120067570428"><ele>49.0</ele><time>2026-03-27T15:03:52.999Z</time></trkpt><trkpt lat="37.97167367369338" lon="15.387924346823882"><ele>49.0</ele><time>2026-03-27T15:03:53.999Z</time></trkpt><trkpt lat="37.97157601678526" lon="15.3877169153426"><ele>48.0</ele><time>2026-03-27T15:03:54.999Z</time></trkpt><trkpt lat="37.971471064938704" lon="15.387498405173961"><ele>47.0</ele><time>2026-03-27T15:03:55.999Z</time></trkpt><trkpt lat="37.97135883049365" lon="15.387269305454407"><ele>46.0</ele><time>2026-03-27T15:03:56.999Z</time></trkpt><trkpt lat="37.971235154252746" lon="15.387032793852661"><ele>49.5</ele><time>2026-03-27T15:03:57.999Z</time></trkpt><trkpt lat="37.97110539013009" lon="15.386788667856969"><ele>53.0</ele><time>2026-03-27T15:03:58.999Z</time></trkpt><trkpt lat="37.97097171292967" lon="15.386543421148172"><ele>43.0</ele><time>2026-03-27T15:03:59.999Z</time></trkpt><trkpt lat="37.97083314309591" lon="15.386299323725462"><ele>33.0</ele><time>2026-03-27T15:04:00.999Z</time></trkpt><trkpt lat="37.97069006112045" lon="15.38605264713589"><ele>33.0</ele><time>2026-03-27T15:04:01.999Z</time></trkpt><trkpt lat="37.970545107173145" lon="15.38580582435485"><ele>33.0</ele><time>2026-03-27T15:04:02.999Z</time></trkpt><trkpt lat="37.97039319721386" lon="15.385565362121048"><ele>32.5</ele><time>2026-03-27T15:04:03.999Z</time></trkpt><trkpt lat="37.97023577390614" lon="15.38533208431804"><ele>32.0</ele><time>2026-03-27T15:04:04.999Z</time></trkpt><trkpt lat="37.97007161983723" lon="15.385106841040706"><ele>31.0</ele><time>2026-03-27T15:04:05.999Z</time></trkpt><trkpt lat="37.96990130516233" lon="15.384890472858203"><ele>30.0</ele><time>2026-03-27T15:04:06.999Z</time></trkpt><trkpt lat="37.96972656329636" lon="15.384681397032576"><ele>31.0</ele><time>2026-03-27T15:04:07.999Z</time></trkpt><trkpt lat="37.969546743035785" lon="15.384482282010007"><ele>32.0</ele><time>2026-03-27T15:04:08.999Z</time></trkpt><trkpt lat="37.9693632612227" lon="15.384293134219488"><ele>31.0</ele><time>2026-03-27T15:04:09.999Z</time></trkpt><trkpt lat="37.96917324631323" lon="15.384112728437252"><ele>30.0</ele><time>2026-03-27T15:04:11Z</time></trkpt><trkpt lat="37.968979409114326" lon="15.383938625030353"><ele>32.0</ele><time>2026-03-27T15:04:12Z</time></trkpt><trkpt lat="37.968781540205875" lon="15.383769786230578"><ele>34.0</ele><time>2026-03-27T15:04:13Z</time></trkpt><trkpt lat="37.96857768631017" lon="15.383604980137152"><ele>34.0</ele><time>2026-03-27T15:04:14Z</time></trkpt><trkpt lat="37.96836928642477" lon="15.383447922090047"><ele>34.0</ele><time>2026-03-27T15:04:15Z</time></trkpt><trkpt lat="37.968157777722936" lon="15.383298283072545"><ele>34.0</ele><time>2026-03-27T15:04:16Z</time></trkpt><trkpt lat="37.96794431769745" lon="15.383151506898331"><ele>34.0</ele><time>2026-03-27T15:04:17Z</time></trkpt><trkpt lat="37.967730283766016" lon="15.383004071222652"><ele>32.5</ele><time>2026-03-27T15:04:18Z</time></trkpt><trkpt lat="37.967515900667394" lon="15.382855994251452"><ele>31.0</ele><time>2026-03-27T15:04:19Z</time></trkpt><trkpt lat="37.96729869875643" lon="15.382706408279523"><ele>31.0</ele><time>2026-03-27T15:04:20Z</time></trkpt><trkpt lat="37.96708138342496" lon="15.382557005018256"><ele>31.0</ele><time>2026-03-27T15:04:21Z</time></trkpt><trkpt lat="37.96686477135458" lon="15.382407258970655"><ele>30.5</ele><time>2026-03-27T15:04:22Z</time></trkpt><trkpt lat="37.966646029530104" lon="15.38225772048929"><ele>30.0</ele><time>2026-03-27T15:04:23Z</time></trkpt><trkpt lat="37.96642691284378" lon="15.382110921959352"><ele>30.0</ele><time>2026-03-27T15:04:24Z</time></trkpt><trkpt lat="37.96621651685003" lon="15.381962483036444"><ele>30.0</ele><time>2026-03-27T15:04:25Z</time></trkpt><trkpt lat="37.966003788619794" lon="15.381816273523393"><ele>30.5</ele><time>2026-03-27T15:04:26Z</time></trkpt><trkpt lat="37.96579201182549" lon="15.381666578043738"><ele>31.0</ele><time>2026-03-27T15:04:27Z</time></trkpt><trkpt lat="37.96557788043211" lon="15.381516388428844"><ele>31.0</ele><time>2026-03-27T15:04:28Z</time></trkpt><trkpt lat="37.965362963574115" lon="15.381366958507392"><ele>31.0</ele><time>2026-03-27T15:04:29Z</time></trkpt><trkpt lat="37.96514810719543" lon="15.381216941019632"><ele>37.0</ele><time>2026-03-27T15:04:30Z</time></trkpt><trkpt lat="37.96492856957913" lon="15.381065677148305"><ele>43.0</ele><time>2026-03-27T15:04:31Z</time></trkpt><trkpt lat="37.96470777985368" lon="15.380909636707571"><ele>43.0</ele><time>2026-03-27T15:04:32Z</time></trkpt><trkpt lat="37.96448624851633" lon="15.380744995981294"><ele>43.0</ele><time>2026-03-27T15:04:33Z</time></trkpt><trkpt lat="37.964266028202076" lon="15.380569279451176"><ele>48.5</ele><time>2026-03-27T15:04:34Z</time></trkpt><trkpt lat="37.96405544495878" lon="15.380381601341961"><ele>54.0</ele><time>2026-03-27T15:04:35Z</time></trkpt><trkpt lat="37.96385213807015" lon="15.380178962510607"><ele>54.0</ele><time>2026-03-27T15:04:36Z</time></trkpt><trkpt lat="37.96365564727764" lon="15.379960909924792"><ele>54.0</ele><time>2026-03-27T15:04:37Z</time></trkpt><trkpt lat="37.96346741360688" lon="15.379729014601613"><ele>52.0</ele><time>2026-03-27T15:04:38Z</time></trkpt><trkpt lat="37.96328928075582" lon="15.379484126293347"><ele>50.0</ele><time>2026-03-27T15:04:39Z</time></trkpt><trkpt lat="37.96312111448152" lon="15.379228152485165"><ele>50.0</ele><time>2026-03-27T15:04:40Z</time></trkpt><trkpt lat="37.962952889392845" lon="15.378964938864872"><ele>50.0</ele><time>2026-03-27T15:04:41Z</time></trkpt><trkpt lat="37.96278718164802" lon="15.378700508414841"><ele>51.0</ele><time>2026-03-27T15:04:42Z</time></trkpt><trkpt lat="37.96262478977834" lon="15.378443176594219"><ele>52.0</ele><time>2026-03-27T15:04:43Z</time></trkpt><trkpt lat="37.96246251200151" lon="15.378188868939125"><ele>41.0</ele><time>2026-03-27T15:04:44Z</time></trkpt><trkpt lat="37.96230364846104" lon="15.377941687103295"><ele>30.0</ele><time>2026-03-27T15:04:45Z</time></trkpt><trkpt lat="37.96214637341784" lon="15.377693388993482"><ele>30.0</ele><time>2026-03-27T15:04:46Z</time></trkpt><trkpt lat="37.96198972262772" lon="15.377443702282969"><ele>30.0</ele><time>2026-03-27T15:04:47Z</time></trkpt><trkpt lat="37.96182853264308" lon="15.377197392153537"><ele>26.0</ele><time>2026-03-27T15:04:48Z</time></trkpt><trkpt lat="37.9616613242062" lon="15.376957013838657"><ele>22.0</ele><time>2026-03-27T15:04:49Z</time></trkpt><trkpt lat="37.961485560205766" lon="15.376722185416234"><ele>22.0</ele><time>2026-03-27T15:04:50Z</time></trkpt><trkpt lat="37.96130168510254" lon="15.376493275816134"><ele>22.0</ele><time>2026-03-27T15:04:51Z</time></trkpt><trkpt lat="37.96110922960219" lon="15.376272208166794"><ele>21.0</ele><time>2026-03-27T15:04:52Z</time></trkpt><trkpt lat="37.96090953234968" lon="15.37605725405017"><ele>20.0</ele><time>2026-03-27T15:04:53Z</time></trkpt><trkpt lat="37.960704001469416" lon="15.375845636486995"><ele>20.0</ele><time>2026-03-27T15:04:54Z</time></trkpt><trkpt lat="37.96049767257772" lon="15.375628296714478"><ele>20.0</ele><time>2026-03-27T15:04:55Z</time></trkpt><trkpt lat="37.96029277004726" lon="15.375405185561329"><ele>20.0</ele><time>2026-03-27T15:04:56Z</time></trkpt><trkpt lat="37.960084630118835" lon="15.37517974870871"><ele>20.0</ele><time>2026-03-27T15:04:57Z</time></trkpt><trkpt lat="37.95987794503199" lon="15.374955090534478"><ele>20.0</ele><time>2026-03-27T15:04:58Z</time></trkpt><trkpt lat="37.95967142126331" lon="15.3747324963161"><ele>20.0</ele><time>2026-03-27T15:04:59Z</time></trkpt><trkpt lat="37.959466910038024" lon="15.374510873342661"><ele>20.0</ele><time>2026-03-27T15:05:00Z</time></trkpt><trkpt lat="37.95926084921465" lon="15.374291860997872"><ele>20.0</ele><time>2026-03-27T15:05:01Z</time></trkpt><trkpt lat="37.95905696790131" lon="15.374074328500935"><ele>21.0</ele><time>2026-03-27T15:05:02Z</time></trkpt><trkpt lat="37.95885504222562" lon="15.373856433758826"><ele>22.0</ele><time>2026-03-27T15:05:03Z</time></trkpt><trkpt lat="37.95865328808169" lon="15.373637084537155"><ele>22.5</ele><time>2026-03-27T15:05:04Z</time></trkpt><trkpt lat="37.958451704464565" lon="15.373417584509026"><ele>23.0</ele><time>2026-03-27T15:05:05Z</time></trkpt><trkpt lat="37.958248954794364" lon="15.373200564351665"><ele>23.5</ele><time>2026-03-27T15:05:06Z</time></trkpt><trkpt lat="37.958047786979215" lon="15.37298163332001"><ele>24.0</ele><time>2026-03-27T15:05:07Z</time></trkpt><trkpt lat="37.957845229922235" lon="15.372762760681574"><ele>24.0</ele><time>2026-03-27T15:05:08Z</time></trkpt><trkpt lat="37.95764330000188" lon="15.372545027072192"><ele>24.0</ele><time>2026-03-27T15:05:09Z</time></trkpt><trkpt lat="37.9574392646961" lon="15.372324623280504"><ele>24.0</ele><time>2026-03-27T15:05:10Z</time></trkpt><trkpt lat="37.957238621603906" lon="15.372107617195283"><ele>24.0</ele><time>2026-03-27T15:05:11Z</time></trkpt><trkpt lat="37.957040294470794" lon="15.371893167849244"><ele>24.0</ele><time>2026-03-27T15:05:12Z</time></trkpt><trkpt lat="37.95684077882791" lon="15.371681365713831"><ele>24.0</ele><time>2026-03-27T15:05:13Z</time></trkpt><trkpt lat="37.95663740908992" lon="15.371468061256428"><ele>24.5</ele><time>2026-03-27T15:05:14Z</time></trkpt><trkpt lat="37.95643167923007" lon="15.371261920140405"><ele>25.0</ele><time>2026-03-27T15:05:15Z</time></trkpt><trkpt lat="37.95621771707598" lon="15.371067909909456"><ele>25.0</ele><time>2026-03-27T15:05:16Z</time></trkpt><trkpt lat="37.95599668099996" lon="15.370888532289513"><ele>25.0</ele><time>2026-03-27T15:05:17Z</time></trkpt><trkpt lat="37.95577212023537" lon="15.370719547924734"><ele>26.0</ele><time>2026-03-27T15:05:18Z</time></trkpt><trkpt lat="37.9555445389354" lon="15.370562809596926"><ele>27.0</ele><time>2026-03-27T15:05:19Z</time></trkpt><trkpt lat="37.95531264495626" lon="15.37041535792913"><ele>27.0</ele><time>2026-03-27T15:05:20Z</time></trkpt><trkpt lat="37.9550835798518" lon="15.370281620847425"><ele>27.0</ele><time>2026-03-27T15:05:21Z</time></trkpt><trkpt lat="37.954851343513475" lon="15.370159493892167"><ele>25.0</ele><time>2026-03-27T15:05:22Z</time></trkpt><trkpt lat="37.954616226209936" lon="15.370041481687286"><ele>23.0</ele><time>2026-03-27T15:05:23Z</time></trkpt><trkpt lat="37.954384072735344" lon="15.36992270557033"><ele>24.0</ele><time>2026-03-27T15:05:24Z</time></trkpt><trkpt lat="37.954154357074934" lon="15.369798009738064"><ele>25.0</ele><time>2026-03-27T15:05:25Z</time></trkpt><trkpt lat="37.95392624003222" lon="15.36967757361905"><ele>26.0</ele><time>2026-03-27T15:05:26Z</time></trkpt><trkpt lat="37.95369698275803" lon="15.369557795122951"><ele>27.0</ele><time>2026-03-27T15:05:27Z</time></trkpt><trkpt lat="37.953474219787616" lon="15.369440015817723"><ele>29.0</ele><time>2026-03-27T15:05:28Z</time></trkpt><trkpt lat="37.95325474982138" lon="15.369323083433073"><ele>31.0</ele><time>2026-03-27T15:05:29Z</time></trkpt><trkpt lat="37.95303324309059" lon="15.369203558841138"><ele>31.0</ele><time>2026-03-27T15:05:30Z</time></trkpt><trkpt lat="37.95281662225873" lon="15.369080596363533"><ele>31.0</ele><time>2026-03-27T15:05:31Z</time></trkpt><trkpt lat="37.95260317653038" lon="15.368946691074303"><ele>47.0</ele><time>2026-03-27T15:05:32Z</time></trkpt><trkpt lat="37.952395245633504" lon="15.368797165692094"><ele>63.0</ele><time>2026-03-27T15:05:33Z</time></trkpt><trkpt lat="37.95219443268785" lon="15.36863575414726"><ele>63.0</ele><time>2026-03-27T15:05:34Z</time></trkpt><trkpt lat="37.951999115884306" lon="15.368461664001755"><ele>63.0</ele><time>2026-03-27T15:05:35Z</time></trkpt><trkpt lat="37.95181121660932" lon="15.36827540157164"><ele>62.0</ele><time>2026-03-27T15:05:36Z</time></trkpt><trkpt lat="37.951626581354304" lon="15.368073425344072"><ele>61.0</ele><time>2026-03-27T15:05:37Z</time></trkpt><trkpt lat="37.951445919781" lon="15.367866122875032"><ele>61.0</ele><time>2026-03-27T15:05:38Z</time></trkpt><trkpt lat="37.951267250481926" lon="15.367655348338634"><ele>61.0</ele><time>2026-03-27T15:05:39Z</time></trkpt><trkpt lat="37.951088472771744" lon="15.367444154242412"><ele>61.0</ele><time>2026-03-27T15:05:40Z</time></trkpt><trkpt lat="37.95090750605367" lon="15.367235712041053"><ele>61.0</ele><time>2026-03-27T15:05:41Z</time></trkpt><trkpt lat="37.950720477741086" lon="15.367033456490548"><ele>65.0</ele><time>2026-03-27T15:05:42Z</time></trkpt><trkpt lat="37.95052658386902" lon="15.366838467678873"><ele>69.0</ele><time>2026-03-27T15:05:43Z</time></trkpt><trkpt lat="37.95032162868436" lon="15.366648542267622"><ele>69.0</ele><time>2026-03-27T15:05:44Z</time></trkpt><trkpt lat="37.9501092744679" lon="15.366465623820647"><ele>69.0</ele><time>2026-03-27T15:05:45Z</time></trkpt><trkpt lat="37.94989173278458" lon="15.366291354299003"><ele>69.5</ele><time>2026-03-27T15:05:46Z</time></trkpt><trkpt lat="37.949667474535886" lon="15.366127215556574"><ele>70.0</ele><time>2026-03-27T15:05:47Z</time></trkpt><trkpt lat="37.94943800916834" lon="15.365970449348938"><ele>67.0</ele><time>2026-03-27T15:05:48Z</time></trkpt><trkpt lat="37.94920451963802" lon="15.365816746920977"><ele>64.0</ele><time>2026-03-27T15:05:49Z</time></trkpt><trkpt lat="37.94897009991808" lon="15.365662173109865"><ele>68.5</ele><time>2026-03-27T15:05:50Z</time></trkpt><trkpt lat="37.94873533445031" lon="15.365506911437445"><ele>73.0</ele><time>2026-03-27T15:05:51Z</time></trkpt><trkpt lat="37.94850170002028" lon="15.365349071972007"><ele>69.0</ele><time>2026-03-27T15:05:52Z</time></trkpt><trkpt lat="37.94826769768752" lon="15.365194448900548"><ele>65.0</ele><time>2026-03-27T15:05:53Z</time></trkpt><trkpt lat="37.94803385652656" lon="15.365035787254584"><ele>65.0</ele><time>2026-03-27T15:05:54Z</time></trkpt><trkpt lat="37.94779704667872" lon="15.36487615561179"><ele>65.0</ele><time>2026-03-27T15:05:55Z</time></trkpt><trkpt lat="37.947560094635556" lon="15.364714888170209"><ele>64.5</ele><time>2026-03-27T15:05:56Z</time></trkpt><trkpt lat="37.94732398704258" lon="15.364556039088889"><ele>64.0</ele><time>2026-03-27T15:05:57Z</time></trkpt><trkpt lat="37.947084606413505" lon="15.36440025058762"><ele>64.0</ele><time>2026-03-27T15:05:58Z</time></trkpt><trkpt lat="37.94684701155726" lon="15.364245692470016"><ele>64.0</ele><time>2026-03-27T15:05:59Z</time></trkpt><trkpt lat="37.94660872463341" lon="15.36408879990384"><ele>65.5</ele><time>2026-03-27T15:06:00Z</time></trkpt><trkpt lat="37.94636925681964" lon="15.363929171737192"><ele>67.0</ele><time>2026-03-27T15:06:01Z</time></trkpt><trkpt lat="37.94613221523028" lon="15.363767314196043"><ele>67.0</ele><time>2026-03-27T15:06:02Z</time></trkpt><trkpt lat="37.945895582728795" lon="15.363605446189476"><ele>67.0</ele><time>2026-03-27T15:06:03Z</time></trkpt><trkpt lat="37.945658328379665" lon="15.36344096738702"><ele>63.5</ele><time>2026-03-27T15:06:03.999Z</time></trkpt><trkpt lat="37.945423571141426" lon="15.363272553293905"><ele>60.0</ele><time>2026-03-27T15:06:04.999Z</time></trkpt><trkpt lat="37.94519184431033" lon="15.363095682583573"><ele>59.0</ele><time>2026-03-27T15:06:05.999Z</time></trkpt><trkpt lat="37.944962492054024" lon="15.36291459764267"><ele>58.0</ele><time>2026-03-27T15:06:06.999Z</time></trkpt><trkpt lat="37.94473368558747" lon="15.36273150151852"><ele>58.0</ele><time>2026-03-27T15:06:07.999Z</time></trkpt><trkpt lat="37.944507007761956" lon="15.362547560382048"><ele>58.0</ele><time>2026-03-27T15:06:08.999Z</time></trkpt><trkpt lat="37.944279534734235" lon="15.36236408172285"><ele>62.5</ele><time>2026-03-27T15:06:09.999Z</time></trkpt><trkpt lat="37.94405272403033" lon="15.362180085977883"><ele>67.0</ele><time>2026-03-27T15:06:10.999Z</time></trkpt><trkpt lat="37.94382474765647" lon="15.361995809394044"><ele>67.0</ele><time>2026-03-27T15:06:11.999Z</time></trkpt><trkpt lat="37.943598439480404" lon="15.361813115737428"><ele>67.0</ele><time>2026-03-27T15:06:12.999Z</time></trkpt><trkpt lat="37.94337250497332" lon="15.36163084363132"><ele>64.5</ele><time>2026-03-27T15:06:13.999Z</time></trkpt><trkpt lat="37.94314690379025" lon="15.36144852825587"><ele>62.0</ele><time>2026-03-27T15:06:14.999Z</time></trkpt><trkpt lat="37.942920022072975" lon="15.361262690222818"><ele>61.5</ele><time>2026-03-27T15:06:15.999Z</time></trkpt><trkpt lat="37.94269561405909" lon="15.361073423605275"><ele>61.0</ele><time>2026-03-27T15:06:17Z</time></trkpt><trkpt lat="37.94247652602029" lon="15.360883699950213"><ele>50.0</ele><time>2026-03-27T15:06:18Z</time></trkpt><trkpt lat="37.942259390596654" lon="15.360683260375176"><ele>39.0</ele><time>2026-03-27T15:06:19Z</time></trkpt><trkpt lat="37.94204950010031" lon="15.360474159840578"><ele>39.0</ele><time>2026-03-27T15:06:20Z</time></trkpt><trkpt lat="37.94184687047879" lon="15.360257133607501"><ele>39.0</ele><time>2026-03-27T15:06:21Z</time></trkpt><trkpt lat="37.94165466991517" lon="15.36003225086164"><ele>39.5</ele><time>2026-03-27T15:06:22Z</time></trkpt><trkpt lat="37.94146976566742" lon="15.359801039533329"><ele>40.0</ele><time>2026-03-27T15:06:23Z</time></trkpt><trkpt lat="37.941287067759404" lon="15.359568069386818"><ele>40.0</ele><time>2026-03-27T15:06:24Z</time></trkpt><trkpt lat="37.941075733835625" lon="15.35930110666627"><ele>40.0</ele><time>2026-03-27T15:06:25Z</time></trkpt><trkpt lat="37.940889202794324" lon="15.359044180407974"><ele>41.5</ele><time>2026-03-27T15:06:26Z</time></trkpt><trkpt lat="37.94070013549434" lon="15.358800154847692"><ele>43.0</ele><time>2026-03-27T15:06:27Z</time></trkpt><trkpt lat="37.94051518770882" lon="15.358545458464164"><ele>43.0</ele><time>2026-03-27T15:06:28Z</time></trkpt><trkpt lat="37.940324363864484" lon="15.358297975416098"><ele>43.0</ele><time>2026-03-27T15:06:29Z</time></trkpt><trkpt lat="37.940137863163926" lon="15.35805655803287"><ele>47.5</ele><time>2026-03-27T15:06:30Z</time></trkpt><trkpt lat="37.93995173800557" lon="15.357817697513529"><ele>52.0</ele><time>2026-03-27T15:06:31Z</time></trkpt><trkpt lat="37.93976543405498" lon="15.357580479160566"><ele>52.0</ele><time>2026-03-27T15:06:32Z</time></trkpt><trkpt lat="37.93957988399436" lon="15.35734183235186"><ele>52.0</ele><time>2026-03-27T15:06:33Z</time></trkpt><trkpt lat="37.939397479709505" lon="15.35710268124843"><ele>54.0</ele><time>2026-03-27T15:06:34Z</time></trkpt><trkpt lat="37.939221427459664" lon="15.356862786815357"><ele>56.0</ele><time>2026-03-27T15:06:35Z</time></trkpt><trkpt lat="37.939046558698976" lon="15.356630784003887"><ele>53.5</ele><time>2026-03-27T15:06:36Z</time></trkpt><trkpt lat="37.93888294349472" lon="15.356409570138737"><ele>51.0</ele><time>2026-03-27T15:06:37Z</time></trkpt><trkpt lat="37.93872696358358" lon="15.356197479824411"><ele>51.0</ele><time>2026-03-27T15:06:38Z</time></trkpt><trkpt lat="37.93856949285328" lon="15.35598877720559"><ele>51.0</ele><time>2026-03-27T15:06:39Z</time></trkpt><trkpt lat="37.93841621471163" lon="15.35577553275234"><ele>45.5</ele><time>2026-03-27T15:06:40Z</time></trkpt><trkpt lat="37.93825491892075" lon="15.35556362338862"><ele>40.0</ele><time>2026-03-27T15:06:41Z</time></trkpt><trkpt lat="37.93809380045591" lon="15.35534637813802"><ele>38.0</ele><time>2026-03-27T15:06:42Z</time></trkpt><trkpt lat="37.9379274195397" lon="15.355127616829217"><ele>36.0</ele><time>2026-03-27T15:06:43Z</time></trkpt><trkpt lat="37.93776078261033" lon="15.354906619839456"><ele>37.0</ele><time>2026-03-27T15:06:44Z</time></trkpt><trkpt lat="37.937593764471565" lon="15.354682443502925"><ele>38.0</ele><time>2026-03-27T15:06:45Z</time></trkpt><trkpt lat="37.93741922407516" lon="15.354459547380424"><ele>34.5</ele><time>2026-03-27T15:06:46Z</time></trkpt><trkpt lat="37.93723733600976" lon="15.35423519174719"><ele>31.0</ele><time>2026-03-27T15:06:47Z</time></trkpt><trkpt lat="37.937051837387784" lon="15.35401351758875"><ele>29.0</ele><time>2026-03-27T15:06:48Z</time></trkpt><trkpt lat="37.93685980401269" lon="15.353798351682551"><ele>27.0</ele><time>2026-03-27T15:06:49Z</time></trkpt><trkpt lat="37.93666023824487" lon="15.353591411759291"><ele>27.0</ele><time>2026-03-27T15:06:50Z</time></trkpt><trkpt lat="37.93645313326669" lon="15.353384902608452"><ele>27.0</ele><time>2026-03-27T15:06:51Z</time></trkpt><trkpt lat="37.93624050209582" lon="15.353185861327661"><ele>24.5</ele><time>2026-03-27T15:06:52Z</time></trkpt><trkpt lat="37.936023901879736" lon="15.352995284363955"><ele>22.0</ele><time>2026-03-27T15:06:53Z</time></trkpt><trkpt lat="37.93580312537128" lon="15.352812786679157"><ele>20.0</ele><time>2026-03-27T15:06:54Z</time></trkpt><trkpt lat="37.93557752656742" lon="15.352636079974062"><ele>18.0</ele><time>2026-03-27T15:06:55Z</time></trkpt><trkpt lat="37.935348792247524" lon="15.352469844662885"><ele>18.0</ele><time>2026-03-27T15:06:56Z</time></trkpt><trkpt lat="37.93511606490654" lon="15.352313618041933"><ele>18.0</ele><time>2026-03-27T15:06:57Z</time></trkpt><trkpt lat="37.93488068500398" lon="15.352164715073865"><ele>16.5</ele><time>2026-03-27T15:06:58Z</time></trkpt><trkpt lat="37.93464441285439" lon="15.352018815222628"><ele>15.0</ele><time>2026-03-27T15:06:59Z</time></trkpt><trkpt lat="37.93440585995139" lon="15.351885491103609"><ele>13.5</ele><time>2026-03-27T15:07:00Z</time></trkpt><trkpt lat="37.93416524878819" lon="15.351750087318559"><ele>12.0</ele><time>2026-03-27T15:07:01Z</time></trkpt><trkpt lat="37.93392820124728" lon="15.351614697615029"><ele>12.0</ele><time>2026-03-27T15:07:02Z</time></trkpt><trkpt lat="37.93369044187609" lon="15.351475328369595"><ele>12.0</ele><time>2026-03-27T15:07:03Z</time></trkpt><trkpt lat="37.93345152068396" lon="15.351331211585512"><ele>14.5</ele><time>2026-03-27T15:07:04Z</time></trkpt><trkpt lat="37.93321435527399" lon="15.351196906075614"><ele>17.0</ele><time>2026-03-27T15:07:05Z</time></trkpt><trkpt lat="37.93297611951339" lon="15.351068064649267"><ele>17.0</ele><time>2026-03-27T15:07:06Z</time></trkpt><trkpt lat="37.93273244064352" lon="15.350958991686737"><ele>17.0</ele><time>2026-03-27T15:07:07Z</time></trkpt><trkpt lat="37.93248426066026" lon="15.350871764338445"><ele>17.5</ele><time>2026-03-27T15:07:08Z</time></trkpt><trkpt lat="37.93222891528881" lon="15.350804873309693"><ele>18.0</ele><time>2026-03-27T15:07:09Z</time></trkpt><trkpt lat="37.93197148252976" lon="15.350762303011047"><ele>19.0</ele><time>2026-03-27T15:07:10Z</time></trkpt><trkpt lat="37.93171537494051" lon="15.350735106417545"><ele>20.0</ele><time>2026-03-27T15:07:11Z</time></trkpt><trkpt lat="37.93145674703298" lon="15.350726394910536"><ele>20.0</ele><time>2026-03-27T15:07:12Z</time></trkpt><trkpt lat="37.931197789558084" lon="15.350736124472817"><ele>20.0</ele><time>2026-03-27T15:07:13Z</time></trkpt><trkpt lat="37.93093806034938" lon="15.35075193967823"><ele>22.5</ele><time>2026-03-27T15:07:14Z</time></trkpt><trkpt lat="37.93067602838334" lon="15.350767137854989"><ele>25.0</ele><time>2026-03-27T15:07:15Z</time></trkpt><trkpt lat="37.930414581250375" lon="15.350779912249687"><ele>25.0</ele><time>2026-03-27T15:07:16Z</time></trkpt><trkpt lat="37.9301524599899" lon="15.350793414707343"><ele>25.0</ele><time>2026-03-27T15:07:17Z</time></trkpt><trkpt lat="37.92988922273463" lon="15.350799935700241"><ele>26.0</ele><time>2026-03-27T15:07:18Z</time></trkpt><trkpt lat="37.92962586906566" lon="15.350796019330373"><ele>27.0</ele><time>2026-03-27T15:07:19Z</time></trkpt><trkpt lat="37.92936414731544" lon="15.350773599908177"><ele>25.5</ele><time>2026-03-27T15:07:20Z</time></trkpt><trkpt lat="37.9291059324687" lon="15.350726319457722"><ele>24.0</ele><time>2026-03-27T15:07:21Z</time></trkpt><trkpt lat="37.92885126525117" lon="15.350659113792126"><ele>24.0</ele><time>2026-03-27T15:07:22Z</time></trkpt><trkpt lat="37.92860192746776" lon="15.350576965869395"><ele>24.0</ele><time>2026-03-27T15:07:23Z</time></trkpt><trkpt lat="37.92835616141186" lon="15.35047849729612"><ele>35.5</ele><time>2026-03-27T15:07:24Z</time></trkpt><trkpt lat="37.928116373246866" lon="15.350359173316617"><ele>47.0</ele><time>2026-03-27T15:07:25Z</time></trkpt><trkpt lat="37.92788415267251" lon="15.350221053618473"><ele>47.0</ele><time>2026-03-27T15:07:26Z</time></trkpt><trkpt lat="37.927657541873074" lon="15.35007031366337"><ele>47.0</ele><time>2026-03-27T15:07:27Z</time></trkpt><trkpt lat="37.9274371992675" lon="15.34990240275051"><ele>46.5</ele><time>2026-03-27T15:07:28Z</time></trkpt><trkpt lat="37.92722481063603" lon="15.34971797928691"><ele>46.0</ele><time>2026-03-27T15:07:29Z</time></trkpt><trkpt lat="37.927021592106406" lon="15.34951881835176"><ele>46.0</ele><time>2026-03-27T15:07:30Z</time></trkpt><trkpt lat="37.926819121377655" lon="15.349311858449429"><ele>46.0</ele><time>2026-03-27T15:07:31Z</time></trkpt><trkpt lat="37.92661741380138" lon="15.349106624219264"><ele>44.5</ele><time>2026-03-27T15:07:32Z</time></trkpt><trkpt lat="37.926414832460694" lon="15.348900060348736"><ele>43.0</ele><time>2026-03-27T15:07:33Z</time></trkpt><trkpt lat="37.92621462675435" lon="15.348687343869189"><ele>43.0</ele><time>2026-03-27T15:07:34Z</time></trkpt><trkpt lat="37.92601436645574" lon="15.34846930581652"><ele>43.0</ele><time>2026-03-27T15:07:35Z</time></trkpt><trkpt lat="37.92581516661749" lon="15.348249146653554"><ele>35.5</ele><time>2026-03-27T15:07:36Z</time></trkpt><trkpt lat="37.92561630089812" lon="15.348028791801871"><ele>28.0</ele><time>2026-03-27T15:07:37Z</time></trkpt><trkpt lat="37.925421274884464" lon="15.347806509403043"><ele>28.0</ele><time>2026-03-27T15:07:38Z</time></trkpt><trkpt lat="37.925230228377046" lon="15.347582331888583"><ele>28.0</ele><time>2026-03-27T15:07:39Z</time></trkpt><trkpt lat="37.92504016202249" lon="15.347359499992173"><ele>39.0</ele><time>2026-03-27T15:07:40Z</time></trkpt><trkpt lat="37.92485180993894" lon="15.347141411996056"><ele>50.0</ele><time>2026-03-27T15:07:41Z</time></trkpt><trkpt lat="37.92466714213983" lon="15.346925212928813"><ele>50.0</ele><time>2026-03-27T15:07:42Z</time></trkpt><trkpt lat="37.92448859152675" lon="15.346706451116386"><ele>50.0</ele><time>2026-03-27T15:07:43Z</time></trkpt><trkpt lat="37.92431506133678" lon="15.346483809847806"><ele>51.5</ele><time>2026-03-27T15:07:44Z</time></trkpt><trkpt lat="37.92414556233961" lon="15.34626065848806"><ele>53.0</ele><time>2026-03-27T15:07:45Z</time></trkpt><trkpt lat="37.92396849943669" lon="15.34604338119679"><ele>53.0</ele><time>2026-03-27T15:07:46Z</time></trkpt><trkpt lat="37.92379865247703" lon="15.345811738346594"><ele>53.0</ele><time>2026-03-27T15:07:47Z</time></trkpt><trkpt lat="37.923622130487466" lon="15.345586827191616"><ele>53.5</ele><time>2026-03-27T15:07:48Z</time></trkpt><trkpt lat="37.923439850804876" lon="15.345371161736434"><ele>54.0</ele><time>2026-03-27T15:07:49Z</time></trkpt><trkpt lat="37.923250807655364" lon="15.345165804063122"><ele>48.0</ele><time>2026-03-27T15:07:50Z</time></trkpt><trkpt lat="37.92305639498538" lon="15.344965967686763"><ele>42.0</ele><time>2026-03-27T15:07:51Z</time></trkpt><trkpt lat="37.922857462585476" lon="15.344782582903834"><ele>44.0</ele><time>2026-03-27T15:07:52Z</time></trkpt><trkpt lat="37.92265461073762" lon="15.34461991519689"><ele>46.0</ele><time>2026-03-27T15:07:53Z</time></trkpt><trkpt lat="37.9224422265977" lon="15.34446778969932"><ele>46.0</ele><time>2026-03-27T15:07:54Z</time></trkpt><trkpt lat="37.92223251878123" lon="15.344333956580765"><ele>46.0</ele><time>2026-03-27T15:07:55Z</time></trkpt><trkpt lat="37.92200396982836" lon="15.344227903311326"><ele>46.0</ele><time>2026-03-27T15:07:56Z</time></trkpt><trkpt lat="37.92178477736995" lon="15.344133686881317"><ele>46.0</ele><time>2026-03-27T15:07:57Z</time></trkpt><trkpt lat="37.921561923056736" lon="15.344047110640222"><ele>39.0</ele><time>2026-03-27T15:07:58Z</time></trkpt><trkpt lat="37.92133819591349" lon="15.343968796713572"><ele>32.0</ele><time>2026-03-27T15:07:59Z</time></trkpt><trkpt lat="37.92110798181475" lon="15.343906553121123"><ele>42.5</ele><time>2026-03-27T15:08:00Z</time></trkpt><trkpt lat="37.92087400048759" lon="15.343862977312325"><ele>53.0</ele><time>2026-03-27T15:08:01Z</time></trkpt><trkpt lat="37.9206369127501" lon="15.343827791890021"><ele>53.0</ele><time>2026-03-27T15:08:02Z</time></trkpt><trkpt lat="37.92039350020026" lon="15.343804270660012"><ele>53.0</ele><time>2026-03-27T15:08:03Z</time></trkpt><trkpt lat="37.92015090206308" lon="15.343786064389613"><ele>51.0</ele><time>2026-03-27T15:08:04Z</time></trkpt><trkpt lat="37.91990640796236" lon="15.34377057167016"><ele>49.0</ele><time>2026-03-27T15:08:04.999Z</time></trkpt><trkpt lat="37.91965981142022" lon="15.343750325339231"><ele>49.0</ele><time>2026-03-27T15:08:05.999Z</time></trkpt><trkpt lat="37.9194077473679" lon="15.343719302877592"><ele>49.0</ele><time>2026-03-27T15:08:06.999Z</time></trkpt><trkpt lat="37.91915577567591" lon="15.343691321086007"><ele>48.0</ele><time>2026-03-27T15:08:07.999Z</time></trkpt><trkpt lat="37.91890021432152" lon="15.343650857057746"><ele>47.0</ele><time>2026-03-27T15:08:08.999Z</time></trkpt><trkpt lat="37.918644644673364" lon="15.34360218328175"><ele>41.5</ele><time>2026-03-27T15:08:09.999Z</time></trkpt><trkpt lat="37.91838778923009" lon="15.343540437618355"><ele>36.0</ele><time>2026-03-27T15:08:10.999Z</time></trkpt><trkpt lat="37.91813213415672" lon="15.343465830217337"><ele>36.0</ele><time>2026-03-27T15:08:11.999Z</time></trkpt><trkpt lat="37.91787336229158" lon="15.343384433434109"><ele>36.0</ele><time>2026-03-27T15:08:12.999Z</time></trkpt><trkpt lat="37.917619664102766" lon="15.343287933556084"><ele>32.0</ele><time>2026-03-27T15:08:13.999Z</time></trkpt><trkpt lat="37.91736630411656" lon="15.343185086577073"><ele>28.0</ele><time>2026-03-27T15:08:14.999Z</time></trkpt><trkpt lat="37.91711534208219" lon="15.343073415615008"><ele>38.5</ele><time>2026-03-27T15:08:15.999Z</time></trkpt><trkpt lat="37.916870824811326" lon="15.34295189840431"><ele>49.0</ele><time>2026-03-27T15:08:16.999Z</time></trkpt><trkpt lat="37.91662973819083" lon="15.342823608339117"><ele>54.5</ele><time>2026-03-27T15:08:17.999Z</time></trkpt><trkpt lat="37.91639681816875" lon="15.342682809201023"><ele>60.0</ele><time>2026-03-27T15:08:18.999Z</time></trkpt><trkpt lat="37.91618273424568" lon="15.342534225940563"><ele>60.0</ele><time>2026-03-27T15:08:19.999Z</time></trkpt><trkpt lat="37.915963322832965" lon="15.342393187337521"><ele>60.0</ele><time>2026-03-27T15:08:20.999Z</time></trkpt><trkpt lat="37.915746566779895" lon="15.342247740459559"><ele>99.0</ele><time>2026-03-27T15:08:21.999Z</time></trkpt><trkpt lat="37.91552964443727" lon="15.342101222459021"><ele>138.0</ele><time>2026-03-27T15:08:23Z</time></trkpt><trkpt lat="37.91531233167394" lon="15.341950879919247"><ele>138.0</ele><time>2026-03-27T15:08:24Z</time></trkpt><trkpt lat="37.915094260738655" lon="15.34179446089352"><ele>138.0</ele><time>2026-03-27T15:08:25Z</time></trkpt><trkpt lat="37.91487635844957" lon="15.341646644583893"><ele>155.0</ele><time>2026-03-27T15:08:26Z</time></trkpt><trkpt lat="37.91449813078418" lon="15.341359549303094"><ele>172.0</ele><time>2026-03-27T15:08:27Z</time></trkpt><trkpt lat="37.91426405453951" lon="15.34119191063146"><ele>189.5</ele><time>2026-03-27T15:08:28Z</time></trkpt><trkpt lat="37.91402748658911" lon="15.341027619117016"><ele>207.0</ele><time>2026-03-27T15:08:29Z</time></trkpt><trkpt lat="37.91378860175995" lon="15.340859686941625"><ele>207.0</ele><time>2026-03-27T15:08:30Z</time></trkpt><trkpt lat="37.91354579488898" lon="15.34069068131404"><ele>207.0</ele><time>2026-03-27T15:08:31Z</time></trkpt><trkpt lat="37.91330319412643" lon="15.340525301849345"><ele>235.5</ele><time>2026-03-27T15:08:32Z</time></trkpt><trkpt lat="37.913059719906805" lon="15.340355500494633"><ele>264.0</ele><time>2026-03-27T15:08:33Z</time></trkpt><trkpt lat="37.9128167593856" lon="15.340187887799402"><ele>264.0</ele><time>2026-03-27T15:08:34Z</time></trkpt><trkpt lat="37.91257450820288" lon="15.340021415462255"><ele>264.0</ele><time>2026-03-27T15:08:35Z</time></trkpt><trkpt lat="37.91233547285823" lon="15.339856034817121"><ele>250.5</ele><time>2026-03-27T15:08:36Z</time></trkpt><trkpt lat="37.91209802347961" lon="15.339692025398907"><ele>237.0</ele><time>2026-03-27T15:08:37Z</time></trkpt><trkpt lat="37.9118620972704" lon="15.339527426244294"><ele>207.0</ele><time>2026-03-27T15:08:38Z</time></trkpt><trkpt lat="37.91162318150827" lon="15.3393640293441"><ele>177.0</ele><time>2026-03-27T15:08:39Z</time></trkpt><trkpt lat="37.91138441705627" lon="15.339202098533459"><ele>177.0</ele><time>2026-03-27T15:08:40Z</time></trkpt><trkpt lat="37.91114649626517" lon="15.339037712243707"><ele>177.0</ele><time>2026-03-27T15:08:41Z</time></trkpt><trkpt lat="37.91091053882419" lon="15.338870136823605"><ele>159.5</ele><time>2026-03-27T15:08:42Z</time></trkpt><trkpt lat="37.910674517608896" lon="15.338696217192751"><ele>142.0</ele><time>2026-03-27T15:08:43Z</time></trkpt><trkpt lat="37.91043866183725" lon="15.338515418668152"><ele>142.0</ele><time>2026-03-27T15:08:44Z</time></trkpt><trkpt lat="37.91020674290487" lon="15.338323234177944"><ele>142.0</ele><time>2026-03-27T15:08:45Z</time></trkpt><trkpt lat="37.90995849903835" lon="15.338107186426262"><ele>124.0</ele><time>2026-03-27T15:08:46Z</time></trkpt><trkpt lat="37.90969407963419" lon="15.337856543182713"><ele>106.0</ele><time>2026-03-27T15:08:47Z</time></trkpt><trkpt lat="37.909406961895726" lon="15.33756062963909"><ele>48.0</ele><time>2026-03-27T15:08:48.008Z</time></trkpt><trkpt lat="37.90804294279956" lon="15.335557598299571"><ele>53.5</ele><time>2026-03-27T15:08:56Z</time></trkpt><trkpt lat="37.90786887807714" lon="15.33528231985291"><ele>59.0</ele><time>2026-03-27T15:08:57Z</time></trkpt><trkpt lat="37.907695664776135" lon="15.335033532942976"><ele>47.5</ele><time>2026-03-27T15:08:58Z</time></trkpt><trkpt lat="37.90748826627838" lon="15.334753249993726"><ele>36.0</ele><time>2026-03-27T15:08:59Z</time></trkpt><trkpt lat="37.90731270357454" lon="15.334483104992156"><ele>36.0</ele><time>2026-03-27T15:09:00Z</time></trkpt><trkpt lat="37.90714355739237" lon="15.334211779912389"><ele>36.0</ele><time>2026-03-27T15:09:01Z</time></trkpt><trkpt lat="37.90697447362575" lon="15.33393286574749"><ele>35.5</ele><time>2026-03-27T15:09:02Z</time></trkpt><trkpt lat="37.9068049694907" lon="15.33365202919524"><ele>35.0</ele><time>2026-03-27T15:09:03Z</time></trkpt><trkpt lat="37.90663585367048" lon="15.333373737810271"><ele>28.5</ele><time>2026-03-27T15:09:04Z</time></trkpt><trkpt lat="37.90646125298523" lon="15.333098824715245"><ele>22.0</ele><time>2026-03-27T15:09:05Z</time></trkpt><trkpt lat="37.90632180332979" lon="15.332835389813619"><ele>22.0</ele><time>2026-03-27T15:09:06Z</time></trkpt><trkpt lat="37.90615491406361" lon="15.332578107581021"><ele>22.0</ele><time>2026-03-27T15:09:07Z</time></trkpt><trkpt lat="37.905988138619755" lon="15.332334452382032"><ele>37.0</ele><time>2026-03-27T15:09:08Z</time></trkpt><trkpt lat="37.90576318655488" lon="15.332093381841238"><ele>52.0</ele><time>2026-03-27T15:09:09Z</time></trkpt><trkpt lat="37.90556527574397" lon="15.331857240155124"><ele>52.0</ele><time>2026-03-27T15:09:10Z</time></trkpt><trkpt lat="37.905365913671275" lon="15.331621317762318"><ele>52.0</ele><time>2026-03-27T15:09:11Z</time></trkpt><trkpt lat="37.905164189824816" lon="15.331391082294601"><ele>76.0</ele><time>2026-03-27T15:09:12Z</time></trkpt><trkpt lat="37.90495976654079" lon="15.33116530797723"><ele>100.0</ele><time>2026-03-27T15:09:13Z</time></trkpt><trkpt lat="37.90475312965491" lon="15.330948475071514"><ele>100.0</ele><time>2026-03-27T15:09:14Z</time></trkpt><trkpt lat="37.904545105951584" lon="15.330742991053398"><ele>100.0</ele><time>2026-03-27T15:09:15Z</time></trkpt><trkpt lat="37.90433955199607" lon="15.330547433393361"><ele>91.0</ele><time>2026-03-27T15:09:16Z</time></trkpt><trkpt lat="37.90412840207602" lon="15.330386690649604"><ele>82.0</ele><time>2026-03-27T15:09:17Z</time></trkpt><trkpt lat="37.90392891881814" lon="15.330239255841265"><ele>82.0</ele><time>2026-03-27T15:09:18Z</time></trkpt><trkpt lat="37.90374840579097" lon="15.330107731133705"><ele>82.0</ele><time>2026-03-27T15:09:19Z</time></trkpt><trkpt lat="37.90340983614514" lon="15.329944171869792"><ele>76.5</ele><time>2026-03-27T15:09:20Z</time></trkpt><trkpt lat="37.90320983396735" lon="15.329804200046667"><ele>71.0</ele><time>2026-03-27T15:09:21Z</time></trkpt><trkpt lat="37.903000947746456" lon="15.329656085851502"><ele>71.0</ele><time>2026-03-27T15:09:22Z</time></trkpt><trkpt lat="37.90279073728205" lon="15.32950782269236"><ele>71.0</ele><time>2026-03-27T15:09:23Z</time></trkpt><trkpt lat="37.90258041484798" lon="15.329357773232227"><ele>66.0</ele><time>2026-03-27T15:09:24Z</time></trkpt><trkpt lat="37.902366858893245" lon="15.32920657958004"><ele>61.0</ele><time>2026-03-27T15:09:25Z</time></trkpt><trkpt lat="37.90215746539429" lon="15.329054604844412"><ele>61.0</ele><time>2026-03-27T15:09:26Z</time></trkpt><trkpt lat="37.901952884545636" lon="15.328905946957127"><ele>61.0</ele><time>2026-03-27T15:09:27Z</time></trkpt><trkpt lat="37.901751341415114" lon="15.32876062350854"><ele>63.0</ele><time>2026-03-27T15:09:28Z</time></trkpt><trkpt lat="37.90155172727735" lon="15.328616307375283"><ele>65.0</ele><time>2026-03-27T15:09:29Z</time></trkpt><trkpt lat="37.901353063501354" lon="15.328471534463675"><ele>65.0</ele><time>2026-03-27T15:09:30Z</time></trkpt><trkpt lat="37.901153622821504" lon="15.328326985813671"><ele>65.0</ele><time>2026-03-27T15:09:31Z</time></trkpt><trkpt lat="37.90095632247959" lon="15.32818374980739"><ele>64.5</ele><time>2026-03-27T15:09:32Z</time></trkpt><trkpt lat="37.90076122904881" lon="15.32803829357582"><ele>64.0</ele><time>2026-03-27T15:09:33Z</time></trkpt><trkpt lat="37.90057122080762" lon="15.327885239524026"><ele>64.0</ele><time>2026-03-27T15:09:34Z</time></trkpt><trkpt lat="37.900382661451374" lon="15.327726181116983"><ele>64.0</ele><time>2026-03-27T15:09:35Z</time></trkpt><trkpt lat="37.900195911365785" lon="15.327560398520985"><ele>68.0</ele><time>2026-03-27T15:09:36Z</time></trkpt><trkpt lat="37.900010319684064" lon="15.327384951131293"><ele>72.0</ele><time>2026-03-27T15:09:37Z</time></trkpt><trkpt lat="37.89982662956862" lon="15.327198808603056"><ele>72.0</ele><time>2026-03-27T15:09:38Z</time></trkpt><trkpt lat="37.899644567565225" lon="15.327004684134309"><ele>72.0</ele><time>2026-03-27T15:09:39Z</time></trkpt><trkpt lat="37.899461383648664" lon="15.326798816723128"><ele>72.0</ele><time>2026-03-27T15:09:40Z</time></trkpt><trkpt lat="37.89927882019137" lon="15.326585172130095"><ele>72.0</ele><time>2026-03-27T15:09:41Z</time></trkpt><trkpt lat="37.89909490074812" lon="15.326361872981337"><ele>68.5</ele><time>2026-03-27T15:09:42Z</time></trkpt><trkpt lat="37.89890908424444" lon="15.326134336845913"><ele>65.0</ele><time>2026-03-27T15:09:43Z</time></trkpt><trkpt lat="37.898719165454175" lon="15.325909630840405"><ele>65.0</ele><time>2026-03-27T15:09:44Z</time></trkpt><trkpt lat="37.89852552701372" lon="15.32568556953983"><ele>65.0</ele><time>2026-03-27T15:09:45Z</time></trkpt><trkpt lat="37.89832855409626" lon="15.325463380352405"><ele>56.0</ele><time>2026-03-27T15:09:46Z</time></trkpt><trkpt lat="37.8981164374002" lon="15.32524838859382"><ele>47.0</ele><time>2026-03-27T15:09:47Z</time></trkpt><trkpt lat="37.89791036641008" lon="15.325028267413497"><ele>47.0</ele><time>2026-03-27T15:09:48Z</time></trkpt><trkpt lat="37.89770128833201" lon="15.324811771768799"><ele>47.0</ele><time>2026-03-27T15:09:49Z</time></trkpt><trkpt lat="37.89749056178195" lon="15.324600126754405"><ele>55.5</ele><time>2026-03-27T15:09:50Z</time></trkpt><trkpt lat="37.897275701402975" lon="15.324394971007553"><ele>64.0</ele><time>2026-03-27T15:09:51Z</time></trkpt><trkpt lat="37.89705963513548" lon="15.324201630085817"><ele>64.0</ele><time>2026-03-27T15:09:52Z</time></trkpt><trkpt lat="37.89684372926764" lon="15.324012205399823"><ele>64.0</ele><time>2026-03-27T15:09:53Z</time></trkpt><trkpt lat="37.89662911993666" lon="15.323819742759"><ele>62.5</ele><time>2026-03-27T15:09:54Z</time></trkpt><trkpt lat="37.896411284290934" lon="15.323637270782148"><ele>61.0</ele><time>2026-03-27T15:09:55Z</time></trkpt><trkpt lat="37.8961984080613" lon="15.323457299176921"><ele>61.0</ele><time>2026-03-27T15:09:56Z</time></trkpt><trkpt lat="37.895988041890455" lon="15.323284898942742"><ele>61.0</ele><time>2026-03-27T15:09:57Z</time></trkpt><trkpt lat="37.89578708413227" lon="15.323106966472631"><ele>64.0</ele><time>2026-03-27T15:09:58Z</time></trkpt><trkpt lat="37.89559007524352" lon="15.322930647953772"><ele>67.0</ele><time>2026-03-27T15:09:59Z</time></trkpt><trkpt lat="37.895393775123" lon="15.322752751277644"><ele>67.0</ele><time>2026-03-27T15:10:00Z</time></trkpt><trkpt lat="37.89519803106368" lon="15.322563271778073"><ele>67.0</ele><time>2026-03-27T15:10:01Z</time></trkpt><trkpt lat="37.895004020361704" lon="15.322370721748388"><ele>65.0</ele><time>2026-03-27T15:10:02Z</time></trkpt><trkpt lat="37.89481024194732" lon="15.322185206440237"><ele>63.0</ele><time>2026-03-27T15:10:03Z</time></trkpt><trkpt lat="37.894617277889395" lon="15.321992563031792"><ele>63.0</ele><time>2026-03-27T15:10:04Z</time></trkpt><trkpt lat="37.89442963042443" lon="15.321802662691434"><ele>63.0</ele><time>2026-03-27T15:10:05Z</time></trkpt><trkpt lat="37.894236853252195" lon="15.321607523978347"><ele>63.5</ele><time>2026-03-27T15:10:06Z</time></trkpt><trkpt lat="37.89404923216453" lon="15.321405888553645"><ele>64.0</ele><time>2026-03-27T15:10:07Z</time></trkpt><trkpt lat="37.89386368427602" lon="15.32120293879003"><ele>64.0</ele><time>2026-03-27T15:10:08Z</time></trkpt><trkpt lat="37.89366939961032" lon="15.32100255937599"><ele>64.0</ele><time>2026-03-27T15:10:09Z</time></trkpt><trkpt lat="37.893467715856346" lon="15.320798482455595"><ele>58.5</ele><time>2026-03-27T15:10:09.999Z</time></trkpt><trkpt lat="37.89327045241984" lon="15.320591115894432"><ele>53.0</ele><time>2026-03-27T15:10:10.999Z</time></trkpt><trkpt lat="37.893071719154264" lon="15.320386045119047"><ele>53.0</ele><time>2026-03-27T15:10:11.999Z</time></trkpt><trkpt lat="37.8928705867805" lon="15.320174884833305"><ele>53.0</ele><time>2026-03-27T15:10:12.999Z</time></trkpt><trkpt lat="37.89266781770638" lon="15.31996321269466"><ele>49.5</ele><time>2026-03-27T15:10:13.999Z</time></trkpt><trkpt lat="37.892464778831354" lon="15.319751596147709"><ele>46.0</ele><time>2026-03-27T15:10:14.999Z</time></trkpt><trkpt lat="37.89226061276623" lon="15.319541426591194"><ele>46.0</ele><time>2026-03-27T15:10:15.999Z</time></trkpt><trkpt lat="37.89205486265216" lon="15.319326118566455"><ele>46.0</ele><time>2026-03-27T15:10:16.999Z</time></trkpt><trkpt lat="37.89183933743073" lon="15.319097206688024"><ele>54.5</ele><time>2026-03-27T15:10:17.999Z</time></trkpt><trkpt lat="37.8916277334415" lon="15.318866100882747"><ele>63.0</ele><time>2026-03-27T15:10:18.999Z</time></trkpt><trkpt lat="37.891427752406464" lon="15.318657920234536"><ele>63.0</ele><time>2026-03-27T15:10:19.999Z</time></trkpt><trkpt lat="37.891225633466085" lon="15.31844930433624"><ele>63.0</ele><time>2026-03-27T15:10:20.999Z</time></trkpt><trkpt lat="37.891014091462296" lon="15.318225796092905"><ele>57.5</ele><time>2026-03-27T15:10:21.999Z</time></trkpt><trkpt lat="37.89079312695005" lon="15.318020538979706"><ele>52.0</ele><time>2026-03-27T15:10:22.999Z</time></trkpt><trkpt lat="37.89061166172167" lon="15.317820385746012"><ele>52.0</ele><time>2026-03-27T15:10:23.999Z</time></trkpt><trkpt lat="37.890409660360135" lon="15.31760554577365"><ele>52.0</ele><time>2026-03-27T15:10:24.999Z</time></trkpt><trkpt lat="37.890210056407774" lon="15.31739178986769"><ele>52.0</ele><time>2026-03-27T15:10:25.999Z</time></trkpt><trkpt lat="37.890013615034455" lon="15.317173140109922"><ele>52.0</ele><time>2026-03-27T15:10:26.999Z</time></trkpt><trkpt lat="37.889820196935126" lon="15.316946659083735"><ele>52.0</ele><time>2026-03-27T15:10:27.999Z</time></trkpt><trkpt lat="37.889637001345434" lon="15.316713182105339"><ele>52.0</ele><time>2026-03-27T15:10:29Z</time></trkpt><trkpt lat="37.889460314921884" lon="15.316468898303189"><ele>53.5</ele><time>2026-03-27T15:10:30Z</time></trkpt><trkpt lat="37.889289765980344" lon="15.316214303305868"><ele>55.0</ele><time>2026-03-27T15:10:31Z</time></trkpt><trkpt lat="37.889126050253886" lon="15.315958201182703"><ele>55.0</ele><time>2026-03-27T15:10:32Z</time></trkpt><trkpt lat="37.888969123543525" lon="15.315696549066876"><ele>55.0</ele><time>2026-03-27T15:10:33Z</time></trkpt><trkpt lat="37.888813067843515" lon="15.315435829794284"><ele>59.0</ele><time>2026-03-27T15:10:34Z</time></trkpt><trkpt lat="37.88866650955612" lon="15.315166794526853"><ele>63.0</ele><time>2026-03-27T15:10:35Z</time></trkpt><trkpt lat="37.88852266575351" lon="15.314892592983522"><ele>51.5</ele><time>2026-03-27T15:10:36Z</time></trkpt><trkpt lat="37.88837643717649" lon="15.314620143983484"><ele>40.0</ele><time>2026-03-27T15:10:37Z</time></trkpt><trkpt lat="37.88822739662137" lon="15.314353887685103"><ele>40.0</ele><time>2026-03-27T15:10:38Z</time></trkpt><trkpt lat="37.88807793642776" lon="15.314091203777224"><ele>40.0</ele><time>2026-03-27T15:10:39Z</time></trkpt><trkpt lat="37.887928586545236" lon="15.313828181327489"><ele>48.0</ele><time>2026-03-27T15:10:40Z</time></trkpt><trkpt lat="37.88777851623038" lon="15.313567869583208"><ele>56.0</ele><time>2026-03-27T15:10:41Z</time></trkpt><trkpt lat="37.887624306362596" lon="15.313312604408608"><ele>61.0</ele><time>2026-03-27T15:10:42Z</time></trkpt><trkpt lat="37.88746441827653" lon="15.3130675912361"><ele>66.0</ele><time>2026-03-27T15:10:43Z</time></trkpt><trkpt lat="37.88729161483231" lon="15.312832731663384"><ele>66.0</ele><time>2026-03-27T15:10:44Z</time></trkpt><trkpt lat="37.88710921795013" lon="15.312608123693801"><ele>66.0</ele><time>2026-03-27T15:10:45Z</time></trkpt><trkpt lat="37.88692369440407" lon="15.312390091494832"><ele>68.5</ele><time>2026-03-27T15:10:46Z</time></trkpt><trkpt lat="37.886736289703826" lon="15.312175953497869"><ele>71.0</ele><time>2026-03-27T15:10:47Z</time></trkpt><trkpt lat="37.88654771854592" lon="15.311961191679952"><ele>71.0</ele><time>2026-03-27T15:10:48Z</time></trkpt><trkpt lat="37.886365884351605" lon="15.31174112666439"><ele>71.0</ele><time>2026-03-27T15:10:49Z</time></trkpt><trkpt lat="37.886186830992436" lon="15.311519703958446"><ele>68.0</ele><time>2026-03-27T15:10:50Z</time></trkpt><trkpt lat="37.88600557176585" lon="15.311298676798014"><ele>65.0</ele><time>2026-03-27T15:10:51Z</time></trkpt><trkpt lat="37.88582322799917" lon="15.31108015355852"><ele>65.0</ele><time>2026-03-27T15:10:52Z</time></trkpt><trkpt lat="37.88563977278803" lon="15.310863435145956"><ele>65.0</ele><time>2026-03-27T15:10:53Z</time></trkpt><trkpt lat="37.88545506894391" lon="15.310647832198162"><ele>62.5</ele><time>2026-03-27T15:10:54Z</time></trkpt><trkpt lat="37.88526706199216" lon="15.310436546162238"><ele>60.0</ele><time>2026-03-27T15:10:55Z</time></trkpt><trkpt lat="37.88507769238329" lon="15.310224204832"><ele>60.0</ele><time>2026-03-27T15:10:56Z</time></trkpt><trkpt lat="37.88488878844469" lon="15.310008081817504"><ele>60.0</ele><time>2026-03-27T15:10:57Z</time></trkpt><trkpt lat="37.884703520825475" lon="15.309791495843674"><ele>70.5</ele><time>2026-03-27T15:10:58Z</time></trkpt><trkpt lat="37.88451663562271" lon="15.309576557345913"><ele>81.0</ele><time>2026-03-27T15:10:59Z</time></trkpt><trkpt lat="37.88432629386045" lon="15.309362568919644"><ele>66.5</ele><time>2026-03-27T15:11:00Z</time></trkpt><trkpt lat="37.88413495666477" lon="15.309148190861713"><ele>52.0</ele><time>2026-03-27T15:11:01Z</time></trkpt><trkpt lat="37.88394502833986" lon="15.308930566450057"><ele>52.0</ele><time>2026-03-27T15:11:02Z</time></trkpt><trkpt lat="37.88375575759127" lon="15.308710442665646"><ele>52.0</ele><time>2026-03-27T15:11:03Z</time></trkpt><trkpt lat="37.883564735403404" lon="15.308486175228644"><ele>45.0</ele><time>2026-03-27T15:11:04Z</time></trkpt><trkpt lat="37.883380798989975" lon="15.30826460625216"><ele>38.0</ele><time>2026-03-27T15:11:05Z</time></trkpt><trkpt lat="37.88320593800921" lon="15.30805641224318"><ele>53.5</ele><time>2026-03-27T15:11:06Z</time></trkpt><trkpt lat="37.88304431426137" lon="15.307848388200545"><ele>69.0</ele><time>2026-03-27T15:11:07Z</time></trkpt><trkpt lat="37.88289217044281" lon="15.307623559561058"><ele>69.0</ele><time>2026-03-27T15:11:08Z</time></trkpt><trkpt lat="37.88275262465183" lon="15.307386944245991"><ele>69.0</ele><time>2026-03-27T15:11:09Z</time></trkpt><trkpt lat="37.88261860083162" lon="15.307138695638702"><ele>64.5</ele><time>2026-03-27T15:11:10Z</time></trkpt><trkpt lat="37.88249951765418" lon="15.306876453804026"><ele>60.0</ele><time>2026-03-27T15:11:11Z</time></trkpt><trkpt lat="37.88236638338261" lon="15.306609763162239"><ele>55.5</ele><time>2026-03-27T15:11:12Z</time></trkpt><trkpt lat="37.8822457380349" lon="15.306337745463184"><ele>51.0</ele><time>2026-03-27T15:11:13Z</time></trkpt><trkpt lat="37.88212104941678" lon="15.306064009599815"><ele>51.0</ele><time>2026-03-27T15:11:14Z</time></trkpt><trkpt lat="37.88199487382996" lon="15.305797145102492"><ele>51.0</ele><time>2026-03-27T15:11:15Z</time></trkpt><trkpt lat="37.88186797237056" lon="15.305531311846329"><ele>38.0</ele><time>2026-03-27T15:11:16Z</time></trkpt><trkpt lat="37.88174177685898" lon="15.305271364122666"><ele>25.0</ele><time>2026-03-27T15:11:17Z</time></trkpt><trkpt lat="37.88160581484246" lon="15.305019448644423"><ele>25.0</ele><time>2026-03-27T15:11:18Z</time></trkpt><trkpt lat="37.88145789707337" lon="15.304782972605752"><ele>25.0</ele><time>2026-03-27T15:11:19Z</time></trkpt><trkpt lat="37.881301061741624" lon="15.304555566965714"><ele>29.0</ele><time>2026-03-27T15:11:20Z</time></trkpt><trkpt lat="37.88113675960554" lon="15.30433843039716"><ele>33.0</ele><time>2026-03-27T15:11:21Z</time></trkpt><trkpt lat="37.88096034419092" lon="15.304129073711609"><ele>33.0</ele><time>2026-03-27T15:11:22Z</time></trkpt><trkpt lat="37.880778452940376" lon="15.303928844112775"><ele>33.0</ele><time>2026-03-27T15:11:23Z</time></trkpt><trkpt lat="37.880590636734034" lon="15.303743420213106"><ele>26.5</ele><time>2026-03-27T15:11:24Z</time></trkpt><trkpt lat="37.880389697241704" lon="15.303568773722699"><ele>20.0</ele><time>2026-03-27T15:11:25Z</time></trkpt><trkpt lat="37.88018336667092" lon="15.303411742565126"><ele>22.5</ele><time>2026-03-27T15:11:26Z</time></trkpt><trkpt lat="37.8799687715413" lon="15.303268717637298"><ele>25.0</ele><time>2026-03-27T15:11:27Z</time></trkpt><trkpt lat="37.87974297687689" lon="15.303141625825385"><ele>25.0</ele><time>2026-03-27T15:11:28Z</time></trkpt><trkpt lat="37.87951769807106" lon="15.303030225517247"><ele>25.0</ele><time>2026-03-27T15:11:29Z</time></trkpt><trkpt lat="37.87928699089208" lon="15.30292151920886"><ele>31.5</ele><time>2026-03-27T15:11:30Z</time></trkpt><trkpt lat="37.879052335413505" lon="15.302816714803399"><ele>38.0</ele><time>2026-03-27T15:11:31Z</time></trkpt><trkpt lat="37.87881753796881" lon="15.302714954230005"><ele>38.0</ele><time>2026-03-27T15:11:32Z</time></trkpt><trkpt lat="37.878575139396716" lon="15.302610376508675"><ele>38.0</ele><time>2026-03-27T15:11:33Z</time></trkpt><trkpt lat="37.87833420378748" lon="15.302498904903967"><ele>38.0</ele><time>2026-03-27T15:11:34Z</time></trkpt><trkpt lat="37.87809258488613" lon="15.3023853785288"><ele>38.0</ele><time>2026-03-27T15:11:35Z</time></trkpt><trkpt lat="37.87784819276554" lon="15.302273245438442"><ele>45.5</ele><time>2026-03-27T15:11:36Z</time></trkpt><trkpt lat="37.87760194186599" lon="15.302159702745469"><ele>53.0</ele><time>2026-03-27T15:11:37Z</time></trkpt><trkpt lat="37.87735561186376" lon="15.3020437533235"><ele>53.0</ele><time>2026-03-27T15:11:38Z</time></trkpt><trkpt lat="37.87710814537985" lon="15.301931272811217"><ele>53.0</ele><time>2026-03-27T15:11:39Z</time></trkpt><trkpt lat="37.87685505507163" lon="15.301819543139917"><ele>40.0</ele><time>2026-03-27T15:11:40Z</time></trkpt><trkpt lat="37.87659993702599" lon="15.301708465568218"><ele>27.0</ele><time>2026-03-27T15:11:41Z</time></trkpt><trkpt lat="37.87634436842583" lon="15.30159355604086"><ele>27.0</ele><time>2026-03-27T15:11:42Z</time></trkpt><trkpt lat="37.87608665319444" lon="15.301479874441776"><ele>27.0</ele><time>2026-03-27T15:11:43Z</time></trkpt><trkpt lat="37.87583252086129" lon="15.301371326705661"><ele>36.0</ele><time>2026-03-27T15:11:44Z</time></trkpt><trkpt lat="37.87557735676861" lon="15.301266732986031"><ele>45.0</ele><time>2026-03-27T15:11:45Z</time></trkpt><trkpt lat="37.87532378186236" lon="15.30116101160676"><ele>49.5</ele><time>2026-03-27T15:11:46Z</time></trkpt><trkpt lat="37.87507434372586" lon="15.301051560535146"><ele>54.0</ele><time>2026-03-27T15:11:47Z</time></trkpt><trkpt lat="37.87482943501198" lon="15.300937752133725"><ele>54.0</ele><time>2026-03-27T15:11:48Z</time></trkpt><trkpt lat="37.87458683617392" lon="15.300821922633174"><ele>54.0</ele><time>2026-03-27T15:11:49Z</time></trkpt><trkpt lat="37.87434712159612" lon="15.300692424983897"><ele>56.5</ele><time>2026-03-27T15:11:50Z</time></trkpt><trkpt lat="37.87411416345474" lon="15.300552362551317"><ele>59.0</ele><time>2026-03-27T15:11:51Z</time></trkpt><trkpt lat="37.87388075125268" lon="15.300407705365988"><ele>59.0</ele><time>2026-03-27T15:11:52Z</time></trkpt><trkpt lat="37.87365045503616" lon="15.300255944994365"><ele>59.0</ele><time>2026-03-27T15:11:53Z</time></trkpt><trkpt lat="37.873420227266465" lon="15.300099916741386"><ele>44.0</ele><time>2026-03-27T15:11:54Z</time></trkpt><trkpt lat="37.8731923915548" lon="15.299940208664877"><ele>29.0</ele><time>2026-03-27T15:11:55Z</time></trkpt><trkpt lat="37.87295836690329" lon="15.299779283667794"><ele>33.0</ele><time>2026-03-27T15:11:56Z</time></trkpt><trkpt lat="37.87272653885099" lon="15.299621344675959"><ele>37.0</ele><time>2026-03-27T15:11:57Z</time></trkpt><trkpt lat="37.872492675646924" lon="15.299468570729061"><ele>37.0</ele><time>2026-03-27T15:11:58Z</time></trkpt><trkpt lat="37.872257230641054" lon="15.299324744515898"><ele>37.0</ele><time>2026-03-27T15:11:59Z</time></trkpt><trkpt lat="37.872018317375236" lon="15.299189437969176"><ele>37.0</ele><time>2026-03-27T15:12:00Z</time></trkpt><trkpt lat="37.87178019092273" lon="15.299059695927555"><ele>37.0</ele><time>2026-03-27T15:12:01Z</time></trkpt><trkpt lat="37.8715406916575" lon="15.29893185155884"><ele>43.0</ele><time>2026-03-27T15:12:02Z</time></trkpt><trkpt lat="37.87130084177181" lon="15.298811750462528"><ele>49.0</ele><time>2026-03-27T15:12:03Z</time></trkpt><trkpt lat="37.871059353186055" lon="15.298701159845098"><ele>49.5</ele><time>2026-03-27T15:12:04Z</time></trkpt><trkpt lat="37.87082308909644" lon="15.298594263445205"><ele>50.0</ele><time>2026-03-27T15:12:05Z</time></trkpt><trkpt lat="37.8705878156814" lon="15.298492648033617"><ele>50.0</ele><time>2026-03-27T15:12:06Z</time></trkpt><trkpt lat="37.87035275107866" lon="15.298391015125988"><ele>50.0</ele><time>2026-03-27T15:12:07Z</time></trkpt><trkpt lat="37.87011833541363" lon="15.298287629552025"><ele>41.0</ele><time>2026-03-27T15:12:08Z</time></trkpt><trkpt lat="37.86988917774086" lon="15.298184925649956"><ele>32.0</ele><time>2026-03-27T15:12:09Z</time></trkpt><trkpt lat="37.86966194003749" lon="15.298079681363998"><ele>43.5</ele><time>2026-03-27T15:12:10Z</time></trkpt><trkpt lat="37.86943284807396" lon="15.297972353032666"><ele>55.0</ele><time>2026-03-27T15:12:11Z</time></trkpt><trkpt lat="37.869210252701066" lon="15.297861094854222"><ele>55.0</ele><time>2026-03-27T15:12:12Z</time></trkpt><trkpt lat="37.86898956842613" lon="15.297747420871577"><ele>55.0</ele><time>2026-03-27T15:12:13Z</time></trkpt><trkpt lat="37.86877112284324" lon="15.297620747901439"><ele>55.0</ele><time>2026-03-27T15:12:14Z</time></trkpt><trkpt lat="37.868554332491236" lon="15.29749149974852"><ele>55.0</ele><time>2026-03-27T15:12:15Z</time></trkpt><trkpt lat="37.86833648467228" lon="15.29736063783428"><ele>64.5</ele><time>2026-03-27T15:12:16Z</time></trkpt><trkpt lat="37.86811950300143" lon="15.297226030608835"><ele>74.0</ele><time>2026-03-27T15:12:17Z</time></trkpt><trkpt lat="37.86789995126679" lon="15.297090866935632"><ele>74.0</ele><time>2026-03-27T15:12:18Z</time></trkpt><trkpt lat="37.86768843009672" lon="15.296956095240049"><ele>74.0</ele><time>2026-03-27T15:12:19Z</time></trkpt><trkpt lat="37.867477113172235" lon="15.296822324953732"><ele>68.0</ele><time>2026-03-27T15:12:20Z</time></trkpt><trkpt lat="37.867264179215574" lon="15.296686431969714"><ele>62.0</ele><time>2026-03-27T15:12:21Z</time></trkpt><trkpt lat="37.86704638474933" lon="15.296553058511616"><ele>62.0</ele><time>2026-03-27T15:12:22Z</time></trkpt><trkpt lat="37.866832447934335" lon="15.296420646734546"><ele>62.0</ele><time>2026-03-27T15:12:23Z</time></trkpt><trkpt lat="37.86661632416575" lon="15.296290652720959"><ele>60.0</ele><time>2026-03-27T15:12:24Z</time></trkpt><trkpt lat="37.86639815959518" lon="15.296164512329351"><ele>58.0</ele><time>2026-03-27T15:12:25Z</time></trkpt><trkpt lat="37.866175924014144" lon="15.296044777894503"><ele>58.0</ele><time>2026-03-27T15:12:26Z</time></trkpt><trkpt lat="37.86595551676465" lon="15.295925193999688"><ele>58.0</ele><time>2026-03-27T15:12:27Z</time></trkpt><trkpt lat="37.865733535732566" lon="15.295805785982921"><ele>55.5</ele><time>2026-03-27T15:12:28Z</time></trkpt><trkpt lat="37.86551240858223" lon="15.295684141696578"><ele>53.0</ele><time>2026-03-27T15:12:29Z</time></trkpt><trkpt lat="37.865291240788274" lon="15.295569790676277"><ele>62.0</ele><time>2026-03-27T15:12:30Z</time></trkpt><trkpt lat="37.86506886541376" lon="15.29545536699219"><ele>71.0</ele><time>2026-03-27T15:12:31Z</time></trkpt><trkpt lat="37.86484570619061" lon="15.295341349795747"><ele>71.0</ele><time>2026-03-27T15:12:32Z</time></trkpt><trkpt lat="37.864624656493554" lon="15.295227551063347"><ele>71.0</ele><time>2026-03-27T15:12:32.999Z</time></trkpt><trkpt lat="37.864406421108605" lon="15.2951143832928"><ele>61.0</ele><time>2026-03-27T15:12:33.999Z</time></trkpt><trkpt lat="37.86418595935875" lon="15.295002777853432"><ele>51.0</ele><time>2026-03-27T15:12:35Z</time></trkpt><trkpt lat="37.86396914077439" lon="15.294892606035136"><ele>51.0</ele><time>2026-03-27T15:12:36Z</time></trkpt><trkpt lat="37.86375351044286" lon="15.294778690723357"><ele>51.0</ele><time>2026-03-27T15:12:37Z</time></trkpt><trkpt lat="37.86354057373006" lon="15.294670451787098"><ele>61.0</ele><time>2026-03-27T15:12:38Z</time></trkpt><trkpt lat="37.86332356107741" lon="15.294563013171636"><ele>71.0</ele><time>2026-03-27T15:12:39Z</time></trkpt><trkpt lat="37.8631057157867" lon="15.294453280960528"><ele>71.0</ele><time>2026-03-27T15:12:40Z</time></trkpt><trkpt lat="37.8628889665864" lon="15.294344429086639"><ele>71.0</ele><time>2026-03-27T15:12:41Z</time></trkpt><trkpt lat="37.86267680985654" lon="15.294234491494176"><ele>78.5</ele><time>2026-03-27T15:12:42Z</time></trkpt><trkpt lat="37.86246798227899" lon="15.29412285927859"><ele>86.0</ele><time>2026-03-27T15:12:43Z</time></trkpt><trkpt lat="37.8622614356268" lon="15.294011800673873"><ele>89.0</ele><time>2026-03-27T15:12:44Z</time></trkpt><trkpt lat="37.86205662829451" lon="15.293899094000063"><ele>92.0</ele><time>2026-03-27T15:12:45Z</time></trkpt><trkpt lat="37.8618433777455" lon="15.293785642421145"><ele>75.0</ele><time>2026-03-27T15:12:46Z</time></trkpt><trkpt lat="37.86157331853707" lon="15.293663817792593"><ele>58.0</ele><time>2026-03-27T15:12:47Z</time></trkpt><trkpt lat="37.861342211670255" lon="15.293535200808803"><ele>58.0</ele><time>2026-03-27T15:12:48Z</time></trkpt><trkpt lat="37.86111439216915" lon="15.293409398822961"><ele>58.0</ele><time>2026-03-27T15:12:49Z</time></trkpt><trkpt lat="37.86089181262436" lon="15.293274898978488"><ele>57.5</ele><time>2026-03-27T15:12:50Z</time></trkpt><trkpt lat="37.86067580582838" lon="15.293135951914783"><ele>57.0</ele><time>2026-03-27T15:12:51Z</time></trkpt><trkpt lat="37.86046130254269" lon="15.292984627725728"><ele>57.0</ele><time>2026-03-27T15:12:52Z</time></trkpt><trkpt lat="37.86025181051279" lon="15.292826401020676"><ele>57.0</ele><time>2026-03-27T15:12:53Z</time></trkpt><trkpt lat="37.86004613584102" lon="15.292657730133703"><ele>62.5</ele><time>2026-03-27T15:12:54Z</time></trkpt><trkpt lat="37.85984604163229" lon="15.292486144055653"><ele>68.0</ele><time>2026-03-27T15:12:55Z</time></trkpt><trkpt lat="37.859649830828864" lon="15.292306033867566"><ele>74.0</ele><time>2026-03-27T15:12:56Z</time></trkpt><trkpt lat="37.85945775454802" lon="15.292125262398486"><ele>80.0</ele><time>2026-03-27T15:12:57Z</time></trkpt><trkpt lat="37.85926447442883" lon="15.291937476561165"><ele>80.0</ele><time>2026-03-27T15:12:58Z</time></trkpt><trkpt lat="37.859079649992964" lon="15.291743747659623"><ele>80.0</ele><time>2026-03-27T15:12:59Z</time></trkpt><trkpt lat="37.85889823721185" lon="15.291543594407933"><ele>91.5</ele><time>2026-03-27T15:13:00Z</time></trkpt><trkpt lat="37.85872327201704" lon="15.291334048095134"><ele>103.0</ele><time>2026-03-27T15:13:01Z</time></trkpt><trkpt lat="37.85855257839095" lon="15.291121252652397"><ele>102.5</ele><time>2026-03-27T15:13:02Z</time></trkpt><trkpt lat="37.858389383767104" lon="15.290896953382417"><ele>102.0</ele><time>2026-03-27T15:13:03Z</time></trkpt><trkpt lat="37.858234990447436" lon="15.290666148560607"><ele>110.0</ele><time>2026-03-27T15:13:04Z</time></trkpt><trkpt lat="37.85808072306606" lon="15.29043084801116"><ele>118.0</ele><time>2026-03-27T15:13:05Z</time></trkpt><trkpt lat="37.85792662676195" lon="15.290197363307302"><ele>118.0</ele><time>2026-03-27T15:13:06Z</time></trkpt><trkpt lat="37.85776816037056" lon="15.289958875594795"><ele>118.0</ele><time>2026-03-27T15:13:07Z</time></trkpt><trkpt lat="37.85759356586716" lon="15.28971154814184"><ele>134.0</ele><time>2026-03-27T15:13:08Z</time></trkpt><trkpt lat="37.857431343772106" lon="15.2894725121709"><ele>150.0</ele><time>2026-03-27T15:13:09Z</time></trkpt><trkpt lat="37.857260626246784" lon="15.289209249630193"><ele>150.0</ele><time>2026-03-27T15:13:10Z</time></trkpt><trkpt lat="37.857084011122176" lon="15.288935001367587"><ele>150.0</ele><time>2026-03-27T15:13:11Z</time></trkpt><trkpt lat="37.856915039713165" lon="15.288676522579012"><ele>163.0</ele><time>2026-03-27T15:13:12Z</time></trkpt><trkpt lat="37.8567468925224" lon="15.288406047930865"><ele>176.0</ele><time>2026-03-27T15:13:13Z</time></trkpt><trkpt lat="37.856633147770204" lon="15.288130252398037"><ele>177.0</ele><time>2026-03-27T15:13:14Z</time></trkpt><trkpt lat="37.856521969908385" lon="15.287832701554057"><ele>178.0</ele><time>2026-03-27T15:13:15Z</time></trkpt><trkpt lat="37.85641520797508" lon="15.287528682052315"><ele>191.0</ele><time>2026-03-27T15:13:16Z</time></trkpt><trkpt lat="37.8563046501374" lon="15.287212250810969"><ele>204.0</ele><time>2026-03-27T15:13:17Z</time></trkpt><trkpt lat="37.856383596250346" lon="15.286818382448963"><ele>204.0</ele><time>2026-03-27T15:13:18Z</time></trkpt><trkpt lat="37.856262720282835" lon="15.28651720885029"><ele>204.0</ele><time>2026-03-27T15:13:19Z</time></trkpt><trkpt lat="37.85614028362759" lon="15.286220233210157"><ele>218.0</ele><time>2026-03-27T15:13:20Z</time></trkpt><trkpt lat="37.856015836143314" lon="15.285923278916789"><ele>232.0</ele><time>2026-03-27T15:13:21Z</time></trkpt><trkpt lat="37.85589210275544" lon="15.285625783380894"><ele>264.0</ele><time>2026-03-27T15:13:22Z</time></trkpt><trkpt lat="37.855766353838895" lon="15.285330214270001"><ele>296.0</ele><time>2026-03-27T15:13:23Z</time></trkpt><trkpt lat="37.85564543613653" lon="15.285032334629568"><ele>302.0</ele><time>2026-03-27T15:13:24Z</time></trkpt><trkpt lat="37.85551941838917" lon="15.284733791015327"><ele>308.0</ele><time>2026-03-27T15:13:25Z</time></trkpt><trkpt lat="37.85539410853902" lon="15.284431329847619"><ele>308.0</ele><time>2026-03-27T15:13:26Z</time></trkpt><trkpt lat="37.855267723786774" lon="15.284129525924723"><ele>308.0</ele><time>2026-03-27T15:13:27Z</time></trkpt><trkpt lat="37.85513913844144" lon="15.283821997793705"><ele>325.0</ele><time>2026-03-27T15:13:28Z</time></trkpt><trkpt lat="37.855007288866545" lon="15.283513136484663"><ele>342.0</ele><time>2026-03-27T15:13:29Z</time></trkpt><trkpt lat="37.854872609829066" lon="15.28319496639073"><ele>336.0</ele><time>2026-03-27T15:13:30Z</time></trkpt><trkpt lat="37.85473877037037" lon="15.28287745163739"><ele>330.0</ele><time>2026-03-27T15:13:31Z</time></trkpt><trkpt lat="37.854604681587574" lon="15.282559519634242"><ele>324.0</ele><time>2026-03-27T15:13:32Z</time></trkpt><trkpt lat="37.85446380096535" lon="15.282243388313983"><ele>318.0</ele><time>2026-03-27T15:13:33Z</time></trkpt><trkpt lat="37.85432040044526" lon="15.281917255333932"><ele>301.0</ele><time>2026-03-27T15:13:34Z</time></trkpt><trkpt lat="37.854173824029154" lon="15.281600965587353"><ele>284.0</ele><time>2026-03-27T15:13:35Z</time></trkpt><trkpt lat="37.85403096783375" lon="15.281307213546677"><ele>280.0</ele><time>2026-03-27T15:13:36Z</time></trkpt><trkpt lat="37.85389069341144" lon="15.281036281583125"><ele>276.0</ele><time>2026-03-27T15:13:37Z</time></trkpt><trkpt lat="37.853759830590874" lon="15.280811706475996"><ele>275.5</ele><time>2026-03-27T15:13:38Z</time></trkpt><trkpt lat="37.85361715895755" lon="15.280553268397387"><ele>275.0</ele><time>2026-03-27T15:13:39Z</time></trkpt><trkpt lat="37.85346690714302" lon="15.280264334313056"><ele>267.5</ele><time>2026-03-27T15:13:40Z</time></trkpt><trkpt lat="37.85330764609481" lon="15.27996241356939"><ele>260.0</ele><time>2026-03-27T15:13:41.014Z</time></trkpt><trkpt lat="37.85199256371401" lon="15.278015215420963"><ele>170.0</ele><time>2026-03-27T15:13:44.095Z</time></trkpt><trkpt lat="37.85151213929416" lon="15.2773358883629"><ele>130.0</ele><time>2026-03-27T15:13:45.097Z</time></trkpt><trkpt lat="37.85101592048976" lon="15.276676688317764"><ele>78.0</ele><time>2026-03-27T15:13:46.097Z</time></trkpt><trkpt lat="37.85049895265902" lon="15.276042592469956"><ele>78.0</ele><time>2026-03-27T15:14:00Z</time></trkpt><trkpt lat="37.850327158822985" lon="15.275805287146419"><ele>78.0</ele><time>2026-03-27T15:14:01Z</time></trkpt><trkpt lat="37.850162350313475" lon="15.275607852720016"><ele>79.5</ele><time>2026-03-27T15:14:02Z</time></trkpt><trkpt lat="37.84999816284604" lon="15.275406892354328"><ele>81.0</ele><time>2026-03-27T15:14:03Z</time></trkpt><trkpt lat="37.849827875322276" lon="15.27521673909713"><ele>81.0</ele><time>2026-03-27T15:14:04Z</time></trkpt><trkpt lat="37.849662868321076" lon="15.275032538287348"><ele>81.0</ele><time>2026-03-27T15:14:05Z</time></trkpt><trkpt lat="37.849493260803094" lon="15.274854336470892"><ele>81.0</ele><time>2026-03-27T15:14:06Z</time></trkpt><trkpt lat="37.84932605589267" lon="15.274677820792318"><ele>90.66666666666666</ele><time>2026-03-27T15:14:07Z</time></trkpt><trkpt lat="37.8491560672527" lon="15.27449829871633"><ele>100.33333333333333</ele><time>2026-03-27T15:14:08Z</time></trkpt><trkpt lat="37.84898553272479" lon="15.274319065475225"><ele>110.0</ele><time>2026-03-27T15:14:09Z</time></trkpt><trkpt lat="37.8488095264068" lon="15.274143002574986"><ele>110.0</ele><time>2026-03-27T15:14:10Z</time></trkpt><trkpt lat="37.848633269072884" lon="15.273967941680052"><ele>110.0</ele><time>2026-03-27T15:14:11Z</time></trkpt><trkpt lat="37.84845051258786" lon="15.273791712606581"><ele>113.5</ele><time>2026-03-27T15:14:12Z</time></trkpt><trkpt lat="37.84826333008445" lon="15.273613976577797"><ele>117.0</ele><time>2026-03-27T15:14:13Z</time></trkpt><trkpt lat="37.84807367577113" lon="15.273436753390696"><ele>117.0</ele><time>2026-03-27T15:14:14Z</time></trkpt><trkpt lat="37.84787870592453" lon="15.27325995919981"><ele>117.0</ele><time>2026-03-27T15:14:15Z</time></trkpt><trkpt lat="37.847678723216795" lon="15.27308423573085"><ele>112.0</ele><time>2026-03-27T15:14:16Z</time></trkpt><trkpt lat="37.84747208823821" lon="15.272910748480095"><ele>107.0</ele><time>2026-03-27T15:14:17Z</time></trkpt><trkpt lat="37.847262730280065" lon="15.272739135651378"><ele>107.0</ele><time>2026-03-27T15:14:18Z</time></trkpt><trkpt lat="37.84705183303856" lon="15.272569507760803"><ele>107.0</ele><time>2026-03-27T15:14:19Z</time></trkpt><trkpt lat="37.846837674553356" lon="15.272399624121514"><ele>126.0</ele><time>2026-03-27T15:14:20Z</time></trkpt><trkpt lat="37.846622345501764" lon="15.272224704263134"><ele>145.0</ele><time>2026-03-27T15:14:21Z</time></trkpt><trkpt lat="37.84640388892108" lon="15.27204842062826"><ele>145.0</ele><time>2026-03-27T15:14:22Z</time></trkpt><trkpt lat="37.84618314644859" lon="15.271872750801558"><ele>145.0</ele><time>2026-03-27T15:14:23Z</time></trkpt><trkpt lat="37.84595937736697" lon="15.271696250695031"><ele>165.5</ele><time>2026-03-27T15:14:24Z</time></trkpt><trkpt lat="37.84573184032088" lon="15.27152087414022"><ele>186.0</ele><time>2026-03-27T15:14:25Z</time></trkpt><trkpt lat="37.8455001067667" lon="15.271347299627887"><ele>184.5</ele><time>2026-03-27T15:14:26Z</time></trkpt><trkpt lat="37.84526544226268" lon="15.271171062769948"><ele>183.0</ele><time>2026-03-27T15:14:27Z</time></trkpt><trkpt lat="37.845032585985436" lon="15.270995461648168"><ele>183.0</ele><time>2026-03-27T15:14:28Z</time></trkpt><trkpt lat="37.84480023194316" lon="15.270850341155791"><ele>183.0</ele><time>2026-03-27T15:14:29Z</time></trkpt><trkpt lat="37.84457424189188" lon="15.270697242239455"><ele>183.0</ele><time>2026-03-27T15:14:30Z</time></trkpt><trkpt lat="37.84437546883303" lon="15.270635235488491"><ele>183.0</ele><time>2026-03-27T15:14:31Z</time></trkpt><trkpt lat="37.84417613243885" lon="15.27050087578579"><ele>183.0</ele><time>2026-03-27T15:14:32Z</time></trkpt><trkpt lat="37.8439823349094" lon="15.270366659363171"><ele>179.5</ele><time>2026-03-27T15:14:33Z</time></trkpt><trkpt lat="37.84378486905097" lon="15.270231378657408"><ele>176.0</ele><time>2026-03-27T15:14:34Z</time></trkpt><trkpt lat="37.84358083478581" lon="15.270091365804126"><ele>162.0</ele><time>2026-03-27T15:14:35Z</time></trkpt><trkpt lat="37.843376273977306" lon="15.269949613558476"><ele>148.0</ele><time>2026-03-27T15:14:36Z</time></trkpt><trkpt lat="37.84317204273856" lon="15.26981247705181"><ele>140.5</ele><time>2026-03-27T15:14:37Z</time></trkpt><trkpt lat="37.84297102728991" lon="15.269670593713316"><ele>133.0</ele><time>2026-03-27T15:14:38Z</time></trkpt><trkpt lat="37.84276833788866" lon="15.269530152993323"><ele>121.0</ele><time>2026-03-27T15:14:39Z</time></trkpt><trkpt lat="37.84256039635716" lon="15.269388849806631"><ele>109.0</ele><time>2026-03-27T15:14:40Z</time></trkpt><trkpt lat="37.84235149710763" lon="15.269244173335519"><ele>109.0</ele><time>2026-03-27T15:14:41Z</time></trkpt><trkpt lat="37.84219016010327" lon="15.269143773925258"><ele>109.0</ele><time>2026-03-27T15:14:42Z</time></trkpt><trkpt lat="37.84192612248025" lon="15.268979703322412"><ele>108.0</ele><time>2026-03-27T15:14:43Z</time></trkpt><trkpt lat="37.84169888306646" lon="15.268800007577092"><ele>107.0</ele><time>2026-03-27T15:14:44Z</time></trkpt><trkpt lat="37.84149143268638" lon="15.268614187151494"><ele>107.0</ele><time>2026-03-27T15:14:45Z</time></trkpt><trkpt lat="37.84129468721637" lon="15.268423832434879"><ele>107.0</ele><time>2026-03-27T15:14:46Z</time></trkpt><trkpt lat="37.84114105147551" lon="15.268202663581086"><ele>112.5</ele><time>2026-03-27T15:14:47Z</time></trkpt><trkpt lat="37.840967370730255" lon="15.267993782034106"><ele>118.0</ele><time>2026-03-27T15:14:48Z</time></trkpt><trkpt lat="37.84079436991979" lon="15.267769656755789"><ele>104.5</ele><time>2026-03-27T15:14:49Z</time></trkpt><trkpt lat="37.840633848959456" lon="15.267529550884442"><ele>91.0</ele><time>2026-03-27T15:14:50Z</time></trkpt><trkpt lat="37.84048195709169" lon="15.267271857615473"><ele>85.5</ele><time>2026-03-27T15:14:51Z</time></trkpt><trkpt lat="37.84034299218304" lon="15.26700808830881"><ele>80.0</ele><time>2026-03-27T15:14:52Z</time></trkpt><trkpt lat="37.84021779922083" lon="15.266738030882175"><ele>68.5</ele><time>2026-03-27T15:14:53Z</time></trkpt><trkpt lat="37.84010398217039" lon="15.266454979164175"><ele>57.0</ele><time>2026-03-27T15:14:54Z</time></trkpt><trkpt lat="37.84000335629393" lon="15.266167977563619"><ele>51.5</ele><time>2026-03-27T15:14:55Z</time></trkpt><trkpt lat="37.83991883820805" lon="15.265883155753166"><ele>46.0</ele><time>2026-03-27T15:14:56Z</time></trkpt><trkpt lat="37.83984193495268" lon="15.265591555085582"><ele>59.5</ele><time>2026-03-27T15:14:57Z</time></trkpt><trkpt lat="37.83977885227479" lon="15.265296370167338"><ele>73.0</ele><time>2026-03-27T15:14:58Z</time></trkpt><trkpt lat="37.83972433396074" lon="15.264996416254936"><ele>82.0</ele><time>2026-03-27T15:14:59Z</time></trkpt><trkpt lat="37.839681275638284" lon="15.264701280987108"><ele>91.0</ele><time>2026-03-27T15:15:00Z</time></trkpt><trkpt lat="37.83964911840969" lon="15.264417275384856"><ele>91.0</ele><time>2026-03-27T15:15:01Z</time></trkpt><trkpt lat="37.83962181374269" lon="15.264145087357393"><ele>91.0</ele><time>2026-03-27T15:15:02Z</time></trkpt><trkpt lat="37.839593003240424" lon="15.26387757549835"><ele>91.0</ele><time>2026-03-27T15:15:03Z</time></trkpt><trkpt lat="37.83956248849244" lon="15.263612093871323"><ele>92.33333333333333</ele><time>2026-03-27T15:15:04Z</time></trkpt><trkpt lat="37.83952682752123" lon="15.26334676601658"><ele>93.66666666666667</ele><time>2026-03-27T15:15:05Z</time></trkpt><trkpt lat="37.83949177585052" lon="15.263078793887153"><ele>95.0</ele><time>2026-03-27T15:15:06Z</time></trkpt><trkpt lat="37.839455023359946" lon="15.262813833765218"><ele>90.66666666666667</ele><time>2026-03-27T15:15:07Z</time></trkpt><trkpt lat="37.83940986977403" lon="15.262555004845227"><ele>86.33333333333333</ele><time>2026-03-27T15:15:08Z</time></trkpt><trkpt lat="37.83935387094394" lon="15.262296532133721"><ele>82.0</ele><time>2026-03-27T15:15:09Z</time></trkpt><trkpt lat="37.83928557907295" lon="15.262032346659707"><ele>72.0</ele><time>2026-03-27T15:15:10Z</time></trkpt><trkpt lat="37.83920213552125" lon="15.261769329391766"><ele>62.0</ele><time>2026-03-27T15:15:11Z</time></trkpt><trkpt lat="37.83910719836965" lon="15.261504322177153"><ele>66.0</ele><time>2026-03-27T15:15:12Z</time></trkpt><trkpt lat="37.839002648998644" lon="15.261243753477055"><ele>70.0</ele><time>2026-03-27T15:15:13Z</time></trkpt><trkpt lat="37.83888627450306" lon="15.260989976634415"><ele>70.0</ele><time>2026-03-27T15:15:14Z</time></trkpt><trkpt lat="37.83876098102496" lon="15.26074018078485"><ele>70.0</ele><time>2026-03-27T15:15:15Z</time></trkpt><trkpt lat="37.838626945905936" lon="15.260498401348599"><ele>70.0</ele><time>2026-03-27T15:15:16Z</time></trkpt><trkpt lat="37.83848272488489" lon="15.260263365741245"><ele>70.0</ele><time>2026-03-27T15:15:17Z</time></trkpt><trkpt lat="37.838328651971636" lon="15.260037864016105"><ele>70.0</ele><time>2026-03-27T15:15:18Z</time></trkpt><trkpt lat="37.8381662435334" lon="15.259824696978267"><ele>70.0</ele><time>2026-03-27T15:15:19Z</time></trkpt><trkpt lat="37.837989055997035" lon="15.25962479228932"><ele>67.5</ele><time>2026-03-27T15:15:20Z</time></trkpt><trkpt lat="37.83780643874157" lon="15.259435025159576"><ele>65.0</ele><time>2026-03-27T15:15:21Z</time></trkpt><trkpt lat="37.837615777426976" lon="15.259260075018393"><ele>65.0</ele><time>2026-03-27T15:15:22Z</time></trkpt><trkpt lat="37.83742407445766" lon="15.259097578298531"><ele>65.0</ele><time>2026-03-27T15:15:23Z</time></trkpt><trkpt lat="37.83723403533705" lon="15.258947221367759"><ele>65.0</ele><time>2026-03-27T15:15:24Z</time></trkpt><trkpt lat="37.83704551729615" lon="15.258805291708812"><ele>65.0</ele><time>2026-03-27T15:15:25Z</time></trkpt><trkpt lat="37.83685288011955" lon="15.258658498206447"><ele>65.0</ele><time>2026-03-27T15:15:26Z</time></trkpt><trkpt lat="37.83667538989774" lon="15.258526778053561"><ele>58.5</ele><time>2026-03-27T15:15:27Z</time></trkpt><trkpt lat="37.83643151538186" lon="15.258331472145565"><ele>52.0</ele><time>2026-03-27T15:15:28Z</time></trkpt><trkpt lat="37.83625307722673" lon="15.258190681514344"><ele>52.33333333333333</ele><time>2026-03-27T15:15:29Z</time></trkpt><trkpt lat="37.83608207230728" lon="15.258054355434728"><ele>52.66666666666667</ele><time>2026-03-27T15:15:30Z</time></trkpt><trkpt lat="37.83591853112771" lon="15.257922250343682"><ele>53.0</ele><time>2026-03-27T15:15:31Z</time></trkpt><trkpt lat="37.835756634177294" lon="15.257780864756215"><ele>54.333333333333336</ele><time>2026-03-27T15:15:32Z</time></trkpt><trkpt lat="37.8355957308717" lon="15.257633794924034"><ele>55.66666666666667</ele><time>2026-03-27T15:15:33Z</time></trkpt><trkpt lat="37.835445450381016" lon="15.257494519638872"><ele>57.0</ele><time>2026-03-27T15:15:34Z</time></trkpt><trkpt lat="37.835308108924025" lon="15.257361978719103"><ele>57.33333333333333</ele><time>2026-03-27T15:15:35Z</time></trkpt><trkpt lat="37.83518189654158" lon="15.257228820880373"><ele>57.666666666666664</ele><time>2026-03-27T15:15:36Z</time></trkpt><trkpt lat="37.83505419629242" lon="15.25709244775845"><ele>58.0</ele><time>2026-03-27T15:15:37Z</time></trkpt><trkpt lat="37.83494125841207" lon="15.256959611731155"><ele>57.599999999999994</ele><time>2026-03-27T15:15:38Z</time></trkpt><trkpt lat="37.834845756671484" lon="15.25684440084292"><ele>57.199999999999996</ele><time>2026-03-27T15:15:39Z</time></trkpt><trkpt lat="37.834766586977615" lon="15.256753054777004"><ele>56.8</ele><time>2026-03-27T15:15:40Z</time></trkpt><trkpt lat="37.834717394478695" lon="15.256683159867471"><ele>56.4</ele><time>2026-03-27T15:15:41Z</time></trkpt><trkpt lat="37.83466847649081" lon="15.25662247867663"><ele>56.0</ele><time>2026-03-27T15:15:43Z</time></trkpt><trkpt lat="37.83457008438006" lon="15.256528998844766"><ele>55.75</ele><time>2026-03-27T15:16:18Z</time></trkpt><trkpt lat="37.83450002884021" lon="15.25645245355773"><ele>55.5</ele><time>2026-03-27T15:16:19Z</time></trkpt><trkpt lat="37.83442060194156" lon="15.256362754993967"><ele>55.25</ele><time>2026-03-27T15:16:20Z</time></trkpt><trkpt lat="37.83432872698842" lon="15.256258457468917"><ele>55.0</ele><time>2026-03-27T15:16:21Z</time></trkpt><trkpt lat="37.834222245638585" lon="15.256143696624207"><ele>54.666666666666664</ele><time>2026-03-27T15:16:22Z</time></trkpt><trkpt lat="37.83410525530011" lon="15.256015733366251"><ele>54.33333333333333</ele><time>2026-03-27T15:16:23Z</time></trkpt><trkpt lat="37.833980220247625" lon="15.25587597843053"><ele>54.0</ele><time>2026-03-27T15:16:24Z</time></trkpt><trkpt lat="37.83384718872285" lon="15.255722897620169"><ele>54.66666666666667</ele><time>2026-03-27T15:16:25Z</time></trkpt><trkpt lat="37.83370561067662" lon="15.255568814308585"><ele>55.333333333333336</ele><time>2026-03-27T15:16:26Z</time></trkpt><trkpt lat="37.83355717387796" lon="15.255406088638763"><ele>56.0</ele><time>2026-03-27T15:16:27Z</time></trkpt><trkpt lat="37.833406184780166" lon="15.255230209077405"><ele>56.0</ele><time>2026-03-27T15:16:28Z</time></trkpt><trkpt lat="37.833243260633644" lon="15.255053091411064"><ele>56.0</ele><time>2026-03-27T15:16:29Z</time></trkpt><trkpt lat="37.83307658178352" lon="15.2548712730021"><ele>56.0</ele><time>2026-03-27T15:16:30Z</time></trkpt><trkpt lat="37.83290602034165" lon="15.254689529406765"><ele>56.0</ele><time>2026-03-27T15:16:31Z</time></trkpt><trkpt lat="37.83272222832508" lon="15.254508509821777"><ele>56.0</ele><time>2026-03-27T15:16:32Z</time></trkpt><trkpt lat="37.83253797319259" lon="15.254323275179964"><ele>56.0</ele><time>2026-03-27T15:16:33Z</time></trkpt><trkpt lat="37.83233970553903" lon="15.254144143639369"><ele>56.0</ele><time>2026-03-27T15:16:34Z</time></trkpt><trkpt lat="37.83214598911375" lon="15.253966359860069"><ele>56.5</ele><time>2026-03-27T15:16:35Z</time></trkpt><trkpt lat="37.83194240568577" lon="15.253788699152546"><ele>57.0</ele><time>2026-03-27T15:16:36Z</time></trkpt><trkpt lat="37.831736275426564" lon="15.253614932328524"><ele>54.0</ele><time>2026-03-27T15:16:37Z</time></trkpt><trkpt lat="37.8315215152159" lon="15.253441807457733"><ele>51.0</ele><time>2026-03-27T15:16:38Z</time></trkpt><trkpt lat="37.83130480887286" lon="15.253269457775529"><ele>49.0</ele><time>2026-03-27T15:16:39Z</time></trkpt><trkpt lat="37.83108589519802" lon="15.253102735073568"><ele>47.0</ele><time>2026-03-27T15:16:40Z</time></trkpt><trkpt lat="37.830863365080134" lon="15.25293735716227"><ele>47.0</ele><time>2026-03-27T15:16:41Z</time></trkpt><trkpt lat="37.830640955893415" lon="15.252772936952157"><ele>47.0</ele><time>2026-03-27T15:16:42Z</time></trkpt><trkpt lat="37.830417098267596" lon="15.252607016943287"><ele>47.0</ele><time>2026-03-27T15:16:43Z</time></trkpt><trkpt lat="37.83019289599946" lon="15.25243593281584"><ele>47.0</ele><time>2026-03-27T15:16:44Z</time></trkpt><trkpt lat="37.82997166945419" lon="15.252267915661411"><ele>47.0</ele><time>2026-03-27T15:16:45Z</time></trkpt><trkpt lat="37.82973993618083" lon="15.252094160204944"><ele>47.0</ele><time>2026-03-27T15:16:46Z</time></trkpt><trkpt lat="37.82950826927289" lon="15.251920940339629"><ele>47.5</ele><time>2026-03-27T15:16:47Z</time></trkpt><trkpt lat="37.82927049921503" lon="15.25174550481989"><ele>48.0</ele><time>2026-03-27T15:16:48Z</time></trkpt><trkpt lat="37.82903148481536" lon="15.251566240996167"><ele>47.5</ele><time>2026-03-27T15:16:49Z</time></trkpt><trkpt lat="37.82879127127618" lon="15.251382641193542"><ele>47.0</ele><time>2026-03-27T15:16:50Z</time></trkpt><trkpt lat="37.82855489726391" lon="15.251201196870797"><ele>50.5</ele><time>2026-03-27T15:16:51Z</time></trkpt><trkpt lat="37.82831990810383" lon="15.251023109427186"><ele>54.0</ele><time>2026-03-27T15:16:52Z</time></trkpt><trkpt lat="37.82809554828708" lon="15.250851985566074"><ele>54.0</ele><time>2026-03-27T15:16:53Z</time></trkpt><trkpt lat="37.82788076982778" lon="15.250682498291763"><ele>54.0</ele><time>2026-03-27T15:16:54Z</time></trkpt><trkpt lat="37.827674157981036" lon="15.250503901016398"><ele>57.5</ele><time>2026-03-27T15:16:55Z</time></trkpt><trkpt lat="37.827466666883474" lon="15.25031300074006"><ele>61.0</ele><time>2026-03-27T15:16:56Z</time></trkpt><trkpt lat="37.82726092275676" lon="15.250112942072157"><ele>61.0</ele><time>2026-03-27T15:16:57Z</time></trkpt><trkpt lat="37.827054842393295" lon="15.249898586055542"><ele>61.0</ele><time>2026-03-27T15:16:58Z</time></trkpt><trkpt lat="37.826850455715764" lon="15.249674906562086"><ele>55.5</ele><time>2026-03-27T15:16:59Z</time></trkpt><trkpt lat="37.82664806177312" lon="15.249439065099782"><ele>50.0</ele><time>2026-03-27T15:17:00Z</time></trkpt><trkpt lat="37.8264494465736" lon="15.24919040349717"><ele>47.5</ele><time>2026-03-27T15:17:01Z</time></trkpt><trkpt lat="37.826252613115834" lon="15.248931554134218"><ele>45.0</ele><time>2026-03-27T15:17:02Z</time></trkpt><trkpt lat="37.8260610925841" lon="15.248665149103653"><ele>41.5</ele><time>2026-03-27T15:17:03Z</time></trkpt><trkpt lat="37.82587818295626" lon="15.248388691460269"><ele>38.0</ele><time>2026-03-27T15:17:04Z</time></trkpt><trkpt lat="37.82570582751502" lon="15.248109140659947"><ele>38.0</ele><time>2026-03-27T15:17:05Z</time></trkpt><trkpt lat="37.82554112722709" lon="15.247827917921002"><ele>38.0</ele><time>2026-03-27T15:17:06Z</time></trkpt><trkpt lat="37.82537838742535" lon="15.24754781607306"><ele>38.0</ele><time>2026-03-27T15:17:07Z</time></trkpt><trkpt lat="37.82521584838415" lon="15.247273186474342"><ele>38.0</ele><time>2026-03-27T15:17:08Z</time></trkpt><trkpt lat="37.8250546874257" lon="15.247005568619908"><ele>37.5</ele><time>2026-03-27T15:17:09Z</time></trkpt><trkpt lat="37.82489750187852" lon="15.246738667890067"><ele>37.0</ele><time>2026-03-27T15:17:10Z</time></trkpt><trkpt lat="37.8247388964742" lon="15.246473578718987"><ele>37.0</ele><time>2026-03-27T15:17:11Z</time></trkpt><trkpt lat="37.82458365895815" lon="15.24621382113385"><ele>37.0</ele><time>2026-03-27T15:17:12Z</time></trkpt><trkpt lat="37.824427698905254" lon="15.24595193315645"><ele>37.0</ele><time>2026-03-27T15:17:13Z</time></trkpt><trkpt lat="37.82427111908763" lon="15.245687154055744"><ele>37.0</ele><time>2026-03-27T15:17:14Z</time></trkpt><trkpt lat="37.82411566784105" lon="15.245422767696557"><ele>37.0</ele><time>2026-03-27T15:17:15Z</time></trkpt><trkpt lat="37.82395850070103" lon="15.245156613515633"><ele>37.0</ele><time>2026-03-27T15:17:16Z</time></trkpt><trkpt lat="37.823801121798304" lon="15.244891032031571"><ele>36.5</ele><time>2026-03-27T15:17:17Z</time></trkpt><trkpt lat="37.823642744152764" lon="15.244632039511545"><ele>36.0</ele><time>2026-03-27T15:17:18Z</time></trkpt><trkpt lat="37.823479692422985" lon="15.244375678389153"><ele>36.0</ele><time>2026-03-27T15:17:19Z</time></trkpt><trkpt lat="37.82331681848614" lon="15.244117962128918"><ele>36.0</ele><time>2026-03-27T15:17:20Z</time></trkpt><trkpt lat="37.823157645289086" lon="15.243854171764056"><ele>35.5</ele><time>2026-03-27T15:17:21Z</time></trkpt><trkpt lat="37.82300199033655" lon="15.243585810575219"><ele>35.0</ele><time>2026-03-27T15:17:22Z</time></trkpt><trkpt lat="37.822847452249505" lon="15.243317621808929"><ele>34.5</ele><time>2026-03-27T15:17:23Z</time></trkpt><trkpt lat="37.82269176305494" lon="15.243052815072625"><ele>34.0</ele><time>2026-03-27T15:17:24Z</time></trkpt><trkpt lat="37.82253650170948" lon="15.242787963472983"><ele>35.0</ele><time>2026-03-27T15:17:25Z</time></trkpt><trkpt lat="37.82238129090779" lon="15.242521568563983"><ele>36.0</ele><time>2026-03-27T15:17:26Z</time></trkpt><trkpt lat="37.82222362929168" lon="15.242257160636639"><ele>33.5</ele><time>2026-03-27T15:17:27Z</time></trkpt><trkpt lat="37.822062499375285" lon="15.241990210519285"><ele>31.0</ele><time>2026-03-27T15:17:28Z</time></trkpt><trkpt lat="37.82189945361086" lon="15.241718925870824"><ele>29.5</ele><time>2026-03-27T15:17:29Z</time></trkpt><trkpt lat="37.82173944809734" lon="15.241452622225484"><ele>28.0</ele><time>2026-03-27T15:17:30Z</time></trkpt><trkpt lat="37.82158227959082" lon="15.24119103152968"><ele>28.0</ele><time>2026-03-27T15:17:31Z</time></trkpt><trkpt lat="37.82142940285238" lon="15.240935391141921"><ele>28.0</ele><time>2026-03-27T15:17:32Z</time></trkpt><trkpt lat="37.82127762429177" lon="15.240684087795303"><ele>28.0</ele><time>2026-03-27T15:17:33Z</time></trkpt><trkpt lat="37.82112888260609" lon="15.240432104188804"><ele>28.0</ele><time>2026-03-27T15:17:34Z</time></trkpt><trkpt lat="37.8209809475721" lon="15.24018220392813"><ele>29.0</ele><time>2026-03-27T15:17:35Z</time></trkpt><trkpt lat="37.82083400601406" lon="15.239934792584805"><ele>30.0</ele><time>2026-03-27T15:17:36Z</time></trkpt><trkpt lat="37.82068996027678" lon="15.239690529761068"><ele>31.0</ele><time>2026-03-27T15:17:37Z</time></trkpt><trkpt lat="37.820547433146956" lon="15.239454672851432"><ele>32.0</ele><time>2026-03-27T15:17:38Z</time></trkpt><trkpt lat="37.82040488632425" lon="15.239223054936824"><ele>32.0</ele><time>2026-03-27T15:17:39Z</time></trkpt><trkpt lat="37.82027477386283" lon="15.239004788369895"><ele>32.0</ele><time>2026-03-27T15:17:40Z</time></trkpt><trkpt lat="37.82013983528033" lon="15.238786350903947"><ele>32.0</ele><time>2026-03-27T15:17:41Z</time></trkpt><trkpt lat="37.82000479035826" lon="15.2385595720304"><ele>34.0</ele><time>2026-03-27T15:17:42Z</time></trkpt><trkpt lat="37.81986569347847" lon="15.238323130562483"><ele>36.0</ele><time>2026-03-27T15:17:43Z</time></trkpt><trkpt lat="37.8197283300222" lon="15.2380781429562"><ele>37.0</ele><time>2026-03-27T15:17:44Z</time></trkpt><trkpt lat="37.81959301527987" lon="15.237823376977765"><ele>38.0</ele><time>2026-03-27T15:17:45Z</time></trkpt><trkpt lat="37.819466321857384" lon="15.237567186176838"><ele>38.0</ele><time>2026-03-27T15:17:46Z</time></trkpt><trkpt lat="37.81934032747294" lon="15.237308919306225"><ele>38.0</ele><time>2026-03-27T15:17:47Z</time></trkpt><trkpt lat="37.81921470343534" lon="15.237047601654146"><ele>38.5</ele><time>2026-03-27T15:17:48Z</time></trkpt><trkpt lat="37.81909398296272" lon="15.236781690009122"><ele>39.0</ele><time>2026-03-27T15:17:49Z</time></trkpt><trkpt lat="37.818974176789574" lon="15.236511000028207"><ele>39.5</ele><time>2026-03-27T15:17:50Z</time></trkpt><trkpt lat="37.81885502684913" lon="15.236238957124387"><ele>40.0</ele><time>2026-03-27T15:17:51Z</time></trkpt><trkpt lat="37.818740515056206" lon="15.23596305955013"><ele>40.0</ele><time>2026-03-27T15:17:52Z</time></trkpt><trkpt lat="37.818630202482815" lon="15.235681749060085"><ele>40.0</ele><time>2026-03-27T15:17:53Z</time></trkpt><trkpt lat="37.81852395470282" lon="15.235393585294469"><ele>40.5</ele><time>2026-03-27T15:17:54Z</time></trkpt><trkpt lat="37.818422315339824" lon="15.23509966470426"><ele>41.0</ele><time>2026-03-27T15:17:55Z</time></trkpt><trkpt lat="37.81832269659281" lon="15.234799583973427"><ele>43.0</ele><time>2026-03-27T15:17:56Z</time></trkpt><trkpt lat="37.81822233451369" lon="15.2344976063639"><ele>45.0</ele><time>2026-03-27T15:17:57Z</time></trkpt><trkpt lat="37.818120324879104" lon="15.23419147687822"><ele>47.0</ele><time>2026-03-27T15:17:58Z</time></trkpt><trkpt lat="37.818016161930636" lon="15.233885457865867"><ele>49.0</ele><time>2026-03-27T15:17:59Z</time></trkpt><trkpt lat="37.8179083520184" lon="15.233576607156639"><ele>49.0</ele><time>2026-03-27T15:18:00Z</time></trkpt><trkpt lat="37.81779975202042" lon="15.233266977842423"><ele>49.0</ele><time>2026-03-27T15:18:01Z</time></trkpt><trkpt lat="37.81768962864821" lon="15.232951758237753"><ele>48.5</ele><time>2026-03-27T15:18:02Z</time></trkpt><trkpt lat="37.817582314448806" lon="15.232639379845205"><ele>48.0</ele><time>2026-03-27T15:18:03Z</time></trkpt><trkpt lat="37.81747254186198" lon="15.23232459553793"><ele>48.5</ele><time>2026-03-27T15:18:04Z</time></trkpt><trkpt lat="37.81736213467026" lon="15.232009545278387"><ele>49.0</ele><time>2026-03-27T15:18:05Z</time></trkpt><trkpt lat="37.81725480280176" lon="15.231697560488707"><ele>49.0</ele><time>2026-03-27T15:18:06Z</time></trkpt><trkpt lat="37.81714588909513" lon="15.231384270618019"><ele>49.0</ele><time>2026-03-27T15:18:07Z</time></trkpt><trkpt lat="37.817041361752466" lon="15.231070534435974"><ele>49.0</ele><time>2026-03-27T15:18:08Z</time></trkpt><trkpt lat="37.816945648236626" lon="15.230756397601933"><ele>49.0</ele><time>2026-03-27T15:18:09Z</time></trkpt><trkpt lat="37.816856023660996" lon="15.230437144701204"><ele>48.0</ele><time>2026-03-27T15:18:10Z</time></trkpt><trkpt lat="37.81677193039793" lon="15.230117945362533"><ele>47.0</ele><time>2026-03-27T15:18:11Z</time></trkpt><trkpt lat="37.81669450894843" lon="15.229798626925525"><ele>49.0</ele><time>2026-03-27T15:18:12Z</time></trkpt><trkpt lat="37.81662404156984" lon="15.22947975865248"><ele>51.0</ele><time>2026-03-27T15:18:13Z</time></trkpt><trkpt lat="37.81656210144661" lon="15.229171758895822"><ele>51.5</ele><time>2026-03-27T15:18:14Z</time></trkpt><trkpt lat="37.816511476328046" lon="15.228880197871774"><ele>52.0</ele><time>2026-03-27T15:18:15Z</time></trkpt><trkpt lat="37.81646450991254" lon="15.228589188664792"><ele>52.0</ele><time>2026-03-27T15:18:16Z</time></trkpt><trkpt lat="37.816425625471055" lon="15.22829901296107"><ele>52.0</ele><time>2026-03-27T15:18:17Z</time></trkpt><trkpt lat="37.8163895335337" lon="15.22801241390447"><ele>52.0</ele><time>2026-03-27T15:18:18Z</time></trkpt><trkpt lat="37.81635758989796" lon="15.227722983971656"><ele>52.0</ele><time>2026-03-27T15:18:19Z</time></trkpt><trkpt lat="37.81633092396947" lon="15.227429464758005"><ele>52.5</ele><time>2026-03-27T15:18:20Z</time></trkpt><trkpt lat="37.816307341332816" lon="15.22713421940299"><ele>53.0</ele><time>2026-03-27T15:18:21Z</time></trkpt><trkpt lat="37.81628668164041" lon="15.226837596298903"><ele>53.0</ele><time>2026-03-27T15:18:22Z</time></trkpt><trkpt lat="37.81627181630714" lon="15.226539502929183"><ele>53.0</ele><time>2026-03-27T15:18:23Z</time></trkpt><trkpt lat="37.81626305836682" lon="15.226234826298791"><ele>55.0</ele><time>2026-03-27T15:18:24Z</time></trkpt><trkpt lat="37.816255445147924" lon="15.225926649808118"><ele>57.0</ele><time>2026-03-27T15:18:25Z</time></trkpt><trkpt lat="37.81624736397175" lon="15.225613948199886"><ele>61.0</ele><time>2026-03-27T15:18:26Z</time></trkpt><trkpt lat="37.816236580017616" lon="15.225302658009191"><ele>65.0</ele><time>2026-03-27T15:18:27Z</time></trkpt><trkpt lat="37.81622418202026" lon="15.224996033738384"><ele>63.5</ele><time>2026-03-27T15:18:28Z</time></trkpt><trkpt lat="37.81621204182919" lon="15.224694208927875"><ele>62.0</ele><time>2026-03-27T15:18:29Z</time></trkpt><trkpt lat="37.81620029994272" lon="15.22439578095419"><ele>62.0</ele><time>2026-03-27T15:18:30Z</time></trkpt><trkpt lat="37.8161895856445" lon="15.224103835136564"><ele>62.0</ele><time>2026-03-27T15:18:31Z</time></trkpt><trkpt lat="37.816177828878956" lon="15.223812807934682"><ele>64.0</ele><time>2026-03-27T15:18:32Z</time></trkpt><trkpt lat="37.81616546265443" lon="15.223517978346777"><ele>66.0</ele><time>2026-03-27T15:18:33Z</time></trkpt><trkpt lat="37.81614590697883" lon="15.223214275568285"><ele>67.5</ele><time>2026-03-27T15:18:34Z</time></trkpt><trkpt lat="37.8161176573375" lon="15.22290067259302"><ele>69.0</ele><time>2026-03-27T15:18:35Z</time></trkpt><trkpt lat="37.81607728463764" lon="15.222578156504277"><ele>69.0</ele><time>2026-03-27T15:18:36Z</time></trkpt><trkpt lat="37.81603379794307" lon="15.222256102690805"><ele>69.0</ele><time>2026-03-27T15:18:37Z</time></trkpt><trkpt lat="37.815985510586295" lon="15.221935266789993"><ele>69.0</ele><time>2026-03-27T15:18:38Z</time></trkpt><trkpt lat="37.815933177100526" lon="15.22161421831576"><ele>69.0</ele><time>2026-03-27T15:18:39Z</time></trkpt><trkpt lat="37.81587682065032" lon="15.221294102168882"><ele>70.0</ele><time>2026-03-27T15:18:40Z</time></trkpt><trkpt lat="37.815816076258635" lon="15.220970359689442"><ele>71.0</ele><time>2026-03-27T15:18:41Z</time></trkpt><trkpt lat="37.8157511372069" lon="15.220645700335448"><ele>72.0</ele><time>2026-03-27T15:18:42Z</time></trkpt><trkpt lat="37.815678343065684" lon="15.220321649704504"><ele>73.0</ele><time>2026-03-27T15:18:43Z</time></trkpt><trkpt lat="37.81559991176486" lon="15.219994959619742"><ele>75.0</ele><time>2026-03-27T15:18:44Z</time></trkpt><trkpt lat="37.815522487860065" lon="15.219663502340392"><ele>77.0</ele><time>2026-03-27T15:18:45Z</time></trkpt><trkpt lat="37.81544897434485" lon="15.219328017172364"><ele>77.0</ele><time>2026-03-27T15:18:46Z</time></trkpt><trkpt lat="37.81537558351931" lon="15.218994980928583"><ele>77.0</ele><time>2026-03-27T15:18:47Z</time></trkpt><trkpt lat="37.81530507394759" lon="15.218663092246194"><ele>81.0</ele><time>2026-03-27T15:18:48Z</time></trkpt><trkpt lat="37.81523619044811" lon="15.218335391970564"><ele>85.0</ele><time>2026-03-27T15:18:49Z</time></trkpt><trkpt lat="37.815169345829524" lon="15.218009459392954"><ele>85.5</ele><time>2026-03-27T15:18:50Z</time></trkpt><trkpt lat="37.81510107667786" lon="15.217685743240715"><ele>86.0</ele><time>2026-03-27T15:18:51Z</time></trkpt><trkpt lat="37.81502842308709" lon="15.217366281576965"><ele>90.0</ele><time>2026-03-27T15:18:52Z</time></trkpt><trkpt lat="37.814953320312405" lon="15.217049220204027"><ele>94.0</ele><time>2026-03-27T15:18:53Z</time></trkpt><trkpt lat="37.81487508219994" lon="15.216733414091305"><ele>96.5</ele><time>2026-03-27T15:18:54Z</time></trkpt><trkpt lat="37.81478987150993" lon="15.216419000122837"><ele>99.0</ele><time>2026-03-27T15:18:55Z</time></trkpt><trkpt lat="37.8146974806914" lon="15.216106796409557"><ele>99.0</ele><time>2026-03-27T15:18:56Z</time></trkpt><trkpt lat="37.8145970467857" lon="15.215791911554872"><ele>99.0</ele><time>2026-03-27T15:18:57Z</time></trkpt><trkpt lat="37.81449260404552" lon="15.215478090573463"><ele>96.5</ele><time>2026-03-27T15:18:58Z</time></trkpt><trkpt lat="37.814382180574896" lon="15.215166232268084"><ele>94.0</ele><time>2026-03-27T15:18:59Z</time></trkpt><trkpt lat="37.81426600692001" lon="15.214859418133441"><ele>95.5</ele><time>2026-03-27T15:19:00Z</time></trkpt><trkpt lat="37.81414382618956" lon="15.214556412039206"><ele>97.0</ele><time>2026-03-27T15:19:01Z</time></trkpt><trkpt lat="37.81401669425448" lon="15.21425571857564"><ele>98.0</ele><time>2026-03-27T15:19:02Z</time></trkpt><trkpt lat="37.81388314315922" lon="15.213957958571282"><ele>99.0</ele><time>2026-03-27T15:19:03Z</time></trkpt><trkpt lat="37.81374693529261" lon="15.213661641485398"><ele>99.0</ele><time>2026-03-27T15:19:04Z</time></trkpt><trkpt lat="37.813606858676906" lon="15.213364415701314"><ele>99.0</ele><time>2026-03-27T15:19:05Z</time></trkpt><trkpt lat="37.81346492666925" lon="15.213066796462337"><ele>98.5</ele><time>2026-03-27T15:19:06Z</time></trkpt><trkpt lat="37.8133233643737" lon="15.212764329878102"><ele>98.0</ele><time>2026-03-27T15:19:07Z</time></trkpt><trkpt lat="37.81318044111865" lon="15.212457683301478"><ele>100.0</ele><time>2026-03-27T15:19:08Z</time></trkpt><trkpt lat="37.81303433943624" lon="15.212147378583909"><ele>102.0</ele><time>2026-03-27T15:19:09Z</time></trkpt><trkpt lat="37.812891222745975" lon="15.211840803652894"><ele>102.0</ele><time>2026-03-27T15:19:10Z</time></trkpt><trkpt lat="37.81274647144171" lon="15.21153713587752"><ele>102.0</ele><time>2026-03-27T15:19:11Z</time></trkpt><trkpt lat="37.81260304917963" lon="15.211231947776838"><ele>105.5</ele><time>2026-03-27T15:19:12Z</time></trkpt><trkpt lat="37.812457361432195" lon="15.210926712814455"><ele>109.0</ele><time>2026-03-27T15:19:13Z</time></trkpt><trkpt lat="37.81231104741014" lon="15.210619299625716"><ele>112.5</ele><time>2026-03-27T15:19:14Z</time></trkpt><trkpt lat="37.812163459639095" lon="15.210311564842387"><ele>116.0</ele><time>2026-03-27T15:19:15Z</time></trkpt><trkpt lat="37.81201275798486" lon="15.210008820947245"><ele>117.0</ele><time>2026-03-27T15:19:16Z</time></trkpt><trkpt lat="37.81185723321814" lon="15.209714251163696"><ele>118.0</ele><time>2026-03-27T15:19:17Z</time></trkpt><trkpt lat="37.811699844174434" lon="15.209424066044038"><ele>118.0</ele><time>2026-03-27T15:19:18Z</time></trkpt><trkpt lat="37.811530820684425" lon="15.209136324046423"><ele>118.0</ele><time>2026-03-27T15:19:19Z</time></trkpt><trkpt lat="37.81134918364692" lon="15.208856756172173"><ele>123.0</ele><time>2026-03-27T15:19:20Z</time></trkpt><trkpt lat="37.81115610598012" lon="15.208582261646777"><ele>128.0</ele><time>2026-03-27T15:19:21Z</time></trkpt><trkpt lat="37.81102727805518" lon="15.20830759131736"><ele>127.0</ele><time>2026-03-27T15:19:22Z</time></trkpt><trkpt lat="37.81085565411677" lon="15.20804186702622"><ele>126.0</ele><time>2026-03-27T15:19:23Z</time></trkpt><trkpt lat="37.81067903804497" lon="15.207779276400352"><ele>126.0</ele><time>2026-03-27T15:19:24Z</time></trkpt><trkpt lat="37.810500274162024" lon="15.207520153075444"><ele>126.0</ele><time>2026-03-27T15:19:25Z</time></trkpt><trkpt lat="37.81031512961491" lon="15.207266632485586"><ele>128.0</ele><time>2026-03-27T15:19:26Z</time></trkpt><trkpt lat="37.81012338469463" lon="15.207018172289933"><ele>130.0</ele><time>2026-03-27T15:19:27Z</time></trkpt><trkpt lat="37.809929000170385" lon="15.206770413626025"><ele>130.0</ele><time>2026-03-27T15:19:28Z</time></trkpt><trkpt lat="37.809728193757984" lon="15.206530132724867"><ele>130.0</ele><time>2026-03-27T15:19:29Z</time></trkpt><trkpt lat="37.80952204346631" lon="15.206291517697199"><ele>131.5</ele><time>2026-03-27T15:19:30Z</time></trkpt><trkpt lat="37.80930824241002" lon="15.206053024248739"><ele>133.0</ele><time>2026-03-27T15:19:31Z</time></trkpt><trkpt lat="37.80908976574358" lon="15.205811164177952"><ele>135.5</ele><time>2026-03-27T15:19:32Z</time></trkpt><trkpt lat="37.80887164995377" lon="15.20556578643573"><ele>138.0</ele><time>2026-03-27T15:19:33Z</time></trkpt><trkpt lat="37.80865141182671" lon="15.205316256374601"><ele>133.0</ele><time>2026-03-27T15:19:34Z</time></trkpt><trkpt lat="37.80842808729481" lon="15.205063084794402"><ele>128.0</ele><time>2026-03-27T15:19:35Z</time></trkpt><trkpt lat="37.80820281322953" lon="15.20480832633497"><ele>128.0</ele><time>2026-03-27T15:19:36Z</time></trkpt><trkpt lat="37.80797512676889" lon="15.204552550214188"><ele>128.0</ele><time>2026-03-27T15:19:37Z</time></trkpt><trkpt lat="37.8077455826382" lon="15.204300025734781"><ele>123.5</ele><time>2026-03-27T15:19:38Z</time></trkpt><trkpt lat="37.80751446325332" lon="15.204050442372889"><ele>119.0</ele><time>2026-03-27T15:19:39Z</time></trkpt><trkpt lat="37.80728568442444" lon="15.203801647912524"><ele>117.5</ele><time>2026-03-27T15:19:40Z</time></trkpt><trkpt lat="37.80705783145452" lon="15.20354850095763"><ele>116.0</ele><time>2026-03-27T15:19:41Z</time></trkpt><trkpt lat="37.80683141460385" lon="15.203296628221416"><ele>119.5</ele><time>2026-03-27T15:19:42Z</time></trkpt><trkpt lat="37.80660438822626" lon="15.20304845319951"><ele>123.0</ele><time>2026-03-27T15:19:43Z</time></trkpt><trkpt lat="37.806379043243474" lon="15.202797820451165"><ele>123.0</ele><time>2026-03-27T15:19:44Z</time></trkpt><trkpt lat="37.80615542884587" lon="15.20254636725413"><ele>123.0</ele><time>2026-03-27T15:19:45Z</time></trkpt><trkpt lat="37.80593017856541" lon="15.20229606593107"><ele>124.0</ele><time>2026-03-27T15:19:46Z</time></trkpt><trkpt lat="37.80570102997254" lon="15.202052401543078"><ele>125.0</ele><time>2026-03-27T15:19:47Z</time></trkpt><trkpt lat="37.805466964697985" lon="15.201812958284588"><ele>125.0</ele><time>2026-03-27T15:19:48Z</time></trkpt><trkpt lat="37.805229892838966" lon="15.201580095926547"><ele>125.0</ele><time>2026-03-27T15:19:49Z</time></trkpt><trkpt lat="37.8049839353661" lon="15.201357428787427"><ele>119.0</ele><time>2026-03-27T15:19:50Z</time></trkpt><trkpt lat="37.80473717819691" lon="15.201135181350212"><ele>113.0</ele><time>2026-03-27T15:19:51Z</time></trkpt><trkpt lat="37.80448936055647" lon="15.20091877249097"><ele>108.0</ele><time>2026-03-27T15:19:52Z</time></trkpt><trkpt lat="37.80423456345465" lon="15.200710419111898"><ele>103.0</ele><time>2026-03-27T15:19:53Z</time></trkpt><trkpt lat="37.80397835301107" lon="15.200514516258055"><ele>103.0</ele><time>2026-03-27T15:19:54Z</time></trkpt><trkpt lat="37.80372326380802" lon="15.200321139956138"><ele>103.0</ele><time>2026-03-27T15:19:55Z</time></trkpt><trkpt lat="37.80346325745039" lon="15.200131134664948"><ele>108.5</ele><time>2026-03-27T15:19:56Z</time></trkpt><trkpt lat="37.80320033924872" lon="15.199942059557467"><ele>114.0</ele><time>2026-03-27T15:19:57Z</time></trkpt><trkpt lat="37.80293887637497" lon="15.199754054954386"><ele>115.0</ele><time>2026-03-27T15:19:58Z</time></trkpt><trkpt lat="37.80267726839629" lon="15.199563826538759"><ele>116.0</ele><time>2026-03-27T15:19:59Z</time></trkpt><trkpt lat="37.80241744516119" lon="15.199371789347493"><ele>116.5</ele><time>2026-03-27T15:20:00Z</time></trkpt><trkpt lat="37.80215699882948" lon="15.19917967884717"><ele>117.0</ele><time>2026-03-27T15:20:01Z</time></trkpt><trkpt lat="37.801900474655994" lon="15.198987445593664"><ele>118.5</ele><time>2026-03-27T15:20:02Z</time></trkpt><trkpt lat="37.80164425912985" lon="15.198796625092639"><ele>120.0</ele><time>2026-03-27T15:20:03Z</time></trkpt><trkpt lat="37.80138593703901" lon="15.19860930477819"><ele>120.0</ele><time>2026-03-27T15:20:04Z</time></trkpt><trkpt lat="37.8011300491664" lon="15.198421033430002"><ele>120.0</ele><time>2026-03-27T15:20:05Z</time></trkpt><trkpt lat="37.80087379950879" lon="15.198230658430855"><ele>118.5</ele><time>2026-03-27T15:20:06Z</time></trkpt><trkpt lat="37.800618968998855" lon="15.19804302091694"><ele>117.0</ele><time>2026-03-27T15:20:07Z</time></trkpt><trkpt lat="37.800365875168985" lon="15.197852116202009"><ele>113.0</ele><time>2026-03-27T15:20:08Z</time></trkpt><trkpt lat="37.80011327094746" lon="15.197653256556329"><ele>109.0</ele><time>2026-03-27T15:20:09Z</time></trkpt><trkpt lat="37.799864942169165" lon="15.197442040183512"><ele>112.0</ele><time>2026-03-27T15:20:10Z</time></trkpt><trkpt lat="37.79962159461953" lon="15.197220559028805"><ele>115.0</ele><time>2026-03-27T15:20:11Z</time></trkpt><trkpt lat="37.79938614093147" lon="15.196989185449729"><ele>115.5</ele><time>2026-03-27T15:20:12Z</time></trkpt><trkpt lat="37.79915850617311" lon="15.19674691288023"><ele>116.0</ele><time>2026-03-27T15:20:13Z</time></trkpt><trkpt lat="37.798940345416646" lon="15.196495795502571"><ele>116.0</ele><time>2026-03-27T15:20:14Z</time></trkpt><trkpt lat="37.79873030039913" lon="15.19623187676782"><ele>116.0</ele><time>2026-03-27T15:20:15Z</time></trkpt><trkpt lat="37.79852554417095" lon="15.195956897135542"><ele>113.5</ele><time>2026-03-27T15:20:16Z</time></trkpt><trkpt lat="37.798325042839856" lon="15.19567612826798"><ele>111.0</ele><time>2026-03-27T15:20:17Z</time></trkpt><trkpt lat="37.79812765724019" lon="15.195389523706055"><ele>111.0</ele><time>2026-03-27T15:20:18Z</time></trkpt><trkpt lat="37.797936023332305" lon="15.195099059309062"><ele>111.0</ele><time>2026-03-27T15:20:19Z</time></trkpt><trkpt lat="37.79775134672758" lon="15.194800822406632"><ele>111.5</ele><time>2026-03-27T15:20:20Z</time></trkpt><trkpt lat="37.79757307754666" lon="15.194499591934695"><ele>112.0</ele><time>2026-03-27T15:20:21Z</time></trkpt><trkpt lat="37.79739598186015" lon="15.19420191611422"><ele>115.0</ele><time>2026-03-27T15:20:22Z</time></trkpt><trkpt lat="37.79721790438759" lon="15.19390739033556"><ele>118.0</ele><time>2026-03-27T15:20:23Z</time></trkpt><trkpt lat="37.79703997687049" lon="15.193614290551007"><ele>118.0</ele><time>2026-03-27T15:20:24Z</time></trkpt><trkpt lat="37.79686598956216" lon="15.193321038039121"><ele>118.0</ele><time>2026-03-27T15:20:25Z</time></trkpt><trkpt lat="37.796687885889675" lon="15.193029509196618"><ele>118.0</ele><time>2026-03-27T15:20:26Z</time></trkpt><trkpt lat="37.7965097111663" lon="15.1927392126144"><ele>118.0</ele><time>2026-03-27T15:20:27Z</time></trkpt><trkpt lat="37.79633393842817" lon="15.192448823759566"><ele>119.0</ele><time>2026-03-27T15:20:28Z</time></trkpt><trkpt lat="37.79615795390637" lon="15.192160909522476"><ele>120.0</ele><time>2026-03-27T15:20:29Z</time></trkpt><trkpt lat="37.79597699629611" lon="15.191880469893919"><ele>120.0</ele><time>2026-03-27T15:20:30Z</time></trkpt><trkpt lat="37.79578620315767" lon="15.191608144177088"><ele>120.0</ele><time>2026-03-27T15:20:31Z</time></trkpt><trkpt lat="37.795589065981275" lon="15.191347636721153"><ele>123.5</ele><time>2026-03-27T15:20:32Z</time></trkpt><trkpt lat="37.79538616670101" lon="15.191094270211106"><ele>127.0</ele><time>2026-03-27T15:20:33Z</time></trkpt><trkpt lat="37.7951791350713" lon="15.190846079182144"><ele>126.5</ele><time>2026-03-27T15:20:34Z</time></trkpt><trkpt lat="37.79496724851137" lon="15.190604057665007"><ele>126.0</ele><time>2026-03-27T15:20:35Z</time></trkpt><trkpt lat="37.794751627967095" lon="15.190372885967538"><ele>126.0</ele><time>2026-03-27T15:20:36Z</time></trkpt><trkpt lat="37.79453102536364" lon="15.190151058813493"><ele>126.0</ele><time>2026-03-27T15:20:37Z</time></trkpt><trkpt lat="37.79430136246223" lon="15.189941041026527"><ele>126.5</ele><time>2026-03-27T15:20:38Z</time></trkpt><trkpt lat="37.7940629652861" lon="15.189741357972549"><ele>127.0</ele><time>2026-03-27T15:20:39Z</time></trkpt><trkpt lat="37.793819651535856" lon="15.189547942081354"><ele>127.0</ele><time>2026-03-27T15:20:40Z</time></trkpt><trkpt lat="37.79356813429311" lon="15.189361123442879"><ele>127.0</ele><time>2026-03-27T15:20:41Z</time></trkpt><trkpt lat="37.79331232477503" lon="15.18918076773777"><ele>128.5</ele><time>2026-03-27T15:20:42Z</time></trkpt><trkpt lat="37.79304995071952" lon="15.1890101895056"><ele>130.0</ele><time>2026-03-27T15:20:43Z</time></trkpt><trkpt lat="37.79278299023592" lon="15.188850471789113"><ele>131.5</ele><time>2026-03-27T15:20:44Z</time></trkpt><trkpt lat="37.79250807432354" lon="15.188702258619639"><ele>133.0</ele><time>2026-03-27T15:20:45Z</time></trkpt><trkpt lat="37.79222856311357" lon="15.188566574614372"><ele>133.0</ele><time>2026-03-27T15:20:46Z</time></trkpt><trkpt lat="37.791944116305" lon="15.18843948991738"><ele>133.0</ele><time>2026-03-27T15:20:47Z</time></trkpt><trkpt lat="37.791655203400026" lon="15.188320099649"><ele>131.5</ele><time>2026-03-27T15:20:48Z</time></trkpt><trkpt lat="37.79136554105978" lon="15.188208000997196"><ele>130.0</ele><time>2026-03-27T15:20:49Z</time></trkpt><trkpt lat="37.791072929492145" lon="15.188103364656483"><ele>131.0</ele><time>2026-03-27T15:20:50Z</time></trkpt><trkpt lat="37.79077676287894" lon="15.188000473579997"><ele>132.0</ele><time>2026-03-27T15:20:51Z</time></trkpt><trkpt lat="37.79047842489672" lon="15.187894806284218"><ele>132.0</ele><time>2026-03-27T15:20:52Z</time></trkpt><trkpt lat="37.79018267790958" lon="15.187787518829554"><ele>132.0</ele><time>2026-03-27T15:20:53Z</time></trkpt><trkpt lat="37.789884181141126" lon="15.187676384341454"><ele>130.0</ele><time>2026-03-27T15:20:54Z</time></trkpt><trkpt lat="37.78958628771271" lon="15.187564267874656"><ele>128.0</ele><time>2026-03-27T15:20:55Z</time></trkpt><trkpt lat="37.789287505975715" lon="15.1874549810893"><ele>128.5</ele><time>2026-03-27T15:20:56Z</time></trkpt><trkpt lat="37.78899061309403" lon="15.18734911438891"><ele>129.0</ele><time>2026-03-27T15:20:57Z</time></trkpt><trkpt lat="37.78869446157601" lon="15.187243817366376"><ele>122.5</ele><time>2026-03-27T15:20:58Z</time></trkpt><trkpt lat="37.78839713000249" lon="15.187139219505188"><ele>116.0</ele><time>2026-03-27T15:20:59Z</time></trkpt><trkpt lat="37.78809771202431" lon="15.187031019668401"><ele>116.0</ele><time>2026-03-27T15:21:00Z</time></trkpt><trkpt lat="37.78779851038518" lon="15.186922548184675"><ele>116.0</ele><time>2026-03-27T15:21:01Z</time></trkpt><trkpt lat="37.787498644512546" lon="15.186811634133154"><ele>117.5</ele><time>2026-03-27T15:21:02Z</time></trkpt><trkpt lat="37.78719831050117" lon="15.18669929725953"><ele>119.0</ele><time>2026-03-27T15:21:03Z</time></trkpt><trkpt lat="37.78689791234541" lon="15.186585175025696"><ele>119.5</ele><time>2026-03-27T15:21:04Z</time></trkpt><trkpt lat="37.78659522274198" lon="15.18647146795077"><ele>120.0</ele><time>2026-03-27T15:21:05Z</time></trkpt><trkpt lat="37.786291743443904" lon="15.186358750100128"><ele>118.0</ele><time>2026-03-27T15:21:06Z</time></trkpt><trkpt lat="37.78598752793865" lon="15.186247023166263"><ele>116.0</ele><time>2026-03-27T15:21:07Z</time></trkpt><trkpt lat="37.78568503122502" lon="15.186138830131874"><ele>116.0</ele><time>2026-03-27T15:21:08Z</time></trkpt><trkpt lat="37.785384519838544" lon="15.186031929902283"><ele>116.0</ele><time>2026-03-27T15:21:09Z</time></trkpt><trkpt lat="37.78508726270508" lon="15.185924665960613"><ele>117.0</ele><time>2026-03-27T15:21:10Z</time></trkpt><trkpt lat="37.784793225641096" lon="15.185816969887375"><ele>118.0</ele><time>2026-03-27T15:21:11Z</time></trkpt><trkpt lat="37.78450305273015" lon="15.185709973503444"><ele>118.0</ele><time>2026-03-27T15:21:12Z</time></trkpt><trkpt lat="37.78421580743293" lon="15.185602394036653"><ele>118.0</ele><time>2026-03-27T15:21:13Z</time></trkpt><trkpt lat="37.7839286914847" lon="15.185495418274769"><ele>118.0</ele><time>2026-03-27T15:21:14Z</time></trkpt><trkpt lat="37.7836464643098" lon="15.185392496253392"><ele>118.0</ele><time>2026-03-27T15:21:15Z</time></trkpt><trkpt lat="37.783365476801606" lon="15.18529112422334"><ele>119.0</ele><time>2026-03-27T15:21:16Z</time></trkpt><trkpt lat="37.783085502425585" lon="15.18518917431447"><ele>120.0</ele><time>2026-03-27T15:21:17Z</time></trkpt><trkpt lat="37.782805374446525" lon="15.185084899532809"><ele>119.5</ele><time>2026-03-27T15:21:18Z</time></trkpt><trkpt lat="37.78252388944015" lon="15.184984085018701"><ele>119.0</ele><time>2026-03-27T15:21:19Z</time></trkpt><trkpt lat="37.782241240877624" lon="15.184888513163605"><ele>119.5</ele><time>2026-03-27T15:21:20Z</time></trkpt><trkpt lat="37.781958142918626" lon="15.184796106087177"><ele>120.0</ele><time>2026-03-27T15:21:21Z</time></trkpt><trkpt lat="37.781673857729416" lon="15.18471080397938"><ele>120.0</ele><time>2026-03-27T15:21:22Z</time></trkpt><trkpt lat="37.78138915267654" lon="15.184631167312993"><ele>120.0</ele><time>2026-03-27T15:21:23Z</time></trkpt><trkpt lat="37.781104642313196" lon="15.184558316424008"><ele>122.0</ele><time>2026-03-27T15:21:24Z</time></trkpt><trkpt lat="37.780819086513176" lon="15.184489914351186"><ele>124.0</ele><time>2026-03-27T15:21:25Z</time></trkpt><trkpt lat="37.7805324680078" lon="15.18442691125963"><ele>124.0</ele><time>2026-03-27T15:21:26Z</time></trkpt><trkpt lat="37.780241858104944" lon="15.18437081041063"><ele>124.0</ele><time>2026-03-27T15:21:27Z</time></trkpt><trkpt lat="37.77995124919768" lon="15.184320684062621"><ele>123.5</ele><time>2026-03-27T15:21:28Z</time></trkpt><trkpt lat="37.77965911684003" lon="15.184277981327917"><ele>123.0</ele><time>2026-03-27T15:21:29Z</time></trkpt><trkpt lat="37.77936597195663" lon="15.184239842286306"><ele>123.0</ele><time>2026-03-27T15:21:30Z</time></trkpt><trkpt lat="37.77907112878336" lon="15.184210288902669"><ele>123.0</ele><time>2026-03-27T15:21:31Z</time></trkpt><trkpt lat="37.77877421349399" lon="15.18418646399361"><ele>123.0</ele><time>2026-03-27T15:21:32Z</time></trkpt><trkpt lat="37.77847743571523" lon="15.184165346056718"><ele>123.0</ele><time>2026-03-27T15:21:33Z</time></trkpt><trkpt lat="37.77817785911769" lon="15.18415023523513"><ele>123.0</ele><time>2026-03-27T15:21:34Z</time></trkpt><trkpt lat="37.77787492322055" lon="15.184143383508058"><ele>123.0</ele><time>2026-03-27T15:21:35Z</time></trkpt><trkpt lat="37.777569473649024" lon="15.184139778627049"><ele>122.5</ele><time>2026-03-27T15:21:36Z</time></trkpt><trkpt lat="37.77726198373786" lon="15.18413767833057"><ele>122.0</ele><time>2026-03-27T15:21:37Z</time></trkpt><trkpt lat="37.77695108998341" lon="15.184136381478593"><ele>118.5</ele><time>2026-03-27T15:21:38Z</time></trkpt><trkpt lat="37.77663898315251" lon="15.184135113111836"><ele>115.0</ele><time>2026-03-27T15:21:39Z</time></trkpt><trkpt lat="37.77632505208744" lon="15.184133441889246"><ele>114.0</ele><time>2026-03-27T15:21:40Z</time></trkpt><trkpt lat="37.77600898123465" lon="15.18412987343401"><ele>113.0</ele><time>2026-03-27T15:21:41Z</time></trkpt><trkpt lat="37.775692485314366" lon="15.184122859355398"><ele>113.0</ele><time>2026-03-27T15:21:42Z</time></trkpt><trkpt lat="37.77537536535868" lon="15.184117692455636"><ele>113.0</ele><time>2026-03-27T15:21:43Z</time></trkpt><trkpt lat="37.77506063519805" lon="15.184118274277987"><ele>112.5</ele><time>2026-03-27T15:21:44Z</time></trkpt><trkpt lat="37.7747415564117" lon="15.184104757396778"><ele>112.0</ele><time>2026-03-27T15:21:45Z</time></trkpt><trkpt lat="37.77442735010065" lon="15.184080364856749"><ele>110.0</ele><time>2026-03-27T15:21:46Z</time></trkpt><trkpt lat="37.77411275256609" lon="15.184057301323516"><ele>108.0</ele><time>2026-03-27T15:21:47Z</time></trkpt><trkpt lat="37.773801456998896" lon="15.184035274934047"><ele>110.5</ele><time>2026-03-27T15:21:48Z</time></trkpt><trkpt lat="37.77349290707729" lon="15.184010019491232"><ele>113.0</ele><time>2026-03-27T15:21:49Z</time></trkpt><trkpt lat="37.77318711480618" lon="15.18398213896683"><ele>113.0</ele><time>2026-03-27T15:21:50Z</time></trkpt><trkpt lat="37.77288503799367" lon="15.183951200836876"><ele>113.0</ele><time>2026-03-27T15:21:51Z</time></trkpt><trkpt lat="37.77258561027838" lon="15.183916297040684"><ele>115.0</ele><time>2026-03-27T15:21:52Z</time></trkpt><trkpt lat="37.772287824848405" lon="15.18387827646284"><ele>117.0</ele><time>2026-03-27T15:21:53Z</time></trkpt><trkpt lat="37.771992777036104" lon="15.183841756524838"><ele>116.0</ele><time>2026-03-27T15:21:54Z</time></trkpt><trkpt lat="37.77169725457137" lon="15.183810080929161"><ele>115.0</ele><time>2026-03-27T15:21:55Z</time></trkpt><trkpt lat="37.77140348596417" lon="15.183779614290973"><ele>115.0</ele><time>2026-03-27T15:21:56Z</time></trkpt><trkpt lat="37.77110905533777" lon="15.18375105661512"><ele>115.0</ele><time>2026-03-27T15:21:57Z</time></trkpt><trkpt lat="37.77081659787523" lon="15.183717338659699"><ele>114.5</ele><time>2026-03-27T15:21:58Z</time></trkpt><trkpt lat="37.7705256390125" lon="15.183677632913763"><ele>114.0</ele><time>2026-03-27T15:21:59Z</time></trkpt><trkpt lat="37.7702352856982" lon="15.183637524244551"><ele>114.5</ele><time>2026-03-27T15:22:00Z</time></trkpt><trkpt lat="37.76994457427696" lon="15.183598507921333"><ele>115.0</ele><time>2026-03-27T15:22:01Z</time></trkpt><trkpt lat="37.7696551104728" lon="15.183558537718344"><ele>115.0</ele><time>2026-03-27T15:22:02Z</time></trkpt><trkpt lat="37.769367330198946" lon="15.18351644845876"><ele>115.0</ele><time>2026-03-27T15:22:03Z</time></trkpt><trkpt lat="37.769077505710136" lon="15.183478566433386"><ele>115.0</ele><time>2026-03-27T15:22:04Z</time></trkpt><trkpt lat="37.76878919021868" lon="15.183441959017278"><ele>115.0</ele><time>2026-03-27T15:22:05Z</time></trkpt><trkpt lat="37.76850370046712" lon="15.183407922107582"><ele>115.0</ele><time>2026-03-27T15:22:06Z</time></trkpt><trkpt lat="37.76821949419927" lon="15.183371038880818"><ele>115.0</ele><time>2026-03-27T15:22:07Z</time></trkpt><trkpt lat="37.7679387450138" lon="15.183327781178091"><ele>115.5</ele><time>2026-03-27T15:22:08Z</time></trkpt><trkpt lat="37.76765923958812" lon="15.183287679450006"><ele>116.0</ele><time>2026-03-27T15:22:09Z</time></trkpt><trkpt lat="37.76738483102585" lon="15.183254011419255"><ele>116.0</ele><time>2026-03-27T15:22:10Z</time></trkpt><trkpt lat="37.76711410890879" lon="15.18321620072993"><ele>116.0</ele><time>2026-03-27T15:22:11Z</time></trkpt><trkpt lat="37.76684399111907" lon="15.183180888411734"><ele>119.0</ele><time>2026-03-27T15:22:12Z</time></trkpt><trkpt lat="37.76658192024678" lon="15.183146478712906"><ele>122.0</ele><time>2026-03-27T15:22:13Z</time></trkpt><trkpt lat="37.766319758841036" lon="15.18311108763272"><ele>122.0</ele><time>2026-03-27T15:22:14Z</time></trkpt><trkpt lat="37.766051881460996" lon="15.18307710629638"><ele>122.0</ele><time>2026-03-27T15:22:15Z</time></trkpt><trkpt lat="37.765788799314564" lon="15.183042736182713"><ele>120.0</ele><time>2026-03-27T15:22:16Z</time></trkpt><trkpt lat="37.76552775514785" lon="15.183003148396795"><ele>118.0</ele><time>2026-03-27T15:22:17Z</time></trkpt><trkpt lat="37.765267190703796" lon="15.182965673448003"><ele>119.5</ele><time>2026-03-27T15:22:18Z</time></trkpt><trkpt lat="37.76498684231209" lon="15.182921459125382"><ele>121.0</ele><time>2026-03-27T15:22:19Z</time></trkpt><trkpt lat="37.76472490768141" lon="15.182869327243779"><ele>121.0</ele><time>2026-03-27T15:22:20Z</time></trkpt><trkpt lat="37.764475096314555" lon="15.182834834573052"><ele>121.0</ele><time>2026-03-27T15:22:21Z</time></trkpt><trkpt lat="37.76423019629177" lon="15.182794107564007"><ele>123.0</ele><time>2026-03-27T15:22:22Z</time></trkpt><trkpt lat="37.76398478910044" lon="15.182747562570174"><ele>125.0</ele><time>2026-03-27T15:22:23Z</time></trkpt><trkpt lat="37.763744695010075" lon="15.182692298666417"><ele>125.5</ele><time>2026-03-27T15:22:24Z</time></trkpt><trkpt lat="37.76350297612844" lon="15.182629726844883"><ele>126.0</ele><time>2026-03-27T15:22:25Z</time></trkpt><trkpt lat="37.76325924365219" lon="15.182556735696243"><ele>126.0</ele><time>2026-03-27T15:22:26Z</time></trkpt><trkpt lat="37.763015038688174" lon="15.182474428367906"><ele>126.0</ele><time>2026-03-27T15:22:27Z</time></trkpt><trkpt lat="37.76277498130251" lon="15.182381777458234"><ele>127.5</ele><time>2026-03-27T15:22:28Z</time></trkpt><trkpt lat="37.762537730912214" lon="15.182283193628681"><ele>129.0</ele><time>2026-03-27T15:22:29Z</time></trkpt><trkpt lat="37.76230425980129" lon="15.182168820426826"><ele>129.0</ele><time>2026-03-27T15:22:30Z</time></trkpt><trkpt lat="37.762075112034445" lon="15.18204819429334"><ele>129.0</ele><time>2026-03-27T15:22:31Z</time></trkpt><trkpt lat="37.76184486768076" lon="15.181919660523672"><ele>129.0</ele><time>2026-03-27T15:22:32Z</time></trkpt><trkpt lat="37.761614961955466" lon="15.181782715453103"><ele>129.0</ele><time>2026-03-27T15:22:33Z</time></trkpt><trkpt lat="37.76138662253442" lon="15.181630823138358"><ele>129.5</ele><time>2026-03-27T15:22:34Z</time></trkpt><trkpt lat="37.761154673830646" lon="15.18146903264571"><ele>130.0</ele><time>2026-03-27T15:22:35Z</time></trkpt><trkpt lat="37.76092166814069" lon="15.181300870251532"><ele>130.0</ele><time>2026-03-27T15:22:36Z</time></trkpt><trkpt lat="37.760687518679546" lon="15.181120757684583"><ele>130.0</ele><time>2026-03-27T15:22:37Z</time></trkpt><trkpt lat="37.76049224047537" lon="15.18095566724142"><ele>130.0</ele><time>2026-03-27T15:22:38Z</time></trkpt><trkpt lat="37.76026652636679" lon="15.180756500279083"><ele>130.0</ele><time>2026-03-27T15:22:39Z</time></trkpt><trkpt lat="37.76004803066904" lon="15.180539034435881"><ele>134.5</ele><time>2026-03-27T15:22:40Z</time></trkpt><trkpt lat="37.75983583853691" lon="15.180298286810025"><ele>139.0</ele><time>2026-03-27T15:22:41Z</time></trkpt><trkpt lat="37.759622764431754" lon="15.180074014299052"><ele>137.0</ele><time>2026-03-27T15:22:42Z</time></trkpt><trkpt lat="37.75941002041629" lon="15.179835100733419"><ele>135.0</ele><time>2026-03-27T15:22:43Z</time></trkpt><trkpt lat="37.75919604321305" lon="15.179597722097595"><ele>135.0</ele><time>2026-03-27T15:22:44Z</time></trkpt><trkpt lat="37.758980695272854" lon="15.179360591547274"><ele>135.0</ele><time>2026-03-27T15:22:45Z</time></trkpt><trkpt lat="37.75876548984882" lon="15.179125202740707"><ele>136.0</ele><time>2026-03-27T15:22:46Z</time></trkpt><trkpt lat="37.75854575187731" lon="15.178890214094562"><ele>137.0</ele><time>2026-03-27T15:22:47Z</time></trkpt><trkpt lat="37.758327994689964" lon="15.178648584137544"><ele>137.0</ele><time>2026-03-27T15:22:48Z</time></trkpt><trkpt lat="37.758105013806365" lon="15.17840887104198"><ele>137.0</ele><time>2026-03-27T15:22:49Z</time></trkpt><trkpt lat="37.757879360354394" lon="15.178181609106044"><ele>137.5</ele><time>2026-03-27T15:22:50Z</time></trkpt><trkpt lat="37.757641031523406" lon="15.177973680541012"><ele>138.0</ele><time>2026-03-27T15:22:51Z</time></trkpt><trkpt lat="37.75739485380816" lon="15.177781190998637"><ele>138.0</ele><time>2026-03-27T15:22:52Z</time></trkpt><trkpt lat="37.757142491752795" lon="15.177601450744822"><ele>138.0</ele><time>2026-03-27T15:22:53Z</time></trkpt><trkpt lat="37.756885908007824" lon="15.17743255460987"><ele>142.0</ele><time>2026-03-27T15:22:54Z</time></trkpt><trkpt lat="37.75662366189304" lon="15.177281167516437"><ele>146.0</ele><time>2026-03-27T15:22:55Z</time></trkpt><trkpt lat="37.75635522327535" lon="15.177149999613563"><ele>146.0</ele><time>2026-03-27T15:22:56Z</time></trkpt><trkpt lat="37.75608377671843" lon="15.177033232300312"><ele>146.0</ele><time>2026-03-27T15:22:57Z</time></trkpt><trkpt lat="37.755806270614315" lon="15.17692988740778"><ele>147.5</ele><time>2026-03-27T15:22:58Z</time></trkpt><trkpt lat="37.7555276104018" lon="15.17683751785404"><ele>149.0</ele><time>2026-03-27T15:22:59Z</time></trkpt><trkpt lat="37.75524496741812" lon="15.176755265594792"><ele>148.0</ele><time>2026-03-27T15:23:00Z</time></trkpt><trkpt lat="37.754962225979035" lon="15.176680760197378"><ele>147.0</ele><time>2026-03-27T15:23:01Z</time></trkpt><trkpt lat="37.75467560951676" lon="15.176608269032304"><ele>147.0</ele><time>2026-03-27T15:23:02Z</time></trkpt><trkpt lat="37.754385807262295" lon="15.176535503185056"><ele>147.0</ele><time>2026-03-27T15:23:03Z</time></trkpt><trkpt lat="37.75409330911581" lon="15.176459132160698"><ele>149.0</ele><time>2026-03-27T15:23:04Z</time></trkpt><trkpt lat="37.753800930525955" lon="15.176375933451514"><ele>151.0</ele><time>2026-03-27T15:23:05Z</time></trkpt><trkpt lat="37.7535066843608" lon="15.176289249335124"><ele>151.0</ele><time>2026-03-27T15:23:06Z</time></trkpt><trkpt lat="37.753213758151496" lon="15.176197124988361"><ele>151.0</ele><time>2026-03-27T15:23:07Z</time></trkpt><trkpt lat="37.75292583574186" lon="15.17609400307685"><ele>151.5</ele><time>2026-03-27T15:23:08Z</time></trkpt><trkpt lat="37.75264249498058" lon="15.175975154702874"><ele>152.0</ele><time>2026-03-27T15:23:09Z</time></trkpt><trkpt lat="37.75236201052717" lon="15.175847492330334"><ele>152.0</ele><time>2026-03-27T15:23:10Z</time></trkpt><trkpt lat="37.75208435423013" lon="15.175710827117364"><ele>152.0</ele><time>2026-03-27T15:23:11Z</time></trkpt><trkpt lat="37.75180856315212" lon="15.175561209008798"><ele>145.0</ele><time>2026-03-27T15:23:12Z</time></trkpt><trkpt lat="37.751537726491364" lon="15.175407397786367"><ele>138.0</ele><time>2026-03-27T15:23:13Z</time></trkpt><trkpt lat="37.75126592427038" lon="15.175261925070664"><ele>137.0</ele><time>2026-03-27T15:23:14Z</time></trkpt><trkpt lat="37.75099263053546" lon="15.17512448830116"><ele>136.0</ele><time>2026-03-27T15:23:15Z</time></trkpt><trkpt lat="37.75071796379429" lon="15.174998244438676"><ele>136.0</ele><time>2026-03-27T15:23:16Z</time></trkpt><trkpt lat="37.75044282329222" lon="15.174885057624824"><ele>136.0</ele><time>2026-03-27T15:23:17Z</time></trkpt><trkpt lat="37.75016615351778" lon="15.17478885065068"><ele>143.0</ele><time>2026-03-27T15:23:18Z</time></trkpt><trkpt lat="37.74988465446096" lon="15.174712118392533"><ele>150.0</ele><time>2026-03-27T15:23:19Z</time></trkpt><trkpt lat="37.74960322483025" lon="15.174651874624448"><ele>149.0</ele><time>2026-03-27T15:23:20Z</time></trkpt><trkpt lat="37.749321745186535" lon="15.174607553642138"><ele>148.0</ele><time>2026-03-27T15:23:21Z</time></trkpt><trkpt lat="37.7490399228862" lon="15.174578039143194"><ele>148.0</ele><time>2026-03-27T15:23:22Z</time></trkpt><trkpt lat="37.74875660122912" lon="15.174559576213897"><ele>148.0</ele><time>2026-03-27T15:23:23Z</time></trkpt><trkpt lat="37.74847220854438" lon="15.174556197361024"><ele>150.5</ele><time>2026-03-27T15:23:24Z</time></trkpt><trkpt lat="37.74819048833028" lon="15.174567783255275"><ele>153.0</ele><time>2026-03-27T15:23:25Z</time></trkpt><trkpt lat="37.74790993996956" lon="15.174592092077875"><ele>153.0</ele><time>2026-03-27T15:23:26Z</time></trkpt><trkpt lat="37.747621464240616" lon="15.174637287420788"><ele>153.0</ele><time>2026-03-27T15:23:27Z</time></trkpt><trkpt lat="37.747342831666586" lon="15.174654277629916"><ele>153.0</ele><time>2026-03-27T15:23:28Z</time></trkpt><trkpt lat="37.74705851759232" lon="15.17468184092744"><ele>153.0</ele><time>2026-03-27T15:23:29Z</time></trkpt><trkpt lat="37.74677582202453" lon="15.17470671563026"><ele>152.0</ele><time>2026-03-27T15:23:30Z</time></trkpt><trkpt lat="37.74648533508295" lon="15.174729027305956"><ele>151.0</ele><time>2026-03-27T15:23:31Z</time></trkpt><trkpt lat="37.74619024562617" lon="15.174747975652384"><ele>154.0</ele><time>2026-03-27T15:23:32Z</time></trkpt><trkpt lat="37.74589079606675" lon="15.174766668137517"><ele>157.0</ele><time>2026-03-27T15:23:33Z</time></trkpt><trkpt lat="37.74559430163979" lon="15.174780854889619"><ele>157.0</ele><time>2026-03-27T15:23:34Z</time></trkpt><trkpt lat="37.74529358408778" lon="15.17478623356697"><ele>157.0</ele><time>2026-03-27T15:23:35Z</time></trkpt><trkpt lat="37.74499156643157" lon="15.17477493641767"><ele>162.0</ele><time>2026-03-27T15:23:36Z</time></trkpt><trkpt lat="37.74468763611938" lon="15.17475073899449"><ele>167.0</ele><time>2026-03-27T15:23:37Z</time></trkpt><trkpt lat="37.744383242424966" lon="15.174718685959714"><ele>168.0</ele><time>2026-03-27T15:23:38Z</time></trkpt><trkpt lat="37.7440789163141" lon="15.174680494793295"><ele>169.0</ele><time>2026-03-27T15:23:39Z</time></trkpt><trkpt lat="37.74377438995986" lon="15.174643144520173"><ele>166.0</ele><time>2026-03-27T15:23:40Z</time></trkpt><trkpt lat="37.74346982490685" lon="15.174609482838378"><ele>163.0</ele><time>2026-03-27T15:23:41Z</time></trkpt><trkpt lat="37.74316630649764" lon="15.174576484095164"><ele>163.0</ele><time>2026-03-27T15:23:42Z</time></trkpt><trkpt lat="37.74286257260207" lon="15.174542026657774"><ele>163.0</ele><time>2026-03-27T15:23:43Z</time></trkpt><trkpt lat="37.74255708383798" lon="15.174506971503881"><ele>156.5</ele><time>2026-03-27T15:23:44Z</time></trkpt><trkpt lat="37.742255228311805" lon="15.174470931594534"><ele>150.0</ele><time>2026-03-27T15:23:45Z</time></trkpt><trkpt lat="37.74195095550204" lon="15.174435552301064"><ele>155.0</ele><time>2026-03-27T15:23:46Z</time></trkpt><trkpt lat="37.74164843132375" lon="15.174399902661504"><ele>160.0</ele><time>2026-03-27T15:23:47Z</time></trkpt><trkpt lat="37.74134402591777" lon="15.174365026311287"><ele>159.5</ele><time>2026-03-27T15:23:48Z</time></trkpt><trkpt lat="37.74104125365316" lon="15.174329887946438"><ele>159.0</ele><time>2026-03-27T15:23:49Z</time></trkpt><trkpt lat="37.7407422735611" lon="15.174296887142175"><ele>159.0</ele><time>2026-03-27T15:23:50Z</time></trkpt><trkpt lat="37.74044698809925" lon="15.1742651714604"><ele>159.0</ele><time>2026-03-27T15:23:51Z</time></trkpt><trkpt lat="37.740153464058686" lon="15.174232479922319"><ele>152.0</ele><time>2026-03-27T15:23:52Z</time></trkpt><trkpt lat="37.73986481366074" lon="15.17419887982756"><ele>145.0</ele><time>2026-03-27T15:23:53Z</time></trkpt><trkpt lat="37.739577400003036" lon="15.174166383695066"><ele>150.0</ele><time>2026-03-27T15:23:54Z</time></trkpt><trkpt lat="37.73928691820659" lon="15.174132247116868"><ele>155.0</ele><time>2026-03-27T15:23:55Z</time></trkpt><trkpt lat="37.738998716684506" lon="15.174097727320035"><ele>155.0</ele><time>2026-03-27T15:23:56Z</time></trkpt><trkpt lat="37.738711188518124" lon="15.174062312890674"><ele>155.0</ele><time>2026-03-27T15:23:57Z</time></trkpt><trkpt lat="37.73842405012802" lon="15.174029636577307"><ele>162.5</ele><time>2026-03-27T15:23:58Z</time></trkpt><trkpt lat="37.73813740313461" lon="15.173997575401426"><ele>170.0</ele><time>2026-03-27T15:23:59Z</time></trkpt><trkpt lat="37.73785011073744" lon="15.173967359013707"><ele>172.0</ele><time>2026-03-27T15:24:00Z</time></trkpt><trkpt lat="37.7375618825008" lon="15.173933850131116"><ele>174.0</ele><time>2026-03-27T15:24:01Z</time></trkpt><trkpt lat="37.73727117303056" lon="15.173898650498007"><ele>174.0</ele><time>2026-03-27T15:24:02Z</time></trkpt><trkpt lat="37.73697904069801" lon="15.173865873404425"><ele>174.0</ele><time>2026-03-27T15:24:03Z</time></trkpt><trkpt lat="37.736684715659095" lon="15.173834676094133"><ele>170.5</ele><time>2026-03-27T15:24:04Z</time></trkpt><trkpt lat="37.73638908418955" lon="15.173800980046869"><ele>167.0</ele><time>2026-03-27T15:24:05Z</time></trkpt><trkpt lat="37.73608942289051" lon="15.17376773070424"><ele>166.5</ele><time>2026-03-27T15:24:06Z</time></trkpt><trkpt lat="37.73578933416635" lon="15.173735688631979"><ele>166.0</ele><time>2026-03-27T15:24:07Z</time></trkpt><trkpt lat="37.735486838005336" lon="15.173704027945528"><ele>167.0</ele><time>2026-03-27T15:24:08Z</time></trkpt><trkpt lat="37.735184235758325" lon="15.173668311700988"><ele>168.0</ele><time>2026-03-27T15:24:09Z</time></trkpt><trkpt lat="37.73488278303075" lon="15.173622778455497"><ele>168.0</ele><time>2026-03-27T15:24:10Z</time></trkpt><trkpt lat="37.7345830347973" lon="15.173570427898953"><ele>168.0</ele><time>2026-03-27T15:24:11Z</time></trkpt><trkpt lat="37.734281802033856" lon="15.173514580076807"><ele>167.5</ele><time>2026-03-27T15:24:12Z</time></trkpt><trkpt lat="37.733980421645796" lon="15.173450764389937"><ele>167.0</ele><time>2026-03-27T15:24:13Z</time></trkpt><trkpt lat="37.73368032533403" lon="15.173378821730143"><ele>159.5</ele><time>2026-03-27T15:24:14Z</time></trkpt><trkpt lat="37.733379012327305" lon="15.173300989093704"><ele>152.0</ele><time>2026-03-27T15:24:15Z</time></trkpt><trkpt lat="37.73307635928993" lon="15.173216327021326"><ele>160.0</ele><time>2026-03-27T15:24:16Z</time></trkpt><trkpt lat="37.732775687737146" lon="15.173128826593208"><ele>168.0</ele><time>2026-03-27T15:24:17Z</time></trkpt><trkpt lat="37.732476441958795" lon="15.17303091436343"><ele>168.0</ele><time>2026-03-27T15:24:18Z</time></trkpt><trkpt lat="37.73217911680556" lon="15.172932043279182"><ele>168.0</ele><time>2026-03-27T15:24:19Z</time></trkpt><trkpt lat="37.73188386447661" lon="15.172828898278674"><ele>168.5</ele><time>2026-03-27T15:24:20Z</time></trkpt><trkpt lat="37.73159119042869" lon="15.172724733335984"><ele>169.0</ele><time>2026-03-27T15:24:21Z</time></trkpt><trkpt lat="37.73129809899826" lon="15.172617038962185"><ele>165.0</ele><time>2026-03-27T15:24:22Z</time></trkpt><trkpt lat="37.73100595027343" lon="15.172510279195265"><ele>161.0</ele><time>2026-03-27T15:24:23Z</time></trkpt><trkpt lat="37.73071364249847" lon="15.172403302724227"><ele>160.0</ele><time>2026-03-27T15:24:24Z</time></trkpt><trkpt lat="37.730429224945574" lon="15.172297381684032"><ele>159.0</ele><time>2026-03-27T15:24:25Z</time></trkpt><trkpt lat="37.73014716283107" lon="15.172195203036214"><ele>159.0</ele><time>2026-03-27T15:24:26Z</time></trkpt><trkpt lat="37.72986899737996" lon="15.172095655629326"><ele>159.0</ele><time>2026-03-27T15:24:27Z</time></trkpt><trkpt lat="37.72959075849929" lon="15.172003435138144"><ele>159.5</ele><time>2026-03-27T15:24:28Z</time></trkpt><trkpt lat="37.729308930934074" lon="15.17192792398371"><ele>160.0</ele><time>2026-03-27T15:24:29Z</time></trkpt><trkpt lat="37.72901917559024" lon="15.171868694735043"><ele>160.0</ele><time>2026-03-27T15:24:30Z</time></trkpt><trkpt lat="37.72872612154578" lon="15.171811909934169"><ele>160.0</ele><time>2026-03-27T15:24:31Z</time></trkpt><trkpt lat="37.72842998860675" lon="15.171760551930747"><ele>161.5</ele><time>2026-03-27T15:24:32Z</time></trkpt><trkpt lat="37.72813469987794" lon="15.171716591885218"><ele>163.0</ele><time>2026-03-27T15:24:33Z</time></trkpt><trkpt lat="37.727836286858675" lon="15.17168136772217"><ele>164.0</ele><time>2026-03-27T15:24:34Z</time></trkpt><trkpt lat="37.727538621571675" lon="15.171654961968278"><ele>165.0</ele><time>2026-03-27T15:24:35Z</time></trkpt><trkpt lat="37.72723978952458" lon="15.171636633221619"><ele>165.0</ele><time>2026-03-27T15:24:36Z</time></trkpt><trkpt lat="37.72693780498609" lon="15.171631444942093"><ele>165.0</ele><time>2026-03-27T15:24:37Z</time></trkpt><trkpt lat="37.72663706541188" lon="15.171632983463942"><ele>164.0</ele><time>2026-03-27T15:24:38Z</time></trkpt><trkpt lat="37.72633450955277" lon="15.171641848616416"><ele>163.0</ele><time>2026-03-27T15:24:39Z</time></trkpt><trkpt lat="37.726030015829785" lon="15.171667215063547"><ele>161.5</ele><time>2026-03-27T15:24:40Z</time></trkpt><trkpt lat="37.72572844431215" lon="15.171691528092243"><ele>160.0</ele><time>2026-03-27T15:24:41Z</time></trkpt><trkpt lat="37.725427679706264" lon="15.171730774672632"><ele>162.0</ele><time>2026-03-27T15:24:42Z</time></trkpt><trkpt lat="37.725124693244084" lon="15.171784589009562"><ele>164.0</ele><time>2026-03-27T15:24:43Z</time></trkpt><trkpt lat="37.72482474900397" lon="15.171849688049175"><ele>164.0</ele><time>2026-03-27T15:24:44Z</time></trkpt><trkpt lat="37.72452525308296" lon="15.171925494097591"><ele>164.0</ele><time>2026-03-27T15:24:45Z</time></trkpt><trkpt lat="37.724232267142185" lon="15.17200908948411"><ele>164.5</ele><time>2026-03-27T15:24:46Z</time></trkpt><trkpt lat="37.72393397903532" lon="15.17210648121394"><ele>165.0</ele><time>2026-03-27T15:24:47Z</time></trkpt><trkpt lat="37.723642805628735" lon="15.172206413903274"><ele>160.5</ele><time>2026-03-27T15:24:48Z</time></trkpt><trkpt lat="37.72335127678022" lon="15.172304222061857"><ele>156.0</ele><time>2026-03-27T15:24:49Z</time></trkpt><trkpt lat="37.723062303346445" lon="15.1723959450715"><ele>153.0</ele><time>2026-03-27T15:24:50Z</time></trkpt><trkpt lat="37.72277128930393" lon="15.172482145777845"><ele>150.0</ele><time>2026-03-27T15:24:51Z</time></trkpt><trkpt lat="37.72248453364176" lon="15.17256581790284"><ele>148.5</ele><time>2026-03-27T15:24:52Z</time></trkpt><trkpt lat="37.722197293055146" lon="15.172644179985564"><ele>147.0</ele><time>2026-03-27T15:24:53Z</time></trkpt><trkpt lat="37.72191152970289" lon="15.1727111433176"><ele>143.0</ele><time>2026-03-27T15:24:54Z</time></trkpt><trkpt lat="37.72162447947473" lon="15.172763759997279"><ele>139.0</ele><time>2026-03-27T15:24:55Z</time></trkpt><trkpt lat="37.72133796857138" lon="15.172805516286326"><ele>137.5</ele><time>2026-03-27T15:24:56Z</time></trkpt><trkpt lat="37.721054516910925" lon="15.17283852417784"><ele>136.0</ele><time>2026-03-27T15:24:57Z</time></trkpt><trkpt lat="37.72077166359423" lon="15.172859591863695"><ele>136.0</ele><time>2026-03-27T15:24:58Z</time></trkpt><trkpt lat="37.72049197990373" lon="15.172865297591109"><ele>136.0</ele><time>2026-03-27T15:24:59Z</time></trkpt><trkpt lat="37.72021325823289" lon="15.172861150274912"><ele>141.0</ele><time>2026-03-27T15:25:00Z</time></trkpt><trkpt lat="37.71993315987163" lon="15.172844871207898"><ele>146.0</ele><time>2026-03-27T15:25:01Z</time></trkpt><trkpt lat="37.719650128780614" lon="15.172820038256145"><ele>146.5</ele><time>2026-03-27T15:25:02Z</time></trkpt><trkpt lat="37.719368919550185" lon="15.17278088734465"><ele>147.0</ele><time>2026-03-27T15:25:03Z</time></trkpt><trkpt lat="37.7190908787955" lon="15.172730370931191"><ele>147.0</ele><time>2026-03-27T15:25:04Z</time></trkpt><trkpt lat="37.718811281658795" lon="15.172668173949479"><ele>147.0</ele><time>2026-03-27T15:25:05Z</time></trkpt><trkpt lat="37.71853474592444" lon="15.172597614275604"><ele>147.5</ele><time>2026-03-27T15:25:06Z</time></trkpt><trkpt lat="37.718251532129344" lon="15.172520752174488"><ele>148.0</ele><time>2026-03-27T15:25:07Z</time></trkpt><trkpt lat="37.71799812604928" lon="15.172425061191856"><ele>150.0</ele><time>2026-03-27T15:25:08Z</time></trkpt><trkpt lat="37.717728442229784" lon="15.17232760199458"><ele>152.0</ele><time>2026-03-27T15:25:09Z</time></trkpt><trkpt lat="37.71746464871062" lon="15.172217802979766"><ele>152.0</ele><time>2026-03-27T15:25:10Z</time></trkpt><trkpt lat="37.71720302699913" lon="15.172095675551295"><ele>152.0</ele><time>2026-03-27T15:25:11Z</time></trkpt><trkpt lat="37.71694308985419" lon="15.171965874148121"><ele>153.5</ele><time>2026-03-27T15:25:12Z</time></trkpt><trkpt lat="37.71668803536244" lon="15.171824543929626"><ele>155.0</ele><time>2026-03-27T15:25:13Z</time></trkpt><trkpt lat="37.71643790976326" lon="15.17167239554399"><ele>156.5</ele><time>2026-03-27T15:25:14Z</time></trkpt><trkpt lat="37.71618969933986" lon="15.171506543836864"><ele>158.0</ele><time>2026-03-27T15:25:15Z</time></trkpt><trkpt lat="37.71594725189639" lon="15.171334380446547"><ele>158.0</ele><time>2026-03-27T15:25:16Z</time></trkpt><trkpt lat="37.715705890891996" lon="15.171158334534516"><ele>158.0</ele><time>2026-03-27T15:25:17Z</time></trkpt><trkpt lat="37.71546862729657" lon="15.170978413927955"><ele>158.5</ele><time>2026-03-27T15:25:18Z</time></trkpt><trkpt lat="37.71523340524328" lon="15.170799595322888"><ele>159.0</ele><time>2026-03-27T15:25:19Z</time></trkpt><trkpt lat="37.71499521034296" lon="15.170622220491952"><ele>162.5</ele><time>2026-03-27T15:25:20Z</time></trkpt><trkpt lat="37.71476511840936" lon="15.170447526091797"><ele>166.0</ele><time>2026-03-27T15:25:21Z</time></trkpt><trkpt lat="37.71452766290544" lon="15.170276256263014"><ele>166.5</ele><time>2026-03-27T15:25:22Z</time></trkpt><trkpt lat="37.71428849450555" lon="15.170108672904206"><ele>167.0</ele><time>2026-03-27T15:25:23Z</time></trkpt><trkpt lat="37.714052032120264" lon="15.169942332237973"><ele>169.0</ele><time>2026-03-27T15:25:24Z</time></trkpt><trkpt lat="37.71381673451468" lon="15.169766553577684"><ele>171.0</ele><time>2026-03-27T15:25:25Z</time></trkpt><trkpt lat="37.713578339111024" lon="15.169595895583585"><ele>172.0</ele><time>2026-03-27T15:25:26Z</time></trkpt><trkpt lat="37.71334400028182" lon="15.169426605020954"><ele>173.0</ele><time>2026-03-27T15:25:27Z</time></trkpt><trkpt lat="37.71310322888378" lon="15.169257911096626"><ele>173.0</ele><time>2026-03-27T15:25:28Z</time></trkpt><trkpt lat="37.71286304365661" lon="15.169091760536139"><ele>173.0</ele><time>2026-03-27T15:25:29Z</time></trkpt><trkpt lat="37.71261460996359" lon="15.168934152516035"><ele>175.5</ele><time>2026-03-27T15:25:30Z</time></trkpt><trkpt lat="37.712362325010766" lon="15.168791262753992"><ele>178.0</ele><time>2026-03-27T15:25:31Z</time></trkpt><trkpt lat="37.712099042409086" lon="15.168660222339195"><ele>180.0</ele><time>2026-03-27T15:25:32Z</time></trkpt><trkpt lat="37.71183353804379" lon="15.168537480674273"><ele>182.0</ele><time>2026-03-27T15:25:33Z</time></trkpt><trkpt lat="37.71156613259789" lon="15.168424460643822"><ele>182.0</ele><time>2026-03-27T15:25:34Z</time></trkpt><trkpt lat="37.71129246847833" lon="15.168330915194057"><ele>182.0</ele><time>2026-03-27T15:25:35Z</time></trkpt><trkpt lat="37.71101935491771" lon="15.168238233940409"><ele>183.0</ele><time>2026-03-27T15:25:36Z</time></trkpt><trkpt lat="37.710742605078735" lon="15.168146444820376"><ele>184.0</ele><time>2026-03-27T15:25:37Z</time></trkpt><trkpt lat="37.710466404719504" lon="15.168058348405612"><ele>185.0</ele><time>2026-03-27T15:25:38Z</time></trkpt><trkpt lat="37.710189860308674" lon="15.167968133635547"><ele>186.0</ele><time>2026-03-27T15:25:39Z</time></trkpt><trkpt lat="37.70991032501491" lon="15.167896528587892"><ele>186.0</ele><time>2026-03-27T15:25:40Z</time></trkpt><trkpt lat="37.70963498853388" lon="15.167815527624958"><ele>186.0</ele><time>2026-03-27T15:25:41Z</time></trkpt><trkpt lat="37.70936027761546" lon="15.16773436873562"><ele>187.0</ele><time>2026-03-27T15:25:42Z</time></trkpt><trkpt lat="37.70908808602099" lon="15.167653854970027"><ele>188.0</ele><time>2026-03-27T15:25:43Z</time></trkpt><trkpt lat="37.70882594671707" lon="15.16757207019307"><ele>189.0</ele><time>2026-03-27T15:25:44Z</time></trkpt><trkpt lat="37.70856518022336" lon="15.16749494026217"><ele>190.0</ele><time>2026-03-27T15:25:45Z</time></trkpt><trkpt lat="37.70830441243033" lon="15.167420353287525"><ele>190.5</ele><time>2026-03-27T15:25:46Z</time></trkpt><trkpt lat="37.70804133886289" lon="15.167348596632522"><ele>191.0</ele><time>2026-03-27T15:25:47Z</time></trkpt><trkpt lat="37.70777884562556" lon="15.167278293629465"><ele>190.5</ele><time>2026-03-27T15:25:48Z</time></trkpt><trkpt lat="37.707514830990775" lon="15.16720633276832"><ele>190.0</ele><time>2026-03-27T15:25:49Z</time></trkpt><trkpt lat="37.70725301622617" lon="15.167132210759695"><ele>190.0</ele><time>2026-03-27T15:25:50Z</time></trkpt><trkpt lat="37.70699049378255" lon="15.167055703159985"><ele>190.0</ele><time>2026-03-27T15:25:51Z</time></trkpt><trkpt lat="37.70672602739278" lon="15.166977163696052"><ele>191.5</ele><time>2026-03-27T15:25:52Z</time></trkpt><trkpt lat="37.7064604096305" lon="15.16689659732972"><ele>193.0</ele><time>2026-03-27T15:25:53Z</time></trkpt><trkpt lat="37.70619691078174" lon="15.166818864923684"><ele>192.0</ele><time>2026-03-27T15:25:54Z</time></trkpt><trkpt lat="37.70593262511727" lon="15.166741114584756"><ele>191.0</ele><time>2026-03-27T15:25:55Z</time></trkpt><trkpt lat="37.70566861570551" lon="15.166662035169487"><ele>191.0</ele><time>2026-03-27T15:25:56Z</time></trkpt><trkpt lat="37.7054080774698" lon="15.166580320853484"><ele>191.0</ele><time>2026-03-27T15:25:57Z</time></trkpt><trkpt lat="37.70514499676004" lon="15.16649996192094"><ele>191.0</ele><time>2026-03-27T15:25:58Z</time></trkpt><trkpt lat="37.7048802106331" lon="15.166423182013295"><ele>191.0</ele><time>2026-03-27T15:25:59Z</time></trkpt><trkpt lat="37.704612624659234" lon="15.166349632218731"><ele>195.5</ele><time>2026-03-27T15:26:00Z</time></trkpt><trkpt lat="37.70434311653021" lon="15.166283135427177"><ele>200.0</ele><time>2026-03-27T15:26:01Z</time></trkpt><trkpt lat="37.70407241256491" lon="15.16622440278792"><ele>200.0</ele><time>2026-03-27T15:26:02Z</time></trkpt><trkpt lat="37.703801659447436" lon="15.166178159611334"><ele>200.0</ele><time>2026-03-27T15:26:03Z</time></trkpt><trkpt lat="37.70352845690115" lon="15.166145563567607"><ele>199.5</ele><time>2026-03-27T15:26:04Z</time></trkpt><trkpt lat="37.70325204383139" lon="15.166125894275577"><ele>199.0</ele><time>2026-03-27T15:26:05Z</time></trkpt><trkpt lat="37.70296799589225" lon="15.166117262889829"><ele>194.0</ele><time>2026-03-27T15:26:06Z</time></trkpt><trkpt lat="37.702679942157395" lon="15.166112465969581"><ele>189.0</ele><time>2026-03-27T15:26:07Z</time></trkpt><trkpt lat="37.70239324948253" lon="15.166119338413084"><ele>189.0</ele><time>2026-03-27T15:26:08Z</time></trkpt><trkpt lat="37.702102283421176" lon="15.166136185419631"><ele>189.0</ele><time>2026-03-27T15:26:09Z</time></trkpt><trkpt lat="37.70181278808441" lon="15.166163926311674"><ele>193.0</ele><time>2026-03-27T15:26:10Z</time></trkpt><trkpt lat="37.70152313360352" lon="15.166207421785696"><ele>197.0</ele><time>2026-03-27T15:26:11Z</time></trkpt><trkpt lat="37.70123556560324" lon="15.166264947697263"><ele>201.5</ele><time>2026-03-27T15:26:12Z</time></trkpt><trkpt lat="37.70094820835478" lon="15.166330967855219"><ele>206.0</ele><time>2026-03-27T15:26:13Z</time></trkpt><trkpt lat="37.700658419417024" lon="15.166397133729511"><ele>206.0</ele><time>2026-03-27T15:26:14Z</time></trkpt><trkpt lat="37.700375489949955" lon="15.166465081455769"><ele>206.0</ele><time>2026-03-27T15:26:15Z</time></trkpt><trkpt lat="37.70009025244545" lon="15.166533080989124"><ele>200.0</ele><time>2026-03-27T15:26:16Z</time></trkpt><trkpt lat="37.69980710008092" lon="15.166599011746918"><ele>194.0</ele><time>2026-03-27T15:26:17Z</time></trkpt><trkpt lat="37.69952567869394" lon="15.166662087907342"><ele>195.5</ele><time>2026-03-27T15:26:18Z</time></trkpt><trkpt lat="37.69924418728805" lon="15.166725529116835"><ele>197.0</ele><time>2026-03-27T15:26:19Z</time></trkpt><trkpt lat="37.69896326043411" lon="15.166788074355486"><ele>197.0</ele><time>2026-03-27T15:26:20Z</time></trkpt><trkpt lat="37.69868144892216" lon="15.166845100745373"><ele>197.0</ele><time>2026-03-27T15:26:21Z</time></trkpt><trkpt lat="37.69839740436479" lon="15.166889359802983"><ele>200.0</ele><time>2026-03-27T15:26:22Z</time></trkpt><trkpt lat="37.698113548794225" lon="15.166919264425703"><ele>203.0</ele><time>2026-03-27T15:26:23Z</time></trkpt><trkpt lat="37.69782675271854" lon="15.166938746390025"><ele>206.0</ele><time>2026-03-27T15:26:24Z</time></trkpt><trkpt lat="37.697539922355844" lon="15.166944517888991"><ele>209.0</ele><time>2026-03-27T15:26:25Z</time></trkpt><trkpt lat="37.697250043564715" lon="15.16694025558004"><ele>209.0</ele><time>2026-03-27T15:26:26Z</time></trkpt><trkpt lat="37.696960176516015" lon="15.16692118336869"><ele>209.0</ele><time>2026-03-27T15:26:27Z</time></trkpt><trkpt lat="37.69667098389741" lon="15.166891005309218"><ele>210.0</ele><time>2026-03-27T15:26:28Z</time></trkpt><trkpt lat="37.696383654262185" lon="15.166849914171582"><ele>211.0</ele><time>2026-03-27T15:26:29Z</time></trkpt><trkpt lat="37.69609502983955" lon="15.166798149376772"><ele>208.0</ele><time>2026-03-27T15:26:30Z</time></trkpt><trkpt lat="37.69580657058061" lon="15.166736380494742"><ele>205.0</ele><time>2026-03-27T15:26:31Z</time></trkpt><trkpt lat="37.69552322015704" lon="15.16666543021149"><ele>205.5</ele><time>2026-03-27T15:26:32Z</time></trkpt><trkpt lat="37.695237591231106" lon="15.166583814371476"><ele>206.0</ele><time>2026-03-27T15:26:33Z</time></trkpt><trkpt lat="37.69495415295491" lon="15.166492556081105"><ele>206.0</ele><time>2026-03-27T15:26:34Z</time></trkpt><trkpt lat="37.694669305354445" lon="15.166390631054279"><ele>206.0</ele><time>2026-03-27T15:26:35Z</time></trkpt><trkpt lat="37.69438671158889" lon="15.166279110295694"><ele>205.0</ele><time>2026-03-27T15:26:36Z</time></trkpt><trkpt lat="37.694106780976654" lon="15.16616104391812"><ele>204.0</ele><time>2026-03-27T15:26:37Z</time></trkpt><trkpt lat="37.693831507722514" lon="15.166039611188898"><ele>204.0</ele><time>2026-03-27T15:26:38Z</time></trkpt><trkpt lat="37.69355817538105" lon="15.165919149326454"><ele>204.0</ele><time>2026-03-27T15:26:39Z</time></trkpt><trkpt lat="37.69328334604132" lon="15.165802068538369"><ele>206.0</ele><time>2026-03-27T15:26:40Z</time></trkpt><trkpt lat="37.69301001226718" lon="15.165686219738074"><ele>208.0</ele><time>2026-03-27T15:26:41Z</time></trkpt><trkpt lat="37.69273571520898" lon="15.165569113768491"><ele>208.0</ele><time>2026-03-27T15:26:42Z</time></trkpt><trkpt lat="37.69245860154191" lon="15.165452271412386"><ele>208.0</ele><time>2026-03-27T15:26:43Z</time></trkpt><trkpt lat="37.69218509340088" lon="15.165334424469572"><ele>209.5</ele><time>2026-03-27T15:26:44Z</time></trkpt><trkpt lat="37.69190801214037" lon="15.165214096858989"><ele>211.0</ele><time>2026-03-27T15:26:45Z</time></trkpt><trkpt lat="37.69163010181558" lon="15.165094880052875"><ele>211.0</ele><time>2026-03-27T15:26:46Z</time></trkpt><trkpt lat="37.69134905728553" lon="15.164974275416933"><ele>211.0</ele><time>2026-03-27T15:26:47Z</time></trkpt><trkpt lat="37.69106830226624" lon="15.164852261124988"><ele>210.0</ele><time>2026-03-27T15:26:48Z</time></trkpt><trkpt lat="37.690786784771404" lon="15.16472949987255"><ele>209.0</ele><time>2026-03-27T15:26:49Z</time></trkpt><trkpt lat="37.69050518279798" lon="15.16460865134063"><ele>208.0</ele><time>2026-03-27T15:26:50Z</time></trkpt><trkpt lat="37.690224583426385" lon="15.164484943315754"><ele>207.0</ele><time>2026-03-27T15:26:51Z</time></trkpt><trkpt lat="37.68994688064463" lon="15.164360290225302"><ele>207.0</ele><time>2026-03-27T15:26:52Z</time></trkpt><trkpt lat="37.68966710782943" lon="15.164232741458008"><ele>207.0</ele><time>2026-03-27T15:26:53Z</time></trkpt><trkpt lat="37.689388495806696" lon="15.164105440243297"><ele>210.0</ele><time>2026-03-27T15:26:54Z</time></trkpt><trkpt lat="37.689110985877804" lon="15.163978638734738"><ele>213.0</ele><time>2026-03-27T15:26:55Z</time></trkpt><trkpt lat="37.688834577961934" lon="15.163849146678686"><ele>215.5</ele><time>2026-03-27T15:26:56Z</time></trkpt><trkpt lat="37.688559425888464" lon="15.163718135798845"><ele>218.0</ele><time>2026-03-27T15:26:57Z</time></trkpt><trkpt lat="37.68828612468815" lon="15.163581554694291"><ele>218.0</ele><time>2026-03-27T15:26:58Z</time></trkpt><trkpt lat="37.68801301981907" lon="15.163439654724245"><ele>218.0</ele><time>2026-03-27T15:26:59Z</time></trkpt><trkpt lat="37.687741621544625" lon="15.16328688470632"><ele>219.0</ele><time>2026-03-27T15:27:00Z</time></trkpt><trkpt lat="37.68747207730782" lon="15.163124542379144"><ele>220.0</ele><time>2026-03-27T15:27:01Z</time></trkpt><trkpt lat="37.68720421785596" lon="15.162953743707815"><ele>220.0</ele><time>2026-03-27T15:27:02Z</time></trkpt><trkpt lat="37.686939449691856" lon="15.16277458483195"><ele>220.0</ele><time>2026-03-27T15:27:03Z</time></trkpt><trkpt lat="37.686675707209346" lon="15.16259020963284"><ele>218.5</ele><time>2026-03-27T15:27:04Z</time></trkpt><trkpt lat="37.68641176912185" lon="15.162409687654838"><ele>217.0</ele><time>2026-03-27T15:27:05Z</time></trkpt><trkpt lat="37.686148433134775" lon="15.162228114371562"><ele>216.0</ele><time>2026-03-27T15:27:06Z</time></trkpt><trkpt lat="37.685889829372144" lon="15.162049303561432"><ele>215.0</ele><time>2026-03-27T15:27:07Z</time></trkpt><trkpt lat="37.68562927810248" lon="15.161875318939797"><ele>215.0</ele><time>2026-03-27T15:27:08Z</time></trkpt><trkpt lat="37.68537130962626" lon="15.161704574964396"><ele>215.0</ele><time>2026-03-27T15:27:09Z</time></trkpt><trkpt lat="37.685108768969144" lon="15.161532173509732"><ele>216.5</ele><time>2026-03-27T15:27:10Z</time></trkpt><trkpt lat="37.684846592334864" lon="15.161359668382314"><ele>218.0</ele><time>2026-03-27T15:27:11Z</time></trkpt><trkpt lat="37.68458447340716" lon="15.161186020295972"><ele>222.0</ele><time>2026-03-27T15:27:12Z</time></trkpt><trkpt lat="37.684325337386106" lon="15.16102141230107"><ele>226.0</ele><time>2026-03-27T15:27:13Z</time></trkpt><trkpt lat="37.68407109632204" lon="15.160854167182158"><ele>225.5</ele><time>2026-03-27T15:27:14Z</time></trkpt><trkpt lat="37.68381915616304" lon="15.160686764317614"><ele>225.0</ele><time>2026-03-27T15:27:15Z</time></trkpt><trkpt lat="37.68356892906695" lon="15.16052053175042"><ele>224.5</ele><time>2026-03-27T15:27:16Z</time></trkpt><trkpt lat="37.683317921509094" lon="15.160343260853574"><ele>224.0</ele><time>2026-03-27T15:27:17Z</time></trkpt><trkpt lat="37.68306620215102" lon="15.160165540385663"><ele>224.0</ele><time>2026-03-27T15:27:18Z</time></trkpt><trkpt lat="37.68281404946641" lon="15.159989152849949"><ele>224.0</ele><time>2026-03-27T15:27:19Z</time></trkpt><trkpt lat="37.68256010369243" lon="15.159812097273816"><ele>225.5</ele><time>2026-03-27T15:27:20Z</time></trkpt><trkpt lat="37.6823061421748" lon="15.159635080743119"><ele>227.0</ele><time>2026-03-27T15:27:21Z</time></trkpt><trkpt lat="37.682051089588015" lon="15.15945986181877"><ele>226.5</ele><time>2026-03-27T15:27:22Z</time></trkpt><trkpt lat="37.68179462132476" lon="15.159287150903818"><ele>226.0</ele><time>2026-03-27T15:27:23Z</time></trkpt><trkpt lat="37.68153803351253" lon="15.159114143924807"><ele>227.5</ele><time>2026-03-27T15:27:24Z</time></trkpt><trkpt lat="37.68127895166048" lon="15.158940961718475"><ele>229.0</ele><time>2026-03-27T15:27:25Z</time></trkpt><trkpt lat="37.68101918321703" lon="15.158773857877147"><ele>229.0</ele><time>2026-03-27T15:27:26Z</time></trkpt><trkpt lat="37.68075617170042" lon="15.158611503071018"><ele>229.0</ele><time>2026-03-27T15:27:27Z</time></trkpt><trkpt lat="37.680487465507184" lon="15.15846402368247"><ele>226.0</ele><time>2026-03-27T15:27:28Z</time></trkpt><trkpt lat="37.680214981584335" lon="15.158323882274443"><ele>223.0</ele><time>2026-03-27T15:27:29Z</time></trkpt><trkpt lat="37.6799373095991" lon="15.15819546840573"><ele>222.5</ele><time>2026-03-27T15:27:30Z</time></trkpt><trkpt lat="37.67965609569303" lon="15.158077986365443"><ele>222.0</ele><time>2026-03-27T15:27:31Z</time></trkpt><trkpt lat="37.67936990724381" lon="15.157968084004386"><ele>219.5</ele><time>2026-03-27T15:27:32Z</time></trkpt><trkpt lat="37.67908199569537" lon="15.15786384910162"><ele>217.0</ele><time>2026-03-27T15:27:33Z</time></trkpt><trkpt lat="37.678790684813876" lon="15.157766429534005"><ele>217.0</ele><time>2026-03-27T15:27:34Z</time></trkpt><trkpt lat="37.678498796221994" lon="15.157673753569831"><ele>217.0</ele><time>2026-03-27T15:27:35Z</time></trkpt><trkpt lat="37.678203845049595" lon="15.157585178958277"><ele>217.0</ele><time>2026-03-27T15:27:36Z</time></trkpt><trkpt lat="37.67790828508251" lon="15.157497418612197"><ele>217.0</ele><time>2026-03-27T15:27:37Z</time></trkpt><trkpt lat="37.67761248029275" lon="15.157406599523265"><ele>219.5</ele><time>2026-03-27T15:27:38Z</time></trkpt><trkpt lat="37.67731775244556" lon="15.157313873642448"><ele>222.0</ele><time>2026-03-27T15:27:39Z</time></trkpt><trkpt lat="37.677023673456496" lon="15.157219057904841"><ele>222.0</ele><time>2026-03-27T15:27:40Z</time></trkpt><trkpt lat="37.676730848099" lon="15.157116282568143"><ele>222.0</ele><time>2026-03-27T15:27:41Z</time></trkpt><trkpt lat="37.676442316809336" lon="15.15700200791429"><ele>222.0</ele><time>2026-03-27T15:27:42Z</time></trkpt><trkpt lat="37.67615812889589" lon="15.15687066073608"><ele>222.0</ele><time>2026-03-27T15:27:43Z</time></trkpt><trkpt lat="37.67587846824327" lon="15.156723889654208"><ele>221.0</ele><time>2026-03-27T15:27:44Z</time></trkpt><trkpt lat="37.6755988797784" lon="15.156565610026822"><ele>220.0</ele><time>2026-03-27T15:27:45Z</time></trkpt><trkpt lat="37.67532446219175" lon="15.1563941926795"><ele>218.0</ele><time>2026-03-27T15:27:46Z</time></trkpt><trkpt lat="37.675054108892816" lon="15.156209090976235"><ele>216.0</ele><time>2026-03-27T15:27:47Z</time></trkpt><trkpt lat="37.67478858238268" lon="15.15601223034998"><ele>216.0</ele><time>2026-03-27T15:27:48Z</time></trkpt><trkpt lat="37.67452742487643" lon="15.155805922175109"><ele>216.0</ele><time>2026-03-27T15:27:49Z</time></trkpt><trkpt lat="37.67426773043282" lon="15.155593963088185"><ele>214.0</ele><time>2026-03-27T15:27:50Z</time></trkpt><trkpt lat="37.67401237073465" lon="15.155382776363368"><ele>212.0</ele><time>2026-03-27T15:27:51Z</time></trkpt><trkpt lat="37.673757290005696" lon="15.155170952671057"><ele>212.0</ele><time>2026-03-27T15:27:52Z</time></trkpt><trkpt lat="37.67350077496788" lon="15.154965841845485"><ele>212.0</ele><time>2026-03-27T15:27:53Z</time></trkpt><trkpt lat="37.673239095319" lon="15.154760718035229"><ele>211.5</ele><time>2026-03-27T15:27:54Z</time></trkpt><trkpt lat="37.67298107784392" lon="15.154555327752469"><ele>211.0</ele><time>2026-03-27T15:27:55Z</time></trkpt><trkpt lat="37.67272121821295" lon="15.154348378045244"><ele>211.0</ele><time>2026-03-27T15:27:56Z</time></trkpt><trkpt lat="37.672461118200154" lon="15.154141904832082"><ele>211.0</ele><time>2026-03-27T15:27:57Z</time></trkpt><trkpt lat="37.67220349695963" lon="15.153935904124008"><ele>211.0</ele><time>2026-03-27T15:27:58Z</time></trkpt><trkpt lat="37.67194556722591" lon="15.153726537537459"><ele>211.0</ele><time>2026-03-27T15:27:59Z</time></trkpt><trkpt lat="37.671688419895126" lon="15.15351394013153"><ele>211.0</ele><time>2026-03-27T15:28:00Z</time></trkpt><trkpt lat="37.67143263349164" lon="15.153301892297756"><ele>211.0</ele><time>2026-03-27T15:28:01Z</time></trkpt><trkpt lat="37.67117798260508" lon="15.153091177665061"><ele>211.5</ele><time>2026-03-27T15:28:02Z</time></trkpt><trkpt lat="37.67092453833837" lon="15.152881072073027"><ele>212.0</ele><time>2026-03-27T15:28:03Z</time></trkpt><trkpt lat="37.67067240599417" lon="15.152677327164032"><ele>212.0</ele><time>2026-03-27T15:28:04Z</time></trkpt><trkpt lat="37.67041665525566" lon="15.152473662185368"><ele>212.0</ele><time>2026-03-27T15:28:05Z</time></trkpt><trkpt lat="37.67015968515636" lon="15.152274325359436"><ele>213.5</ele><time>2026-03-27T15:28:06Z</time></trkpt><trkpt lat="37.66989963021793" lon="15.152084282138855"><ele>215.0</ele><time>2026-03-27T15:28:07Z</time></trkpt><trkpt lat="37.66963562318636" lon="15.151902741691641"><ele>217.0</ele><time>2026-03-27T15:28:08Z</time></trkpt><trkpt lat="37.66936934928321" lon="15.151729890439816"><ele>219.0</ele><time>2026-03-27T15:28:09Z</time></trkpt><trkpt lat="37.66909960914924" lon="15.151567033546112"><ele>220.0</ele><time>2026-03-27T15:28:10Z</time></trkpt><trkpt lat="37.66882859579113" lon="15.151412441192132"><ele>221.0</ele><time>2026-03-27T15:28:11Z</time></trkpt><trkpt lat="37.66855517316637" lon="15.151262497556216"><ele>222.5</ele><time>2026-03-27T15:28:12Z</time></trkpt><trkpt lat="37.66827983073378" lon="15.151116833463178"><ele>224.0</ele><time>2026-03-27T15:28:13Z</time></trkpt><trkpt lat="37.66800385785437" lon="15.150975619023551"><ele>223.0</ele><time>2026-03-27T15:28:14Z</time></trkpt><trkpt lat="37.66772583145211" lon="15.150841944187485"><ele>222.0</ele><time>2026-03-27T15:28:15Z</time></trkpt><trkpt lat="37.66744412669909" lon="15.150719162445945"><ele>224.5</ele><time>2026-03-27T15:28:16Z</time></trkpt><trkpt lat="37.66715990437432" lon="15.150604734838778"><ele>227.0</ele><time>2026-03-27T15:28:17Z</time></trkpt><trkpt lat="37.666874883763334" lon="15.150498442466944"><ele>228.0</ele><time>2026-03-27T15:28:18Z</time></trkpt><trkpt lat="37.666588936315556" lon="15.150400855774304"><ele>229.0</ele><time>2026-03-27T15:28:19Z</time></trkpt><trkpt lat="37.666298680651856" lon="15.150310205320597"><ele>229.5</ele><time>2026-03-27T15:28:20Z</time></trkpt><trkpt lat="37.666006145383875" lon="15.150227730438754"><ele>230.0</ele><time>2026-03-27T15:28:21Z</time></trkpt><trkpt lat="37.66571070010355" lon="15.150154116916221"><ele>230.0</ele><time>2026-03-27T15:28:22Z</time></trkpt><trkpt lat="37.66541155716551" lon="15.150089768839768"><ele>230.0</ele><time>2026-03-27T15:28:23Z</time></trkpt><trkpt lat="37.66510975999651" lon="15.150035581861259"><ele>228.5</ele><time>2026-03-27T15:28:24Z</time></trkpt><trkpt lat="37.6648059018908" lon="15.149987213762143"><ele>227.0</ele><time>2026-03-27T15:28:25Z</time></trkpt><trkpt lat="37.66450125113733" lon="15.149947501932363"><ele>230.0</ele><time>2026-03-27T15:28:26Z</time></trkpt><trkpt lat="37.66419580771613" lon="15.14991621698985"><ele>233.0</ele><time>2026-03-27T15:28:27Z</time></trkpt><trkpt lat="37.66389218549396" lon="15.149893458659877"><ele>235.5</ele><time>2026-03-27T15:28:28Z</time></trkpt><trkpt lat="37.66358752488909" lon="15.149880373087074"><ele>238.0</ele><time>2026-03-27T15:28:29Z</time></trkpt><trkpt lat="37.66328205328309" lon="15.149872095065131"><ele>238.5</ele><time>2026-03-27T15:28:30Z</time></trkpt><trkpt lat="37.66297654295392" lon="15.149865270175155"><ele>239.0</ele><time>2026-03-27T15:28:31Z</time></trkpt><trkpt lat="37.66267428557242" lon="15.149861268961876"><ele>242.5</ele><time>2026-03-27T15:28:32Z</time></trkpt><trkpt lat="37.662371494153035" lon="15.149856578864787"><ele>246.0</ele><time>2026-03-27T15:28:33Z</time></trkpt><trkpt lat="37.66207052942308" lon="15.149850966845676"><ele>247.5</ele><time>2026-03-27T15:28:34Z</time></trkpt><trkpt lat="37.66176715532971" lon="15.149845561960298"><ele>249.0</ele><time>2026-03-27T15:28:35Z</time></trkpt><trkpt lat="37.66146339424848" lon="15.149839209263925"><ele>249.0</ele><time>2026-03-27T15:28:36Z</time></trkpt><trkpt lat="37.66115936800807" lon="15.149833663378958"><ele>249.0</ele><time>2026-03-27T15:28:37Z</time></trkpt><trkpt lat="37.6608545238538" lon="15.149827406757588"><ele>250.0</ele><time>2026-03-27T15:28:38Z</time></trkpt><trkpt lat="37.66054862756174" lon="15.149822442761259"><ele>251.0</ele><time>2026-03-27T15:28:39Z</time></trkpt><trkpt lat="37.66024205687189" lon="15.149816383350181"><ele>251.5</ele><time>2026-03-27T15:28:40Z</time></trkpt><trkpt lat="37.65993506503996" lon="15.149809253194745"><ele>252.0</ele><time>2026-03-27T15:28:41Z</time></trkpt><trkpt lat="37.659623855723325" lon="15.14980370450088"><ele>251.0</ele><time>2026-03-27T15:28:42Z</time></trkpt><trkpt lat="37.65931373180645" lon="15.149795343162436"><ele>250.0</ele><time>2026-03-27T15:28:43Z</time></trkpt><trkpt lat="37.65900301789016" lon="15.14978670041105"><ele>250.0</ele><time>2026-03-27T15:28:44Z</time></trkpt><trkpt lat="37.65868996545616" lon="15.149778919579521"><ele>250.0</ele><time>2026-03-27T15:28:45Z</time></trkpt><trkpt lat="37.658375511159065" lon="15.149771028379936"><ele>250.0</ele><time>2026-03-27T15:28:46Z</time></trkpt><trkpt lat="37.65805876050856" lon="15.149765808993827"><ele>250.0</ele><time>2026-03-27T15:28:47Z</time></trkpt><trkpt lat="37.65774158729363" lon="15.149763766142287"><ele>249.5</ele><time>2026-03-27T15:28:48Z</time></trkpt><trkpt lat="37.65742542282261" lon="15.149761097699692"><ele>249.0</ele><time>2026-03-27T15:28:49Z</time></trkpt><trkpt lat="37.6571084352609" lon="15.149759778546368"><ele>248.5</ele><time>2026-03-27T15:28:50Z</time></trkpt><trkpt lat="37.656792173372274" lon="15.149754588897425"><ele>248.0</ele><time>2026-03-27T15:28:51Z</time></trkpt><trkpt lat="37.656475751273454" lon="15.149747532708705"><ele>248.0</ele><time>2026-03-27T15:28:52Z</time></trkpt><trkpt lat="37.65616131645356" lon="15.1497383378596"><ele>248.0</ele><time>2026-03-27T15:28:53Z</time></trkpt><trkpt lat="37.65584813916944" lon="15.14973176595159"><ele>251.0</ele><time>2026-03-27T15:28:54Z</time></trkpt><trkpt lat="37.65553385004743" lon="15.149723613295226"><ele>254.0</ele><time>2026-03-27T15:28:55Z</time></trkpt><trkpt lat="37.65521819144755" lon="15.14971133969922"><ele>254.0</ele><time>2026-03-27T15:28:56Z</time></trkpt><trkpt lat="37.6549042971807" lon="15.149690197623025"><ele>254.0</ele><time>2026-03-27T15:28:57Z</time></trkpt><trkpt lat="37.65459271019437" lon="15.149661905535336"><ele>257.0</ele><time>2026-03-27T15:28:58Z</time></trkpt><trkpt lat="37.65428560027433" lon="15.149627037298483"><ele>260.0</ele><time>2026-03-27T15:28:59Z</time></trkpt><trkpt lat="37.653981402914894" lon="15.149589098422652"><ele>260.0</ele><time>2026-03-27T15:29:00Z</time></trkpt><trkpt lat="37.65367997584046" lon="15.149545373987676"><ele>260.0</ele><time>2026-03-27T15:29:01Z</time></trkpt><trkpt lat="37.65338134913344" lon="15.149495040382469"><ele>259.5</ele><time>2026-03-27T15:29:02Z</time></trkpt><trkpt lat="37.6530846463502" lon="15.14944055001728"><ele>259.0</ele><time>2026-03-27T15:29:03Z</time></trkpt><trkpt lat="37.65279046389991" lon="15.14937916648676"><ele>257.5</ele><time>2026-03-27T15:29:04Z</time></trkpt><trkpt lat="37.65249578956891" lon="15.149311645288964"><ele>256.0</ele><time>2026-03-27T15:29:05Z</time></trkpt><trkpt lat="37.65220179760744" lon="15.149234972922594"><ele>255.5</ele><time>2026-03-27T15:29:06Z</time></trkpt><trkpt lat="37.65190819841032" lon="15.149151770520541"><ele>255.0</ele><time>2026-03-27T15:29:07Z</time></trkpt><trkpt lat="37.6516137367187" lon="15.149063376770247"><ele>256.0</ele><time>2026-03-27T15:29:08Z</time></trkpt><trkpt lat="37.6513204779287" lon="15.148969666337258"><ele>257.0</ele><time>2026-03-27T15:29:09Z</time></trkpt><trkpt lat="37.651026421625815" lon="15.148874092032559"><ele>257.0</ele><time>2026-03-27T15:29:10Z</time></trkpt><trkpt lat="37.65073189573247" lon="15.148779619809671"><ele>257.0</ele><time>2026-03-27T15:29:11Z</time></trkpt><trkpt lat="37.65043659932137" lon="15.148684989070503"><ele>257.0</ele><time>2026-03-27T15:29:12Z</time></trkpt><trkpt lat="37.65013828450069" lon="15.148589419992607"><ele>257.0</ele><time>2026-03-27T15:29:13Z</time></trkpt><trkpt lat="37.64984024801107" lon="15.148491481892917"><ele>257.0</ele><time>2026-03-27T15:29:14Z</time></trkpt><trkpt lat="37.64954448650801" lon="15.148394846309833"><ele>257.0</ele><time>2026-03-27T15:29:15Z</time></trkpt><trkpt lat="37.649252772905726" lon="15.148300911480725"><ele>258.5</ele><time>2026-03-27T15:29:16Z</time></trkpt><trkpt lat="37.64896435987352" lon="15.148206322288607"><ele>260.0</ele><time>2026-03-27T15:29:17Z</time></trkpt><trkpt lat="37.64867844526605" lon="15.14811253656667"><ele>260.5</ele><time>2026-03-27T15:29:18Z</time></trkpt><trkpt lat="37.64839283552805" lon="15.148021378511618"><ele>261.0</ele><time>2026-03-27T15:29:19Z</time></trkpt><trkpt lat="37.648108809528814" lon="15.147930019635004"><ele>261.0</ele><time>2026-03-27T15:29:20Z</time></trkpt><trkpt lat="37.64782487016361" lon="15.147837876686125"><ele>261.0</ele><time>2026-03-27T15:29:21Z</time></trkpt><trkpt lat="37.64754034838704" lon="15.147744031448639"><ele>260.5</ele><time>2026-03-27T15:29:22Z</time></trkpt><trkpt lat="37.647257599188606" lon="15.147648809798591"><ele>260.0</ele><time>2026-03-27T15:29:23Z</time></trkpt><trkpt lat="37.6469745675665" lon="15.147556007743844"><ele>261.0</ele><time>2026-03-27T15:29:24Z</time></trkpt><trkpt lat="37.64669133224897" lon="15.147463083034994"><ele>262.0</ele><time>2026-03-27T15:29:25Z</time></trkpt><trkpt lat="37.6464080445154" lon="15.147372488903802"><ele>265.0</ele><time>2026-03-27T15:29:26Z</time></trkpt><trkpt lat="37.64612749358654" lon="15.147282913561174"><ele>268.0</ele><time>2026-03-27T15:29:27Z</time></trkpt><trkpt lat="37.64584757084019" lon="15.147193260178925"><ele>268.0</ele><time>2026-03-27T15:29:28Z</time></trkpt><trkpt lat="37.64556884593893" lon="15.147105578371187"><ele>268.0</ele><time>2026-03-27T15:29:29Z</time></trkpt><trkpt lat="37.64528684275566" lon="15.147015362147638"><ele>267.5</ele><time>2026-03-27T15:29:30Z</time></trkpt><trkpt lat="37.64500209140482" lon="15.146922207721282"><ele>267.0</ele><time>2026-03-27T15:29:31Z</time></trkpt><trkpt lat="37.644713640223145" lon="15.146828853691103"><ele>263.0</ele><time>2026-03-27T15:29:32Z</time></trkpt><trkpt lat="37.64442258033371" lon="15.146735280864306"><ele>259.0</ele><time>2026-03-27T15:29:33Z</time></trkpt><trkpt lat="37.644129903922476" lon="15.146639467484334"><ele>260.5</ele><time>2026-03-27T15:29:34Z</time></trkpt><trkpt lat="37.643836926742345" lon="15.146542718680873"><ele>262.0</ele><time>2026-03-27T15:29:35Z</time></trkpt><trkpt lat="37.64354367561642" lon="15.146449040175654"><ele>263.0</ele><time>2026-03-27T15:29:36Z</time></trkpt><trkpt lat="37.643247081940615" lon="15.146355793582567"><ele>264.0</ele><time>2026-03-27T15:29:37Z</time></trkpt><trkpt lat="37.642950103126644" lon="15.146259587403398"><ele>261.5</ele><time>2026-03-27T15:29:38Z</time></trkpt><trkpt lat="37.64265352255397" lon="15.146162106050298"><ele>259.0</ele><time>2026-03-27T15:29:39Z</time></trkpt><trkpt lat="37.64235702916906" lon="15.14606430523045"><ele>259.0</ele><time>2026-03-27T15:29:40Z</time></trkpt><trkpt lat="37.64206123062526" lon="15.145966245158426"><ele>259.0</ele><time>2026-03-27T15:29:41Z</time></trkpt><trkpt lat="37.64176545134541" lon="15.145868736666097"><ele>259.5</ele><time>2026-03-27T15:29:42Z</time></trkpt><trkpt lat="37.64147210019377" lon="15.145769936282234"><ele>260.0</ele><time>2026-03-27T15:29:43Z</time></trkpt><trkpt lat="37.64117499237125" lon="15.14567402715838"><ele>262.0</ele><time>2026-03-27T15:29:44Z</time></trkpt><trkpt lat="37.64087995448274" lon="15.145575394598916"><ele>264.0</ele><time>2026-03-27T15:29:45Z</time></trkpt><trkpt lat="37.64058631725405" lon="15.145479442303097"><ele>267.0</ele><time>2026-03-27T15:29:46Z</time></trkpt><trkpt lat="37.640299168490266" lon="15.145383867473885"><ele>270.0</ele><time>2026-03-27T15:29:47Z</time></trkpt><trkpt lat="37.640009350246174" lon="15.145290149791093"><ele>270.0</ele><time>2026-03-27T15:29:48Z</time></trkpt><trkpt lat="37.639715894244965" lon="15.145204680645131"><ele>270.0</ele><time>2026-03-27T15:29:49Z</time></trkpt><trkpt lat="37.63942134037992" lon="15.145125819332826"><ele>269.5</ele><time>2026-03-27T15:29:50Z</time></trkpt><trkpt lat="37.639130791403595" lon="15.14505269629931"><ele>269.0</ele><time>2026-03-27T15:29:51Z</time></trkpt><trkpt lat="37.638840624435275" lon="15.144985028028104"><ele>271.0</ele><time>2026-03-27T15:29:52Z</time></trkpt><trkpt lat="37.63855358940124" lon="15.144925807712827"><ele>273.0</ele><time>2026-03-27T15:29:53Z</time></trkpt><trkpt lat="37.638265602047895" lon="15.144878185285409"><ele>276.5</ele><time>2026-03-27T15:29:54Z</time></trkpt><trkpt lat="37.63798172627613" lon="15.144838021418161"><ele>280.0</ele><time>2026-03-27T15:29:55Z</time></trkpt><trkpt lat="37.637706641296965" lon="15.144804200992136"><ele>281.5</ele><time>2026-03-27T15:29:56Z</time></trkpt><trkpt lat="37.63743761392746" lon="15.144778696684195"><ele>283.0</ele><time>2026-03-27T15:29:57Z</time></trkpt><trkpt lat="37.63717487739874" lon="15.14475912373473"><ele>283.0</ele><time>2026-03-27T15:29:58Z</time></trkpt><trkpt lat="37.636917355606656" lon="15.144738805441683"><ele>283.0</ele><time>2026-03-27T15:29:59Z</time></trkpt><trkpt lat="37.63666594115089" lon="15.144715424263284"><ele>283.0</ele><time>2026-03-27T15:30:00Z</time></trkpt><trkpt lat="37.63641744595701" lon="15.14469174601802"><ele>283.0</ele><time>2026-03-27T15:30:01Z</time></trkpt><trkpt lat="37.63617218515528" lon="15.144670652492563"><ele>285.5</ele><time>2026-03-27T15:30:02Z</time></trkpt><trkpt lat="37.63592768626506" lon="15.144650770816837"><ele>288.0</ele><time>2026-03-27T15:30:03Z</time></trkpt><trkpt lat="37.63568550444855" lon="15.144629400993052"><ele>288.0</ele><time>2026-03-27T15:30:04Z</time></trkpt><trkpt lat="37.635444714494014" lon="15.144606036590497"><ele>288.0</ele><time>2026-03-27T15:30:05Z</time></trkpt><trkpt lat="37.635203573907496" lon="15.144583643399363"><ele>288.0</ele><time>2026-03-27T15:30:06Z</time></trkpt><trkpt lat="37.634959267056196" lon="15.144557465361531"><ele>288.0</ele><time>2026-03-27T15:30:07Z</time></trkpt><trkpt lat="37.63471737231444" lon="15.144525339301387"><ele>286.0</ele><time>2026-03-27T15:30:08Z</time></trkpt><trkpt lat="37.634470489737666" lon="15.1444854938621"><ele>284.0</ele><time>2026-03-27T15:30:09Z</time></trkpt><trkpt lat="37.63422265881057" lon="15.14443294381637"><ele>284.0</ele><time>2026-03-27T15:30:10Z</time></trkpt><trkpt lat="37.633974398589324" lon="15.144371983167535"><ele>284.0</ele><time>2026-03-27T15:30:11Z</time></trkpt><trkpt lat="37.63372285286883" lon="15.144301418249485"><ele>283.0</ele><time>2026-03-27T15:30:12Z</time></trkpt><trkpt lat="37.63346740989461" lon="15.144217319863452"><ele>282.0</ele><time>2026-03-27T15:30:13Z</time></trkpt><trkpt lat="37.633209853318675" lon="15.144125163363574"><ele>282.5</ele><time>2026-03-27T15:30:14Z</time></trkpt><trkpt lat="37.6329498666126" lon="15.144023845730313"><ele>283.0</ele><time>2026-03-27T15:30:15Z</time></trkpt><trkpt lat="37.632695848740276" lon="15.143915276025776"><ele>281.5</ele><time>2026-03-27T15:30:16Z</time></trkpt><trkpt lat="37.63244902007935" lon="15.143803039327898"><ele>280.0</ele><time>2026-03-27T15:30:17Z</time></trkpt><trkpt lat="37.632209701844005" lon="15.143681079150294"><ele>280.0</ele><time>2026-03-27T15:30:18Z</time></trkpt><trkpt lat="37.63197453944046" lon="15.143556577307308"><ele>280.0</ele><time>2026-03-27T15:30:19Z</time></trkpt><trkpt lat="37.631738683704064" lon="15.143434010636662"><ele>279.0</ele><time>2026-03-27T15:30:20Z</time></trkpt><trkpt lat="37.63151113841867" lon="15.143313089528332"><ele>278.0</ele><time>2026-03-27T15:30:21Z</time></trkpt><trkpt lat="37.63129165640536" lon="15.143196478339668"><ele>281.5</ele><time>2026-03-27T15:30:22Z</time></trkpt><trkpt lat="37.63107675582289" lon="15.143084132322493"><ele>285.0</ele><time>2026-03-27T15:30:23Z</time></trkpt><trkpt lat="37.63086265941451" lon="15.142973238284027"><ele>285.0</ele><time>2026-03-27T15:30:24Z</time></trkpt><trkpt lat="37.630649140741255" lon="15.14286093898591"><ele>285.0</ele><time>2026-03-27T15:30:25Z</time></trkpt><trkpt lat="37.63043928362487" lon="15.142752946354193"><ele>286.0</ele><time>2026-03-27T15:30:26Z</time></trkpt><trkpt lat="37.630231904737435" lon="15.14264602340627"><ele>287.0</ele><time>2026-03-27T15:30:27Z</time></trkpt><trkpt lat="37.63002328297279" lon="15.142545293718168"><ele>288.0</ele><time>2026-03-27T15:30:28Z</time></trkpt><trkpt lat="37.629815538924646" lon="15.142451882231889"><ele>288.3333333333333</ele><time>2026-03-27T15:30:29Z</time></trkpt><trkpt lat="37.62960430037697" lon="15.142364354188894"><ele>288.66666666666663</ele><time>2026-03-27T15:30:30Z</time></trkpt><trkpt lat="37.629388410415984" lon="15.14228009440672"><ele>289.0</ele><time>2026-03-27T15:30:31Z</time></trkpt><trkpt lat="37.62917096499949" lon="15.142198675910704"><ele>289.5</ele><time>2026-03-27T15:30:32Z</time></trkpt><trkpt lat="37.628949948595874" lon="15.142121724341633"><ele>290.0</ele><time>2026-03-27T15:30:33Z</time></trkpt><trkpt lat="37.628725938970895" lon="15.142047945923844"><ele>290.5</ele><time>2026-03-27T15:30:34Z</time></trkpt><trkpt lat="37.62849793469438" lon="15.141978921827654"><ele>291.0</ele><time>2026-03-27T15:30:35Z</time></trkpt><trkpt lat="37.62826257489591" lon="15.1419147616435"><ele>291.0</ele><time>2026-03-27T15:30:36Z</time></trkpt><trkpt lat="37.62801772771443" lon="15.141853111132635"><ele>291.0</ele><time>2026-03-27T15:30:37Z</time></trkpt><trkpt lat="37.6277680551401" lon="15.141793929194645"><ele>291.0</ele><time>2026-03-27T15:30:38Z</time></trkpt><trkpt lat="37.627519121968085" lon="15.141731952459502"><ele>291.0</ele><time>2026-03-27T15:30:39Z</time></trkpt><trkpt lat="37.62726561560695" lon="15.141668740302016"><ele>291.0</ele><time>2026-03-27T15:30:40Z</time></trkpt><trkpt lat="37.627011009101906" lon="15.141602739869597"><ele>291.0</ele><time>2026-03-27T15:30:41Z</time></trkpt><trkpt lat="37.62675287428404" lon="15.141535979113598"><ele>292.5</ele><time>2026-03-27T15:30:42Z</time></trkpt><trkpt lat="37.626491100279495" lon="15.141470664947938"><ele>294.0</ele><time>2026-03-27T15:30:43Z</time></trkpt><trkpt lat="37.62622894726905" lon="15.141404854797004"><ele>290.0</ele><time>2026-03-27T15:30:44Z</time></trkpt><trkpt lat="37.62596588499515" lon="15.14134070979731"><ele>286.0</ele><time>2026-03-27T15:30:45Z</time></trkpt><trkpt lat="37.625701472283566" lon="15.141276673272385"><ele>286.0</ele><time>2026-03-27T15:30:46Z</time></trkpt><trkpt lat="37.62543808336525" lon="15.141207037375708"><ele>286.0</ele><time>2026-03-27T15:30:47Z</time></trkpt><trkpt lat="37.625176848470744" lon="15.141126164197848"><ele>285.0</ele><time>2026-03-27T15:30:48Z</time></trkpt><trkpt lat="37.62491440302538" lon="15.141033044854549"><ele>284.0</ele><time>2026-03-27T15:30:49Z</time></trkpt><trkpt lat="37.62464791754805" lon="15.14092929298042"><ele>282.5</ele><time>2026-03-27T15:30:50Z</time></trkpt><trkpt lat="37.62438230072105" lon="15.140814643832885"><ele>281.0</ele><time>2026-03-27T15:30:51Z</time></trkpt><trkpt lat="37.624119039191704" lon="15.140685862042798"><ele>280.5</ele><time>2026-03-27T15:30:52Z</time></trkpt><trkpt lat="37.62386117714473" lon="15.140543547724597"><ele>280.0</ele><time>2026-03-27T15:30:53Z</time></trkpt><trkpt lat="37.623603210578956" lon="15.14040249443688"><ele>280.0</ele><time>2026-03-27T15:30:54Z</time></trkpt><trkpt lat="37.623358167412476" lon="15.140243076533617"><ele>280.0</ele><time>2026-03-27T15:30:55Z</time></trkpt><trkpt lat="37.623109823559986" lon="15.140078193973926"><ele>280.0</ele><time>2026-03-27T15:30:56Z</time></trkpt><trkpt lat="37.622870674010045" lon="15.139902415846855"><ele>280.0</ele><time>2026-03-27T15:30:57Z</time></trkpt><trkpt lat="37.622633377014424" lon="15.139716185068073"><ele>280.0</ele><time>2026-03-27T15:30:58Z</time></trkpt><trkpt lat="37.62240416244267" lon="15.139520342355695"><ele>280.0</ele><time>2026-03-27T15:30:59Z</time></trkpt><trkpt lat="37.62218275192313" lon="15.139314445528026"><ele>279.0</ele><time>2026-03-27T15:31:00Z</time></trkpt><trkpt lat="37.62197357085404" lon="15.1391021280222"><ele>278.0</ele><time>2026-03-27T15:31:01Z</time></trkpt><trkpt lat="37.621764124232115" lon="15.138895072689166"><ele>278.0</ele><time>2026-03-27T15:31:02Z</time></trkpt><trkpt lat="37.62155486508693" lon="15.138678701758856"><ele>278.0</ele><time>2026-03-27T15:31:03Z</time></trkpt><trkpt lat="37.62134878518708" lon="15.138450263673164"><ele>276.0</ele><time>2026-03-27T15:31:04Z</time></trkpt><trkpt lat="37.621140880339965" lon="15.138208423848411"><ele>274.0</ele><time>2026-03-27T15:31:05Z</time></trkpt><trkpt lat="37.62092892104257" lon="15.137960478548582"><ele>274.0</ele><time>2026-03-27T15:31:06Z</time></trkpt><trkpt lat="37.6207100581757" lon="15.137714221810455"><ele>274.0</ele><time>2026-03-27T15:31:07Z</time></trkpt><trkpt lat="37.620491360539326" lon="15.137467445389277"><ele>277.5</ele><time>2026-03-27T15:31:08Z</time></trkpt><trkpt lat="37.620271309354315" lon="15.137224366005865"><ele>281.0</ele><time>2026-03-27T15:31:09Z</time></trkpt><trkpt lat="37.62005580283071" lon="15.136983299594897"><ele>281.0</ele><time>2026-03-27T15:31:10Z</time></trkpt><trkpt lat="37.61984223763379" lon="15.136741346299784"><ele>281.0</ele><time>2026-03-27T15:31:11Z</time></trkpt><trkpt lat="37.61962620286113" lon="15.13650309397678"><ele>282.5</ele><time>2026-03-27T15:31:12Z</time></trkpt><trkpt lat="37.61940232658668" lon="15.136276791712213"><ele>284.0</ele><time>2026-03-27T15:31:13Z</time></trkpt><trkpt lat="37.61916633005906" lon="15.136063170937222"><ele>284.0</ele><time>2026-03-27T15:31:14Z</time></trkpt><trkpt lat="37.61892314741074" lon="15.135862039985284"><ele>284.0</ele><time>2026-03-27T15:31:15Z</time></trkpt><trkpt lat="37.618672541579464" lon="15.135670075402434"><ele>283.5</ele><time>2026-03-27T15:31:16Z</time></trkpt><trkpt lat="37.61841069594809" lon="15.135498371622997"><ele>283.0</ele><time>2026-03-27T15:31:17Z</time></trkpt><trkpt lat="37.61815016379747" lon="15.135328518659335"><ele>283.0</ele><time>2026-03-27T15:31:18Z</time></trkpt><trkpt lat="37.617884960362964" lon="15.135169411025496"><ele>283.0</ele><time>2026-03-27T15:31:19Z</time></trkpt><trkpt lat="37.61761744841342" lon="15.135018910721561"><ele>283.5</ele><time>2026-03-27T15:31:20Z</time></trkpt><trkpt lat="37.61734721695687" lon="15.134877036815261"><ele>284.0</ele><time>2026-03-27T15:31:21Z</time></trkpt><trkpt lat="37.61707266983114" lon="15.13474781661693"><ele>283.5</ele><time>2026-03-27T15:31:22Z</time></trkpt><trkpt lat="37.616796265910594" lon="15.13463036497883"><ele>283.0</ele><time>2026-03-27T15:31:23Z</time></trkpt><trkpt lat="37.616517492451614" lon="15.134522463279092"><ele>283.0</ele><time>2026-03-27T15:31:24Z</time></trkpt><trkpt lat="37.61623454086204" lon="15.134427384197929"><ele>283.0</ele><time>2026-03-27T15:31:25Z</time></trkpt><trkpt lat="37.61594876006382" lon="15.134341726894421"><ele>283.5</ele><time>2026-03-27T15:31:26Z</time></trkpt><trkpt lat="37.61565940630627" lon="15.134271961012264"><ele>284.0</ele><time>2026-03-27T15:31:27Z</time></trkpt><trkpt lat="37.615368567652574" lon="15.134210609434058"><ele>286.0</ele><time>2026-03-27T15:31:28Z</time></trkpt><trkpt lat="37.61507570147932" lon="15.134159793053762"><ele>288.0</ele><time>2026-03-27T15:31:29Z</time></trkpt><trkpt lat="37.61477957062926" lon="15.13412201207312"><ele>287.5</ele><time>2026-03-27T15:31:30Z</time></trkpt><trkpt lat="37.61448329999123" lon="15.134098179687427"><ele>287.0</ele><time>2026-03-27T15:31:31Z</time></trkpt><trkpt lat="37.61418697692682" lon="15.1340880136519"><ele>287.0</ele><time>2026-03-27T15:31:32Z</time></trkpt><trkpt lat="37.61389290453779" lon="15.13408712110129"><ele>287.0</ele><time>2026-03-27T15:31:33Z</time></trkpt><trkpt lat="37.61359486862202" lon="15.134099678671099"><ele>287.5</ele><time>2026-03-27T15:31:34Z</time></trkpt><trkpt lat="37.613298043495426" lon="15.134124500942267"><ele>288.0</ele><time>2026-03-27T15:31:35Z</time></trkpt><trkpt lat="37.613002883959744" lon="15.134162340329643"><ele>287.0</ele><time>2026-03-27T15:31:36Z</time></trkpt><trkpt lat="37.61270789543725" lon="15.134207626578945"><ele>286.0</ele><time>2026-03-27T15:31:37Z</time></trkpt><trkpt lat="37.61241446016273" lon="15.134256367926747"><ele>286.0</ele><time>2026-03-27T15:31:38Z</time></trkpt><trkpt lat="37.61212164672642" lon="15.13430318255212"><ele>286.0</ele><time>2026-03-27T15:31:39Z</time></trkpt><trkpt lat="37.61182822383226" lon="15.13434804600928"><ele>286.0</ele><time>2026-03-27T15:31:40Z</time></trkpt><trkpt lat="37.61153401901702" lon="15.134390799555161"><ele>286.0</ele><time>2026-03-27T15:31:41Z</time></trkpt><trkpt lat="37.611244214063504" lon="15.134432568303911"><ele>286.5</ele><time>2026-03-27T15:31:42Z</time></trkpt><trkpt lat="37.61095166025988" lon="15.134478017461191"><ele>287.0</ele><time>2026-03-27T15:31:43Z</time></trkpt><trkpt lat="37.610669196519034" lon="15.13451679919138"><ele>287.0</ele><time>2026-03-27T15:31:44Z</time></trkpt><trkpt lat="37.610390645041115" lon="15.134550133508782"><ele>287.0</ele><time>2026-03-27T15:31:45Z</time></trkpt><trkpt lat="37.6101170632924" lon="15.134576092256298"><ele>285.0</ele><time>2026-03-27T15:31:46Z</time></trkpt><trkpt lat="37.609843434317916" lon="15.134589034333427"><ele>283.0</ele><time>2026-03-27T15:31:47Z</time></trkpt><trkpt lat="37.60957041083252" lon="15.13458919289972"><ele>282.5</ele><time>2026-03-27T15:31:48Z</time></trkpt><trkpt lat="37.60930077008476" lon="15.134576298091282"><ele>282.0</ele><time>2026-03-27T15:31:49Z</time></trkpt><trkpt lat="37.60903116047796" lon="15.134553621464304"><ele>282.0</ele><time>2026-03-27T15:31:50Z</time></trkpt><trkpt lat="37.608760596559186" lon="15.134520873394647"><ele>282.0</ele><time>2026-03-27T15:31:51Z</time></trkpt><trkpt lat="37.608490871279905" lon="15.13448226361924"><ele>281.0</ele><time>2026-03-27T15:31:52Z</time></trkpt><trkpt lat="37.60822113930749" lon="15.13443272900413"><ele>280.0</ele><time>2026-03-27T15:31:53Z</time></trkpt><trkpt lat="37.60795542784491" lon="15.13437019503451"><ele>280.5</ele><time>2026-03-27T15:31:54Z</time></trkpt><trkpt lat="37.607692419514436" lon="15.134296682154293"><ele>281.0</ele><time>2026-03-27T15:31:55Z</time></trkpt><trkpt lat="37.60742895529042" lon="15.134212507006174"><ele>281.0</ele><time>2026-03-27T15:31:56Z</time></trkpt><trkpt lat="37.60716038676158" lon="15.134122561443203"><ele>281.0</ele><time>2026-03-27T15:31:57Z</time></trkpt><trkpt lat="37.606889522038585" lon="15.134012940409741"><ele>282.0</ele><time>2026-03-27T15:31:58Z</time></trkpt><trkpt lat="37.606614628753995" lon="15.1338946549526"><ele>283.0</ele><time>2026-03-27T15:31:59Z</time></trkpt><trkpt lat="37.60634381256435" lon="15.133766134941661"><ele>280.5</ele><time>2026-03-27T15:32:00Z</time></trkpt><trkpt lat="37.60607055123541" lon="15.1336330508711"><ele>278.0</ele><time>2026-03-27T15:32:01Z</time></trkpt><trkpt lat="37.60579496836883" lon="15.13350400619917"><ele>278.0</ele><time>2026-03-27T15:32:02Z</time></trkpt><trkpt lat="37.605516942597305" lon="15.133379159323121"><ele>278.0</ele><time>2026-03-27T15:32:03Z</time></trkpt><trkpt lat="37.60523941980629" lon="15.1332512689669"><ele>279.5</ele><time>2026-03-27T15:32:04Z</time></trkpt><trkpt lat="37.604961912840885" lon="15.133119917587146"><ele>281.0</ele><time>2026-03-27T15:32:05Z</time></trkpt><trkpt lat="37.604687239031115" lon="15.132989584978228"><ele>280.0</ele><time>2026-03-27T15:32:06Z</time></trkpt><trkpt lat="37.60440838153437" lon="15.132855743135016"><ele>279.0</ele><time>2026-03-27T15:32:07Z</time></trkpt><trkpt lat="37.60413203764135" lon="15.132724273944731"><ele>279.0</ele><time>2026-03-27T15:32:08Z</time></trkpt><trkpt lat="37.60385988662877" lon="15.132596076227594"><ele>279.0</ele><time>2026-03-27T15:32:09Z</time></trkpt><trkpt lat="37.60359783169317" lon="15.132473478986162"><ele>282.0</ele><time>2026-03-27T15:32:10Z</time></trkpt><trkpt lat="37.60334663447319" lon="15.13235525270936"><ele>285.0</ele><time>2026-03-27T15:32:11Z</time></trkpt><trkpt lat="37.60310553040628" lon="15.132240593281834"><ele>285.0</ele><time>2026-03-27T15:32:12Z</time></trkpt><trkpt lat="37.602866696264385" lon="15.132128954212487"><ele>285.0</ele><time>2026-03-27T15:32:13Z</time></trkpt><trkpt lat="37.60263279660781" lon="15.132021283987728"><ele>288.0</ele><time>2026-03-27T15:32:14Z</time></trkpt><trkpt lat="37.6024041541955" lon="15.131914340784732"><ele>291.0</ele><time>2026-03-27T15:32:15Z</time></trkpt><trkpt lat="37.60217873327545" lon="15.131808281516989"><ele>292.0</ele><time>2026-03-27T15:32:16Z</time></trkpt><trkpt lat="37.60195662965645" lon="15.131703936662912"><ele>293.0</ele><time>2026-03-27T15:32:17Z</time></trkpt><trkpt lat="37.6017338291872" lon="15.131597118067328"><ele>293.5</ele><time>2026-03-27T15:32:18Z</time></trkpt><trkpt lat="37.601503260588174" lon="15.131488114257309"><ele>294.0</ele><time>2026-03-27T15:32:19Z</time></trkpt><trkpt lat="37.601260928129435" lon="15.13137811067803"><ele>294.5</ele><time>2026-03-27T15:32:20Z</time></trkpt><trkpt lat="37.60101898398031" lon="15.131264625612912"><ele>295.0</ele><time>2026-03-27T15:32:21Z</time></trkpt><trkpt lat="37.60077108775935" lon="15.13115000117218"><ele>295.0</ele><time>2026-03-27T15:32:22Z</time></trkpt><trkpt lat="37.60051865994323" lon="15.13103341848254"><ele>295.0</ele><time>2026-03-27T15:32:23Z</time></trkpt><trkpt lat="37.600260105537316" lon="15.130915841080785"><ele>294.0</ele><time>2026-03-27T15:32:24Z</time></trkpt><trkpt lat="37.59999817544355" lon="15.130794152075717"><ele>293.0</ele><time>2026-03-27T15:32:25Z</time></trkpt><trkpt lat="37.599733681381416" lon="15.130668952050613"><ele>292.0</ele><time>2026-03-27T15:32:26Z</time></trkpt><trkpt lat="37.599467103151056" lon="15.130540728238477"><ele>291.0</ele><time>2026-03-27T15:32:27Z</time></trkpt><trkpt lat="37.59919812475424" lon="15.130411707733494"><ele>291.0</ele><time>2026-03-27T15:32:28Z</time></trkpt><trkpt lat="37.59892856161557" lon="15.130283274752989"><ele>291.0</ele><time>2026-03-27T15:32:29Z</time></trkpt><trkpt lat="37.59865590063936" lon="15.130158135488486"><ele>292.0</ele><time>2026-03-27T15:32:30Z</time></trkpt><trkpt lat="37.59838128525764" lon="15.130038591583649"><ele>293.0</ele><time>2026-03-27T15:32:31Z</time></trkpt><trkpt lat="37.59810434751156" lon="15.129926209447063"><ele>294.5</ele><time>2026-03-27T15:32:32Z</time></trkpt><trkpt lat="37.59782509274119" lon="15.129824330278694"><ele>296.0</ele><time>2026-03-27T15:32:33Z</time></trkpt><trkpt lat="37.59754332042409" lon="15.129732195566557"><ele>296.0</ele><time>2026-03-27T15:32:34Z</time></trkpt><trkpt lat="37.59725486460067" lon="15.129651329783481"><ele>296.0</ele><time>2026-03-27T15:32:35Z</time></trkpt><trkpt lat="37.59696786730529" lon="15.129572537650343"><ele>297.0</ele><time>2026-03-27T15:32:36Z</time></trkpt><trkpt lat="37.596679277862" lon="15.12950025111724"><ele>298.0</ele><time>2026-03-27T15:32:37Z</time></trkpt><trkpt lat="37.596388883169354" lon="15.129437752165265"><ele>297.5</ele><time>2026-03-27T15:32:38Z</time></trkpt><trkpt lat="37.59609703142034" lon="15.129379056621355"><ele>297.0</ele><time>2026-03-27T15:32:39Z</time></trkpt><trkpt lat="37.5957989111424" lon="15.129329397025215"><ele>297.0</ele><time>2026-03-27T15:32:40Z</time></trkpt><trkpt lat="37.59550808992851" lon="15.12928419118894"><ele>297.0</ele><time>2026-03-27T15:32:41Z</time></trkpt><trkpt lat="37.59521597484408" lon="15.129235677308952"><ele>299.5</ele><time>2026-03-27T15:32:42Z</time></trkpt><trkpt lat="37.59492236630368" lon="15.129189548342715"><ele>302.0</ele><time>2026-03-27T15:32:43Z</time></trkpt><trkpt lat="37.594630449552646" lon="15.129145527443692"><ele>302.5</ele><time>2026-03-27T15:32:44Z</time></trkpt><trkpt lat="37.59433776816756" lon="15.12910099962662"><ele>303.0</ele><time>2026-03-27T15:32:45Z</time></trkpt><trkpt lat="37.59404597626682" lon="15.129051309270578"><ele>306.0</ele><time>2026-03-27T15:32:46Z</time></trkpt><trkpt lat="37.59375352705627" lon="15.129005578937718"><ele>309.0</ele><time>2026-03-27T15:32:47Z</time></trkpt><trkpt lat="37.59346066276894" lon="15.128960808371474"><ele>309.0</ele><time>2026-03-27T15:32:48Z</time></trkpt><trkpt lat="37.59316745761809" lon="15.128913660227994"><ele>309.0</ele><time>2026-03-27T15:32:49Z</time></trkpt><trkpt lat="37.59287520405269" lon="15.1288613304084"><ele>311.0</ele><time>2026-03-27T15:32:50Z</time></trkpt><trkpt lat="37.5925853648052" lon="15.128799331475825"><ele>313.0</ele><time>2026-03-27T15:32:51Z</time></trkpt><trkpt lat="37.59229728922331" lon="15.128726805924531"><ele>313.0</ele><time>2026-03-27T15:32:52Z</time></trkpt><trkpt lat="37.592010169562045" lon="15.12864261850035"><ele>313.0</ele><time>2026-03-27T15:32:53Z</time></trkpt><trkpt lat="37.59172444725548" lon="15.128551722068133"><ele>314.5</ele><time>2026-03-27T15:32:54Z</time></trkpt><trkpt lat="37.5914390996525" lon="15.128456055539251"><ele>316.0</ele><time>2026-03-27T15:32:55Z</time></trkpt><trkpt lat="37.59115421280823" lon="15.128354245742822"><ele>316.0</ele><time>2026-03-27T15:32:56Z</time></trkpt><trkpt lat="37.590871399756594" lon="15.128245692173502"><ele>316.0</ele><time>2026-03-27T15:32:57Z</time></trkpt><trkpt lat="37.59058660292444" lon="15.128129828037876"><ele>318.0</ele><time>2026-03-27T15:32:58Z</time></trkpt><trkpt lat="37.590304494139644" lon="15.128004703746083"><ele>320.0</ele><time>2026-03-27T15:32:59Z</time></trkpt><trkpt lat="37.59002380705036" lon="15.127868179412642"><ele>320.0</ele><time>2026-03-27T15:33:00Z</time></trkpt><trkpt lat="37.589745043981175" lon="15.127718803536467"><ele>320.0</ele><time>2026-03-27T15:33:01Z</time></trkpt><trkpt lat="37.58946585529169" lon="15.12756387925857"><ele>319.0</ele><time>2026-03-27T15:33:02Z</time></trkpt><trkpt lat="37.58918877421479" lon="15.127401495330993"><ele>318.0</ele><time>2026-03-27T15:33:03Z</time></trkpt><trkpt lat="37.588912530813055" lon="15.127230127624198"><ele>317.5</ele><time>2026-03-27T15:33:04Z</time></trkpt><trkpt lat="37.58863894259271" lon="15.12704937757083"><ele>317.0</ele><time>2026-03-27T15:33:05Z</time></trkpt><trkpt lat="37.58836732539374" lon="15.126858377919795"><ele>317.0</ele><time>2026-03-27T15:33:06Z</time></trkpt><trkpt lat="37.588100811441066" lon="15.126658807170251"><ele>317.0</ele><time>2026-03-27T15:33:07Z</time></trkpt><trkpt lat="37.587836727639754" lon="15.126450969895128"><ele>315.0</ele><time>2026-03-27T15:33:08Z</time></trkpt><trkpt lat="37.58757595423596" lon="15.126240490518558"><ele>313.0</ele><time>2026-03-27T15:33:09Z</time></trkpt><trkpt lat="37.587316565302864" lon="15.126025156181614"><ele>313.0</ele><time>2026-03-27T15:33:10Z</time></trkpt><trkpt lat="37.58705870956199" lon="15.125807285451591"><ele>313.0</ele><time>2026-03-27T15:33:11Z</time></trkpt><trkpt lat="37.58680068035468" lon="15.125592127745263"><ele>314.0</ele><time>2026-03-27T15:33:12Z</time></trkpt><trkpt lat="37.58654298657809" lon="15.12538229100635"><ele>315.0</ele><time>2026-03-27T15:33:13Z</time></trkpt><trkpt lat="37.58628458753363" lon="15.125175447923981"><ele>315.5</ele><time>2026-03-27T15:33:14Z</time></trkpt><trkpt lat="37.58602933175223" lon="15.124968898231797"><ele>316.0</ele><time>2026-03-27T15:33:15Z</time></trkpt><trkpt lat="37.58577663502959" lon="15.124763538757502"><ele>319.0</ele><time>2026-03-27T15:33:16Z</time></trkpt><trkpt lat="37.58552723627289" lon="15.124559070674689"><ele>322.0</ele><time>2026-03-27T15:33:17Z</time></trkpt><trkpt lat="37.585279996071755" lon="15.124352619031335"><ele>324.0</ele><time>2026-03-27T15:33:18Z</time></trkpt><trkpt lat="37.58503357100845" lon="15.12414792800145"><ele>326.0</ele><time>2026-03-27T15:33:19Z</time></trkpt><trkpt lat="37.584788640182936" lon="15.123946453629072"><ele>330.5</ele><time>2026-03-27T15:33:20Z</time></trkpt><trkpt lat="37.584544073213344" lon="15.123744864280143"><ele>335.0</ele><time>2026-03-27T15:33:21Z</time></trkpt><trkpt lat="37.584301500710566" lon="15.123544463752404"><ele>335.0</ele><time>2026-03-27T15:33:22Z</time></trkpt><trkpt lat="37.584059767501344" lon="15.123345854710564"><ele>335.0</ele><time>2026-03-27T15:33:23Z</time></trkpt><trkpt lat="37.583819042494085" lon="15.123147668724867"><ele>334.5</ele><time>2026-03-27T15:33:24Z</time></trkpt><trkpt lat="37.58358252504199" lon="15.12294838247874"><ele>334.0</ele><time>2026-03-27T15:33:25Z</time></trkpt><trkpt lat="37.583350961295544" lon="15.12274164243257"><ele>334.0</ele><time>2026-03-27T15:33:26Z</time></trkpt><trkpt lat="37.58312830108085" lon="15.12252575005992"><ele>334.0</ele><time>2026-03-27T15:33:27Z</time></trkpt><trkpt lat="37.582907066611064" lon="15.122305398614913"><ele>335.0</ele><time>2026-03-27T15:33:28Z</time></trkpt><trkpt lat="37.58268964039686" lon="15.122080012525299"><ele>336.0</ele><time>2026-03-27T15:33:29Z</time></trkpt><trkpt lat="37.58247446985027" lon="15.121847757306467"><ele>336.0</ele><time>2026-03-27T15:33:30Z</time></trkpt><trkpt lat="37.582263375311165" lon="15.121612762915476"><ele>336.0</ele><time>2026-03-27T15:33:31Z</time></trkpt><trkpt lat="37.582055978676" lon="15.12137115320472"><ele>334.0</ele><time>2026-03-27T15:33:32Z</time></trkpt><trkpt lat="37.58185523400781" lon="15.12112335475144"><ele>332.0</ele><time>2026-03-27T15:33:33Z</time></trkpt><trkpt lat="37.58165858453107" lon="15.120872098457182"><ele>331.5</ele><time>2026-03-27T15:33:34Z</time></trkpt><trkpt lat="37.58146321224809" lon="15.120612629709466"><ele>331.0</ele><time>2026-03-27T15:33:35Z</time></trkpt><trkpt lat="37.58126877757487" lon="15.12034687764577"><ele>332.0</ele><time>2026-03-27T15:33:36Z</time></trkpt><trkpt lat="37.58107564299307" lon="15.120077437196919"><ele>333.0</ele><time>2026-03-27T15:33:37Z</time></trkpt><trkpt lat="37.58088841481358" lon="15.119800468178548"><ele>335.0</ele><time>2026-03-27T15:33:38Z</time></trkpt><trkpt lat="37.580706581305634" lon="15.119514853519313"><ele>337.0</ele><time>2026-03-27T15:33:39Z</time></trkpt><trkpt lat="37.58053228922421" lon="15.119226306424368"><ele>337.0</ele><time>2026-03-27T15:33:40Z</time></trkpt><trkpt lat="37.580359188776214" lon="15.118935633961478"><ele>337.0</ele><time>2026-03-27T15:33:41Z</time></trkpt><trkpt lat="37.58018991656191" lon="15.118641397303017"><ele>337.0</ele><time>2026-03-27T15:33:42Z</time></trkpt><trkpt lat="37.580022399828415" lon="15.118344490647624"><ele>337.0</ele><time>2026-03-27T15:33:43Z</time></trkpt><trkpt lat="37.5798540272828" lon="15.118049165371527"><ele>336.5</ele><time>2026-03-27T15:33:44Z</time></trkpt><trkpt lat="37.57968288023768" lon="15.117755777255688"><ele>336.0</ele><time>2026-03-27T15:33:45Z</time></trkpt><trkpt lat="37.57951091056763" lon="15.117459444753756"><ele>336.5</ele><time>2026-03-27T15:33:46Z</time></trkpt><trkpt lat="37.5793390771491" lon="15.117163357613027"><ele>337.0</ele><time>2026-03-27T15:33:47Z</time></trkpt><trkpt lat="37.57916953280105" lon="15.116868581853952"><ele>337.0</ele><time>2026-03-27T15:33:48Z</time></trkpt><trkpt lat="37.57899764668612" lon="15.116574848877784"><ele>337.0</ele><time>2026-03-27T15:33:49Z</time></trkpt><trkpt lat="37.57882846967403" lon="15.116279332163396"><ele>337.0</ele><time>2026-03-27T15:33:50Z</time></trkpt><trkpt lat="37.57866177181767" lon="15.115985898164244"><ele>337.0</ele><time>2026-03-27T15:33:51Z</time></trkpt><trkpt lat="37.57849559468099" lon="15.115692876145536"><ele>337.0</ele><time>2026-03-27T15:33:52Z</time></trkpt><trkpt lat="37.57832772166766" lon="15.11540052119198"><ele>337.0</ele><time>2026-03-27T15:33:53Z</time></trkpt><trkpt lat="37.5781593306553" lon="15.11510706582528"><ele>337.5</ele><time>2026-03-27T15:33:54Z</time></trkpt><trkpt lat="37.57799191752585" lon="15.114811193303392"><ele>338.0</ele><time>2026-03-27T15:33:55Z</time></trkpt><trkpt lat="37.57782234729906" lon="15.114515312675348"><ele>338.0</ele><time>2026-03-27T15:33:56Z</time></trkpt><trkpt lat="37.577653365190876" lon="15.114218625946956"><ele>338.0</ele><time>2026-03-27T15:33:57Z</time></trkpt><trkpt lat="37.57748164405782" lon="15.113919189866413"><ele>339.0</ele><time>2026-03-27T15:33:58Z</time></trkpt><trkpt lat="37.577308291795255" lon="15.113622044899058"><ele>340.0</ele><time>2026-03-27T15:33:59Z</time></trkpt><trkpt lat="37.57713380505632" lon="15.113325583137593"><ele>340.0</ele><time>2026-03-27T15:34:00Z</time></trkpt><trkpt lat="37.57695753310024" lon="15.113029618693048"><ele>340.0</ele><time>2026-03-27T15:34:01Z</time></trkpt><trkpt lat="37.57677671329986" lon="15.112736968228619"><ele>340.0</ele><time>2026-03-27T15:34:02Z</time></trkpt><trkpt lat="37.57659120958872" lon="15.112451036737765"><ele>340.0</ele><time>2026-03-27T15:34:03Z</time></trkpt><trkpt lat="37.57639752843259" lon="15.112172493105179"><ele>339.5</ele><time>2026-03-27T15:34:04Z</time></trkpt><trkpt lat="37.57620264729735" lon="15.111897532342102"><ele>339.0</ele><time>2026-03-27T15:34:05Z</time></trkpt><trkpt lat="37.57600029507837" lon="15.111628392278254"><ele>338.5</ele><time>2026-03-27T15:34:06Z</time></trkpt><trkpt lat="37.575792258972534" lon="15.111364423907206"><ele>338.0</ele><time>2026-03-27T15:34:07Z</time></trkpt><trkpt lat="37.57558062128187" lon="15.111104643367925"><ele>338.0</ele><time>2026-03-27T15:34:08Z</time></trkpt><trkpt lat="37.57536419956834" lon="15.110851463769402"><ele>338.0</ele><time>2026-03-27T15:34:09Z</time></trkpt><trkpt lat="37.57514874591451" lon="15.110599405044043"><ele>336.5</ele><time>2026-03-27T15:34:10Z</time></trkpt><trkpt lat="37.5749288905655" lon="15.110353389094847"><ele>335.0</ele><time>2026-03-27T15:34:11Z</time></trkpt><trkpt lat="37.57470418743569" lon="15.110115354880012"><ele>333.5</ele><time>2026-03-27T15:34:12Z</time></trkpt><trkpt lat="37.57448072777381" lon="15.109890111143113"><ele>332.0</ele><time>2026-03-27T15:34:13Z</time></trkpt><trkpt lat="37.57425417575114" lon="15.1096765372651"><ele>332.0</ele><time>2026-03-27T15:34:14Z</time></trkpt><trkpt lat="37.57403057574519" lon="15.109467209663341"><ele>332.0</ele><time>2026-03-27T15:34:15Z</time></trkpt><trkpt lat="37.57381202468331" lon="15.109261210322682"><ele>332.0</ele><time>2026-03-27T15:34:16Z</time></trkpt><trkpt lat="37.57359424133297" lon="15.109055576444028"><ele>332.0</ele><time>2026-03-27T15:34:17Z</time></trkpt><trkpt lat="37.57337822305329" lon="15.108851069280398"><ele>332.0</ele><time>2026-03-27T15:34:18Z</time></trkpt><trkpt lat="37.57317751048484" lon="15.10866282973439"><ele>332.0</ele><time>2026-03-27T15:34:19Z</time></trkpt><trkpt lat="37.57298702559357" lon="15.108482978127823"><ele>331.5</ele><time>2026-03-27T15:34:20Z</time></trkpt><trkpt lat="37.572800457172235" lon="15.108310251420798"><ele>331.0</ele><time>2026-03-27T15:34:21Z</time></trkpt><trkpt lat="37.57261771104554" lon="15.108142058927895"><ele>331.0</ele><time>2026-03-27T15:34:22Z</time></trkpt><trkpt lat="37.57243857268612" lon="15.107978523713612"><ele>331.0</ele><time>2026-03-27T15:34:23Z</time></trkpt><trkpt lat="37.57226724254244" lon="15.107826850342445"><ele>331.0</ele><time>2026-03-27T15:34:24Z</time></trkpt><trkpt lat="37.572107205716414" lon="15.107686064477317"><ele>331.66666666666663</ele><time>2026-03-27T15:34:25Z</time></trkpt><trkpt lat="37.57194432388851" lon="15.107543744728037"><ele>332.3333333333333</ele><time>2026-03-27T15:34:26Z</time></trkpt><trkpt lat="37.571781604116815" lon="15.107400124664357"><ele>333.0</ele><time>2026-03-27T15:34:27Z</time></trkpt><trkpt lat="37.57162476531137" lon="15.107257931766268"><ele>333.3333333333333</ele><time>2026-03-27T15:34:28Z</time></trkpt><trkpt lat="37.57147698023097" lon="15.107128272764134"><ele>333.66666666666663</ele><time>2026-03-27T15:34:29Z</time></trkpt><trkpt lat="37.57133591614019" lon="15.107003939460903"><ele>334.0</ele><time>2026-03-27T15:34:30Z</time></trkpt><trkpt lat="37.57120563693467" lon="15.106886504141146"><ele>334.25</ele><time>2026-03-27T15:34:31Z</time></trkpt><trkpt lat="37.57108374921225" lon="15.106774934664465"><ele>334.5</ele><time>2026-03-27T15:34:32Z</time></trkpt><trkpt lat="37.57096821473578" lon="15.10667110918029"><ele>334.75</ele><time>2026-03-27T15:34:33Z</time></trkpt><trkpt lat="37.5708635265585" lon="15.10657543932725"><ele>335.0</ele><time>2026-03-27T15:34:34Z</time></trkpt><trkpt lat="37.570774368404166" lon="15.106493896538"><ele>335.0</ele><time>2026-03-27T15:34:35Z</time></trkpt><trkpt lat="37.57069817490323" lon="15.106424601821402"><ele>335.0</ele><time>2026-03-27T15:34:36Z</time></trkpt><trkpt lat="37.57062881919723" lon="15.106360732579537"><ele>335.0</ele><time>2026-03-27T15:34:37Z</time></trkpt><trkpt lat="37.570561706851315" lon="15.106297958417343"><ele>335.0</ele><time>2026-03-27T15:34:38Z</time></trkpt><trkpt lat="37.57049921597113" lon="15.106237757229554"><ele>335.0</ele><time>2026-03-27T15:34:39Z</time></trkpt><trkpt lat="37.570444444473814" lon="15.106186505932653"><ele>335.0</ele><time>2026-03-27T15:34:40Z</time></trkpt><trkpt lat="37.5703602334749" lon="15.106107203744736"><ele>335.0</ele><time>2026-03-27T15:34:42Z</time></trkpt><trkpt lat="37.57029900388378" lon="15.106052577951477"><ele>335.0</ele><time>2026-03-27T15:34:44Z</time></trkpt><trkpt lat="37.57023233090456" lon="15.105987624643127"><ele>335.0</ele><time>2026-03-27T15:34:47Z</time></trkpt><trkpt lat="37.57018148979453" lon="15.105933473958736"><ele>335.0</ele><time>2026-03-27T15:34:50Z</time></trkpt><trkpt lat="37.570132654588186" lon="15.105877045233699"><ele>335.0</ele><time>2026-03-27T15:34:52Z</time></trkpt><trkpt lat="37.57006501128939" lon="15.10579924952408"><ele>335.0</ele><time>2026-03-27T15:34:54Z</time></trkpt><trkpt lat="37.56995864073678" lon="15.105702607370462"><ele>335.0</ele><time>2026-03-27T15:34:56Z</time></trkpt><trkpt lat="37.569905660414975" lon="15.105654597016695"><ele>335.0</ele><time>2026-03-27T15:34:57Z</time></trkpt><trkpt lat="37.569822301824104" lon="15.105575915598685"><ele>335.0</ele><time>2026-03-27T15:34:59Z</time></trkpt><trkpt lat="37.56972364063124" lon="15.105486840555164"><ele>335.0</ele><time>2026-03-27T15:35:01Z</time></trkpt><trkpt lat="37.569635748918515" lon="15.105409073673904"><ele>335.0</ele><time>2026-03-27T15:35:03Z</time></trkpt><trkpt lat="37.56957503203188" lon="15.10535053604384"><ele>335.2</ele><time>2026-03-27T15:35:05Z</time></trkpt><trkpt lat="37.56949764477481" lon="15.105283866238592"><ele>335.4</ele><time>2026-03-27T15:35:07Z</time></trkpt><trkpt lat="37.56941632467054" lon="15.105212810053994"><ele>335.6</ele><time>2026-03-27T15:35:09Z</time></trkpt><trkpt lat="37.56933642690916" lon="15.105144176449409"><ele>335.8</ele><time>2026-03-27T15:35:11Z</time></trkpt><trkpt lat="37.56925990301861" lon="15.10506859322114"><ele>336.0</ele><time>2026-03-27T15:35:13Z</time></trkpt><trkpt lat="37.569163476716916" lon="15.10497798710713"><ele>335.6</ele><time>2026-03-27T15:35:15Z</time></trkpt><trkpt lat="37.56907478274726" lon="15.104897676767475"><ele>335.20000000000005</ele><time>2026-03-27T15:35:17Z</time></trkpt><trkpt lat="37.56897888451606" lon="15.104809926248313"><ele>334.79999999999995</ele><time>2026-03-27T15:35:19Z</time></trkpt><trkpt lat="37.56887507913572" lon="15.10471236892703"><ele>334.4</ele><time>2026-03-27T15:35:21Z</time></trkpt><trkpt lat="37.5688167885924" lon="15.104655910091672"><ele>334.0</ele><time>2026-03-27T15:35:22Z</time></trkpt><trkpt lat="37.56875325135099" lon="15.1045975142014"><ele>334.0</ele><time>2026-03-27T15:35:23Z</time></trkpt><trkpt lat="37.56868559333704" lon="15.104537534194476"><ele>334.0</ele><time>2026-03-27T15:35:24Z</time></trkpt><trkpt lat="37.568623099201034" lon="15.104480328246764"><ele>334.0</ele><time>2026-03-27T15:35:25Z</time></trkpt><trkpt lat="37.56856435883073" lon="15.104425296892346"><ele>334.0</ele><time>2026-03-27T15:35:26Z</time></trkpt><trkpt lat="37.56850207952756" lon="15.104367327422455"><ele>334.0</ele><time>2026-03-27T15:35:27Z</time></trkpt><trkpt lat="37.568436522508485" lon="15.104307054134438"><ele>334.0</ele><time>2026-03-27T15:35:28Z</time></trkpt><trkpt lat="37.568367776771616" lon="15.1042444288705"><ele>334.0</ele><time>2026-03-27T15:35:29Z</time></trkpt><trkpt lat="37.568296833662764" lon="15.104180207261642"><ele>334.0</ele><time>2026-03-27T15:35:30Z</time></trkpt><trkpt lat="37.56822364160942" lon="15.104113273282593"><ele>334.0</ele><time>2026-03-27T15:35:31Z</time></trkpt><trkpt lat="37.56814970482024" lon="15.104046190488027"><ele>334.0</ele><time>2026-03-27T15:35:32Z</time></trkpt><trkpt lat="37.56807767555151" lon="15.103980861573147"><ele>334.0</ele><time>2026-03-27T15:35:33Z</time></trkpt><trkpt lat="37.56801959963756" lon="15.103890525699022"><ele>333.79999999999995</ele><time>2026-03-27T15:35:34Z</time></trkpt><trkpt lat="37.56794778269908" lon="15.103810477619039"><ele>333.59999999999997</ele><time>2026-03-27T15:35:35Z</time></trkpt><trkpt lat="37.56786828401403" lon="15.103724950526745"><ele>333.4</ele><time>2026-03-27T15:35:36Z</time></trkpt><trkpt lat="37.56778677390224" lon="15.103648124560038"><ele>333.2</ele><time>2026-03-27T15:35:37Z</time></trkpt><trkpt lat="37.56770694742072" lon="15.103572885473948"><ele>333.0</ele><time>2026-03-27T15:35:38Z</time></trkpt><trkpt lat="37.56763097067963" lon="15.103501274896065"><ele>333.6666666666667</ele><time>2026-03-27T15:35:39Z</time></trkpt><trkpt lat="37.56756328849844" lon="15.103433503402888"><ele>334.3333333333333</ele><time>2026-03-27T15:35:40Z</time></trkpt><trkpt lat="37.567501508365226" lon="15.103366880184277"><ele>335.0</ele><time>2026-03-27T15:35:41Z</time></trkpt><trkpt lat="37.5674420057401" lon="15.10330060098486"><ele>335.66666666666663</ele><time>2026-03-27T15:35:42Z</time></trkpt><trkpt lat="37.56738598093616" lon="15.103238195843627"><ele>336.3333333333333</ele><time>2026-03-27T15:35:43Z</time></trkpt><trkpt lat="37.5673362798583" lon="15.10317933220363"><ele>337.0</ele><time>2026-03-27T15:35:44Z</time></trkpt><trkpt lat="37.56728097689809" lon="15.103120342532385"><ele>337.0</ele><time>2026-03-27T15:35:45Z</time></trkpt><trkpt lat="37.56718102057432" lon="15.103026995449506"><ele>337.0</ele><time>2026-03-27T15:35:47Z</time></trkpt><trkpt lat="37.56712668844158" lon="15.10297725947458"><ele>337.0</ele><time>2026-03-27T15:35:48Z</time></trkpt><trkpt lat="37.5670616617301" lon="15.10291789310961"><ele>337.0</ele><time>2026-03-27T15:35:49Z</time></trkpt><trkpt lat="37.56699080792263" lon="15.102853206845507"><ele>337.0</ele><time>2026-03-27T15:35:50Z</time></trkpt><trkpt lat="37.566913424536956" lon="15.102782559377845"><ele>337.5</ele><time>2026-03-27T15:35:51Z</time></trkpt><trkpt lat="37.56682505719479" lon="15.10270020999246"><ele>338.0</ele><time>2026-03-27T15:35:52Z</time></trkpt><trkpt lat="37.566717014709006" lon="15.102612971644568"><ele>338.5</ele><time>2026-03-27T15:35:53Z</time></trkpt><trkpt lat="37.566609484803095" lon="15.10252604550223"><ele>339.0</ele><time>2026-03-27T15:35:54Z</time></trkpt><trkpt lat="37.56652333977332" lon="15.10240773662477"><ele>339.0</ele><time>2026-03-27T15:35:55Z</time></trkpt><trkpt lat="37.56643795662162" lon="15.102300450397868"><ele>339.0</ele><time>2026-03-27T15:35:56Z</time></trkpt><trkpt lat="37.566353950733856" lon="15.10219866427264"><ele>339.0</ele><time>2026-03-27T15:35:57Z</time></trkpt><trkpt lat="37.566276707238714" lon="15.102104635643384"><ele>339.0</ele><time>2026-03-27T15:35:58Z</time></trkpt><trkpt lat="37.56620730313575" lon="15.102019887088858"><ele>339.0</ele><time>2026-03-27T15:35:59Z</time></trkpt><trkpt lat="37.566146943608445" lon="15.101950814278666"><ele>339.0</ele><time>2026-03-27T15:36:00Z</time></trkpt><trkpt lat="37.56605362465255" lon="15.101878862079054"><ele>339.0</ele><time>2026-03-27T15:36:02Z</time></trkpt><trkpt lat="37.56598821497137" lon="15.1018334462055"><ele>339.0</ele><time>2026-03-27T15:36:04Z</time></trkpt><trkpt lat="37.56592805634257" lon="15.101792796323194"><ele>339.0</ele><time>2026-03-27T15:36:07Z</time></trkpt><trkpt lat="37.56586570186644" lon="15.10175484642721"><ele>339.0</ele><time>2026-03-27T15:42:54.001Z</time></trkpt><trkpt lat="37.565759595275544" lon="15.101688051310067"><ele>339.0</ele><time>2026-03-27T15:42:56Z</time></trkpt><trkpt lat="37.56568252327757" lon="15.10161789149327"><ele>339.25</ele><time>2026-03-27T15:42:57Z</time></trkpt><trkpt lat="37.565591766501974" lon="15.101531753911946"><ele>339.5</ele><time>2026-03-27T15:42:58Z</time></trkpt><trkpt lat="37.565502890436115" lon="15.10143783382809"><ele>339.75</ele><time>2026-03-27T15:42:59Z</time></trkpt><trkpt lat="37.56540916193316" lon="15.101342317428152"><ele>340.0</ele><time>2026-03-27T15:43:00Z</time></trkpt><trkpt lat="37.56531837223187" lon="15.101258932840253"><ele>340.0</ele><time>2026-03-27T15:43:01Z</time></trkpt><trkpt lat="37.56522934322233" lon="15.101162079969301"><ele>340.0</ele><time>2026-03-27T15:43:02Z</time></trkpt><trkpt lat="37.56513871846586" lon="15.101067017606416"><ele>340.0</ele><time>2026-03-27T15:43:03Z</time></trkpt><trkpt lat="37.56504772852536" lon="15.100967731853224"><ele>340.0</ele><time>2026-03-27T15:43:04Z</time></trkpt><trkpt lat="37.56495459112918" lon="15.100857532921323"><ele>341.5</ele><time>2026-03-27T15:43:05Z</time></trkpt><trkpt lat="37.564865009894625" lon="15.100745535624695"><ele>343.0</ele><time>2026-03-27T15:43:06Z</time></trkpt><trkpt lat="37.56477489986899" lon="15.100635226260835"><ele>344.5</ele><time>2026-03-27T15:43:07Z</time></trkpt><trkpt lat="37.5646872411613" lon="15.100524388667116"><ele>346.0</ele><time>2026-03-27T15:43:08Z</time></trkpt><trkpt lat="37.56459884717548" lon="15.100410511487516"><ele>342.75</ele><time>2026-03-27T15:43:09Z</time></trkpt><trkpt lat="37.56451217906839" lon="15.1002948430494"><ele>339.5</ele><time>2026-03-27T15:43:10Z</time></trkpt><trkpt lat="37.5644280279329" lon="15.100174366809759"><ele>336.25</ele><time>2026-03-27T15:43:11Z</time></trkpt><trkpt lat="37.56434665298142" lon="15.100054330977963"><ele>333.0</ele><time>2026-03-27T15:43:12Z</time></trkpt><trkpt lat="37.56426551527373" lon="15.099935315350082"><ele>333.75</ele><time>2026-03-27T15:43:13Z</time></trkpt><trkpt lat="37.56417420686398" lon="15.099800949119707"><ele>334.5</ele><time>2026-03-27T15:43:14Z</time></trkpt><trkpt lat="37.5640869747847" lon="15.099661970123938"><ele>335.25</ele><time>2026-03-27T15:43:15Z</time></trkpt><trkpt lat="37.56399075036512" lon="15.099518648766175"><ele>336.0</ele><time>2026-03-27T15:43:16Z</time></trkpt><trkpt lat="37.563900382604494" lon="15.099379277810293"><ele>336.0</ele><time>2026-03-27T15:43:17Z</time></trkpt><trkpt lat="37.56382408867083" lon="15.099262579304598"><ele>336.0</ele><time>2026-03-27T15:43:18Z</time></trkpt><trkpt lat="37.56375805165905" lon="15.099161139133685"><ele>336.0</ele><time>2026-03-27T15:43:19Z</time></trkpt><trkpt lat="37.563693668259695" lon="15.099063679632078"><ele>336.0</ele><time>2026-03-27T15:43:20Z</time></trkpt><trkpt lat="37.56363225513747" lon="15.098966820938978"><ele>336.0</ele><time>2026-03-27T15:43:21Z</time></trkpt><trkpt lat="37.563570752956984" lon="15.09887091558928"><ele>333.8</ele><time>2026-03-27T15:43:22Z</time></trkpt><trkpt lat="37.56351143076883" lon="15.098778692917861"><ele>331.6</ele><time>2026-03-27T15:43:23Z</time></trkpt><trkpt lat="37.56344820045038" lon="15.098677439692496"><ele>329.4</ele><time>2026-03-27T15:43:24Z</time></trkpt><trkpt lat="37.56338162332811" lon="15.09856757004289"><ele>327.2</ele><time>2026-03-27T15:43:25Z</time></trkpt><trkpt lat="37.563315683941745" lon="15.098452577254983"><ele>325.0</ele><time>2026-03-27T15:43:26Z</time></trkpt><trkpt lat="37.56325672422979" lon="15.09833577550497"><ele>325.0</ele><time>2026-03-27T15:43:27Z</time></trkpt><trkpt lat="37.5632012047774" lon="15.098215128895124"><ele>325.0</ele><time>2026-03-27T15:43:28Z</time></trkpt><trkpt lat="37.563148346468964" lon="15.098085731476825"><ele>325.0</ele><time>2026-03-27T15:43:29Z</time></trkpt><trkpt lat="37.563096654710236" lon="15.097950062001479"><ele>325.0</ele><time>2026-03-27T15:43:30Z</time></trkpt><trkpt lat="37.56305143271654" lon="15.097804665692362"><ele>325.0</ele><time>2026-03-27T15:43:31Z</time></trkpt><trkpt lat="37.563014909322156" lon="15.097650667693426"><ele>325.0</ele><time>2026-03-27T15:43:32Z</time></trkpt><trkpt lat="37.562986947082884" lon="15.097491413519014"><ele>325.0</ele><time>2026-03-27T15:43:33Z</time></trkpt><trkpt lat="37.56297200845501" lon="15.09733001878776"><ele>325.0</ele><time>2026-03-27T15:43:34Z</time></trkpt><trkpt lat="37.56297171790246" lon="15.097172022402933"><ele>325.5</ele><time>2026-03-27T15:43:35Z</time></trkpt><trkpt lat="37.56298146583943" lon="15.09701720010796"><ele>326.0</ele><time>2026-03-27T15:43:36Z</time></trkpt><trkpt lat="37.563000587439326" lon="15.096866994237795"><ele>326.5</ele><time>2026-03-27T15:43:37Z</time></trkpt><trkpt lat="37.56302235156399" lon="15.096720556104446"><ele>327.0</ele><time>2026-03-27T15:43:38Z</time></trkpt><trkpt lat="37.56303951758788" lon="15.096575767104586"><ele>327.20000000000005</ele><time>2026-03-27T15:43:39Z</time></trkpt><trkpt lat="37.56303956782897" lon="15.096436610628473"><ele>327.4</ele><time>2026-03-27T15:43:40Z</time></trkpt><trkpt lat="37.56301901239932" lon="15.096309205497365"><ele>327.6</ele><time>2026-03-27T15:43:41Z</time></trkpt><trkpt lat="37.562980327617254" lon="15.09619276515875"><ele>327.79999999999995</ele><time>2026-03-27T15:43:42Z</time></trkpt><trkpt lat="37.56292536850965" lon="15.096090505054145"><ele>328.0</ele><time>2026-03-27T15:43:43Z</time></trkpt><trkpt lat="37.56284941475442" lon="15.096010141212892"><ele>326.0</ele><time>2026-03-27T15:43:44Z</time></trkpt><trkpt lat="37.56275537073363" lon="15.095950109212618"><ele>324.0</ele><time>2026-03-27T15:43:45Z</time></trkpt><trkpt lat="37.562646294327806" lon="15.095920419600654"><ele>322.0</ele><time>2026-03-27T15:43:46Z</time></trkpt><trkpt lat="37.562528905793286" lon="15.095920113000593"><ele>320.0</ele><time>2026-03-27T15:43:47Z</time></trkpt><trkpt lat="37.56240836882924" lon="15.095953338864811"><ele>320.0</ele><time>2026-03-27T15:43:48Z</time></trkpt><trkpt lat="37.56229156660713" lon="15.096021830526228"><ele>320.0</ele><time>2026-03-27T15:43:49Z</time></trkpt><trkpt lat="37.562183513526755" lon="15.096122228476435"><ele>320.0</ele><time>2026-03-27T15:43:50Z</time></trkpt><trkpt lat="37.562085384514724" lon="15.096249578405413"><ele>320.0</ele><time>2026-03-27T15:43:51Z</time></trkpt><trkpt lat="37.561996791506054" lon="15.096393573305965"><ele>319.0</ele><time>2026-03-27T15:43:52Z</time></trkpt><trkpt lat="37.56191877863966" lon="15.096541511988118"><ele>318.0</ele><time>2026-03-27T15:43:53Z</time></trkpt><trkpt lat="37.561847804679886" lon="15.09668672578246"><ele>317.0</ele><time>2026-03-27T15:43:54Z</time></trkpt><trkpt lat="37.561778667079345" lon="15.096835053484876"><ele>316.0</ele><time>2026-03-27T15:43:55Z</time></trkpt><trkpt lat="37.5617002190078" lon="15.096992978779497"><ele>315.0</ele><time>2026-03-27T15:43:56Z</time></trkpt><trkpt lat="37.56162581680631" lon="15.097147880255202"><ele>314.0</ele><time>2026-03-27T15:43:57Z</time></trkpt><trkpt lat="37.5615481504176" lon="15.09730476280104"><ele>313.0</ele><time>2026-03-27T15:43:58Z</time></trkpt><trkpt lat="37.56147085983842" lon="15.097458003925974"><ele>312.0</ele><time>2026-03-27T15:43:59Z</time></trkpt><trkpt lat="37.56139530366081" lon="15.097608927454942"><ele>311.25</ele><time>2026-03-27T15:44:00Z</time></trkpt><trkpt lat="37.56132249010021" lon="15.097751419039414"><ele>310.5</ele><time>2026-03-27T15:44:01Z</time></trkpt><trkpt lat="37.56124747591569" lon="15.09789593850055"><ele>309.75</ele><time>2026-03-27T15:44:02Z</time></trkpt><trkpt lat="37.561169562453195" lon="15.098046892037964"><ele>309.0</ele><time>2026-03-27T15:44:03Z</time></trkpt><trkpt lat="37.561090497366855" lon="15.098201942443215"><ele>308.5</ele><time>2026-03-27T15:44:04.001Z</time></trkpt><trkpt lat="37.561008959226356" lon="15.098362678973425"><ele>308.0</ele><time>2026-03-27T15:44:05.001Z</time></trkpt><trkpt lat="37.56093008266331" lon="15.098517419091452"><ele>307.5</ele><time>2026-03-27T15:44:06.001Z</time></trkpt><trkpt lat="37.560852225569114" lon="15.098670726170411"><ele>307.0</ele><time>2026-03-27T15:44:07.001Z</time></trkpt><trkpt lat="37.560775839442734" lon="15.0988236656757"><ele>307.0</ele><time>2026-03-27T15:44:08.001Z</time></trkpt><trkpt lat="37.56070415528211" lon="15.098966328506243"><ele>307.0</ele><time>2026-03-27T15:44:09.001Z</time></trkpt><trkpt lat="37.5606340476257" lon="15.099099438521517"><ele>307.0</ele><time>2026-03-27T15:44:10.001Z</time></trkpt><trkpt lat="37.560563534685016" lon="15.099228014204215"><ele>307.0</ele><time>2026-03-27T15:44:11.001Z</time></trkpt><trkpt lat="37.56048598538759" lon="15.099361705995793"><ele>306.0</ele><time>2026-03-27T15:44:12.001Z</time></trkpt><trkpt lat="37.56039494326228" lon="15.0995029702533"><ele>305.0</ele><time>2026-03-27T15:44:13.001Z</time></trkpt><trkpt lat="37.560292967586776" lon="15.099645525247968"><ele>304.0</ele><time>2026-03-27T15:44:14.001Z</time></trkpt><trkpt lat="37.560174909196434" lon="15.09978153192577"><ele>302.66666666666663</ele><time>2026-03-27T15:44:15.001Z</time></trkpt><trkpt lat="37.56004770799214" lon="15.09990731030926"><ele>301.3333333333333</ele><time>2026-03-27T15:44:16.001Z</time></trkpt><trkpt lat="37.55992218952803" lon="15.100017965307025"><ele>300.0</ele><time>2026-03-27T15:44:17.001Z</time></trkpt><trkpt lat="37.55980156173079" lon="15.100112011219665"><ele>298.5</ele><time>2026-03-27T15:44:18.001Z</time></trkpt><trkpt lat="37.55968574334629" lon="15.100185642941215"><ele>297.0</ele><time>2026-03-27T15:44:19.001Z</time></trkpt><trkpt lat="37.55956847642695" lon="15.100251654261896"><ele>295.5</ele><time>2026-03-27T15:44:20.001Z</time></trkpt><trkpt lat="37.55945258023044" lon="15.100311728454878"><ele>294.0</ele><time>2026-03-27T15:44:21.001Z</time></trkpt><trkpt lat="37.559334109950065" lon="15.10036546572351"><ele>293.75</ele><time>2026-03-27T15:44:22.001Z</time></trkpt><trkpt lat="37.55921503218496" lon="15.100412375162382"><ele>293.5</ele><time>2026-03-27T15:44:23.001Z</time></trkpt><trkpt lat="37.559095522290335" lon="15.100451696248577"><ele>293.25</ele><time>2026-03-27T15:44:24.001Z</time></trkpt><trkpt lat="37.558976247057664" lon="15.100486925297833"><ele>293.0</ele><time>2026-03-27T15:44:25.001Z</time></trkpt><trkpt lat="37.55885348445723" lon="15.10051538086155"><ele>293.0</ele><time>2026-03-27T15:44:26.001Z</time></trkpt><trkpt lat="37.55872182963662" lon="15.100541148820792"><ele>293.0</ele><time>2026-03-27T15:44:27.001Z</time></trkpt><trkpt lat="37.55858215847546" lon="15.100563270617933"><ele>293.0</ele><time>2026-03-27T15:44:28.001Z</time></trkpt><trkpt lat="37.55843827381826" lon="15.10058401842215"><ele>293.0</ele><time>2026-03-27T15:44:29.001Z</time></trkpt><trkpt lat="37.558289611574295" lon="15.100609312377351"><ele>292.0</ele><time>2026-03-27T15:44:30.001Z</time></trkpt><trkpt lat="37.5581361148668" lon="15.100634528329575"><ele>291.0</ele><time>2026-03-27T15:44:31.001Z</time></trkpt><trkpt lat="37.557977730737605" lon="15.100656839273492"><ele>290.0</ele><time>2026-03-27T15:44:32.001Z</time></trkpt><trkpt lat="37.5578227452026" lon="15.100673333725808"><ele>288.6666666666667</ele><time>2026-03-27T15:44:33.001Z</time></trkpt><trkpt lat="37.55767447227768" lon="15.100690284200812"><ele>287.3333333333333</ele><time>2026-03-27T15:44:34.001Z</time></trkpt><trkpt lat="37.55752406347383" lon="15.100707196747843"><ele>286.0</ele><time>2026-03-27T15:44:35.001Z</time></trkpt><trkpt lat="37.55737219548649" lon="15.100722030168741"><ele>286.0</ele><time>2026-03-27T15:44:36.001Z</time></trkpt><trkpt lat="37.55721481264331" lon="15.100736011731838"><ele>286.0</ele><time>2026-03-27T15:44:37.001Z</time></trkpt><trkpt lat="37.55705360195151" lon="15.100745144534335"><ele>286.0</ele><time>2026-03-27T15:44:38.001Z</time></trkpt><trkpt lat="37.55688875518335" lon="15.100749843043102"><ele>284.0</ele><time>2026-03-27T15:44:39.001Z</time></trkpt><trkpt lat="37.55672274239805" lon="15.100749238047591"><ele>282.0</ele><time>2026-03-27T15:44:40.001Z</time></trkpt><trkpt lat="37.55654671892434" lon="15.100727353312134"><ele>280.0</ele><time>2026-03-27T15:44:41.001Z</time></trkpt><trkpt lat="37.55637198645112" lon="15.100696818210475"><ele>277.0</ele><time>2026-03-27T15:44:42.001Z</time></trkpt><trkpt lat="37.55619442978671" lon="15.100655355553899"><ele>274.0</ele><time>2026-03-27T15:44:43.001Z</time></trkpt><trkpt lat="37.55601418896153" lon="15.100590711012421"><ele>271.0</ele><time>2026-03-27T15:44:44.001Z</time></trkpt><trkpt lat="37.555834051017534" lon="15.100511942913675"><ele>271.0</ele><time>2026-03-27T15:44:45.001Z</time></trkpt><trkpt lat="37.555657104361416" lon="15.10041770940942"><ele>271.0</ele><time>2026-03-27T15:44:46.001Z</time></trkpt><trkpt lat="37.55548046259299" lon="15.100305695485307"><ele>271.0</ele><time>2026-03-27T15:44:47.001Z</time></trkpt><trkpt lat="37.55530930784837" lon="15.100174426558707"><ele>271.0</ele><time>2026-03-27T15:44:48.001Z</time></trkpt><trkpt lat="37.55513960997679" lon="15.100038335988673"><ele>271.0</ele><time>2026-03-27T15:44:49.001Z</time></trkpt><trkpt lat="37.55497378752419" lon="15.099896075684127"><ele>271.0</ele><time>2026-03-27T15:44:50Z</time></trkpt><trkpt lat="37.55481288113526" lon="15.09975621284064"><ele>271.0</ele><time>2026-03-27T15:44:51Z</time></trkpt><trkpt lat="37.55464863560365" lon="15.099618107072084"><ele>271.0</ele><time>2026-03-27T15:44:52Z</time></trkpt><trkpt lat="37.55447067129508" lon="15.099477503538736"><ele>271.0</ele><time>2026-03-27T15:44:53Z</time></trkpt><trkpt lat="37.55428567575139" lon="15.099337390920219"><ele>268.66666666666663</ele><time>2026-03-27T15:44:54Z</time></trkpt><trkpt lat="37.55409835295285" lon="15.099196022985042"><ele>266.3333333333333</ele><time>2026-03-27T15:44:55Z</time></trkpt><trkpt lat="37.553910584419654" lon="15.099057086720716"><ele>264.0</ele><time>2026-03-27T15:44:56Z</time></trkpt><trkpt lat="37.55371569039921" lon="15.098917160833842"><ele>256.5</ele><time>2026-03-27T15:44:57Z</time></trkpt><trkpt lat="37.55350992968568" lon="15.09879845724443"><ele>249.0</ele><time>2026-03-27T15:44:58Z</time></trkpt><trkpt lat="37.55329221564866" lon="15.098698654337293"><ele>249.0</ele><time>2026-03-27T15:44:59Z</time></trkpt><trkpt lat="37.55307610823949" lon="15.098612812228176"><ele>249.0</ele><time>2026-03-27T15:45:00Z</time></trkpt><trkpt lat="37.552864767907295" lon="15.098547644104299"><ele>249.0</ele><time>2026-03-27T15:45:01Z</time></trkpt><trkpt lat="37.55264426891501" lon="15.09849867452631"><ele>246.0</ele><time>2026-03-27T15:45:02Z</time></trkpt><trkpt lat="37.5524171925288" lon="15.098462974639876"><ele>243.0</ele><time>2026-03-27T15:45:03Z</time></trkpt><trkpt lat="37.552186176488206" lon="15.098436427280182"><ele>239.66666666666669</ele><time>2026-03-27T15:45:04Z</time></trkpt><trkpt lat="37.55196097179981" lon="15.098416609537955"><ele>236.33333333333334</ele><time>2026-03-27T15:45:04.999Z</time></trkpt><trkpt lat="37.55174543101994" lon="15.098400235698945"><ele>233.0</ele><time>2026-03-27T15:45:05.999Z</time></trkpt><trkpt lat="37.55153648605865" lon="15.098384613481697"><ele>233.0</ele><time>2026-03-27T15:45:06.999Z</time></trkpt><trkpt lat="37.55132687989515" lon="15.098376823410973"><ele>233.0</ele><time>2026-03-27T15:45:07.999Z</time></trkpt><trkpt lat="37.55111370483686" lon="15.0983771295607"><ele>233.0</ele><time>2026-03-27T15:45:08.999Z</time></trkpt><trkpt lat="37.55089787060108" lon="15.09837533452548"><ele>230.33333333333334</ele><time>2026-03-27T15:45:09.999Z</time></trkpt><trkpt lat="37.55068727601797" lon="15.098367840899392"><ele>227.66666666666669</ele><time>2026-03-27T15:45:10.999Z</time></trkpt><trkpt lat="37.550481000838985" lon="15.098357886749339"><ele>225.0</ele><time>2026-03-27T15:45:11.999Z</time></trkpt><trkpt lat="37.55027364878562" lon="15.09834375295601"><ele>223.66666666666669</ele><time>2026-03-27T15:45:12.999Z</time></trkpt><trkpt lat="37.550065719209535" lon="15.098327378153177"><ele>222.33333333333334</ele><time>2026-03-27T15:45:13.999Z</time></trkpt><trkpt lat="37.54985658153665" lon="15.098311658642965"><ele>221.0</ele><time>2026-03-27T15:45:14.999Z</time></trkpt><trkpt lat="37.549644354066935" lon="15.098297604434917"><ele>219.33333333333334</ele><time>2026-03-27T15:45:15.999Z</time></trkpt><trkpt lat="37.54942996413265" lon="15.098284129987524"><ele>217.66666666666669</ele><time>2026-03-27T15:45:16.999Z</time></trkpt><trkpt lat="37.549215785215715" lon="15.098267483006163"><ele>216.0</ele><time>2026-03-27T15:45:17.999Z</time></trkpt><trkpt lat="37.54899902390434" lon="15.098246417823107"><ele>216.0</ele><time>2026-03-27T15:45:18.999Z</time></trkpt><trkpt lat="37.54877893509151" lon="15.098218435090349"><ele>216.0</ele><time>2026-03-27T15:45:19.999Z</time></trkpt><trkpt lat="37.548557778903465" lon="15.098178513801118"><ele>216.0</ele><time>2026-03-27T15:45:20.999Z</time></trkpt><trkpt lat="37.5483348999165" lon="15.098140028210848"><ele>216.0</ele><time>2026-03-27T15:45:21.999Z</time></trkpt><trkpt lat="37.54810785218161" lon="15.098090787446518"><ele>216.0</ele><time>2026-03-27T15:45:22.999Z</time></trkpt><trkpt lat="37.54788156579946" lon="15.098027146418254"><ele>214.5</ele><time>2026-03-27T15:45:23.999Z</time></trkpt><trkpt lat="37.54765467392011" lon="15.097952189021228"><ele>213.0</ele><time>2026-03-27T15:45:24.999Z</time></trkpt><trkpt lat="37.54742917908398" lon="15.097860434157152"><ele>213.0</ele><time>2026-03-27T15:45:25.999Z</time></trkpt><trkpt lat="37.547209599501045" lon="15.097747885551273"><ele>213.0</ele><time>2026-03-27T15:45:26.999Z</time></trkpt><trkpt lat="37.54699644376362" lon="15.097617501801784"><ele>210.0</ele><time>2026-03-27T15:45:27.999Z</time></trkpt><trkpt lat="37.54679122195716" lon="15.0974701482594"><ele>207.0</ele><time>2026-03-27T15:45:28.999Z</time></trkpt><trkpt lat="37.546587770892636" lon="15.097308391066878"><ele>207.0</ele><time>2026-03-27T15:45:29.999Z</time></trkpt><trkpt lat="37.5463953797586" lon="15.097131314759944"><ele>207.0</ele><time>2026-03-27T15:45:30.999Z</time></trkpt><trkpt lat="37.546208543417606" lon="15.096940955309208"><ele>202.5</ele><time>2026-03-27T15:45:31.999Z</time></trkpt><trkpt lat="37.54603432711783" lon="15.096742543772159"><ele>198.0</ele><time>2026-03-27T15:45:32.999Z</time></trkpt><trkpt lat="37.54586634413561" lon="15.09653853303578"><ele>198.0</ele><time>2026-03-27T15:45:33.999Z</time></trkpt><trkpt lat="37.54570468378371" lon="15.096331052295932"><ele>198.0</ele><time>2026-03-27T15:45:34.999Z</time></trkpt><trkpt lat="37.545547868505686" lon="15.096118831471166"><ele>198.0</ele><time>2026-03-27T15:45:35.999Z</time></trkpt><trkpt lat="37.54539470270965" lon="15.0958984282078"><ele>198.0</ele><time>2026-03-27T15:45:36.999Z</time></trkpt><trkpt lat="37.5452437599232" lon="15.095676937400142"><ele>194.0</ele><time>2026-03-27T15:45:37.999Z</time></trkpt><trkpt lat="37.54509202979134" lon="15.095448525325175"><ele>190.0</ele><time>2026-03-27T15:45:38.999Z</time></trkpt><trkpt lat="37.544942841199095" lon="15.095217427151237"><ele>190.0</ele><time>2026-03-27T15:45:39.999Z</time></trkpt><trkpt lat="37.5447920082748" lon="15.094984253378952"><ele>190.0</ele><time>2026-03-27T15:45:40.999Z</time></trkpt><trkpt lat="37.544638172060274" lon="15.09474873010858"><ele>186.0</ele><time>2026-03-27T15:45:41.999Z</time></trkpt><trkpt lat="37.54448324888523" lon="15.094506231972794"><ele>182.0</ele><time>2026-03-27T15:45:42.999Z</time></trkpt><trkpt lat="37.54432647516461" lon="15.094253656351466"><ele>184.0</ele><time>2026-03-27T15:45:43.999Z</time></trkpt><trkpt lat="37.54416999338183" lon="15.094004254939424"><ele>186.0</ele><time>2026-03-27T15:45:44.999Z</time></trkpt><trkpt lat="37.54401014144666" lon="15.093764874735836"><ele>186.0</ele><time>2026-03-27T15:45:45.999Z</time></trkpt><trkpt lat="37.543851975522095" lon="15.093545519751128"><ele>186.0</ele><time>2026-03-27T15:45:46.999Z</time></trkpt><trkpt lat="37.54369168999364" lon="15.09334074935429"><ele>184.33333333333334</ele><time>2026-03-27T15:45:47.999Z</time></trkpt><trkpt lat="37.543531980947066" lon="15.093149503927917"><ele>182.66666666666669</ele><time>2026-03-27T15:45:48.999Z</time></trkpt><trkpt lat="37.54337526852792" lon="15.092972898797955"><ele>181.0</ele><time>2026-03-27T15:45:49.999Z</time></trkpt><trkpt lat="37.543214422677714" lon="15.092809500207679"><ele>181.0</ele><time>2026-03-27T15:45:50.999Z</time></trkpt><trkpt lat="37.54304858166734" lon="15.092652014957295"><ele>181.0</ele><time>2026-03-27T15:45:51.999Z</time></trkpt><trkpt lat="37.542879467244404" lon="15.092506550864442"><ele>181.0</ele><time>2026-03-27T15:45:52.999Z</time></trkpt><trkpt lat="37.54270611492447" lon="15.092372391653674"><ele>179.66666666666669</ele><time>2026-03-27T15:45:53.999Z</time></trkpt><trkpt lat="37.542528795973055" lon="15.092250723905861"><ele>178.33333333333334</ele><time>2026-03-27T15:45:54.999Z</time></trkpt><trkpt lat="37.54234857066851" lon="15.092148438341928"><ele>177.0</ele><time>2026-03-27T15:45:55.999Z</time></trkpt><trkpt lat="37.542161304285834" lon="15.092057316385871"><ele>176.33333333333334</ele><time>2026-03-27T15:45:56.999Z</time></trkpt><trkpt lat="37.54196392237231" lon="15.091980768612641"><ele>175.66666666666669</ele><time>2026-03-27T15:45:57.999Z</time></trkpt><trkpt lat="37.54176014844982" lon="15.091922283927758"><ele>175.0</ele><time>2026-03-27T15:45:58.999Z</time></trkpt><trkpt lat="37.54155639866522" lon="15.09188587894128"><ele>175.0</ele><time>2026-03-27T15:45:59.999Z</time></trkpt><trkpt lat="37.541348803968496" lon="15.091868782658944"><ele>175.0</ele><time>2026-03-27T15:46:00.999Z</time></trkpt><trkpt lat="37.54113984678121" lon="15.091865803384286"><ele>175.0</ele><time>2026-03-27T15:46:01.999Z</time></trkpt><trkpt lat="37.54092834329092" lon="15.091880933974654"><ele>174.0</ele><time>2026-03-27T15:46:02.999Z</time></trkpt><trkpt lat="37.5407105234569" lon="15.091910809547274"><ele>173.0</ele><time>2026-03-27T15:46:03.999Z</time></trkpt><trkpt lat="37.54049410639401" lon="15.091948016188011"><ele>172.0</ele><time>2026-03-27T15:46:04.999Z</time></trkpt><trkpt lat="37.54027706247187" lon="15.091989451489802"><ele>170.0</ele><time>2026-03-27T15:46:05.999Z</time></trkpt><trkpt lat="37.540059010878494" lon="15.092032351136062"><ele>168.0</ele><time>2026-03-27T15:46:06.999Z</time></trkpt><trkpt lat="37.53983945711704" lon="15.092073088843772"><ele>166.0</ele><time>2026-03-27T15:46:07.999Z</time></trkpt><trkpt lat="37.539618125409916" lon="15.092111063722083"><ele>162.5</ele><time>2026-03-27T15:46:08.999Z</time></trkpt><trkpt lat="37.53938171035996" lon="15.092152899893984"><ele>159.0</ele><time>2026-03-27T15:46:10.06Z</time></trkpt><trkpt lat="37.53915631830843" lon="15.092200927441558"><ele>159.0</ele><time>2026-03-27T15:46:11.066Z</time></trkpt><trkpt lat="37.538929679749444" lon="15.092256053210567"><ele>159.0</ele><time>2026-03-27T15:46:12.067Z</time></trkpt><trkpt lat="37.5387177056376" lon="15.092346150918033"><ele>155.33333333333334</ele><time>2026-03-27T15:46:13Z</time></trkpt><trkpt lat="37.53858674780272" lon="15.092494658879906"><ele>151.66666666666669</ele><time>2026-03-27T15:46:14Z</time></trkpt><trkpt lat="37.53855664325545" lon="15.092715089912993"><ele>148.0</ele><time>2026-03-27T15:46:15Z</time></trkpt><trkpt lat="37.538376483406736" lon="15.092869966506447"><ele>148.0</ele><time>2026-03-27T15:46:16Z</time></trkpt><trkpt lat="37.53819406474741" lon="15.093034279023337"><ele>148.0</ele><time>2026-03-27T15:46:17Z</time></trkpt><trkpt lat="37.53801515521533" lon="15.093202331609941"><ele>148.0</ele><time>2026-03-27T15:46:18Z</time></trkpt><trkpt lat="37.537839740100196" lon="15.093378177570546"><ele>146.0</ele><time>2026-03-27T15:46:19Z</time></trkpt><trkpt lat="37.537676969343565" lon="15.093560326620494"><ele>144.0</ele><time>2026-03-27T15:46:20Z</time></trkpt><trkpt lat="37.53752455010505" lon="15.093770521950121"><ele>142.0</ele><time>2026-03-27T15:46:21Z</time></trkpt><trkpt lat="37.53738178680382" lon="15.093994311793379"><ele>141.5</ele><time>2026-03-27T15:46:22Z</time></trkpt><trkpt lat="37.53725146759579" lon="15.09423282785745"><ele>141.0</ele><time>2026-03-27T15:46:23Z</time></trkpt><trkpt lat="37.53713060137662" lon="15.094480178814045"><ele>137.5</ele><time>2026-03-27T15:46:24Z</time></trkpt><trkpt lat="37.537015490641664" lon="15.09473400461815"><ele>134.0</ele><time>2026-03-27T15:46:25Z</time></trkpt><trkpt lat="37.536907224633474" lon="15.094980551603879"><ele>132.33333333333331</ele><time>2026-03-27T15:46:26Z</time></trkpt><trkpt lat="37.53680386599947" lon="15.095218893995561"><ele>130.66666666666666</ele><time>2026-03-27T15:46:27Z</time></trkpt><trkpt lat="37.536702601291765" lon="15.095456236884107"><ele>129.0</ele><time>2026-03-27T15:46:28Z</time></trkpt><trkpt lat="37.5365972450116" lon="15.0956976369794"><ele>128.0</ele><time>2026-03-27T15:46:29Z</time></trkpt><trkpt lat="37.53648448913828" lon="15.095919565608645"><ele>127.0</ele><time>2026-03-27T15:46:30Z</time></trkpt><trkpt lat="37.53634756606638" lon="15.096108427915718"><ele>126.0</ele><time>2026-03-27T15:46:31Z</time></trkpt><trkpt lat="37.5361954813562" lon="15.096267060707632"><ele>124.0</ele><time>2026-03-27T15:46:32Z</time></trkpt><trkpt lat="37.53602991449804" lon="15.096373836922243"><ele>122.0</ele><time>2026-03-27T15:46:33Z</time></trkpt><trkpt lat="37.53585672140449" lon="15.096423946043297"><ele>120.0</ele><time>2026-03-27T15:46:34Z</time></trkpt><trkpt lat="37.53568085572806" lon="15.09642908345019"><ele>120.0</ele><time>2026-03-27T15:46:35Z</time></trkpt><trkpt lat="37.535510106803464" lon="15.096391616176982"><ele>120.0</ele><time>2026-03-27T15:46:36Z</time></trkpt><trkpt lat="37.53534457504069" lon="15.096313616368146"><ele>120.0</ele><time>2026-03-27T15:46:37Z</time></trkpt><trkpt lat="37.53518468555798" lon="15.096199373742472"><ele>119.33333333333334</ele><time>2026-03-27T15:46:38Z</time></trkpt><trkpt lat="37.53503959983048" lon="15.096050481576757"><ele>118.66666666666667</ele><time>2026-03-27T15:46:39Z</time></trkpt><trkpt lat="37.534903904348894" lon="15.095884720281338"><ele>118.0</ele><time>2026-03-27T15:46:40Z</time></trkpt><trkpt lat="37.53477544557025" lon="15.095722947754801"><ele>118.0</ele><time>2026-03-27T15:46:40.999Z</time></trkpt><trkpt lat="37.534645532261656" lon="15.095554577159058"><ele>118.0</ele><time>2026-03-27T15:46:41.999Z</time></trkpt><trkpt lat="37.53451114304365" lon="15.095380566161081"><ele>118.0</ele><time>2026-03-27T15:46:42.999Z</time></trkpt><trkpt lat="37.534371111140636" lon="15.095212606555293"><ele>116.33333333333334</ele><time>2026-03-27T15:46:43.999Z</time></trkpt><trkpt lat="37.534214076320545" lon="15.095055449254263"><ele>114.66666666666666</ele><time>2026-03-27T15:46:44.999Z</time></trkpt><trkpt lat="37.53404708711272" lon="15.094911764078226"><ele>113.0</ele><time>2026-03-27T15:46:45.999Z</time></trkpt><trkpt lat="37.5338697178158" lon="15.094791329309448"><ele>111.33333333333333</ele><time>2026-03-27T15:46:46.999Z</time></trkpt><trkpt lat="37.53368130056799" lon="15.09469690781675"><ele>109.66666666666666</ele><time>2026-03-27T15:46:47.999Z</time></trkpt><trkpt lat="37.53348099229116" lon="15.094631241176256"><ele>108.0</ele><time>2026-03-27T15:46:48.999Z</time></trkpt><trkpt lat="37.533273593734755" lon="15.094587096652669"><ele>108.0</ele><time>2026-03-27T15:46:49.999Z</time></trkpt><trkpt lat="37.533058613253914" lon="15.094556439374106"><ele>108.0</ele><time>2026-03-27T15:46:50.999Z</time></trkpt><trkpt lat="37.532840763085886" lon="15.094534199180263"><ele>108.0</ele><time>2026-03-27T15:46:51.999Z</time></trkpt><trkpt lat="37.53261963572976" lon="15.09451461984927"><ele>106.66666666666666</ele><time>2026-03-27T15:46:52.999Z</time></trkpt><trkpt lat="37.532398201579134" lon="15.094493507569345"><ele>105.33333333333333</ele><time>2026-03-27T15:46:53.999Z</time></trkpt><trkpt lat="37.53219125611028" lon="15.094467573025184"><ele>104.0</ele><time>2026-03-27T15:46:54.999Z</time></trkpt><trkpt lat="37.53201083136902" lon="15.094442484512262"><ele>103.33333333333333</ele><time>2026-03-27T15:46:55.999Z</time></trkpt><trkpt lat="37.53182793420314" lon="15.094408596609064"><ele>102.66666666666666</ele><time>2026-03-27T15:46:56.999Z</time></trkpt><trkpt lat="37.5316511669279" lon="15.094370404724854"><ele>102.0</ele><time>2026-03-27T15:46:57.999Z</time></trkpt><trkpt lat="37.53147981789739" lon="15.09432412670007"><ele>102.0</ele><time>2026-03-27T15:46:58.999Z</time></trkpt><trkpt lat="37.53130665135223" lon="15.094261981804044"><ele>102.0</ele><time>2026-03-27T15:46:59.999Z</time></trkpt><trkpt lat="37.53113128963325" lon="15.094191579793726"><ele>102.0</ele><time>2026-03-27T15:47:00.999Z</time></trkpt><trkpt lat="37.53096880907563" lon="15.094106040444354"><ele>102.66666666666666</ele><time>2026-03-27T15:47:01.999Z</time></trkpt><trkpt lat="37.530816581684526" lon="15.094010653847217"><ele>103.33333333333333</ele><time>2026-03-27T15:47:02.999Z</time></trkpt><trkpt lat="37.53067240936686" lon="15.093902103738358"><ele>104.0</ele><time>2026-03-27T15:47:03.999Z</time></trkpt><trkpt lat="37.53053689936032" lon="15.093778173211518"><ele>104.0</ele><time>2026-03-27T15:47:04.999Z</time></trkpt><trkpt lat="37.53041176496142" lon="15.093646110552577"><ele>104.0</ele><time>2026-03-27T15:47:05.999Z</time></trkpt><trkpt lat="37.530295106704585" lon="15.093515268851828"><ele>104.0</ele><time>2026-03-27T15:47:06.999Z</time></trkpt><trkpt lat="37.530179321290156" lon="15.093394196963501"><ele>102.25</ele><time>2026-03-27T15:47:07.999Z</time></trkpt><trkpt lat="37.53007143652332" lon="15.093268399331297"><ele>100.5</ele><time>2026-03-27T15:47:08.999Z</time></trkpt><trkpt lat="37.52997177801655" lon="15.093148761480554"><ele>98.75</ele><time>2026-03-27T15:47:09.999Z</time></trkpt><trkpt lat="37.52988234706599" lon="15.093034799254415"><ele>97.0</ele><time>2026-03-27T15:47:10.999Z</time></trkpt><trkpt lat="37.529800525128444" lon="15.092925632950964"><ele>97.0</ele><time>2026-03-27T15:47:11.999Z</time></trkpt><trkpt lat="37.52972502373361" lon="15.092819394269641"><ele>97.0</ele><time>2026-03-27T15:47:12.999Z</time></trkpt><trkpt lat="37.52964375508428" lon="15.092703573008436"><ele>97.0</ele><time>2026-03-27T15:47:13.999Z</time></trkpt><trkpt lat="37.52956264559584" lon="15.092592619400516"><ele>97.0</ele><time>2026-03-27T15:47:14.999Z</time></trkpt><trkpt lat="37.52948026823075" lon="15.092476493561284"><ele>96.25</ele><time>2026-03-27T15:47:15.999Z</time></trkpt><trkpt lat="37.529398032819536" lon="15.092363048333635"><ele>95.5</ele><time>2026-03-27T15:47:16.999Z</time></trkpt><trkpt lat="37.529320034036786" lon="15.092254761207984"><ele>94.75</ele><time>2026-03-27T15:47:17.999Z</time></trkpt><trkpt lat="37.5292380450951" lon="15.092139872043719"><ele>94.0</ele><time>2026-03-27T15:47:18.999Z</time></trkpt><trkpt lat="37.529149252610324" lon="15.092016431305412"><ele>94.0</ele><time>2026-03-27T15:47:19.999Z</time></trkpt><trkpt lat="37.52905552915221" lon="15.091886831242407"><ele>94.0</ele><time>2026-03-27T15:47:20.999Z</time></trkpt><trkpt lat="37.52896233107218" lon="15.091756725663563"><ele>94.0</ele><time>2026-03-27T15:47:21.999Z</time></trkpt><trkpt lat="37.52887524372614" lon="15.091632541440484"><ele>94.0</ele><time>2026-03-27T15:47:22.999Z</time></trkpt><trkpt lat="37.52879389837179" lon="15.091514396252245"><ele>91.0</ele><time>2026-03-27T15:47:23.999Z</time></trkpt><trkpt lat="37.52872026283818" lon="15.091393537774648"><ele>88.0</ele><time>2026-03-27T15:47:24.999Z</time></trkpt><trkpt lat="37.52865071839891" lon="15.091267016015358"><ele>85.0</ele><time>2026-03-27T15:47:25.999Z</time></trkpt><trkpt lat="37.52860155341009" lon="15.091119055414579"><ele>82.0</ele><time>2026-03-27T15:47:26.999Z</time></trkpt><trkpt lat="37.52855196936546" lon="15.090978155002318"><ele>82.0</ele><time>2026-03-27T15:47:27.999Z</time></trkpt><trkpt lat="37.52851111350134" lon="15.090829547159341"><ele>82.0</ele><time>2026-03-27T15:47:28.999Z</time></trkpt><trkpt lat="37.5284699727994" lon="15.090678914262284"><ele>82.0</ele><time>2026-03-27T15:47:29.999Z</time></trkpt><trkpt lat="37.52848189462284" lon="15.090561266507189"><ele>82.0</ele><time>2026-03-27T15:47:30.999Z</time></trkpt><trkpt lat="37.52843456278518" lon="15.090390731994278"><ele>84.0</ele><time>2026-03-27T15:47:31.999Z</time></trkpt><trkpt lat="37.52837510124122" lon="15.090173429446883"><ele>86.0</ele><time>2026-03-27T15:47:32.999Z</time></trkpt><trkpt lat="37.52833755158286" lon="15.090011901202807"><ele>88.0</ele><time>2026-03-27T15:47:33.999Z</time></trkpt><trkpt lat="37.52829190929851" lon="15.089848368347976"><ele>88.80000000000001</ele><time>2026-03-27T15:47:34.999Z</time></trkpt><trkpt lat="37.528256888425666" lon="15.089701662834425"><ele>89.6</ele><time>2026-03-27T15:47:35.999Z</time></trkpt><trkpt lat="37.52822628407879" lon="15.089566083647393"><ele>90.4</ele><time>2026-03-27T15:47:36.999Z</time></trkpt><trkpt lat="37.528196895412144" lon="15.089439023265458"><ele>91.19999999999999</ele><time>2026-03-27T15:47:37.999Z</time></trkpt><trkpt lat="37.52817238134158" lon="15.089312764754142"><ele>92.0</ele><time>2026-03-27T15:47:38.999Z</time></trkpt><trkpt lat="37.528150073270965" lon="15.089180387288934"><ele>92.25</ele><time>2026-03-27T15:47:39.999Z</time></trkpt><trkpt lat="37.528128190079556" lon="15.089047507537156"><ele>92.5</ele><time>2026-03-27T15:47:40.999Z</time></trkpt><trkpt lat="37.52811686594486" lon="15.088911120913"><ele>92.75</ele><time>2026-03-27T15:47:41.999Z</time></trkpt><trkpt lat="37.52811133686579" lon="15.088764787787296"><ele>93.0</ele><time>2026-03-27T15:47:42.999Z</time></trkpt><trkpt lat="37.5281059237606" lon="15.088612579872322"><ele>93.0</ele><time>2026-03-27T15:47:43.999Z</time></trkpt><trkpt lat="37.52810414364248" lon="15.088452825706563"><ele>93.0</ele><time>2026-03-27T15:47:44.999Z</time></trkpt><trkpt lat="37.52810258690556" lon="15.088308499628972"><ele>93.0</ele><time>2026-03-27T15:47:45.999Z</time></trkpt><trkpt lat="37.528098377851336" lon="15.088177445188832"><ele>93.0</ele><time>2026-03-27T15:47:46.999Z</time></trkpt><trkpt lat="37.52809111521643" lon="15.088057001413132"><ele>93.0</ele><time>2026-03-27T15:47:47.999Z</time></trkpt><trkpt lat="37.52808440986057" lon="15.087949083714973"><ele>92.83333333333333</ele><time>2026-03-27T15:47:48.999Z</time></trkpt><trkpt lat="37.52807799329374" lon="15.087853754406584"><ele>92.66666666666667</ele><time>2026-03-27T15:47:49.999Z</time></trkpt><trkpt lat="37.52807290306199" lon="15.087766274145302"><ele>92.5</ele><time>2026-03-27T15:47:50.999Z</time></trkpt><trkpt lat="37.528068942823886" lon="15.087686341828809"><ele>92.33333333333334</ele><time>2026-03-27T15:47:51.999Z</time></trkpt><trkpt lat="37.528061006463844" lon="15.087537855869552"><ele>92.16666666666667</ele><time>2026-03-27T15:47:53.999Z</time></trkpt><trkpt lat="37.52805368356122" lon="15.087404081367639"><ele>92.0</ele><time>2026-03-27T15:47:55.999Z</time></trkpt><trkpt lat="37.528047106485445" lon="15.087257062279964"><ele>91.83333333333334</ele><time>2026-03-27T15:47:57.999Z</time></trkpt><trkpt lat="37.528041522320265" lon="15.087090381825584"><ele>91.66666666666667</ele><time>2026-03-27T15:47:59.999Z</time></trkpt><trkpt lat="37.5280392731453" lon="15.086996891960812"><ele>91.5</ele><time>2026-03-27T15:48:00.999Z</time></trkpt><trkpt lat="37.52803803189611" lon="15.086902931773249"><ele>91.33333333333333</ele><time>2026-03-27T15:48:01.999Z</time></trkpt><trkpt lat="37.528033891457405" lon="15.08680995345213"><ele>91.16666666666666</ele><time>2026-03-27T15:48:02.999Z</time></trkpt><trkpt lat="37.52803234421776" lon="15.086720208727495"><ele>91.0</ele><time>2026-03-27T15:48:03.999Z</time></trkpt><trkpt lat="37.52803194830145" lon="15.086640356854781"><ele>91.33333333333333</ele><time>2026-03-27T15:48:04.999Z</time></trkpt><trkpt lat="37.52802969314187" lon="15.086509210840122"><ele>91.66666666666666</ele><time>2026-03-27T15:48:06.999Z</time></trkpt><trkpt lat="37.52803092873747" lon="15.086405571102869"><ele>92.0</ele><time>2026-03-27T15:48:08.999Z</time></trkpt><trkpt lat="37.52803418473923" lon="15.086296566129933"><ele>92.33333333333333</ele><time>2026-03-27T15:48:10.999Z</time></trkpt><trkpt lat="37.52804137773658" lon="15.086180769961896"><ele>92.66666666666667</ele><time>2026-03-27T15:48:12.999Z</time></trkpt><trkpt lat="37.528053351281294" lon="15.08608107064303"><ele>93.0</ele><time>2026-03-27T15:48:15Z</time></trkpt><trkpt lat="37.528067578331154" lon="15.08598501742294"><ele>93.0</ele><time>2026-03-27T15:48:17Z</time></trkpt><trkpt lat="37.52807333515323" lon="15.085899359661353"><ele>93.0</ele><time>2026-03-27T15:48:19Z</time></trkpt><trkpt lat="37.52806963065382" lon="15.08579487388098"><ele>93.0</ele><time>2026-03-27T15:48:20.999Z</time></trkpt><trkpt lat="37.528058943244815" lon="15.085681871638645"><ele>93.0</ele><time>2026-03-27T15:48:22.999Z</time></trkpt><trkpt lat="37.52804745077272" lon="15.085582164040655"><ele>93.0</ele><time>2026-03-27T15:48:25Z</time></trkpt><trkpt lat="37.52802384714981" lon="15.085472998453593"><ele>93.0</ele><time>2026-03-27T15:48:27Z</time></trkpt><trkpt lat="37.5279955317323" lon="15.085323052479403"><ele>93.4</ele><time>2026-03-27T15:48:29Z</time></trkpt><trkpt lat="37.527960562008744" lon="15.085192935200666"><ele>93.80000000000001</ele><time>2026-03-27T15:48:30.999Z</time></trkpt><trkpt lat="37.527937279389825" lon="15.085101408109736"><ele>94.2</ele><time>2026-03-27T15:48:32.999Z</time></trkpt><trkpt lat="37.52790405174181" lon="15.08499092191928"><ele>94.6</ele><time>2026-03-27T15:48:35.999Z</time></trkpt><trkpt lat="37.5278708247536" lon="15.084887055451773"><ele>95.0</ele><time>2026-03-27T15:48:37.999Z</time></trkpt><trkpt lat="37.52783958425633" lon="15.084782609777028"><ele>94.33333333333334</ele><time>2026-03-27T15:48:39.999Z</time></trkpt><trkpt lat="37.5277954840085" lon="15.084658318181154"><ele>93.66666666666667</ele><time>2026-03-27T15:48:41.999Z</time></trkpt><trkpt lat="37.527772599090824" lon="15.08458037343013"><ele>93.0</ele><time>2026-03-27T15:48:42.999Z</time></trkpt><trkpt lat="37.52774403622605" lon="15.084491824508422"><ele>92.33333333333333</ele><time>2026-03-27T15:48:43.999Z</time></trkpt><trkpt lat="37.52771172591751" lon="15.084410361917653"><ele>91.66666666666666</ele><time>2026-03-27T15:48:44.999Z</time></trkpt><trkpt lat="37.52766451018555" lon="15.084302596553908"><ele>91.0</ele><time>2026-03-27T15:48:46.999Z</time></trkpt><trkpt lat="37.52762099347692" lon="15.084206262679237"><ele>91.0</ele><time>2026-03-27T15:48:49.999Z</time></trkpt><trkpt lat="37.527591379441084" lon="15.084130978686192"><ele>91.0</ele><time>2026-03-27T15:48:51.999Z</time></trkpt><trkpt lat="37.52756923231074" lon="15.084040585078066"><ele>91.0</ele><time>2026-03-27T15:48:54.999Z</time></trkpt><trkpt lat="37.52753471778276" lon="15.083952679382078"><ele>91.0</ele><time>2026-03-27T15:48:56.999Z</time></trkpt><trkpt lat="37.5275049717101" lon="15.083874652796684"><ele>91.0</ele><time>2026-03-27T15:48:58.999Z</time></trkpt><trkpt lat="37.527467581095095" lon="15.083769925434344"><ele>91.0</ele><time>2026-03-27T15:49:01.999Z</time></trkpt><trkpt lat="37.52742563702193" lon="15.083655038117561"><ele>91.33333333333333</ele><time>2026-03-27T15:49:03.999Z</time></trkpt><trkpt lat="37.52739812310697" lon="15.083580658015698"><ele>91.66666666666666</ele><time>2026-03-27T15:49:04.999Z</time></trkpt><trkpt lat="37.527367642159206" lon="15.083500027389068"><ele>92.0</ele><time>2026-03-27T15:49:05.999Z</time></trkpt><trkpt lat="37.52733691752703" lon="15.083421596230572"><ele>92.33333333333333</ele><time>2026-03-27T15:49:06.999Z</time></trkpt><trkpt lat="37.52729370519525" lon="15.083303395334038"><ele>92.66666666666667</ele><time>2026-03-27T15:49:08.999Z</time></trkpt><trkpt lat="37.52725401327195" lon="15.083188362581271"><ele>93.0</ele><time>2026-03-27T15:49:10.999Z</time></trkpt><trkpt lat="37.527212042958254" lon="15.083041114954224"><ele>93.0</ele><time>2026-03-27T15:49:12.999Z</time></trkpt><trkpt lat="37.52717708594322" lon="15.082920960082548"><ele>93.0</ele><time>2026-03-27T15:49:14.999Z</time></trkpt><trkpt lat="37.52714788289052" lon="15.082824678024174"><ele>93.0</ele><time>2026-03-27T15:49:16.999Z</time></trkpt><trkpt lat="37.52711879770296" lon="15.082703517682635"><ele>93.0</ele><time>2026-03-27T15:49:18.999Z</time></trkpt><trkpt lat="37.52706951755308" lon="15.082559191753111"><ele>93.0</ele><time>2026-03-27T15:49:20.999Z</time></trkpt><trkpt lat="37.5270496117402" lon="15.082478954030565"><ele>93.5</ele><time>2026-03-27T15:49:21.999Z</time></trkpt><trkpt lat="37.527019897470076" lon="15.082326041378709"><ele>94.0</ele><time>2026-03-27T15:49:23.999Z</time></trkpt><trkpt lat="37.52700656282864" lon="15.082244476171768"><ele>94.5</ele><time>2026-03-27T15:49:24.999Z</time></trkpt><trkpt lat="37.5269924666117" lon="15.082157171822756"><ele>95.0</ele><time>2026-03-27T15:49:25.999Z</time></trkpt><trkpt lat="37.526979467260354" lon="15.082076660865303"><ele>95.5</ele><time>2026-03-27T15:49:26.999Z</time></trkpt><trkpt lat="37.52696989803394" lon="15.081940734027569"><ele>96.0</ele><time>2026-03-27T15:49:28.999Z</time></trkpt><trkpt lat="37.52694773626353" lon="15.08183701969195"><ele>96.0</ele><time>2026-03-27T15:49:30.999Z</time></trkpt><trkpt lat="37.52691878389531" lon="15.081682487716309"><ele>96.0</ele><time>2026-03-27T15:49:32.999Z</time></trkpt><trkpt lat="37.52690475507034" lon="15.081593918581838"><ele>96.0</ele><time>2026-03-27T15:49:33.999Z</time></trkpt><trkpt lat="37.526888139903726" lon="15.08150428435645"><ele>96.0</ele><time>2026-03-27T15:49:34.999Z</time></trkpt><trkpt lat="37.526860408104476" lon="15.081345975373225"><ele>96.0</ele><time>2026-03-27T15:49:36.999Z</time></trkpt><trkpt lat="37.52684733131452" lon="15.081264791244601"><ele>97.0</ele><time>2026-03-27T15:49:37.999Z</time></trkpt><trkpt lat="37.526834933267175" lon="15.081181817778457"><ele>98.0</ele><time>2026-03-27T15:49:38.999Z</time></trkpt><trkpt lat="37.5268209928728" lon="15.081092749080481"><ele>99.0</ele><time>2026-03-27T15:49:39.999Z</time></trkpt><trkpt lat="37.52680532020618" lon="15.080997632905582"><ele>100.0</ele><time>2026-03-27T15:49:40.999Z</time></trkpt><trkpt lat="37.52678946378271" lon="15.080897613010452"><ele>101.0</ele><time>2026-03-27T15:49:41.999Z</time></trkpt><trkpt lat="37.526771424140996" lon="15.080789191300886"><ele>102.0</ele><time>2026-03-27T15:49:42.999Z</time></trkpt><trkpt lat="37.526748682865396" lon="15.080673731751665"><ele>103.19999999999999</ele><time>2026-03-27T15:49:43.999Z</time></trkpt><trkpt lat="37.526720808650175" lon="15.080554506651056"><ele>104.4</ele><time>2026-03-27T15:49:44.999Z</time></trkpt><trkpt lat="37.52668717548529" lon="15.080430687044156"><ele>105.60000000000001</ele><time>2026-03-27T15:49:45.999Z</time></trkpt><trkpt lat="37.52665272111674" lon="15.080308487672179"><ele>106.80000000000001</ele><time>2026-03-27T15:49:46.999Z</time></trkpt><trkpt lat="37.52661523465203" lon="15.080179461868166"><ele>108.0</ele><time>2026-03-27T15:49:47.999Z</time></trkpt><trkpt lat="37.52656977401945" lon="15.080036889452252"><ele>109.5</ele><time>2026-03-27T15:49:48.999Z</time></trkpt><trkpt lat="37.526520785559185" lon="15.079880977108703"><ele>111.0</ele><time>2026-03-27T15:49:49.999Z</time></trkpt><trkpt lat="37.52647761479189" lon="15.079711905631495"><ele>112.5</ele><time>2026-03-27T15:49:50.999Z</time></trkpt><trkpt lat="37.52643640783582" lon="15.079554459378528"><ele>114.0</ele><time>2026-03-27T15:49:51.999Z</time></trkpt><trkpt lat="37.52640085066386" lon="15.079413973156056"><ele>114.0</ele><time>2026-03-27T15:49:52.999Z</time></trkpt><trkpt lat="37.52636994984499" lon="15.079294630890464"><ele>114.0</ele><time>2026-03-27T15:49:53.999Z</time></trkpt><trkpt lat="37.52633692498173" lon="15.07917940363719"><ele>114.0</ele><time>2026-03-27T15:49:54.999Z</time></trkpt><trkpt lat="37.526308220365436" lon="15.079072848403987"><ele>114.0</ele><time>2026-03-27T15:49:55.999Z</time></trkpt><trkpt lat="37.52627441740421" lon="15.078958348598862"><ele>114.0</ele><time>2026-03-27T15:49:56.999Z</time></trkpt><trkpt lat="37.52624057221634" lon="15.078835325957986"><ele>113.6</ele><time>2026-03-27T15:49:57.999Z</time></trkpt><trkpt lat="37.52620814695658" lon="15.078700437177734"><ele>113.2</ele><time>2026-03-27T15:49:58.999Z</time></trkpt><trkpt lat="37.52617335889177" lon="15.078561103360451"><ele>112.79999999999998</ele><time>2026-03-27T15:49:59.999Z</time></trkpt><trkpt lat="37.526137400563435" lon="15.07842512010285"><ele>112.39999999999999</ele><time>2026-03-27T15:50:00.999Z</time></trkpt><trkpt lat="37.52610179977732" lon="15.078301598093457"><ele>112.0</ele><time>2026-03-27T15:50:01.999Z</time></trkpt><trkpt lat="37.52607173877207" lon="15.078189468921519"><ele>113.19999999999999</ele><time>2026-03-27T15:50:02.999Z</time></trkpt><trkpt lat="37.52604093975352" lon="15.078074748781411"><ele>114.39999999999999</ele><time>2026-03-27T15:50:03.999Z</time></trkpt><trkpt lat="37.52600959810049" lon="15.07795364340913"><ele>115.60000000000001</ele><time>2026-03-27T15:50:04.999Z</time></trkpt><trkpt lat="37.52597326036858" lon="15.077826011466687"><ele>116.80000000000001</ele><time>2026-03-27T15:50:05.999Z</time></trkpt><trkpt lat="37.52593552701257" lon="15.077690740044277"><ele>118.0</ele><time>2026-03-27T15:50:06.999Z</time></trkpt><trkpt lat="37.525901353479505" lon="15.077561718062075"><ele>118.0</ele><time>2026-03-27T15:50:07.999Z</time></trkpt><trkpt lat="37.52587279946622" lon="15.077443743447873"><ele>118.00000000000001</ele><time>2026-03-27T15:50:08.999Z</time></trkpt><trkpt lat="37.525843059710674" lon="15.07732887692073"><ele>118.00000000000001</ele><time>2026-03-27T15:50:09.999Z</time></trkpt><trkpt lat="37.52581457729048" lon="15.077220969528208"><ele>118.0</ele><time>2026-03-27T15:50:10.999Z</time></trkpt><trkpt lat="37.5257901789199" lon="15.077120163139748"><ele>118.0</ele><time>2026-03-27T15:50:11.999Z</time></trkpt><trkpt lat="37.525762735591606" lon="15.077022239885048"><ele>119.00000000000001</ele><time>2026-03-27T15:50:12.999Z</time></trkpt><trkpt lat="37.52573512772489" lon="15.076926264428023"><ele>120.0</ele><time>2026-03-27T15:50:13.999Z</time></trkpt><trkpt lat="37.525708838535444" lon="15.076836113995721"><ele>121.0</ele><time>2026-03-27T15:50:14.999Z</time></trkpt><trkpt lat="37.525683091676875" lon="15.076749200308702"><ele>122.0</ele><time>2026-03-27T15:50:15.999Z</time></trkpt><trkpt lat="37.52565603668841" lon="15.076652408918035"><ele>123.00000000000001</ele><time>2026-03-27T15:50:16.999Z</time></trkpt><trkpt lat="37.52562758650755" lon="15.076546785878689"><ele>124.0</ele><time>2026-03-27T15:50:17.999Z</time></trkpt><trkpt lat="37.52559920076471" lon="15.076439852756"><ele>124.83333333333334</ele><time>2026-03-27T15:50:18.999Z</time></trkpt><trkpt lat="37.525572143288755" lon="15.076340881171873"><ele>125.66666666666667</ele><time>2026-03-27T15:50:19.999Z</time></trkpt><trkpt lat="37.52554465069495" lon="15.07624686421764"><ele>126.5</ele><time>2026-03-27T15:50:21Z</time></trkpt><trkpt lat="37.52551617987003" lon="15.076155236001458"><ele>127.33333333333334</ele><time>2026-03-27T15:50:22Z</time></trkpt><trkpt lat="37.52548466962411" lon="15.076061933515662"><ele>128.16666666666666</ele><time>2026-03-27T15:50:23Z</time></trkpt><trkpt lat="37.52545250512073" lon="15.075971362488717"><ele>129.0</ele><time>2026-03-27T15:50:24Z</time></trkpt><trkpt lat="37.525422400439005" lon="15.07589320605132"><ele>129.16666666666666</ele><time>2026-03-27T15:50:25Z</time></trkpt><trkpt lat="37.52539011723262" lon="15.075822256420507"><ele>129.33333333333334</ele><time>2026-03-27T15:50:26Z</time></trkpt><trkpt lat="37.525350862694516" lon="15.075745149190388"><ele>129.5</ele><time>2026-03-27T15:50:27Z</time></trkpt><trkpt lat="37.525306542458395" lon="15.075658505070338"><ele>129.66666666666669</ele><time>2026-03-27T15:50:28Z</time></trkpt><trkpt lat="37.5252573540004" lon="15.075562403327115"><ele>129.83333333333334</ele><time>2026-03-27T15:50:29Z</time></trkpt><trkpt lat="37.525202983656555" lon="15.075458219743961"><ele>130.0</ele><time>2026-03-27T15:50:30Z</time></trkpt><trkpt lat="37.52514865394857" lon="15.075355071633096"><ele>130.0</ele><time>2026-03-27T15:50:31Z</time></trkpt><trkpt lat="37.525101826250506" lon="15.075263645292507"><ele>130.0</ele><time>2026-03-27T15:50:32Z</time></trkpt><trkpt lat="37.525063571658265" lon="15.075174283217487"><ele>130.0</ele><time>2026-03-27T15:50:33Z</time></trkpt><trkpt lat="37.525024457472085" lon="15.075085264309166"><ele>130.0</ele><time>2026-03-27T15:50:34Z</time></trkpt><trkpt lat="37.52498733850292" lon="15.074998331484306"><ele>130.0</ele><time>2026-03-27T15:50:35Z</time></trkpt><trkpt lat="37.52492930095006" lon="15.07486526883885"><ele>130.0</ele><time>2026-03-27T15:50:37Z</time></trkpt><trkpt lat="37.52489964523363" lon="15.074791008147656"><ele>131.33333333333334</ele><time>2026-03-27T15:50:38Z</time></trkpt><trkpt lat="37.524867978775326" lon="15.074722273644246"><ele>132.66666666666669</ele><time>2026-03-27T15:50:38.999Z</time></trkpt><trkpt lat="37.52483215651747" lon="15.074646756846452"><ele>134.0</ele><time>2026-03-27T15:50:39.999Z</time></trkpt><trkpt lat="37.52479426884776" lon="15.074566575679748"><ele>135.33333333333334</ele><time>2026-03-27T15:50:40.999Z</time></trkpt><trkpt lat="37.524761397856636" lon="15.07449372537697"><ele>136.66666666666666</ele><time>2026-03-27T15:50:41.999Z</time></trkpt><trkpt lat="37.524707605063575" lon="15.074360611677141"><ele>138.0</ele><time>2026-03-27T15:50:43.999Z</time></trkpt><trkpt lat="37.52467747671808" lon="15.074284487042855"><ele>138.0</ele><time>2026-03-27T15:50:44.999Z</time></trkpt><trkpt lat="37.52464767566823" lon="15.074207303428025"><ele>138.0</ele><time>2026-03-27T15:50:45.999Z</time></trkpt><trkpt lat="37.52460118923514" lon="15.074073055312844"><ele>138.0</ele><time>2026-03-27T15:50:47.999Z</time></trkpt><trkpt lat="37.52458024866373" lon="15.07399028566456"><ele>138.0</ele><time>2026-03-27T15:50:48.999Z</time></trkpt><trkpt lat="37.52456639999162" lon="15.073905588675355"><ele>138.0</ele><time>2026-03-27T15:50:49.999Z</time></trkpt><trkpt lat="37.52455013358176" lon="15.073788266783783"><ele>138.0</ele><time>2026-03-27T15:50:51.999Z</time></trkpt><trkpt lat="37.52453203798121" lon="15.073682762716633"><ele>137.6</ele><time>2026-03-27T15:50:53.999Z</time></trkpt><trkpt lat="37.52450265446979" lon="15.073583601879232"><ele>137.20000000000002</ele><time>2026-03-27T15:50:55.999Z</time></trkpt><trkpt lat="37.52447073798348" lon="15.073476101522417"><ele>136.8</ele><time>2026-03-27T15:50:57.999Z</time></trkpt><trkpt lat="37.524435708327765" lon="15.07338498281077"><ele>136.4</ele><time>2026-03-27T15:50:59.999Z</time></trkpt><trkpt lat="37.5243908497521" lon="15.073274189360632"><ele>136.0</ele><time>2026-03-27T15:51:02.999Z</time></trkpt><trkpt lat="37.524345238840574" lon="15.073168003461213"><ele>136.83333333333334</ele><time>2026-03-27T15:51:04.999Z</time></trkpt><trkpt lat="37.52429111573805" lon="15.073048042029288"><ele>137.66666666666669</ele><time>2026-03-27T15:51:06.999Z</time></trkpt><trkpt lat="37.52422593003925" lon="15.072925128609509"><ele>138.5</ele><time>2026-03-27T15:51:08.999Z</time></trkpt><trkpt lat="37.52418266933453" lon="15.072853120791004"><ele>139.33333333333334</ele><time>2026-03-27T15:51:09.999Z</time></trkpt><trkpt lat="37.52414093634562" lon="15.072788625576603"><ele>140.16666666666666</ele><time>2026-03-27T15:51:10.999Z</time></trkpt><trkpt lat="37.5240963397633" lon="15.072723980777722"><ele>141.0</ele><time>2026-03-27T15:51:11.999Z</time></trkpt><trkpt lat="37.524048643727774" lon="15.072657217526412"><ele>141.0</ele><time>2026-03-27T15:51:12.999Z</time></trkpt><trkpt lat="37.52399211312781" lon="15.072588752018376"><ele>141.0</ele><time>2026-03-27T15:51:13.999Z</time></trkpt><trkpt lat="37.52393268613163" lon="15.072504863019118"><ele>141.0</ele><time>2026-03-27T15:51:14.999Z</time></trkpt><trkpt lat="37.52387817274641" lon="15.072413492602143"><ele>141.0</ele><time>2026-03-27T15:51:15.999Z</time></trkpt><trkpt lat="37.52382451066039" lon="15.07233070395149"><ele>141.0</ele><time>2026-03-27T15:51:16.999Z</time></trkpt><trkpt lat="37.52377901860432" lon="15.072255793931305"><ele>141.0</ele><time>2026-03-27T15:51:17.999Z</time></trkpt><trkpt lat="37.52374214756082" lon="15.072176978894579"><ele>140.16666666666666</ele><time>2026-03-27T15:51:18.999Z</time></trkpt><trkpt lat="37.52370036397633" lon="15.072085168446378"><ele>139.33333333333334</ele><time>2026-03-27T15:51:19.999Z</time></trkpt><trkpt lat="37.52365582110451" lon="15.071985873016642"><ele>138.5</ele><time>2026-03-27T15:51:20.999Z</time></trkpt><trkpt lat="37.52361135450937" lon="15.07188883078743"><ele>137.66666666666669</ele><time>2026-03-27T15:51:21.999Z</time></trkpt><trkpt lat="37.523568039245475" lon="15.071790402918888"><ele>136.83333333333334</ele><time>2026-03-27T15:51:22.999Z</time></trkpt><trkpt lat="37.52352271327281" lon="15.071689597619997"><ele>136.0</ele><time>2026-03-27T15:51:23.999Z</time></trkpt><trkpt lat="37.52347398231859" lon="15.071578804842142"><ele>136.0</ele><time>2026-03-27T15:51:24.999Z</time></trkpt><trkpt lat="37.5234270792207" lon="15.071464486777499"><ele>136.0</ele><time>2026-03-27T15:51:25.999Z</time></trkpt><trkpt lat="37.52338798368669" lon="15.071354133957513"><ele>136.0</ele><time>2026-03-27T15:51:26.999Z</time></trkpt><trkpt lat="37.523350546732544" lon="15.071244873505632"><ele>136.0</ele><time>2026-03-27T15:51:27.999Z</time></trkpt><trkpt lat="37.52331468437084" lon="15.071134910763941"><ele>136.0</ele><time>2026-03-27T15:51:28.999Z</time></trkpt><trkpt lat="37.52328175693962" lon="15.071019391240311"><ele>136.0</ele><time>2026-03-27T15:51:29.999Z</time></trkpt><trkpt lat="37.523244792214335" lon="15.070897967670847"><ele>136.0</ele><time>2026-03-27T15:51:30.999Z</time></trkpt><trkpt lat="37.523210606847215" lon="15.070769046067912"><ele>136.0</ele><time>2026-03-27T15:51:31.999Z</time></trkpt><trkpt lat="37.52317970789931" lon="15.07063914952425"><ele>136.0</ele><time>2026-03-27T15:51:32.999Z</time></trkpt><trkpt lat="37.52315276032093" lon="15.070510771677418"><ele>136.0</ele><time>2026-03-27T15:51:33.999Z</time></trkpt><trkpt lat="37.52312980467184" lon="15.070383394770614"><ele>135.8</ele><time>2026-03-27T15:51:34.999Z</time></trkpt><trkpt lat="37.5231082896605" lon="15.070269492037829"><ele>135.6</ele><time>2026-03-27T15:51:35.999Z</time></trkpt><trkpt lat="37.52309138318618" lon="15.070157148191097"><ele>135.4</ele><time>2026-03-27T15:51:36.999Z</time></trkpt><trkpt lat="37.52307599854614" lon="15.070044553264626"><ele>135.2</ele><time>2026-03-27T15:51:37.999Z</time></trkpt><trkpt lat="37.523059672593305" lon="15.06992405300541"><ele>135.0</ele><time>2026-03-27T15:51:38.999Z</time></trkpt><trkpt lat="37.52303956108083" lon="15.069796639242208"><ele>135.0</ele><time>2026-03-27T15:51:39.999Z</time></trkpt><trkpt lat="37.523023288415565" lon="15.069672027322385"><ele>135.0</ele><time>2026-03-27T15:51:40.999Z</time></trkpt><trkpt lat="37.523009173276414" lon="15.069547083359804"><ele>135.0</ele><time>2026-03-27T15:51:41.999Z</time></trkpt><trkpt lat="37.522996737177465" lon="15.069423080476623"><ele>135.0</ele><time>2026-03-27T15:51:42.999Z</time></trkpt><trkpt lat="37.52298994422589" lon="15.069301788275592"><ele>135.0</ele><time>2026-03-27T15:51:43.999Z</time></trkpt><trkpt lat="37.52298911765237" lon="15.06918569308417"><ele>135.5</ele><time>2026-03-27T15:51:44.999Z</time></trkpt><trkpt lat="37.52298797503985" lon="15.06907338695063"><ele>136.0</ele><time>2026-03-27T15:51:45.999Z</time></trkpt><trkpt lat="37.52298350337863" lon="15.068959979997995"><ele>136.5</ele><time>2026-03-27T15:51:46.999Z</time></trkpt><trkpt lat="37.52297271387402" lon="15.06884548858068"><ele>137.0</ele><time>2026-03-27T15:51:47.999Z</time></trkpt><trkpt lat="37.52296089172606" lon="15.068744482280817"><ele>137.5</ele><time>2026-03-27T15:51:48.999Z</time></trkpt><trkpt lat="37.52295020129752" lon="15.068662210404124"><ele>138.0</ele><time>2026-03-27T15:51:49.999Z</time></trkpt><trkpt lat="37.52292957524669" lon="15.068525511502477"><ele>138.0</ele><time>2026-03-27T15:51:51.999Z</time></trkpt><trkpt lat="37.52291014461189" lon="15.068386102965649"><ele>138.0</ele><time>2026-03-27T15:51:53.999Z</time></trkpt><trkpt lat="37.52287185265913" lon="15.068241913312121"><ele>138.0</ele><time>2026-03-27T15:51:55.999Z</time></trkpt><trkpt lat="37.52283662271885" lon="15.06811913667904"><ele>138.0</ele><time>2026-03-27T15:51:57.999Z</time></trkpt><trkpt lat="37.52281030246814" lon="15.068032197435294"><ele>138.0</ele><time>2026-03-27T15:51:59.999Z</time></trkpt><trkpt lat="37.52278065095117" lon="15.067940327594732"><ele>135.20000000000002</ele><time>2026-03-27T15:52:27.999Z</time></trkpt><trkpt lat="37.52276278837665" lon="15.067854587126845"><ele>132.4</ele><time>2026-03-27T15:52:31.999Z</time></trkpt><trkpt lat="37.52274122941333" lon="15.067723650057417"><ele>129.60000000000002</ele><time>2026-03-27T15:52:34.999Z</time></trkpt><trkpt lat="37.522730901915445" lon="15.067593790373465"><ele>126.80000000000001</ele><time>2026-03-27T15:52:36.999Z</time></trkpt><trkpt lat="37.522719129324265" lon="15.067514875757398"><ele>124.0</ele><time>2026-03-27T15:52:37.999Z</time></trkpt><trkpt lat="37.52270964433474" lon="15.06737174088206"><ele>124.0</ele><time>2026-03-27T15:52:40Z</time></trkpt><trkpt lat="37.52268997838748" lon="15.067229718362903"><ele>124.0</ele><time>2026-03-27T15:52:41.999Z</time></trkpt><trkpt lat="37.52267593134501" lon="15.067128710478446"><ele>124.0</ele><time>2026-03-27T15:52:43.999Z</time></trkpt><trkpt lat="37.522662598926225" lon="15.066988819851458"><ele>124.0</ele><time>2026-03-27T15:52:50.999Z</time></trkpt><trkpt lat="37.52265495001237" lon="15.066897825449706"><ele>124.0</ele><time>2026-03-27T15:52:51.999Z</time></trkpt><trkpt lat="37.5226327992583" lon="15.066802678407173"><ele>124.00000000000001</ele><time>2026-03-27T15:52:52.999Z</time></trkpt><trkpt lat="37.52259707985375" lon="15.066704752795538"><ele>124.0</ele><time>2026-03-27T15:52:53.999Z</time></trkpt><trkpt lat="37.52258277010759" lon="15.066596725418789"><ele>124.0</ele><time>2026-03-27T15:52:54.999Z</time></trkpt><trkpt lat="37.52256442374533" lon="15.066469048562396"><ele>124.0</ele><time>2026-03-27T15:52:56.999Z</time></trkpt><trkpt lat="37.52256057734207" lon="15.066388067539902"><ele>124.00000000000001</ele><time>2026-03-27T15:53:06.999Z</time></trkpt><trkpt lat="37.5225452041135" lon="15.06628829356205"><ele>124.0</ele><time>2026-03-27T15:53:09.999Z</time></trkpt><trkpt lat="37.52254247049423" lon="15.06620236212009"><ele>123.85714285714286</ele><time>2026-03-27T15:53:11.999Z</time></trkpt><trkpt lat="37.52253498652249" lon="15.066105593328269"><ele>123.71428571428572</ele><time>2026-03-27T15:53:14.999Z</time></trkpt><trkpt lat="37.522522404087326" lon="15.066014224097398"><ele>123.57142857142858</ele><time>2026-03-27T15:53:18.999Z</time></trkpt><trkpt lat="37.522509980619304" lon="15.06593100714726"><ele>123.42857142857144</ele><time>2026-03-27T15:53:21.999Z</time></trkpt><trkpt lat="37.52249584954035" lon="15.065840680254999"><ele>123.28571428571429</ele><time>2026-03-27T15:53:28.999Z</time></trkpt><trkpt lat="37.522481155612226" lon="15.065756144712218"><ele>123.14285714285717</ele><time>2026-03-27T15:53:32.999Z</time></trkpt><trkpt lat="37.522461222012204" lon="15.065649983453884"><ele>123.00000000000001</ele><time>2026-03-27T15:53:35.999Z</time></trkpt><trkpt lat="37.52245024433491" lon="15.065564498732591"><ele>123.0</ele><time>2026-03-27T15:53:37.999Z</time></trkpt><trkpt lat="37.522436188898325" lon="15.065472891565621"><ele>123.00000000000001</ele><time>2026-03-27T15:53:40.999Z</time></trkpt><trkpt lat="37.52242097080901" lon="15.065370157085017"><ele>123.00000000000001</ele><time>2026-03-27T15:53:43.999Z</time></trkpt><trkpt lat="37.52240432231326" lon="15.065262706488062"><ele>123.0</ele><time>2026-03-27T15:53:45.999Z</time></trkpt><trkpt lat="37.522381045838934" lon="15.065096730951861"><ele>123.0</ele><time>2026-03-27T15:53:47.999Z</time></trkpt><trkpt lat="37.52236399546442" lon="15.064986975267177"><ele>122.60000000000001</ele><time>2026-03-27T15:53:48.999Z</time></trkpt><trkpt lat="37.52234806612071" lon="15.064868016063796"><ele>122.20000000000002</ele><time>2026-03-27T15:53:49.999Z</time></trkpt><trkpt lat="37.52233162262969" lon="15.064750070908719"><ele>121.8</ele><time>2026-03-27T15:53:50.999Z</time></trkpt><trkpt lat="37.52231831129509" lon="15.064644554343767"><ele>121.4</ele><time>2026-03-27T15:53:51.999Z</time></trkpt><trkpt lat="37.52230484304843" lon="15.06453572115181"><ele>121.0</ele><time>2026-03-27T15:53:52.999Z</time></trkpt><trkpt lat="37.52228951936804" lon="15.064414997004592"><ele>121.0</ele><time>2026-03-27T15:53:53.999Z</time></trkpt><trkpt lat="37.52227439461324" lon="15.064282681393628"><ele>121.0</ele><time>2026-03-27T15:53:54.999Z</time></trkpt><trkpt lat="37.52225588144743" lon="15.064141776059975"><ele>121.0</ele><time>2026-03-27T15:53:55.999Z</time></trkpt><trkpt lat="37.52223809472607" lon="15.06401419015958"><ele>121.0</ele><time>2026-03-27T15:53:56.999Z</time></trkpt><trkpt lat="37.52222371194372" lon="15.06388705393095"><ele>121.0</ele><time>2026-03-27T15:53:57.999Z</time></trkpt><trkpt lat="37.52220789866265" lon="15.06376449393388"><ele>121.66666666666667</ele><time>2026-03-27T15:53:58.999Z</time></trkpt><trkpt lat="37.5221948657672" lon="15.06365530643101"><ele>122.33333333333334</ele><time>2026-03-27T15:53:59.999Z</time></trkpt><trkpt lat="37.52218181514288" lon="15.06354599245262"><ele>123.0</ele><time>2026-03-27T15:54:00.999Z</time></trkpt><trkpt lat="37.52217515861287" lon="15.06343587640068"><ele>123.66666666666666</ele><time>2026-03-27T15:54:01.999Z</time></trkpt><trkpt lat="37.52217498619833" lon="15.063321252617751"><ele>124.33333333333333</ele><time>2026-03-27T15:54:02.999Z</time></trkpt><trkpt lat="37.52217311411776" lon="15.063215656867898"><ele>125.0</ele><time>2026-03-27T15:54:03.999Z</time></trkpt><trkpt lat="37.52217031084033" lon="15.063126987118665"><ele>124.85714285714286</ele><time>2026-03-27T15:54:04.999Z</time></trkpt><trkpt lat="37.522162927196696" lon="15.063044321674576"><ele>124.71428571428572</ele><time>2026-03-27T15:54:05.999Z</time></trkpt><trkpt lat="37.52214437358047" lon="15.06295775400034"><ele>124.57142857142858</ele><time>2026-03-27T15:54:06.999Z</time></trkpt><trkpt lat="37.522108357627864" lon="15.062877315912946"><ele>124.42857142857143</ele><time>2026-03-27T15:54:07.999Z</time></trkpt><trkpt lat="37.52205415834036" lon="15.062804138441159"><ele>124.2857142857143</ele><time>2026-03-27T15:54:08.999Z</time></trkpt><trkpt lat="37.52198888289697" lon="15.062752841343173"><ele>124.14285714285715</ele><time>2026-03-27T15:54:09.999Z</time></trkpt><trkpt lat="37.521912849928974" lon="15.062722453105122"><ele>124.0</ele><time>2026-03-27T15:54:10.999Z</time></trkpt><trkpt lat="37.5218367094833" lon="15.062716585026346"><ele>124.0</ele><time>2026-03-27T15:54:11.999Z</time></trkpt><trkpt lat="37.521760854889365" lon="15.062731057098608"><ele>124.0</ele><time>2026-03-27T15:54:12.999Z</time></trkpt><trkpt lat="37.521692372081915" lon="15.062764064846487"><ele>124.0</ele><time>2026-03-27T15:54:13.999Z</time></trkpt><trkpt lat="37.52159989521822" lon="15.062865294053418"><ele>124.0</ele><time>2026-03-27T15:54:15.999Z</time></trkpt><trkpt lat="37.52154737230136" lon="15.063008464517603"><ele>124.0</ele><time>2026-03-27T15:54:17.999Z</time></trkpt><trkpt lat="37.5215292784199" lon="15.063099286854097"><ele>124.0</ele><time>2026-03-27T15:54:18.999Z</time></trkpt><trkpt lat="37.5215267101952" lon="15.063189280553665"><ele>124.0</ele><time>2026-03-27T15:54:19.999Z</time></trkpt><trkpt lat="37.52153793598268" lon="15.063338252630148"><ele>124.0</ele><time>2026-03-27T15:54:21.999Z</time></trkpt><trkpt lat="37.521544572161574" lon="15.063473083539673"><ele>124.0</ele><time>2026-03-27T15:54:23.999Z</time></trkpt><trkpt lat="37.52152129669305" lon="15.063599798244999"><ele>124.0</ele><time>2026-03-27T15:54:25.999Z</time></trkpt><trkpt lat="37.52144607059268" lon="15.063715830214337"><ele>123.33333333333334</ele><time>2026-03-27T15:54:27.999Z</time></trkpt><trkpt lat="37.52139357709269" lon="15.06377964014967"><ele>122.66666666666667</ele><time>2026-03-27T15:54:28.999Z</time></trkpt><trkpt lat="37.521345440347346" lon="15.063842967064888"><ele>122.0</ele><time>2026-03-27T15:54:29.999Z</time></trkpt><trkpt lat="37.52129941708722" lon="15.063901798483839"><ele>121.33333333333334</ele><time>2026-03-27T15:54:30.999Z</time></trkpt><trkpt lat="37.52121563543774" lon="15.0640021774237"><ele>120.66666666666667</ele><time>2026-03-27T15:54:33Z</time></trkpt><trkpt lat="37.52114589589894" lon="15.064082246875113"><ele>120.0</ele><time>2026-03-27T15:54:35Z</time></trkpt><trkpt lat="37.521091918937316" lon="15.064162122366831"><ele>119.57142857142858</ele><time>2026-03-27T15:54:37Z</time></trkpt><trkpt lat="37.52104909914714" lon="15.064226399083791"><ele>119.14285714285714</ele><time>2026-03-27T15:54:39Z</time></trkpt><trkpt lat="37.52099906296061" lon="15.064307265724498"><ele>118.71428571428572</ele><time>2026-03-27T15:54:42Z</time></trkpt><trkpt lat="37.52095634546799" lon="15.064380289752846"><ele>118.28571428571429</ele><time>2026-03-27T15:54:45Z</time></trkpt><trkpt lat="37.52090461955992" lon="15.064439816065232"><ele>117.85714285714286</ele><time>2026-03-27T15:54:52Z</time></trkpt><trkpt lat="37.52085788625479" lon="15.064519151618372"><ele>117.42857142857143</ele><time>2026-03-27T15:55:00.999Z</time></trkpt><trkpt lat="37.52080443418398" lon="15.06457190642083"><ele>117.0</ele><time>2026-03-27T15:55:06.999Z</time></trkpt><trkpt lat="37.520739805842396" lon="15.064616157751965"><ele>117.0</ele><time>2026-03-27T15:55:16.999Z</time></trkpt><trkpt lat="37.52067735294799" lon="15.064643993993554"><ele>117.00000000000001</ele><time>2026-03-27T15:55:21.999Z</time></trkpt><trkpt lat="37.52060847887142" lon="15.064673252198839"><ele>117.0</ele><time>2026-03-27T15:55:34.999Z</time></trkpt><trkpt lat="37.52054470324768" lon="15.064699334639219"><ele>117.0</ele><time>2026-03-27T15:55:49.999Z</time></trkpt><trkpt lat="37.520476780423266" lon="15.06472980408833"><ele>117.00000000000001</ele><time>2026-03-27T15:56:03.999Z</time></trkpt><trkpt lat="37.52041040474919" lon="15.06476333587637"><ele>117.0</ele><time>2026-03-27T15:56:13.999Z</time></trkpt><trkpt lat="37.52036533760274" lon="15.064833750774216"><ele>117.0</ele><time>2026-03-27T15:56:21.999Z</time></trkpt><trkpt lat="37.52032591607381" lon="15.064907305586253"><ele>116.14285714285715</ele><time>2026-03-27T15:56:27.999Z</time></trkpt><trkpt lat="37.520292345835145" lon="15.064990642560192"><ele>115.2857142857143</ele><time>2026-03-27T15:56:32.999Z</time></trkpt><trkpt lat="37.520265208411935" lon="15.065065503237486"><ele>114.42857142857143</ele><time>2026-03-27T15:56:36.999Z</time></trkpt><trkpt lat="37.520236253827285" lon="15.065152370747397"><ele>113.57142857142858</ele><time>2026-03-27T15:56:40Z</time></trkpt><trkpt lat="37.52020144826791" lon="15.065249544381752"><ele>112.71428571428572</ele><time>2026-03-27T15:56:43Z</time></trkpt><trkpt lat="37.520174868048656" lon="15.065322212707096"><ele>111.85714285714286</ele><time>2026-03-27T15:56:46Z</time></trkpt><trkpt lat="37.52014815355031" lon="15.065401717864448"><ele>111.0</ele><time>2026-03-27T15:56:49Z</time></trkpt><trkpt lat="37.520115205964395" lon="15.065495329190217"><ele>111.0</ele><time>2026-03-27T15:56:52Z</time></trkpt><trkpt lat="37.52008593377277" lon="15.065577403241962"><ele>111.0</ele><time>2026-03-27T15:56:54Z</time></trkpt><trkpt lat="37.520057902050205" lon="15.065655378489492"><ele>111.0</ele><time>2026-03-27T15:56:56Z</time></trkpt><trkpt lat="37.52002864483426" lon="15.06573859084162"><ele>111.0</ele><time>2026-03-27T15:56:58Z</time></trkpt><trkpt lat="37.52000233785182" lon="15.065812737719792"><ele>111.0</ele><time>2026-03-27T15:57:00Z</time></trkpt><trkpt lat="37.519975068949634" lon="15.065913754378295"><ele>111.0</ele><time>2026-03-27T15:57:02.999Z</time></trkpt><trkpt lat="37.519908286904325" lon="15.065970397627273"><ele>111.0</ele><time>2026-03-27T15:57:07.999Z</time></trkpt><trkpt lat="37.519851253064886" lon="15.065923315356239"><ele>111.0</ele><time>2026-03-27T15:57:09.999Z</time></trkpt><trkpt lat="37.51981247399736" lon="15.065784332101291"><ele>111.0</ele><time>2026-03-27T15:57:11.999Z</time></trkpt><trkpt lat="37.519790438249906" lon="15.065633272797763"><ele>111.0</ele><time>2026-03-27T15:57:13.999Z</time></trkpt><trkpt lat="37.519772635803804" lon="15.06554779149444"><ele>111.0</ele><time>2026-03-27T15:57:14.999Z</time></trkpt><trkpt lat="37.51975906217601" lon="15.065466696115932"><ele>111.0</ele><time>2026-03-27T15:57:15.999Z</time></trkpt><trkpt lat="37.51974330324346" lon="15.065325299987562"><ele>111.0</ele><time>2026-03-27T15:57:17.999Z</time></trkpt><trkpt lat="37.51972245972864" lon="15.065207475860898"><ele>111.0</ele><time>2026-03-27T15:57:19.999Z</time></trkpt><trkpt lat="37.51963912496312" lon="15.065129617012742"><ele>111.0</ele><time>2026-03-27T15:57:21.999Z</time></trkpt><trkpt lat="37.51957067790459" lon="15.065129394947094"><ele>111.0</ele><time>2026-03-27T15:57:22.999Z</time></trkpt><trkpt lat="37.519492352972485" lon="15.065150478059117"><ele>111.0</ele><time>2026-03-27T15:57:23.999Z</time></trkpt><trkpt lat="37.51940647338529" lon="15.065163816603034"><ele>111.0</ele><time>2026-03-27T15:57:24.999Z</time></trkpt><trkpt lat="37.51932901875564" lon="15.06517482190768"><ele>108.33333333333333</ele><time>2026-03-27T15:57:25.999Z</time></trkpt><trkpt lat="37.51925677230805" lon="15.065186662586607"><ele>105.66666666666667</ele><time>2026-03-27T15:57:26.999Z</time></trkpt><trkpt lat="37.51916673461428" lon="15.065211540273053"><ele>103.0</ele><time>2026-03-27T15:57:28.999Z</time></trkpt><trkpt lat="37.51906201329886" lon="15.065238933923144"><ele>100.33333333333334</ele><time>2026-03-27T15:57:30.999Z</time></trkpt><trkpt lat="37.518986052208405" lon="15.065249378622987"><ele>97.66666666666667</ele><time>2026-03-27T15:57:31.999Z</time></trkpt><trkpt lat="37.51890074086316" lon="15.065267873849015"><ele>95.0</ele><time>2026-03-27T15:57:32.999Z</time></trkpt><trkpt lat="37.518801369598314" lon="15.065286208895499"><ele>94.5</ele><time>2026-03-27T15:57:33.999Z</time></trkpt><trkpt lat="37.51870816918181" lon="15.06530093949312"><ele>94.0</ele><time>2026-03-27T15:57:34.999Z</time></trkpt><trkpt lat="37.51861924615808" lon="15.065317231790871"><ele>93.5</ele><time>2026-03-27T15:57:35.999Z</time></trkpt><trkpt lat="37.51853949135078" lon="15.06533409212106"><ele>93.0</ele><time>2026-03-27T15:57:36.999Z</time></trkpt><trkpt lat="37.518466373381486" lon="15.0653491860543"><ele>92.5</ele><time>2026-03-27T15:57:37.999Z</time></trkpt><trkpt lat="37.51840115026747" lon="15.065357898972561"><ele>92.0</ele><time>2026-03-27T15:57:38.999Z</time></trkpt><trkpt lat="37.518278308168895" lon="15.065371969150334"><ele>92.0</ele><time>2026-03-27T15:57:40.999Z</time></trkpt><trkpt lat="37.51815823357069" lon="15.065392783129774"><ele>92.0</ele><time>2026-03-27T15:57:42.999Z</time></trkpt><trkpt lat="37.51806522945242" lon="15.065407217360582"><ele>92.0</ele><time>2026-03-27T15:57:44.999Z</time></trkpt><trkpt lat="37.517984046845214" lon="15.065422224027172"><ele>92.0</ele><time>2026-03-27T15:57:46.999Z</time></trkpt><trkpt lat="37.517901786868386" lon="15.065433438571556"><ele>92.0</ele><time>2026-03-27T15:57:49.999Z</time></trkpt><trkpt lat="37.51781783486967" lon="15.065445866535917"><ele>91.66666666666667</ele><time>2026-03-27T15:57:52.999Z</time></trkpt><trkpt lat="37.51774788129452" lon="15.065458743555814"><ele>91.33333333333334</ele><time>2026-03-27T15:57:55.999Z</time></trkpt><trkpt lat="37.517664889232925" lon="15.065475412405302"><ele>91.0</ele><time>2026-03-27T15:57:58.999Z</time></trkpt><trkpt lat="37.517598578420206" lon="15.065487963405397"><ele>90.66666666666667</ele><time>2026-03-27T15:58:00.999Z</time></trkpt><trkpt lat="37.51752131568223" lon="15.065499294904315"><ele>90.33333333333333</ele><time>2026-03-27T15:58:02.999Z</time></trkpt><trkpt lat="37.517438464494205" lon="15.065511313757463"><ele>90.0</ele><time>2026-03-27T15:58:04.999Z</time></trkpt><trkpt lat="37.51735226771199" lon="15.06553365870851"><ele>90.0</ele><time>2026-03-27T15:58:06.999Z</time></trkpt><trkpt lat="37.51724115606958" lon="15.065554754332204"><ele>90.0</ele><time>2026-03-27T15:58:08.999Z</time></trkpt><trkpt lat="37.51717660472477" lon="15.065567980700536"><ele>90.0</ele><time>2026-03-27T15:58:09.999Z</time></trkpt><trkpt lat="37.51711337321741" lon="15.065578114505405"><ele>90.0</ele><time>2026-03-27T15:58:10.999Z</time></trkpt><trkpt lat="37.517012836479985" lon="15.065594730448758"><ele>90.0</ele><time>2026-03-27T15:58:12.999Z</time></trkpt><trkpt lat="37.51692061120541" lon="15.065611767890916"><ele>90.0</ele><time>2026-03-27T15:58:14.999Z</time></trkpt><trkpt lat="37.51682588631803" lon="15.065627783023295"><ele>89.2</ele><time>2026-03-27T15:58:16.999Z</time></trkpt><trkpt lat="37.51672393796151" lon="15.065648638051872"><ele>88.4</ele><time>2026-03-27T15:58:18.999Z</time></trkpt><trkpt lat="37.516620896174146" lon="15.06567514571512"><ele>87.6</ele><time>2026-03-27T15:58:20.999Z</time></trkpt><trkpt lat="37.516521403413904" lon="15.065690711161713"><ele>86.8</ele><time>2026-03-27T15:58:22.999Z</time></trkpt><trkpt lat="37.51644190750947" lon="15.065702314757749"><ele>86.0</ele><time>2026-03-27T15:58:24.999Z</time></trkpt><trkpt lat="37.5163693085802" lon="15.065722550768594"><ele>86.0</ele><time>2026-03-27T15:58:27.999Z</time></trkpt><trkpt lat="37.516309610875844" lon="15.065753913781895"><ele>86.0</ele><time>2026-03-27T15:58:29.999Z</time></trkpt><trkpt lat="37.51623858591223" lon="15.065791085465555"><ele>86.0</ele><time>2026-03-27T15:58:31.999Z</time></trkpt><trkpt lat="37.5161476542986" lon="15.065845763543377"><ele>86.0</ele><time>2026-03-27T15:58:33.999Z</time></trkpt><trkpt lat="37.51606432868312" lon="15.065919538274596"><ele>86.0</ele><time>2026-03-27T15:58:35.999Z</time></trkpt><trkpt lat="37.51595335815284" lon="15.065977890593102"><ele>85.19999999999999</ele><time>2026-03-27T15:58:37.999Z</time></trkpt><trkpt lat="37.515883398563666" lon="15.066015651565042"><ele>84.39999999999999</ele><time>2026-03-27T15:58:38.999Z</time></trkpt><trkpt lat="37.51579464929673" lon="15.066046261772238"><ele>83.6</ele><time>2026-03-27T15:58:39.999Z</time></trkpt><trkpt lat="37.51569170553972" lon="15.066076202186302"><ele>82.8</ele><time>2026-03-27T15:58:40.999Z</time></trkpt><trkpt lat="37.515577407243185" lon="15.066109183082952"><ele>82.0</ele><time>2026-03-27T15:58:41.999Z</time></trkpt><trkpt lat="37.51545822866332" lon="15.066147096313141"><ele>81.0</ele><time>2026-03-27T15:58:42.999Z</time></trkpt><trkpt lat="37.515337970312906" lon="15.066186467877241"><ele>80.0</ele><time>2026-03-27T15:58:43.999Z</time></trkpt><trkpt lat="37.5152112582554" lon="15.066228422968177"><ele>79.0</ele><time>2026-03-27T15:58:45Z</time></trkpt><trkpt lat="37.515080190758056" lon="15.066271005741298"><ele>78.0</ele><time>2026-03-27T15:58:46Z</time></trkpt><trkpt lat="37.5149506674248" lon="15.066314618287082"><ele>78.0</ele><time>2026-03-27T15:58:47Z</time></trkpt><trkpt lat="37.51482624045071" lon="15.066356557036743"><ele>78.0</ele><time>2026-03-27T15:58:48Z</time></trkpt><trkpt lat="37.514706383213905" lon="15.066393245517958"><ele>78.0</ele><time>2026-03-27T15:58:49Z</time></trkpt><trkpt lat="37.514586990697616" lon="15.066432094514813"><ele>78.0</ele><time>2026-03-27T15:58:50Z</time></trkpt><trkpt lat="37.51446613572921" lon="15.066473788520637"><ele>77.75</ele><time>2026-03-27T15:58:51Z</time></trkpt><trkpt lat="37.51435169454109" lon="15.06651354322209"><ele>77.5</ele><time>2026-03-27T15:58:52Z</time></trkpt><trkpt lat="37.51423866348317" lon="15.066548376003732"><ele>77.25</ele><time>2026-03-27T15:58:53Z</time></trkpt><trkpt lat="37.51412984477718" lon="15.066584139043655"><ele>77.0</ele><time>2026-03-27T15:58:54Z</time></trkpt><trkpt lat="37.51402612118207" lon="15.066616192306503"><ele>77.4</ele><time>2026-03-27T15:58:55Z</time></trkpt><trkpt lat="37.513927350887634" lon="15.06664545213761"><ele>77.80000000000001</ele><time>2026-03-27T15:58:56Z</time></trkpt><trkpt lat="37.51382664804986" lon="15.06668012643862"><ele>78.2</ele><time>2026-03-27T15:58:57Z</time></trkpt><trkpt lat="37.513726367529806" lon="15.06671371558989"><ele>78.60000000000001</ele><time>2026-03-27T15:58:58Z</time></trkpt><trkpt lat="37.51362742448621" lon="15.066747048761984"><ele>79.0</ele><time>2026-03-27T15:58:59Z</time></trkpt><trkpt lat="37.51353098304314" lon="15.066775325887228"><ele>78.0</ele><time>2026-03-27T15:59:00Z</time></trkpt><trkpt lat="37.51343326870859" lon="15.06679969836941"><ele>77.0</ele><time>2026-03-27T15:59:01Z</time></trkpt><trkpt lat="37.51333108662608" lon="15.06683219274348"><ele>76.0</ele><time>2026-03-27T15:59:02Z</time></trkpt><trkpt lat="37.513219463802876" lon="15.066870077043792"><ele>75.0</ele><time>2026-03-27T15:59:03Z</time></trkpt><trkpt lat="37.51310258910795" lon="15.066911712589846"><ele>74.0</ele><time>2026-03-27T15:59:04Z</time></trkpt><trkpt lat="37.51298879571582" lon="15.06695327529879"><ele>74.25</ele><time>2026-03-27T15:59:05Z</time></trkpt><trkpt lat="37.51287447870284" lon="15.066993319631962"><ele>74.5</ele><time>2026-03-27T15:59:06Z</time></trkpt><trkpt lat="37.51274440903194" lon="15.067014574168896"><ele>74.75</ele><time>2026-03-27T15:59:07Z</time></trkpt><trkpt lat="37.512623624531955" lon="15.067072351757291"><ele>75.0</ele><time>2026-03-27T15:59:08Z</time></trkpt><trkpt lat="37.512500829071946" lon="15.067093004860892"><ele>75.0</ele><time>2026-03-27T15:59:09Z</time></trkpt><trkpt lat="37.512390626103056" lon="15.067142162187466"><ele>75.0</ele><time>2026-03-27T15:59:10Z</time></trkpt><trkpt lat="37.51228439145653" lon="15.067175489502404"><ele>75.0</ele><time>2026-03-27T15:59:11Z</time></trkpt><trkpt lat="37.51217284163926" lon="15.067212281008782"><ele>75.0</ele><time>2026-03-27T15:59:12Z</time></trkpt><trkpt lat="37.51204925486279" lon="15.067250470287654"><ele>76.75</ele><time>2026-03-27T15:59:13Z</time></trkpt><trkpt lat="37.51191591436897" lon="15.06728809991323"><ele>78.5</ele><time>2026-03-27T15:59:14Z</time></trkpt><trkpt lat="37.511774032040144" lon="15.067335017314027"><ele>80.25</ele><time>2026-03-27T15:59:15Z</time></trkpt><trkpt lat="37.51163164364648" lon="15.06737930276014"><ele>82.0</ele><time>2026-03-27T15:59:16Z</time></trkpt><trkpt lat="37.51149817524692" lon="15.067420344405543"><ele>82.75</ele><time>2026-03-27T15:59:17Z</time></trkpt><trkpt lat="37.51136874976038" lon="15.06745979561144"><ele>83.5</ele><time>2026-03-27T15:59:17.999Z</time></trkpt><trkpt lat="37.51124615024727" lon="15.067502959290444"><ele>84.25</ele><time>2026-03-27T15:59:18.999Z</time></trkpt><trkpt lat="37.51112878935133" lon="15.067543734030517"><ele>85.0</ele><time>2026-03-27T15:59:19.999Z</time></trkpt><trkpt lat="37.51101790575265" lon="15.067578404449359"><ele>85.83333333333333</ele><time>2026-03-27T15:59:20.999Z</time></trkpt><trkpt lat="37.51091768451119" lon="15.067607912514399"><ele>86.66666666666666</ele><time>2026-03-27T15:59:21.999Z</time></trkpt><trkpt lat="37.510831113566304" lon="15.067622186099241"><ele>87.5</ele><time>2026-03-27T15:59:22.999Z</time></trkpt><trkpt lat="37.510762233007355" lon="15.067641759035363"><ele>88.33333333333333</ele><time>2026-03-27T15:59:23.999Z</time></trkpt><trkpt lat="37.51067609908704" lon="15.067641524700656"><ele>89.16666666666667</ele><time>2026-03-27T15:59:25.999Z</time></trkpt><trkpt lat="37.51062409023153" lon="15.067689046212283"><ele>90.0</ele><time>2026-03-27T16:00:29.999Z</time></trkpt><trkpt lat="37.51055545418522" lon="15.067698893946833"><ele>90.0</ele><time>2026-03-27T16:00:31.999Z</time></trkpt><trkpt lat="37.51047951679911" lon="15.067550384807832"><ele>90.0</ele><time>2026-03-27T16:00:34.999Z</time></trkpt><trkpt lat="37.51046153761602" lon="15.067463749205723"><ele>90.0</ele><time>2026-03-27T16:00:35.999Z</time></trkpt><trkpt lat="37.51044646723243" lon="15.067380625637297"><ele>90.0</ele><time>2026-03-27T16:00:36.999Z</time></trkpt><trkpt lat="37.510446541222976" lon="15.067292438210485"><ele>90.0</ele><time>2026-03-27T16:00:38.999Z</time></trkpt><trkpt lat="37.51027520209372" lon="15.067259010439185"><ele>90.0</ele><time>2026-03-27T16:00:40.999Z</time></trkpt><trkpt lat="37.51016059256256" lon="15.067274400362386"><ele>90.0</ele><time>2026-03-27T16:00:42.999Z</time></trkpt><trkpt lat="37.51008894648864" lon="15.06728402104313"><ele>90.0</ele><time>2026-03-27T16:00:43.999Z</time></trkpt><trkpt lat="37.51002090492242" lon="15.067293349662814"><ele>90.0</ele><time>2026-03-27T16:00:44.999Z</time></trkpt><trkpt lat="37.50995137650816" lon="15.067315825817102"><ele>90.0</ele><time>2026-03-27T16:00:45.999Z</time></trkpt><trkpt lat="37.50986933253675" lon="15.067312149702417"><ele>90.0</ele><time>2026-03-27T16:00:46.999Z</time></trkpt><trkpt lat="37.50978477699237" lon="15.06731856187152"><ele>90.0</ele><time>2026-03-27T16:00:47.999Z</time></trkpt><trkpt lat="37.50970654674186" lon="15.06732529936939"><ele>90.0</ele><time>2026-03-27T16:00:48.999Z</time></trkpt><trkpt lat="37.509630461846285" lon="15.067337124554436"><ele>90.0</ele><time>2026-03-27T16:00:49.999Z</time></trkpt><trkpt lat="37.50955865973229" lon="15.067348014299247"><ele>90.0</ele><time>2026-03-27T16:00:51Z</time></trkpt><trkpt lat="37.50948755728753" lon="15.067357278876733"><ele>90.0</ele><time>2026-03-27T16:00:52Z</time></trkpt><trkpt lat="37.509418445559554" lon="15.067365112537825"><ele>90.0</ele><time>2026-03-27T16:00:53Z</time></trkpt><trkpt lat="37.50935226880136" lon="15.06737571850163"><ele>90.0</ele><time>2026-03-27T16:00:54Z</time></trkpt><trkpt lat="37.50927090531239" lon="15.06738920358278"><ele>88.8</ele><time>2026-03-27T16:00:56Z</time></trkpt><trkpt lat="37.50918972842945" lon="15.067414615287772"><ele>87.6</ele><time>2026-03-27T16:00:58Z</time></trkpt><trkpt lat="37.50907671273709" lon="15.067432422355877"><ele>86.4</ele><time>2026-03-27T16:01:00Z</time></trkpt><trkpt lat="37.50899834060216" lon="15.0674374288458"><ele>85.2</ele><time>2026-03-27T16:01:01Z</time></trkpt><trkpt lat="37.508911948445665" lon="15.067444187860898"><ele>84.0</ele><time>2026-03-27T16:01:02Z</time></trkpt><trkpt lat="37.50882225527249" lon="15.067455912694317"><ele>83.66666666666667</ele><time>2026-03-27T16:01:03Z</time></trkpt><trkpt lat="37.50874111236666" lon="15.067459120032312"><ele>83.33333333333333</ele><time>2026-03-27T16:01:04Z</time></trkpt><trkpt lat="37.50865807094886" lon="15.067468098218056"><ele>83.0</ele><time>2026-03-27T16:01:05Z</time></trkpt><trkpt lat="37.508584921132574" lon="15.067473492695969"><ele>82.66666666666666</ele><time>2026-03-27T16:01:06Z</time></trkpt><trkpt lat="37.50852127357299" lon="15.067484341113326"><ele>82.33333333333333</ele><time>2026-03-27T16:01:07Z</time></trkpt><trkpt lat="37.50839712625361" lon="15.067509437731768"><ele>82.0</ele><time>2026-03-27T16:01:09Z</time></trkpt><trkpt lat="37.50829086524692" lon="15.067525403005773"><ele>82.0</ele><time>2026-03-27T16:01:11Z</time></trkpt><trkpt lat="37.508186816599675" lon="15.06754221767251"><ele>82.0</ele><time>2026-03-27T16:01:13Z</time></trkpt><trkpt lat="37.508078375377806" lon="15.067559640116587"><ele>82.0</ele><time>2026-03-27T16:01:15Z</time></trkpt><trkpt lat="37.50800988874963" lon="15.067570127833147"><ele>82.0</ele><time>2026-03-27T16:01:16Z</time></trkpt><trkpt lat="37.5079391288785" lon="15.067577735871168"><ele>82.0</ele><time>2026-03-27T16:01:17Z</time></trkpt><trkpt lat="37.50780920747235" lon="15.06757063579686"><ele>81.83333333333333</ele><time>2026-03-27T16:01:19Z</time></trkpt><trkpt lat="37.50773430936819" lon="15.067557588416719"><ele>81.66666666666666</ele><time>2026-03-27T16:01:20Z</time></trkpt><trkpt lat="37.507652283366745" lon="15.067537681084143"><ele>81.5</ele><time>2026-03-27T16:01:21Z</time></trkpt><trkpt lat="37.50757674073464" lon="15.067515373061816"><ele>81.33333333333333</ele><time>2026-03-27T16:01:22Z</time></trkpt><trkpt lat="37.50750116434104" lon="15.06748768064485"><ele>81.16666666666667</ele><time>2026-03-27T16:01:23Z</time></trkpt><trkpt lat="37.507432528673924" lon="15.067466328244125"><ele>81.0</ele><time>2026-03-27T16:01:24Z</time></trkpt><trkpt lat="37.50735436734912" lon="15.067438312127722"><ele>81.5</ele><time>2026-03-27T16:01:25Z</time></trkpt><trkpt lat="37.507283911319085" lon="15.067406423764169"><ele>82.0</ele><time>2026-03-27T16:01:26Z</time></trkpt><trkpt lat="37.507207987953215" lon="15.067367397397197"><ele>82.5</ele><time>2026-03-27T16:01:27Z</time></trkpt><trkpt lat="37.50714269633606" lon="15.067338883081767"><ele>83.0</ele><time>2026-03-27T16:01:28Z</time></trkpt><trkpt lat="37.507040722703984" lon="15.067277819276857"><ele>83.5</ele><time>2026-03-27T16:01:29.999Z</time></trkpt><trkpt lat="37.50698815733983" lon="15.067231855306488"><ele>84.0</ele><time>2026-03-27T16:01:32.999Z</time></trkpt><trkpt lat="37.50692879235085" lon="15.067163876584226"><ele>82.83333333333333</ele><time>2026-03-27T16:01:34.999Z</time></trkpt><trkpt lat="37.506885360094344" lon="15.067045470253307"><ele>81.66666666666667</ele><time>2026-03-27T16:01:36.999Z</time></trkpt><trkpt lat="37.50682020602747" lon="15.067037265157055"><ele>80.5</ele><time>2026-03-27T16:01:37.999Z</time></trkpt><trkpt lat="37.50673686371881" lon="15.067093506709428"><ele>79.33333333333334</ele><time>2026-03-27T16:01:39.999Z</time></trkpt><trkpt lat="37.50671323590332" lon="15.067177141584102"><ele>78.16666666666667</ele><time>2026-03-27T16:01:40.999Z</time></trkpt><trkpt lat="37.506705843555444" lon="15.067271488222374"><ele>77.0</ele><time>2026-03-27T16:01:41.999Z</time></trkpt><trkpt lat="37.50668621657535" lon="15.067391733148908"><ele>76.5</ele><time>2026-03-27T16:01:42.999Z</time></trkpt><trkpt lat="37.506660546425714" lon="15.067514649657276"><ele>76.0</ele><time>2026-03-27T16:01:43.999Z</time></trkpt><trkpt lat="37.50662652465184" lon="15.067647934131578"><ele>75.5</ele><time>2026-03-27T16:01:44.999Z</time></trkpt><trkpt lat="37.50658893605945" lon="15.067789495331745"><ele>75.0</ele><time>2026-03-27T16:01:45.999Z</time></trkpt><trkpt lat="37.506547089641465" lon="15.067937843436209"><ele>75.0</ele><time>2026-03-27T16:01:46.999Z</time></trkpt><trkpt lat="37.506496927477045" lon="15.068090283360855"><ele>75.0</ele><time>2026-03-27T16:01:47.999Z</time></trkpt><trkpt lat="37.50643790030653" lon="15.068241838101214"><ele>75.0</ele><time>2026-03-27T16:01:48.999Z</time></trkpt><trkpt lat="37.5063704811153" lon="15.068397177090905"><ele>75.0</ele><time>2026-03-27T16:01:49.999Z</time></trkpt><trkpt lat="37.506303123073366" lon="15.06854159105224"><ele>73.6</ele><time>2026-03-27T16:01:50.999Z</time></trkpt><trkpt lat="37.50623388557261" lon="15.068671399351729"><ele>72.2</ele><time>2026-03-27T16:01:51.999Z</time></trkpt><trkpt lat="37.50617248446022" lon="15.068779868195762"><ele>70.8</ele><time>2026-03-27T16:01:52.999Z</time></trkpt><trkpt lat="37.50611863799572" lon="15.068869243993152"><ele>69.4</ele><time>2026-03-27T16:01:53.999Z</time></trkpt><trkpt lat="37.506061212626726" lon="15.06896053834986"><ele>68.0</ele><time>2026-03-27T16:01:54.999Z</time></trkpt><trkpt lat="37.505993922766635" lon="15.069052157796493"><ele>68.2</ele><time>2026-03-27T16:01:55.999Z</time></trkpt><trkpt lat="37.505918214116804" lon="15.069147432947924"><ele>68.4</ele><time>2026-03-27T16:01:56.999Z</time></trkpt><trkpt lat="37.50584189014501" lon="15.069240281121033"><ele>68.60000000000001</ele><time>2026-03-27T16:01:57.999Z</time></trkpt><trkpt lat="37.505765364904846" lon="15.069330511652627"><ele>68.8</ele><time>2026-03-27T16:01:58.999Z</time></trkpt><trkpt lat="37.505690609230044" lon="15.069421479554494"><ele>69.0</ele><time>2026-03-27T16:01:59.999Z</time></trkpt><trkpt lat="37.50561806046553" lon="15.069515389837798"><ele>69.0</ele><time>2026-03-27T16:02:00.999Z</time></trkpt><trkpt lat="37.505545840964174" lon="15.069605567938865"><ele>69.0</ele><time>2026-03-27T16:02:01.999Z</time></trkpt><trkpt lat="37.50547753089327" lon="15.069696947052112"><ele>69.0</ele><time>2026-03-27T16:02:02.999Z</time></trkpt><trkpt lat="37.50541328602079" lon="15.069782841206719"><ele>69.0</ele><time>2026-03-27T16:02:03.999Z</time></trkpt><trkpt lat="37.50534939059633" lon="15.069857155638477"><ele>69.0</ele><time>2026-03-27T16:02:04.999Z</time></trkpt><trkpt lat="37.50527670370681" lon="15.069906646719824"><ele>68.2</ele><time>2026-03-27T16:02:05.999Z</time></trkpt><trkpt lat="37.50519644227564" lon="15.069927810068501"><ele>67.4</ele><time>2026-03-27T16:02:06.999Z</time></trkpt><trkpt lat="37.505099273812334" lon="15.069935936491078"><ele>66.6</ele><time>2026-03-27T16:02:07.999Z</time></trkpt><trkpt lat="37.50499634546298" lon="15.069949609391564"><ele>65.8</ele><time>2026-03-27T16:02:08.999Z</time></trkpt><trkpt lat="37.50488503904465" lon="15.069963782083569"><ele>65.0</ele><time>2026-03-27T16:02:09.999Z</time></trkpt><trkpt lat="37.50477664945679" lon="15.069976640317737"><ele>65.0</ele><time>2026-03-27T16:02:10.999Z</time></trkpt><trkpt lat="37.50467852973296" lon="15.069984353513814"><ele>65.0</ele><time>2026-03-27T16:02:11.999Z</time></trkpt><trkpt lat="37.504585321665886" lon="15.069996379737667"><ele>65.0</ele><time>2026-03-27T16:02:12.999Z</time></trkpt><trkpt lat="37.50449749039976" lon="15.070014023424596"><ele>65.0</ele><time>2026-03-27T16:02:13.999Z</time></trkpt><trkpt lat="37.504413867898336" lon="15.070032356602903"><ele>65.0</ele><time>2026-03-27T16:02:14.999Z</time></trkpt><trkpt lat="37.504334784671" lon="15.07004763770786"><ele>65.0</ele><time>2026-03-27T16:02:15.999Z</time></trkpt><trkpt lat="37.50425835696009" lon="15.070053735777826"><ele>64.0</ele><time>2026-03-27T16:02:16.999Z</time></trkpt><trkpt lat="37.504191643182246" lon="15.070061830879935"><ele>63.0</ele><time>2026-03-27T16:02:17.999Z</time></trkpt><trkpt lat="37.5040848907229" lon="15.070077800594241"><ele>62.0</ele><time>2026-03-27T16:02:19.999Z</time></trkpt><trkpt lat="37.50400914468165" lon="15.070083891890693"><ele>61.0</ele><time>2026-03-27T16:02:21.999Z</time></trkpt><trkpt lat="37.50393808203893" lon="15.070089165634194"><ele>60.00000000000001</ele><time>2026-03-27T16:02:23.999Z</time></trkpt><trkpt lat="37.50387071113387" lon="15.070111524474582"><ele>59.0</ele><time>2026-03-27T16:02:25.999Z</time></trkpt><trkpt lat="37.50380226160885" lon="15.070132396791038"><ele>59.0</ele><time>2026-03-27T16:02:28.999Z</time></trkpt><trkpt lat="37.50370479014726" lon="15.070303400878808"><ele>59.0</ele><time>2026-03-27T16:02:35.999Z</time></trkpt><trkpt lat="37.50386968250022" lon="15.070250372415689"><ele>59.0</ele><time>2026-03-27T16:02:37.999Z</time></trkpt><trkpt lat="37.50393420116425" lon="15.07024217746732"><ele>59.0</ele><time>2026-03-27T16:05:12Z</time></trkpt><trkpt lat="37.50404922515358" lon="15.070241427985177"><ele>59.00000000000001</ele><time>2026-03-27T16:05:15Z</time></trkpt><trkpt lat="37.50411507840417" lon="15.070224717988264"><ele>59.0</ele><time>2026-03-27T16:05:16Z</time></trkpt><trkpt lat="37.50418594904585" lon="15.07021429171922"><ele>59.0</ele><time>2026-03-27T16:05:17Z</time></trkpt><trkpt lat="37.50426427112205" lon="15.070203305845448"><ele>59.0</ele><time>2026-03-27T16:05:18Z</time></trkpt><trkpt lat="37.50434838088222" lon="15.070188880106361"><ele>59.00000000000001</ele><time>2026-03-27T16:05:19Z</time></trkpt><trkpt lat="37.5044314889966" lon="15.070168911265872"><ele>59.0</ele><time>2026-03-27T16:05:20Z</time></trkpt><trkpt lat="37.504516751601535" lon="15.070155862858028"><ele>60.00000000000001</ele><time>2026-03-27T16:05:21Z</time></trkpt><trkpt lat="37.50459655776591" lon="15.070144058476137"><ele>61.0</ele><time>2026-03-27T16:05:22Z</time></trkpt><trkpt lat="37.50467780114348" lon="15.070132251432359"><ele>62.0</ele><time>2026-03-27T16:05:23Z</time></trkpt><trkpt lat="37.50475186177312" lon="15.070121947531373"><ele>63.0</ele><time>2026-03-27T16:05:24Z</time></trkpt><trkpt lat="37.5048264005678" lon="15.070111793031417"><ele>64.0</ele><time>2026-03-27T16:05:25Z</time></trkpt><trkpt lat="37.504901923394456" lon="15.070102262251895"><ele>65.0</ele><time>2026-03-27T16:05:26Z</time></trkpt><trkpt lat="37.50497947472592" lon="15.070092130675823"><ele>65.0</ele><time>2026-03-27T16:05:27Z</time></trkpt><trkpt lat="37.50505213357304" lon="15.070080400010044"><ele>65.0</ele><time>2026-03-27T16:05:28Z</time></trkpt><trkpt lat="37.505117575284075" lon="15.0700685200884"><ele>65.0</ele><time>2026-03-27T16:05:29Z</time></trkpt><trkpt lat="37.50524883917481" lon="15.070059875256975"><ele>65.0</ele><time>2026-03-27T16:05:31Z</time></trkpt><trkpt lat="37.50535668525841" lon="15.070059553728058"><ele>65.0</ele><time>2026-03-27T16:05:33Z</time></trkpt><trkpt lat="37.505472111538154" lon="15.070035077640755"><ele>65.8</ele><time>2026-03-27T16:05:35Z</time></trkpt><trkpt lat="37.5055303434354" lon="15.069987205232371"><ele>66.6</ele><time>2026-03-27T16:05:36Z</time></trkpt><trkpt lat="37.50557990325098" lon="15.06991084814221"><ele>67.4</ele><time>2026-03-27T16:05:37Z</time></trkpt><trkpt lat="37.50562391370605" lon="15.069806553235045"><ele>68.2</ele><time>2026-03-27T16:05:38Z</time></trkpt><trkpt lat="37.5056741739537" lon="15.069693256942724"><ele>69.0</ele><time>2026-03-27T16:05:39Z</time></trkpt><trkpt lat="37.50574152466018" lon="15.06957911167679"><ele>69.0</ele><time>2026-03-27T16:05:40Z</time></trkpt><trkpt lat="37.50582516657509" lon="15.069471030786225"><ele>69.0</ele><time>2026-03-27T16:05:41Z</time></trkpt><trkpt lat="37.50590845967853" lon="15.069357659796031"><ele>69.0</ele><time>2026-03-27T16:05:42Z</time></trkpt><trkpt lat="37.505994104861" lon="15.069250061796497"><ele>69.0</ele><time>2026-03-27T16:05:43Z</time></trkpt><trkpt lat="37.50607818013415" lon="15.069134040677843"><ele>68.75</ele><time>2026-03-27T16:05:43.999Z</time></trkpt><trkpt lat="37.50615687813854" lon="15.069031311344563"><ele>68.5</ele><time>2026-03-27T16:05:44.999Z</time></trkpt><trkpt lat="37.506233382171644" lon="15.06891568786111"><ele>68.25</ele><time>2026-03-27T16:05:45.999Z</time></trkpt><trkpt lat="37.506308274026786" lon="15.068798138651012"><ele>68.0</ele><time>2026-03-27T16:05:46.999Z</time></trkpt><trkpt lat="37.50638172895862" lon="15.068669827198583"><ele>68.5</ele><time>2026-03-27T16:05:47.999Z</time></trkpt><trkpt lat="37.5064495590721" lon="15.068537987079731"><ele>69.0</ele><time>2026-03-27T16:05:48.999Z</time></trkpt><trkpt lat="37.50651366071857" lon="15.06840081948722"><ele>69.5</ele><time>2026-03-27T16:05:49.999Z</time></trkpt><trkpt lat="37.50657105691129" lon="15.068261694127331"><ele>70.0</ele><time>2026-03-27T16:05:50.999Z</time></trkpt><trkpt lat="37.50661858852748" lon="15.06812928521842"><ele>71.0</ele><time>2026-03-27T16:05:51.999Z</time></trkpt><trkpt lat="37.506655333634356" lon="15.068003635644876"><ele>72.0</ele><time>2026-03-27T16:05:52.999Z</time></trkpt><trkpt lat="37.50669128765201" lon="15.067874349826269"><ele>73.0</ele><time>2026-03-27T16:05:53.999Z</time></trkpt><trkpt lat="37.50672095353989" lon="15.067759536236915"><ele>74.0</ele><time>2026-03-27T16:05:54.999Z</time></trkpt><trkpt lat="37.50675320283438" lon="15.067652112907199"><ele>75.0</ele><time>2026-03-27T16:05:55.999Z</time></trkpt><trkpt lat="37.50678051503666" lon="15.067556705298525"><ele>75.33333333333333</ele><time>2026-03-27T16:05:56.999Z</time></trkpt><trkpt lat="37.50682702975787" lon="15.067426451466083"><ele>75.66666666666667</ele><time>2026-03-27T16:05:58.999Z</time></trkpt><trkpt lat="37.506887407126825" lon="15.067326873408645"><ele>76.0</ele><time>2026-03-27T16:06:00.999Z</time></trkpt><trkpt lat="37.50691395105382" lon="15.067249432201091"><ele>76.33333333333334</ele><time>2026-03-27T16:06:02.999Z</time></trkpt><trkpt lat="37.50690804877822" lon="15.067139134516953"><ele>76.66666666666667</ele><time>2026-03-27T16:06:04.999Z</time></trkpt><trkpt lat="37.506884111336554" lon="15.067040324983912"><ele>77.0</ele><time>2026-03-27T16:06:06.999Z</time></trkpt><trkpt lat="37.506797010316795" lon="15.06702968806028"><ele>77.0</ele><time>2026-03-27T16:06:07.999Z</time></trkpt><trkpt lat="37.50670644799129" lon="15.067137476740497"><ele>77.0</ele><time>2026-03-27T16:06:09.999Z</time></trkpt><trkpt lat="37.506682119718675" lon="15.067220321131975"><ele>77.0</ele><time>2026-03-27T16:06:10.999Z</time></trkpt><trkpt lat="37.506709634565425" lon="15.067351008784874"><ele>77.0</ele><time>2026-03-27T16:06:11.999Z</time></trkpt><trkpt lat="37.506684511758166" lon="15.067485582691324"><ele>77.0</ele><time>2026-03-27T16:06:12.999Z</time></trkpt><trkpt lat="37.50664874132608" lon="15.067633322806477"><ele>76.5</ele><time>2026-03-27T16:06:13.999Z</time></trkpt><trkpt lat="37.50660575469923" lon="15.06779165549744"><ele>76.0</ele><time>2026-03-27T16:06:14.999Z</time></trkpt><trkpt lat="37.50655759951483" lon="15.06795140173797"><ele>75.5</ele><time>2026-03-27T16:06:15.999Z</time></trkpt><trkpt lat="37.506502038949286" lon="15.06811400941005"><ele>75.0</ele><time>2026-03-27T16:06:16.999Z</time></trkpt><trkpt lat="37.50644044729711" lon="15.068277300240371"><ele>73.75</ele><time>2026-03-27T16:06:17.999Z</time></trkpt><trkpt lat="37.50636798635788" lon="15.068436395688432"><ele>72.5</ele><time>2026-03-27T16:06:18.999Z</time></trkpt><trkpt lat="37.50629386427633" lon="15.068580696346856"><ele>71.25</ele><time>2026-03-27T16:06:19.999Z</time></trkpt><trkpt lat="37.506219628536265" lon="15.068713019705182"><ele>70.0</ele><time>2026-03-27T16:06:20.999Z</time></trkpt><trkpt lat="37.50615198328242" lon="15.068834334145963"><ele>69.8</ele><time>2026-03-27T16:06:21.999Z</time></trkpt><trkpt lat="37.506088662117975" lon="15.068944233611882"><ele>69.6</ele><time>2026-03-27T16:06:22.999Z</time></trkpt><trkpt lat="37.50602072778039" lon="15.069036231535309"><ele>69.4</ele><time>2026-03-27T16:06:23.999Z</time></trkpt><trkpt lat="37.50594755679571" lon="15.069124091076752"><ele>69.2</ele><time>2026-03-27T16:06:24.999Z</time></trkpt><trkpt lat="37.505878344363026" lon="15.06921737147414"><ele>69.0</ele><time>2026-03-27T16:06:25.999Z</time></trkpt><trkpt lat="37.505803544385735" lon="15.069309571128263"><ele>69.0</ele><time>2026-03-27T16:06:26.999Z</time></trkpt><trkpt lat="37.505727832190026" lon="15.069406452625195"><ele>69.0</ele><time>2026-03-27T16:06:27.999Z</time></trkpt><trkpt lat="37.505651442271706" lon="15.069508833556876"><ele>69.0</ele><time>2026-03-27T16:06:28.999Z</time></trkpt><trkpt lat="37.505576885016076" lon="15.06960485898644"><ele>69.0</ele><time>2026-03-27T16:06:29.999Z</time></trkpt><trkpt lat="37.505510864267244" lon="15.06968999508811"><ele>69.0</ele><time>2026-03-27T16:06:30.999Z</time></trkpt><trkpt lat="37.505449722728194" lon="15.069769641606305"><ele>68.2</ele><time>2026-03-27T16:06:31.999Z</time></trkpt><trkpt lat="37.50538730524576" lon="15.06984407612359"><ele>67.4</ele><time>2026-03-27T16:06:32.999Z</time></trkpt><trkpt lat="37.50531666494889" lon="15.069902293601155"><ele>66.6</ele><time>2026-03-27T16:06:33.999Z</time></trkpt><trkpt lat="37.50523422240037" lon="15.069942239081314"><ele>65.8</ele><time>2026-03-27T16:06:34.999Z</time></trkpt><trkpt lat="37.50513211124075" lon="15.06994479453734"><ele>65.0</ele><time>2026-03-27T16:06:35.999Z</time></trkpt><trkpt lat="37.505023115320945" lon="15.069964016161915"><ele>65.0</ele><time>2026-03-27T16:06:36.999Z</time></trkpt><trkpt lat="37.50491172708436" lon="15.069996648512518"><ele>65.0</ele><time>2026-03-27T16:06:37.999Z</time></trkpt><trkpt lat="37.504802807494336" lon="15.0700083021859"><ele>65.0</ele><time>2026-03-27T16:06:38.999Z</time></trkpt><trkpt lat="37.50470213120263" lon="15.070023765244633"><ele>65.0</ele><time>2026-03-27T16:06:39.999Z</time></trkpt><trkpt lat="37.5046057595909" lon="15.070040069387588"><ele>65.0</ele><time>2026-03-27T16:06:40.999Z</time></trkpt><trkpt lat="37.504511977066045" lon="15.070035135518372"><ele>64.0</ele><time>2026-03-27T16:06:41.999Z</time></trkpt><trkpt lat="37.50441969781667" lon="15.070049332323615"><ele>63.0</ele><time>2026-03-27T16:06:42.999Z</time></trkpt><trkpt lat="37.504334563444395" lon="15.070062429989692"><ele>62.0</ele><time>2026-03-27T16:06:43.999Z</time></trkpt><trkpt lat="37.504250561063586" lon="15.070073005400154"><ele>61.0</ele><time>2026-03-27T16:06:44.999Z</time></trkpt><trkpt lat="37.50417043661321" lon="15.070083693290789"><ele>60.00000000000001</ele><time>2026-03-27T16:06:45.999Z</time></trkpt><trkpt lat="37.504092487424245" lon="15.070092959256574"><ele>59.0</ele><time>2026-03-27T16:06:46.999Z</time></trkpt><trkpt lat="37.50401997181343" lon="15.070100669003555"><ele>59.0</ele><time>2026-03-27T16:06:47.999Z</time></trkpt><trkpt lat="37.5039473805475" lon="15.07010838680044"><ele>59.00000000000001</ele><time>2026-03-27T16:06:48.999Z</time></trkpt><trkpt lat="37.503882813353" lon="15.070115251485316"><ele>59.00000000000001</ele><time>2026-03-27T16:06:49.999Z</time></trkpt><trkpt lat="37.50377429176175" lon="15.070126789341064"><ele>59.0</ele><time>2026-03-27T16:06:51.999Z</time></trkpt><trkpt lat="37.50365302213735" lon="15.070139008459877"><ele>59.0</ele><time>2026-03-27T16:06:53.999Z</time></trkpt><trkpt lat="37.50353385987663" lon="15.070150139949815"><ele>58.833333333333336</ele><time>2026-03-27T16:06:55.999Z</time></trkpt><trkpt lat="37.50343564959529" lon="15.070159314217799"><ele>58.66666666666667</ele><time>2026-03-27T16:06:57.999Z</time></trkpt><trkpt lat="37.50334971190415" lon="15.070167206802234"><ele>58.5</ele><time>2026-03-27T16:06:59.999Z</time></trkpt><trkpt lat="37.503274045154164" lon="15.070173324540448"><ele>58.33333333333333</ele><time>2026-03-27T16:07:01.999Z</time></trkpt><trkpt lat="37.503183584935094" lon="15.07018063834443"><ele>58.166666666666664</ele><time>2026-03-27T16:07:04.999Z</time></trkpt><trkpt lat="37.50311543930225" lon="15.070186147992104"><ele>58.0</ele><time>2026-03-27T16:07:10Z</time></trkpt><trkpt lat="37.50308904685432" lon="15.070259718422639"><ele>57.99999999999999</ele><time>2026-03-27T16:30:43Z</time></trkpt><trkpt lat="37.50303338594161" lon="15.070198845001732"><ele>58.0</ele><time>2026-03-27T16:31:33.999Z</time></trkpt><trkpt lat="37.502955248926924" lon="15.070189333608964"><ele>58.0</ele><time>2026-03-27T16:31:36.999Z</time></trkpt><trkpt lat="37.502875616517805" lon="15.07017936023463"><ele>58.0</ele><time>2026-03-27T16:31:39.999Z</time></trkpt><trkpt lat="37.50280512771101" lon="15.070169714386408"><ele>57.99999999999999</ele><time>2026-03-27T16:31:42.999Z</time></trkpt><trkpt lat="37.502722581936744" lon="15.070176569710386"><ele>58.0</ele><time>2026-03-27T16:32:47Z</time></trkpt><trkpt lat="37.50265037886391" lon="15.070188634599418"><ele>57.8</ele><time>2026-03-27T16:32:49Z</time></trkpt><trkpt lat="37.50253820851142" lon="15.070197448664718"><ele>57.599999999999994</ele><time>2026-03-27T16:32:51Z</time></trkpt><trkpt lat="37.50244216640426" lon="15.070205679698493"><ele>57.400000000000006</ele><time>2026-03-27T16:32:53Z</time></trkpt><trkpt lat="37.50234276672489" lon="15.070218904006879"><ele>57.2</ele><time>2026-03-27T16:32:54.999Z</time></trkpt><trkpt lat="37.502219923771776" lon="15.07022991753223"><ele>57.0</ele><time>2026-03-27T16:32:56.999Z</time></trkpt><trkpt lat="37.50211575845716" lon="15.070239014490532"><ele>56.5</ele><time>2026-03-27T16:32:58.999Z</time></trkpt><trkpt lat="37.50203734302757" lon="15.070243631008648"><ele>56.0</ele><time>2026-03-27T16:33:00.999Z</time></trkpt><trkpt lat="37.50195135203833" lon="15.070246598012792"><ele>55.5</ele><time>2026-03-27T16:33:02.999Z</time></trkpt><trkpt lat="37.501871806457245" lon="15.070256904511975"><ele>55.0</ele><time>2026-03-27T16:33:05.999Z</time></trkpt><trkpt lat="37.50180618131613" lon="15.070263780808398"><ele>54.5</ele><time>2026-03-27T16:33:08.999Z</time></trkpt><trkpt lat="37.50173200057676" lon="15.070264942369889"><ele>54.0</ele><time>2026-03-27T16:33:11.999Z</time></trkpt><trkpt lat="37.50171935732144" lon="15.070145189702849"><ele>54.0</ele><time>2026-03-27T16:33:13.999Z</time></trkpt><trkpt lat="37.501702465807455" lon="15.07006625465863"><ele>54.0</ele><time>2026-03-27T16:33:24.999Z</time></trkpt><trkpt lat="37.501692734005964" lon="15.069987620176594"><ele>54.0</ele><time>2026-03-27T16:33:44.999Z</time></trkpt><trkpt lat="37.501683579289995" lon="15.069892088520383"><ele>54.0</ele><time>2026-03-27T16:33:47.999Z</time></trkpt><trkpt lat="37.501673102682254" lon="15.069803752799741"><ele>54.0</ele><time>2026-03-27T16:33:50.999Z</time></trkpt><trkpt lat="37.501669683781984" lon="15.06971148009502"><ele>54.0</ele><time>2026-03-27T16:33:52.999Z</time></trkpt><trkpt lat="37.50164313673324" lon="15.069617890129843"><ele>54.0</ele><time>2026-03-27T16:33:54.999Z</time></trkpt><trkpt lat="37.501646764236455" lon="15.069508193709922"><ele>54.5</ele><time>2026-03-27T16:34:03.999Z</time></trkpt><trkpt lat="37.50163551112373" lon="15.069408383408128"><ele>55.0</ele><time>2026-03-27T16:34:04.999Z</time></trkpt><trkpt lat="37.501607974055865" lon="15.069294037334462"><ele>55.5</ele><time>2026-03-27T16:34:05.999Z</time></trkpt><trkpt lat="37.50159789660524" lon="15.069200973665792"><ele>56.0</ele><time>2026-03-27T16:34:06.999Z</time></trkpt><trkpt lat="37.501590290594244" lon="15.069118526133257"><ele>56.5</ele><time>2026-03-27T16:34:08.999Z</time></trkpt><trkpt lat="37.50157620291365" lon="15.069033929532141"><ele>57.0</ele><time>2026-03-27T16:34:11.999Z</time></trkpt><trkpt lat="37.50156617739001" lon="15.068923364255246"><ele>58.166666666666664</ele><time>2026-03-27T16:34:13.999Z</time></trkpt><trkpt lat="37.50155556236007" lon="15.068838280370173"><ele>59.33333333333333</ele><time>2026-03-27T16:34:15.998Z</time></trkpt><trkpt lat="37.501545659630146" lon="15.068743633434467"><ele>60.5</ele><time>2026-03-27T16:34:17.998Z</time></trkpt><trkpt lat="37.50153309969759" lon="15.068654695987785"><ele>61.666666666666664</ele><time>2026-03-27T16:34:20.998Z</time></trkpt><trkpt lat="37.50152870993497" lon="15.068547187097538"><ele>62.83333333333333</ele><time>2026-03-27T16:34:24Z</time></trkpt><trkpt lat="37.50151977633" lon="15.068448811155246"><ele>64.0</ele><time>2026-03-27T16:34:26Z</time></trkpt><trkpt lat="37.50150899254283" lon="15.06833323086741"><ele>65.25</ele><time>2026-03-27T16:34:28Z</time></trkpt><trkpt lat="37.50149679865347" lon="15.068202785630952"><ele>66.5</ele><time>2026-03-27T16:34:30Z</time></trkpt><trkpt lat="37.50148348108465" lon="15.068044206532548"><ele>67.75</ele><time>2026-03-27T16:34:32Z</time></trkpt><trkpt lat="37.50147346649808" lon="15.06789929888243"><ele>69.0</ele><time>2026-03-27T16:34:34Z</time></trkpt><trkpt lat="37.50146056257623" lon="15.067756228086452"><ele>69.0</ele><time>2026-03-27T16:34:36Z</time></trkpt><trkpt lat="37.50145080799673" lon="15.06760184348093"><ele>69.0</ele><time>2026-03-27T16:34:38Z</time></trkpt><trkpt lat="37.501446354984466" lon="15.067445592221944"><ele>69.0</ele><time>2026-03-27T16:34:40Z</time></trkpt><trkpt lat="37.501440987659386" lon="15.067301517797288"><ele>69.0</ele><time>2026-03-27T16:34:42Z</time></trkpt><trkpt lat="37.50143885552305" lon="15.067183505895803"><ele>70.16666666666667</ele><time>2026-03-27T16:34:44Z</time></trkpt><trkpt lat="37.50143790387718" lon="15.067069934122681"><ele>71.33333333333333</ele><time>2026-03-27T16:34:47Z</time></trkpt><trkpt lat="37.50143606407588" lon="15.066974738490433"><ele>72.5</ele><time>2026-03-27T16:34:51Z</time></trkpt><trkpt lat="37.501429387436026" lon="15.066858930183074"><ele>73.66666666666666</ele><time>2026-03-27T16:34:54Z</time></trkpt><trkpt lat="37.50141994448875" lon="15.066746599474317"><ele>74.83333333333333</ele><time>2026-03-27T16:34:56Z</time></trkpt><trkpt lat="37.5014148001036" lon="15.066645777723382"><ele>76.0</ele><time>2026-03-27T16:34:58Z</time></trkpt><trkpt lat="37.50141297961331" lon="15.066503921322917"><ele>76.5</ele><time>2026-03-27T16:35:00Z</time></trkpt><trkpt lat="37.50141308591984" lon="15.06634143161347"><ele>77.0</ele><time>2026-03-27T16:35:01.999Z</time></trkpt><trkpt lat="37.50141400164282" lon="15.066254675939625"><ele>77.5</ele><time>2026-03-27T16:35:02.999Z</time></trkpt><trkpt lat="37.50142018370066" lon="15.066161608231814"><ele>78.0</ele><time>2026-03-27T16:35:03.999Z</time></trkpt><trkpt lat="37.501430836519454" lon="15.066063632109953"><ele>78.5</ele><time>2026-03-27T16:35:04.999Z</time></trkpt><trkpt lat="37.50143743568342" lon="15.065955211308454"><ele>79.0</ele><time>2026-03-27T16:35:05.999Z</time></trkpt><trkpt lat="37.501448215253184" lon="15.065839785597722"><ele>79.33333333333333</ele><time>2026-03-27T16:35:06.999Z</time></trkpt><trkpt lat="37.50145796568759" lon="15.065722748309074"><ele>79.66666666666666</ele><time>2026-03-27T16:35:07.999Z</time></trkpt><trkpt lat="37.50146558858319" lon="15.065612327994078"><ele>80.0</ele><time>2026-03-27T16:35:08.999Z</time></trkpt><trkpt lat="37.50147287790558" lon="15.065507722193251"><ele>80.33333333333333</ele><time>2026-03-27T16:35:09.999Z</time></trkpt><trkpt lat="37.501481371839894" lon="15.065405960044101"><ele>80.66666666666667</ele><time>2026-03-27T16:35:10.999Z</time></trkpt><trkpt lat="37.50148904953776" lon="15.065299061860847"><ele>81.0</ele><time>2026-03-27T16:35:11.999Z</time></trkpt><trkpt lat="37.5014948340471" lon="15.065185674163294"><ele>81.0</ele><time>2026-03-27T16:35:12.999Z</time></trkpt><trkpt lat="37.501500827018866" lon="15.065070407732534"><ele>81.0</ele><time>2026-03-27T16:35:13.999Z</time></trkpt><trkpt lat="37.5015084671825" lon="15.064967527827188"><ele>81.0</ele><time>2026-03-27T16:35:14.999Z</time></trkpt><trkpt lat="37.501523161035756" lon="15.064819456585205"><ele>81.0</ele><time>2026-03-27T16:35:16.999Z</time></trkpt><trkpt lat="37.50152892228727" lon="15.06473805291073"><ele>81.0</ele><time>2026-03-27T16:35:17.999Z</time></trkpt><trkpt lat="37.50153633472012" lon="15.064651496261112"><ele>81.0</ele><time>2026-03-27T16:35:18.999Z</time></trkpt><trkpt lat="37.50154569096683" lon="15.064562282937894"><ele>81.16666666666667</ele><time>2026-03-27T16:35:19.999Z</time></trkpt><trkpt lat="37.50155268150717" lon="15.064472775544921"><ele>81.33333333333333</ele><time>2026-03-27T16:35:20.999Z</time></trkpt><trkpt lat="37.50156001441688" lon="15.064367384487152"><ele>81.5</ele><time>2026-03-27T16:35:21.999Z</time></trkpt><trkpt lat="37.501568587087775" lon="15.06425314528537"><ele>81.66666666666666</ele><time>2026-03-27T16:35:22.999Z</time></trkpt><trkpt lat="37.501576754010166" lon="15.064143535441318"><ele>81.83333333333333</ele><time>2026-03-27T16:35:23.999Z</time></trkpt><trkpt lat="37.501584714035424" lon="15.064042729810664"><ele>82.0</ele><time>2026-03-27T16:35:24.999Z</time></trkpt><trkpt lat="37.50159154195277" lon="15.063953044876627"><ele>81.66666666666666</ele><time>2026-03-27T16:35:25.999Z</time></trkpt><trkpt lat="37.50160349100445" lon="15.063835981469975"><ele>81.33333333333333</ele><time>2026-03-27T16:35:27.999Z</time></trkpt><trkpt lat="37.50163273126564" lon="15.063754547206722"><ele>81.0</ele><time>2026-03-27T16:35:33.999Z</time></trkpt><trkpt lat="37.501639824436594" lon="15.063654356962443"><ele>80.66666666666667</ele><time>2026-03-27T16:35:35.999Z</time></trkpt><trkpt lat="37.501639267577886" lon="15.063562917802221"><ele>80.33333333333334</ele><time>2026-03-27T16:35:36.999Z</time></trkpt><trkpt lat="37.501641200126926" lon="15.063448074739622"><ele>80.0</ele><time>2026-03-27T16:35:37.999Z</time></trkpt><trkpt lat="37.50164628776591" lon="15.063325882994569"><ele>79.33333333333334</ele><time>2026-03-27T16:35:38.999Z</time></trkpt><trkpt lat="37.50165613433651" lon="15.063212150082963"><ele>78.66666666666667</ele><time>2026-03-27T16:35:39.999Z</time></trkpt><trkpt lat="37.501666129095725" lon="15.063097078617297"><ele>78.0</ele><time>2026-03-27T16:35:40.999Z</time></trkpt><trkpt lat="37.50167598437816" lon="15.062983939897924"><ele>77.33333333333333</ele><time>2026-03-27T16:35:41.999Z</time></trkpt><trkpt lat="37.50168833527155" lon="15.06287633226907"><ele>76.66666666666666</ele><time>2026-03-27T16:35:42.999Z</time></trkpt><trkpt lat="37.5017011900633" lon="15.062775451190028"><ele>76.0</ele><time>2026-03-27T16:35:43.999Z</time></trkpt><trkpt lat="37.50171352150909" lon="15.06268380147082"><ele>76.0</ele><time>2026-03-27T16:35:44.999Z</time></trkpt><trkpt lat="37.501726469736916" lon="15.062602814937204"><ele>76.0</ele><time>2026-03-27T16:35:45.999Z</time></trkpt><trkpt lat="37.501748720561665" lon="15.062457992633137"><ele>76.0</ele><time>2026-03-27T16:35:47.999Z</time></trkpt><trkpt lat="37.5017652796698" lon="15.062339873459731"><ele>76.0</ele><time>2026-03-27T16:35:49.999Z</time></trkpt><trkpt lat="37.501778291767216" lon="15.06225507195932"><ele>76.0</ele><time>2026-03-27T16:35:53.999Z</time></trkpt><trkpt lat="37.50179798272162" lon="15.062129930235416"><ele>76.0</ele><time>2026-03-27T16:35:58.999Z</time></trkpt><trkpt lat="37.5018174940968" lon="15.061994968748285"><ele>76.0</ele><time>2026-03-27T16:36:00.999Z</time></trkpt><trkpt lat="37.5018162034394" lon="15.061887954813102"><ele>76.0</ele><time>2026-03-27T16:36:01.999Z</time></trkpt><trkpt lat="37.50184133974124" lon="15.061801663234975"><ele>76.0</ele><time>2026-03-27T16:36:02.999Z</time></trkpt><trkpt lat="37.50186489178049" lon="15.061680838108302"><ele>76.0</ele><time>2026-03-27T16:36:04.999Z</time></trkpt><trkpt lat="37.50188176146297" lon="15.06159954492722"><ele>76.0</ele><time>2026-03-27T16:36:07.999Z</time></trkpt><trkpt lat="37.50190803634058" lon="15.061483663097489"><ele>76.0</ele><time>2026-03-27T16:36:12.999Z</time></trkpt><trkpt lat="37.501933031516785" lon="15.061391395643104"><ele>76.0</ele><time>2026-03-27T16:36:13.999Z</time></trkpt><trkpt lat="37.50195733009793" lon="15.061306007673275"><ele>76.0</ele><time>2026-03-27T16:36:14.999Z</time></trkpt><trkpt lat="37.50197416075011" lon="15.061206669791257"><ele>76.0</ele><time>2026-03-27T16:36:15.999Z</time></trkpt><trkpt lat="37.502005083949314" lon="15.061083664792704"><ele>76.0</ele><time>2026-03-27T16:36:16.999Z</time></trkpt><trkpt lat="37.502036968190325" lon="15.06092855152383"><ele>76.0</ele><time>2026-03-27T16:36:17.999Z</time></trkpt><trkpt lat="37.50207930036177" lon="15.060774069937331"><ele>76.33333333333333</ele><time>2026-03-27T16:36:18.999Z</time></trkpt><trkpt lat="37.502132519702776" lon="15.060651234479307"><ele>76.66666666666666</ele><time>2026-03-27T16:36:19.999Z</time></trkpt><trkpt lat="37.50217336266877" lon="15.060545663531116"><ele>77.0</ele><time>2026-03-27T16:36:20.999Z</time></trkpt><trkpt lat="37.502200447841574" lon="15.06045493959448"><ele>77.33333333333333</ele><time>2026-03-27T16:36:21.999Z</time></trkpt><trkpt lat="37.50222570838608" lon="15.060369980994896"><ele>77.66666666666667</ele><time>2026-03-27T16:36:22.998Z</time></trkpt><trkpt lat="37.50225039987576" lon="15.060288169322774"><ele>78.0</ele><time>2026-03-27T16:36:23.998Z</time></trkpt><trkpt lat="37.50227319825587" lon="15.060197904318716"><ele>78.0</ele><time>2026-03-27T16:36:24.998Z</time></trkpt><trkpt lat="37.50230230686958" lon="15.060102813147363"><ele>78.0</ele><time>2026-03-27T16:36:25.998Z</time></trkpt><trkpt lat="37.50233832838124" lon="15.059996077196908"><ele>78.0</ele><time>2026-03-27T16:36:26.998Z</time></trkpt><trkpt lat="37.502377231367845" lon="15.059883620540283"><ele>78.0</ele><time>2026-03-27T16:36:28Z</time></trkpt><trkpt lat="37.502419502303205" lon="15.059774587494003"><ele>78.0</ele><time>2026-03-27T16:36:29Z</time></trkpt><trkpt lat="37.5024593591455" lon="15.059674017858399"><ele>78.16666666666667</ele><time>2026-03-27T16:36:30Z</time></trkpt><trkpt lat="37.50249932161775" lon="15.059574449073672"><ele>78.33333333333333</ele><time>2026-03-27T16:36:31Z</time></trkpt><trkpt lat="37.50253761927988" lon="15.05947457235213"><ele>78.5</ele><time>2026-03-27T16:36:32Z</time></trkpt><trkpt lat="37.50257085342225" lon="15.059389983418557"><ele>78.66666666666666</ele><time>2026-03-27T16:36:33Z</time></trkpt><trkpt lat="37.5026059160073" lon="15.059308564235208"><ele>78.83333333333333</ele><time>2026-03-27T16:36:34Z</time></trkpt><trkpt lat="37.502642650878336" lon="15.059222120298102"><ele>79.0</ele><time>2026-03-27T16:36:35Z</time></trkpt><trkpt lat="37.50268100707939" lon="15.059128829964003"><ele>78.83333333333333</ele><time>2026-03-27T16:36:36Z</time></trkpt><trkpt lat="37.50271479424381" lon="15.059051466729338"><ele>78.66666666666666</ele><time>2026-03-27T16:36:37Z</time></trkpt><trkpt lat="37.50280449564843" lon="15.059021615760203"><ele>78.5</ele><time>2026-03-27T16:36:38Z</time></trkpt><trkpt lat="37.5028035992514" lon="15.058851042620054"><ele>78.33333333333333</ele><time>2026-03-27T16:36:40Z</time></trkpt><trkpt lat="37.50283898815039" lon="15.058771563590767"><ele>78.16666666666667</ele><time>2026-03-27T16:36:41Z</time></trkpt><trkpt lat="37.50288040339846" lon="15.058687482937477"><ele>78.0</ele><time>2026-03-27T16:36:42Z</time></trkpt><trkpt lat="37.50292298262347" lon="15.05860089462318"><ele>78.33333333333333</ele><time>2026-03-27T16:36:43Z</time></trkpt><trkpt lat="37.50296636221835" lon="15.058510631434132"><ele>78.66666666666667</ele><time>2026-03-27T16:36:44Z</time></trkpt><trkpt lat="37.50301194230193" lon="15.058418084476381"><ele>79.0</ele><time>2026-03-27T16:36:45Z</time></trkpt><trkpt lat="37.50305899696965" lon="15.058325275825721"><ele>79.33333333333334</ele><time>2026-03-27T16:36:46Z</time></trkpt><trkpt lat="37.50310509090562" lon="15.058234655559115"><ele>79.66666666666667</ele><time>2026-03-27T16:36:47Z</time></trkpt><trkpt lat="37.503153463128" lon="15.05814438586499"><ele>80.0</ele><time>2026-03-27T16:36:48Z</time></trkpt><trkpt lat="37.5032039402593" lon="15.058050070286617"><ele>80.0</ele><time>2026-03-27T16:36:49Z</time></trkpt><trkpt lat="37.503251201477795" lon="15.057964030768506"><ele>80.0</ele><time>2026-03-27T16:36:50Z</time></trkpt><trkpt lat="37.50329195589038" lon="15.057890523345353"><ele>80.0</ele><time>2026-03-27T16:36:51Z</time></trkpt><trkpt lat="37.503353883101965" lon="15.057773574275272"><ele>80.0</ele><time>2026-03-27T16:36:53Z</time></trkpt><trkpt lat="37.50341097971026" lon="15.057667245652107"><ele>80.0</ele><time>2026-03-27T16:36:55Z</time></trkpt><trkpt lat="37.5034762269585" lon="15.057547928759396"><ele>80.0</ele><time>2026-03-27T16:36:57Z</time></trkpt><trkpt lat="37.50351752186868" lon="15.057468378896647"><ele>80.0</ele><time>2026-03-27T16:36:59Z</time></trkpt><trkpt lat="37.503553175900564" lon="15.057394998988574"><ele>80.0</ele><time>2026-03-27T16:37:01Z</time></trkpt><trkpt lat="37.50361789306773" lon="15.0572693768104"><ele>80.0</ele><time>2026-03-27T16:37:03Z</time></trkpt><trkpt lat="37.50368286200208" lon="15.057146859486433"><ele>80.0</ele><time>2026-03-27T16:37:05Z</time></trkpt><trkpt lat="37.50374003863066" lon="15.057039819658529"><ele>80.5</ele><time>2026-03-27T16:37:07Z</time></trkpt><trkpt lat="37.503798972690845" lon="15.05693306040113"><ele>81.0</ele><time>2026-03-27T16:37:08.999Z</time></trkpt><trkpt lat="37.50384584663303" lon="15.056851157293098"><ele>81.5</ele><time>2026-03-27T16:37:10.999Z</time></trkpt><trkpt lat="37.503913202942016" lon="15.056725082694957"><ele>82.0</ele><time>2026-03-27T16:37:12.999Z</time></trkpt><trkpt lat="37.503954927660835" lon="15.05665599366869"><ele>82.5</ele><time>2026-03-27T16:37:13.999Z</time></trkpt><trkpt lat="37.50399784858529" lon="15.056579535875894"><ele>83.0</ele><time>2026-03-27T16:37:14.999Z</time></trkpt><trkpt lat="37.50404094261645" lon="15.05650095217772"><ele>83.5</ele><time>2026-03-27T16:37:15.999Z</time></trkpt><trkpt lat="37.5040863078329" lon="15.056418810235186"><ele>84.0</ele><time>2026-03-27T16:37:16.999Z</time></trkpt><trkpt lat="37.504130198572575" lon="15.056335629586764"><ele>84.5</ele><time>2026-03-27T16:37:17.999Z</time></trkpt><trkpt lat="37.50417516846249" lon="15.056244765384466"><ele>85.0</ele><time>2026-03-27T16:37:18.999Z</time></trkpt><trkpt lat="37.50422462147727" lon="15.056154358603708"><ele>85.5</ele><time>2026-03-27T16:37:19.999Z</time></trkpt><trkpt lat="37.50427767307696" lon="15.05605448405396"><ele>86.0</ele><time>2026-03-27T16:37:20.999Z</time></trkpt><trkpt lat="37.50433036068379" lon="15.05595789743043"><ele>86.0</ele><time>2026-03-27T16:37:21.999Z</time></trkpt><trkpt lat="37.50438494884486" lon="15.055849847528837"><ele>86.0</ele><time>2026-03-27T16:37:22.999Z</time></trkpt><trkpt lat="37.50444041886073" lon="15.055745496081768"><ele>86.0</ele><time>2026-03-27T16:37:23.999Z</time></trkpt><trkpt lat="37.50449509563163" lon="15.055640998209396"><ele>86.0</ele><time>2026-03-27T16:37:24.999Z</time></trkpt><trkpt lat="37.50454641243141" lon="15.055553703265266"><ele>86.0</ele><time>2026-03-27T16:37:25.999Z</time></trkpt><trkpt lat="37.50458882566209" lon="15.055457848645911"><ele>87.16666666666667</ele><time>2026-03-27T16:37:26.999Z</time></trkpt><trkpt lat="37.50462809541601" lon="15.055373011361468"><ele>88.33333333333334</ele><time>2026-03-27T16:37:27.999Z</time></trkpt><trkpt lat="37.50467389941509" lon="15.055279184996795"><ele>89.5</ele><time>2026-03-27T16:37:28.999Z</time></trkpt><trkpt lat="37.50472079918989" lon="15.05519478157432"><ele>90.66666666666667</ele><time>2026-03-27T16:37:29.999Z</time></trkpt><trkpt lat="37.50476327296448" lon="15.055120587645344"><ele>91.83333333333333</ele><time>2026-03-27T16:37:30.999Z</time></trkpt><trkpt lat="37.50480612394052" lon="15.0550397493801"><ele>93.0</ele><time>2026-03-27T16:37:31.999Z</time></trkpt><trkpt lat="37.50484740259206" lon="15.054965858993874"><ele>93.60000000000001</ele><time>2026-03-27T16:37:32.999Z</time></trkpt><trkpt lat="37.504894275882364" lon="15.054873032560867"><ele>94.2</ele><time>2026-03-27T16:37:33.999Z</time></trkpt><trkpt lat="37.504946643524725" lon="15.054761487200036"><ele>94.8</ele><time>2026-03-27T16:37:34.999Z</time></trkpt><trkpt lat="37.505012363412845" lon="15.054640420622606"><ele>95.4</ele><time>2026-03-27T16:37:35.999Z</time></trkpt><trkpt lat="37.50507542753107" lon="15.054531124401565"><ele>96.0</ele><time>2026-03-27T16:37:36.999Z</time></trkpt><trkpt lat="37.50512657897377" lon="15.054442297333436"><ele>96.0</ele><time>2026-03-27T16:37:37.999Z</time></trkpt><trkpt lat="37.50517086737689" lon="15.054366189227983"><ele>96.0</ele><time>2026-03-27T16:37:38.999Z</time></trkpt><trkpt lat="37.50522492902435" lon="15.054268699296992"><ele>96.0</ele><time>2026-03-27T16:37:39.999Z</time></trkpt><trkpt lat="37.50527677750276" lon="15.054178212476925"><ele>96.0</ele><time>2026-03-27T16:37:40.999Z</time></trkpt><trkpt lat="37.505322171020346" lon="15.054102735307074"><ele>96.0</ele><time>2026-03-27T16:37:41.999Z</time></trkpt><trkpt lat="37.50536680508574" lon="15.054030593407784"><ele>96.0</ele><time>2026-03-27T16:37:42.999Z</time></trkpt><trkpt lat="37.50542236977162" lon="15.053924034421826"><ele>97.16666666666667</ele><time>2026-03-27T16:37:43.999Z</time></trkpt><trkpt lat="37.50546566054451" lon="15.053849382590306"><ele>98.33333333333334</ele><time>2026-03-27T16:37:44.999Z</time></trkpt><trkpt lat="37.505513429075194" lon="15.053764228282033"><ele>99.5</ele><time>2026-03-27T16:37:45.999Z</time></trkpt><trkpt lat="37.505557324466594" lon="15.053682754624946"><ele>100.66666666666667</ele><time>2026-03-27T16:37:46.999Z</time></trkpt><trkpt lat="37.505607428058816" lon="15.053602216785404"><ele>101.83333333333334</ele><time>2026-03-27T16:37:47.999Z</time></trkpt><trkpt lat="37.50566278891805" lon="15.053518189512646"><ele>103.0</ele><time>2026-03-27T16:37:48.999Z</time></trkpt><trkpt lat="37.50572043919549" lon="15.053423442114244"><ele>103.0</ele><time>2026-03-27T16:37:49.999Z</time></trkpt><trkpt lat="37.50577707054687" lon="15.053327924303085"><ele>103.0</ele><time>2026-03-27T16:37:50.999Z</time></trkpt><trkpt lat="37.50583403293809" lon="15.05323444397914"><ele>103.0</ele><time>2026-03-27T16:37:51.999Z</time></trkpt><trkpt lat="37.505899171176274" lon="15.053142518227414"><ele>103.0</ele><time>2026-03-27T16:37:52.999Z</time></trkpt><trkpt lat="37.50597158637273" lon="15.053045806003238"><ele>103.0</ele><time>2026-03-27T16:37:53.999Z</time></trkpt><trkpt lat="37.506041821298396" lon="15.052944871206192"><ele>103.60000000000001</ele><time>2026-03-27T16:37:54.999Z</time></trkpt><trkpt lat="37.5061116699106" lon="15.052839045461491"><ele>104.2</ele><time>2026-03-27T16:37:55.999Z</time></trkpt><trkpt lat="37.50618429650279" lon="15.052736549702479"><ele>104.8</ele><time>2026-03-27T16:37:56.999Z</time></trkpt><trkpt lat="37.506253297010325" lon="15.052633499663179"><ele>105.4</ele><time>2026-03-27T16:37:57.999Z</time></trkpt><trkpt lat="37.506324162866235" lon="15.052538428210353"><ele>106.0</ele><time>2026-03-27T16:37:58.999Z</time></trkpt><trkpt lat="37.50639227041975" lon="15.05244199285939"><ele>107.50000000000001</ele><time>2026-03-27T16:37:59.999Z</time></trkpt><trkpt lat="37.506453661497545" lon="15.052343596723667"><ele>109.0</ele><time>2026-03-27T16:38:00.999Z</time></trkpt><trkpt lat="37.506513862734884" lon="15.052250134012521"><ele>110.5</ele><time>2026-03-27T16:38:01.999Z</time></trkpt><trkpt lat="37.506571890822975" lon="15.0521613742867"><ele>112.0</ele><time>2026-03-27T16:38:02.999Z</time></trkpt><trkpt lat="37.506620004084255" lon="15.052085591823177"><ele>113.50000000000001</ele><time>2026-03-27T16:38:03.999Z</time></trkpt><trkpt lat="37.50666563734443" lon="15.052013111083179"><ele>115.0</ele><time>2026-03-27T16:38:04.999Z</time></trkpt><trkpt lat="37.50671054193721" lon="15.0519406936985"><ele>114.99999999999999</ele><time>2026-03-27T16:38:05.999Z</time></trkpt><trkpt lat="37.50675457418512" lon="15.05188354705348"><ele>115.0</ele><time>2026-03-27T16:38:06.999Z</time></trkpt><trkpt lat="37.50680308000329" lon="15.051818946238408"><ele>114.99999999999999</ele><time>2026-03-27T16:38:07.999Z</time></trkpt><trkpt lat="37.506854325247026" lon="15.051750612157795"><ele>114.99999999999999</ele><time>2026-03-27T16:38:08.999Z</time></trkpt><trkpt lat="37.50690487693532" lon="15.051686422357477"><ele>115.0</ele><time>2026-03-27T16:38:09.999Z</time></trkpt><trkpt lat="37.50695204210886" lon="15.051617893237161"><ele>114.99999999999999</ele><time>2026-03-27T16:38:10.999Z</time></trkpt><trkpt lat="37.506998744974645" lon="15.05154687774401"><ele>114.99999999999999</ele><time>2026-03-27T16:38:11.999Z</time></trkpt><trkpt lat="37.50703964692654" lon="15.051481922194963"><ele>115.8</ele><time>2026-03-27T16:38:12.999Z</time></trkpt><trkpt lat="37.50711235258481" lon="15.051355798605256"><ele>116.6</ele><time>2026-03-27T16:38:14.999Z</time></trkpt><trkpt lat="37.50718266594406" lon="15.051231012440518"><ele>117.4</ele><time>2026-03-27T16:38:16.999Z</time></trkpt><trkpt lat="37.507248665172085" lon="15.051141464807523"><ele>118.2</ele><time>2026-03-27T16:38:18.999Z</time></trkpt><trkpt lat="37.507300639084306" lon="15.051088809567728"><ele>119.0</ele><time>2026-03-27T16:38:20.999Z</time></trkpt><trkpt lat="37.507368252666474" lon="15.05103918572619"><ele>118.99999999999999</ele><time>2026-03-27T16:38:23.999Z</time></trkpt><trkpt lat="37.507431026124394" lon="15.051018750901891"><ele>119.0</ele><time>2026-03-27T16:39:16.999Z</time></trkpt><trkpt lat="37.50751106820643" lon="15.050993922964956"><ele>119.0</ele><time>2026-03-27T16:39:19.999Z</time></trkpt><trkpt lat="37.50760269398348" lon="15.050967985483949"><ele>119.0</ele><time>2026-03-27T16:39:22.999Z</time></trkpt><trkpt lat="37.50767004851401" lon="15.050902780620847"><ele>118.99999999999999</ele><time>2026-03-27T16:39:25.999Z</time></trkpt><trkpt lat="37.507722600554665" lon="15.050829470453692"><ele>119.0</ele><time>2026-03-27T16:39:27.999Z</time></trkpt><trkpt lat="37.5077050510757" lon="15.050746972920148"><ele>119.4</ele><time>2026-03-27T16:39:29.999Z</time></trkpt><trkpt lat="37.50767481622354" lon="15.050638458182497"><ele>119.80000000000001</ele><time>2026-03-27T16:39:31.999Z</time></trkpt><trkpt lat="37.507647727705056" lon="15.050510217932334"><ele>120.19999999999999</ele><time>2026-03-27T16:39:33.999Z</time></trkpt><trkpt lat="37.50763441715775" lon="15.050385223833018"><ele>120.6</ele><time>2026-03-27T16:39:35.999Z</time></trkpt><trkpt lat="37.50759136656356" lon="15.050250808459598"><ele>121.0</ele><time>2026-03-27T16:39:37.999Z</time></trkpt><trkpt lat="37.50756723480871" lon="15.050116840740738"><ele>121.00000000000001</ele><time>2026-03-27T16:39:39.999Z</time></trkpt><trkpt lat="37.50754133614078" lon="15.049995489582862"><ele>121.0</ele><time>2026-03-27T16:39:41.999Z</time></trkpt><trkpt lat="37.507529620673004" lon="15.049916846272284"><ele>121.0</ele><time>2026-03-27T16:39:42.999Z</time></trkpt><trkpt lat="37.50751021562861" lon="15.04981722262616"><ele>121.0</ele><time>2026-03-27T16:39:43.999Z</time></trkpt><trkpt lat="37.50749418852525" lon="15.049708126205395"><ele>121.00000000000001</ele><time>2026-03-27T16:39:44.999Z</time></trkpt><trkpt lat="37.507474101951935" lon="15.04959379177806"><ele>121.0</ele><time>2026-03-27T16:39:45.999Z</time></trkpt><trkpt lat="37.507457627634395" lon="15.04947227560459"><ele>121.16666666666667</ele><time>2026-03-27T16:39:46.999Z</time></trkpt><trkpt lat="37.507445327639005" lon="15.049366637630808"><ele>121.33333333333334</ele><time>2026-03-27T16:39:47.999Z</time></trkpt><trkpt lat="37.507432503370524" lon="15.049271129137995"><ele>121.5</ele><time>2026-03-27T16:39:48.999Z</time></trkpt><trkpt lat="37.507416223628525" lon="15.049177685558545"><ele>121.66666666666666</ele><time>2026-03-27T16:39:49.999Z</time></trkpt><trkpt lat="37.50740244380944" lon="15.04908274298038"><ele>121.83333333333333</ele><time>2026-03-27T16:39:50.999Z</time></trkpt><trkpt lat="37.5073850904797" lon="15.048983885817549"><ele>122.0</ele><time>2026-03-27T16:39:51.999Z</time></trkpt><trkpt lat="37.50736899604892" lon="15.048883533093703"><ele>121.99999999999999</ele><time>2026-03-27T16:39:52.999Z</time></trkpt><trkpt lat="37.507351426944915" lon="15.048792804516742"><ele>122.0</ele><time>2026-03-27T16:39:53.999Z</time></trkpt><trkpt lat="37.50733763678504" lon="15.048714945247706"><ele>122.0</ele><time>2026-03-27T16:39:54.999Z</time></trkpt><trkpt lat="37.507315838662976" lon="15.048591814277941"><ele>122.0</ele><time>2026-03-27T16:39:56.999Z</time></trkpt><trkpt lat="37.50728652982124" lon="15.0484477641301"><ele>121.99999999999999</ele><time>2026-03-27T16:39:58.999Z</time></trkpt><trkpt lat="37.50727160279403" lon="15.048351366580084"><ele>122.0</ele><time>2026-03-27T16:40:00.999Z</time></trkpt><trkpt lat="37.50725744131908" lon="15.048268563850662"><ele>122.33333333333333</ele><time>2026-03-27T16:40:03.999Z</time></trkpt><trkpt lat="37.50724056649243" lon="15.048189245136053"><ele>122.66666666666666</ele><time>2026-03-27T16:40:09.999Z</time></trkpt><trkpt lat="37.5072185828069" lon="15.048058765090044"><ele>123.0</ele><time>2026-03-27T16:40:11.999Z</time></trkpt><trkpt lat="37.5072026912895" lon="15.047964534028575"><ele>123.33333333333334</ele><time>2026-03-27T16:40:13.999Z</time></trkpt><trkpt lat="37.507187269303415" lon="15.047855915814338"><ele>123.66666666666667</ele><time>2026-03-27T16:40:17.999Z</time></trkpt><trkpt lat="37.50717376308107" lon="15.047772587794116"><ele>124.0</ele><time>2026-03-27T16:40:19.999Z</time></trkpt><trkpt lat="37.50716071961288" lon="15.047671604945572"><ele>124.00000000000001</ele><time>2026-03-27T16:40:22.999Z</time></trkpt><trkpt lat="37.5071449687532" lon="15.047555909357532"><ele>124.0</ele><time>2026-03-27T16:40:25.999Z</time></trkpt><trkpt lat="37.50713103536443" lon="15.047443017960932"><ele>124.0</ele><time>2026-03-27T16:40:28.999Z</time></trkpt><trkpt lat="37.50711298260374" lon="15.04733569438526"><ele>124.0</ele><time>2026-03-27T16:40:31.999Z</time></trkpt><trkpt lat="37.507098370222096" lon="15.047249445777492"><ele>124.00000000000001</ele><time>2026-03-27T16:40:33.998Z</time></trkpt><trkpt lat="37.50708477306608" lon="15.047165710009601"><ele>124.0</ele><time>2026-03-27T16:40:35.998Z</time></trkpt><trkpt lat="37.50706401389395" lon="15.047072102315987"><ele>124.16666666666667</ele><time>2026-03-27T16:40:38.998Z</time></trkpt><trkpt lat="37.50707027563691" lon="15.046963391915295"><ele>124.33333333333334</ele><time>2026-03-27T16:40:44Z</time></trkpt><trkpt lat="37.50710281676453" lon="15.046867921195625"><ele>124.5</ele><time>2026-03-27T16:40:46Z</time></trkpt><trkpt lat="37.50716037934548" lon="15.046808530531509"><ele>124.66666666666666</ele><time>2026-03-27T16:40:47Z</time></trkpt><trkpt lat="37.507214690042154" lon="15.046767729676771"><ele>124.83333333333333</ele><time>2026-03-27T16:40:48Z</time></trkpt><trkpt lat="37.50732135032882" lon="15.046723157432071"><ele>125.0</ele><time>2026-03-27T16:40:50Z</time></trkpt><trkpt lat="37.50739581310376" lon="15.046696744749333"><ele>125.0</ele><time>2026-03-27T16:40:52Z</time></trkpt><trkpt lat="37.507462805349114" lon="15.046665928517056"><ele>125.0</ele><time>2026-03-27T16:40:54Z</time></trkpt><trkpt lat="37.50753534253212" lon="15.046637471232263"><ele>125.0</ele><time>2026-03-27T16:40:58Z</time></trkpt><trkpt lat="37.50763277056164" lon="15.046606286573661"><ele>125.0</ele><time>2026-03-27T16:41:01Z</time></trkpt><trkpt lat="37.50773791683637" lon="15.046567473595879"><ele>125.0</ele><time>2026-03-27T16:41:03Z</time></trkpt><trkpt lat="37.50785090967692" lon="15.046524407649436"><ele>126.0</ele><time>2026-03-27T16:41:05Z</time></trkpt><trkpt lat="37.50796468244437" lon="15.046483717117944"><ele>127.0</ele><time>2026-03-27T16:41:07Z</time></trkpt><trkpt lat="37.508084726969905" lon="15.046447060335483"><ele>128.0</ele><time>2026-03-27T16:41:09Z</time></trkpt><trkpt lat="37.50819301709237" lon="15.046422266191037"><ele>129.0</ele><time>2026-03-27T16:41:11Z</time></trkpt><trkpt lat="37.508316306702525" lon="15.046404107634897"><ele>128.99999999999997</ele><time>2026-03-27T16:41:13Z</time></trkpt><trkpt lat="37.508382668587956" lon="15.046389183955588"><ele>129.0</ele><time>2026-03-27T16:41:14Z</time></trkpt><trkpt lat="37.508454882888486" lon="15.046375193388615"><ele>129.0</ele><time>2026-03-27T16:41:15Z</time></trkpt><trkpt lat="37.508529236464284" lon="15.046359607617815"><ele>129.0</ele><time>2026-03-27T16:41:16Z</time></trkpt><trkpt lat="37.508602947642736" lon="15.04634583967486"><ele>129.0</ele><time>2026-03-27T16:41:17Z</time></trkpt><trkpt lat="37.50867637647044" lon="15.046332344355216"><ele>128.99999999999997</ele><time>2026-03-27T16:41:18Z</time></trkpt><trkpt lat="37.50874775952436" lon="15.046319529930013"><ele>129.0</ele><time>2026-03-27T16:41:19Z</time></trkpt><trkpt lat="37.50882416723761" lon="15.046305363558046"><ele>129.7142857142857</ele><time>2026-03-27T16:41:20Z</time></trkpt><trkpt lat="37.50889608703728" lon="15.046284294365469"><ele>130.42857142857142</ele><time>2026-03-27T16:41:21Z</time></trkpt><trkpt lat="37.50896150248376" lon="15.04625746437041"><ele>131.14285714285714</ele><time>2026-03-27T16:41:22Z</time></trkpt><trkpt lat="37.509018112180875" lon="15.046221903089465"><ele>131.85714285714283</ele><time>2026-03-27T16:41:22.999Z</time></trkpt><trkpt lat="37.50907090855234" lon="15.04617073299665"><ele>132.57142857142856</ele><time>2026-03-27T16:41:23.999Z</time></trkpt><trkpt lat="37.509113133364686" lon="15.046100356799116"><ele>133.28571428571428</ele><time>2026-03-27T16:41:24.999Z</time></trkpt><trkpt lat="37.509143760215515" lon="15.046015942181244"><ele>134.0</ele><time>2026-03-27T16:41:25.999Z</time></trkpt><trkpt lat="37.509173403649676" lon="15.04592476117204"><ele>134.0</ele><time>2026-03-27T16:41:26.999Z</time></trkpt><trkpt lat="37.50919795909953" lon="15.045836282035337"><ele>134.0</ele><time>2026-03-27T16:41:27.999Z</time></trkpt><trkpt lat="37.509222526907436" lon="15.045749611203917"><ele>134.0</ele><time>2026-03-27T16:41:28.999Z</time></trkpt><trkpt lat="37.509247283227424" lon="15.045659338291783"><ele>134.0</ele><time>2026-03-27T16:41:29.999Z</time></trkpt><trkpt lat="37.50927187354733" lon="15.045571369127304"><ele>134.0</ele><time>2026-03-27T16:41:30.999Z</time></trkpt><trkpt lat="37.50929568401598" lon="15.045490580576207"><ele>134.0</ele><time>2026-03-27T16:41:31.999Z</time></trkpt><trkpt lat="37.50931873364219" lon="15.045413804589282"><ele>134.0</ele><time>2026-03-27T16:41:32.999Z</time></trkpt><trkpt lat="37.509340266542424" lon="15.045336920479059"><ele>133.83333333333331</ele><time>2026-03-27T16:41:33.999Z</time></trkpt><trkpt lat="37.50936397587238" lon="15.045249926782828"><ele>133.66666666666666</ele><time>2026-03-27T16:41:34.999Z</time></trkpt><trkpt lat="37.509391055637884" lon="15.045153779603524"><ele>133.5</ele><time>2026-03-27T16:41:35.999Z</time></trkpt><trkpt lat="37.509420322082526" lon="15.04505107418691"><ele>133.33333333333334</ele><time>2026-03-27T16:41:36.999Z</time></trkpt><trkpt lat="37.50944813786329" lon="15.044954183978904"><ele>133.16666666666669</ele><time>2026-03-27T16:41:37.999Z</time></trkpt><trkpt lat="37.5094751080138" lon="15.044861540111652"><ele>133.0</ele><time>2026-03-27T16:41:38.999Z</time></trkpt><trkpt lat="37.50949995230688" lon="15.044779747758119"><ele>133.0</ele><time>2026-03-27T16:41:39.999Z</time></trkpt><trkpt lat="37.50952561535839" lon="15.044697048937715"><ele>133.0</ele><time>2026-03-27T16:41:40.999Z</time></trkpt><trkpt lat="37.50955499322919" lon="15.04460808457737"><ele>133.0</ele><time>2026-03-27T16:41:41.999Z</time></trkpt><trkpt lat="37.5095861003137" lon="15.044513791357243"><ele>133.0</ele><time>2026-03-27T16:41:42.999Z</time></trkpt><trkpt lat="37.50961364368059" lon="15.044421641546625"><ele>133.0</ele><time>2026-03-27T16:41:43.999Z</time></trkpt><trkpt lat="37.5096487566432" lon="15.04433493480779"><ele>133.0</ele><time>2026-03-27T16:41:44.999Z</time></trkpt><trkpt lat="37.50969114530173" lon="15.04424941398694"><ele>133.0</ele><time>2026-03-27T16:41:45.999Z</time></trkpt><trkpt lat="37.509737329464286" lon="15.044163761174396"><ele>133.0</ele><time>2026-03-27T16:41:46.999Z</time></trkpt><trkpt lat="37.50979230312948" lon="15.044081683058932"><ele>133.0</ele><time>2026-03-27T16:41:47.999Z</time></trkpt><trkpt lat="37.509849624905144" lon="15.043998830242176"><ele>133.0</ele><time>2026-03-27T16:41:48.999Z</time></trkpt><trkpt lat="37.50990635699474" lon="15.043913800375458"><ele>133.0</ele><time>2026-03-27T16:41:49.999Z</time></trkpt><trkpt lat="37.50996446735905" lon="15.043822441462078"><ele>133.0</ele><time>2026-03-27T16:41:50.999Z</time></trkpt><trkpt lat="37.51002198095065" lon="15.04372954216776"><ele>132.83333333333334</ele><time>2026-03-27T16:41:51.999Z</time></trkpt><trkpt lat="37.51007299110961" lon="15.043649900511243"><ele>132.66666666666669</ele><time>2026-03-27T16:41:52.999Z</time></trkpt><trkpt lat="37.51011888056457" lon="15.043580638823013"><ele>132.5</ele><time>2026-03-27T16:41:53.999Z</time></trkpt><trkpt lat="37.51016120776294" lon="15.043517158529005"><ele>132.33333333333334</ele><time>2026-03-27T16:41:54.999Z</time></trkpt><trkpt lat="37.510205600817606" lon="15.043449483941838"><ele>132.16666666666666</ele><time>2026-03-27T16:41:55.999Z</time></trkpt><trkpt lat="37.510254095864745" lon="15.043374495186987"><ele>132.0</ele><time>2026-03-27T16:41:56.999Z</time></trkpt><trkpt lat="37.51030885146399" lon="15.043291899989011"><ele>132.83333333333334</ele><time>2026-03-27T16:41:57.999Z</time></trkpt><trkpt lat="37.51036800354004" lon="15.043204380955313"><ele>133.66666666666666</ele><time>2026-03-27T16:41:58.999Z</time></trkpt><trkpt lat="37.51042576235109" lon="15.043121930079538"><ele>134.5</ele><time>2026-03-27T16:41:59.999Z</time></trkpt><trkpt lat="37.51047715371818" lon="15.043045749088561"><ele>135.33333333333331</ele><time>2026-03-27T16:42:00.999Z</time></trkpt><trkpt lat="37.51052613955296" lon="15.04297208740246"><ele>136.16666666666666</ele><time>2026-03-27T16:42:01.999Z</time></trkpt><trkpt lat="37.51057541494878" lon="15.042894483090171"><ele>137.0</ele><time>2026-03-27T16:42:02.999Z</time></trkpt><trkpt lat="37.51062436497241" lon="15.042819758819638"><ele>137.0</ele><time>2026-03-27T16:42:03.999Z</time></trkpt><trkpt lat="37.51067138958923" lon="15.042749268910288"><ele>137.0</ele><time>2026-03-27T16:42:04.999Z</time></trkpt><trkpt lat="37.5107207455271" lon="15.042677255260775"><ele>137.0</ele><time>2026-03-27T16:42:05.999Z</time></trkpt><trkpt lat="37.510768267151434" lon="15.042606428308664"><ele>137.0</ele><time>2026-03-27T16:42:06.999Z</time></trkpt><trkpt lat="37.51081244800315" lon="15.042537944737449"><ele>137.0</ele><time>2026-03-27T16:42:07.999Z</time></trkpt><trkpt lat="37.5108819286692" lon="15.042427049613666"><ele>137.0</ele><time>2026-03-27T16:42:09.999Z</time></trkpt><trkpt lat="37.51092211427715" lon="15.04236363820963"><ele>136.66666666666666</ele><time>2026-03-27T16:42:11.999Z</time></trkpt><trkpt lat="37.510963841050646" lon="15.042294450324903"><ele>136.33333333333331</ele><time>2026-03-27T16:42:15.999Z</time></trkpt><trkpt lat="37.51101711678884" lon="15.04221721116693"><ele>136.0</ele><time>2026-03-27T16:42:20.999Z</time></trkpt><trkpt lat="37.51107796274875" lon="15.042125751928376"><ele>135.66666666666666</ele><time>2026-03-27T16:42:22.999Z</time></trkpt><trkpt lat="37.511128710386735" lon="15.042047393909314"><ele>135.33333333333334</ele><time>2026-03-27T16:42:24.999Z</time></trkpt><trkpt lat="37.51118225729146" lon="15.041965849860333"><ele>135.0</ele><time>2026-03-27T16:42:27.999Z</time></trkpt><trkpt lat="37.511229411231" lon="15.041894507416396"><ele>135.16666666666666</ele><time>2026-03-27T16:42:29.999Z</time></trkpt><trkpt lat="37.51128897229047" lon="15.041807443341856"><ele>135.33333333333334</ele><time>2026-03-27T16:42:31.999Z</time></trkpt><trkpt lat="37.51133030726166" lon="15.041737140277363"><ele>135.5</ele><time>2026-03-27T16:42:32.999Z</time></trkpt><trkpt lat="37.51137238259262" lon="15.041660663018758"><ele>135.66666666666669</ele><time>2026-03-27T16:42:33.999Z</time></trkpt><trkpt lat="37.511414099996955" lon="15.041591713540114"><ele>135.83333333333334</ele><time>2026-03-27T16:42:34.999Z</time></trkpt><trkpt lat="37.511459475495286" lon="15.04152329757192"><ele>136.0</ele><time>2026-03-27T16:42:35.999Z</time></trkpt><trkpt lat="37.51150899905371" lon="15.041447735981409"><ele>136.16666666666669</ele><time>2026-03-27T16:42:36.999Z</time></trkpt><trkpt lat="37.51156155724401" lon="15.041365031110976"><ele>136.33333333333334</ele><time>2026-03-27T16:42:37.999Z</time></trkpt><trkpt lat="37.51160746883326" lon="15.041288238914957"><ele>136.5</ele><time>2026-03-27T16:42:38.999Z</time></trkpt><trkpt lat="37.51165501267585" lon="15.041203857131737"><ele>136.66666666666666</ele><time>2026-03-27T16:42:39.999Z</time></trkpt><trkpt lat="37.5116989021101" lon="15.041123166693135"><ele>136.83333333333331</ele><time>2026-03-27T16:42:40.999Z</time></trkpt><trkpt lat="37.51173611839286" lon="15.041049860084875"><ele>137.0</ele><time>2026-03-27T16:42:41.999Z</time></trkpt><trkpt lat="37.51176952154474" lon="15.040979890454986"><ele>137.0</ele><time>2026-03-27T16:42:42.999Z</time></trkpt><trkpt lat="37.511802011713705" lon="15.040905531325308"><ele>137.0</ele><time>2026-03-27T16:42:43.999Z</time></trkpt><trkpt lat="37.511859426343975" lon="15.040768840976627"><ele>137.0</ele><time>2026-03-27T16:42:46Z</time></trkpt><trkpt lat="37.51192035069758" lon="15.040636602397294"><ele>137.0</ele><time>2026-03-27T16:42:48Z</time></trkpt><trkpt lat="37.51197245354993" lon="15.040528209169189"><ele>137.0</ele><time>2026-03-27T16:42:50Z</time></trkpt><trkpt lat="37.512009213313455" lon="15.040453644413832"><ele>137.66666666666666</ele><time>2026-03-27T16:42:52Z</time></trkpt><trkpt lat="37.512050570330665" lon="15.040381160124225"><ele>138.33333333333331</ele><time>2026-03-27T16:42:55Z</time></trkpt><trkpt lat="37.51209818816234" lon="15.040312337322488"><ele>139.0</ele><time>2026-03-27T16:43:01Z</time></trkpt><trkpt lat="37.51214782286845" lon="15.040247187246637"><ele>139.66666666666666</ele><time>2026-03-27T16:43:03Z</time></trkpt><trkpt lat="37.51219734855866" lon="15.040186707182508"><ele>140.33333333333334</ele><time>2026-03-27T16:43:06Z</time></trkpt><trkpt lat="37.51224522432845" lon="15.040129263009513"><ele>141.0</ele><time>2026-03-27T16:43:13Z</time></trkpt><trkpt lat="37.51232611555885" lon="15.040047179576383"><ele>141.0</ele><time>2026-03-27T16:43:16Z</time></trkpt><trkpt lat="37.51241329731645" lon="15.040007909133132"><ele>141.0</ele><time>2026-03-27T16:43:18Z</time></trkpt><trkpt lat="37.512474902805366" lon="15.039985495159955"><ele>141.0</ele><time>2026-03-27T16:43:20Z</time></trkpt><trkpt lat="37.51255521186367" lon="15.039972117011507"><ele>141.0</ele><time>2026-03-27T16:43:23Z</time></trkpt><trkpt lat="37.5126539128329" lon="15.039991023425838"><ele>141.0</ele><time>2026-03-27T16:43:25Z</time></trkpt><trkpt lat="37.51273804475377" lon="15.039982912749357"><ele>141.0</ele><time>2026-03-27T16:43:27Z</time></trkpt><trkpt lat="37.51281140938541" lon="15.039967374065084"><ele>141.33333333333334</ele><time>2026-03-27T16:43:29Z</time></trkpt><trkpt lat="37.51289109196381" lon="15.039943970718628"><ele>141.66666666666666</ele><time>2026-03-27T16:43:31Z</time></trkpt><trkpt lat="37.512971821064625" lon="15.039893573649199"><ele>142.0</ele><time>2026-03-27T16:43:32.999Z</time></trkpt><trkpt lat="37.513015682223234" lon="15.03982301839377"><ele>142.33333333333331</ele><time>2026-03-27T16:43:34.999Z</time></trkpt><trkpt lat="37.51306638447129" lon="15.03973421072002"><ele>142.66666666666666</ele><time>2026-03-27T16:43:37.999Z</time></trkpt><trkpt lat="37.5131092780585" lon="15.039609009033388"><ele>143.0</ele><time>2026-03-27T16:43:40.999Z</time></trkpt><trkpt lat="37.5131286038371" lon="15.03947987534367"><ele>143.20000000000002</ele><time>2026-03-27T16:43:42.999Z</time></trkpt><trkpt lat="37.513125841531966" lon="15.039313656191919"><ele>143.4</ele><time>2026-03-27T16:43:44.999Z</time></trkpt><trkpt lat="37.51310625201288" lon="15.039225269997885"><ele>143.60000000000002</ele><time>2026-03-27T16:43:45.999Z</time></trkpt><trkpt lat="37.51308017609995" lon="15.03915079999182"><ele>143.8</ele><time>2026-03-27T16:43:46.999Z</time></trkpt><trkpt lat="37.51300459638125" lon="15.039027954691718"><ele>144.0</ele><time>2026-03-27T16:43:48.999Z</time></trkpt><trkpt lat="37.51295168858987" lon="15.038970609953155"><ele>143.66666666666666</ele><time>2026-03-27T16:43:49.999Z</time></trkpt><trkpt lat="37.512890366738844" lon="15.038921618017353"><ele>143.33333333333334</ele><time>2026-03-27T16:43:50.999Z</time></trkpt><trkpt lat="37.51282273896887" lon="15.0388685687407"><ele>143.0</ele><time>2026-03-27T16:43:51.999Z</time></trkpt><trkpt lat="37.51275142499344" lon="15.03880993631911"><ele>142.66666666666669</ele><time>2026-03-27T16:43:52.999Z</time></trkpt><trkpt lat="37.51268940352325" lon="15.038740766072603"><ele>142.33333333333334</ele><time>2026-03-27T16:43:53.999Z</time></trkpt><trkpt lat="37.51263260956911" lon="15.038647671761316"><ele>142.0</ele><time>2026-03-27T16:43:54.999Z</time></trkpt><trkpt lat="37.512577771249795" lon="15.038546291499467"><ele>142.0</ele><time>2026-03-27T16:43:55.999Z</time></trkpt><trkpt lat="37.512538666709204" lon="15.0384519913301"><ele>142.0</ele><time>2026-03-27T16:43:56.999Z</time></trkpt><trkpt lat="37.51250144781615" lon="15.038366607736567"><ele>142.0</ele><time>2026-03-27T16:43:57.999Z</time></trkpt><trkpt lat="37.51246964269542" lon="15.038287164001693"><ele>142.0</ele><time>2026-03-27T16:43:58.999Z</time></trkpt><trkpt lat="37.51244057231256" lon="15.038213420011575"><ele>142.0</ele><time>2026-03-27T16:43:59.999Z</time></trkpt><trkpt lat="37.51241277313813" lon="15.038139915732634"><ele>142.0</ele><time>2026-03-27T16:44:00.999Z</time></trkpt><trkpt lat="37.51238258018956" lon="15.038061122145463"><ele>142.0</ele><time>2026-03-27T16:44:01.999Z</time></trkpt><trkpt lat="37.51234826056433" lon="15.037973634658755"><ele>142.16666666666669</ele><time>2026-03-27T16:44:02.999Z</time></trkpt><trkpt lat="37.51231200776893" lon="15.037882336668861"><ele>142.33333333333334</ele><time>2026-03-27T16:44:03.999Z</time></trkpt><trkpt lat="37.51227337292438" lon="15.03778543622563"><ele>142.5</ele><time>2026-03-27T16:44:04.999Z</time></trkpt><trkpt lat="37.512234369724446" lon="15.037683942727117"><ele>142.66666666666666</ele><time>2026-03-27T16:44:05.999Z</time></trkpt><trkpt lat="37.51219160036738" lon="15.037575121082476"><ele>142.83333333333331</ele><time>2026-03-27T16:44:06.999Z</time></trkpt><trkpt lat="37.51214898221599" lon="15.03747076973891"><ele>143.0</ele><time>2026-03-27T16:44:07.999Z</time></trkpt><trkpt lat="37.51210305308844" lon="15.037359800468208"><ele>144.4</ele><time>2026-03-27T16:44:08.999Z</time></trkpt><trkpt lat="37.51205391765247" lon="15.037240663553064"><ele>145.8</ele><time>2026-03-27T16:44:09.999Z</time></trkpt><trkpt lat="37.512002719014205" lon="15.037119170965"><ele>147.2</ele><time>2026-03-27T16:44:10.999Z</time></trkpt><trkpt lat="37.511951387138126" lon="15.036994475398972"><ele>148.6</ele><time>2026-03-27T16:44:11.999Z</time></trkpt><trkpt lat="37.51189814437615" lon="15.036864189962952"><ele>150.0</ele><time>2026-03-27T16:44:12.999Z</time></trkpt><trkpt lat="37.511842666279655" lon="15.036736469121339"><ele>149.8</ele><time>2026-03-27T16:44:13.999Z</time></trkpt><trkpt lat="37.51179008727837" lon="15.036617529152085"><ele>149.6</ele><time>2026-03-27T16:44:14.999Z</time></trkpt><trkpt lat="37.51173545378947" lon="15.036499805340211"><ele>149.4</ele><time>2026-03-27T16:44:15.999Z</time></trkpt><trkpt lat="37.5116839467134" lon="15.036383274758629"><ele>149.2</ele><time>2026-03-27T16:44:16.999Z</time></trkpt><trkpt lat="37.51163339704438" lon="15.036266747627664"><ele>149.0</ele><time>2026-03-27T16:44:17.999Z</time></trkpt><trkpt lat="37.51159256945549" lon="15.036163840982583"><ele>149.0</ele><time>2026-03-27T16:44:18.999Z</time></trkpt><trkpt lat="37.51156124013124" lon="15.036079420888205"><ele>149.0</ele><time>2026-03-27T16:44:19.999Z</time></trkpt><trkpt lat="37.51152706467521" lon="15.035994913655147"><ele>149.0</ele><time>2026-03-27T16:44:20.999Z</time></trkpt><trkpt lat="37.51148485562753" lon="15.035902097448602"><ele>149.0</ele><time>2026-03-27T16:44:21.999Z</time></trkpt><trkpt lat="37.511442392598646" lon="15.035802285834"><ele>149.0</ele><time>2026-03-27T16:44:22.999Z</time></trkpt><trkpt lat="37.51139414757347" lon="15.035695950258035"><ele>149.0</ele><time>2026-03-27T16:44:23.999Z</time></trkpt><trkpt lat="37.51134947863638" lon="15.035593087280967"><ele>149.2</ele><time>2026-03-27T16:44:24.999Z</time></trkpt><trkpt lat="37.51130630052107" lon="15.035497897041479"><ele>149.4</ele><time>2026-03-27T16:44:25.999Z</time></trkpt><trkpt lat="37.51126081699791" lon="15.035400204812083"><ele>149.6</ele><time>2026-03-27T16:44:26.999Z</time></trkpt><trkpt lat="37.511213903874015" lon="15.035294878192095"><ele>149.8</ele><time>2026-03-27T16:44:27.999Z</time></trkpt><trkpt lat="37.51116455038359" lon="15.035188330352828"><ele>150.0</ele><time>2026-03-27T16:44:28.999Z</time></trkpt><trkpt lat="37.511108205353985" lon="15.03507143594609"><ele>149.8</ele><time>2026-03-27T16:44:29.999Z</time></trkpt><trkpt lat="37.51104778440716" lon="15.03494919252958"><ele>149.6</ele><time>2026-03-27T16:44:30.999Z</time></trkpt><trkpt lat="37.510991377839765" lon="15.034833829067955"><ele>149.4</ele><time>2026-03-27T16:44:31.999Z</time></trkpt><trkpt lat="37.510933975872234" lon="15.034720206542785"><ele>149.2</ele><time>2026-03-27T16:44:32.999Z</time></trkpt><trkpt lat="37.510871734247225" lon="15.034604348404917"><ele>149.0</ele><time>2026-03-27T16:44:33.999Z</time></trkpt><trkpt lat="37.51080697766911" lon="15.034477666870458"><ele>149.0</ele><time>2026-03-27T16:44:34.999Z</time></trkpt><trkpt lat="37.510739248652854" lon="15.03433907999498"><ele>149.0</ele><time>2026-03-27T16:44:35.999Z</time></trkpt><trkpt lat="37.51067084298625" lon="15.034191472697438"><ele>149.0</ele><time>2026-03-27T16:44:36.999Z</time></trkpt><trkpt lat="37.51060555004747" lon="15.034033440921487"><ele>149.0</ele><time>2026-03-27T16:44:37.999Z</time></trkpt><trkpt lat="37.510550100362224" lon="15.033877107333982"><ele>149.5</ele><time>2026-03-27T16:44:38.999Z</time></trkpt><trkpt lat="37.51050028843084" lon="15.033726322695069"><ele>150.0</ele><time>2026-03-27T16:44:39.999Z</time></trkpt><trkpt lat="37.5104602217029" lon="15.033583639940119"><ele>150.5</ele><time>2026-03-27T16:44:40.999Z</time></trkpt><trkpt lat="37.51042345947027" lon="15.033446541419549"><ele>151.0</ele><time>2026-03-27T16:44:41.999Z</time></trkpt><trkpt lat="37.51039860678499" lon="15.033331963724232"><ele>150.83333333333334</ele><time>2026-03-27T16:44:42.999Z</time></trkpt><trkpt lat="37.5103755872322" lon="15.033224735782605"><ele>150.66666666666669</ele><time>2026-03-27T16:44:43.999Z</time></trkpt><trkpt lat="37.51035463441186" lon="15.033128319388771"><ele>150.5</ele><time>2026-03-27T16:44:44.999Z</time></trkpt><trkpt lat="37.51033221211149" lon="15.033028317998212"><ele>150.33333333333334</ele><time>2026-03-27T16:44:45.999Z</time></trkpt><trkpt lat="37.510305337612024" lon="15.03291884186506"><ele>150.16666666666666</ele><time>2026-03-27T16:44:46.999Z</time></trkpt><trkpt lat="37.510279437808606" lon="15.032799763649589"><ele>150.0</ele><time>2026-03-27T16:44:47.999Z</time></trkpt><trkpt lat="37.51025187992372" lon="15.03267122422586"><ele>150.0</ele><time>2026-03-27T16:44:48.999Z</time></trkpt><trkpt lat="37.51022412064502" lon="15.032547895628332"><ele>150.0</ele><time>2026-03-27T16:44:49.999Z</time></trkpt><trkpt lat="37.51019402823813" lon="15.032431551913392"><ele>150.0</ele><time>2026-03-27T16:44:51Z</time></trkpt><trkpt lat="37.5101637711889" lon="15.032300750318639"><ele>150.0</ele><time>2026-03-27T16:44:52Z</time></trkpt><trkpt lat="37.510136945873" lon="15.032155406720866"><ele>150.0</ele><time>2026-03-27T16:44:53Z</time></trkpt><trkpt lat="37.51010902256102" lon="15.031999995421478"><ele>150.0</ele><time>2026-03-27T16:44:54Z</time></trkpt><trkpt lat="37.51007945947154" lon="15.031841133593833"><ele>150.0</ele><time>2026-03-27T16:44:55Z</time></trkpt><trkpt lat="37.51005281338794" lon="15.03167853131116"><ele>150.0</ele><time>2026-03-27T16:44:56Z</time></trkpt><trkpt lat="37.51002359875435" lon="15.031508090920763"><ele>150.0</ele><time>2026-03-27T16:44:57Z</time></trkpt><trkpt lat="37.50999343136535" lon="15.03133460220609"><ele>150.0</ele><time>2026-03-27T16:44:58Z</time></trkpt><trkpt lat="37.509965242490864" lon="15.031167047651117"><ele>150.0</ele><time>2026-03-27T16:44:59Z</time></trkpt><trkpt lat="37.509943077240216" lon="15.031008476010411"><ele>150.0</ele><time>2026-03-27T16:45:00Z</time></trkpt><trkpt lat="37.50992363517507" lon="15.030859102133803"><ele>150.0</ele><time>2026-03-27T16:45:01Z</time></trkpt><trkpt lat="37.50990629789774" lon="15.03072573419704"><ele>150.8</ele><time>2026-03-27T16:45:02Z</time></trkpt><trkpt lat="37.50989548889262" lon="15.03062300017109"><ele>151.6</ele><time>2026-03-27T16:45:03Z</time></trkpt><trkpt lat="37.509882856387286" lon="15.03048830512848"><ele>152.4</ele><time>2026-03-27T16:45:05Z</time></trkpt><trkpt lat="37.50987568640609" lon="15.030383860675972"><ele>153.2</ele><time>2026-03-27T16:45:07Z</time></trkpt><trkpt lat="37.509868487397775" lon="15.030280192350428"><ele>154.0</ele><time>2026-03-27T16:45:09Z</time></trkpt><trkpt lat="37.509858554462845" lon="15.030129508323899"><ele>154.0</ele><time>2026-03-27T16:45:11Z</time></trkpt><trkpt lat="37.509855967243205" lon="15.030048621274574"><ele>154.0</ele><time>2026-03-27T16:45:12Z</time></trkpt><trkpt lat="37.50985745102914" lon="15.029922567899469"><ele>154.0</ele><time>2026-03-27T16:45:14Z</time></trkpt><trkpt lat="37.50986405458878" lon="15.029822236784897"><ele>154.0</ele><time>2026-03-27T16:45:16Z</time></trkpt><trkpt lat="37.509873736682515" lon="15.029720259132938"><ele>154.0</ele><time>2026-03-27T16:45:18Z</time></trkpt><trkpt lat="37.50988996681866" lon="15.029577186481557"><ele>154.0</ele><time>2026-03-27T16:45:20Z</time></trkpt><trkpt lat="37.509900508770286" lon="15.029495851070191"><ele>153.83333333333334</ele><time>2026-03-27T16:45:21Z</time></trkpt><trkpt lat="37.50991459464623" lon="15.029355075477108"><ele>153.66666666666669</ele><time>2026-03-27T16:45:23Z</time></trkpt><trkpt lat="37.50992339004377" lon="15.029260878387454"><ele>153.5</ele><time>2026-03-27T16:45:24Z</time></trkpt><trkpt lat="37.50993003884788" lon="15.029179794676581"><ele>153.33333333333334</ele><time>2026-03-27T16:45:25Z</time></trkpt><trkpt lat="37.50994243802743" lon="15.029042660537117"><ele>153.16666666666666</ele><time>2026-03-27T16:45:27Z</time></trkpt><trkpt lat="37.50995781566582" lon="15.02893489295209"><ele>153.0</ele><time>2026-03-27T16:45:29Z</time></trkpt><trkpt lat="37.50998178875531" lon="15.028825904838031"><ele>153.0</ele><time>2026-03-27T16:45:31.999Z</time></trkpt><trkpt lat="37.51000390919428" lon="15.028721616784729"><ele>153.0</ele><time>2026-03-27T16:45:33.999Z</time></trkpt><trkpt lat="37.51001351776821" lon="15.028640341134322"><ele>153.0</ele><time>2026-03-27T16:45:34.999Z</time></trkpt><trkpt lat="37.5100256579561" lon="15.028503678386317"><ele>153.0</ele><time>2026-03-27T16:45:36.999Z</time></trkpt><trkpt lat="37.510039714308235" lon="15.02833890323485"><ele>153.0</ele><time>2026-03-27T16:45:38.999Z</time></trkpt><trkpt lat="37.51005943123418" lon="15.028236099742024"><ele>153.66666666666666</ele><time>2026-03-27T16:45:39.999Z</time></trkpt><trkpt lat="37.510081404242484" lon="15.028130475068277"><ele>154.33333333333334</ele><time>2026-03-27T16:45:40.999Z</time></trkpt><trkpt lat="37.510109179895714" lon="15.028023497827446"><ele>155.0</ele><time>2026-03-27T16:45:41.999Z</time></trkpt><trkpt lat="37.510135787257546" lon="15.027929032930535"><ele>155.66666666666669</ele><time>2026-03-27T16:45:42.999Z</time></trkpt><trkpt lat="37.5101757446867" lon="15.027797137120443"><ele>156.33333333333334</ele><time>2026-03-27T16:45:44.999Z</time></trkpt><trkpt lat="37.51020695112605" lon="15.027708366832195"><ele>157.0</ele><time>2026-03-27T16:45:46.999Z</time></trkpt><trkpt lat="37.51023919374266" lon="15.02761025968651"><ele>157.0</ele><time>2026-03-27T16:45:48.999Z</time></trkpt><trkpt lat="37.51027432570258" lon="15.0275024918571"><ele>157.0</ele><time>2026-03-27T16:45:50.999Z</time></trkpt><trkpt lat="37.510310211486406" lon="15.027391094934961"><ele>157.0</ele><time>2026-03-27T16:45:52.999Z</time></trkpt><trkpt lat="37.51035673595847" lon="15.027241711075087"><ele>157.0</ele><time>2026-03-27T16:45:54.999Z</time></trkpt><trkpt lat="37.51035968130997" lon="15.027151000303263"><ele>157.0</ele><time>2026-03-27T16:45:55.999Z</time></trkpt><trkpt lat="37.51041122588001" lon="15.02704629784784"><ele>156.25</ele><time>2026-03-27T16:45:56.999Z</time></trkpt><trkpt lat="37.51044961645578" lon="15.026917658962564"><ele>155.5</ele><time>2026-03-27T16:45:57.999Z</time></trkpt><trkpt lat="37.51049191237752" lon="15.026771409100741"><ele>154.75</ele><time>2026-03-27T16:45:58.999Z</time></trkpt><trkpt lat="37.510536849424014" lon="15.026610295267865"><ele>154.0</ele><time>2026-03-27T16:45:59.999Z</time></trkpt><trkpt lat="37.510581132198126" lon="15.026432978336585"><ele>154.0</ele><time>2026-03-27T16:46:00.999Z</time></trkpt><trkpt lat="37.510623672886624" lon="15.026244928760008"><ele>154.0</ele><time>2026-03-27T16:46:01.999Z</time></trkpt><trkpt lat="37.51066312401962" lon="15.026045728681792"><ele>154.0</ele><time>2026-03-27T16:46:02.999Z</time></trkpt><trkpt lat="37.510696942740694" lon="15.025838859722667"><ele>154.0</ele><time>2026-03-27T16:46:03.999Z</time></trkpt><trkpt lat="37.510727957660094" lon="15.025628371291267"><ele>154.0</ele><time>2026-03-27T16:46:04.999Z</time></trkpt><trkpt lat="37.510758291040055" lon="15.025419845760181"><ele>154.0</ele><time>2026-03-27T16:46:05.999Z</time></trkpt><trkpt lat="37.51078311198949" lon="15.025228691033284"><ele>154.0</ele><time>2026-03-27T16:46:06.999Z</time></trkpt><trkpt lat="37.510804730366466" lon="15.025054171327449"><ele>154.0</ele><time>2026-03-27T16:46:07.999Z</time></trkpt><trkpt lat="37.51081886504164" lon="15.024892268195664"><ele>154.0</ele><time>2026-03-27T16:46:08.999Z</time></trkpt><trkpt lat="37.51082754520728" lon="15.024738303506886"><ele>154.0</ele><time>2026-03-27T16:46:09.999Z</time></trkpt><trkpt lat="37.51083239598066" lon="15.02459528170236"><ele>154.0</ele><time>2026-03-27T16:46:10.999Z</time></trkpt><trkpt lat="37.51083601936816" lon="15.024453796757058"><ele>154.0</ele><time>2026-03-27T16:46:11.999Z</time></trkpt><trkpt lat="37.510836703521" lon="15.024306510557219"><ele>154.0</ele><time>2026-03-27T16:46:12.999Z</time></trkpt><trkpt lat="37.510836519334426" lon="15.024154566564837"><ele>154.0</ele><time>2026-03-27T16:46:13.999Z</time></trkpt><trkpt lat="37.51083595514135" lon="15.023997062431938"><ele>154.0</ele><time>2026-03-27T16:46:14.999Z</time></trkpt><trkpt lat="37.51083611362091" lon="15.023833457090374"><ele>154.0</ele><time>2026-03-27T16:46:15.999Z</time></trkpt><trkpt lat="37.51083691736242" lon="15.02367409525258"><ele>154.0</ele><time>2026-03-27T16:46:16.999Z</time></trkpt><trkpt lat="37.51083785599804" lon="15.023525026594212"><ele>154.0</ele><time>2026-03-27T16:46:17.999Z</time></trkpt><trkpt lat="37.51083855728239" lon="15.023387794937703"><ele>154.4</ele><time>2026-03-27T16:46:18.999Z</time></trkpt><trkpt lat="37.51083886896274" lon="15.023262824562604"><ele>154.8</ele><time>2026-03-27T16:46:19.999Z</time></trkpt><trkpt lat="37.51083846213021" lon="15.02314123751487"><ele>155.2</ele><time>2026-03-27T16:46:20.999Z</time></trkpt><trkpt lat="37.51083911579844" lon="15.023012484033222"><ele>155.6</ele><time>2026-03-27T16:46:21.999Z</time></trkpt><trkpt lat="37.51084039224463" lon="15.02287607969092"><ele>156.0</ele><time>2026-03-27T16:46:22.999Z</time></trkpt><trkpt lat="37.51084340634524" lon="15.02273180609288"><ele>156.0</ele><time>2026-03-27T16:46:23.999Z</time></trkpt><trkpt lat="37.51084784229344" lon="15.022584014641367"><ele>156.0</ele><time>2026-03-27T16:46:24.999Z</time></trkpt><trkpt lat="37.51085514993322" lon="15.022428237453132"><ele>156.0</ele><time>2026-03-27T16:46:25.999Z</time></trkpt><trkpt lat="37.51086522407697" lon="15.02226597185184"><ele>156.0</ele><time>2026-03-27T16:46:26.999Z</time></trkpt><trkpt lat="37.51087860406477" lon="15.022095971892007"><ele>155.75</ele><time>2026-03-27T16:46:27.999Z</time></trkpt><trkpt lat="37.510892623155534" lon="15.021924755668932"><ele>155.5</ele><time>2026-03-27T16:46:28.999Z</time></trkpt><trkpt lat="37.5109089068631" lon="15.021750373347484"><ele>155.25</ele><time>2026-03-27T16:46:29.999Z</time></trkpt><trkpt lat="37.510930056217525" lon="15.02157505863082"><ele>155.0</ele><time>2026-03-27T16:46:30.999Z</time></trkpt><trkpt lat="37.51095235004298" lon="15.021401262472889"><ele>156.0</ele><time>2026-03-27T16:46:31.999Z</time></trkpt><trkpt lat="37.51097680806331" lon="15.021232033986633"><ele>157.0</ele><time>2026-03-27T16:46:32.999Z</time></trkpt><trkpt lat="37.511002253666206" lon="15.021065900737998"><ele>158.0</ele><time>2026-03-27T16:46:33.999Z</time></trkpt><trkpt lat="37.51102876265427" lon="15.020898348126849"><ele>159.0</ele><time>2026-03-27T16:46:34.999Z</time></trkpt><trkpt lat="37.511056848038415" lon="15.020727290732589"><ele>159.0</ele><time>2026-03-27T16:46:35.999Z</time></trkpt><trkpt lat="37.51108660883203" lon="15.02055371247973"><ele>159.0</ele><time>2026-03-27T16:46:36.999Z</time></trkpt><trkpt lat="37.51111758072252" lon="15.02037735133569"><ele>159.0</ele><time>2026-03-27T16:46:37.999Z</time></trkpt><trkpt lat="37.51114984033919" lon="15.020197439505385"><ele>159.0</ele><time>2026-03-27T16:46:38.999Z</time></trkpt><trkpt lat="37.51118368409281" lon="15.02001155656402"><ele>159.66666666666666</ele><time>2026-03-27T16:46:39.999Z</time></trkpt><trkpt lat="37.51122395588718" lon="15.019822500001558"><ele>160.33333333333331</ele><time>2026-03-27T16:46:40.999Z</time></trkpt><trkpt lat="37.511270313328865" lon="15.019629492322274"><ele>161.0</ele><time>2026-03-27T16:46:41.999Z</time></trkpt><trkpt lat="37.511325269773664" lon="15.019433098261734"><ele>160.66666666666666</ele><time>2026-03-27T16:46:42.999Z</time></trkpt><trkpt lat="37.51138796480737" lon="15.019234828356733"><ele>160.33333333333334</ele><time>2026-03-27T16:46:43.999Z</time></trkpt><trkpt lat="37.5114503664897" lon="15.01902951915835"><ele>160.0</ele><time>2026-03-27T16:46:44.999Z</time></trkpt><trkpt lat="37.51151272605971" lon="15.018822067185086"><ele>160.0</ele><time>2026-03-27T16:46:45.999Z</time></trkpt><trkpt lat="37.51157084367963" lon="15.018631549400617"><ele>160.0</ele><time>2026-03-27T16:46:46.999Z</time></trkpt><trkpt lat="37.51163258990551" lon="15.01843774696416"><ele>160.0</ele><time>2026-03-27T16:46:47.999Z</time></trkpt><trkpt lat="37.511692393972965" lon="15.018253142716782"><ele>160.33333333333334</ele><time>2026-03-27T16:46:48.999Z</time></trkpt><trkpt lat="37.51175171779752" lon="15.018078918086013"><ele>160.66666666666666</ele><time>2026-03-27T16:46:49.999Z</time></trkpt><trkpt lat="37.51180836631502" lon="15.017903542284854"><ele>161.0</ele><time>2026-03-27T16:46:50.999Z</time></trkpt><trkpt lat="37.51186562183099" lon="15.01772550528019"><ele>161.0</ele><time>2026-03-27T16:46:51.999Z</time></trkpt><trkpt lat="37.51191906977565" lon="15.017544967703904"><ele>161.0</ele><time>2026-03-27T16:46:52.998Z</time></trkpt><trkpt lat="37.511970181584665" lon="15.017362177458317"><ele>161.0</ele><time>2026-03-27T16:46:53.998Z</time></trkpt><trkpt lat="37.51202045393375" lon="15.017182879874028"><ele>161.0</ele><time>2026-03-27T16:46:54.998Z</time></trkpt><trkpt lat="37.51206853339447" lon="15.017012282981796"><ele>161.0</ele><time>2026-03-27T16:46:55.998Z</time></trkpt><trkpt lat="37.51211677430029" lon="15.01684857258802"><ele>161.0</ele><time>2026-03-27T16:46:57Z</time></trkpt><trkpt lat="37.51216588975802" lon="15.01668562367536"><ele>161.0</ele><time>2026-03-27T16:46:58Z</time></trkpt><trkpt lat="37.51221660921229" lon="15.016530866154202"><ele>161.0</ele><time>2026-03-27T16:46:59Z</time></trkpt><trkpt lat="37.5122676706951" lon="15.016375040948311"><ele>161.0</ele><time>2026-03-27T16:47:00Z</time></trkpt><trkpt lat="37.51232336947193" lon="15.016218449605976"><ele>161.0</ele><time>2026-03-27T16:47:01Z</time></trkpt><trkpt lat="37.51238122205533" lon="15.016067742994434"><ele>161.0</ele><time>2026-03-27T16:47:02Z</time></trkpt><trkpt lat="37.51243944469439" lon="15.015924192854218"><ele>161.0</ele><time>2026-03-27T16:47:03Z</time></trkpt><trkpt lat="37.512504472873474" lon="15.015778827533664"><ele>161.0</ele><time>2026-03-27T16:47:04Z</time></trkpt><trkpt lat="37.51257400968533" lon="15.015625527883683"><ele>161.0</ele><time>2026-03-27T16:47:05Z</time></trkpt><trkpt lat="37.51264727574771" lon="15.01546384445598"><ele>161.0</ele><time>2026-03-27T16:47:06Z</time></trkpt><trkpt lat="37.512726265403174" lon="15.01529774174494"><ele>161.0</ele><time>2026-03-27T16:47:07Z</time></trkpt><trkpt lat="37.51280740515431" lon="15.015127616692567"><ele>161.0</ele><time>2026-03-27T16:47:08Z</time></trkpt><trkpt lat="37.51288922279463" lon="15.014957944196523"><ele>161.0</ele><time>2026-03-27T16:47:09Z</time></trkpt><trkpt lat="37.512967091785846" lon="15.0147956447543"><ele>161.5</ele><time>2026-03-27T16:47:10Z</time></trkpt><trkpt lat="37.51303975920855" lon="15.014639050203547"><ele>162.0</ele><time>2026-03-27T16:47:11Z</time></trkpt><trkpt lat="37.513111208539975" lon="15.014485278781219"><ele>162.5</ele><time>2026-03-27T16:47:12Z</time></trkpt><trkpt lat="37.51318093680319" lon="15.014328639777352"><ele>163.0</ele><time>2026-03-27T16:47:13Z</time></trkpt><trkpt lat="37.51324477494712" lon="15.01417053076263"><ele>162.75</ele><time>2026-03-27T16:47:14Z</time></trkpt><trkpt lat="37.513304930715705" lon="15.014019776738635"><ele>162.5</ele><time>2026-03-27T16:47:15Z</time></trkpt><trkpt lat="37.51336228326231" lon="15.013869211213695"><ele>162.25</ele><time>2026-03-27T16:47:16Z</time></trkpt><trkpt lat="37.51341813155415" lon="15.013713374730829"><ele>162.0</ele><time>2026-03-27T16:47:17Z</time></trkpt><trkpt lat="37.5134718916618" lon="15.013553199527271"><ele>162.0</ele><time>2026-03-27T16:47:18Z</time></trkpt><trkpt lat="37.51351911887811" lon="15.013395391957113"><ele>162.0</ele><time>2026-03-27T16:47:19Z</time></trkpt><trkpt lat="37.513558967288766" lon="15.013250564016616"><ele>162.0</ele><time>2026-03-27T16:47:20Z</time></trkpt><trkpt lat="37.513591580006405" lon="15.013120537554322"><ele>162.0</ele><time>2026-03-27T16:47:21Z</time></trkpt><trkpt lat="37.51361561883938" lon="15.01300833611133"><ele>162.5</ele><time>2026-03-27T16:47:22Z</time></trkpt><trkpt lat="37.51363487132843" lon="15.012911618275401"><ele>163.0</ele><time>2026-03-27T16:47:23Z</time></trkpt><trkpt lat="37.51365801876005" lon="15.012774222994757"><ele>163.5</ele><time>2026-03-27T16:47:25Z</time></trkpt><trkpt lat="37.513666988292535" lon="15.012688876205438"><ele>164.0</ele><time>2026-03-27T16:47:28Z</time></trkpt><trkpt lat="37.513687911947024" lon="15.012599678443038"><ele>164.5</ele><time>2026-03-27T16:47:31Z</time></trkpt><trkpt lat="37.51371179397107" lon="15.012494461639069"><ele>165.0</ele><time>2026-03-27T16:47:33Z</time></trkpt><trkpt lat="37.513723637861304" lon="15.012358846953884"><ele>165.0</ele><time>2026-03-27T16:47:35Z</time></trkpt><trkpt lat="37.51373583987665" lon="15.01223575022951"><ele>165.0</ele><time>2026-03-27T16:47:37Z</time></trkpt><trkpt lat="37.51374249592588" lon="15.012128974480133"><ele>165.0</ele><time>2026-03-27T16:47:39Z</time></trkpt><trkpt lat="37.51374819716845" lon="15.012008156679979"><ele>165.0</ele><time>2026-03-27T16:47:40.999Z</time></trkpt><trkpt lat="37.513747102362665" lon="15.011897558192619"><ele>165.0</ele><time>2026-03-27T16:47:42.999Z</time></trkpt><trkpt lat="37.513747894353095" lon="15.011756843706655"><ele>165.16666666666666</ele><time>2026-03-27T16:47:44.999Z</time></trkpt><trkpt lat="37.51374236569223" lon="15.011638611535226"><ele>165.33333333333334</ele><time>2026-03-27T16:47:46.999Z</time></trkpt><trkpt lat="37.513735196143244" lon="15.011512129035648"><ele>165.5</ele><time>2026-03-27T16:47:48.999Z</time></trkpt><trkpt lat="37.51373043203332" lon="15.011424414812858"><ele>165.66666666666669</ele><time>2026-03-27T16:47:50.999Z</time></trkpt><trkpt lat="37.51372247709396" lon="15.011320285996728"><ele>165.83333333333334</ele><time>2026-03-27T16:47:54.999Z</time></trkpt><trkpt lat="37.513715047399145" lon="15.011206375800569"><ele>166.0</ele><time>2026-03-27T16:47:57.999Z</time></trkpt><trkpt lat="37.513709542864035" lon="15.011120240096758"><ele>166.33333333333334</ele><time>2026-03-27T16:47:59.999Z</time></trkpt><trkpt lat="37.5137050427947" lon="15.0110255543933"><ele>166.66666666666669</ele><time>2026-03-27T16:48:01.999Z</time></trkpt><trkpt lat="37.51370190565342" lon="15.010937771722318"><ele>167.0</ele><time>2026-03-27T16:48:03.999Z</time></trkpt><trkpt lat="37.51369723688851" lon="15.010840122024941"><ele>167.33333333333334</ele><time>2026-03-27T16:48:05.999Z</time></trkpt><trkpt lat="37.51368954221804" lon="15.010737312244473"><ele>167.66666666666666</ele><time>2026-03-27T16:48:07.999Z</time></trkpt><trkpt lat="37.51368583780518" lon="15.01062702486275"><ele>168.0</ele><time>2026-03-27T16:48:09.999Z</time></trkpt><trkpt lat="37.51367593184972" lon="15.01048767898501"><ele>169.0</ele><time>2026-03-27T16:48:11.999Z</time></trkpt><trkpt lat="37.5136691257013" lon="15.010408246193016"><ele>170.0</ele><time>2026-03-27T16:48:12.999Z</time></trkpt><trkpt lat="37.51366457632624" lon="15.010324419880508"><ele>171.0</ele><time>2026-03-27T16:48:13.999Z</time></trkpt><trkpt lat="37.513664463405355" lon="15.01019515555662"><ele>172.0</ele><time>2026-03-27T16:48:15.999Z</time></trkpt><trkpt lat="37.51367460471045" lon="15.010079365818623"><ele>173.0</ele><time>2026-03-27T16:48:17.999Z</time></trkpt><trkpt lat="37.51366921442713" lon="15.009918036590514"><ele>173.0</ele><time>2026-03-27T16:48:19.999Z</time></trkpt><trkpt lat="37.51366360436154" lon="15.009785441485556"><ele>173.0</ele><time>2026-03-27T16:48:21.999Z</time></trkpt><trkpt lat="37.51364932356901" lon="15.009622914590487"><ele>173.0</ele><time>2026-03-27T16:48:23.999Z</time></trkpt><trkpt lat="37.51364696255853" lon="15.009527990305594"><ele>173.0</ele><time>2026-03-27T16:48:24.999Z</time></trkpt><trkpt lat="37.513639672207354" lon="15.00939665121362"><ele>173.0</ele><time>2026-03-27T16:48:26.999Z</time></trkpt><trkpt lat="37.513635592308994" lon="15.00929799445469"><ele>173.0</ele><time>2026-03-27T16:48:29.999Z</time></trkpt><trkpt lat="37.51363181687328" lon="15.009188185668467"><ele>173.0</ele><time>2026-03-27T16:48:32.999Z</time></trkpt><trkpt lat="37.51362742527561" lon="15.009079368222661"><ele>173.0</ele><time>2026-03-27T16:48:35.999Z</time></trkpt><trkpt lat="37.513621745178085" lon="15.008968548923425"><ele>173.0</ele><time>2026-03-27T16:48:38.999Z</time></trkpt><trkpt lat="37.513616484679986" lon="15.008848574046407"><ele>173.0</ele><time>2026-03-27T16:48:41.999Z</time></trkpt><trkpt lat="37.51361203611258" lon="15.008762857857311"><ele>173.0</ele><time>2026-03-27T16:48:43.999Z</time></trkpt><trkpt lat="37.51360879456265" lon="15.00868328974393"><ele>174.5</ele><time>2026-03-27T16:48:45.999Z</time></trkpt><trkpt lat="37.51360704508235" lon="15.008589769427427"><ele>176.0</ele><time>2026-03-27T16:48:47.999Z</time></trkpt><trkpt lat="37.51360402435862" lon="15.008487807949958"><ele>177.5</ele><time>2026-03-27T16:48:49.999Z</time></trkpt><trkpt lat="37.51360071101016" lon="15.008405952328632"><ele>179.0</ele><time>2026-03-27T16:48:51.999Z</time></trkpt><trkpt lat="37.513595421912825" lon="15.008318167301601"><ele>180.5</ele><time>2026-03-27T16:48:53.999Z</time></trkpt><trkpt lat="37.513587962225934" lon="15.008187697822532"><ele>182.0</ele><time>2026-03-27T16:48:55.999Z</time></trkpt><trkpt lat="37.51359358347852" lon="15.008029912313276"><ele>182.83333333333331</ele><time>2026-03-27T16:48:57.999Z</time></trkpt><trkpt lat="37.51359122765473" lon="15.007943245060371"><ele>183.66666666666666</ele><time>2026-03-27T16:48:58.999Z</time></trkpt><trkpt lat="37.51359592500138" lon="15.007843561415282"><ele>184.5</ele><time>2026-03-27T16:48:59.999Z</time></trkpt><trkpt lat="37.51360367129296" lon="15.007756517401171"><ele>185.33333333333334</ele><time>2026-03-27T16:49:00.999Z</time></trkpt><trkpt lat="37.513611632441474" lon="15.007616065463008"><ele>186.16666666666669</ele><time>2026-03-27T16:49:03Z</time></trkpt><trkpt lat="37.513620592013744" lon="15.00753232608126"><ele>187.0</ele><time>2026-03-27T16:49:04Z</time></trkpt><trkpt lat="37.51363561322272" lon="15.007434923495932"><ele>187.16666666666669</ele><time>2026-03-27T16:49:05Z</time></trkpt><trkpt lat="37.51365333437448" lon="15.007316903859554"><ele>187.33333333333334</ele><time>2026-03-27T16:49:07Z</time></trkpt><trkpt lat="37.51366451623295" lon="15.007231376622574"><ele>187.5</ele><time>2026-03-27T16:49:10Z</time></trkpt><trkpt lat="37.51367611720978" lon="15.007125786998577"><ele>187.66666666666666</ele><time>2026-03-27T16:49:13Z</time></trkpt><trkpt lat="37.51368924662842" lon="15.007030502586016"><ele>187.83333333333331</ele><time>2026-03-27T16:49:15Z</time></trkpt><trkpt lat="37.513720221953804" lon="15.006912587620374"><ele>188.0</ele><time>2026-03-27T16:49:18Z</time></trkpt><trkpt lat="37.51375652133947" lon="15.006808266896101"><ele>190.4</ele><time>2026-03-27T16:49:20Z</time></trkpt><trkpt lat="37.51379279811016" lon="15.006691253375495"><ele>192.8</ele><time>2026-03-27T16:49:22Z</time></trkpt><trkpt lat="37.513844907552404" lon="15.006539804136455"><ele>195.2</ele><time>2026-03-27T16:49:24Z</time></trkpt><trkpt lat="37.51388524817496" lon="15.006450826293413"><ele>197.6</ele><time>2026-03-27T16:49:25Z</time></trkpt><trkpt lat="37.51393038057581" lon="15.00635077110871"><ele>200.0</ele><time>2026-03-27T16:49:26Z</time></trkpt><trkpt lat="37.513981720671985" lon="15.006243788943484"><ele>200.2</ele><time>2026-03-27T16:49:27Z</time></trkpt><trkpt lat="37.51403714739982" lon="15.006132639722125"><ele>200.4</ele><time>2026-03-27T16:49:28Z</time></trkpt><trkpt lat="37.51409797984861" lon="15.00601821358772"><ele>200.60000000000002</ele><time>2026-03-27T16:49:29Z</time></trkpt><trkpt lat="37.514167025363236" lon="15.005903580286642"><ele>200.8</ele><time>2026-03-27T16:49:30Z</time></trkpt><trkpt lat="37.51424265345489" lon="15.005789067474645"><ele>201.0</ele><time>2026-03-27T16:49:31Z</time></trkpt><trkpt lat="37.514326591534775" lon="15.005671557846549"><ele>202.5</ele><time>2026-03-27T16:49:32Z</time></trkpt><trkpt lat="37.51441499344493" lon="15.00555284922293"><ele>204.0</ele><time>2026-03-27T16:49:33Z</time></trkpt><trkpt lat="37.514515350664084" lon="15.005432750934922"><ele>205.5</ele><time>2026-03-27T16:49:34Z</time></trkpt><trkpt lat="37.514623096006304" lon="15.005312031661568"><ele>207.0</ele><time>2026-03-27T16:49:35Z</time></trkpt><trkpt lat="37.51473945637765" lon="15.005187479885672"><ele>207.0</ele><time>2026-03-27T16:49:36Z</time></trkpt><trkpt lat="37.514862953145794" lon="15.005062406110698"><ele>207.0</ele><time>2026-03-27T16:49:37Z</time></trkpt><trkpt lat="37.51498956235765" lon="15.004934817260002"><ele>207.0</ele><time>2026-03-27T16:49:38Z</time></trkpt><trkpt lat="37.515117823464266" lon="15.004804883847937"><ele>207.66666666666669</ele><time>2026-03-27T16:49:39Z</time></trkpt><trkpt lat="37.515244844843686" lon="15.004675845001984"><ele>208.33333333333334</ele><time>2026-03-27T16:49:40Z</time></trkpt><trkpt lat="37.51537182730481" lon="15.004548385467425"><ele>209.0</ele><time>2026-03-27T16:49:41Z</time></trkpt><trkpt lat="37.51549832235176" lon="15.004419865290792"><ele>209.0</ele><time>2026-03-27T16:49:42Z</time></trkpt><trkpt lat="37.51562326074999" lon="15.004291479069952"><ele>209.0</ele><time>2026-03-27T16:49:43Z</time></trkpt><trkpt lat="37.51575209667555" lon="15.004162762861975"><ele>209.0</ele><time>2026-03-27T16:49:44Z</time></trkpt><trkpt lat="37.51587874053287" lon="15.00403919619144"><ele>207.66666666666669</ele><time>2026-03-27T16:49:45Z</time></trkpt><trkpt lat="37.5160035499209" lon="15.003914411217195"><ele>206.33333333333331</ele><time>2026-03-27T16:49:46Z</time></trkpt><trkpt lat="37.51613053065959" lon="15.003785483168228"><ele>205.0</ele><time>2026-03-27T16:49:46.999Z</time></trkpt><trkpt lat="37.516266613359804" lon="15.003652611256918"><ele>206.66666666666666</ele><time>2026-03-27T16:49:47.999Z</time></trkpt><trkpt lat="37.51640775708679" lon="15.003517840292458"><ele>208.33333333333331</ele><time>2026-03-27T16:49:48.999Z</time></trkpt><trkpt lat="37.51655582099542" lon="15.003370420392837"><ele>210.0</ele><time>2026-03-27T16:49:49.999Z</time></trkpt><trkpt lat="37.516703820816325" lon="15.003215237781621"><ele>210.0</ele><time>2026-03-27T16:49:50.999Z</time></trkpt><trkpt lat="37.51685413840864" lon="15.003060071868468"><ele>210.0</ele><time>2026-03-27T16:49:51.999Z</time></trkpt><trkpt lat="37.51700817600573" lon="15.002904559271455"><ele>210.0</ele><time>2026-03-27T16:49:52.999Z</time></trkpt><trkpt lat="37.51716348886215" lon="15.002745723481086"><ele>211.66666666666669</ele><time>2026-03-27T16:49:53.999Z</time></trkpt><trkpt lat="37.51731140302097" lon="15.002593857242777"><ele>213.33333333333334</ele><time>2026-03-27T16:49:54.999Z</time></trkpt><trkpt lat="37.517455602106345" lon="15.002444536157956"><ele>215.0</ele><time>2026-03-27T16:49:55.999Z</time></trkpt><trkpt lat="37.51759513515785" lon="15.002297734850973"><ele>215.0</ele><time>2026-03-27T16:49:56.999Z</time></trkpt><trkpt lat="37.51773395446384" lon="15.002146521700805"><ele>215.0</ele><time>2026-03-27T16:49:57.999Z</time></trkpt><trkpt lat="37.51786882212213" lon="15.002000687282573"><ele>215.0</ele><time>2026-03-27T16:49:58.999Z</time></trkpt><trkpt lat="37.51800010228075" lon="15.001855661885921"><ele>217.66666666666669</ele><time>2026-03-27T16:49:59.999Z</time></trkpt><trkpt lat="37.518114894797186" lon="15.001717354572994"><ele>220.33333333333331</ele><time>2026-03-27T16:50:00.999Z</time></trkpt><trkpt lat="37.518231427757016" lon="15.001568568969402"><ele>223.0</ele><time>2026-03-27T16:50:01.999Z</time></trkpt><trkpt lat="37.5183484413595" lon="15.001408588448582"><ele>223.0</ele><time>2026-03-27T16:50:02.999Z</time></trkpt><trkpt lat="37.518463347945506" lon="15.001233624352354"><ele>223.0</ele><time>2026-03-27T16:50:03.999Z</time></trkpt><trkpt lat="37.51857695718754" lon="15.001045515620902"><ele>223.0</ele><time>2026-03-27T16:50:04.999Z</time></trkpt><trkpt lat="37.51868729235903" lon="15.000842700534596"><ele>229.0</ele><time>2026-03-27T16:50:05.999Z</time></trkpt><trkpt lat="37.51879605689055" lon="15.000630938227964"><ele>235.0</ele><time>2026-03-27T16:50:06.999Z</time></trkpt><trkpt lat="37.51890581171908" lon="15.000416628912845"><ele>241.0</ele><time>2026-03-27T16:50:07.999Z</time></trkpt><trkpt lat="37.51901138521957" lon="15.000194330177761"><ele>241.0</ele><time>2026-03-27T16:50:08.999Z</time></trkpt><trkpt lat="37.519113672416836" lon="14.999967147371871"><ele>241.0</ele><time>2026-03-27T16:50:09.999Z</time></trkpt><trkpt lat="37.51921480082761" lon="14.999734473962986"><ele>241.0</ele><time>2026-03-27T16:50:10.999Z</time></trkpt><trkpt lat="37.51931939871553" lon="14.999500901589087"><ele>241.0</ele><time>2026-03-27T16:50:11.999Z</time></trkpt><trkpt lat="37.519422759094475" lon="14.99927111008153"><ele>241.0</ele><time>2026-03-27T16:50:12.999Z</time></trkpt><trkpt lat="37.51953302553709" lon="14.999036228378568"><ele>241.0</ele><time>2026-03-27T16:50:13.999Z</time></trkpt><trkpt lat="37.5196530767654" lon="14.99880435133102"><ele>242.66666666666666</ele><time>2026-03-27T16:50:14.999Z</time></trkpt><trkpt lat="37.51978067745434" lon="14.998577900105223"><ele>244.33333333333331</ele><time>2026-03-27T16:50:15.999Z</time></trkpt><trkpt lat="37.519915089019094" lon="14.998362042913987"><ele>246.0</ele><time>2026-03-27T16:50:16.999Z</time></trkpt><trkpt lat="37.5200566887979" lon="14.998154539696138"><ele>246.0</ele><time>2026-03-27T16:50:17.999Z</time></trkpt><trkpt lat="37.52021109884192" lon="14.997960304324055"><ele>246.0</ele><time>2026-03-27T16:50:18.999Z</time></trkpt><trkpt lat="37.520379558951255" lon="14.997779375592382"><ele>246.0</ele><time>2026-03-27T16:50:19.999Z</time></trkpt><trkpt lat="37.520561560480246" lon="14.997609006140875"><ele>246.5</ele><time>2026-03-27T16:50:20.999Z</time></trkpt><trkpt lat="37.52075114559177" lon="14.997449832802367"><ele>247.0</ele><time>2026-03-27T16:50:21.999Z</time></trkpt><trkpt lat="37.520945766329" lon="14.99730546168859"><ele>247.0</ele><time>2026-03-27T16:50:22.999Z</time></trkpt><trkpt lat="37.52114249407534" lon="14.997176588838597"><ele>247.0</ele><time>2026-03-27T16:50:23.999Z</time></trkpt><trkpt lat="37.5213429041513" lon="14.997054696085645"><ele>247.0</ele><time>2026-03-27T16:50:24.999Z</time></trkpt><trkpt lat="37.52154436243394" lon="14.996932788795075"><ele>247.0</ele><time>2026-03-27T16:50:25.999Z</time></trkpt><trkpt lat="37.521746984157296" lon="14.996817969438123"><ele>247.0</ele><time>2026-03-27T16:50:26.999Z</time></trkpt><trkpt lat="37.52194984707483" lon="14.996700338979634"><ele>247.0</ele><time>2026-03-27T16:50:27.999Z</time></trkpt><trkpt lat="37.52215340627705" lon="14.99658151304409"><ele>248.5</ele><time>2026-03-27T16:50:28.999Z</time></trkpt><trkpt lat="37.522357039204195" lon="14.996464689604554"><ele>250.0</ele><time>2026-03-27T16:50:29.999Z</time></trkpt><trkpt lat="37.52256239200347" lon="14.996345555346728"><ele>250.0</ele><time>2026-03-27T16:50:30.999Z</time></trkpt><trkpt lat="37.522771405223885" lon="14.996227176603941"><ele>250.0</ele><time>2026-03-27T16:50:31.999Z</time></trkpt><trkpt lat="37.522978685783706" lon="14.996112190239536"><ele>250.66666666666666</ele><time>2026-03-27T16:50:32.999Z</time></trkpt><trkpt lat="37.52318326590132" lon="14.99599478558237"><ele>251.33333333333331</ele><time>2026-03-27T16:50:33.999Z</time></trkpt><trkpt lat="37.523380990312795" lon="14.99588732579734"><ele>252.0</ele><time>2026-03-27T16:50:34.999Z</time></trkpt><trkpt lat="37.52356689825437" lon="14.995800094650983"><ele>252.33333333333331</ele><time>2026-03-27T16:50:35.999Z</time></trkpt><trkpt lat="37.52375184449801" lon="14.995718376119955"><ele>252.66666666666666</ele><time>2026-03-27T16:50:36.999Z</time></trkpt><trkpt lat="37.52392545959189" lon="14.995642804082198"><ele>253.0</ele><time>2026-03-27T16:50:37.999Z</time></trkpt><trkpt lat="37.52408913828093" lon="14.995570336767761"><ele>253.0</ele><time>2026-03-27T16:50:38.999Z</time></trkpt><trkpt lat="37.5242441131071" lon="14.995502769858186"><ele>253.0</ele><time>2026-03-27T16:50:39.999Z</time></trkpt><trkpt lat="37.524390576942" lon="14.99543958754288"><ele>253.0</ele><time>2026-03-27T16:50:40.999Z</time></trkpt><trkpt lat="37.524529797074514" lon="14.995379328063185"><ele>253.5</ele><time>2026-03-27T16:50:41.999Z</time></trkpt><trkpt lat="37.52466223225036" lon="14.995322431570225"><ele>254.0</ele><time>2026-03-27T16:50:42.999Z</time></trkpt><trkpt lat="37.52478835771448" lon="14.995268431235468"><ele>254.5</ele><time>2026-03-27T16:50:43.999Z</time></trkpt><trkpt lat="37.52491471071911" lon="14.995215325393504"><ele>255.0</ele><time>2026-03-27T16:50:44.999Z</time></trkpt><trkpt lat="37.52503160955482" lon="14.995164381790316"><ele>255.0</ele><time>2026-03-27T16:50:45.999Z</time></trkpt><trkpt lat="37.52514486486293" lon="14.99511779237899"><ele>255.0</ele><time>2026-03-27T16:50:46.999Z</time></trkpt><trkpt lat="37.52526543275224" lon="14.995070079907569"><ele>255.0</ele><time>2026-03-27T16:50:47.999Z</time></trkpt><trkpt lat="37.525388924051605" lon="14.995023141795818"><ele>255.0</ele><time>2026-03-27T16:50:48.999Z</time></trkpt><trkpt lat="37.52551523175761" lon="14.99497144027417"><ele>255.25</ele><time>2026-03-27T16:50:49.999Z</time></trkpt><trkpt lat="37.525643614423934" lon="14.994916773544022"><ele>255.5</ele><time>2026-03-27T16:50:50.999Z</time></trkpt><trkpt lat="37.525776962015854" lon="14.994860041933558"><ele>255.75</ele><time>2026-03-27T16:50:51.999Z</time></trkpt><trkpt lat="37.5259155256576" lon="14.994798900483586"><ele>256.0</ele><time>2026-03-27T16:50:52.999Z</time></trkpt><trkpt lat="37.52605545578285" lon="14.994733964042068"><ele>256.0</ele><time>2026-03-27T16:50:53.999Z</time></trkpt><trkpt lat="37.526196392529506" lon="14.994660709350944"><ele>256.0</ele><time>2026-03-27T16:50:54.999Z</time></trkpt><trkpt lat="37.5263378941133" lon="14.994579173268939"><ele>256.0</ele><time>2026-03-27T16:50:55.999Z</time></trkpt><trkpt lat="37.52647893984206" lon="14.994494977929154"><ele>255.66666666666666</ele><time>2026-03-27T16:50:56.999Z</time></trkpt><trkpt lat="37.52662205721551" lon="14.994414150679821"><ele>255.33333333333331</ele><time>2026-03-27T16:50:57.999Z</time></trkpt><trkpt lat="37.52676525214294" lon="14.994328636737755"><ele>255.0</ele><time>2026-03-27T16:50:58.999Z</time></trkpt><trkpt lat="37.52690700959386" lon="14.994232688100363"><ele>254.33333333333331</ele><time>2026-03-27T16:50:59.999Z</time></trkpt><trkpt lat="37.52704660758373" lon="14.99412740045687"><ele>253.66666666666666</ele><time>2026-03-27T16:51:00.999Z</time></trkpt><trkpt lat="37.527186056026615" lon="14.994018058508606"><ele>253.0</ele><time>2026-03-27T16:51:01.999Z</time></trkpt><trkpt lat="37.52732314083856" lon="14.993908481915598"><ele>253.0</ele><time>2026-03-27T16:51:02.999Z</time></trkpt><trkpt lat="37.52745497371467" lon="14.99379563726389"><ele>253.0</ele><time>2026-03-27T16:51:03.999Z</time></trkpt><trkpt lat="37.52758303363916" lon="14.993675628965896"><ele>253.0</ele><time>2026-03-27T16:51:04.999Z</time></trkpt><trkpt lat="37.52771031258267" lon="14.993553001460358"><ele>253.0</ele><time>2026-03-27T16:51:05.999Z</time></trkpt><trkpt lat="37.52783666188536" lon="14.993429107604046"><ele>253.0</ele><time>2026-03-27T16:51:06.999Z</time></trkpt><trkpt lat="37.5279633854575" lon="14.9933013607694"><ele>253.0</ele><time>2026-03-27T16:51:07.999Z</time></trkpt><trkpt lat="37.52809112320775" lon="14.99316497620937"><ele>253.33333333333331</ele><time>2026-03-27T16:51:09Z</time></trkpt><trkpt lat="37.52822227939641" lon="14.993031910754272"><ele>253.66666666666669</ele><time>2026-03-27T16:51:10Z</time></trkpt><trkpt lat="37.52835516000465" lon="14.992891913496264"><ele>254.0</ele><time>2026-03-27T16:51:11Z</time></trkpt><trkpt lat="37.52849523832666" lon="14.99274387099977"><ele>254.0</ele><time>2026-03-27T16:51:12Z</time></trkpt><trkpt lat="37.52864068581729" lon="14.992587524358653"><ele>254.0</ele><time>2026-03-27T16:51:13Z</time></trkpt><trkpt lat="37.52879392273536" lon="14.992427856833032"><ele>254.0</ele><time>2026-03-27T16:51:14Z</time></trkpt><trkpt lat="37.528950663125805" lon="14.992260716535553"><ele>253.66666666666669</ele><time>2026-03-27T16:51:15Z</time></trkpt><trkpt lat="37.529111188792825" lon="14.992085877052354"><ele>253.33333333333331</ele><time>2026-03-27T16:51:16Z</time></trkpt><trkpt lat="37.52926864495506" lon="14.991919104905321"><ele>253.0</ele><time>2026-03-27T16:51:17Z</time></trkpt><trkpt lat="37.529426235052135" lon="14.99175967493231"><ele>252.66666666666666</ele><time>2026-03-27T16:51:18Z</time></trkpt><trkpt lat="37.529580174340204" lon="14.991598570392679"><ele>252.33333333333331</ele><time>2026-03-27T16:51:19Z</time></trkpt><trkpt lat="37.5297275647855" lon="14.991444017455933"><ele>252.0</ele><time>2026-03-27T16:51:20Z</time></trkpt><trkpt lat="37.52986754642613" lon="14.991295262989116"><ele>252.0</ele><time>2026-03-27T16:51:21Z</time></trkpt><trkpt lat="37.530005329809434" lon="14.991146710883632"><ele>252.0</ele><time>2026-03-27T16:51:22Z</time></trkpt><trkpt lat="37.530140803305436" lon="14.991001082557306"><ele>252.0</ele><time>2026-03-27T16:51:23Z</time></trkpt><trkpt lat="37.53027606075076" lon="14.9908504146159"><ele>251.0</ele><time>2026-03-27T16:51:24Z</time></trkpt><trkpt lat="37.530410267575995" lon="14.990692387001085"><ele>250.0</ele><time>2026-03-27T16:51:25Z</time></trkpt><trkpt lat="37.53055395042027" lon="14.990532846524486"><ele>249.0</ele><time>2026-03-27T16:51:26Z</time></trkpt><trkpt lat="37.530709563803896" lon="14.990367182133342"><ele>249.0</ele><time>2026-03-27T16:51:27Z</time></trkpt><trkpt lat="37.53087044636011" lon="14.990196704100667"><ele>249.0</ele><time>2026-03-27T16:51:28Z</time></trkpt><trkpt lat="37.53103361537805" lon="14.990024614948625"><ele>249.0</ele><time>2026-03-27T16:51:29Z</time></trkpt><trkpt lat="37.53119847270393" lon="14.989852958380048"><ele>249.33333333333331</ele><time>2026-03-27T16:51:30Z</time></trkpt><trkpt lat="37.531364726045275" lon="14.989683231521528"><ele>249.66666666666666</ele><time>2026-03-27T16:51:31Z</time></trkpt><trkpt lat="37.53153364180823" lon="14.989506455808796"><ele>250.0</ele><time>2026-03-27T16:51:32Z</time></trkpt><trkpt lat="37.531706352451316" lon="14.989325073484155"><ele>251.0</ele><time>2026-03-27T16:51:33Z</time></trkpt><trkpt lat="37.53187955442637" lon="14.989141483599246"><ele>252.0</ele><time>2026-03-27T16:51:34Z</time></trkpt><trkpt lat="37.53204995451938" lon="14.988956680438168"><ele>251.66666666666669</ele><time>2026-03-27T16:51:35Z</time></trkpt><trkpt lat="37.53221790874718" lon="14.9887744962114"><ele>251.33333333333334</ele><time>2026-03-27T16:51:36Z</time></trkpt><trkpt lat="37.53238543134344" lon="14.988596082957029"><ele>251.0</ele><time>2026-03-27T16:51:37Z</time></trkpt><trkpt lat="37.53255325373575" lon="14.988417524090028"><ele>251.66666666666669</ele><time>2026-03-27T16:51:38Z</time></trkpt><trkpt lat="37.53271248662627" lon="14.988238014311337"><ele>252.33333333333331</ele><time>2026-03-27T16:51:39Z</time></trkpt><trkpt lat="37.53286348492387" lon="14.988051255111579"><ele>253.0</ele><time>2026-03-27T16:51:40Z</time></trkpt><trkpt lat="37.5330068888428" lon="14.987858882764685"><ele>253.33333333333331</ele><time>2026-03-27T16:51:41Z</time></trkpt><trkpt lat="37.53313662073599" lon="14.987675487658013"><ele>253.66666666666669</ele><time>2026-03-27T16:51:42Z</time></trkpt><trkpt lat="37.533264836511265" lon="14.98748696998228"><ele>254.0</ele><time>2026-03-27T16:51:43Z</time></trkpt><trkpt lat="37.53339546478719" lon="14.987286015809767"><ele>254.33333333333334</ele><time>2026-03-27T16:51:44Z</time></trkpt><trkpt lat="37.53352582312355" lon="14.987078031008128"><ele>254.66666666666669</ele><time>2026-03-27T16:51:45Z</time></trkpt><trkpt lat="37.53365388348604" lon="14.986858872204127"><ele>255.0</ele><time>2026-03-27T16:51:46Z</time></trkpt><trkpt lat="37.53377737821117" lon="14.986638362069721"><ele>254.33333333333331</ele><time>2026-03-27T16:51:47Z</time></trkpt><trkpt lat="37.53389731774535" lon="14.9864177671653"><ele>253.66666666666666</ele><time>2026-03-27T16:51:48Z</time></trkpt><trkpt lat="37.53401301709161" lon="14.986196969407784"><ele>253.0</ele><time>2026-03-27T16:51:49Z</time></trkpt><trkpt lat="37.53411841142742" lon="14.985982636569851"><ele>253.66666666666666</ele><time>2026-03-27T16:51:50Z</time></trkpt><trkpt lat="37.534211780215905" lon="14.985780689062963"><ele>254.33333333333331</ele><time>2026-03-27T16:51:51Z</time></trkpt><trkpt lat="37.53429761484923" lon="14.98558498180993"><ele>255.0</ele><time>2026-03-27T16:51:52Z</time></trkpt><trkpt lat="37.53437617911869" lon="14.985398908258242"><ele>255.0</ele><time>2026-03-27T16:51:53Z</time></trkpt><trkpt lat="37.534449111461534" lon="14.985218812164504"><ele>255.0</ele><time>2026-03-27T16:51:53.999Z</time></trkpt><trkpt lat="37.534518943126415" lon="14.985040300606123"><ele>255.0</ele><time>2026-03-27T16:51:54.999Z</time></trkpt><trkpt lat="37.53458862013781" lon="14.984860068395276"><ele>255.0</ele><time>2026-03-27T16:51:55.999Z</time></trkpt><trkpt lat="37.53466024941067" lon="14.984674406584658"><ele>255.0</ele><time>2026-03-27T16:51:56.999Z</time></trkpt><trkpt lat="37.53473669535199" lon="14.984482019597067"><ele>255.0</ele><time>2026-03-27T16:51:57.999Z</time></trkpt><trkpt lat="37.53481317415937" lon="14.984289301859992"><ele>255.33333333333331</ele><time>2026-03-27T16:51:58.999Z</time></trkpt><trkpt lat="37.53488763738446" lon="14.984101137354138"><ele>255.66666666666666</ele><time>2026-03-27T16:51:59.999Z</time></trkpt><trkpt lat="37.534961631712676" lon="14.983912681880092"><ele>256.0</ele><time>2026-03-27T16:52:00.999Z</time></trkpt><trkpt lat="37.53503420656447" lon="14.983727403450862"><ele>256.0</ele><time>2026-03-27T16:52:01.999Z</time></trkpt><trkpt lat="37.535105068682405" lon="14.98354340068794"><ele>256.0</ele><time>2026-03-27T16:52:02.999Z</time></trkpt><trkpt lat="37.53517388541066" lon="14.98336456792001"><ele>256.0</ele><time>2026-03-27T16:52:03.999Z</time></trkpt><trkpt lat="37.53524205002285" lon="14.983192204909717"><ele>256.3333333333333</ele><time>2026-03-27T16:52:04.999Z</time></trkpt><trkpt lat="37.53531020006234" lon="14.983015854889064"><ele>256.6666666666667</ele><time>2026-03-27T16:52:05.999Z</time></trkpt><trkpt lat="37.535380120072524" lon="14.982841321349769"><ele>257.0</ele><time>2026-03-27T16:52:06.999Z</time></trkpt><trkpt lat="37.535447654578526" lon="14.98267465934742"><ele>257.0</ele><time>2026-03-27T16:52:07.999Z</time></trkpt><trkpt lat="37.53551281854156" lon="14.982514970651296"><ele>257.0</ele><time>2026-03-27T16:52:08.999Z</time></trkpt><trkpt lat="37.53557624388497" lon="14.982359627874727"><ele>257.0</ele><time>2026-03-27T16:52:09.999Z</time></trkpt><trkpt lat="37.535639884191504" lon="14.982204144480669"><ele>257.0</ele><time>2026-03-27T16:52:10.999Z</time></trkpt><trkpt lat="37.53570173155165" lon="14.982052131231214"><ele>256.75</ele><time>2026-03-27T16:52:11.999Z</time></trkpt><trkpt lat="37.53576385878958" lon="14.981900847456632"><ele>256.5</ele><time>2026-03-27T16:52:12.999Z</time></trkpt><trkpt lat="37.53582149665744" lon="14.981749528638316"><ele>256.25</ele><time>2026-03-27T16:52:13.999Z</time></trkpt><trkpt lat="37.5358823348571" lon="14.98159658730301"><ele>256.0</ele><time>2026-03-27T16:52:14.999Z</time></trkpt><trkpt lat="37.53594409214375" lon="14.981438912079373"><ele>255.75</ele><time>2026-03-27T16:52:15.999Z</time></trkpt><trkpt lat="37.53600302658381" lon="14.98129252809258"><ele>255.5</ele><time>2026-03-27T16:52:16.999Z</time></trkpt><trkpt lat="37.53606024466488" lon="14.981151820748599"><ele>255.25</ele><time>2026-03-27T16:52:17.999Z</time></trkpt><trkpt lat="37.53611290955822" lon="14.98101661999596"><ele>255.0</ele><time>2026-03-27T16:52:18.999Z</time></trkpt><trkpt lat="37.5361610561322" lon="14.980882015017041"><ele>255.0</ele><time>2026-03-27T16:52:19.999Z</time></trkpt><trkpt lat="37.536211096550495" lon="14.9807410861475"><ele>255.0</ele><time>2026-03-27T16:52:20.999Z</time></trkpt><trkpt lat="37.536265758806714" lon="14.980596041161203"><ele>255.0</ele><time>2026-03-27T16:52:21.999Z</time></trkpt><trkpt lat="37.53631883442436" lon="14.980445576635255"><ele>255.0</ele><time>2026-03-27T16:52:22.999Z</time></trkpt><trkpt lat="37.5363700664705" lon="14.980290449705212"><ele>255.25</ele><time>2026-03-27T16:52:23.999Z</time></trkpt><trkpt lat="37.53642179179533" lon="14.980128692481331"><ele>255.5</ele><time>2026-03-27T16:52:24.999Z</time></trkpt><trkpt lat="37.536472698193165" lon="14.979959568778822"><ele>255.75</ele><time>2026-03-27T16:52:25.999Z</time></trkpt><trkpt lat="37.53651969694627" lon="14.97980012025912"><ele>256.0</ele><time>2026-03-27T16:52:26.999Z</time></trkpt><trkpt lat="37.53656647151101" lon="14.97964257569648"><ele>256.25</ele><time>2026-03-27T16:52:27.999Z</time></trkpt><trkpt lat="37.53660683237111" lon="14.979485941585558"><ele>256.5</ele><time>2026-03-27T16:52:28.999Z</time></trkpt><trkpt lat="37.536645786002005" lon="14.979328245509715"><ele>256.75</ele><time>2026-03-27T16:52:29.999Z</time></trkpt><trkpt lat="37.53668164156041" lon="14.979169609979836"><ele>257.0</ele><time>2026-03-27T16:52:30.999Z</time></trkpt><trkpt lat="37.536716970339405" lon="14.979004292937288"><ele>257.0</ele><time>2026-03-27T16:52:31.999Z</time></trkpt><trkpt lat="37.536750498286416" lon="14.978831035581246"><ele>257.0</ele><time>2026-03-27T16:52:32.999Z</time></trkpt><trkpt lat="37.53678154926837" lon="14.978654627601518"><ele>257.0</ele><time>2026-03-27T16:52:33.999Z</time></trkpt><trkpt lat="37.53681150796497" lon="14.978472109628518"><ele>257.0</ele><time>2026-03-27T16:52:34.999Z</time></trkpt><trkpt lat="37.53684216746382" lon="14.978290666976187"><ele>257.0</ele><time>2026-03-27T16:52:35.999Z</time></trkpt><trkpt lat="37.536871900733445" lon="14.978103775855047"><ele>257.0</ele><time>2026-03-27T16:52:36.999Z</time></trkpt><trkpt lat="37.53689950928968" lon="14.977923750322521"><ele>257.0</ele><time>2026-03-27T16:52:37.999Z</time></trkpt><trkpt lat="37.536925716879615" lon="14.977747249586354"><ele>257.0</ele><time>2026-03-27T16:52:38.999Z</time></trkpt><trkpt lat="37.53695161465508" lon="14.977574962476847"><ele>256.25</ele><time>2026-03-27T16:52:39.999Z</time></trkpt><trkpt lat="37.536976281116715" lon="14.977406966268"><ele>255.5</ele><time>2026-03-27T16:52:40.999Z</time></trkpt><trkpt lat="37.537001172581775" lon="14.977240571715832"><ele>254.75</ele><time>2026-03-27T16:52:41.999Z</time></trkpt><trkpt lat="37.53702601254272" lon="14.977070602804128"><ele>254.0</ele><time>2026-03-27T16:52:42.999Z</time></trkpt><trkpt lat="37.53705201541552" lon="14.97689680173001"><ele>254.25</ele><time>2026-03-27T16:52:43.999Z</time></trkpt><trkpt lat="37.53707755929074" lon="14.976720002915235"><ele>254.5</ele><time>2026-03-27T16:52:44.999Z</time></trkpt><trkpt lat="37.53710710540753" lon="14.97653867354001"><ele>254.75</ele><time>2026-03-27T16:52:45.999Z</time></trkpt><trkpt lat="37.53714365854914" lon="14.97635587521476"><ele>255.0</ele><time>2026-03-27T16:52:46.999Z</time></trkpt><trkpt lat="37.537183114580564" lon="14.976162592079671"><ele>255.33333333333331</ele><time>2026-03-27T16:52:47.999Z</time></trkpt><trkpt lat="37.53722064528969" lon="14.975960072661433"><ele>255.66666666666666</ele><time>2026-03-27T16:52:48.999Z</time></trkpt><trkpt lat="37.537254416573546" lon="14.975750162650733"><ele>256.0</ele><time>2026-03-27T16:52:49.999Z</time></trkpt><trkpt lat="37.53728643882907" lon="14.975529453729918"><ele>256.0</ele><time>2026-03-27T16:52:50.999Z</time></trkpt><trkpt lat="37.53732087024144" lon="14.975300842693075"><ele>256.0</ele><time>2026-03-27T16:52:51.999Z</time></trkpt><trkpt lat="37.53735875864881" lon="14.975068702977776"><ele>256.0</ele><time>2026-03-27T16:52:52.999Z</time></trkpt><trkpt lat="37.537398425624176" lon="14.974835131121258"><ele>256.0</ele><time>2026-03-27T16:52:53.999Z</time></trkpt><trkpt lat="37.5374390628216" lon="14.974602308587617"><ele>256.0</ele><time>2026-03-27T16:52:54.999Z</time></trkpt><trkpt lat="37.537479711994955" lon="14.97437538897409"><ele>256.0</ele><time>2026-03-27T16:52:55.999Z</time></trkpt><trkpt lat="37.53751982794409" lon="14.974151954067803"><ele>256.0</ele><time>2026-03-27T16:52:56.999Z</time></trkpt><trkpt lat="37.53755727223923" lon="14.973932684258015"><ele>256.0</ele><time>2026-03-27T16:52:57.999Z</time></trkpt><trkpt lat="37.537593209232455" lon="14.973712994257518"><ele>256.0</ele><time>2026-03-27T16:52:58.999Z</time></trkpt><trkpt lat="37.537625071216674" lon="14.973497947570044"><ele>256.0</ele><time>2026-03-27T16:52:59.999Z</time></trkpt><trkpt lat="37.53765531247674" lon="14.973291731596854"><ele>256.0</ele><time>2026-03-27T16:53:00.999Z</time></trkpt><trkpt lat="37.53768306869391" lon="14.973101623852001"><ele>256.0</ele><time>2026-03-27T16:53:01.999Z</time></trkpt><trkpt lat="37.537705133659564" lon="14.972934944943479"><ele>256.0</ele><time>2026-03-27T16:53:02.999Z</time></trkpt><trkpt lat="37.53771434160937" lon="14.97278673016479"><ele>256.0</ele><time>2026-03-27T16:53:03.999Z</time></trkpt><trkpt lat="37.537694629350014" lon="14.972650720769492"><ele>256.0</ele><time>2026-03-27T16:53:04.999Z</time></trkpt><trkpt lat="37.53765082478058" lon="14.972517689882721"><ele>256.0</ele><time>2026-03-27T16:53:05.999Z</time></trkpt><trkpt lat="37.53758504832261" lon="14.97240554933349"><ele>255.75</ele><time>2026-03-27T16:53:06.999Z</time></trkpt><trkpt lat="37.53749780926271" lon="14.972324482369359"><ele>255.5</ele><time>2026-03-27T16:53:07.999Z</time></trkpt><trkpt lat="37.53738934104096" lon="14.972255628102747"><ele>255.25</ele><time>2026-03-27T16:53:08.999Z</time></trkpt><trkpt lat="37.53726410193508" lon="14.972202536490698"><ele>255.0</ele><time>2026-03-27T16:53:09.999Z</time></trkpt><trkpt lat="37.53712815163646" lon="14.972167809684363"><ele>254.75</ele><time>2026-03-27T16:53:10.999Z</time></trkpt><trkpt lat="37.536994375576946" lon="14.972159813899971"><ele>254.5</ele><time>2026-03-27T16:53:11.999Z</time></trkpt><trkpt lat="37.53687646802653" lon="14.972184746035827"><ele>254.25</ele><time>2026-03-27T16:53:12.999Z</time></trkpt><trkpt lat="37.53678322063483" lon="14.972247684723824"><ele>254.0</ele><time>2026-03-27T16:53:13.999Z</time></trkpt><trkpt lat="37.53669400481231" lon="14.972324224354383"><ele>254.0</ele><time>2026-03-27T16:53:15Z</time></trkpt><trkpt lat="37.53662891456189" lon="14.972470806871733"><ele>254.0</ele><time>2026-03-27T16:53:16Z</time></trkpt><trkpt lat="37.53657699056255" lon="14.972619199468822"><ele>254.0</ele><time>2026-03-27T16:53:17Z</time></trkpt><trkpt lat="37.53655765909442" lon="14.972773102087213"><ele>254.0</ele><time>2026-03-27T16:53:18Z</time></trkpt><trkpt lat="37.53657247119993" lon="14.972919636883717"><ele>254.25</ele><time>2026-03-27T16:53:19Z</time></trkpt><trkpt lat="37.536612531546275" lon="14.973072095413976"><ele>254.5</ele><time>2026-03-27T16:53:20Z</time></trkpt><trkpt lat="37.536682489773476" lon="14.973219127706706"><ele>254.75</ele><time>2026-03-27T16:53:21Z</time></trkpt><trkpt lat="37.536773606872416" lon="14.973362864388884"><ele>255.0</ele><time>2026-03-27T16:53:22Z</time></trkpt><trkpt lat="37.536879188670746" lon="14.973510433225648"><ele>255.33333333333331</ele><time>2026-03-27T16:53:23Z</time></trkpt><trkpt lat="37.53699713764721" lon="14.973663763858093"><ele>255.66666666666666</ele><time>2026-03-27T16:53:24Z</time></trkpt><trkpt lat="37.53712196009671" lon="14.973827642076209"><ele>256.0</ele><time>2026-03-27T16:53:25Z</time></trkpt><trkpt lat="37.53725344314925" lon="14.974001595148703"><ele>256.0</ele><time>2026-03-27T16:53:26Z</time></trkpt><trkpt lat="37.53738969678796" lon="14.974176697831266"><ele>256.0</ele><time>2026-03-27T16:53:27Z</time></trkpt><trkpt lat="37.5375268084089" lon="14.974356464580637"><ele>256.0</ele><time>2026-03-27T16:53:28Z</time></trkpt><trkpt lat="37.53766579199503" lon="14.97453835794401"><ele>256.0</ele><time>2026-03-27T16:53:29Z</time></trkpt><trkpt lat="37.537808802587364" lon="14.97472508089496"><ele>256.0</ele><time>2026-03-27T16:53:30Z</time></trkpt><trkpt lat="37.537955437735576" lon="14.974915763906738"><ele>256.0</ele><time>2026-03-27T16:53:31Z</time></trkpt><trkpt lat="37.53810273324192" lon="14.97510696872978"><ele>255.33333333333331</ele><time>2026-03-27T16:53:32Z</time></trkpt><trkpt lat="37.53825693968248" lon="14.975290494041827"><ele>254.66666666666669</ele><time>2026-03-27T16:53:33Z</time></trkpt><trkpt lat="37.53842223406425" lon="14.975464274415224"><ele>254.0</ele><time>2026-03-27T16:53:34Z</time></trkpt><trkpt lat="37.53859670507792" lon="14.975628179279731"><ele>253.66666666666669</ele><time>2026-03-27T16:53:35Z</time></trkpt><trkpt lat="37.53878234586153" lon="14.975768269539348"><ele>253.33333333333331</ele><time>2026-03-27T16:53:36Z</time></trkpt><trkpt lat="37.53897942837686" lon="14.9758825485228"><ele>253.0</ele><time>2026-03-27T16:53:37Z</time></trkpt><trkpt lat="37.53918217463336" lon="14.975965631034583"><ele>252.66666666666666</ele><time>2026-03-27T16:53:38Z</time></trkpt><trkpt lat="37.53938812288854" lon="14.976021497266139"><ele>252.33333333333331</ele><time>2026-03-27T16:53:39Z</time></trkpt><trkpt lat="37.53960095464811" lon="14.976057424699123"><ele>252.0</ele><time>2026-03-27T16:53:40Z</time></trkpt><trkpt lat="37.53981756164403" lon="14.976077794637778"><ele>253.0</ele><time>2026-03-27T16:53:41Z</time></trkpt><trkpt lat="37.54002792797955" lon="14.97608957332233"><ele>254.0</ele><time>2026-03-27T16:53:42Z</time></trkpt><trkpt lat="37.540239219157726" lon="14.97609680550946"><ele>255.0</ele><time>2026-03-27T16:53:43Z</time></trkpt><trkpt lat="37.54045662417673" lon="14.97610450685696"><ele>255.0</ele><time>2026-03-27T16:53:44Z</time></trkpt><trkpt lat="37.54067668492909" lon="14.976111302206816"><ele>255.0</ele><time>2026-03-27T16:53:45Z</time></trkpt><trkpt lat="37.54090064046741" lon="14.976116316009518"><ele>255.0</ele><time>2026-03-27T16:53:46Z</time></trkpt><trkpt lat="37.54111771345591" lon="14.976127513877813"><ele>254.0</ele><time>2026-03-27T16:53:47Z</time></trkpt><trkpt lat="37.54134191452621" lon="14.976145152010883"><ele>253.0</ele><time>2026-03-27T16:53:48Z</time></trkpt><trkpt lat="37.5415671425275" lon="14.976160075923817"><ele>253.0</ele><time>2026-03-27T16:53:49Z</time></trkpt><trkpt lat="37.54179268489816" lon="14.97617609023602"><ele>253.0</ele><time>2026-03-27T16:53:50Z</time></trkpt><trkpt lat="37.542019273123486" lon="14.976189604005318"><ele>254.0</ele><time>2026-03-27T16:53:51Z</time></trkpt><trkpt lat="37.54224630195874" lon="14.976203692253122"><ele>255.0</ele><time>2026-03-27T16:53:52Z</time></trkpt><trkpt lat="37.5424744718379" lon="14.976215974097798"><ele>255.0</ele><time>2026-03-27T16:53:53Z</time></trkpt><trkpt lat="37.54270445721613" lon="14.976227119145733"><ele>255.0</ele><time>2026-03-27T16:53:54Z</time></trkpt><trkpt lat="37.5429342287633" lon="14.976235146364262"><ele>256.0</ele><time>2026-03-27T16:53:55Z</time></trkpt><trkpt lat="37.543164763482324" lon="14.976241781902452"><ele>257.0</ele><time>2026-03-27T16:53:56Z</time></trkpt><trkpt lat="37.54339764860374" lon="14.976244676863383"><ele>257.0</ele><time>2026-03-27T16:53:57Z</time></trkpt><trkpt lat="37.543630606635226" lon="14.976250585907103"><ele>257.0</ele><time>2026-03-27T16:53:58Z</time></trkpt><trkpt lat="37.54386948622455" lon="14.97626010899827"><ele>258.0</ele><time>2026-03-27T16:53:59Z</time></trkpt><trkpt lat="37.54410875941406" lon="14.976270857924234"><ele>259.0</ele><time>2026-03-27T16:54:00Z</time></trkpt><trkpt lat="37.54435097843024" lon="14.9762823430266"><ele>259.5</ele><time>2026-03-27T16:54:01Z</time></trkpt><trkpt lat="37.544590527785694" lon="14.976294175013539"><ele>260.0</ele><time>2026-03-27T16:54:02Z</time></trkpt><trkpt lat="37.54482748905607" lon="14.976304646262914"><ele>260.0</ele><time>2026-03-27T16:54:03Z</time></trkpt><trkpt lat="37.545065209660805" lon="14.97631389648424"><ele>260.0</ele><time>2026-03-27T16:54:04Z</time></trkpt><trkpt lat="37.54530093676377" lon="14.976324539463208"><ele>258.0</ele><time>2026-03-27T16:54:04.999Z</time></trkpt><trkpt lat="37.54552974329461" lon="14.97633718563375"><ele>256.0</ele><time>2026-03-27T16:54:05.999Z</time></trkpt><trkpt lat="37.54575143632998" lon="14.976354572764743"><ele>256.0</ele><time>2026-03-27T16:54:06.999Z</time></trkpt><trkpt lat="37.5459715276876" lon="14.97636711958965"><ele>256.0</ele><time>2026-03-27T16:54:07.999Z</time></trkpt><trkpt lat="37.546188533679114" lon="14.976376143226384"><ele>256.0</ele><time>2026-03-27T16:54:08.999Z</time></trkpt><trkpt lat="37.54640377473486" lon="14.976384592290373"><ele>257.0</ele><time>2026-03-27T16:54:09.999Z</time></trkpt><trkpt lat="37.54662020908981" lon="14.97639275326203"><ele>258.0</ele><time>2026-03-27T16:54:10.999Z</time></trkpt><trkpt lat="37.54684209721868" lon="14.9763998611449"><ele>259.0</ele><time>2026-03-27T16:54:11.999Z</time></trkpt><trkpt lat="37.54706661372365" lon="14.976407369820485"><ele>260.66666666666663</ele><time>2026-03-27T16:54:12.999Z</time></trkpt><trkpt lat="37.547285045476315" lon="14.976423981569386"><ele>262.3333333333333</ele><time>2026-03-27T16:54:13.999Z</time></trkpt><trkpt lat="37.54750943428879" lon="14.976432823029137"><ele>264.0</ele><time>2026-03-27T16:54:14.999Z</time></trkpt><trkpt lat="37.547740195604796" lon="14.976438809814239"><ele>265.0</ele><time>2026-03-27T16:54:15.999Z</time></trkpt><trkpt lat="37.54797117457499" lon="14.976445925105134"><ele>266.0</ele><time>2026-03-27T16:54:16.999Z</time></trkpt><trkpt lat="37.54820558709602" lon="14.97645751318624"><ele>266.0</ele><time>2026-03-27T16:54:17.999Z</time></trkpt><trkpt lat="37.548436276296584" lon="14.976469714040185"><ele>266.0</ele><time>2026-03-27T16:54:18.999Z</time></trkpt><trkpt lat="37.548664485580886" lon="14.976483131735746"><ele>269.0</ele><time>2026-03-27T16:54:19.999Z</time></trkpt><trkpt lat="37.54889009896664" lon="14.976495989288976"><ele>272.0</ele><time>2026-03-27T16:54:20.999Z</time></trkpt><trkpt lat="37.54912298705768" lon="14.976507149543487"><ele>272.0</ele><time>2026-03-27T16:54:21.999Z</time></trkpt><trkpt lat="37.54935546509366" lon="14.976512125768823"><ele>272.0</ele><time>2026-03-27T16:54:22.999Z</time></trkpt><trkpt lat="37.54959155685495" lon="14.97651710204115"><ele>272.0</ele><time>2026-03-27T16:54:23.999Z</time></trkpt><trkpt lat="37.54983258582516" lon="14.976518606452478"><ele>272.0</ele><time>2026-03-27T16:54:24.999Z</time></trkpt><trkpt lat="37.550067404118245" lon="14.976521737417528"><ele>272.0</ele><time>2026-03-27T16:54:25.999Z</time></trkpt><trkpt lat="37.550296141744575" lon="14.97652822624772"><ele>272.0</ele><time>2026-03-27T16:54:26.999Z</time></trkpt><trkpt lat="37.550510058443905" lon="14.976535911089517"><ele>272.0</ele><time>2026-03-27T16:54:27.999Z</time></trkpt><trkpt lat="37.55071137586686" lon="14.976541339318363"><ele>273.33333333333337</ele><time>2026-03-27T16:54:28.999Z</time></trkpt><trkpt lat="37.550894300403996" lon="14.976546507818306"><ele>274.6666666666667</ele><time>2026-03-27T16:54:29.999Z</time></trkpt><trkpt lat="37.55105773550741" lon="14.97658887710563"><ele>276.0</ele><time>2026-03-27T16:54:30.999Z</time></trkpt><trkpt lat="37.551206601566875" lon="14.976641423280586"><ele>280.3333333333333</ele><time>2026-03-27T16:54:31.999Z</time></trkpt><trkpt lat="37.55135128906887" lon="14.97672722705047"><ele>284.66666666666663</ele><time>2026-03-27T16:54:32.999Z</time></trkpt><trkpt lat="37.55149613265892" lon="14.976835856791348"><ele>289.0</ele><time>2026-03-27T16:54:33.999Z</time></trkpt><trkpt lat="37.55164249203652" lon="14.976954281104847"><ele>289.0</ele><time>2026-03-27T16:54:34.999Z</time></trkpt><trkpt lat="37.551762934619646" lon="14.977090972195619"><ele>289.0</ele><time>2026-03-27T16:54:35.999Z</time></trkpt><trkpt lat="37.55187547831703" lon="14.977221906754961"><ele>289.0</ele><time>2026-03-27T16:54:36.999Z</time></trkpt><trkpt lat="37.55197574651815" lon="14.977348682553513"><ele>289.4</ele><time>2026-03-27T16:54:37.999Z</time></trkpt><trkpt lat="37.552047444135916" lon="14.977469887574077"><ele>289.79999999999995</ele><time>2026-03-27T16:54:38.999Z</time></trkpt><trkpt lat="37.55208820485456" lon="14.977585952638227"><ele>290.20000000000005</ele><time>2026-03-27T16:54:39.999Z</time></trkpt><trkpt lat="37.55210987274052" lon="14.97768739646031"><ele>290.6</ele><time>2026-03-27T16:54:40.999Z</time></trkpt><trkpt lat="37.55212341827845" lon="14.977795605704117"><ele>291.0</ele><time>2026-03-27T16:54:41.999Z</time></trkpt><trkpt lat="37.55217207529849" lon="14.97790108551049"><ele>291.25</ele><time>2026-03-27T16:54:42.999Z</time></trkpt><trkpt lat="37.552218573600705" lon="14.978028187289699"><ele>291.5</ele><time>2026-03-27T16:54:43.999Z</time></trkpt><trkpt lat="37.55226875067491" lon="14.978165344887923"><ele>291.75</ele><time>2026-03-27T16:54:44.999Z</time></trkpt><trkpt lat="37.552235315347936" lon="14.978357536914412"><ele>292.0</ele><time>2026-03-27T16:54:45.999Z</time></trkpt><trkpt lat="37.552323799400426" lon="14.978470010238775"><ele>292.0</ele><time>2026-03-27T16:54:46.999Z</time></trkpt><trkpt lat="37.55242050785863" lon="14.97855687189927"><ele>292.0</ele><time>2026-03-27T16:54:47.999Z</time></trkpt><trkpt lat="37.55251665725147" lon="14.978646556313038"><ele>292.0</ele><time>2026-03-27T16:54:48.999Z</time></trkpt><trkpt lat="37.55261089638301" lon="14.978751182529935"><ele>292.0</ele><time>2026-03-27T16:54:49.999Z</time></trkpt><trkpt lat="37.55271373870971" lon="14.978857459374698"><ele>292.0</ele><time>2026-03-27T16:54:50.999Z</time></trkpt><trkpt lat="37.5528337114799" lon="14.978980039676507"><ele>292.0</ele><time>2026-03-27T16:54:51.999Z</time></trkpt><trkpt lat="37.55296718438513" lon="14.979116390077001"><ele>292.0</ele><time>2026-03-27T16:54:52.999Z</time></trkpt><trkpt lat="37.55309633396869" lon="14.979273616239537"><ele>293.3333333333333</ele><time>2026-03-27T16:54:53.999Z</time></trkpt><trkpt lat="37.55323603072049" lon="14.979428584247696"><ele>294.6666666666667</ele><time>2026-03-27T16:54:54.999Z</time></trkpt><trkpt lat="37.55337972041665" lon="14.979594655436303"><ele>296.0</ele><time>2026-03-27T16:54:55.999Z</time></trkpt><trkpt lat="37.55352906656112" lon="14.979761919009885"><ele>296.0</ele><time>2026-03-27T16:54:56.999Z</time></trkpt><trkpt lat="37.553678735956495" lon="14.979930413104599"><ele>296.0</ele><time>2026-03-27T16:54:57.999Z</time></trkpt><trkpt lat="37.553829024267905" lon="14.980094650499813"><ele>296.0</ele><time>2026-03-27T16:54:58.999Z</time></trkpt><trkpt lat="37.553970103230256" lon="14.980235817643218"><ele>298.5</ele><time>2026-03-27T16:54:59.999Z</time></trkpt><trkpt lat="37.55409333188698" lon="14.980374274965166"><ele>301.0</ele><time>2026-03-27T16:55:00.999Z</time></trkpt><trkpt lat="37.55420606102633" lon="14.980499182670354"><ele>303.5</ele><time>2026-03-27T16:55:01.999Z</time></trkpt><trkpt lat="37.55430186991799" lon="14.980603974383069"><ele>306.0</ele><time>2026-03-27T16:55:02.999Z</time></trkpt><trkpt lat="37.55438041475038" lon="14.980687851800923"><ele>306.0</ele><time>2026-03-27T16:55:03.999Z</time></trkpt><trkpt lat="37.55443527535486" lon="14.98077288877563"><ele>306.0</ele><time>2026-03-27T16:55:04.999Z</time></trkpt><trkpt lat="37.55445670309521" lon="14.980865530618983"><ele>306.0</ele><time>2026-03-27T16:55:05.999Z</time></trkpt><trkpt lat="37.55446094453166" lon="14.980963833776018"><ele>306.0</ele><time>2026-03-27T16:55:06.999Z</time></trkpt><trkpt lat="37.5544468417823" lon="14.98106325468387"><ele>306.0</ele><time>2026-03-27T16:55:07.999Z</time></trkpt><trkpt lat="37.55448162530942" lon="14.981135439782589"><ele>306.0</ele><time>2026-03-27T16:55:08.999Z</time></trkpt><trkpt lat="37.5545553552693" lon="14.981182691398"><ele>307.1666666666667</ele><time>2026-03-27T16:55:09.999Z</time></trkpt><trkpt lat="37.55464755623542" lon="14.981221170934388"><ele>308.3333333333333</ele><time>2026-03-27T16:55:10.999Z</time></trkpt><trkpt lat="37.5547469999805" lon="14.981233269686056"><ele>309.5</ele><time>2026-03-27T16:55:11.999Z</time></trkpt><trkpt lat="37.55482708313191" lon="14.981207418002432"><ele>310.66666666666663</ele><time>2026-03-27T16:55:12.999Z</time></trkpt><trkpt lat="37.554886459660885" lon="14.981143411598781"><ele>311.8333333333333</ele><time>2026-03-27T16:55:13.999Z</time></trkpt><trkpt lat="37.554949889101586" lon="14.981067024580305"><ele>313.0</ele><time>2026-03-27T16:55:14.999Z</time></trkpt><trkpt lat="37.55504124509745" lon="14.981013127335789"><ele>313.0</ele><time>2026-03-27T16:55:15.999Z</time></trkpt><trkpt lat="37.555162187630316" lon="14.980996483701231"><ele>313.0</ele><time>2026-03-27T16:55:16.999Z</time></trkpt><trkpt lat="37.55529763149604" lon="14.980997625859148"><ele>313.0</ele><time>2026-03-27T16:55:17.999Z</time></trkpt><trkpt lat="37.55544673476547" lon="14.980994931013464"><ele>313.0</ele><time>2026-03-27T16:55:18.999Z</time></trkpt><trkpt lat="37.55560536364141" lon="14.98099138511164"><ele>313.66666666666663</ele><time>2026-03-27T16:55:19.999Z</time></trkpt><trkpt lat="37.55577616635728" lon="14.98099045211857"><ele>314.3333333333333</ele><time>2026-03-27T16:55:21Z</time></trkpt><trkpt lat="37.55595362208968" lon="14.980988514527304"><ele>315.0</ele><time>2026-03-27T16:55:22Z</time></trkpt><trkpt lat="37.55613332744298" lon="14.980982212540344"><ele>316.6666666666667</ele><time>2026-03-27T16:55:23Z</time></trkpt><trkpt lat="37.556311893818" lon="14.980970438249459"><ele>318.33333333333337</ele><time>2026-03-27T16:55:24Z</time></trkpt><trkpt lat="37.55649566611269" lon="14.980949794659946"><ele>320.0</ele><time>2026-03-27T16:55:25Z</time></trkpt><trkpt lat="37.55667552797979" lon="14.980920221384187"><ele>320.0</ele><time>2026-03-27T16:55:26Z</time></trkpt><trkpt lat="37.55684737950775" lon="14.980878613126535"><ele>320.0</ele><time>2026-03-27T16:55:27Z</time></trkpt><trkpt lat="37.55700716875854" lon="14.980828689009583"><ele>320.0</ele><time>2026-03-27T16:55:28Z</time></trkpt><trkpt lat="37.557154493329" lon="14.980766851574504"><ele>318.0</ele><time>2026-03-27T16:55:29Z</time></trkpt><trkpt lat="37.55729210378594" lon="14.980695479835527"><ele>316.0</ele><time>2026-03-27T16:55:30Z</time></trkpt><trkpt lat="37.557429530154415" lon="14.980615679887654"><ele>314.0</ele><time>2026-03-27T16:55:31Z</time></trkpt><trkpt lat="37.557567995817664" lon="14.980528333994746"><ele>314.0</ele><time>2026-03-27T16:55:32Z</time></trkpt><trkpt lat="37.557707141236236" lon="14.980443876860825"><ele>314.0</ele><time>2026-03-27T16:55:33Z</time></trkpt><trkpt lat="37.55785021338795" lon="14.98037360641979"><ele>314.0</ele><time>2026-03-27T16:55:34Z</time></trkpt><trkpt lat="37.55799781673906" lon="14.980318615281751"><ele>314.6666666666667</ele><time>2026-03-27T16:55:35Z</time></trkpt><trkpt lat="37.55814950740763" lon="14.980266588093329"><ele>315.3333333333333</ele><time>2026-03-27T16:55:36Z</time></trkpt><trkpt lat="37.558307151531736" lon="14.980218435795363"><ele>316.0</ele><time>2026-03-27T16:55:37Z</time></trkpt><trkpt lat="37.55847339437019" lon="14.98017227736112"><ele>316.0</ele><time>2026-03-27T16:55:38Z</time></trkpt><trkpt lat="37.55863732775805" lon="14.980130937453943"><ele>316.0</ele><time>2026-03-27T16:55:39Z</time></trkpt><trkpt lat="37.55880284957978" lon="14.980082836834388"><ele>316.0</ele><time>2026-03-27T16:55:40Z</time></trkpt><trkpt lat="37.558974637623635" lon="14.980032675748424"><ele>316.66666666666663</ele><time>2026-03-27T16:55:41Z</time></trkpt><trkpt lat="37.55914988936828" lon="14.979985289148365"><ele>317.3333333333333</ele><time>2026-03-27T16:55:42Z</time></trkpt><trkpt lat="37.559327779492214" lon="14.97993921858046"><ele>318.0</ele><time>2026-03-27T16:55:43Z</time></trkpt><trkpt lat="37.5595111508717" lon="14.979889169520838"><ele>320.3333333333333</ele><time>2026-03-27T16:55:44Z</time></trkpt><trkpt lat="37.55969758420314" lon="14.979840055585257"><ele>322.66666666666663</ele><time>2026-03-27T16:55:45Z</time></trkpt><trkpt lat="37.55988229427397" lon="14.979789451271674"><ele>325.0</ele><time>2026-03-27T16:55:46Z</time></trkpt><trkpt lat="37.56006789180896" lon="14.979735533496982"><ele>325.0</ele><time>2026-03-27T16:55:47Z</time></trkpt><trkpt lat="37.56024439592904" lon="14.979692028948643"><ele>325.0</ele><time>2026-03-27T16:55:48Z</time></trkpt><trkpt lat="37.56041640284361" lon="14.979660012955733"><ele>325.0</ele><time>2026-03-27T16:55:49Z</time></trkpt><trkpt lat="37.56056956693849" lon="14.979652440273846"><ele>327.0</ele><time>2026-03-27T16:55:50Z</time></trkpt><trkpt lat="37.560728660491655" lon="14.979683307747242"><ele>329.0</ele><time>2026-03-27T16:55:51Z</time></trkpt><trkpt lat="37.560881840859324" lon="14.979746021968236"><ele>331.0</ele><time>2026-03-27T16:55:52Z</time></trkpt><trkpt lat="37.56104092078496" lon="14.979834557175582"><ele>331.0</ele><time>2026-03-27T16:55:53Z</time></trkpt><trkpt lat="37.56119266345716" lon="14.979950649946263"><ele>331.0</ele><time>2026-03-27T16:55:54Z</time></trkpt><trkpt lat="37.56133591631543" lon="14.980089581886187"><ele>331.0</ele><time>2026-03-27T16:55:55Z</time></trkpt><trkpt lat="37.56148212405262" lon="14.980220663097697"><ele>333.66666666666663</ele><time>2026-03-27T16:55:56Z</time></trkpt><trkpt lat="37.56164441779011" lon="14.980325056805489"><ele>336.3333333333333</ele><time>2026-03-27T16:55:57Z</time></trkpt><trkpt lat="37.56181378764621" lon="14.980391519940545"><ele>339.0</ele><time>2026-03-27T16:55:58Z</time></trkpt><trkpt lat="37.561982503448995" lon="14.98044297661181"><ele>340.6666666666667</ele><time>2026-03-27T16:55:59Z</time></trkpt><trkpt lat="37.5621545342654" lon="14.98047373033584"><ele>342.33333333333337</ele><time>2026-03-27T16:56:00Z</time></trkpt><trkpt lat="37.562319780100026" lon="14.980492967044873"><ele>344.0</ele><time>2026-03-27T16:56:01Z</time></trkpt><trkpt lat="37.562469965108114" lon="14.980501452593996"><ele>344.0</ele><time>2026-03-27T16:56:02Z</time></trkpt><trkpt lat="37.562606586857584" lon="14.980512123689019"><ele>344.0</ele><time>2026-03-27T16:56:03Z</time></trkpt><trkpt lat="37.562745504265614" lon="14.980513548331214"><ele>344.0</ele><time>2026-03-27T16:56:04Z</time></trkpt><trkpt lat="37.56288617704536" lon="14.980488451066417"><ele>344.0</ele><time>2026-03-27T16:56:05Z</time></trkpt><trkpt lat="37.56302378648797" lon="14.980437010276987"><ele>344.0</ele><time>2026-03-27T16:56:06Z</time></trkpt><trkpt lat="37.56314076427952" lon="14.98036588387736"><ele>344.0</ele><time>2026-03-27T16:56:06.999Z</time></trkpt><trkpt lat="37.56323614434999" lon="14.98026519169025"><ele>344.0</ele><time>2026-03-27T16:56:07.999Z</time></trkpt><trkpt lat="37.56332496200848" lon="14.980142589599174"><ele>344.0</ele><time>2026-03-27T16:56:08.999Z</time></trkpt><trkpt lat="37.56340578860742" lon="14.980007349968387"><ele>344.0</ele><time>2026-03-27T16:56:09.999Z</time></trkpt><trkpt lat="37.56348322049998" lon="14.979857938721425"><ele>344.0</ele><time>2026-03-27T16:56:10.999Z</time></trkpt><trkpt lat="37.56355562898696" lon="14.979701043406767"><ele>344.0</ele><time>2026-03-27T16:56:11.999Z</time></trkpt><trkpt lat="37.56361720577839" lon="14.97955262101755"><ele>344.0</ele><time>2026-03-27T16:56:12.999Z</time></trkpt><trkpt lat="37.56367177238703" lon="14.97942631068037"><ele>345.6</ele><time>2026-03-27T16:56:13.999Z</time></trkpt><trkpt lat="37.563724552380044" lon="14.97931047622676"><ele>347.2</ele><time>2026-03-27T16:56:14.999Z</time></trkpt><trkpt lat="37.563775877971175" lon="14.979195448720779"><ele>348.8</ele><time>2026-03-27T16:56:15.999Z</time></trkpt><trkpt lat="37.56382737496316" lon="14.9790729307129"><ele>350.40000000000003</ele><time>2026-03-27T16:56:16.999Z</time></trkpt><trkpt lat="37.563877007100245" lon="14.97894642130435"><ele>352.0</ele><time>2026-03-27T16:56:17.999Z</time></trkpt><trkpt lat="37.563929779958976" lon="14.978821839087493"><ele>352.0</ele><time>2026-03-27T16:56:18.999Z</time></trkpt><trkpt lat="37.56398222712891" lon="14.978706033606699"><ele>352.0</ele><time>2026-03-27T16:56:19.999Z</time></trkpt><trkpt lat="37.56402718274849" lon="14.978605047361262"><ele>352.0</ele><time>2026-03-27T16:56:20.999Z</time></trkpt><trkpt lat="37.564063417222755" lon="14.978522357376827"><ele>352.0</ele><time>2026-03-27T16:56:21.999Z</time></trkpt><trkpt lat="37.56409892740163" lon="14.97843540886512"><ele>352.0</ele><time>2026-03-27T16:56:22.999Z</time></trkpt><trkpt lat="37.564140010642916" lon="14.978336611807412"><ele>352.0</ele><time>2026-03-27T16:56:23.999Z</time></trkpt><trkpt lat="37.56418696704139" lon="14.978229214762134"><ele>351.6</ele><time>2026-03-27T16:56:24.999Z</time></trkpt><trkpt lat="37.56424204380696" lon="14.978112391676406"><ele>351.20000000000005</ele><time>2026-03-27T16:56:25.999Z</time></trkpt><trkpt lat="37.56430425270503" lon="14.97800404138527"><ele>350.8</ele><time>2026-03-27T16:56:26.999Z</time></trkpt><trkpt lat="37.564380767310396" lon="14.977910083598099"><ele>350.4</ele><time>2026-03-27T16:56:27.999Z</time></trkpt><trkpt lat="37.56447170725806" lon="14.977830141633781"><ele>350.0</ele><time>2026-03-27T16:56:28.999Z</time></trkpt><trkpt lat="37.56457163345332" lon="14.977762262026909"><ele>351.8</ele><time>2026-03-27T16:56:29.999Z</time></trkpt><trkpt lat="37.56466259162407" lon="14.977711045242572"><ele>353.6</ele><time>2026-03-27T16:56:30.999Z</time></trkpt><trkpt lat="37.56475257614673" lon="14.977681101897927"><ele>355.4</ele><time>2026-03-27T16:56:31.999Z</time></trkpt><trkpt lat="37.56485636463904" lon="14.977696453377863"><ele>357.2</ele><time>2026-03-27T16:56:32.999Z</time></trkpt><trkpt lat="37.56495037849268" lon="14.97775116688898"><ele>359.0</ele><time>2026-03-27T16:56:33.999Z</time></trkpt><trkpt lat="37.56505641327658" lon="14.977817351421672"><ele>359.0</ele><time>2026-03-27T16:56:34.999Z</time></trkpt><trkpt lat="37.565175159592414" lon="14.977877447215837"><ele>359.0</ele><time>2026-03-27T16:56:35.999Z</time></trkpt><trkpt lat="37.56529530387035" lon="14.977956932457944"><ele>359.0</ele><time>2026-03-27T16:56:36.999Z</time></trkpt><trkpt lat="37.56542135241921" lon="14.978042841144878"><ele>359.0</ele><time>2026-03-27T16:56:37.999Z</time></trkpt><trkpt lat="37.56554834059732" lon="14.978129959753923"><ele>359.75</ele><time>2026-03-27T16:56:38.999Z</time></trkpt><trkpt lat="37.56567434267495" lon="14.978212884009768"><ele>360.5</ele><time>2026-03-27T16:56:39.999Z</time></trkpt><trkpt lat="37.56579891534004" lon="14.978294493168649"><ele>361.25</ele><time>2026-03-27T16:56:40.999Z</time></trkpt><trkpt lat="37.565915616134234" lon="14.978372167830498"><ele>362.0</ele><time>2026-03-27T16:56:41.999Z</time></trkpt><trkpt lat="37.56601722403328" lon="14.978441327071936"><ele>362.20000000000005</ele><time>2026-03-27T16:56:42.999Z</time></trkpt><trkpt lat="37.566113017417635" lon="14.978505324808372"><ele>362.4</ele><time>2026-03-27T16:56:43.999Z</time></trkpt><trkpt lat="37.56621115273809" lon="14.978561930147364"><ele>362.6</ele><time>2026-03-27T16:56:44.999Z</time></trkpt><trkpt lat="37.566317733405626" lon="14.978593914827707"><ele>362.79999999999995</ele><time>2026-03-27T16:56:45.999Z</time></trkpt><trkpt lat="37.56642575432732" lon="14.97859532291656"><ele>363.0</ele><time>2026-03-27T16:56:46.999Z</time></trkpt><trkpt lat="37.56653475747473" lon="14.978555715421583"><ele>364.5</ele><time>2026-03-27T16:56:47.999Z</time></trkpt><trkpt lat="37.56663986747525" lon="14.978484207762822"><ele>366.0</ele><time>2026-03-27T16:56:48.999Z</time></trkpt><trkpt lat="37.56673401864317" lon="14.978385169053002"><ele>367.5</ele><time>2026-03-27T16:56:49.999Z</time></trkpt><trkpt lat="37.56680516482206" lon="14.978259162729907"><ele>369.0</ele><time>2026-03-27T16:56:50.999Z</time></trkpt><trkpt lat="37.56685649248506" lon="14.978121335977283"><ele>369.0</ele><time>2026-03-27T16:56:51.999Z</time></trkpt><trkpt lat="37.56689111406167" lon="14.977981899984831"><ele>369.0</ele><time>2026-03-27T16:56:52.999Z</time></trkpt><trkpt lat="37.566912303065806" lon="14.977848987697357"><ele>369.0</ele><time>2026-03-27T16:56:53.999Z</time></trkpt><trkpt lat="37.56693095860174" lon="14.977719246691121"><ele>369.0</ele><time>2026-03-27T16:56:54.999Z</time></trkpt><trkpt lat="37.56695146525884" lon="14.97758745189661"><ele>369.0</ele><time>2026-03-27T16:56:55.999Z</time></trkpt><trkpt lat="37.56697723139478" lon="14.977456302128152"><ele>369.75</ele><time>2026-03-27T16:56:56.999Z</time></trkpt><trkpt lat="37.56700920283191" lon="14.977325945141294"><ele>370.5</ele><time>2026-03-27T16:56:57.999Z</time></trkpt><trkpt lat="37.56704928624525" lon="14.977197271703828"><ele>371.25</ele><time>2026-03-27T16:56:58.999Z</time></trkpt><trkpt lat="37.56709871713178" lon="14.977067102908773"><ele>372.0</ele><time>2026-03-27T16:56:59.999Z</time></trkpt><trkpt lat="37.56715773436125" lon="14.976929209060023"><ele>375.0</ele><time>2026-03-27T16:57:00.999Z</time></trkpt><trkpt lat="37.56722671654369" lon="14.976785540189224"><ele>378.0</ele><time>2026-03-27T16:57:01.999Z</time></trkpt><trkpt lat="37.56729777221727" lon="14.976649014066862"><ele>381.0</ele><time>2026-03-27T16:57:02.999Z</time></trkpt><trkpt lat="37.56736413730592" lon="14.97653395774727"><ele>384.0</ele><time>2026-03-27T16:57:03.999Z</time></trkpt><trkpt lat="37.56742869952323" lon="14.976421301632664"><ele>384.25</ele><time>2026-03-27T16:57:04.999Z</time></trkpt><trkpt lat="37.56749128436305" lon="14.976302894546814"><ele>384.5</ele><time>2026-03-27T16:57:05.999Z</time></trkpt><trkpt lat="37.56755427858317" lon="14.97617491597269"><ele>384.75</ele><time>2026-03-27T16:57:06.999Z</time></trkpt><trkpt lat="37.56762344925698" lon="14.976017100954884"><ele>385.0</ele><time>2026-03-27T16:57:07.999Z</time></trkpt><trkpt lat="37.567712723165265" lon="14.9758427802495"><ele>385.5</ele><time>2026-03-27T16:57:08.999Z</time></trkpt><trkpt lat="37.567811512475416" lon="14.975680810089345"><ele>386.0</ele><time>2026-03-27T16:57:09.999Z</time></trkpt><trkpt lat="37.567894738031974" lon="14.97555151103187"><ele>386.5</ele><time>2026-03-27T16:57:10.999Z</time></trkpt><trkpt lat="37.56796336052453" lon="14.975448489808176"><ele>387.0</ele><time>2026-03-27T16:57:11.999Z</time></trkpt><trkpt lat="37.56803105265827" lon="14.97537591711275"><ele>388.6</ele><time>2026-03-27T16:57:12.999Z</time></trkpt><trkpt lat="37.568111112802924" lon="14.975310757908424"><ele>390.20000000000005</ele><time>2026-03-27T16:57:13.999Z</time></trkpt><trkpt lat="37.56820393390221" lon="14.975264951955284"><ele>391.8</ele><time>2026-03-27T16:57:14.999Z</time></trkpt><trkpt lat="37.56830011324553" lon="14.97524689348787"><ele>393.4</ele><time>2026-03-27T16:57:15.999Z</time></trkpt><trkpt lat="37.568398692817844" lon="14.97524859334299"><ele>395.0</ele><time>2026-03-27T16:57:16.999Z</time></trkpt><trkpt lat="37.56849579122195" lon="14.975280304049647"><ele>395.0</ele><time>2026-03-27T16:57:17.999Z</time></trkpt><trkpt lat="37.56858946721358" lon="14.97533025699466"><ele>395.0</ele><time>2026-03-27T16:57:18.999Z</time></trkpt><trkpt lat="37.568682341287094" lon="14.97539383100219"><ele>395.0</ele><time>2026-03-27T16:57:19.999Z</time></trkpt><trkpt lat="37.56877392136042" lon="14.975503494056111"><ele>395.0</ele><time>2026-03-27T16:57:20.999Z</time></trkpt><trkpt lat="37.568901415872276" lon="14.975604888489269"><ele>397.0</ele><time>2026-03-27T16:57:21.999Z</time></trkpt><trkpt lat="37.56904258462807" lon="14.975717177819623"><ele>399.0</ele><time>2026-03-27T16:57:22.999Z</time></trkpt><trkpt lat="37.569155737710375" lon="14.975797588524669"><ele>401.0</ele><time>2026-03-27T16:57:23.999Z</time></trkpt><trkpt lat="37.5692435978492" lon="14.975871762118832"><ele>403.0</ele><time>2026-03-27T16:57:24.999Z</time></trkpt><trkpt lat="37.569321850546054" lon="14.975930873300733"><ele>403.5</ele><time>2026-03-27T16:57:25.999Z</time></trkpt><trkpt lat="37.569411483221074" lon="14.975977660060035"><ele>404.0</ele><time>2026-03-27T16:57:27Z</time></trkpt><trkpt lat="37.56952169914022" lon="14.975999154243713"><ele>404.5</ele><time>2026-03-27T16:57:28Z</time></trkpt><trkpt lat="37.56964903726414" lon="14.97600217046249"><ele>405.0</ele><time>2026-03-27T16:57:29Z</time></trkpt><trkpt lat="37.56978416770649" lon="14.976004476072223"><ele>406.5</ele><time>2026-03-27T16:57:30Z</time></trkpt><trkpt lat="37.569916632859204" lon="14.97601685922883"><ele>408.0</ele><time>2026-03-27T16:57:31Z</time></trkpt><trkpt lat="37.57005098478342" lon="14.976027174509404"><ele>409.5</ele><time>2026-03-27T16:57:32Z</time></trkpt><trkpt lat="37.57016704663385" lon="14.976035670426374"><ele>411.0</ele><time>2026-03-27T16:57:33Z</time></trkpt><trkpt lat="37.57026715862724" lon="14.976057742255502"><ele>412.25</ele><time>2026-03-27T16:57:34Z</time></trkpt><trkpt lat="37.570366019356385" lon="14.976094689846969"><ele>413.5</ele><time>2026-03-27T16:57:35Z</time></trkpt><trkpt lat="37.57046075516115" lon="14.976154457029505"><ele>414.75</ele><time>2026-03-27T16:57:36Z</time></trkpt><trkpt lat="37.570560178546025" lon="14.9762327470604"><ele>416.0</ele><time>2026-03-27T16:57:37Z</time></trkpt><trkpt lat="37.570643501990375" lon="14.976350375215041"><ele>416.0</ele><time>2026-03-27T16:57:38Z</time></trkpt><trkpt lat="37.5707561422693" lon="14.976451089219696"><ele>416.0</ele><time>2026-03-27T16:57:39Z</time></trkpt><trkpt lat="37.57085226319151" lon="14.976568450669127"><ele>416.0</ele><time>2026-03-27T16:57:40Z</time></trkpt><trkpt lat="37.57093565823674" lon="14.976671400612586"><ele>416.0</ele><time>2026-03-27T16:57:41Z</time></trkpt><trkpt lat="37.57101550016888" lon="14.97676917696965"><ele>416.0</ele><time>2026-03-27T16:57:42Z</time></trkpt><trkpt lat="37.57109820642263" lon="14.976870214950793"><ele>416.0</ele><time>2026-03-27T16:57:43Z</time></trkpt><trkpt lat="37.57118769792013" lon="14.976977023039309"><ele>416.0</ele><time>2026-03-27T16:57:44Z</time></trkpt><trkpt lat="37.57128082627406" lon="14.977085178528059"><ele>416.0</ele><time>2026-03-27T16:57:45Z</time></trkpt><trkpt lat="37.57137725109751" lon="14.97719787437411"><ele>417.25</ele><time>2026-03-27T16:57:46Z</time></trkpt><trkpt lat="37.571474541886914" lon="14.97731129221503"><ele>418.5</ele><time>2026-03-27T16:57:47Z</time></trkpt><trkpt lat="37.57156776699195" lon="14.977421228702568"><ele>419.75</ele><time>2026-03-27T16:57:48Z</time></trkpt><trkpt lat="37.57165796274297" lon="14.977530833059863"><ele>421.0</ele><time>2026-03-27T16:57:49Z</time></trkpt><trkpt lat="37.57174766185193" lon="14.977635197999252"><ele>421.0</ele><time>2026-03-27T16:57:50Z</time></trkpt><trkpt lat="37.571834229263864" lon="14.977736212332022"><ele>421.0</ele><time>2026-03-27T16:57:51Z</time></trkpt><trkpt lat="37.57191708622779" lon="14.977836725488867"><ele>421.0</ele><time>2026-03-27T16:57:52Z</time></trkpt><trkpt lat="37.57200834340477" lon="14.977943323989413"><ele>421.0</ele><time>2026-03-27T16:57:53Z</time></trkpt><trkpt lat="37.57208384125322" lon="14.978037617926574"><ele>422.0</ele><time>2026-03-27T16:57:54Z</time></trkpt><trkpt lat="37.57215186596329" lon="14.978120828256237"><ele>423.0</ele><time>2026-03-27T16:57:55Z</time></trkpt><trkpt lat="37.572238316556536" lon="14.978188528769754"><ele>424.0</ele><time>2026-03-27T16:57:56Z</time></trkpt><trkpt lat="37.57234471077767" lon="14.978221563951868"><ele>425.0</ele><time>2026-03-27T16:57:57Z</time></trkpt><trkpt lat="37.57246652592138" lon="14.978212326908253"><ele>426.0</ele><time>2026-03-27T16:57:58Z</time></trkpt><trkpt lat="37.57260157538808" lon="14.978194494615996"><ele>426.0</ele><time>2026-03-27T16:57:59Z</time></trkpt><trkpt lat="37.57274862509552" lon="14.978177412003634"><ele>426.0</ele><time>2026-03-27T16:58:00Z</time></trkpt><trkpt lat="37.572904094092486" lon="14.9781591509964"><ele>426.0</ele><time>2026-03-27T16:58:01Z</time></trkpt><trkpt lat="37.573062255171244" lon="14.978140714421011"><ele>427.66666666666663</ele><time>2026-03-27T16:58:02Z</time></trkpt><trkpt lat="37.57321730140097" lon="14.978123598744185"><ele>429.3333333333333</ele><time>2026-03-27T16:58:03Z</time></trkpt><trkpt lat="37.57337694888868" lon="14.97810097173689"><ele>431.0</ele><time>2026-03-27T16:58:04Z</time></trkpt><trkpt lat="37.573542438044015" lon="14.978108851651726"><ele>433.3333333333333</ele><time>2026-03-27T16:58:05Z</time></trkpt><trkpt lat="37.573720627210285" lon="14.978095396476798"><ele>435.66666666666663</ele><time>2026-03-27T16:58:06Z</time></trkpt><trkpt lat="37.57390176118175" lon="14.978081881979175"><ele>438.0</ele><time>2026-03-27T16:58:07Z</time></trkpt><trkpt lat="37.574084543465425" lon="14.978068328395556"><ele>438.0</ele><time>2026-03-27T16:58:08Z</time></trkpt><trkpt lat="37.574270997562806" lon="14.978044048850032"><ele>438.0</ele><time>2026-03-27T16:58:09Z</time></trkpt><trkpt lat="37.57445667222289" lon="14.978041299258862"><ele>438.0</ele><time>2026-03-27T16:58:10Z</time></trkpt><trkpt lat="37.574625925131514" lon="14.978031325814626"><ele>439.5</ele><time>2026-03-27T16:58:11Z</time></trkpt><trkpt lat="37.57477392901088" lon="14.97802122751905"><ele>441.0</ele><time>2026-03-27T16:58:12Z</time></trkpt><trkpt lat="37.57490804038031" lon="14.978013706484509"><ele>442.5</ele><time>2026-03-27T16:58:13Z</time></trkpt><trkpt lat="37.57504314167487" lon="14.97798316036055"><ele>444.0</ele><time>2026-03-27T16:58:14Z</time></trkpt><trkpt lat="37.57518565580178" lon="14.977947662458886"><ele>444.0</ele><time>2026-03-27T16:58:15Z</time></trkpt><trkpt lat="37.57532693835302" lon="14.97789719262163"><ele>444.0</ele><time>2026-03-27T16:58:16Z</time></trkpt><trkpt lat="37.57547002974357" lon="14.977864726219522"><ele>444.0</ele><time>2026-03-27T16:58:17Z</time></trkpt><trkpt lat="37.57561961805642" lon="14.97785804821179"><ele>444.0</ele><time>2026-03-27T16:58:17.999Z</time></trkpt><trkpt lat="37.57576946969402" lon="14.977897407725187"><ele>445.66666666666663</ele><time>2026-03-27T16:58:18.999Z</time></trkpt><trkpt lat="37.57591845413952" lon="14.977920149930677"><ele>447.3333333333333</ele><time>2026-03-27T16:58:19.999Z</time></trkpt><trkpt lat="37.57607223570939" lon="14.977934077365605"><ele>449.0</ele><time>2026-03-27T16:58:20.999Z</time></trkpt><trkpt lat="37.576229280732925" lon="14.97796396302312"><ele>451.5</ele><time>2026-03-27T16:58:21.999Z</time></trkpt><trkpt lat="37.576382766016096" lon="14.977990435720999"><ele>454.0</ele><time>2026-03-27T16:58:22.999Z</time></trkpt><trkpt lat="37.57651642651969" lon="14.97801076478466"><ele>456.5</ele><time>2026-03-27T16:58:23.999Z</time></trkpt><trkpt lat="37.57663393812976" lon="14.978023827162984"><ele>459.0</ele><time>2026-03-27T16:58:24.999Z</time></trkpt><trkpt lat="37.57675163052189" lon="14.978046426572472"><ele>459.0</ele><time>2026-03-27T16:58:25.999Z</time></trkpt><trkpt lat="37.57686497261238" lon="14.978064104285393"><ele>459.0</ele><time>2026-03-27T16:58:26.999Z</time></trkpt><trkpt lat="37.57697405782256" lon="14.9780800774969"><ele>459.0</ele><time>2026-03-27T16:58:27.999Z</time></trkpt><trkpt lat="37.577076911567744" lon="14.97809518669692"><ele>459.0</ele><time>2026-03-27T16:58:28.999Z</time></trkpt><trkpt lat="37.57718844027247" lon="14.978102192499025"><ele>459.0</ele><time>2026-03-27T16:58:29.999Z</time></trkpt><trkpt lat="37.57730374064259" lon="14.978099794443429"><ele>460.4</ele><time>2026-03-27T16:58:30.999Z</time></trkpt><trkpt lat="37.577431414374864" lon="14.97809118739225"><ele>461.79999999999995</ele><time>2026-03-27T16:58:31.999Z</time></trkpt><trkpt lat="37.577544168203254" lon="14.978081154927574"><ele>463.20000000000005</ele><time>2026-03-27T16:58:32.999Z</time></trkpt><trkpt lat="37.57764908767361" lon="14.978069310407651"><ele>464.6</ele><time>2026-03-27T16:58:33.999Z</time></trkpt><trkpt lat="37.57773933115416" lon="14.97805750677074"><ele>466.0</ele><time>2026-03-27T16:58:34.999Z</time></trkpt><trkpt lat="37.57783672290627" lon="14.978041496913256"><ele>467.6666666666667</ele><time>2026-03-27T16:58:35.999Z</time></trkpt><trkpt lat="37.577930021121226" lon="14.978030653361317"><ele>469.33333333333337</ele><time>2026-03-27T16:58:36.999Z</time></trkpt><trkpt lat="37.57801264816685" lon="14.97801758564477"><ele>471.0</ele><time>2026-03-27T16:58:37.999Z</time></trkpt><trkpt lat="37.57809006856181" lon="14.97800622401576"><ele>472.66666666666663</ele><time>2026-03-27T16:58:38.999Z</time></trkpt><trkpt lat="37.57816215260699" lon="14.978014049972135"><ele>474.3333333333333</ele><time>2026-03-27T16:58:39.999Z</time></trkpt><trkpt lat="37.57826787827289" lon="14.978070093521085"><ele>476.0</ele><time>2026-03-27T16:58:41.999Z</time></trkpt><trkpt lat="37.57831455350692" lon="14.978248703524235"><ele>475.75</ele><time>2026-03-27T16:58:42.999Z</time></trkpt><trkpt lat="37.578386498123066" lon="14.978377717530087"><ele>475.5</ele><time>2026-03-27T16:58:43.999Z</time></trkpt><trkpt lat="37.5784460385237" lon="14.978530058894235"><ele>475.25</ele><time>2026-03-27T16:58:44.999Z</time></trkpt><trkpt lat="37.57852263636562" lon="14.978677634819183"><ele>475.0</ele><time>2026-03-27T16:58:45.999Z</time></trkpt><trkpt lat="37.578601730101205" lon="14.978812114177732"><ele>475.8</ele><time>2026-03-27T16:58:46.999Z</time></trkpt><trkpt lat="37.57868930705968" lon="14.978922818961475"><ele>476.6</ele><time>2026-03-27T16:58:47.999Z</time></trkpt><trkpt lat="37.5787845181224" lon="14.979005431339566"><ele>477.4</ele><time>2026-03-27T16:58:48.999Z</time></trkpt><trkpt lat="37.578867864949" lon="14.979079411694665"><ele>478.2</ele><time>2026-03-27T16:58:49.999Z</time></trkpt><trkpt lat="37.578936713096006" lon="14.97914718502725"><ele>479.0</ele><time>2026-03-27T16:58:50.999Z</time></trkpt><trkpt lat="37.57900247667982" lon="14.979215375565202"><ele>479.0</ele><time>2026-03-27T16:58:51.999Z</time></trkpt><trkpt lat="37.57907424857614" lon="14.97928499266843"><ele>479.0</ele><time>2026-03-27T16:58:52.999Z</time></trkpt><trkpt lat="37.579153915128785" lon="14.979364101661046"><ele>479.0</ele><time>2026-03-27T16:58:53.999Z</time></trkpt><trkpt lat="37.57923517658745" lon="14.979461918059968"><ele>479.0</ele><time>2026-03-27T16:58:54.999Z</time></trkpt><trkpt lat="37.5793190956384" lon="14.979576506353196"><ele>479.0</ele><time>2026-03-27T16:58:55.999Z</time></trkpt><trkpt lat="37.579402571646916" lon="14.979705742982832"><ele>479.0</ele><time>2026-03-27T16:58:56.999Z</time></trkpt><trkpt lat="37.57949737828332" lon="14.979836723250434"><ele>479.0</ele><time>2026-03-27T16:58:57.999Z</time></trkpt><trkpt lat="37.579586641076794" lon="14.979970582603242"><ele>479.0</ele><time>2026-03-27T16:58:58.999Z</time></trkpt><trkpt lat="37.57967340914177" lon="14.980098431239059"><ele>479.0</ele><time>2026-03-27T16:58:59.999Z</time></trkpt><trkpt lat="37.5797529611298" lon="14.980208642687705"><ele>480.0</ele><time>2026-03-27T16:59:00.999Z</time></trkpt><trkpt lat="37.5798264226342" lon="14.980314866458412"><ele>481.0</ele><time>2026-03-27T16:59:01.999Z</time></trkpt><trkpt lat="37.57989085378785" lon="14.980431441445344"><ele>482.0</ele><time>2026-03-27T16:59:02.999Z</time></trkpt><trkpt lat="37.5799285220165" lon="14.980564648703268"><ele>483.0</ele><time>2026-03-27T16:59:03.999Z</time></trkpt><trkpt lat="37.57994851380334" lon="14.980699919144564"><ele>484.0</ele><time>2026-03-27T16:59:04.999Z</time></trkpt><trkpt lat="37.57996176272865" lon="14.980863643094576"><ele>484.33333333333337</ele><time>2026-03-27T16:59:05.999Z</time></trkpt><trkpt lat="37.57999232654358" lon="14.981052911904596"><ele>484.66666666666663</ele><time>2026-03-27T16:59:06.999Z</time></trkpt><trkpt lat="37.58000087075203" lon="14.98125452043775"><ele>485.0</ele><time>2026-03-27T16:59:07.999Z</time></trkpt><trkpt lat="37.58000823208807" lon="14.981453888200003"><ele>485.0</ele><time>2026-03-27T16:59:08.999Z</time></trkpt><trkpt lat="37.58001813295415" lon="14.981651920069137"><ele>485.0</ele><time>2026-03-27T16:59:09.999Z</time></trkpt><trkpt lat="37.580034892721244" lon="14.981844239345191"><ele>485.0</ele><time>2026-03-27T16:59:10.999Z</time></trkpt><trkpt lat="37.580050506793356" lon="14.982037985461222"><ele>484.75</ele><time>2026-03-27T16:59:11.999Z</time></trkpt><trkpt lat="37.58007274273167" lon="14.982213046645981"><ele>484.5</ele><time>2026-03-27T16:59:12.999Z</time></trkpt><trkpt lat="37.580105012242434" lon="14.982374924442937"><ele>484.25</ele><time>2026-03-27T16:59:13.999Z</time></trkpt><trkpt lat="37.5801549792929" lon="14.982514732835318"><ele>484.0</ele><time>2026-03-27T16:59:14.999Z</time></trkpt><trkpt lat="37.580232824429395" lon="14.982612802766173"><ele>484.00000000000006</ele><time>2026-03-27T16:59:15.999Z</time></trkpt><trkpt lat="37.58027619936175" lon="14.982712634077874"><ele>484.0</ele><time>2026-03-27T16:59:16.999Z</time></trkpt><trkpt lat="37.58032150680244" lon="14.982770863792249"><ele>484.0</ele><time>2026-03-27T16:59:18.999Z</time></trkpt><trkpt lat="37.58037834108708" lon="14.982863491115003"><ele>484.0</ele><time>2026-03-27T16:59:20.999Z</time></trkpt><trkpt lat="37.580419228901775" lon="14.982960263742763"><ele>484.00000000000006</ele><time>2026-03-27T16:59:21.999Z</time></trkpt><trkpt lat="37.580484774352975" lon="14.983070628501302"><ele>484.0</ele><time>2026-03-27T16:59:22.999Z</time></trkpt><trkpt lat="37.580561038585465" lon="14.983199843599818"><ele>486.33333333333337</ele><time>2026-03-27T16:59:23.999Z</time></trkpt><trkpt lat="37.580637928939765" lon="14.983351545450097"><ele>488.66666666666663</ele><time>2026-03-27T16:59:24.999Z</time></trkpt><trkpt lat="37.58071221102338" lon="14.983520198308272"><ele>491.0</ele><time>2026-03-27T16:59:25.999Z</time></trkpt><trkpt lat="37.58078926287132" lon="14.983710653771409"><ele>491.0</ele><time>2026-03-27T16:59:26.999Z</time></trkpt><trkpt lat="37.58087050611508" lon="14.983915336699402"><ele>491.0</ele><time>2026-03-27T16:59:27.999Z</time></trkpt><trkpt lat="37.58095197709198" lon="14.984124987765103"><ele>491.0</ele><time>2026-03-27T16:59:28.999Z</time></trkpt><trkpt lat="37.58104060658137" lon="14.984336955834463"><ele>490.66666666666663</ele><time>2026-03-27T16:59:29.999Z</time></trkpt><trkpt lat="37.58112748119871" lon="14.984551995882107"><ele>490.33333333333337</ele><time>2026-03-27T16:59:30.999Z</time></trkpt><trkpt lat="37.5812095020293" lon="14.984745532255056"><ele>490.0</ele><time>2026-03-27T16:59:31.999Z</time></trkpt><trkpt lat="37.581298293671786" lon="14.984912182909634"><ele>490.6666666666667</ele><time>2026-03-27T16:59:33Z</time></trkpt><trkpt lat="37.58140338454963" lon="14.985067393054981"><ele>491.33333333333337</ele><time>2026-03-27T16:59:34Z</time></trkpt><trkpt lat="37.581538747218765" lon="14.98519172213813"><ele>492.0</ele><time>2026-03-27T16:59:35Z</time></trkpt><trkpt lat="37.58168533825713" lon="14.985278464462795"><ele>492.0</ele><time>2026-03-27T16:59:36Z</time></trkpt><trkpt lat="37.58185090430186" lon="14.985341278161442"><ele>492.0</ele><time>2026-03-27T16:59:37Z</time></trkpt><trkpt lat="37.58202211727995" lon="14.985386717633235"><ele>492.0</ele><time>2026-03-27T16:59:38Z</time></trkpt><trkpt lat="37.58219047317371" lon="14.985429670893309"><ele>493.66666666666663</ele><time>2026-03-27T16:59:39Z</time></trkpt><trkpt lat="37.582361457372514" lon="14.98548112465308"><ele>495.3333333333333</ele><time>2026-03-27T16:59:40Z</time></trkpt><trkpt lat="37.582543046487544" lon="14.985542937788223"><ele>497.0</ele><time>2026-03-27T16:59:41Z</time></trkpt><trkpt lat="37.58273318811772" lon="14.985605596255409"><ele>497.3333333333333</ele><time>2026-03-27T16:59:42Z</time></trkpt><trkpt lat="37.582928561960514" lon="14.985664462838441"><ele>497.66666666666663</ele><time>2026-03-27T16:59:43Z</time></trkpt><trkpt lat="37.58312702522063" lon="14.985727506744276"><ele>498.0</ele><time>2026-03-27T16:59:44Z</time></trkpt><trkpt lat="37.583324473525344" lon="14.98579157134669"><ele>499.66666666666663</ele><time>2026-03-27T16:59:45Z</time></trkpt><trkpt lat="37.58352492695852" lon="14.985859155893767"><ele>501.3333333333333</ele><time>2026-03-27T16:59:46Z</time></trkpt><trkpt lat="37.583723526169365" lon="14.98593094708946"><ele>503.0</ele><time>2026-03-27T16:59:47Z</time></trkpt><trkpt lat="37.58392091832645" lon="14.986000658844063"><ele>504.3333333333333</ele><time>2026-03-27T16:59:48Z</time></trkpt><trkpt lat="37.584118488273205" lon="14.98607274108049"><ele>505.66666666666663</ele><time>2026-03-27T16:59:49Z</time></trkpt><trkpt lat="37.584317822789764" lon="14.986143322813408"><ele>507.0</ele><time>2026-03-27T16:59:50Z</time></trkpt><trkpt lat="37.58451915486176" lon="14.986209909764124"><ele>510.0</ele><time>2026-03-27T16:59:51Z</time></trkpt><trkpt lat="37.584722636139524" lon="14.9862743993903"><ele>513.0</ele><time>2026-03-27T16:59:52Z</time></trkpt><trkpt lat="37.58492496345085" lon="14.986341439190204"><ele>516.0</ele><time>2026-03-27T16:59:53Z</time></trkpt><trkpt lat="37.585125467495914" lon="14.98640748545143"><ele>516.0</ele><time>2026-03-27T16:59:54Z</time></trkpt><trkpt lat="37.58532693383627" lon="14.986475226869578"><ele>516.0</ele><time>2026-03-27T16:59:55Z</time></trkpt><trkpt lat="37.58551463012229" lon="14.986540966145478"><ele>516.0</ele><time>2026-03-27T16:59:56Z</time></trkpt><trkpt lat="37.585684181689516" lon="14.98659771709305"><ele>517.6666666666666</ele><time>2026-03-27T16:59:57Z</time></trkpt><trkpt lat="37.585844574813876" lon="14.986653321627244"><ele>519.3333333333333</ele><time>2026-03-27T16:59:58Z</time></trkpt><trkpt lat="37.58599762243167" lon="14.986706070021551"><ele>521.0</ele><time>2026-03-27T16:59:59Z</time></trkpt><trkpt lat="37.58613842714308" lon="14.986758642455534"><ele>523.6</ele><time>2026-03-27T17:00:00Z</time></trkpt><trkpt lat="37.58626209624382" lon="14.986804243557557"><ele>526.2</ele><time>2026-03-27T17:00:01Z</time></trkpt><trkpt lat="37.586373085377595" lon="14.986842224388534"><ele>528.8</ele><time>2026-03-27T17:00:02Z</time></trkpt><trkpt lat="37.58645745293644" lon="14.986858337637987"><ele>531.4</ele><time>2026-03-27T17:00:03Z</time></trkpt><trkpt lat="37.586526623730535" lon="14.986834468404837"><ele>534.0</ele><time>2026-03-27T17:00:04Z</time></trkpt><trkpt lat="37.58657720094215" lon="14.986779913990782"><ele>534.0</ele><time>2026-03-27T17:00:05Z</time></trkpt><trkpt lat="37.586608829162344" lon="14.986695124765781"><ele>534.0</ele><time>2026-03-27T17:00:06Z</time></trkpt><trkpt lat="37.58661611638327" lon="14.986588454795886"><ele>534.0</ele><time>2026-03-27T17:00:07Z</time></trkpt><trkpt lat="37.58660601231058" lon="14.98646023433466"><ele>534.0</ele><time>2026-03-27T17:00:08Z</time></trkpt><trkpt lat="37.586591778543045" lon="14.986319985701803"><ele>534.0</ele><time>2026-03-27T17:00:09Z</time></trkpt><trkpt lat="37.58655668790193" lon="14.986166166684614"><ele>532.0</ele><time>2026-03-27T17:00:10Z</time></trkpt><trkpt lat="37.58656778875363" lon="14.985991802414574"><ele>530.0</ele><time>2026-03-27T17:00:11Z</time></trkpt><trkpt lat="37.58655970800471" lon="14.985836691370485"><ele>528.0</ele><time>2026-03-27T17:00:12Z</time></trkpt><trkpt lat="37.586552556609284" lon="14.985698625579506"><ele>526.0</ele><time>2026-03-27T17:00:13Z</time></trkpt><trkpt lat="37.58654492400936" lon="14.985561633626473"><ele>525.1666666666667</ele><time>2026-03-27T17:00:14Z</time></trkpt><trkpt lat="37.58653734539872" lon="14.985429968005187"><ele>524.3333333333334</ele><time>2026-03-27T17:00:15Z</time></trkpt><trkpt lat="37.58653193339004" lon="14.985311765890572"><ele>523.5</ele><time>2026-03-27T17:00:16Z</time></trkpt><trkpt lat="37.58653391314261" lon="14.985208785007304"><ele>522.6666666666666</ele><time>2026-03-27T17:00:17Z</time></trkpt><trkpt lat="37.58655257535012" lon="14.985128185454403"><ele>521.8333333333333</ele><time>2026-03-27T17:00:18Z</time></trkpt><trkpt lat="37.586571241234736" lon="14.985051335473894"><ele>521.0</ele><time>2026-03-27T17:00:19Z</time></trkpt><trkpt lat="37.58661060511959" lon="14.984978004890491"><ele>520.5</ele><time>2026-03-27T17:00:20Z</time></trkpt><trkpt lat="37.58673732147441" lon="14.984986108985721"><ele>520.0</ele><time>2026-03-27T17:00:21Z</time></trkpt><trkpt lat="37.58684338567673" lon="14.98497565153175"><ele>519.5</ele><time>2026-03-27T17:00:22Z</time></trkpt><trkpt lat="37.586958613489806" lon="14.984973144484828"><ele>519.0</ele><time>2026-03-27T17:00:23Z</time></trkpt><trkpt lat="37.58708239033177" lon="14.984963654704742"><ele>520.75</ele><time>2026-03-27T17:00:24Z</time></trkpt><trkpt lat="37.58721724560542" lon="14.984951408900093"><ele>522.5</ele><time>2026-03-27T17:00:24.999Z</time></trkpt><trkpt lat="37.58735898585598" lon="14.984937241707769"><ele>524.25</ele><time>2026-03-27T17:00:25.999Z</time></trkpt><trkpt lat="37.58750156821432" lon="14.98492003096265"><ele>526.0</ele><time>2026-03-27T17:00:26.999Z</time></trkpt><trkpt lat="37.58764469733058" lon="14.984903256795075"><ele>526.0</ele><time>2026-03-27T17:00:27.999Z</time></trkpt><trkpt lat="37.58778904162214" lon="14.984887474880733"><ele>526.0</ele><time>2026-03-27T17:00:28.999Z</time></trkpt><trkpt lat="37.58793906696373" lon="14.984871442238637"><ele>526.0</ele><time>2026-03-27T17:00:29.999Z</time></trkpt><trkpt lat="37.58808253372096" lon="14.984860277933196"><ele>526.0</ele><time>2026-03-27T17:00:30.999Z</time></trkpt><trkpt lat="37.58822299654267" lon="14.9848508598642"><ele>527.5</ele><time>2026-03-27T17:00:31.999Z</time></trkpt><trkpt lat="37.588357687425706" lon="14.984838204434629"><ele>529.0</ele><time>2026-03-27T17:00:32.999Z</time></trkpt><trkpt lat="37.58849137458077" lon="14.984823277738718"><ele>530.5</ele><time>2026-03-27T17:00:33.999Z</time></trkpt><trkpt lat="37.588622300032014" lon="14.984805460464404"><ele>532.0</ele><time>2026-03-27T17:00:34.999Z</time></trkpt><trkpt lat="37.588755373855065" lon="14.984788044345038"><ele>533.75</ele><time>2026-03-27T17:00:35.999Z</time></trkpt><trkpt lat="37.588890790953755" lon="14.984777928191237"><ele>535.5</ele><time>2026-03-27T17:00:36.999Z</time></trkpt><trkpt lat="37.58902842988693" lon="14.98476813622331"><ele>537.25</ele><time>2026-03-27T17:00:37.999Z</time></trkpt><trkpt lat="37.58916584406762" lon="14.984754731015663"><ele>539.0</ele><time>2026-03-27T17:00:38.999Z</time></trkpt><trkpt lat="37.589304870681026" lon="14.984737652612411"><ele>539.0</ele><time>2026-03-27T17:00:39.999Z</time></trkpt><trkpt lat="37.589447705726975" lon="14.984721879320784"><ele>539.0</ele><time>2026-03-27T17:00:40.999Z</time></trkpt><trkpt lat="37.58958963063179" lon="14.984708312255659"><ele>539.0</ele><time>2026-03-27T17:00:41.999Z</time></trkpt><trkpt lat="37.58973671347011" lon="14.984695209605302"><ele>539.0</ele><time>2026-03-27T17:00:42.999Z</time></trkpt><trkpt lat="37.589886139561244" lon="14.984683976397957"><ele>539.5</ele><time>2026-03-27T17:00:43.999Z</time></trkpt><trkpt lat="37.59003878937078" lon="14.984669608291535"><ele>540.0</ele><time>2026-03-27T17:00:44.999Z</time></trkpt><trkpt lat="37.59019195840616" lon="14.98465354298111"><ele>540.5</ele><time>2026-03-27T17:00:45.999Z</time></trkpt><trkpt lat="37.59033057214164" lon="14.984639223009268"><ele>541.0</ele><time>2026-03-27T17:00:46.999Z</time></trkpt><trkpt lat="37.59045880323814" lon="14.984631965081073"><ele>542.5</ele><time>2026-03-27T17:00:47.999Z</time></trkpt><trkpt lat="37.59057331614148" lon="14.984641113201821"><ele>544.0</ele><time>2026-03-27T17:00:48.999Z</time></trkpt><trkpt lat="37.590687909306126" lon="14.984670019889354"><ele>545.5</ele><time>2026-03-27T17:00:49.999Z</time></trkpt><trkpt lat="37.59079670014159" lon="14.984707504496676"><ele>547.0</ele><time>2026-03-27T17:00:50.999Z</time></trkpt><trkpt lat="37.59091118603849" lon="14.984757128987432"><ele>547.0</ele><time>2026-03-27T17:00:51.999Z</time></trkpt><trkpt lat="37.591028643736784" lon="14.98482157850989"><ele>547.0</ele><time>2026-03-27T17:00:52.999Z</time></trkpt><trkpt lat="37.59114421729118" lon="14.984898015354485"><ele>547.0</ele><time>2026-03-27T17:00:53.999Z</time></trkpt><trkpt lat="37.591263991674786" lon="14.984986670383071"><ele>547.0</ele><time>2026-03-27T17:00:54.999Z</time></trkpt><trkpt lat="37.59137862633509" lon="14.985091697665025"><ele>547.6666666666667</ele><time>2026-03-27T17:00:55.999Z</time></trkpt><trkpt lat="37.59149513605762" lon="14.985210783587815"><ele>548.3333333333334</ele><time>2026-03-27T17:00:56.999Z</time></trkpt><trkpt lat="37.59161670292668" lon="14.985338717717953"><ele>549.0</ele><time>2026-03-27T17:00:57.999Z</time></trkpt><trkpt lat="37.59174090775379" lon="14.985467683155345"><ele>549.0</ele><time>2026-03-27T17:00:58.999Z</time></trkpt><trkpt lat="37.59186963627475" lon="14.985601654577508"><ele>549.0</ele><time>2026-03-27T17:00:59.999Z</time></trkpt><trkpt lat="37.59200294935523" lon="14.985737111633888"><ele>549.0</ele><time>2026-03-27T17:01:00.999Z</time></trkpt><trkpt lat="37.59213267029111" lon="14.985866279978616"><ele>550.6666666666666</ele><time>2026-03-27T17:01:01.999Z</time></trkpt><trkpt lat="37.59226141308432" lon="14.985995510779118"><ele>552.3333333333333</ele><time>2026-03-27T17:01:02.999Z</time></trkpt><trkpt lat="37.592387273806914" lon="14.98612279322933"><ele>554.0</ele><time>2026-03-27T17:01:03.999Z</time></trkpt><trkpt lat="37.59250843729053" lon="14.986245826175734"><ele>554.0</ele><time>2026-03-27T17:01:04.999Z</time></trkpt><trkpt lat="37.592627267262046" lon="14.986365387039978"><ele>554.0</ele><time>2026-03-27T17:01:05.999Z</time></trkpt><trkpt lat="37.59273655824488" lon="14.986476461208975"><ele>554.0</ele><time>2026-03-27T17:01:06.999Z</time></trkpt><trkpt lat="37.592838919780625" lon="14.986578583244825"><ele>554.0</ele><time>2026-03-27T17:01:07.999Z</time></trkpt><trkpt lat="37.592942827625635" lon="14.986684625510213"><ele>556.0</ele><time>2026-03-27T17:01:08.999Z</time></trkpt><trkpt lat="37.593048632391685" lon="14.986793999237193"><ele>558.0</ele><time>2026-03-27T17:01:09.999Z</time></trkpt><trkpt lat="37.59315535998225" lon="14.986905230030603"><ele>560.0</ele><time>2026-03-27T17:01:10.999Z</time></trkpt><trkpt lat="37.59326646950215" lon="14.987016855432662"><ele>562.0</ele><time>2026-03-27T17:01:11.999Z</time></trkpt><trkpt lat="37.593379148285116" lon="14.987123726393358"><ele>562.0</ele><time>2026-03-27T17:01:12.999Z</time></trkpt><trkpt lat="37.59349034168388" lon="14.987218058512745"><ele>562.0</ele><time>2026-03-27T17:01:13.999Z</time></trkpt><trkpt lat="37.59358919325606" lon="14.987291623310444"><ele>562.0</ele><time>2026-03-27T17:01:14.999Z</time></trkpt><trkpt lat="37.59367796441744" lon="14.987348898882498"><ele>562.0</ele><time>2026-03-27T17:01:15.999Z</time></trkpt><trkpt lat="37.593750488389766" lon="14.98739294542712"><ele>562.0</ele><time>2026-03-27T17:01:16.999Z</time></trkpt><trkpt lat="37.59384709150469" lon="14.987451379570418"><ele>563.0</ele><time>2026-03-27T17:01:18.999Z</time></trkpt><trkpt lat="37.5939413061751" lon="14.987523340092942"><ele>564.0</ele><time>2026-03-27T17:01:20.999Z</time></trkpt><trkpt lat="37.59399889909583" lon="14.98758008164144"><ele>565.0</ele><time>2026-03-27T17:01:21.999Z</time></trkpt><trkpt lat="37.594068174053355" lon="14.987647585221122"><ele>566.0</ele><time>2026-03-27T17:01:22.999Z</time></trkpt><trkpt lat="37.5941691147559" lon="14.987660030436711"><ele>567.0</ele><time>2026-03-27T17:01:23.999Z</time></trkpt><trkpt lat="37.59426937814589" lon="14.987697397982284"><ele>567.0</ele><time>2026-03-27T17:01:24.999Z</time></trkpt><trkpt lat="37.59437877468877" lon="14.987753434584212"><ele>567.0</ele><time>2026-03-27T17:01:25.999Z</time></trkpt><trkpt lat="37.59450112929923" lon="14.987819570837276"><ele>567.0</ele><time>2026-03-27T17:01:26.999Z</time></trkpt><trkpt lat="37.594623606759086" lon="14.987890315684991"><ele>567.0</ele><time>2026-03-27T17:01:27.999Z</time></trkpt><trkpt lat="37.594753458988706" lon="14.98796907826161"><ele>569.3333333333334</ele><time>2026-03-27T17:01:28.999Z</time></trkpt><trkpt lat="37.594890151030036" lon="14.988047793512946"><ele>571.6666666666667</ele><time>2026-03-27T17:01:29.999Z</time></trkpt><trkpt lat="37.5950273089454" lon="14.98812842045058"><ele>574.0</ele><time>2026-03-27T17:01:30.999Z</time></trkpt><trkpt lat="37.59517085362777" lon="14.988210941017577"><ele>574.0</ele><time>2026-03-27T17:01:31.999Z</time></trkpt><trkpt lat="37.59531962980719" lon="14.988295762965631"><ele>574.0</ele><time>2026-03-27T17:01:32.999Z</time></trkpt><trkpt lat="37.59547153255609" lon="14.988383089417582"><ele>574.0</ele><time>2026-03-27T17:01:33.999Z</time></trkpt><trkpt lat="37.595628932937665" lon="14.988472010259258"><ele>574.0</ele><time>2026-03-27T17:01:34.999Z</time></trkpt><trkpt lat="37.595785318276796" lon="14.988582884947792"><ele>574.0</ele><time>2026-03-27T17:01:35.999Z</time></trkpt><trkpt lat="37.59595193720688" lon="14.988661679048056"><ele>574.0</ele><time>2026-03-27T17:01:36.999Z</time></trkpt><trkpt lat="37.596115116643475" lon="14.988775829016255"><ele>577.0</ele><time>2026-03-27T17:01:37.999Z</time></trkpt><trkpt lat="37.59628669699745" lon="14.988876205837641"><ele>580.0</ele><time>2026-03-27T17:01:39Z</time></trkpt><trkpt lat="37.59646679445858" lon="14.988981565279277"><ele>583.0</ele><time>2026-03-27T17:01:40Z</time></trkpt><trkpt lat="37.59665435017148" lon="14.98909162644626"><ele>582.3333333333334</ele><time>2026-03-27T17:01:41Z</time></trkpt><trkpt lat="37.59684142385083" lon="14.989200905957976"><ele>581.6666666666666</ele><time>2026-03-27T17:01:42Z</time></trkpt><trkpt lat="37.59703120172725" lon="14.989302280265399"><ele>581.0</ele><time>2026-03-27T17:01:43Z</time></trkpt><trkpt lat="37.59721872665254" lon="14.989410000624144"><ele>584.0</ele><time>2026-03-27T17:01:44Z</time></trkpt><trkpt lat="37.59740973228951" lon="14.989498311620101"><ele>587.0</ele><time>2026-03-27T17:01:45Z</time></trkpt><trkpt lat="37.59760043600116" lon="14.98957976057261"><ele>590.0</ele><time>2026-03-27T17:01:46Z</time></trkpt><trkpt lat="37.59779261344465" lon="14.989656474510745"><ele>591.6666666666666</ele><time>2026-03-27T17:01:47Z</time></trkpt><trkpt lat="37.59798238789433" lon="14.989732203429826"><ele>593.3333333333334</ele><time>2026-03-27T17:01:48Z</time></trkpt><trkpt lat="37.59817462321866" lon="14.98981034788523"><ele>595.0</ele><time>2026-03-27T17:01:49Z</time></trkpt><trkpt lat="37.59836323235511" lon="14.98988818793491"><ele>595.0</ele><time>2026-03-27T17:01:50Z</time></trkpt><trkpt lat="37.598545861308345" lon="14.989963670467656"><ele>595.0</ele><time>2026-03-27T17:01:51Z</time></trkpt><trkpt lat="37.59872655618254" lon="14.990040327771254"><ele>595.0</ele><time>2026-03-27T17:01:52Z</time></trkpt><trkpt lat="37.59890696629374" lon="14.990115794062444"><ele>597.6666666666667</ele><time>2026-03-27T17:01:53Z</time></trkpt><trkpt lat="37.59908267312529" lon="14.990188003522956"><ele>600.3333333333334</ele><time>2026-03-27T17:01:54Z</time></trkpt><trkpt lat="37.59924421945371" lon="14.990256616033282"><ele>603.0</ele><time>2026-03-27T17:01:55Z</time></trkpt><trkpt lat="37.59940143405228" lon="14.990311317420497"><ele>604.0</ele><time>2026-03-27T17:01:56Z</time></trkpt><trkpt lat="37.599550169994906" lon="14.990349696322207"><ele>605.0</ele><time>2026-03-27T17:01:57Z</time></trkpt><trkpt lat="37.59969405825642" lon="14.990383995907097"><ele>606.0</ele><time>2026-03-27T17:01:58Z</time></trkpt><trkpt lat="37.59984585884206" lon="14.990399007165372"><ele>606.0</ele><time>2026-03-27T17:01:59Z</time></trkpt><trkpt lat="37.59998404025192" lon="14.990405288934209"><ele>606.0</ele><time>2026-03-27T17:02:00Z</time></trkpt><trkpt lat="37.60011342667065" lon="14.990397147206236"><ele>606.0</ele><time>2026-03-27T17:02:01Z</time></trkpt><trkpt lat="37.60023419212783" lon="14.990390542483086"><ele>606.0</ele><time>2026-03-27T17:02:02Z</time></trkpt><trkpt lat="37.600351059412716" lon="14.990383907525755"><ele>607.5</ele><time>2026-03-27T17:02:03Z</time></trkpt><trkpt lat="37.60046601494824" lon="14.990375937901954"><ele>609.0</ele><time>2026-03-27T17:02:04Z</time></trkpt><trkpt lat="37.600585314980734" lon="14.990368502675585"><ele>610.5</ele><time>2026-03-27T17:02:05Z</time></trkpt><trkpt lat="37.600707844756315" lon="14.990361644961828"><ele>612.0</ele><time>2026-03-27T17:02:06Z</time></trkpt><trkpt lat="37.60082013687739" lon="14.990356104358103"><ele>612.0</ele><time>2026-03-27T17:02:07Z</time></trkpt><trkpt lat="37.60092586094806" lon="14.990348407004138"><ele>612.0</ele><time>2026-03-27T17:02:08Z</time></trkpt><trkpt lat="37.60103382608129" lon="14.990339339381585"><ele>612.0</ele><time>2026-03-27T17:02:09Z</time></trkpt><trkpt lat="37.60114870069426" lon="14.990323004534508"><ele>612.0</ele><time>2026-03-27T17:02:10Z</time></trkpt><trkpt lat="37.601261807345296" lon="14.990310564920804"><ele>612.0</ele><time>2026-03-27T17:02:11Z</time></trkpt><trkpt lat="37.60136925714977" lon="14.990296229804247"><ele>612.4</ele><time>2026-03-27T17:02:12Z</time></trkpt><trkpt lat="37.60147391044003" lon="14.990280784672988"><ele>612.8000000000001</ele><time>2026-03-27T17:02:13Z</time></trkpt><trkpt lat="37.601578267531075" lon="14.990259837814802"><ele>613.2</ele><time>2026-03-27T17:02:14Z</time></trkpt><trkpt lat="37.60167326817865" lon="14.99023112359993"><ele>613.6</ele><time>2026-03-27T17:02:15Z</time></trkpt><trkpt lat="37.60175622152444" lon="14.990198618527472"><ele>614.0</ele><time>2026-03-27T17:02:16Z</time></trkpt><trkpt lat="37.60182693185863" lon="14.990162789302643"><ele>614.0</ele><time>2026-03-27T17:02:17Z</time></trkpt><trkpt lat="37.60189086313142" lon="14.990126850483678"><ele>614.0</ele><time>2026-03-27T17:02:18Z</time></trkpt><trkpt lat="37.60196190853472" lon="14.990087645535779"><ele>614.0</ele><time>2026-03-27T17:02:19Z</time></trkpt><trkpt lat="37.602031064572664" lon="14.990062385497238"><ele>614.0</ele><time>2026-03-27T17:02:20Z</time></trkpt><trkpt lat="37.602151303352024" lon="14.990089382261273"><ele>614.0</ele><time>2026-03-27T17:02:22Z</time></trkpt><trkpt lat="37.60221810365375" lon="14.990138921682778"><ele>614.0</ele><time>2026-03-27T17:02:23Z</time></trkpt><trkpt lat="37.60227149670998" lon="14.99019283214183"><ele>614.1666666666666</ele><time>2026-03-27T17:02:24Z</time></trkpt><trkpt lat="37.602374540783465" lon="14.990239015822077"><ele>614.3333333333333</ele><time>2026-03-27T17:02:26Z</time></trkpt><trkpt lat="37.60246842398769" lon="14.99014812202818"><ele>614.5</ele><time>2026-03-27T17:02:27.999Z</time></trkpt><trkpt lat="37.60249497777697" lon="14.990070887164457"><ele>614.6666666666666</ele><time>2026-03-27T17:02:28.999Z</time></trkpt><trkpt lat="37.60253358121868" lon="14.990002738354324"><ele>614.8333333333334</ele><time>2026-03-27T17:02:29.999Z</time></trkpt><trkpt lat="37.602593622901736" lon="14.989960668477062"><ele>615.0</ele><time>2026-03-27T17:02:30.999Z</time></trkpt><trkpt lat="37.602716586525844" lon="14.989947806690251"><ele>615.2857142857142</ele><time>2026-03-27T17:02:32.999Z</time></trkpt><trkpt lat="37.60278337760462" lon="14.989942615080361"><ele>615.5714285714287</ele><time>2026-03-27T17:02:33.999Z</time></trkpt><trkpt lat="37.60285031553978" lon="14.989941074534293"><ele>615.8571428571429</ele><time>2026-03-27T17:02:34.999Z</time></trkpt><trkpt lat="37.60291687598716" lon="14.989940970934931"><ele>616.1428571428571</ele><time>2026-03-27T17:02:35.999Z</time></trkpt><trkpt lat="37.60298449539258" lon="14.98994043894991"><ele>616.4285714285713</ele><time>2026-03-27T17:02:36.999Z</time></trkpt><trkpt lat="37.60305917874582" lon="14.989937917919068"><ele>616.7142857142858</ele><time>2026-03-27T17:02:37.999Z</time></trkpt><trkpt lat="37.603137884836826" lon="14.989934189020733"><ele>617.0</ele><time>2026-03-27T17:02:38.999Z</time></trkpt><trkpt lat="37.603221680283276" lon="14.989932238461236"><ele>619.0</ele><time>2026-03-27T17:02:39.999Z</time></trkpt><trkpt lat="37.60330391400345" lon="14.98992769176051"><ele>621.0</ele><time>2026-03-27T17:02:40.999Z</time></trkpt><trkpt lat="37.60338508557445" lon="14.989925914463896"><ele>623.0</ele><time>2026-03-27T17:02:41.999Z</time></trkpt><trkpt lat="37.60346426073523" lon="14.98992462115008"><ele>625.0</ele><time>2026-03-27T17:02:42.999Z</time></trkpt><trkpt lat="37.60354435882309" lon="14.989907242582895"><ele>627.0</ele><time>2026-03-27T17:02:43.999Z</time></trkpt><trkpt lat="37.603623806692404" lon="14.989873191754548"><ele>629.0</ele><time>2026-03-27T17:02:44.999Z</time></trkpt><trkpt lat="37.60369907503866" lon="14.989828831265726"><ele>629.8333333333333</ele><time>2026-03-27T17:02:45.999Z</time></trkpt><trkpt lat="37.60376697961411" lon="14.989781663493568"><ele>630.6666666666666</ele><time>2026-03-27T17:02:46.999Z</time></trkpt><trkpt lat="37.60383049902345" lon="14.989739200963607"><ele>631.5</ele><time>2026-03-27T17:02:47.999Z</time></trkpt><trkpt lat="37.603888073742034" lon="14.989705179914793"><ele>632.3333333333334</ele><time>2026-03-27T17:02:48.999Z</time></trkpt><trkpt lat="37.60399220229969" lon="14.989639898420556"><ele>633.1666666666667</ele><time>2026-03-27T17:02:50.999Z</time></trkpt><trkpt lat="37.60407827642704" lon="14.98958735936999"><ele>634.0</ele><time>2026-03-27T17:02:52.999Z</time></trkpt><trkpt lat="37.604161609654064" lon="14.98956084434666"><ele>634.0</ele><time>2026-03-27T17:02:54.999Z</time></trkpt><trkpt lat="37.60424745886057" lon="14.9895536691887"><ele>634.0</ele><time>2026-03-27T17:02:57.999Z</time></trkpt><trkpt lat="37.60433202256518" lon="14.989509358755406"><ele>634.0</ele><time>2026-03-27T17:02:59.999Z</time></trkpt><trkpt lat="37.60432900030119" lon="14.989410101441335"><ele>634.0</ele><time>2026-03-27T17:03:01.999Z</time></trkpt><trkpt lat="37.60424224912299" lon="14.98930125526949"><ele>634.0</ele><time>2026-03-27T17:03:03.999Z</time></trkpt><trkpt lat="37.604182425544266" lon="14.98923468027618"><ele>633.8</ele><time>2026-03-27T17:03:04.999Z</time></trkpt><trkpt lat="37.60411865829595" lon="14.989147137934006"><ele>633.5999999999999</ele><time>2026-03-27T17:03:05.999Z</time></trkpt><trkpt lat="37.604063206381205" lon="14.98905494341614"><ele>633.4</ele><time>2026-03-27T17:03:06.999Z</time></trkpt><trkpt lat="37.60401360873141" lon="14.98896864256277"><ele>633.1999999999999</ele><time>2026-03-27T17:03:07.999Z</time></trkpt><trkpt lat="37.60396435041057" lon="14.98887847253151"><ele>633.0</ele><time>2026-03-27T17:03:08.999Z</time></trkpt><trkpt lat="37.603907600920394" lon="14.988779872643283"><ele>633.0</ele><time>2026-03-27T17:03:09.999Z</time></trkpt><trkpt lat="37.60384791938088" lon="14.988675131207646"><ele>633.0</ele><time>2026-03-27T17:03:10.999Z</time></trkpt><trkpt lat="37.60378692554384" lon="14.988572165385284"><ele>633.0</ele><time>2026-03-27T17:03:11.999Z</time></trkpt><trkpt lat="37.60372575642402" lon="14.988465596951784"><ele>633.0</ele><time>2026-03-27T17:03:12.999Z</time></trkpt><trkpt lat="37.60367278339162" lon="14.988369324272673"><ele>633.0</ele><time>2026-03-27T17:03:13.999Z</time></trkpt><trkpt lat="37.60362643063537" lon="14.98828335771332"><ele>632.8333333333334</ele><time>2026-03-27T17:03:14.999Z</time></trkpt><trkpt lat="37.60358126869287" lon="14.988204838196978"><ele>632.6666666666666</ele><time>2026-03-27T17:03:15.999Z</time></trkpt><trkpt lat="37.603540267352564" lon="14.988133743630716"><ele>632.5</ele><time>2026-03-27T17:03:16.999Z</time></trkpt><trkpt lat="37.60346770094821" lon="14.988006137219681"><ele>632.3333333333333</ele><time>2026-03-27T17:03:18.999Z</time></trkpt><trkpt lat="37.60342816867144" lon="14.987936876042353"><ele>632.1666666666666</ele><time>2026-03-27T17:03:19.999Z</time></trkpt><trkpt lat="37.603387475494635" lon="14.987864878714943"><ele>632.0</ele><time>2026-03-27T17:03:20.999Z</time></trkpt><trkpt lat="37.60333170640927" lon="14.987761814776691"><ele>632.0</ele><time>2026-03-27T17:03:22.999Z</time></trkpt><trkpt lat="37.60329610850861" lon="14.987695686970754"><ele>632.0</ele><time>2026-03-27T17:03:24.999Z</time></trkpt><trkpt lat="37.60324181039763" lon="14.987597551793053"><ele>632.0</ele><time>2026-03-27T17:03:27.999Z</time></trkpt><trkpt lat="37.60318617839627" lon="14.987502722484653"><ele>632.0</ele><time>2026-03-27T17:03:29.999Z</time></trkpt><trkpt lat="37.60312778708142" lon="14.987404793419884"><ele>632.0</ele><time>2026-03-27T17:03:31.999Z</time></trkpt><trkpt lat="37.60306493758793" lon="14.987292547202644"><ele>631.8000000000001</ele><time>2026-03-27T17:03:33.999Z</time></trkpt><trkpt lat="37.60300293799389" lon="14.987188193716962"><ele>631.6</ele><time>2026-03-27T17:03:35.999Z</time></trkpt><trkpt lat="37.602961330039626" lon="14.98711818548445"><ele>631.4000000000001</ele><time>2026-03-27T17:03:38.999Z</time></trkpt><trkpt lat="37.60289079195994" lon="14.98698848555318"><ele>631.2</ele><time>2026-03-27T17:03:42.999Z</time></trkpt><trkpt lat="37.60281883114112" lon="14.986866541848839"><ele>631.0</ele><time>2026-03-27T17:03:45Z</time></trkpt><trkpt lat="37.602777907453344" lon="14.986792552632199"><ele>630.8</ele><time>2026-03-27T17:03:46Z</time></trkpt><trkpt lat="37.602742250686816" lon="14.986721877869275"><ele>630.6</ele><time>2026-03-27T17:03:47Z</time></trkpt><trkpt lat="37.60267341888132" lon="14.986598100359094"><ele>630.4</ele><time>2026-03-27T17:03:49Z</time></trkpt><trkpt lat="37.60261336768124" lon="14.986485736267705"><ele>630.2</ele><time>2026-03-27T17:03:51Z</time></trkpt><trkpt lat="37.60255502288895" lon="14.986374708795198"><ele>630.0</ele><time>2026-03-27T17:03:53Z</time></trkpt><trkpt lat="37.60248499323159" lon="14.986249144467399"><ele>630.0</ele><time>2026-03-27T17:03:55Z</time></trkpt><trkpt lat="37.6024210585213" lon="14.986126261097954"><ele>630.0</ele><time>2026-03-27T17:03:57Z</time></trkpt><trkpt lat="37.60235938242799" lon="14.986018318280761"><ele>630.0</ele><time>2026-03-27T17:03:59Z</time></trkpt><trkpt lat="37.60229102694759" lon="14.985897180486274"><ele>630.0</ele><time>2026-03-27T17:04:01Z</time></trkpt><trkpt lat="37.60225395312164" lon="14.985829704575272"><ele>630.0</ele><time>2026-03-27T17:04:02Z</time></trkpt><trkpt lat="37.602218271041906" lon="14.98576402722472"><ele>630.0</ele><time>2026-03-27T17:04:03Z</time></trkpt><trkpt lat="37.60215036562276" lon="14.98563937997953"><ele>630.0</ele><time>2026-03-27T17:04:05Z</time></trkpt><trkpt lat="37.60208363333916" lon="14.985516444031429"><ele>630.0</ele><time>2026-03-27T17:04:07Z</time></trkpt><trkpt lat="37.602026212185635" lon="14.985403476429232"><ele>630.0</ele><time>2026-03-27T17:04:09Z</time></trkpt><trkpt lat="37.60198834770694" lon="14.985308705060094"><ele>630.0</ele><time>2026-03-27T17:04:11Z</time></trkpt><trkpt lat="37.601979787156694" lon="14.985198686758523"><ele>630.0</ele><time>2026-03-27T17:04:14Z</time></trkpt><trkpt lat="37.601970938527835" lon="14.985114084444277"><ele>630.0</ele><time>2026-03-27T17:04:33Z</time></trkpt><trkpt lat="37.60193519475595" lon="14.985180189852224"><ele>630.0</ele><time>2026-03-27T17:04:44.999Z</time></trkpt><trkpt lat="37.60196339693934" lon="14.985273003977069"><ele>630.0</ele><time>2026-03-27T17:04:47.999Z</time></trkpt><trkpt lat="37.601959185806194" lon="14.985150017013192"><ele>630.0</ele><time>2026-03-27T17:04:48.999Z</time></trkpt><trkpt lat="37.60202935519003" lon="14.985151484898543"><ele>630.0</ele><time>2026-03-27T17:04:50.999Z</time></trkpt><trkpt lat="37.6020952558966" lon="14.985262968179523"><ele>630.0</ele><time>2026-03-27T17:04:52.999Z</time></trkpt><trkpt lat="37.60216242239846" lon="14.9853309504849"><ele>630.0</ele><time>2026-03-27T17:04:54.999Z</time></trkpt><trkpt lat="37.602220253482386" lon="14.985822095789223"><ele>630.0</ele><time>2026-03-27T17:04:55.999Z</time></trkpt><trkpt lat="37.60225753471304" lon="14.9858879030195"><ele>630.0</ele><time>2026-03-27T17:04:56.999Z</time></trkpt><trkpt lat="37.60229980713141" lon="14.985957159549468"><ele>630.0</ele><time>2026-03-27T17:04:57.999Z</time></trkpt><trkpt lat="37.60234809068177" lon="14.986032472737028"><ele>630.0</ele><time>2026-03-27T17:04:58.999Z</time></trkpt><trkpt lat="37.60239045159155" lon="14.986115089310275"><ele>630.0</ele><time>2026-03-27T17:04:59.999Z</time></trkpt><trkpt lat="37.60242764138095" lon="14.986187585849441"><ele>630.0</ele><time>2026-03-27T17:05:00.999Z</time></trkpt><trkpt lat="37.60246503154122" lon="14.986253826482555"><ele>630.0</ele><time>2026-03-27T17:05:01.999Z</time></trkpt><trkpt lat="37.602502034890044" lon="14.986319566521162"><ele>630.0</ele><time>2026-03-27T17:05:02.999Z</time></trkpt><trkpt lat="37.60256247791349" lon="14.986433381700687"><ele>630.0</ele><time>2026-03-27T17:05:04.999Z</time></trkpt><trkpt lat="37.60262546823248" lon="14.98655073882672"><ele>630.0</ele><time>2026-03-27T17:05:06.999Z</time></trkpt><trkpt lat="37.60269687736322" lon="14.9866776441351"><ele>630.0</ele><time>2026-03-27T17:05:08.999Z</time></trkpt><trkpt lat="37.60273895890394" lon="14.986754060822332"><ele>630.0</ele><time>2026-03-27T17:05:09.999Z</time></trkpt><trkpt lat="37.60278491039376" lon="14.986839872327463"><ele>630.1666666666666</ele><time>2026-03-27T17:05:10.999Z</time></trkpt><trkpt lat="37.60282555370719" lon="14.986922366234944"><ele>630.3333333333334</ele><time>2026-03-27T17:05:11.999Z</time></trkpt><trkpt lat="37.60287198193962" lon="14.987008797872905"><ele>630.5</ele><time>2026-03-27T17:05:12.999Z</time></trkpt><trkpt lat="37.60292002437662" lon="14.987089987571293"><ele>630.6666666666667</ele><time>2026-03-27T17:05:13.999Z</time></trkpt><trkpt lat="37.602962574562135" lon="14.98716257465541"><ele>630.8333333333334</ele><time>2026-03-27T17:05:14.999Z</time></trkpt><trkpt lat="37.60299997921247" lon="14.987227749666713"><ele>631.0</ele><time>2026-03-27T17:05:15.999Z</time></trkpt><trkpt lat="37.60307639145256" lon="14.987359206965198"><ele>631.0</ele><time>2026-03-27T17:05:17.999Z</time></trkpt><trkpt lat="37.60311861387337" lon="14.987432829155557"><ele>631.0</ele><time>2026-03-27T17:05:18.999Z</time></trkpt><trkpt lat="37.603155758748244" lon="14.987502026153534"><ele>631.0</ele><time>2026-03-27T17:05:19.999Z</time></trkpt><trkpt lat="37.60319658749944" lon="14.987571237607794"><ele>631.0</ele><time>2026-03-27T17:05:20.999Z</time></trkpt><trkpt lat="37.603240219401265" lon="14.98764593433159"><ele>631.0</ele><time>2026-03-27T17:05:21.999Z</time></trkpt><trkpt lat="37.603281034027994" lon="14.987719453736277"><ele>631.0</ele><time>2026-03-27T17:05:22.999Z</time></trkpt><trkpt lat="37.60332313256978" lon="14.98779591068483"><ele>631.0</ele><time>2026-03-27T17:05:23.999Z</time></trkpt><trkpt lat="37.603364025061325" lon="14.987877665709107"><ele>631.1428571428572</ele><time>2026-03-27T17:05:24.999Z</time></trkpt><trkpt lat="37.60340078466805" lon="14.987952466770997"><ele>631.2857142857142</ele><time>2026-03-27T17:05:25.999Z</time></trkpt><trkpt lat="37.60343949443402" lon="14.988024438176973"><ele>631.4285714285714</ele><time>2026-03-27T17:05:26.999Z</time></trkpt><trkpt lat="37.60348046362293" lon="14.988094379481712"><ele>631.5714285714287</ele><time>2026-03-27T17:05:27.999Z</time></trkpt><trkpt lat="37.60352413144639" lon="14.988165653318111"><ele>631.7142857142858</ele><time>2026-03-27T17:05:28.999Z</time></trkpt><trkpt lat="37.60356741534072" lon="14.988243614543501"><ele>631.8571428571429</ele><time>2026-03-27T17:05:29.999Z</time></trkpt><trkpt lat="37.603611973190866" lon="14.988323488524097"><ele>632.0</ele><time>2026-03-27T17:05:30.999Z</time></trkpt><trkpt lat="37.603659687887706" lon="14.988405775119773"><ele>632.2</ele><time>2026-03-27T17:05:31.999Z</time></trkpt><trkpt lat="37.603712552827574" lon="14.98850320842182"><ele>632.4000000000001</ele><time>2026-03-27T17:05:32.999Z</time></trkpt><trkpt lat="37.603774215575584" lon="14.988610148543865"><ele>632.5999999999999</ele><time>2026-03-27T17:05:33.999Z</time></trkpt><trkpt lat="37.603835508907984" lon="14.988720613790996"><ele>632.8</ele><time>2026-03-27T17:05:34.999Z</time></trkpt><trkpt lat="37.60389479082014" lon="14.98882718245356"><ele>633.0</ele><time>2026-03-27T17:05:35.999Z</time></trkpt><trkpt lat="37.603955687885055" lon="14.988940352327106"><ele>633.0</ele><time>2026-03-27T17:05:36.999Z</time></trkpt><trkpt lat="37.60401347586289" lon="14.989049912155252"><ele>633.0</ele><time>2026-03-27T17:05:37.999Z</time></trkpt><trkpt lat="37.60406253117237" lon="14.98914488165626"><ele>633.0</ele><time>2026-03-27T17:05:38.999Z</time></trkpt><trkpt lat="37.60410457673707" lon="14.989230387063927"><ele>633.0</ele><time>2026-03-27T17:05:39.999Z</time></trkpt><trkpt lat="37.60413550225653" lon="14.989300988893385"><ele>633.0</ele><time>2026-03-27T17:05:40.999Z</time></trkpt><trkpt lat="37.60415893985808" lon="14.98937483975402"><ele>633.0</ele><time>2026-03-27T17:05:43.999Z</time></trkpt><trkpt lat="37.60419961590908" lon="14.989488754496838"><ele>633.1999999999999</ele><time>2026-03-27T17:05:45.999Z</time></trkpt><trkpt lat="37.604256984998806" lon="14.989558402420741"><ele>633.4</ele><time>2026-03-27T17:05:46.999Z</time></trkpt><trkpt lat="37.60433332152593" lon="14.989642822642681"><ele>633.5999999999999</ele><time>2026-03-27T17:05:47.999Z</time></trkpt><trkpt lat="37.60441394647822" lon="14.989752173158486"><ele>633.8</ele><time>2026-03-27T17:05:48.999Z</time></trkpt><trkpt lat="37.60449227033304" lon="14.98988155654931"><ele>634.0</ele><time>2026-03-27T17:05:49.999Z</time></trkpt><trkpt lat="37.60457105113759" lon="14.99001965893805"><ele>635.5</ele><time>2026-03-27T17:05:51Z</time></trkpt><trkpt lat="37.604651764133145" lon="14.990158405574137"><ele>637.0</ele><time>2026-03-27T17:05:52Z</time></trkpt><trkpt lat="37.60472597682131" lon="14.990293752320012"><ele>638.5</ele><time>2026-03-27T17:05:53Z</time></trkpt><trkpt lat="37.604793799347874" lon="14.990426584958868"><ele>640.0</ele><time>2026-03-27T17:05:54Z</time></trkpt><trkpt lat="37.604865533564826" lon="14.990557340980109"><ele>640.0</ele><time>2026-03-27T17:05:55Z</time></trkpt><trkpt lat="37.60494308561623" lon="14.99068493793622"><ele>640.0</ele><time>2026-03-27T17:05:56Z</time></trkpt><trkpt lat="37.605025599529455" lon="14.990804409867994"><ele>640.0</ele><time>2026-03-27T17:05:57Z</time></trkpt><trkpt lat="37.605110768075825" lon="14.990905798066944"><ele>640.0</ele><time>2026-03-27T17:05:58Z</time></trkpt><trkpt lat="37.605203741509854" lon="14.990991364213007"><ele>639.6</ele><time>2026-03-27T17:05:59Z</time></trkpt><trkpt lat="37.60529938149912" lon="14.991063493126491"><ele>639.2</ele><time>2026-03-27T17:06:00Z</time></trkpt><trkpt lat="37.605398329952166" lon="14.991136716900616"><ele>638.8</ele><time>2026-03-27T17:06:01Z</time></trkpt><trkpt lat="37.60549037789784" lon="14.99120870963034"><ele>638.4</ele><time>2026-03-27T17:06:02Z</time></trkpt><trkpt lat="37.60557131054238" lon="14.991271106149311"><ele>638.0</ele><time>2026-03-27T17:06:03Z</time></trkpt><trkpt lat="37.605648070815874" lon="14.991329420826503"><ele>639.8</ele><time>2026-03-27T17:06:04Z</time></trkpt><trkpt lat="37.605725434257806" lon="14.99138872724199"><ele>641.5999999999999</ele><time>2026-03-27T17:06:05Z</time></trkpt><trkpt lat="37.6058024901933" lon="14.991448390966593"><ele>643.4000000000001</ele><time>2026-03-27T17:06:06Z</time></trkpt><trkpt lat="37.60588586541619" lon="14.991511179314843"><ele>645.2</ele><time>2026-03-27T17:06:07Z</time></trkpt><trkpt lat="37.60597903264098" lon="14.991581122995616"><ele>647.0</ele><time>2026-03-27T17:06:08Z</time></trkpt><trkpt lat="37.60607797530734" lon="14.991654228089"><ele>647.75</ele><time>2026-03-27T17:06:09Z</time></trkpt><trkpt lat="37.606181798750505" lon="14.991731930970195"><ele>648.5</ele><time>2026-03-27T17:06:10Z</time></trkpt><trkpt lat="37.6062907487287" lon="14.991812500970163"><ele>649.25</ele><time>2026-03-27T17:06:11Z</time></trkpt><trkpt lat="37.606401846263715" lon="14.991895931750884"><ele>650.0</ele><time>2026-03-27T17:06:12Z</time></trkpt><trkpt lat="37.60650517208284" lon="14.991978912903372"><ele>650.0</ele><time>2026-03-27T17:06:13Z</time></trkpt><trkpt lat="37.60659503134388" lon="14.992072123453577"><ele>650.0</ele><time>2026-03-27T17:06:14Z</time></trkpt><trkpt lat="37.60667651754295" lon="14.992180273468268"><ele>650.0</ele><time>2026-03-27T17:06:15Z</time></trkpt><trkpt lat="37.6067299451684" lon="14.992303128723721"><ele>650.0</ele><time>2026-03-27T17:06:16Z</time></trkpt><trkpt lat="37.60674349402285" lon="14.992442139246874"><ele>650.75</ele><time>2026-03-27T17:06:17Z</time></trkpt><trkpt lat="37.606731430584695" lon="14.99259183502601"><ele>651.5</ele><time>2026-03-27T17:06:18Z</time></trkpt><trkpt lat="37.6066938285384" lon="14.992746200988355"><ele>652.25</ele><time>2026-03-27T17:06:19Z</time></trkpt><trkpt lat="37.606648818169646" lon="14.99290106499144"><ele>653.0</ele><time>2026-03-27T17:06:20Z</time></trkpt><trkpt lat="37.60661631425059" lon="14.993066343687502"><ele>653.0</ele><time>2026-03-27T17:06:21Z</time></trkpt><trkpt lat="37.606606925957905" lon="14.993235604468904"><ele>653.0</ele><time>2026-03-27T17:06:22Z</time></trkpt><trkpt lat="37.606614105064054" lon="14.993389271722643"><ele>653.0</ele><time>2026-03-27T17:06:23Z</time></trkpt><trkpt lat="37.60663254756261" lon="14.99353060027614"><ele>653.0</ele><time>2026-03-27T17:06:24Z</time></trkpt><trkpt lat="37.6066637326729" lon="14.993672379901728"><ele>654.2</ele><time>2026-03-27T17:06:25Z</time></trkpt><trkpt lat="37.60671237258911" lon="14.993812719719754"><ele>655.4</ele><time>2026-03-27T17:06:26Z</time></trkpt><trkpt lat="37.60677129330405" lon="14.993942479775026"><ele>656.6</ele><time>2026-03-27T17:06:27Z</time></trkpt><trkpt lat="37.60682401767966" lon="14.994048085653898"><ele>657.8000000000001</ele><time>2026-03-27T17:06:28Z</time></trkpt><trkpt lat="37.60687226446313" lon="14.99413651939545"><ele>659.0</ele><time>2026-03-27T17:06:29Z</time></trkpt><trkpt lat="37.606918833389045" lon="14.994219904446771"><ele>659.2</ele><time>2026-03-27T17:06:30Z</time></trkpt><trkpt lat="37.606966217154216" lon="14.994303027396695"><ele>659.4000000000001</ele><time>2026-03-27T17:06:31Z</time></trkpt><trkpt lat="37.60702119439117" lon="14.994398042765106"><ele>659.6</ele><time>2026-03-27T17:06:32Z</time></trkpt><trkpt lat="37.60708174301767" lon="14.994505911138278"><ele>659.8</ele><time>2026-03-27T17:06:33Z</time></trkpt><trkpt lat="37.60715001283909" lon="14.99462681670013"><ele>660.0</ele><time>2026-03-27T17:06:34Z</time></trkpt><trkpt lat="37.607224616802355" lon="14.994759162847707"><ele>661.0</ele><time>2026-03-27T17:06:35Z</time></trkpt><trkpt lat="37.60730317440135" lon="14.994902049633879"><ele>662.0</ele><time>2026-03-27T17:06:36Z</time></trkpt><trkpt lat="37.60738131041482" lon="14.995044880929418"><ele>663.0</ele><time>2026-03-27T17:06:37Z</time></trkpt><trkpt lat="37.6074559646501" lon="14.995180750769476"><ele>664.0</ele><time>2026-03-27T17:06:38Z</time></trkpt><trkpt lat="37.6075294992232" lon="14.99531305002619"><ele>664.5</ele><time>2026-03-27T17:06:39Z</time></trkpt><trkpt lat="37.607606239921196" lon="14.99544541535158"><ele>665.0</ele><time>2026-03-27T17:06:40Z</time></trkpt><trkpt lat="37.60769236658305" lon="14.995586527275483"><ele>665.5</ele><time>2026-03-27T17:06:41Z</time></trkpt><trkpt lat="37.60777015567623" lon="14.99576063888541"><ele>666.0</ele><time>2026-03-27T17:06:42Z</time></trkpt><trkpt lat="37.60784994883198" lon="14.995903257744509"><ele>668.1999999999999</ele><time>2026-03-27T17:06:43Z</time></trkpt><trkpt lat="37.60793189754114" lon="14.996013796711315"><ele>670.4</ele><time>2026-03-27T17:06:44Z</time></trkpt><trkpt lat="37.60799220721253" lon="14.996127789429654"><ele>672.6</ele><time>2026-03-27T17:06:44.999Z</time></trkpt><trkpt lat="37.60805184720869" lon="14.996237848066565"><ele>674.8</ele><time>2026-03-27T17:06:45.999Z</time></trkpt><trkpt lat="37.608112397389675" lon="14.99634795878446"><ele>677.0</ele><time>2026-03-27T17:06:46.999Z</time></trkpt><trkpt lat="37.60817771898868" lon="14.996458733212066"><ele>677.0</ele><time>2026-03-27T17:06:47.999Z</time></trkpt><trkpt lat="37.60824615387247" lon="14.99657502801902"><ele>677.0</ele><time>2026-03-27T17:06:48.999Z</time></trkpt><trkpt lat="37.60830920175897" lon="14.99669192021996"><ele>677.0</ele><time>2026-03-27T17:06:49.999Z</time></trkpt><trkpt lat="37.60836583769345" lon="14.996800647778535"><ele>677.0</ele><time>2026-03-27T17:06:50.999Z</time></trkpt><trkpt lat="37.60842141017702" lon="14.996924892453922"><ele>677.0</ele><time>2026-03-27T17:06:51.999Z</time></trkpt><trkpt lat="37.60845223246724" lon="14.997080293801728"><ele>677.0</ele><time>2026-03-27T17:06:52.999Z</time></trkpt><trkpt lat="37.60849868716162" lon="14.99724587494773"><ele>677.0</ele><time>2026-03-27T17:06:53.999Z</time></trkpt><trkpt lat="37.608546968393384" lon="14.997430079194285"><ele>677.0</ele><time>2026-03-27T17:06:54.999Z</time></trkpt><trkpt lat="37.608604299534264" lon="14.997648388839083"><ele>679.0</ele><time>2026-03-27T17:06:55.999Z</time></trkpt><trkpt lat="37.608665342834456" lon="14.997881708397399"><ele>681.0</ele><time>2026-03-27T17:06:56.999Z</time></trkpt><trkpt lat="37.608740909800666" lon="14.998116935300608"><ele>683.0</ele><time>2026-03-27T17:06:57.999Z</time></trkpt><trkpt lat="37.608800986957334" lon="14.998356297408375"><ele>684.0</ele><time>2026-03-27T17:06:58.999Z</time></trkpt><trkpt lat="37.60885707795253" lon="14.998562421222275"><ele>685.0</ele><time>2026-03-27T17:06:59.999Z</time></trkpt><trkpt lat="37.60891630735396" lon="14.998748082424756"><ele>686.0</ele><time>2026-03-27T17:07:00.999Z</time></trkpt><trkpt lat="37.608999549054865" lon="14.998919809846715"><ele>686.0</ele><time>2026-03-27T17:07:01.999Z</time></trkpt><trkpt lat="37.609103712087084" lon="14.999092077208402"><ele>686.0</ele><time>2026-03-27T17:07:02.999Z</time></trkpt><trkpt lat="37.60921240249067" lon="14.999266848652248"><ele>686.0</ele><time>2026-03-27T17:07:03.999Z</time></trkpt><trkpt lat="37.60931954013378" lon="14.999442262432268"><ele>686.3333333333333</ele><time>2026-03-27T17:07:04.999Z</time></trkpt><trkpt lat="37.609421930061146" lon="14.999613174036801"><ele>686.6666666666666</ele><time>2026-03-27T17:07:05.999Z</time></trkpt><trkpt lat="37.6095259403345" lon="14.999785414585249"><ele>687.0</ele><time>2026-03-27T17:07:06.999Z</time></trkpt><trkpt lat="37.60963229750885" lon="14.999956947713654"><ele>687.3333333333334</ele><time>2026-03-27T17:07:07.999Z</time></trkpt><trkpt lat="37.60973978548469" lon="15.000129513008737"><ele>687.6666666666667</ele><time>2026-03-27T17:07:08.999Z</time></trkpt><trkpt lat="37.60984858937853" lon="15.000302932977272"><ele>688.0</ele><time>2026-03-27T17:07:09.999Z</time></trkpt><trkpt lat="37.6099583596137" lon="15.000478049837874"><ele>688.0</ele><time>2026-03-27T17:07:10.999Z</time></trkpt><trkpt lat="37.6100663397504" lon="15.00065413817819"><ele>688.0</ele><time>2026-03-27T17:07:11.999Z</time></trkpt><trkpt lat="37.61017467614033" lon="15.000832597944239"><ele>688.0</ele><time>2026-03-27T17:07:12.999Z</time></trkpt><trkpt lat="37.61028575530914" lon="15.001011730986528"><ele>689.6666666666667</ele><time>2026-03-27T17:07:13.999Z</time></trkpt><trkpt lat="37.610400240909534" lon="15.001196688819949"><ele>691.3333333333334</ele><time>2026-03-27T17:07:14.999Z</time></trkpt><trkpt lat="37.610515840375385" lon="15.00138086152636"><ele>693.0</ele><time>2026-03-27T17:07:15.999Z</time></trkpt><trkpt lat="37.610627790716975" lon="15.001560945967473"><ele>692.6666666666666</ele><time>2026-03-27T17:07:16.999Z</time></trkpt><trkpt lat="37.61073082013262" lon="15.001729027033395"><ele>692.3333333333333</ele><time>2026-03-27T17:07:17.999Z</time></trkpt><trkpt lat="37.61082989634748" lon="15.001890787287952"><ele>692.0</ele><time>2026-03-27T17:07:18.999Z</time></trkpt><trkpt lat="37.61092615775247" lon="15.002042264030484"><ele>692.0</ele><time>2026-03-27T17:07:19.999Z</time></trkpt><trkpt lat="37.61101896234926" lon="15.00218876350786"><ele>692.0</ele><time>2026-03-27T17:07:20.999Z</time></trkpt><trkpt lat="37.61111031944403" lon="15.002335776318644"><ele>692.0</ele><time>2026-03-27T17:07:21.999Z</time></trkpt><trkpt lat="37.611202519752744" lon="15.002484835058734"><ele>692.0</ele><time>2026-03-27T17:07:22.999Z</time></trkpt><trkpt lat="37.61129528052687" lon="15.002631962535895"><ele>693.25</ele><time>2026-03-27T17:07:23.999Z</time></trkpt><trkpt lat="37.61138695056831" lon="15.002778185537219"><ele>694.5</ele><time>2026-03-27T17:07:24.999Z</time></trkpt><trkpt lat="37.61147757356372" lon="15.002923940358187"><ele>695.75</ele><time>2026-03-27T17:07:25.999Z</time></trkpt><trkpt lat="37.611566725832496" lon="15.003066440504044"><ele>697.0</ele><time>2026-03-27T17:07:26.999Z</time></trkpt><trkpt lat="37.61165517257769" lon="15.00320778386566"><ele>697.25</ele><time>2026-03-27T17:07:27.999Z</time></trkpt><trkpt lat="37.61173698452144" lon="15.003340768325936"><ele>697.5</ele><time>2026-03-27T17:07:28.999Z</time></trkpt><trkpt lat="37.611808764576004" lon="15.003459344339667"><ele>697.75</ele><time>2026-03-27T17:07:29.999Z</time></trkpt><trkpt lat="37.61187277563156" lon="15.003570290282486"><ele>698.0</ele><time>2026-03-27T17:07:30.999Z</time></trkpt><trkpt lat="37.61192910613241" lon="15.003686804404861"><ele>698.0</ele><time>2026-03-27T17:07:31.999Z</time></trkpt><trkpt lat="37.61196399056269" lon="15.003821703977325"><ele>698.0</ele><time>2026-03-27T17:07:32.999Z</time></trkpt><trkpt lat="37.61196901203539" lon="15.0039728544985"><ele>698.0</ele><time>2026-03-27T17:07:33.999Z</time></trkpt><trkpt lat="37.611953082014445" lon="15.004130344307569"><ele>698.0</ele><time>2026-03-27T17:07:34.999Z</time></trkpt><trkpt lat="37.61191673121917" lon="15.00429461690155"><ele>698.3333333333333</ele><time>2026-03-27T17:07:35.999Z</time></trkpt><trkpt lat="37.61186823131492" lon="15.004462920985636"><ele>698.6666666666666</ele><time>2026-03-27T17:07:36.999Z</time></trkpt><trkpt lat="37.61181079474521" lon="15.004641756516486"><ele>699.0</ele><time>2026-03-27T17:07:37.999Z</time></trkpt><trkpt lat="37.61174295814856" lon="15.00482871467906"><ele>700.0</ele><time>2026-03-27T17:07:38.999Z</time></trkpt><trkpt lat="37.61167241398032" lon="15.005023780538815"><ele>701.0</ele><time>2026-03-27T17:07:39.999Z</time></trkpt><trkpt lat="37.61160435827213" lon="15.005233601908285"><ele>702.0</ele><time>2026-03-27T17:07:40.999Z</time></trkpt><trkpt lat="37.61153497926918" lon="15.005449333856921"><ele>702.0</ele><time>2026-03-27T17:07:41.999Z</time></trkpt><trkpt lat="37.61146874895011" lon="15.005659501110689"><ele>702.0</ele><time>2026-03-27T17:07:42.999Z</time></trkpt><trkpt lat="37.6114042394063" lon="15.00585681380794"><ele>702.0</ele><time>2026-03-27T17:07:43.999Z</time></trkpt><trkpt lat="37.61134338965615" lon="15.00604473586998"><ele>702.0</ele><time>2026-03-27T17:07:44.999Z</time></trkpt><trkpt lat="37.61128561752015" lon="15.006226868493723"><ele>702.0</ele><time>2026-03-27T17:07:45.999Z</time></trkpt><trkpt lat="37.61123027970141" lon="15.006398766596947"><ele>702.0</ele><time>2026-03-27T17:07:46.999Z</time></trkpt><trkpt lat="37.611175257503106" lon="15.006569262202603"><ele>702.0</ele><time>2026-03-27T17:07:47.999Z</time></trkpt><trkpt lat="37.61111911689891" lon="15.006740292894602"><ele>702.0</ele><time>2026-03-27T17:07:48.999Z</time></trkpt><trkpt lat="37.6110627724102" lon="15.006909482629322"><ele>702.0</ele><time>2026-03-27T17:07:49.999Z</time></trkpt><trkpt lat="37.61100549903711" lon="15.007078374473622"><ele>702.0</ele><time>2026-03-27T17:07:50.999Z</time></trkpt><trkpt lat="37.6109495480626" lon="15.007246307782289"><ele>702.0</ele><time>2026-03-27T17:07:51.999Z</time></trkpt><trkpt lat="37.61089331531919" lon="15.007411629354058"><ele>702.0</ele><time>2026-03-27T17:07:52.999Z</time></trkpt><trkpt lat="37.61083767030506" lon="15.007582495787375"><ele>702.0</ele><time>2026-03-27T17:07:53.999Z</time></trkpt><trkpt lat="37.61078351529743" lon="15.007752803849579"><ele>702.0</ele><time>2026-03-27T17:07:54.999Z</time></trkpt><trkpt lat="37.61073439313833" lon="15.007914491339053"><ele>702.0</ele><time>2026-03-27T17:07:55.999Z</time></trkpt><trkpt lat="37.61069327754793" lon="15.008063890601312"><ele>702.0</ele><time>2026-03-27T17:07:57Z</time></trkpt><trkpt lat="37.61066171401915" lon="15.00820414847594"><ele>702.0</ele><time>2026-03-27T17:07:58Z</time></trkpt><trkpt lat="37.61063662169351" lon="15.008332376201539"><ele>702.0</ele><time>2026-03-27T17:07:59Z</time></trkpt><trkpt lat="37.61061620509616" lon="15.008441696729056"><ele>702.0</ele><time>2026-03-27T17:08:00Z</time></trkpt><trkpt lat="37.61059861634277" lon="15.008535015467467"><ele>702.0</ele><time>2026-03-27T17:08:01Z</time></trkpt><trkpt lat="37.610582401984786" lon="15.008624375985839"><ele>702.4000000000001</ele><time>2026-03-27T17:08:02Z</time></trkpt><trkpt lat="37.610563978744594" lon="15.008716916681399"><ele>702.8000000000001</ele><time>2026-03-27T17:08:03Z</time></trkpt><trkpt lat="37.610541716678306" lon="15.008823605317945"><ele>703.2</ele><time>2026-03-27T17:08:04Z</time></trkpt><trkpt lat="37.610520059044624" lon="15.008938274679888"><ele>703.6</ele><time>2026-03-27T17:08:05Z</time></trkpt><trkpt lat="37.61049892920796" lon="15.009059752596473"><ele>704.0</ele><time>2026-03-27T17:08:06Z</time></trkpt><trkpt lat="37.61047674807415" lon="15.009189012227449"><ele>704.6</ele><time>2026-03-27T17:08:07Z</time></trkpt><trkpt lat="37.610454009842144" lon="15.009319475379588"><ele>705.2</ele><time>2026-03-27T17:08:08Z</time></trkpt><trkpt lat="37.61043189622793" lon="15.009440055119395"><ele>705.8000000000001</ele><time>2026-03-27T17:08:09Z</time></trkpt><trkpt lat="37.6104092392865" lon="15.00956050049519"><ele>706.4000000000001</ele><time>2026-03-27T17:08:10Z</time></trkpt><trkpt lat="37.61038771485244" lon="15.00967450009091"><ele>707.0</ele><time>2026-03-27T17:08:11Z</time></trkpt><trkpt lat="37.61036691115278" lon="15.009782655934368"><ele>707.0</ele><time>2026-03-27T17:08:12Z</time></trkpt><trkpt lat="37.610351620787576" lon="15.009876248923009"><ele>707.0</ele><time>2026-03-27T17:08:13Z</time></trkpt><trkpt lat="37.61034167467406" lon="15.009956674788357"><ele>707.0</ele><time>2026-03-27T17:08:14Z</time></trkpt><trkpt lat="37.61032894230141" lon="15.010101343372114"><ele>707.0</ele><time>2026-03-27T17:08:16Z</time></trkpt><trkpt lat="37.61031069101307" lon="15.010204471544014"><ele>707.0</ele><time>2026-03-27T17:08:18Z</time></trkpt><trkpt lat="37.61027604178647" lon="15.010332139209845"><ele>707.0</ele><time>2026-03-27T17:08:20Z</time></trkpt><trkpt lat="37.61027475441476" lon="15.010455087437329"><ele>707.5</ele><time>2026-03-27T17:08:22Z</time></trkpt><trkpt lat="37.61035741004189" lon="15.010537131686233"><ele>708.0</ele><time>2026-03-27T17:08:24Z</time></trkpt><trkpt lat="37.61042293513245" lon="15.010547328548524"><ele>708.5</ele><time>2026-03-27T17:08:25Z</time></trkpt><trkpt lat="37.61049563280942" lon="15.010560000215008"><ele>709.0</ele><time>2026-03-27T17:08:26Z</time></trkpt><trkpt lat="37.6105593105182" lon="15.01059481275574"><ele>709.5</ele><time>2026-03-27T17:08:27Z</time></trkpt><trkpt lat="37.610621986523874" lon="15.01064614405658"><ele>710.0</ele><time>2026-03-27T17:08:28Z</time></trkpt><trkpt lat="37.610677078423535" lon="15.010713915933646"><ele>710.0</ele><time>2026-03-27T17:08:29Z</time></trkpt><trkpt lat="37.61073795620657" lon="15.010791441496211"><ele>710.0</ele><time>2026-03-27T17:08:30Z</time></trkpt><trkpt lat="37.610801145385786" lon="15.010880949574982"><ele>710.0</ele><time>2026-03-27T17:08:31Z</time></trkpt><trkpt lat="37.61086751739226" lon="15.010977944105836"><ele>710.0</ele><time>2026-03-27T17:08:32Z</time></trkpt><trkpt lat="37.61092832502562" lon="15.011067445886452"><ele>710.0</ele><time>2026-03-27T17:08:33Z</time></trkpt><trkpt lat="37.61098552272045" lon="15.011152635040213"><ele>710.6</ele><time>2026-03-27T17:08:34Z</time></trkpt><trkpt lat="37.61104441249614" lon="15.011240826244677"><ele>711.2</ele><time>2026-03-27T17:08:35Z</time></trkpt><trkpt lat="37.61110464986369" lon="15.011332907008883"><ele>711.8</ele><time>2026-03-27T17:08:36Z</time></trkpt><trkpt lat="37.61116842723467" lon="15.011431681329695"><ele>712.4</ele><time>2026-03-27T17:08:37Z</time></trkpt><trkpt lat="37.61123865528837" lon="15.011538344503881"><ele>713.0</ele><time>2026-03-27T17:08:38Z</time></trkpt><trkpt lat="37.611314320520925" lon="15.011655041838768"><ele>715.0</ele><time>2026-03-27T17:08:39Z</time></trkpt><trkpt lat="37.61138467274016" lon="15.011783712278879"><ele>717.0</ele><time>2026-03-27T17:08:40Z</time></trkpt><trkpt lat="37.611445426756006" lon="15.011928743069209"><ele>719.0</ele><time>2026-03-27T17:08:41Z</time></trkpt><trkpt lat="37.61149280888276" lon="15.01208699999833"><ele>721.0</ele><time>2026-03-27T17:08:42Z</time></trkpt><trkpt lat="37.611526793778886" lon="15.01225518904987"><ele>721.0</ele><time>2026-03-27T17:08:43Z</time></trkpt><trkpt lat="37.611551719052365" lon="15.012435343085894"><ele>721.0</ele><time>2026-03-27T17:08:44Z</time></trkpt><trkpt lat="37.611567702760105" lon="15.012616825589557"><ele>721.0</ele><time>2026-03-27T17:08:45Z</time></trkpt><trkpt lat="37.611580930688696" lon="15.012800286343234"><ele>721.0</ele><time>2026-03-27T17:08:46Z</time></trkpt><trkpt lat="37.61159210721369" lon="15.012977820052587"><ele>721.25</ele><time>2026-03-27T17:08:47Z</time></trkpt><trkpt lat="37.61160154333684" lon="15.013149706008225"><ele>721.5</ele><time>2026-03-27T17:08:48Z</time></trkpt><trkpt lat="37.6116094635592" lon="15.013313063706047"><ele>721.75</ele><time>2026-03-27T17:08:49Z</time></trkpt><trkpt lat="37.61161812178936" lon="15.01347409280731"><ele>722.0</ele><time>2026-03-27T17:08:50Z</time></trkpt><trkpt lat="37.61162651658909" lon="15.013635043340138"><ele>722.25</ele><time>2026-03-27T17:08:50.999Z</time></trkpt><trkpt lat="37.611634718177484" lon="15.013796843693399"><ele>722.5</ele><time>2026-03-27T17:08:51.999Z</time></trkpt><trkpt lat="37.61164574419984" lon="15.013958387020333"><ele>722.75</ele><time>2026-03-27T17:08:52.999Z</time></trkpt><trkpt lat="37.61165625157388" lon="15.01411198096122"><ele>723.0</ele><time>2026-03-27T17:08:53.999Z</time></trkpt><trkpt lat="37.61166436783828" lon="15.014251530416777"><ele>723.0</ele><time>2026-03-27T17:08:54.999Z</time></trkpt><trkpt lat="37.61167209320879" lon="15.014376479424074"><ele>723.0</ele><time>2026-03-27T17:08:55.999Z</time></trkpt><trkpt lat="37.6116771126905" lon="15.014480296961896"><ele>723.0</ele><time>2026-03-27T17:08:56.999Z</time></trkpt><trkpt lat="37.61168359890499" lon="15.014563426699066"><ele>723.0</ele><time>2026-03-27T17:08:57.999Z</time></trkpt><trkpt lat="37.61168995584281" lon="15.014645669126335"><ele>723.0</ele><time>2026-03-27T17:08:58.999Z</time></trkpt><trkpt lat="37.61169780200641" lon="15.014735663518984"><ele>723.0</ele><time>2026-03-27T17:08:59.999Z</time></trkpt><trkpt lat="37.61170873271406" lon="15.014832819344095"><ele>723.0</ele><time>2026-03-27T17:09:00.999Z</time></trkpt><trkpt lat="37.611701219665946" lon="15.01493588573876"><ele>723.0</ele><time>2026-03-27T17:09:01.999Z</time></trkpt><trkpt lat="37.611708567349396" lon="15.015045109810506"><ele>723.0</ele><time>2026-03-27T17:09:02.999Z</time></trkpt><trkpt lat="37.61171645962409" lon="15.015162584925148"><ele>723.0</ele><time>2026-03-27T17:09:03.999Z</time></trkpt><trkpt lat="37.6117249185396" lon="15.015288495034026"><ele>723.0</ele><time>2026-03-27T17:09:04.999Z</time></trkpt><trkpt lat="37.611732172172296" lon="15.015401313325995"><ele>723.8333333333334</ele><time>2026-03-27T17:09:05.999Z</time></trkpt><trkpt lat="37.6117391475925" lon="15.01551064959603"><ele>724.6666666666666</ele><time>2026-03-27T17:09:06.999Z</time></trkpt><trkpt lat="37.6117594567971" lon="15.015610978065798"><ele>725.5</ele><time>2026-03-27T17:09:07.999Z</time></trkpt><trkpt lat="37.61176459297618" lon="15.015710979787325"><ele>726.3333333333333</ele><time>2026-03-27T17:09:08.999Z</time></trkpt><trkpt lat="37.61177065151438" lon="15.015802974238138"><ele>727.1666666666666</ele><time>2026-03-27T17:09:09.999Z</time></trkpt><trkpt lat="37.61178194200821" lon="15.01594442869321"><ele>728.0</ele><time>2026-03-27T17:09:11.999Z</time></trkpt><trkpt lat="37.611789452573305" lon="15.016065950651619"><ele>728.0</ele><time>2026-03-27T17:09:13.999Z</time></trkpt><trkpt lat="37.61179731560885" lon="15.016163397680238"><ele>728.0</ele><time>2026-03-27T17:09:15.999Z</time></trkpt><trkpt lat="37.611795141585844" lon="15.016250953236138"><ele>728.0</ele><time>2026-03-27T17:09:18.999Z</time></trkpt><trkpt lat="37.611823451843065" lon="15.016354135258865"><ele>728.0</ele><time>2026-03-27T17:09:37.999Z</time></trkpt><trkpt lat="37.61185628629187" lon="15.016485435889592"><ele>728.0</ele><time>2026-03-27T17:09:39.999Z</time></trkpt><trkpt lat="37.61189163364313" lon="15.016609712202678"><ele>728.0</ele><time>2026-03-27T17:09:41.999Z</time></trkpt><trkpt lat="37.61192822992066" lon="15.016724538618966"><ele>727.75</ele><time>2026-03-27T17:09:43.999Z</time></trkpt><trkpt lat="37.611970767834364" lon="15.016857728011766"><ele>727.5</ele><time>2026-03-27T17:09:45.999Z</time></trkpt><trkpt lat="37.612012216140535" lon="15.016978878822929"><ele>727.25</ele><time>2026-03-27T17:09:47.999Z</time></trkpt><trkpt lat="37.61204115569053" lon="15.017084987535254"><ele>727.0</ele><time>2026-03-27T17:09:49.999Z</time></trkpt><trkpt lat="37.61220523794825" lon="15.017087237090491"><ele>729.0</ele><time>2026-03-27T17:09:51.999Z</time></trkpt><trkpt lat="37.612286349007334" lon="15.017065815305587"><ele>731.0</ele><time>2026-03-27T17:09:52.999Z</time></trkpt><trkpt lat="37.61237584529745" lon="15.01703070892734"><ele>733.0</ele><time>2026-03-27T17:09:53.999Z</time></trkpt><trkpt lat="37.61247619014279" lon="15.016999573679128"><ele>735.0</ele><time>2026-03-27T17:09:54.999Z</time></trkpt><trkpt lat="37.61257941990036" lon="15.016971162184218"><ele>737.0</ele><time>2026-03-27T17:09:55.999Z</time></trkpt><trkpt lat="37.61267644442878" lon="15.016947634876104"><ele>737.0</ele><time>2026-03-27T17:09:56.999Z</time></trkpt><trkpt lat="37.61275956507315" lon="15.016925652148958"><ele>737.0</ele><time>2026-03-27T17:09:57.999Z</time></trkpt><trkpt lat="37.61283218781594" lon="15.01690809926022"><ele>737.0</ele><time>2026-03-27T17:09:58.999Z</time></trkpt><trkpt lat="37.612900741740916" lon="15.01689104102309"><ele>737.0</ele><time>2026-03-27T17:09:59.999Z</time></trkpt><trkpt lat="37.61296979121519" lon="15.016872027804656"><ele>737.0</ele><time>2026-03-27T17:10:00.999Z</time></trkpt><trkpt lat="37.613044115042115" lon="15.016853431488437"><ele>737.0</ele><time>2026-03-27T17:10:01.999Z</time></trkpt><trkpt lat="37.613126200114266" lon="15.016833363013252"><ele>738.0</ele><time>2026-03-27T17:10:03Z</time></trkpt><trkpt lat="37.61321166733795" lon="15.01680965827337"><ele>739.0</ele><time>2026-03-27T17:10:04Z</time></trkpt><trkpt lat="37.61329542601186" lon="15.0167878105686"><ele>740.0</ele><time>2026-03-27T17:10:05Z</time></trkpt><trkpt lat="37.613377487803305" lon="15.016764912454379"><ele>741.0</ele><time>2026-03-27T17:10:06Z</time></trkpt><trkpt lat="37.61345932036476" lon="15.016743964683005"><ele>742.0</ele><time>2026-03-27T17:10:07Z</time></trkpt><trkpt lat="37.613544052259016" lon="15.016723291185015"><ele>743.0</ele><time>2026-03-27T17:10:08Z</time></trkpt><trkpt lat="37.61363149732437" lon="15.016701008143848"><ele>743.5</ele><time>2026-03-27T17:10:09Z</time></trkpt><trkpt lat="37.6137180689235" lon="15.016676570919412"><ele>744.0</ele><time>2026-03-27T17:10:10Z</time></trkpt><trkpt lat="37.61380523524593" lon="15.016656041141372"><ele>744.5</ele><time>2026-03-27T17:10:11Z</time></trkpt><trkpt lat="37.613896309960424" lon="15.016633471235748"><ele>745.0</ele><time>2026-03-27T17:10:12Z</time></trkpt><trkpt lat="37.613983583065696" lon="15.016608530348043"><ele>745.5</ele><time>2026-03-27T17:10:13Z</time></trkpt><trkpt lat="37.6140580246359" lon="15.016588241625783"><ele>746.0</ele><time>2026-03-27T17:10:14Z</time></trkpt><trkpt lat="37.61412217057876" lon="15.016573630018167"><ele>746.3333333333333</ele><time>2026-03-27T17:10:15Z</time></trkpt><trkpt lat="37.61419037665112" lon="15.01655864361668"><ele>746.6666666666666</ele><time>2026-03-27T17:10:16Z</time></trkpt><trkpt lat="37.61426050389047" lon="15.01654033283236"><ele>747.0</ele><time>2026-03-27T17:10:17Z</time></trkpt><trkpt lat="37.614337799661065" lon="15.0165177395676"><ele>747.3333333333334</ele><time>2026-03-27T17:10:18Z</time></trkpt><trkpt lat="37.614423369696574" lon="15.016498185509393"><ele>747.6666666666667</ele><time>2026-03-27T17:10:19Z</time></trkpt><trkpt lat="37.61451518791753" lon="15.01647414019632"><ele>748.0</ele><time>2026-03-27T17:10:20Z</time></trkpt><trkpt lat="37.61461184641489" lon="15.016448399159744"><ele>749.1666666666667</ele><time>2026-03-27T17:10:21Z</time></trkpt><trkpt lat="37.61469763735494" lon="15.016425685177865"><ele>750.3333333333334</ele><time>2026-03-27T17:10:22Z</time></trkpt><trkpt lat="37.61476678772532" lon="15.016407849139627"><ele>751.5</ele><time>2026-03-27T17:10:23Z</time></trkpt><trkpt lat="37.61483442147265" lon="15.016390815711675"><ele>752.6666666666666</ele><time>2026-03-27T17:10:24Z</time></trkpt><trkpt lat="37.61490765785016" lon="15.016374568298959"><ele>753.8333333333333</ele><time>2026-03-27T17:10:25Z</time></trkpt><trkpt lat="37.61499019855436" lon="15.016362511606907"><ele>755.0</ele><time>2026-03-27T17:10:26Z</time></trkpt><trkpt lat="37.615076365701725" lon="15.016358401163412"><ele>755.0</ele><time>2026-03-27T17:10:27Z</time></trkpt><trkpt lat="37.61516694852437" lon="15.01636420592599"><ele>755.0</ele><time>2026-03-27T17:10:28Z</time></trkpt><trkpt lat="37.61524187228296" lon="15.016349193397287"><ele>755.0</ele><time>2026-03-27T17:10:29Z</time></trkpt><trkpt lat="37.61530764059346" lon="15.016388784446333"><ele>755.0</ele><time>2026-03-27T17:10:30Z</time></trkpt><trkpt lat="37.61537368326448" lon="15.016397876586229"><ele>755.0</ele><time>2026-03-27T17:10:31Z</time></trkpt><trkpt lat="37.6154245743303" lon="15.016477864296832"><ele>755.0</ele><time>2026-03-27T17:10:32Z</time></trkpt><trkpt lat="37.615463058294765" lon="15.016546750235813"><ele>755.8333333333333</ele><time>2026-03-27T17:10:33Z</time></trkpt><trkpt lat="37.61548977447939" lon="15.016628082034197"><ele>756.6666666666666</ele><time>2026-03-27T17:10:34Z</time></trkpt><trkpt lat="37.615529650701845" lon="15.016710430490573"><ele>757.5</ele><time>2026-03-27T17:10:35Z</time></trkpt><trkpt lat="37.615595700361624" lon="15.016780285532315"><ele>758.3333333333334</ele><time>2026-03-27T17:10:36Z</time></trkpt><trkpt lat="37.61567611740796" lon="15.016830791838945"><ele>759.1666666666667</ele><time>2026-03-27T17:10:37Z</time></trkpt><trkpt lat="37.61576790292946" lon="15.016874319591235"><ele>760.0</ele><time>2026-03-27T17:10:38Z</time></trkpt><trkpt lat="37.61585075264214" lon="15.016946483483014"><ele>760.0</ele><time>2026-03-27T17:10:39Z</time></trkpt><trkpt lat="37.61592789228825" lon="15.017045619333691"><ele>760.0</ele><time>2026-03-27T17:10:40Z</time></trkpt><trkpt lat="37.615998793226794" lon="15.017171762551154"><ele>760.0</ele><time>2026-03-27T17:10:41Z</time></trkpt><trkpt lat="37.61607586881239" lon="15.017301632578882"><ele>760.0</ele><time>2026-03-27T17:10:42Z</time></trkpt><trkpt lat="37.61615554866194" lon="15.017430411036278"><ele>761.5</ele><time>2026-03-27T17:10:43Z</time></trkpt><trkpt lat="37.616240288437865" lon="15.017568286005956"><ele>763.0</ele><time>2026-03-27T17:10:44Z</time></trkpt><trkpt lat="37.616338878324136" lon="15.017697518075563"><ele>764.5</ele><time>2026-03-27T17:10:45Z</time></trkpt><trkpt lat="37.616441994358944" lon="15.017829852448733"><ele>766.0</ele><time>2026-03-27T17:10:46Z</time></trkpt><trkpt lat="37.616554655459915" lon="15.017947977974691"><ele>766.0</ele><time>2026-03-27T17:10:47Z</time></trkpt><trkpt lat="37.61667394078394" lon="15.018057357572275"><ele>766.0</ele><time>2026-03-27T17:10:48Z</time></trkpt><trkpt lat="37.616802042574726" lon="15.018168358797956"><ele>766.0</ele><time>2026-03-27T17:10:49Z</time></trkpt><trkpt lat="37.616926756269656" lon="15.01827046932649"><ele>767.3333333333334</ele><time>2026-03-27T17:10:50Z</time></trkpt><trkpt lat="37.61706371476654" lon="15.018364631457178"><ele>768.6666666666667</ele><time>2026-03-27T17:10:51Z</time></trkpt><trkpt lat="37.61721309955974" lon="15.018441316424594"><ele>770.0</ele><time>2026-03-27T17:10:52Z</time></trkpt><trkpt lat="37.617374419257594" lon="15.018508516223402"><ele>770.0</ele><time>2026-03-27T17:10:53Z</time></trkpt><trkpt lat="37.61753419864054" lon="15.018564635065097"><ele>770.0</ele><time>2026-03-27T17:10:54Z</time></trkpt><trkpt lat="37.617703810057606" lon="15.01862234402184"><ele>770.0</ele><time>2026-03-27T17:10:55Z</time></trkpt><trkpt lat="37.61787114386696" lon="15.018673952439617"><ele>774.0</ele><time>2026-03-27T17:10:56Z</time></trkpt><trkpt lat="37.61803428709766" lon="15.01872749228749"><ele>778.0</ele><time>2026-03-27T17:10:57Z</time></trkpt><trkpt lat="37.61819269124342" lon="15.018774972259502"><ele>782.0</ele><time>2026-03-27T17:10:58Z</time></trkpt><trkpt lat="37.61833860720727" lon="15.01883077856882"><ele>782.0</ele><time>2026-03-27T17:10:59Z</time></trkpt><trkpt lat="37.61848546507511" lon="15.018879937325933"><ele>782.0</ele><time>2026-03-27T17:11:00Z</time></trkpt><trkpt lat="37.61864316322424" lon="15.018906615234364"><ele>782.0</ele><time>2026-03-27T17:11:01Z</time></trkpt><trkpt lat="37.61880438191111" lon="15.018900804394733"><ele>783.3333333333334</ele><time>2026-03-27T17:11:01.999Z</time></trkpt><trkpt lat="37.61897043847322" lon="15.018869283805271"><ele>784.6666666666667</ele><time>2026-03-27T17:11:02.999Z</time></trkpt><trkpt lat="37.619135075750236" lon="15.018797207547172"><ele>786.0</ele><time>2026-03-27T17:11:03.999Z</time></trkpt><trkpt lat="37.61929183229481" lon="15.018731303597018"><ele>786.0</ele><time>2026-03-27T17:11:04.999Z</time></trkpt><trkpt lat="37.61944693193637" lon="15.01866152661167"><ele>786.0</ele><time>2026-03-27T17:11:05.999Z</time></trkpt><trkpt lat="37.619596467548604" lon="15.018600787054613"><ele>786.0</ele><time>2026-03-27T17:11:06.999Z</time></trkpt><trkpt lat="37.61975463958593" lon="15.018542409229502"><ele>787.0</ele><time>2026-03-27T17:11:07.999Z</time></trkpt><trkpt lat="37.61990107419611" lon="15.018482533600027"><ele>788.0</ele><time>2026-03-27T17:11:08.999Z</time></trkpt><trkpt lat="37.6200377959634" lon="15.018431344908318"><ele>789.0</ele><time>2026-03-27T17:11:09.999Z</time></trkpt><trkpt lat="37.620171899598105" lon="15.018390018038897"><ele>790.0</ele><time>2026-03-27T17:11:10.999Z</time></trkpt><trkpt lat="37.62031313904689" lon="15.018325564095234"><ele>795.6666666666666</ele><time>2026-03-27T17:11:11.999Z</time></trkpt><trkpt lat="37.620451164980956" lon="15.018238980491667"><ele>801.3333333333333</ele><time>2026-03-27T17:11:12.999Z</time></trkpt><trkpt lat="37.62057879959911" lon="15.018131943956302"><ele>807.0</ele><time>2026-03-27T17:11:13.999Z</time></trkpt><trkpt lat="37.62070248320429" lon="15.01801505631496"><ele>807.0</ele><time>2026-03-27T17:11:14.999Z</time></trkpt><trkpt lat="37.620829108973965" lon="15.017891258208925"><ele>807.0</ele><time>2026-03-27T17:11:15.999Z</time></trkpt><trkpt lat="37.62096008837653" lon="15.017768143758566"><ele>807.0</ele><time>2026-03-27T17:11:16.999Z</time></trkpt><trkpt lat="37.62108180022674" lon="15.017654250730727"><ele>807.5</ele><time>2026-03-27T17:11:17.999Z</time></trkpt><trkpt lat="37.62119671561576" lon="15.01755772695248"><ele>808.0</ele><time>2026-03-27T17:11:18.999Z</time></trkpt><trkpt lat="37.6213246855247" lon="15.017475205781851"><ele>808.5</ele><time>2026-03-27T17:11:19.999Z</time></trkpt><trkpt lat="37.6214556154475" lon="15.017419823463563"><ele>809.0</ele><time>2026-03-27T17:11:20.999Z</time></trkpt><trkpt lat="37.62157503947291" lon="15.017373320651998"><ele>812.25</ele><time>2026-03-27T17:11:21.999Z</time></trkpt><trkpt lat="37.621674045970586" lon="15.017303393222466"><ele>815.5</ele><time>2026-03-27T17:11:22.999Z</time></trkpt><trkpt lat="37.621744584513344" lon="15.017197827049607"><ele>818.75</ele><time>2026-03-27T17:11:23.999Z</time></trkpt><trkpt lat="37.62179001236612" lon="15.017058370976011"><ele>822.0</ele><time>2026-03-27T17:11:24.999Z</time></trkpt><trkpt lat="37.621821677844444" lon="15.01690220344283"><ele>822.0</ele><time>2026-03-27T17:11:25.999Z</time></trkpt><trkpt lat="37.621849683215615" lon="15.016735569121513"><ele>822.0</ele><time>2026-03-27T17:11:26.999Z</time></trkpt><trkpt lat="37.62189191873407" lon="15.01656921690936"><ele>822.0</ele><time>2026-03-27T17:11:27.999Z</time></trkpt><trkpt lat="37.621963570113586" lon="15.016422771356627"><ele>822.0</ele><time>2026-03-27T17:11:28.999Z</time></trkpt><trkpt lat="37.62205638228531" lon="15.016294636401373"><ele>823.5</ele><time>2026-03-27T17:11:29.999Z</time></trkpt><trkpt lat="37.62216499062318" lon="15.016176548628044"><ele>825.0</ele><time>2026-03-27T17:11:30.999Z</time></trkpt><trkpt lat="37.622273357667936" lon="15.016064200931147"><ele>826.5</ele><time>2026-03-27T17:11:31.999Z</time></trkpt><trkpt lat="37.62237766455957" lon="15.01593063181"><ele>828.0</ele><time>2026-03-27T17:11:32.999Z</time></trkpt><trkpt lat="37.62244807750568" lon="15.01577613060424"><ele>829.5</ele><time>2026-03-27T17:11:33.999Z</time></trkpt><trkpt lat="37.622518919942564" lon="15.015596684271419"><ele>831.0</ele><time>2026-03-27T17:11:34.999Z</time></trkpt><trkpt lat="37.622582827816466" lon="15.015424427429172"><ele>832.5</ele><time>2026-03-27T17:11:35.999Z</time></trkpt><trkpt lat="37.62263904399222" lon="15.015275092762776"><ele>834.0</ele><time>2026-03-27T17:11:36.999Z</time></trkpt><trkpt lat="37.62269001737245" lon="15.015154175563428"><ele>834.0</ele><time>2026-03-27T17:11:37.999Z</time></trkpt><trkpt lat="37.62272622286806" lon="15.015057993091608"><ele>834.0</ele><time>2026-03-27T17:11:38.999Z</time></trkpt><trkpt lat="37.62275663462815" lon="15.014981137844975"><ele>834.0</ele><time>2026-03-27T17:11:39.999Z</time></trkpt><trkpt lat="37.622795207646924" lon="15.014877600935955"><ele>834.0</ele><time>2026-03-27T17:11:41.999Z</time></trkpt><trkpt lat="37.62283745657917" lon="15.01469892638556"><ele>834.0</ele><time>2026-03-27T17:11:43.999Z</time></trkpt><trkpt lat="37.622865733220856" lon="15.014570099121038"><ele>834.5</ele><time>2026-03-27T17:11:44.999Z</time></trkpt><trkpt lat="37.62290463136687" lon="15.014428619036101"><ele>835.0</ele><time>2026-03-27T17:11:45.999Z</time></trkpt><trkpt lat="37.62296874109196" lon="15.014290074423315"><ele>835.5</ele><time>2026-03-27T17:11:46.999Z</time></trkpt><trkpt lat="37.623055729233535" lon="15.014177407734108"><ele>836.0</ele><time>2026-03-27T17:11:47.999Z</time></trkpt><trkpt lat="37.62316179551391" lon="15.014082495559693"><ele>836.0</ele><time>2026-03-27T17:11:48.999Z</time></trkpt><trkpt lat="37.62327439088983" lon="15.014002229241452"><ele>836.0</ele><time>2026-03-27T17:11:49.999Z</time></trkpt><trkpt lat="37.62341698218633" lon="15.01394981317702"><ele>836.0</ele><time>2026-03-27T17:11:50.999Z</time></trkpt><trkpt lat="37.62356333995102" lon="15.013899136395024"><ele>836.0</ele><time>2026-03-27T17:11:51.999Z</time></trkpt><trkpt lat="37.62371502213614" lon="15.01384214387556"><ele>838.0</ele><time>2026-03-27T17:11:52.999Z</time></trkpt><trkpt lat="37.623871423401674" lon="15.01378718055858"><ele>840.0</ele><time>2026-03-27T17:11:53.999Z</time></trkpt><trkpt lat="37.62403261578846" lon="15.013732008091837"><ele>842.0</ele><time>2026-03-27T17:11:54.999Z</time></trkpt><trkpt lat="37.62419535435356" lon="15.013670417908546"><ele>842.0</ele><time>2026-03-27T17:11:55.999Z</time></trkpt><trkpt lat="37.624357414888365" lon="15.013607059516751"><ele>842.0</ele><time>2026-03-27T17:11:56.999Z</time></trkpt><trkpt lat="37.62450108105362" lon="15.013552496728344"><ele>842.0</ele><time>2026-03-27T17:11:57.999Z</time></trkpt><trkpt lat="37.624636918629434" lon="15.013503805203063"><ele>843.5</ele><time>2026-03-27T17:11:58.999Z</time></trkpt><trkpt lat="37.624760952528504" lon="15.013455703938916"><ele>845.0</ele><time>2026-03-27T17:11:59.999Z</time></trkpt><trkpt lat="37.624881968088275" lon="15.013419070284355"><ele>846.5</ele><time>2026-03-27T17:12:00.999Z</time></trkpt><trkpt lat="37.625013259314706" lon="15.013399304660304"><ele>848.0</ele><time>2026-03-27T17:12:01.999Z</time></trkpt><trkpt lat="37.625151660164" lon="15.013408775602938"><ele>848.0</ele><time>2026-03-27T17:12:02.999Z</time></trkpt><trkpt lat="37.62529770699896" lon="15.013420583897634"><ele>848.0</ele><time>2026-03-27T17:12:03.999Z</time></trkpt><trkpt lat="37.62545368786973" lon="15.013424581036903"><ele>848.0</ele><time>2026-03-27T17:12:04.999Z</time></trkpt><trkpt lat="37.62561157986754" lon="15.013425875564003"><ele>849.6666666666667</ele><time>2026-03-27T17:12:05.999Z</time></trkpt><trkpt lat="37.62577356395928" lon="15.013429975443051"><ele>851.3333333333333</ele><time>2026-03-27T17:12:06.999Z</time></trkpt><trkpt lat="37.62593908802034" lon="15.013433600010144"><ele>853.0</ele><time>2026-03-27T17:12:07.999Z</time></trkpt><trkpt lat="37.626109173451816" lon="15.013444755467866"><ele>854.6666666666666</ele><time>2026-03-27T17:12:09Z</time></trkpt><trkpt lat="37.62628096836378" lon="15.013449734362208"><ele>856.3333333333333</ele><time>2026-03-27T17:12:10Z</time></trkpt><trkpt lat="37.62644854746062" lon="15.013451833423524"><ele>858.0</ele><time>2026-03-27T17:12:11Z</time></trkpt><trkpt lat="37.626607529267254" lon="15.013451876288581"><ele>858.0</ele><time>2026-03-27T17:12:12Z</time></trkpt><trkpt lat="37.62675741877249" lon="15.013445620864134"><ele>858.0</ele><time>2026-03-27T17:12:13Z</time></trkpt><trkpt lat="37.62690540798085" lon="15.013412318592945"><ele>858.0</ele><time>2026-03-27T17:12:14Z</time></trkpt><trkpt lat="37.62704991745071" lon="15.013350381787538"><ele>861.0</ele><time>2026-03-27T17:12:15Z</time></trkpt><trkpt lat="37.627188070853514" lon="15.013250261299252"><ele>864.0</ele><time>2026-03-27T17:12:16Z</time></trkpt><trkpt lat="37.62732792726749" lon="15.013139363565308"><ele>867.0</ele><time>2026-03-27T17:12:17Z</time></trkpt><trkpt lat="37.62745131218792" lon="15.013032796207673"><ele>867.0</ele><time>2026-03-27T17:12:18Z</time></trkpt><trkpt lat="37.62755622515987" lon="15.012923017441203"><ele>867.0</ele><time>2026-03-27T17:12:19Z</time></trkpt><trkpt lat="37.62763039614877" lon="15.012788924587511"><ele>867.0</ele><time>2026-03-27T17:12:20Z</time></trkpt><trkpt lat="37.6276689403606" lon="15.012628553791618"><ele>867.0</ele><time>2026-03-27T17:12:21Z</time></trkpt><trkpt lat="37.62768011909813" lon="15.01244267099897"><ele>867.6666666666667</ele><time>2026-03-27T17:12:22Z</time></trkpt><trkpt lat="37.62767184270287" lon="15.012244948931587"><ele>868.3333333333334</ele><time>2026-03-27T17:12:23Z</time></trkpt><trkpt lat="37.62766357992728" lon="15.012037023118886"><ele>869.0</ele><time>2026-03-27T17:12:24Z</time></trkpt><trkpt lat="37.62765653458816" lon="15.011822597750962"><ele>870.0</ele><time>2026-03-27T17:12:25Z</time></trkpt><trkpt lat="37.62764531587322" lon="15.011601019613774"><ele>871.0</ele><time>2026-03-27T17:12:26Z</time></trkpt><trkpt lat="37.62763367583644" lon="15.011375094182648"><ele>872.0</ele><time>2026-03-27T17:12:27Z</time></trkpt><trkpt lat="37.6276243016786" lon="15.011148252163823"><ele>872.0</ele><time>2026-03-27T17:12:28Z</time></trkpt><trkpt lat="37.62761611199532" lon="15.010941540586058"><ele>872.0</ele><time>2026-03-27T17:12:29Z</time></trkpt><trkpt lat="37.62760895926803" lon="15.010757273479687"><ele>872.0</ele><time>2026-03-27T17:12:30Z</time></trkpt><trkpt lat="37.62760535078296" lon="15.010590041971627"><ele>872.0</ele><time>2026-03-27T17:12:31Z</time></trkpt><trkpt lat="37.627621134676524" lon="15.010430749981962"><ele>872.25</ele><time>2026-03-27T17:12:32Z</time></trkpt><trkpt lat="37.62767486090608" lon="15.010278325926171"><ele>872.5</ele><time>2026-03-27T17:12:33Z</time></trkpt><trkpt lat="37.62776768243845" lon="15.010133260884233"><ele>872.75</ele><time>2026-03-27T17:12:34Z</time></trkpt><trkpt lat="37.627882312724054" lon="15.009981496411779"><ele>873.0</ele><time>2026-03-27T17:12:35Z</time></trkpt><trkpt lat="37.62800127292587" lon="15.009819399008531"><ele>877.3333333333333</ele><time>2026-03-27T17:12:36Z</time></trkpt><trkpt lat="37.62811283197598" lon="15.009633943894533"><ele>881.6666666666666</ele><time>2026-03-27T17:12:37Z</time></trkpt><trkpt lat="37.628206505423094" lon="15.00941273118058"><ele>886.0</ele><time>2026-03-27T17:12:38Z</time></trkpt><trkpt lat="37.62830196152837" lon="15.009174303727434"><ele>885.3333333333333</ele><time>2026-03-27T17:12:39Z</time></trkpt><trkpt lat="37.62840499292063" lon="15.008934184907298"><ele>884.6666666666667</ele><time>2026-03-27T17:12:40Z</time></trkpt><trkpt lat="37.62851166579242" lon="15.008688271496474"><ele>884.0</ele><time>2026-03-27T17:12:41Z</time></trkpt><trkpt lat="37.62861714067347" lon="15.008440325894101"><ele>888.3333333333334</ele><time>2026-03-27T17:12:42Z</time></trkpt><trkpt lat="37.62872167938651" lon="15.008189778374879"><ele>892.6666666666667</ele><time>2026-03-27T17:12:43Z</time></trkpt><trkpt lat="37.62882126130941" lon="15.007949431658036"><ele>897.0</ele><time>2026-03-27T17:12:44Z</time></trkpt><trkpt lat="37.62891494404257" lon="15.007717150801831"><ele>897.0</ele><time>2026-03-27T17:12:45Z</time></trkpt><trkpt lat="37.62901375561056" lon="15.007493678452578"><ele>897.0</ele><time>2026-03-27T17:12:46Z</time></trkpt><trkpt lat="37.62913277122852" lon="15.007285535393763"><ele>897.0</ele><time>2026-03-27T17:12:47Z</time></trkpt><trkpt lat="37.6292638855921" lon="15.007090405240836"><ele>897.0</ele><time>2026-03-27T17:12:48Z</time></trkpt><trkpt lat="37.629392325621424" lon="15.006894685427069"><ele>897.0</ele><time>2026-03-27T17:12:49Z</time></trkpt><trkpt lat="37.62950943662377" lon="15.006701745747987"><ele>897.0</ele><time>2026-03-27T17:12:50Z</time></trkpt><trkpt lat="37.629613181809006" lon="15.00649845050088"><ele>897.3333333333333</ele><time>2026-03-27T17:12:51Z</time></trkpt><trkpt lat="37.62970048192723" lon="15.006258463869996"><ele>897.6666666666666</ele><time>2026-03-27T17:12:52Z</time></trkpt><trkpt lat="37.62978567957861" lon="15.006009918790516"><ele>898.0</ele><time>2026-03-27T17:12:53Z</time></trkpt><trkpt lat="37.6298724615586" lon="15.005764746935625"><ele>898.0</ele><time>2026-03-27T17:12:54Z</time></trkpt><trkpt lat="37.629962359893725" lon="15.005533931911666"><ele>898.0</ele><time>2026-03-27T17:12:55Z</time></trkpt><trkpt lat="37.6300665064066" lon="15.005304700394817"><ele>898.0</ele><time>2026-03-27T17:12:56Z</time></trkpt><trkpt lat="37.630191601664954" lon="15.005089343505428"><ele>899.3333333333333</ele><time>2026-03-27T17:12:57Z</time></trkpt><trkpt lat="37.63032306467198" lon="15.00488228698871"><ele>900.6666666666667</ele><time>2026-03-27T17:12:58Z</time></trkpt><trkpt lat="37.63045347212171" lon="15.00468658395789"><ele>902.0</ele><time>2026-03-27T17:12:59Z</time></trkpt><trkpt lat="37.63058022062645" lon="15.004499739344244"><ele>902.0</ele><time>2026-03-27T17:13:00Z</time></trkpt><trkpt lat="37.630707214080076" lon="15.004254763775746"><ele>902.0</ele><time>2026-03-27T17:13:01Z</time></trkpt><trkpt lat="37.63081102552436" lon="15.004066575442817"><ele>902.0</ele><time>2026-03-27T17:13:02Z</time></trkpt><trkpt lat="37.630879559117936" lon="15.003854096393827"><ele>901.6666666666667</ele><time>2026-03-27T17:13:03Z</time></trkpt><trkpt lat="37.630925880324355" lon="15.003612286290206"><ele>901.3333333333333</ele><time>2026-03-27T17:13:04Z</time></trkpt><trkpt lat="37.63096775722515" lon="15.00335833325551"><ele>901.0</ele><time>2026-03-27T17:13:05Z</time></trkpt><trkpt lat="37.631026623048776" lon="15.003104826854559"><ele>901.6666666666666</ele><time>2026-03-27T17:13:06Z</time></trkpt><trkpt lat="37.63108615888072" lon="15.00287105185866"><ele>902.3333333333333</ele><time>2026-03-27T17:13:07Z</time></trkpt><trkpt lat="37.63113917231608" lon="15.002660142325663"><ele>903.0</ele><time>2026-03-27T17:13:08Z</time></trkpt><trkpt lat="37.63118722312358" lon="15.002470244766558"><ele>905.0</ele><time>2026-03-27T17:13:08.999Z</time></trkpt><trkpt lat="37.63122121310546" lon="15.002294778558612"><ele>907.0</ele><time>2026-03-27T17:13:09.999Z</time></trkpt><trkpt lat="37.63121699630358" lon="15.002126177432833"><ele>909.0</ele><time>2026-03-27T17:13:10.999Z</time></trkpt><trkpt lat="37.63117335055405" lon="15.001974315037772"><ele>911.0</ele><time>2026-03-27T17:13:11.999Z</time></trkpt><trkpt lat="37.63108956161327" lon="15.001835668132392"><ele>911.0</ele><time>2026-03-27T17:13:12.999Z</time></trkpt><trkpt lat="37.63097223857921" lon="15.001731212468538"><ele>911.0</ele><time>2026-03-27T17:13:13.999Z</time></trkpt><trkpt lat="37.63085242574304" lon="15.00167814244925"><ele>911.0</ele><time>2026-03-27T17:13:14.999Z</time></trkpt><trkpt lat="37.63073774396425" lon="15.001647790496664"><ele>911.0</ele><time>2026-03-27T17:13:15.999Z</time></trkpt><trkpt lat="37.63063091793818" lon="15.001611768800347"><ele>911.25</ele><time>2026-03-27T17:13:16.999Z</time></trkpt><trkpt lat="37.63053590911127" lon="15.001532247406812"><ele>911.5</ele><time>2026-03-27T17:13:17.999Z</time></trkpt><trkpt lat="37.63049021449881" lon="15.00139875880675"><ele>911.75</ele><time>2026-03-27T17:13:18.999Z</time></trkpt><trkpt lat="37.63045819183583" lon="15.001260501546831"><ele>912.0</ele><time>2026-03-27T17:13:19.999Z</time></trkpt><trkpt lat="37.63043965593582" lon="15.001108413605138"><ele>912.0</ele><time>2026-03-27T17:13:20.999Z</time></trkpt><trkpt lat="37.63049643324861" lon="15.000965531782983"><ele>912.0</ele><time>2026-03-27T17:13:21.999Z</time></trkpt><trkpt lat="37.63055124340875" lon="15.000826948130804"><ele>912.0</ele><time>2026-03-27T17:13:22.999Z</time></trkpt><trkpt lat="37.630646242669066" lon="15.000716231787864"><ele>912.0</ele><time>2026-03-27T17:13:23.999Z</time></trkpt><trkpt lat="37.63077065213615" lon="15.000648934193924"><ele>911.75</ele><time>2026-03-27T17:13:24.999Z</time></trkpt><trkpt lat="37.63089618604254" lon="15.000618662933569"><ele>911.5</ele><time>2026-03-27T17:13:25.999Z</time></trkpt><trkpt lat="37.63102295647829" lon="15.00064365873642"><ele>911.25</ele><time>2026-03-27T17:13:26.999Z</time></trkpt><trkpt lat="37.6311571971357" lon="15.00069509873699"><ele>911.0</ele><time>2026-03-27T17:13:27.999Z</time></trkpt><trkpt lat="37.631307010877194" lon="15.000736269299122"><ele>913.0</ele><time>2026-03-27T17:13:28.999Z</time></trkpt><trkpt lat="37.63145856187905" lon="15.000795503387325"><ele>915.0</ele><time>2026-03-27T17:13:29.999Z</time></trkpt><trkpt lat="37.63161833342607" lon="15.000848100418896"><ele>917.0</ele><time>2026-03-27T17:13:30.999Z</time></trkpt><trkpt lat="37.63177036793189" lon="15.000903177500225"><ele>917.0</ele><time>2026-03-27T17:13:31.999Z</time></trkpt><trkpt lat="37.63190286882948" lon="15.000938214959092"><ele>917.0</ele><time>2026-03-27T17:13:32.999Z</time></trkpt><trkpt lat="37.63203202643371" lon="15.000924328575596"><ele>917.0</ele><time>2026-03-27T17:13:33.999Z</time></trkpt><trkpt lat="37.6321627010341" lon="15.000860091957373"><ele>917.0</ele><time>2026-03-27T17:13:34.999Z</time></trkpt><trkpt lat="37.6322884595085" lon="15.000756601632027"><ele>920.0</ele><time>2026-03-27T17:13:35.999Z</time></trkpt><trkpt lat="37.63242229765156" lon="15.000649622689048"><ele>923.0</ele><time>2026-03-27T17:13:36.999Z</time></trkpt><trkpt lat="37.63256311110188" lon="15.000540652588564"><ele>926.0</ele><time>2026-03-27T17:13:37.999Z</time></trkpt><trkpt lat="37.63270928219211" lon="15.000433676529157"><ele>927.3333333333334</ele><time>2026-03-27T17:13:38.999Z</time></trkpt><trkpt lat="37.632860659253176" lon="15.00033094340642"><ele>928.6666666666667</ele><time>2026-03-27T17:13:39.999Z</time></trkpt><trkpt lat="37.633017828511946" lon="15.000232191995067"><ele>930.0</ele><time>2026-03-27T17:13:40.999Z</time></trkpt><trkpt lat="37.633173725064005" lon="15.000124343046348"><ele>930.0</ele><time>2026-03-27T17:13:41.999Z</time></trkpt><trkpt lat="37.63333102748601" lon="15.000016603556384"><ele>930.0</ele><time>2026-03-27T17:13:42.999Z</time></trkpt><trkpt lat="37.63349105778651" lon="14.99991241147866"><ele>930.0</ele><time>2026-03-27T17:13:43.999Z</time></trkpt><trkpt lat="37.63365026779258" lon="14.999821111536713"><ele>929.6666666666667</ele><time>2026-03-27T17:13:44.999Z</time></trkpt><trkpt lat="37.63381875737206" lon="14.999766085263028"><ele>929.3333333333334</ele><time>2026-03-27T17:13:45.999Z</time></trkpt><trkpt lat="37.63400013859121" lon="14.99972236106935"><ele>929.0</ele><time>2026-03-27T17:13:46.999Z</time></trkpt><trkpt lat="37.63418563774954" lon="14.999666094179396"><ele>929.0</ele><time>2026-03-27T17:13:47.999Z</time></trkpt><trkpt lat="37.63437487339585" lon="14.999605649245268"><ele>929.0</ele><time>2026-03-27T17:13:48.999Z</time></trkpt><trkpt lat="37.63456673749202" lon="14.999552049622976"><ele>929.0</ele><time>2026-03-27T17:13:49.999Z</time></trkpt><trkpt lat="37.634754209618656" lon="14.999494094318196"><ele>929.6666666666667</ele><time>2026-03-27T17:13:50.999Z</time></trkpt><trkpt lat="37.634930882577244" lon="14.99943690274427"><ele>930.3333333333333</ele><time>2026-03-27T17:13:51.999Z</time></trkpt><trkpt lat="37.635097528079896" lon="14.99936044678083"><ele>931.0</ele><time>2026-03-27T17:13:52.999Z</time></trkpt><trkpt lat="37.635249986752854" lon="14.999242779902161"><ele>933.6666666666666</ele><time>2026-03-27T17:13:53.999Z</time></trkpt><trkpt lat="37.6353958402523" lon="14.999088683035488"><ele>936.3333333333333</ele><time>2026-03-27T17:13:54.999Z</time></trkpt><trkpt lat="37.63554534825149" lon="14.998931156138237"><ele>939.0</ele><time>2026-03-27T17:13:55.999Z</time></trkpt><trkpt lat="37.635698289591105" lon="14.998778809778072"><ele>939.0</ele><time>2026-03-27T17:13:56.999Z</time></trkpt><trkpt lat="37.635853863906746" lon="14.998631244248648"><ele>939.0</ele><time>2026-03-27T17:13:57.999Z</time></trkpt><trkpt lat="37.63601489619451" lon="14.998489819668167"><ele>939.0</ele><time>2026-03-27T17:13:58.999Z</time></trkpt><trkpt lat="37.636183604897525" lon="14.998364996161481"><ele>944.3333333333333</ele><time>2026-03-27T17:13:59.999Z</time></trkpt><trkpt lat="37.636367175442466" lon="14.99825719737135"><ele>949.6666666666666</ele><time>2026-03-27T17:14:00.999Z</time></trkpt><trkpt lat="37.63655949325577" lon="14.99816185951868"><ele>955.0</ele><time>2026-03-27T17:14:01.999Z</time></trkpt><trkpt lat="37.636752443111824" lon="14.998064082538491"><ele>955.0</ele><time>2026-03-27T17:14:02.999Z</time></trkpt><trkpt lat="37.636944059615715" lon="14.99796065160806"><ele>955.0</ele><time>2026-03-27T17:14:03.999Z</time></trkpt><trkpt lat="37.637139315853176" lon="14.997854251794354"><ele>955.0</ele><time>2026-03-27T17:14:04.999Z</time></trkpt><trkpt lat="37.63733353609266" lon="14.99775208499848"><ele>956.0</ele><time>2026-03-27T17:14:05.999Z</time></trkpt><trkpt lat="37.637524829010765" lon="14.997653863597817"><ele>957.0</ele><time>2026-03-27T17:14:06.999Z</time></trkpt><trkpt lat="37.63771298035005" lon="14.997551466553722"><ele>958.0</ele><time>2026-03-27T17:14:07.999Z</time></trkpt><trkpt lat="37.63788441545794" lon="14.997454786262548"><ele>959.3333333333333</ele><time>2026-03-27T17:14:08.999Z</time></trkpt><trkpt lat="37.638037230484414" lon="14.997360120805007"><ele>960.6666666666667</ele><time>2026-03-27T17:14:09.999Z</time></trkpt><trkpt lat="37.638178608279205" lon="14.99723224754939"><ele>962.0</ele><time>2026-03-27T17:14:10.999Z</time></trkpt><trkpt lat="37.63830757957531" lon="14.997065982804592"><ele>962.0</ele><time>2026-03-27T17:14:11.999Z</time></trkpt><trkpt lat="37.63843103819811" lon="14.99688214529404"><ele>962.0</ele><time>2026-03-27T17:14:12.999Z</time></trkpt><trkpt lat="37.63855675020342" lon="14.996692938626724"><ele>962.0</ele><time>2026-03-27T17:14:13.999Z</time></trkpt><trkpt lat="37.63868448805387" lon="14.996507244472369"><ele>965.6666666666667</ele><time>2026-03-27T17:14:15Z</time></trkpt><trkpt lat="37.638811327218185" lon="14.99632966813957"><ele>969.3333333333333</ele><time>2026-03-27T17:14:16Z</time></trkpt><trkpt lat="37.63892592490741" lon="14.996170467619104"><ele>973.0</ele><time>2026-03-27T17:14:17Z</time></trkpt><trkpt lat="37.639025133966975" lon="14.99602868443934"><ele>973.0</ele><time>2026-03-27T17:14:18Z</time></trkpt><trkpt lat="37.6391204616369" lon="14.995902893141077"><ele>973.0</ele><time>2026-03-27T17:14:19Z</time></trkpt><trkpt lat="37.63923470774335" lon="14.995797964444629"><ele>973.0</ele><time>2026-03-27T17:14:20Z</time></trkpt><trkpt lat="37.63938319724064" lon="14.99577787005945"><ele>973.0</ele><time>2026-03-27T17:14:21Z</time></trkpt><trkpt lat="37.639543802597004" lon="14.99575195450515"><ele>974.0</ele><time>2026-03-27T17:14:22Z</time></trkpt><trkpt lat="37.63971999811428" lon="14.995759947335742"><ele>975.0</ele><time>2026-03-27T17:14:23Z</time></trkpt><trkpt lat="37.6399238086046" lon="14.995750843329757"><ele>976.0</ele><time>2026-03-27T17:14:24Z</time></trkpt><trkpt lat="37.64014222075519" lon="14.995741548418579"><ele>977.5</ele><time>2026-03-27T17:14:25Z</time></trkpt><trkpt lat="37.64037312852769" lon="14.995730679758761"><ele>979.0</ele><time>2026-03-27T17:14:26Z</time></trkpt><trkpt lat="37.64061415986595" lon="14.99571142378676"><ele>979.0</ele><time>2026-03-27T17:14:27Z</time></trkpt><trkpt lat="37.640855435549206" lon="14.995694196910353"><ele>979.0</ele><time>2026-03-27T17:14:28Z</time></trkpt><trkpt lat="37.64109748659354" lon="14.995679633990486"><ele>980.5</ele><time>2026-03-27T17:14:29Z</time></trkpt><trkpt lat="37.64134560023787" lon="14.995663643027287"><ele>982.0</ele><time>2026-03-27T17:14:30Z</time></trkpt><trkpt lat="37.64159476118283" lon="14.995646568885997"><ele>982.0</ele><time>2026-03-27T17:14:31Z</time></trkpt><trkpt lat="37.6418395268918" lon="14.995630620243642"><ele>982.0</ele><time>2026-03-27T17:14:32Z</time></trkpt><trkpt lat="37.642082178379674" lon="14.995614672592465"><ele>984.5</ele><time>2026-03-27T17:14:33Z</time></trkpt><trkpt lat="37.64231388307323" lon="14.995598670740202"><ele>987.0</ele><time>2026-03-27T17:14:34Z</time></trkpt><trkpt lat="37.64253333037388" lon="14.995585955660506"><ele>987.0</ele><time>2026-03-27T17:14:35Z</time></trkpt><trkpt lat="37.64273109835535" lon="14.99557593019411"><ele>987.0</ele><time>2026-03-27T17:14:36Z</time></trkpt><trkpt lat="37.64291345312685" lon="14.995564207609855"><ele>987.0</ele><time>2026-03-27T17:14:37Z</time></trkpt><trkpt lat="37.64308287419003" lon="14.99553384390466"><ele>988.6666666666667</ele><time>2026-03-27T17:14:38Z</time></trkpt><trkpt lat="37.64325293042865" lon="14.995462212425997"><ele>990.3333333333334</ele><time>2026-03-27T17:14:39Z</time></trkpt><trkpt lat="37.643428284855574" lon="14.995369417973988"><ele>992.0</ele><time>2026-03-27T17:14:40Z</time></trkpt><trkpt lat="37.64360571772625" lon="14.99526387151102"><ele>994.3333333333334</ele><time>2026-03-27T17:14:41Z</time></trkpt><trkpt lat="37.64378695104241" lon="14.995159540227293"><ele>996.6666666666667</ele><time>2026-03-27T17:14:42Z</time></trkpt><trkpt lat="37.643970549810646" lon="14.995060530075822"><ele>999.0</ele><time>2026-03-27T17:14:43Z</time></trkpt><trkpt lat="37.64415399926333" lon="14.994961811053862"><ele>999.3333333333333</ele><time>2026-03-27T17:14:44Z</time></trkpt><trkpt lat="37.64433768384569" lon="14.994865279545321"><ele>999.6666666666666</ele><time>2026-03-27T17:14:45Z</time></trkpt><trkpt lat="37.644518327586326" lon="14.9947683548914"><ele>1000.0</ele><time>2026-03-27T17:14:46Z</time></trkpt><trkpt lat="37.64470112435802" lon="14.994670097394458"><ele>1001.6666666666666</ele><time>2026-03-27T17:14:47Z</time></trkpt><trkpt lat="37.64488310462901" lon="14.994572631769051"><ele>1003.3333333333333</ele><time>2026-03-27T17:14:48Z</time></trkpt><trkpt lat="37.64506469649814" lon="14.994471566596628"><ele>1005.0</ele><time>2026-03-27T17:14:49Z</time></trkpt><trkpt lat="37.64524052709927" lon="14.994377453579686"><ele>1006.6666666666667</ele><time>2026-03-27T17:14:50Z</time></trkpt><trkpt lat="37.64541086653185" lon="14.994290707105026"><ele>1008.3333333333334</ele><time>2026-03-27T17:14:51Z</time></trkpt><trkpt lat="37.645580281080704" lon="14.994207540696001"><ele>1010.0</ele><time>2026-03-27T17:14:52Z</time></trkpt><trkpt lat="37.64574434916745" lon="14.994124000885646"><ele>1012.0</ele><time>2026-03-27T17:14:53Z</time></trkpt><trkpt lat="37.64589269829606" lon="14.994035615310374"><ele>1014.0</ele><time>2026-03-27T17:14:54Z</time></trkpt><trkpt lat="37.64602704670558" lon="14.993916495976"><ele>1016.0</ele><time>2026-03-27T17:14:55Z</time></trkpt><trkpt lat="37.64614837388193" lon="14.993750927539923"><ele>1017.0</ele><time>2026-03-27T17:14:56Z</time></trkpt><trkpt lat="37.64626457213356" lon="14.99357309742266"><ele>1018.0</ele><time>2026-03-27T17:14:57Z</time></trkpt><trkpt lat="37.64637789477312" lon="14.99338241207305"><ele>1019.0</ele><time>2026-03-27T17:14:58Z</time></trkpt><trkpt lat="37.64649547662777" lon="14.993195364546745"><ele>1019.6666666666667</ele><time>2026-03-27T17:14:59Z</time></trkpt><trkpt lat="37.64661567683494" lon="14.99300949358402"><ele>1020.3333333333333</ele><time>2026-03-27T17:15:00Z</time></trkpt><trkpt lat="37.64673229971835" lon="14.992826849313008"><ele>1021.0</ele><time>2026-03-27T17:15:01Z</time></trkpt><trkpt lat="37.64684457260652" lon="14.992652889869216"><ele>1023.3333333333333</ele><time>2026-03-27T17:15:02Z</time></trkpt><trkpt lat="37.64696071170893" lon="14.992496696304626"><ele>1025.6666666666667</ele><time>2026-03-27T17:15:03Z</time></trkpt><trkpt lat="37.647092638251785" lon="14.992358876806414"><ele>1028.0</ele><time>2026-03-27T17:15:04Z</time></trkpt><trkpt lat="37.647226065499574" lon="14.992244420501747"><ele>1028.75</ele><time>2026-03-27T17:15:05Z</time></trkpt><trkpt lat="37.647355035578016" lon="14.992143046638391"><ele>1029.5</ele><time>2026-03-27T17:15:06Z</time></trkpt><trkpt lat="37.64747973396199" lon="14.992043774265582"><ele>1030.25</ele><time>2026-03-27T17:15:07Z</time></trkpt><trkpt lat="37.64760510084287" lon="14.991943910728695"><ele>1031.0</ele><time>2026-03-27T17:15:08Z</time></trkpt><trkpt lat="37.64773640225581" lon="14.991832152793314"><ele>1032.6666666666667</ele><time>2026-03-27T17:15:09Z</time></trkpt><trkpt lat="37.64787569652764" lon="14.991712064704464"><ele>1034.3333333333333</ele><time>2026-03-27T17:15:10Z</time></trkpt><trkpt lat="37.64801892498996" lon="14.991583739610673"><ele>1036.0</ele><time>2026-03-27T17:15:11Z</time></trkpt><trkpt lat="37.64816745843805" lon="14.991457448265125"><ele>1036.6666666666665</ele><time>2026-03-27T17:15:12Z</time></trkpt><trkpt lat="37.64831406122729" lon="14.991336113836109"><ele>1037.3333333333333</ele><time>2026-03-27T17:15:13Z</time></trkpt><trkpt lat="37.64844437236308" lon="14.991225535254618"><ele>1038.0</ele><time>2026-03-27T17:15:14Z</time></trkpt><trkpt lat="37.648555628131746" lon="14.991131903330759"><ele>1039.5</ele><time>2026-03-27T17:15:14.999Z</time></trkpt><trkpt lat="37.648660705876594" lon="14.991040700428911"><ele>1041.0</ele><time>2026-03-27T17:15:15.999Z</time></trkpt><trkpt lat="37.6487637855431" lon="14.990947556126619"><ele>1042.5</ele><time>2026-03-27T17:15:16.999Z</time></trkpt><trkpt lat="37.64887571814649" lon="14.99084975968603"><ele>1044.0</ele><time>2026-03-27T17:15:17.999Z</time></trkpt><trkpt lat="37.64899658414103" lon="14.990747028412699"><ele>1045.0</ele><time>2026-03-27T17:15:18.999Z</time></trkpt><trkpt lat="37.64912269805542" lon="14.990640949583614"><ele>1046.0</ele><time>2026-03-27T17:15:19.999Z</time></trkpt><trkpt lat="37.64925142344879" lon="14.990530543773424"><ele>1047.0</ele><time>2026-03-27T17:15:20.999Z</time></trkpt><trkpt lat="37.649380952616674" lon="14.99041670278698"><ele>1049.0</ele><time>2026-03-27T17:15:21.999Z</time></trkpt><trkpt lat="37.649508247514085" lon="14.990305215356123"><ele>1051.0</ele><time>2026-03-27T17:15:22.999Z</time></trkpt><trkpt lat="37.64963459406967" lon="14.99019468656932"><ele>1053.0</ele><time>2026-03-27T17:15:23.999Z</time></trkpt><trkpt lat="37.64975758143343" lon="14.990091081398237"><ele>1053.25</ele><time>2026-03-27T17:15:24.999Z</time></trkpt><trkpt lat="37.649869638631614" lon="14.989994058671009"><ele>1053.5</ele><time>2026-03-27T17:15:25.999Z</time></trkpt><trkpt lat="37.649978215907836" lon="14.989903410226166"><ele>1053.75</ele><time>2026-03-27T17:15:26.999Z</time></trkpt><trkpt lat="37.65008389186793" lon="14.989811632101853"><ele>1054.0</ele><time>2026-03-27T17:15:27.999Z</time></trkpt><trkpt lat="37.65019308836191" lon="14.989716621586405"><ele>1054.75</ele><time>2026-03-27T17:15:28.999Z</time></trkpt><trkpt lat="37.650304278851465" lon="14.989617600906199"><ele>1055.5</ele><time>2026-03-27T17:15:29.999Z</time></trkpt><trkpt lat="37.65041492311016" lon="14.989519437842961"><ele>1056.25</ele><time>2026-03-27T17:15:30.999Z</time></trkpt><trkpt lat="37.65052405235555" lon="14.989421128486315"><ele>1057.0</ele><time>2026-03-27T17:15:31.999Z</time></trkpt><trkpt lat="37.650641148953525" lon="14.989319724630299"><ele>1057.0</ele><time>2026-03-27T17:15:32.999Z</time></trkpt><trkpt lat="37.65076137529151" lon="14.989215329506916"><ele>1057.0</ele><time>2026-03-27T17:15:33.999Z</time></trkpt><trkpt lat="37.65088532879454" lon="14.989115916774702"><ele>1057.0</ele><time>2026-03-27T17:15:34.999Z</time></trkpt><trkpt lat="37.651012658344655" lon="14.98904200295461"><ele>1057.0</ele><time>2026-03-27T17:15:35.999Z</time></trkpt><trkpt lat="37.651147106062844" lon="14.988985027330465"><ele>1058.0</ele><time>2026-03-27T17:15:36.999Z</time></trkpt><trkpt lat="37.65128499136683" lon="14.988956393443999"><ele>1059.0</ele><time>2026-03-27T17:15:37.999Z</time></trkpt><trkpt lat="37.6514291354946" lon="14.988958158529034"><ele>1060.0</ele><time>2026-03-27T17:15:38.999Z</time></trkpt><trkpt lat="37.65157384674965" lon="14.98898838963199"><ele>1061.0</ele><time>2026-03-27T17:15:39.999Z</time></trkpt><trkpt lat="37.6517187286766" lon="14.989038057186086"><ele>1061.0</ele><time>2026-03-27T17:15:40.999Z</time></trkpt><trkpt lat="37.651868094500266" lon="14.989103319634973"><ele>1061.0</ele><time>2026-03-27T17:15:41.999Z</time></trkpt><trkpt lat="37.652020883648106" lon="14.989168620918335"><ele>1061.0</ele><time>2026-03-27T17:15:42.999Z</time></trkpt><trkpt lat="37.652180880499344" lon="14.989223809188125"><ele>1063.0</ele><time>2026-03-27T17:15:43.999Z</time></trkpt><trkpt lat="37.65234108804459" lon="14.98927820410112"><ele>1065.0</ele><time>2026-03-27T17:15:44.999Z</time></trkpt><trkpt lat="37.65250412219101" lon="14.989334598887947"><ele>1067.0</ele><time>2026-03-27T17:15:45.999Z</time></trkpt><trkpt lat="37.652669470410345" lon="14.989394349042163"><ele>1069.6666666666667</ele><time>2026-03-27T17:15:46.999Z</time></trkpt><trkpt lat="37.6528375921348" lon="14.989454799160056"><ele>1072.3333333333333</ele><time>2026-03-27T17:15:47.999Z</time></trkpt><trkpt lat="37.65300666318887" lon="14.989516704737733"><ele>1075.0</ele><time>2026-03-27T17:15:48.999Z</time></trkpt><trkpt lat="37.65317719502602" lon="14.989579458282885"><ele>1075.0</ele><time>2026-03-27T17:15:49.999Z</time></trkpt><trkpt lat="37.65335074136756" lon="14.98964176297634"><ele>1075.0</ele><time>2026-03-27T17:15:50.999Z</time></trkpt><trkpt lat="37.65351934211663" lon="14.989704819666732"><ele>1075.0</ele><time>2026-03-27T17:15:51.999Z</time></trkpt><trkpt lat="37.65368953630564" lon="14.989765015684224"><ele>1076.3333333333333</ele><time>2026-03-27T17:15:52.999Z</time></trkpt><trkpt lat="37.65386125803235" lon="14.989822664332237"><ele>1077.6666666666667</ele><time>2026-03-27T17:15:53.999Z</time></trkpt><trkpt lat="37.65402324130628" lon="14.989879915803526"><ele>1079.0</ele><time>2026-03-27T17:15:54.999Z</time></trkpt><trkpt lat="37.654171415992536" lon="14.989937756451292"><ele>1079.0</ele><time>2026-03-27T17:15:55.999Z</time></trkpt><trkpt lat="37.65430911255397" lon="14.9899807528643"><ele>1079.0</ele><time>2026-03-27T17:15:56.999Z</time></trkpt><trkpt lat="37.65444845179981" lon="14.989994147442708"><ele>1079.0</ele><time>2026-03-27T17:15:57.999Z</time></trkpt><trkpt lat="37.65458202727851" lon="14.989961211125483"><ele>1079.0</ele><time>2026-03-27T17:15:58.999Z</time></trkpt><trkpt lat="37.65470434666899" lon="14.989858313302767"><ele>1080.0</ele><time>2026-03-27T17:15:59.999Z</time></trkpt><trkpt lat="37.654827078668454" lon="14.989746870195606"><ele>1081.0</ele><time>2026-03-27T17:16:00.999Z</time></trkpt><trkpt lat="37.65495784111217" lon="14.989634024532153"><ele>1082.0</ele><time>2026-03-27T17:16:01.999Z</time></trkpt><trkpt lat="37.65509786691358" lon="14.989517745541471"><ele>1082.0</ele><time>2026-03-27T17:16:02.999Z</time></trkpt><trkpt lat="37.6552415865573" lon="14.98939857590712"><ele>1082.0</ele><time>2026-03-27T17:16:03.999Z</time></trkpt><trkpt lat="37.655393421972654" lon="14.989271292345778"><ele>1082.0</ele><time>2026-03-27T17:16:04.999Z</time></trkpt><trkpt lat="37.65554475767294" lon="14.989145558240258"><ele>1086.3333333333335</ele><time>2026-03-27T17:16:05.999Z</time></trkpt><trkpt lat="37.65569887153217" lon="14.989018045001007"><ele>1090.6666666666667</ele><time>2026-03-27T17:16:06.999Z</time></trkpt><trkpt lat="37.65585561432489" lon="14.988886892297389"><ele>1095.0</ele><time>2026-03-27T17:16:07.999Z</time></trkpt><trkpt lat="37.65601147134734" lon="14.988756178874445"><ele>1099.3333333333333</ele><time>2026-03-27T17:16:08.999Z</time></trkpt><trkpt lat="37.65616790497766" lon="14.98862430645102"><ele>1103.6666666666665</ele><time>2026-03-27T17:16:09.999Z</time></trkpt><trkpt lat="37.656323368645566" lon="14.988493654765788"><ele>1108.0</ele><time>2026-03-27T17:16:10.999Z</time></trkpt><trkpt lat="37.656477591435895" lon="14.988365061499929"><ele>1106.0</ele><time>2026-03-27T17:16:11.999Z</time></trkpt><trkpt lat="37.65662969424417" lon="14.988237080080111"><ele>1104.0</ele><time>2026-03-27T17:16:12.999Z</time></trkpt><trkpt lat="37.65677620278756" lon="14.988116550167943"><ele>1102.0</ele><time>2026-03-27T17:16:13.999Z</time></trkpt><trkpt lat="37.65691845295138" lon="14.98799786622628"><ele>1105.3333333333333</ele><time>2026-03-27T17:16:14.999Z</time></trkpt><trkpt lat="37.65705584763634" lon="14.987879146038683"><ele>1108.6666666666667</ele><time>2026-03-27T17:16:15.999Z</time></trkpt><trkpt lat="37.65719215197896" lon="14.987759024320047"><ele>1112.0</ele><time>2026-03-27T17:16:16.999Z</time></trkpt><trkpt lat="37.657330127017794" lon="14.987633244770333"><ele>1113.3333333333335</ele><time>2026-03-27T17:16:17.999Z</time></trkpt><trkpt lat="37.657466392995396" lon="14.987509670484927"><ele>1114.6666666666667</ele><time>2026-03-27T17:16:18.999Z</time></trkpt><trkpt lat="37.657607235564015" lon="14.987384607042713"><ele>1116.0</ele><time>2026-03-27T17:16:20Z</time></trkpt><trkpt lat="37.65774171833384" lon="14.987257308757066"><ele>1120.6666666666667</ele><time>2026-03-27T17:16:21Z</time></trkpt><trkpt lat="37.65787178951131" lon="14.98713573417005"><ele>1125.3333333333335</ele><time>2026-03-27T17:16:22Z</time></trkpt><trkpt lat="37.658001255056234" lon="14.987019371690806"><ele>1130.0</ele><time>2026-03-27T17:16:23Z</time></trkpt><trkpt lat="37.65813854606042" lon="14.986901202636561"><ele>1130.0</ele><time>2026-03-27T17:16:24Z</time></trkpt><trkpt lat="37.6582849889441" lon="14.986827316730691"><ele>1130.0</ele><time>2026-03-27T17:16:25Z</time></trkpt><trkpt lat="37.65844960713027" lon="14.986783092052459"><ele>1130.0</ele><time>2026-03-27T17:16:26Z</time></trkpt><trkpt lat="37.65861754205337" lon="14.986754278099946"><ele>1130.3333333333335</ele><time>2026-03-27T17:16:27Z</time></trkpt><trkpt lat="37.658787200082266" lon="14.986725346053586"><ele>1130.6666666666667</ele><time>2026-03-27T17:16:28Z</time></trkpt><trkpt lat="37.65896247700121" lon="14.986675655219726"><ele>1131.0</ele><time>2026-03-27T17:16:29Z</time></trkpt><trkpt lat="37.659144133274104" lon="14.986657466564468"><ele>1131.0</ele><time>2026-03-27T17:16:30Z</time></trkpt><trkpt lat="37.6593162881428" lon="14.986634731624092"><ele>1131.0</ele><time>2026-03-27T17:16:31Z</time></trkpt><trkpt lat="37.65946291429715" lon="14.986598084761281"><ele>1131.0</ele><time>2026-03-27T17:16:32Z</time></trkpt><trkpt lat="37.65960493032785" lon="14.986534550464063"><ele>1133.0</ele><time>2026-03-27T17:16:33Z</time></trkpt><trkpt lat="37.659739774694785" lon="14.986432171341994"><ele>1135.0</ele><time>2026-03-27T17:16:34Z</time></trkpt><trkpt lat="37.65986422483731" lon="14.986289669154964"><ele>1137.0</ele><time>2026-03-27T17:16:35Z</time></trkpt><trkpt lat="37.65998681717962" lon="14.986135422806187"><ele>1137.0</ele><time>2026-03-27T17:16:36Z</time></trkpt><trkpt lat="37.660114322240226" lon="14.985979271999694"><ele>1137.0</ele><time>2026-03-27T17:16:37Z</time></trkpt><trkpt lat="37.66023617697386" lon="14.985829408985184"><ele>1137.0</ele><time>2026-03-27T17:16:38Z</time></trkpt><trkpt lat="37.660341162827855" lon="14.98570676940774"><ele>1139.75</ele><time>2026-03-27T17:16:39Z</time></trkpt><trkpt lat="37.660445532135626" lon="14.98560670644494"><ele>1142.5</ele><time>2026-03-27T17:16:40Z</time></trkpt><trkpt lat="37.66056225828209" lon="14.98558399724733"><ele>1145.25</ele><time>2026-03-27T17:16:41Z</time></trkpt><trkpt lat="37.66068332276458" lon="14.985596375276952"><ele>1148.0</ele><time>2026-03-27T17:16:42Z</time></trkpt><trkpt lat="37.66082359841462" lon="14.985597601759583"><ele>1148.0</ele><time>2026-03-27T17:16:43Z</time></trkpt><trkpt lat="37.66097653331031" lon="14.98559865956398"><ele>1148.0</ele><time>2026-03-27T17:16:44Z</time></trkpt><trkpt lat="37.66113756204403" lon="14.985588239446374"><ele>1148.0</ele><time>2026-03-27T17:16:45Z</time></trkpt><trkpt lat="37.66129812067188" lon="14.985589801669027"><ele>1150.0</ele><time>2026-03-27T17:16:46Z</time></trkpt><trkpt lat="37.66145237002394" lon="14.985595255509214"><ele>1152.0</ele><time>2026-03-27T17:16:47Z</time></trkpt><trkpt lat="37.66158522053946" lon="14.98559475669411"><ele>1154.0</ele><time>2026-03-27T17:16:48Z</time></trkpt><trkpt lat="37.66170357225557" lon="14.985586946605467"><ele>1156.0</ele><time>2026-03-27T17:16:49Z</time></trkpt><trkpt lat="37.66181146160658" lon="14.985551949511713"><ele>1156.0</ele><time>2026-03-27T17:16:50Z</time></trkpt><trkpt lat="37.661917317682146" lon="14.985457825648783"><ele>1156.0</ele><time>2026-03-27T17:16:51Z</time></trkpt><trkpt lat="37.662017411777" lon="14.985318564168425"><ele>1156.0</ele><time>2026-03-27T17:16:52Z</time></trkpt><trkpt lat="37.66211918613536" lon="14.985175384253948"><ele>1156.0</ele><time>2026-03-27T17:16:53Z</time></trkpt><trkpt lat="37.66223126829221" lon="14.985028910953167"><ele>1157.6666666666665</ele><time>2026-03-27T17:16:54Z</time></trkpt><trkpt lat="37.662352086704594" lon="14.984883071859791"><ele>1159.3333333333333</ele><time>2026-03-27T17:16:55Z</time></trkpt><trkpt lat="37.6624730359373" lon="14.984739304226514"><ele>1161.0</ele><time>2026-03-27T17:16:56Z</time></trkpt><trkpt lat="37.66257852233841" lon="14.984612784220587"><ele>1161.0</ele><time>2026-03-27T17:16:57Z</time></trkpt><trkpt lat="37.66267110720629" lon="14.984514462217597"><ele>1161.0</ele><time>2026-03-27T17:16:58Z</time></trkpt><trkpt lat="37.66276415498923" lon="14.984465117687295"><ele>1161.0</ele><time>2026-03-27T17:16:59Z</time></trkpt><trkpt lat="37.66287344744139" lon="14.984453636933322"><ele>1161.0</ele><time>2026-03-27T17:17:00Z</time></trkpt><trkpt lat="37.66298375632475" lon="14.98452601780052"><ele>1164.75</ele><time>2026-03-27T17:17:01Z</time></trkpt><trkpt lat="37.663076912041184" lon="14.984615023665427"><ele>1168.5</ele><time>2026-03-27T17:17:02Z</time></trkpt><trkpt lat="37.66313750667132" lon="14.984740986867205"><ele>1172.25</ele><time>2026-03-27T17:17:03Z</time></trkpt><trkpt lat="37.66316159231058" lon="14.984890186338859"><ele>1176.0</ele><time>2026-03-27T17:17:04Z</time></trkpt><trkpt lat="37.66314671383889" lon="14.985028168434862"><ele>1177.25</ele><time>2026-03-27T17:17:05Z</time></trkpt><trkpt lat="37.66309996877148" lon="14.98515151350105"><ele>1178.5</ele><time>2026-03-27T17:17:06Z</time></trkpt><trkpt lat="37.663008607782636" lon="14.985254756775243"><ele>1179.75</ele><time>2026-03-27T17:17:07Z</time></trkpt><trkpt lat="37.66292357948963" lon="14.985386365239378"><ele>1181.0</ele><time>2026-03-27T17:17:08Z</time></trkpt><trkpt lat="37.66285730365467" lon="14.98551118135372"><ele>1181.0</ele><time>2026-03-27T17:17:09Z</time></trkpt><trkpt lat="37.66283962723638" lon="14.985663248093028"><ele>1181.0</ele><time>2026-03-27T17:17:10Z</time></trkpt><trkpt lat="37.662860891218685" lon="14.985821087361181"><ele>1181.0</ele><time>2026-03-27T17:17:11Z</time></trkpt><trkpt lat="37.66291463869027" lon="14.985959416789257"><ele>1181.0</ele><time>2026-03-27T17:17:12Z</time></trkpt><trkpt lat="37.66301108315968" lon="14.98606528401247"><ele>1181.75</ele><time>2026-03-27T17:17:13Z</time></trkpt><trkpt lat="37.66311618095918" lon="14.986144403595699"><ele>1182.5</ele><time>2026-03-27T17:17:14Z</time></trkpt><trkpt lat="37.66322005687253" lon="14.986188335167364"><ele>1183.25</ele><time>2026-03-27T17:17:15Z</time></trkpt><trkpt lat="37.6633406713614" lon="14.986185805473237"><ele>1184.0</ele><time>2026-03-27T17:17:16Z</time></trkpt><trkpt lat="37.66345954355229" lon="14.986130072094666"><ele>1184.0</ele><time>2026-03-27T17:17:17Z</time></trkpt><trkpt lat="37.6635528262537" lon="14.986022286636986"><ele>1184.0</ele><time>2026-03-27T17:17:18Z</time></trkpt><trkpt lat="37.6636192359398" lon="14.985884903229643"><ele>1184.0</ele><time>2026-03-27T17:17:19Z</time></trkpt><trkpt lat="37.663652571865526" lon="14.98572915362331"><ele>1184.0</ele><time>2026-03-27T17:17:20Z</time></trkpt><trkpt lat="37.66364337528232" lon="14.98556296936726"><ele>1183.25</ele><time>2026-03-27T17:17:21Z</time></trkpt><trkpt lat="37.663601215524665" lon="14.985416291785258"><ele>1182.5</ele><time>2026-03-27T17:17:22Z</time></trkpt><trkpt lat="37.663592999848724" lon="14.985268161322374"><ele>1181.75</ele><time>2026-03-27T17:17:22.999Z</time></trkpt><trkpt lat="37.66364043193211" lon="14.985119089230665"><ele>1181.0</ele><time>2026-03-27T17:17:23.999Z</time></trkpt><trkpt lat="37.66373252034526" lon="14.984982154256466"><ele>1185.0</ele><time>2026-03-27T17:17:24.999Z</time></trkpt><trkpt lat="37.66381547249343" lon="14.984818070963094"><ele>1189.0</ele><time>2026-03-27T17:17:25.999Z</time></trkpt><trkpt lat="37.663918272113634" lon="14.984662893723225"><ele>1193.0</ele><time>2026-03-27T17:17:26.999Z</time></trkpt><trkpt lat="37.66402412803862" lon="14.984496681741364"><ele>1193.0</ele><time>2026-03-27T17:17:27.999Z</time></trkpt><trkpt lat="37.66412821900574" lon="14.984318309035915"><ele>1193.0</ele><time>2026-03-27T17:17:28.999Z</time></trkpt><trkpt lat="37.66422535806232" lon="14.984150779438938"><ele>1193.0</ele><time>2026-03-27T17:17:29.999Z</time></trkpt><trkpt lat="37.66431978589578" lon="14.984013574707983"><ele>1192.25</ele><time>2026-03-27T17:17:30.999Z</time></trkpt><trkpt lat="37.66442447537376" lon="14.983918406248515"><ele>1191.5</ele><time>2026-03-27T17:17:31.999Z</time></trkpt><trkpt lat="37.66455957296988" lon="14.983885836082292"><ele>1190.75</ele><time>2026-03-27T17:17:32.999Z</time></trkpt><trkpt lat="37.66470129809538" lon="14.983815827547271"><ele>1190.0</ele><time>2026-03-27T17:17:33.999Z</time></trkpt><trkpt lat="37.664855022482044" lon="14.983765385833427"><ele>1194.5</ele><time>2026-03-27T17:17:34.999Z</time></trkpt><trkpt lat="37.66499943195183" lon="14.983705340027777"><ele>1199.0</ele><time>2026-03-27T17:17:35.999Z</time></trkpt><trkpt lat="37.6651195255364" lon="14.983604963110643"><ele>1203.5</ele><time>2026-03-27T17:17:36.999Z</time></trkpt><trkpt lat="37.66521828257068" lon="14.983467237569036"><ele>1208.0</ele><time>2026-03-27T17:17:37.999Z</time></trkpt><trkpt lat="37.665305485924556" lon="14.98334277072308"><ele>1209.5</ele><time>2026-03-27T17:17:38.999Z</time></trkpt><trkpt lat="37.66541142357151" lon="14.983257903648255"><ele>1211.0</ele><time>2026-03-27T17:17:39.999Z</time></trkpt><trkpt lat="37.66553781503802" lon="14.9832257740479"><ele>1212.5</ele><time>2026-03-27T17:17:40.999Z</time></trkpt><trkpt lat="37.66567014145388" lon="14.98323689678434"><ele>1214.0</ele><time>2026-03-27T17:17:41.999Z</time></trkpt><trkpt lat="37.66579414121079" lon="14.983297135134777"><ele>1216.0</ele><time>2026-03-27T17:17:42.999Z</time></trkpt><trkpt lat="37.665901530922035" lon="14.983400167455045"><ele>1218.0</ele><time>2026-03-27T17:17:43.999Z</time></trkpt><trkpt lat="37.6659653353789" lon="14.983556254966613"><ele>1220.0</ele><time>2026-03-27T17:17:44.999Z</time></trkpt><trkpt lat="37.66600197029349" lon="14.983719728702559"><ele>1222.0</ele><time>2026-03-27T17:17:45.999Z</time></trkpt><trkpt lat="37.66600427571486" lon="14.983879698659932"><ele>1222.0</ele><time>2026-03-27T17:17:46.999Z</time></trkpt><trkpt lat="37.66596057629113" lon="14.984022357634098"><ele>1222.0</ele><time>2026-03-27T17:17:47.999Z</time></trkpt><trkpt lat="37.66589432809621" lon="14.984167789130106"><ele>1222.0</ele><time>2026-03-27T17:17:48.999Z</time></trkpt><trkpt lat="37.665793738576205" lon="14.984279071337815"><ele>1222.0</ele><time>2026-03-27T17:17:49.999Z</time></trkpt><trkpt lat="37.66566855612072" lon="14.984352407758507"><ele>1223.5</ele><time>2026-03-27T17:17:50.999Z</time></trkpt><trkpt lat="37.665551932899305" lon="14.984458098625671"><ele>1225.0</ele><time>2026-03-27T17:17:51.999Z</time></trkpt><trkpt lat="37.665467760118844" lon="14.984546928958261"><ele>1226.5</ele><time>2026-03-27T17:17:52.999Z</time></trkpt><trkpt lat="37.665419311778024" lon="14.984664600644932"><ele>1228.0</ele><time>2026-03-27T17:17:53.999Z</time></trkpt><trkpt lat="37.665405914780386" lon="14.984809947336343"><ele>1228.0</ele><time>2026-03-27T17:17:54.999Z</time></trkpt><trkpt lat="37.66542547740832" lon="14.9849590559362"><ele>1228.0</ele><time>2026-03-27T17:17:55.999Z</time></trkpt><trkpt lat="37.66547877708071" lon="14.985098136064577"><ele>1228.0</ele><time>2026-03-27T17:17:56.999Z</time></trkpt><trkpt lat="37.66556719738999" lon="14.985206255636086"><ele>1228.0</ele><time>2026-03-27T17:17:57.999Z</time></trkpt><trkpt lat="37.66567366922253" lon="14.985272001866136"><ele>1228.75</ele><time>2026-03-27T17:17:58.999Z</time></trkpt><trkpt lat="37.66579210969896" lon="14.98529483518579"><ele>1229.5</ele><time>2026-03-27T17:17:59.999Z</time></trkpt><trkpt lat="37.66591052629892" lon="14.98528189750385"><ele>1230.25</ele><time>2026-03-27T17:18:00.999Z</time></trkpt><trkpt lat="37.666018282960984" lon="14.985215105534117"><ele>1231.0</ele><time>2026-03-27T17:18:01.999Z</time></trkpt><trkpt lat="37.666106714325686" lon="14.985107583845556"><ele>1233.5</ele><time>2026-03-27T17:18:02.999Z</time></trkpt><trkpt lat="37.66618077238083" lon="14.9849696252035"><ele>1236.0</ele><time>2026-03-27T17:18:03.999Z</time></trkpt><trkpt lat="37.66625798171299" lon="14.984816009921092"><ele>1238.5</ele><time>2026-03-27T17:18:04.999Z</time></trkpt><trkpt lat="37.666345076806685" lon="14.984667110117307"><ele>1241.0</ele><time>2026-03-27T17:18:05.999Z</time></trkpt><trkpt lat="37.66643663330487" lon="14.984521775018782"><ele>1241.0</ele><time>2026-03-27T17:18:06.999Z</time></trkpt><trkpt lat="37.66652028595756" lon="14.984392546901896"><ele>1241.0</ele><time>2026-03-27T17:18:07.999Z</time></trkpt><trkpt lat="37.666611419552325" lon="14.98429690456135"><ele>1241.0</ele><time>2026-03-27T17:18:08.999Z</time></trkpt><trkpt lat="37.666722762804795" lon="14.984233359850371"><ele>1241.0</ele><time>2026-03-27T17:18:09.999Z</time></trkpt><trkpt lat="37.666847834785386" lon="14.984207832579466"><ele>1246.0</ele><time>2026-03-27T17:18:10.999Z</time></trkpt><trkpt lat="37.66697959180811" lon="14.98422771159956"><ele>1251.0</ele><time>2026-03-27T17:18:11.999Z</time></trkpt><trkpt lat="37.66710860606984" lon="14.98428829810852"><ele>1256.0</ele><time>2026-03-27T17:18:12.999Z</time></trkpt><trkpt lat="37.66720831942457" lon="14.984413532062625"><ele>1261.0</ele><time>2026-03-27T17:18:13.999Z</time></trkpt><trkpt lat="37.66730772955219" lon="14.984547417530734"><ele>1261.0</ele><time>2026-03-27T17:18:14.999Z</time></trkpt><trkpt lat="37.66734082688475" lon="14.984727849285962"><ele>1261.0</ele><time>2026-03-27T17:18:15.999Z</time></trkpt><trkpt lat="37.6673479399245" lon="14.984891504812275"><ele>1261.0</ele><time>2026-03-27T17:18:16.999Z</time></trkpt><trkpt lat="37.66731014835067" lon="14.985054770088338"><ele>1261.0</ele><time>2026-03-27T17:18:17.999Z</time></trkpt><trkpt lat="37.66726400320763" lon="14.985239090473767"><ele>1260.3333333333333</ele><time>2026-03-27T17:18:18.999Z</time></trkpt><trkpt lat="37.66721922835058" lon="14.985440775499734"><ele>1259.6666666666667</ele><time>2026-03-27T17:18:19.999Z</time></trkpt><trkpt lat="37.66715334726437" lon="14.985655046389262"><ele>1259.0</ele><time>2026-03-27T17:18:20.999Z</time></trkpt><trkpt lat="37.6670949032873" lon="14.985879853299856"><ele>1260.6666666666667</ele><time>2026-03-27T17:18:21.999Z</time></trkpt><trkpt lat="37.667036828158054" lon="14.986106006553568"><ele>1262.3333333333333</ele><time>2026-03-27T17:18:22.999Z</time></trkpt><trkpt lat="37.66697797174811" lon="14.986327728416954"><ele>1264.0</ele><time>2026-03-27T17:18:23.999Z</time></trkpt><trkpt lat="37.6669204115156" lon="14.98652315855369"><ele>1263.2</ele><time>2026-03-27T17:18:24.999Z</time></trkpt><trkpt lat="37.666882250153265" lon="14.986665822650016"><ele>1262.4</ele><time>2026-03-27T17:18:26Z</time></trkpt><trkpt lat="37.666865833150545" lon="14.986788117713184"><ele>1261.6</ele><time>2026-03-27T17:18:27Z</time></trkpt><trkpt lat="37.66688135730776" lon="14.986915908744473"><ele>1260.8</ele><time>2026-03-27T17:18:28Z</time></trkpt><trkpt lat="37.66693178726258" lon="14.987048458581222"><ele>1260.0</ele><time>2026-03-27T17:18:29Z</time></trkpt><trkpt lat="37.667014399346776" lon="14.987154107191701"><ele>1262.8</ele><time>2026-03-27T17:18:30Z</time></trkpt><trkpt lat="37.66711329537884" lon="14.987219661676802"><ele>1265.6</ele><time>2026-03-27T17:18:31Z</time></trkpt><trkpt lat="37.66721503559684" lon="14.987236912059002"><ele>1268.4</ele><time>2026-03-27T17:18:32Z</time></trkpt><trkpt lat="37.66732265310185" lon="14.987197635845131"><ele>1271.2</ele><time>2026-03-27T17:18:33Z</time></trkpt><trkpt lat="37.667431054438936" lon="14.987126231647666"><ele>1274.0</ele><time>2026-03-27T17:18:34Z</time></trkpt><trkpt lat="37.66754195284615" lon="14.98704315224004"><ele>1274.0</ele><time>2026-03-27T17:18:35Z</time></trkpt><trkpt lat="37.667658431039" lon="14.986957701523874"><ele>1274.0</ele><time>2026-03-27T17:18:36Z</time></trkpt><trkpt lat="37.66776780707189" lon="14.986875689545553"><ele>1274.0</ele><time>2026-03-27T17:18:37Z</time></trkpt><trkpt lat="37.66787154914434" lon="14.986778267867601"><ele>1274.0</ele><time>2026-03-27T17:18:38Z</time></trkpt><trkpt lat="37.667949766590446" lon="14.986662751984637"><ele>1275.8000000000002</ele><time>2026-03-27T17:18:39Z</time></trkpt><trkpt lat="37.66799959390531" lon="14.986559826846367"><ele>1277.6000000000001</ele><time>2026-03-27T17:18:40Z</time></trkpt><trkpt lat="37.66804816781284" lon="14.986479853851142"><ele>1279.4</ele><time>2026-03-27T17:18:41Z</time></trkpt><trkpt lat="37.668113714974446" lon="14.986417553033066"><ele>1281.2</ele><time>2026-03-27T17:18:42Z</time></trkpt><trkpt lat="37.668205751761455" lon="14.986372680749177"><ele>1283.0</ele><time>2026-03-27T17:18:43Z</time></trkpt><trkpt lat="37.6683056601015" lon="14.986349824734384"><ele>1283.0</ele><time>2026-03-27T17:18:44Z</time></trkpt><trkpt lat="37.668410072266724" lon="14.986364782818368"><ele>1283.0</ele><time>2026-03-27T17:18:45Z</time></trkpt><trkpt lat="37.66851253504129" lon="14.986411061032173"><ele>1283.0</ele><time>2026-03-27T17:18:46Z</time></trkpt><trkpt lat="37.66860192182215" lon="14.986491035680084"><ele>1283.0</ele><time>2026-03-27T17:18:47Z</time></trkpt><trkpt lat="37.66867328028308" lon="14.98660174618205"><ele>1283.0</ele><time>2026-03-27T17:18:48Z</time></trkpt><trkpt lat="37.66872114626705" lon="14.986735579045783"><ele>1286.75</ele><time>2026-03-27T17:18:49Z</time></trkpt><trkpt lat="37.668720356972884" lon="14.986886781735578"><ele>1290.5</ele><time>2026-03-27T17:18:50Z</time></trkpt><trkpt lat="37.66872297756527" lon="14.98703955478148"><ele>1294.25</ele><time>2026-03-27T17:18:51Z</time></trkpt><trkpt lat="37.66873231947522" lon="14.987191346899074"><ele>1298.0</ele><time>2026-03-27T17:18:52Z</time></trkpt><trkpt lat="37.66873726329187" lon="14.98734462093951"><ele>1298.0</ele><time>2026-03-27T17:18:53Z</time></trkpt><trkpt lat="37.66875793287572" lon="14.987488821413391"><ele>1298.0</ele><time>2026-03-27T17:18:54Z</time></trkpt><trkpt lat="37.668811819767654" lon="14.987617223729444"><ele>1298.0</ele><time>2026-03-27T17:18:55Z</time></trkpt><trkpt lat="37.668894398370746" lon="14.987733583762175"><ele>1298.0</ele><time>2026-03-27T17:18:56Z</time></trkpt><trkpt lat="37.66901516932997" lon="14.987822278834624"><ele>1297.0</ele><time>2026-03-27T17:18:57Z</time></trkpt><trkpt lat="37.66913795086728" lon="14.987888692924301"><ele>1296.0</ele><time>2026-03-27T17:18:58Z</time></trkpt><trkpt lat="37.669251672006794" lon="14.987940154304647"><ele>1295.0</ele><time>2026-03-27T17:18:59Z</time></trkpt><trkpt lat="37.66935145978756" lon="14.987984748453435"><ele>1294.0</ele><time>2026-03-27T17:19:00Z</time></trkpt><trkpt lat="37.66944983761306" lon="14.988030508974289"><ele>1295.5</ele><time>2026-03-27T17:19:01Z</time></trkpt><trkpt lat="37.66953186365554" lon="14.988074062606705"><ele>1297.0</ele><time>2026-03-27T17:19:02Z</time></trkpt><trkpt lat="37.66960680931742" lon="14.988108071683563"><ele>1298.5</ele><time>2026-03-27T17:19:03Z</time></trkpt><trkpt lat="37.669682291465925" lon="14.988137133183812"><ele>1300.0</ele><time>2026-03-27T17:19:04Z</time></trkpt><trkpt lat="37.669764391547616" lon="14.988172886636633"><ele>1301.5</ele><time>2026-03-27T17:19:05Z</time></trkpt><trkpt lat="37.66985855118832" lon="14.988212399996131"><ele>1303.0</ele><time>2026-03-27T17:19:06Z</time></trkpt><trkpt lat="37.669963337234975" lon="14.988254491624645"><ele>1303.0</ele><time>2026-03-27T17:19:07Z</time></trkpt><trkpt lat="37.67007578460714" lon="14.9883026991996"><ele>1303.0</ele><time>2026-03-27T17:19:08Z</time></trkpt><trkpt lat="37.67019617392805" lon="14.988350999268317"><ele>1303.0</ele><time>2026-03-27T17:19:09Z</time></trkpt><trkpt lat="37.67032039993375" lon="14.988400958798929"><ele>1303.0</ele><time>2026-03-27T17:19:10Z</time></trkpt><trkpt lat="37.67043926097854" lon="14.98845477091643"><ele>1304.4</ele><time>2026-03-27T17:19:11Z</time></trkpt><trkpt lat="37.67053813120925" lon="14.98852837909874"><ele>1305.8000000000002</ele><time>2026-03-27T17:19:12Z</time></trkpt><trkpt lat="37.67061607790811" lon="14.988622221287352"><ele>1307.2</ele><time>2026-03-27T17:19:13Z</time></trkpt><trkpt lat="37.67067531367425" lon="14.988727960797894"><ele>1308.6</ele><time>2026-03-27T17:19:14Z</time></trkpt><trkpt lat="37.67072064727507" lon="14.988841959378014"><ele>1310.0</ele><time>2026-03-27T17:19:15Z</time></trkpt><trkpt lat="37.67075548573179" lon="14.988970549708904"><ele>1310.0</ele><time>2026-03-27T17:19:16Z</time></trkpt><trkpt lat="37.67077573075387" lon="14.989115009730185"><ele>1310.0</ele><time>2026-03-27T17:19:17Z</time></trkpt><trkpt lat="37.670770714571134" lon="14.989270285162135"><ele>1310.0</ele><time>2026-03-27T17:19:18Z</time></trkpt><trkpt lat="37.67070439037015" lon="14.989420558587534"><ele>1310.0</ele><time>2026-03-27T17:19:19Z</time></trkpt><trkpt lat="37.67065904794579" lon="14.98956770807584"><ele>1311.0</ele><time>2026-03-27T17:19:20Z</time></trkpt><trkpt lat="37.670609344134895" lon="14.989731488803823"><ele>1312.0</ele><time>2026-03-27T17:19:21Z</time></trkpt><trkpt lat="37.670574937426984" lon="14.98990947061804"><ele>1313.0</ele><time>2026-03-27T17:19:22Z</time></trkpt><trkpt lat="37.670546891738695" lon="14.990066519848126"><ele>1314.0</ele><time>2026-03-27T17:19:23Z</time></trkpt><trkpt lat="37.670553516831575" lon="14.990215739576639"><ele>1315.0</ele><time>2026-03-27T17:19:24Z</time></trkpt><trkpt lat="37.67058894734594" lon="14.990364175592717"><ele>1316.0</ele><time>2026-03-27T17:19:25Z</time></trkpt><trkpt lat="37.67065142189325" lon="14.990505875381256"><ele>1317.0</ele><time>2026-03-27T17:19:26Z</time></trkpt><trkpt lat="37.67071330384896" lon="14.990624001838306"><ele>1318.0</ele><time>2026-03-27T17:19:27Z</time></trkpt><trkpt lat="37.67077409224904" lon="14.990719110156242"><ele>1318.0</ele><time>2026-03-27T17:19:28Z</time></trkpt><trkpt lat="37.670831690307146" lon="14.990804602945243"><ele>1318.0</ele><time>2026-03-27T17:19:28.999Z</time></trkpt><trkpt lat="37.670874005445455" lon="14.99090044217485"><ele>1318.0</ele><time>2026-03-27T17:19:29.999Z</time></trkpt><trkpt lat="37.670937602883356" lon="14.990963664648845"><ele>1318.0</ele><time>2026-03-27T17:19:30.999Z</time></trkpt><trkpt lat="37.67098447809319" lon="14.991025282825893"><ele>1318.0</ele><time>2026-03-27T17:19:31.999Z</time></trkpt><trkpt lat="37.67107488807634" lon="14.991096450800308"><ele>1318.0</ele><time>2026-03-27T17:19:33.999Z</time></trkpt><trkpt lat="37.67116423635738" lon="14.991139156611828"><ele>1320.6666666666665</ele><time>2026-03-27T17:19:35.999Z</time></trkpt><trkpt lat="37.67122263960789" lon="14.991168876144204"><ele>1323.3333333333333</ele><time>2026-03-27T17:19:38.999Z</time></trkpt><trkpt lat="37.671265098420754" lon="14.991237525707355"><ele>1326.0</ele><time>2026-03-27T17:19:40.999Z</time></trkpt><trkpt lat="37.67122072473198" lon="14.99131869714728"><ele>1328.6666666666667</ele><time>2026-03-27T17:19:42.999Z</time></trkpt><trkpt lat="37.671220034414304" lon="14.991415882855645"><ele>1331.3333333333335</ele><time>2026-03-27T17:19:44.999Z</time></trkpt><trkpt lat="37.671218882383236" lon="14.991530523555031"><ele>1334.0</ele><time>2026-03-27T17:19:47.999Z</time></trkpt><trkpt lat="37.67121786826546" lon="14.99163144021951"><ele>1334.1666666666667</ele><time>2026-03-27T17:19:49.999Z</time></trkpt><trkpt lat="37.671222646963564" lon="14.991755430678081"><ele>1334.3333333333335</ele><time>2026-03-27T17:19:51.999Z</time></trkpt><trkpt lat="37.671247461630806" lon="14.991852282936371"><ele>1334.5</ele><time>2026-03-27T17:19:53.999Z</time></trkpt><trkpt lat="37.67133085578843" lon="14.991903156268958"><ele>1334.6666666666667</ele><time>2026-03-27T17:19:55.999Z</time></trkpt><trkpt lat="37.67142450983226" lon="14.991894680963922"><ele>1334.8333333333333</ele><time>2026-03-27T17:19:57.999Z</time></trkpt><trkpt lat="37.671508169169954" lon="14.991891064655299"><ele>1335.0</ele><time>2026-03-27T17:19:59.999Z</time></trkpt><trkpt lat="37.67158771631024" lon="14.99188079777334"><ele>1335.0</ele><time>2026-03-27T17:20:01.999Z</time></trkpt><trkpt lat="37.67167104240986" lon="14.991891477753414"><ele>1335.0</ele><time>2026-03-27T17:20:03.999Z</time></trkpt><trkpt lat="37.67174241637757" lon="14.99191529739443"><ele>1335.0</ele><time>2026-03-27T17:20:05.999Z</time></trkpt><trkpt lat="37.671824046961504" lon="14.991917333386317"><ele>1335.0</ele><time>2026-03-27T17:20:07.999Z</time></trkpt><trkpt lat="37.6718997370762" lon="14.991890494611877"><ele>1335.0</ele><time>2026-03-27T17:20:09.999Z</time></trkpt><trkpt lat="37.67199892711156" lon="14.991896106809548"><ele>1335.0</ele><time>2026-03-27T17:20:11.999Z</time></trkpt><trkpt lat="37.67211890674638" lon="14.991929849596765"><ele>1338.0</ele><time>2026-03-27T17:20:13.999Z</time></trkpt><trkpt lat="37.672206247825265" lon="14.991960024175564"><ele>1341.0</ele><time>2026-03-27T17:20:15.999Z</time></trkpt><trkpt lat="37.67232453503479" lon="14.991999959542346"><ele>1344.0</ele><time>2026-03-27T17:20:17.999Z</time></trkpt><trkpt lat="37.6724161648014" lon="14.992013478566783"><ele>1347.0</ele><time>2026-03-27T17:20:19.999Z</time></trkpt><trkpt lat="37.672480681481794" lon="14.992038735557914"><ele>1350.0</ele><time>2026-03-27T17:20:20.999Z</time></trkpt><trkpt lat="37.672599268163566" lon="14.992058436142658"><ele>1350.0</ele><time>2026-03-27T17:20:22.999Z</time></trkpt><trkpt lat="37.67270839137173" lon="14.992070481575094"><ele>1350.0</ele><time>2026-03-27T17:20:24.999Z</time></trkpt><trkpt lat="37.672784885364294" lon="14.992051086813522"><ele>1350.0</ele><time>2026-03-27T17:20:25.999Z</time></trkpt><trkpt lat="37.67285064156157" lon="14.99205402390181"><ele>1350.0</ele><time>2026-03-27T17:20:26.999Z</time></trkpt><trkpt lat="37.67291336380805" lon="14.992061128781451"><ele>1350.0</ele><time>2026-03-27T17:20:27.999Z</time></trkpt><trkpt lat="37.673035764500035" lon="14.992061402731563"><ele>1350.0</ele><time>2026-03-27T17:20:29.999Z</time></trkpt><trkpt lat="37.673127758635836" lon="14.99203404582544"><ele>1352.6666666666667</ele><time>2026-03-27T17:20:32Z</time></trkpt><trkpt lat="37.673198867347665" lon="14.992011983458827"><ele>1355.3333333333333</ele><time>2026-03-27T17:20:34Z</time></trkpt><trkpt lat="37.67320142681709" lon="14.991917852365399"><ele>1358.0</ele><time>2026-03-27T17:20:35Z</time></trkpt><trkpt lat="37.67318498127651" lon="14.991773959729313"><ele>1360.6666666666665</ele><time>2026-03-27T17:20:37Z</time></trkpt><trkpt lat="37.673179055173804" lon="14.991691391637458"><ele>1363.3333333333333</ele><time>2026-03-27T17:20:38Z</time></trkpt><trkpt lat="37.67323202772548" lon="14.991599778827133"><ele>1366.0</ele><time>2026-03-27T17:20:40Z</time></trkpt><trkpt lat="37.67333515734966" lon="14.991524238058307"><ele>1366.4285714285716</ele><time>2026-03-27T17:20:42Z</time></trkpt><trkpt lat="37.67340885504097" lon="14.99150740596393"><ele>1366.857142857143</ele><time>2026-03-27T17:20:43Z</time></trkpt><trkpt lat="37.67348026686556" lon="14.99150329143101"><ele>1367.2857142857142</ele><time>2026-03-27T17:20:44Z</time></trkpt><trkpt lat="37.67355499238579" lon="14.991512228175218"><ele>1367.7142857142858</ele><time>2026-03-27T17:20:45Z</time></trkpt><trkpt lat="37.67363008635754" lon="14.991519248973114"><ele>1368.142857142857</ele><time>2026-03-27T17:20:46Z</time></trkpt><trkpt lat="37.67370341156098" lon="14.991511947909478"><ele>1368.5714285714287</ele><time>2026-03-27T17:20:47Z</time></trkpt><trkpt lat="37.673773282006636" lon="14.991517517643324"><ele>1369.0</ele><time>2026-03-27T17:20:48Z</time></trkpt><trkpt lat="37.67388848610498" lon="14.991524983170017"><ele>1372.4</ele><time>2026-03-27T17:20:50Z</time></trkpt><trkpt lat="37.67394891845049" lon="14.9914953618189"><ele>1375.8000000000002</ele><time>2026-03-27T17:20:51Z</time></trkpt><trkpt lat="37.674062637817805" lon="14.991424530878184"><ele>1379.1999999999998</ele><time>2026-03-27T17:20:53Z</time></trkpt><trkpt lat="37.67411905985108" lon="14.99138788625025"><ele>1382.6</ele><time>2026-03-27T17:20:54Z</time></trkpt><trkpt lat="37.67422405575941" lon="14.991308903499462"><ele>1386.0</ele><time>2026-03-27T17:20:56Z</time></trkpt><trkpt lat="37.67430634108279" lon="14.991282499436894"><ele>1386.0</ele><time>2026-03-27T17:20:59Z</time></trkpt><trkpt lat="37.674405214084466" lon="14.991239945561555"><ele>1386.0</ele><time>2026-03-27T17:21:01Z</time></trkpt><trkpt lat="37.6745024822472" lon="14.991210005932363"><ele>1386.0</ele><time>2026-03-27T17:21:03Z</time></trkpt><trkpt lat="37.67457940013684" lon="14.991157798301296"><ele>1386.0</ele><time>2026-03-27T17:21:05Z</time></trkpt><trkpt lat="37.67463764335027" lon="14.991108789846578"><ele>1386.0</ele><time>2026-03-27T17:21:06Z</time></trkpt><trkpt lat="37.674699806332555" lon="14.991057533908506"><ele>1386.0</ele><time>2026-03-27T17:21:07Z</time></trkpt><trkpt lat="37.67475337740087" lon="14.991013570977012"><ele>1388.5714285714287</ele><time>2026-03-27T17:21:08Z</time></trkpt><trkpt lat="37.67480554733483" lon="14.990958059324777"><ele>1391.142857142857</ele><time>2026-03-27T17:21:09Z</time></trkpt><trkpt lat="37.67486290285506" lon="14.99090037783337"><ele>1393.7142857142858</ele><time>2026-03-27T17:21:10Z</time></trkpt><trkpt lat="37.674927921613076" lon="14.990848659674645"><ele>1396.2857142857142</ele><time>2026-03-27T17:21:11Z</time></trkpt><trkpt lat="37.674989231811935" lon="14.990799058035604"><ele>1398.857142857143</ele><time>2026-03-27T17:21:12Z</time></trkpt><trkpt lat="37.67505924641565" lon="14.9907550427051"><ele>1401.4285714285716</ele><time>2026-03-27T17:21:13Z</time></trkpt><trkpt lat="37.67513060978671" lon="14.99073076190426"><ele>1404.0</ele><time>2026-03-27T17:21:14Z</time></trkpt><trkpt lat="37.67520281748212" lon="14.990747477764987"><ele>1406.8333333333333</ele><time>2026-03-27T17:21:15Z</time></trkpt><trkpt lat="37.675277769322555" lon="14.990733387394064"><ele>1409.6666666666667</ele><time>2026-03-27T17:21:16Z</time></trkpt><trkpt lat="37.67534925656262" lon="14.990732497214287"><ele>1412.5</ele><time>2026-03-27T17:21:17Z</time></trkpt><trkpt lat="37.67545550082568" lon="14.990746429425283"><ele>1415.3333333333335</ele><time>2026-03-27T17:21:19Z</time></trkpt><trkpt lat="37.67552260928799" lon="14.990749358086083"><ele>1418.1666666666667</ele><time>2026-03-27T17:21:22Z</time></trkpt><trkpt lat="37.67558907957699" lon="14.990757658584872"><ele>1421.0</ele><time>2026-03-27T17:21:24Z</time></trkpt><trkpt lat="37.6756720960107" lon="14.990750014746649"><ele>1421.0</ele><time>2026-03-27T17:21:28Z</time></trkpt><trkpt lat="37.675733958508204" lon="14.990821222627083"><ele>1421.0</ele><time>2026-03-27T17:21:31Z</time></trkpt><trkpt lat="37.67574696009436" lon="14.990909076402955"><ele>1421.0</ele><time>2026-03-27T17:21:33Z</time></trkpt><trkpt lat="37.67579001703152" lon="14.990971421106037"><ele>1421.0</ele><time>2026-03-27T17:21:35.999Z</time></trkpt><trkpt lat="37.675820773754324" lon="14.991054599465649"><ele>1421.0</ele><time>2026-03-27T17:21:39.999Z</time></trkpt><trkpt lat="37.67585885219532" lon="14.991122200856594"><ele>1421.0</ele><time>2026-03-27T17:21:48.999Z</time></trkpt><trkpt lat="37.675906687734404" lon="14.991193935180844"><ele>1421.0</ele><time>2026-03-27T17:22:07.999Z</time></trkpt><trkpt lat="37.675959642380626" lon="14.991258011380548"><ele>1420.0</ele><time>2026-03-27T17:22:11.999Z</time></trkpt><trkpt lat="37.67603259467729" lon="14.99127571491707"><ele>1420.0</ele><time>2026-03-27T17:22:20.999Z</time></trkpt><trkpt lat="37.67610823648432" lon="14.991281035296149"><ele>1436.0</ele><time>2026-03-27T17:22:34.999Z</time></trkpt></trkseg></trk></gpx>